<?xml version="1.0" encoding="UTF-8" standalone="no" ?>
<gpx xmlns="http://www.topografix.com/GPX/1/1" xmlns:xsi="http://www.w3.org/2001/XMLSchema-instance" xsi:schemaLocation="http://www.topografix.com/GPX/1/1 http://www.topografix.com/GPX/1/1/gpx.xsd" version="1.1" creator="VisuGPX - https://www.visugpx.com">
  <metadata>
    <name>CAZILHAC - CAVANAC - LEUC</name>
    <desc><![CDATA[Belle sortie sur trois communes avec passage au sentier des justices. Peut se faire en randonnée.]]></desc>
  </metadata>
  <trk>
    <name><![CDATA[TrailRunning]]></name>
    <trkseg>
      <trkpt lat="43.18512" lon="2.3609">
        <ele>134.7</ele>
        <time>2022-01-23T07:26:27.000Z</time>
      </trkpt>
      <trkpt lat="43.18512" lon="2.3609">
        <ele>134.7</ele>
        <time>2022-01-23T07:26:28.000Z</time>
      </trkpt>
      <trkpt lat="43.18513" lon="2.36091">
        <ele>134.8</ele>
        <time>2022-01-23T07:26:29.000Z</time>
      </trkpt>
      <trkpt lat="43.18513" lon="2.36091">
        <ele>134.8</ele>
        <time>2022-01-23T07:26:30.000Z</time>
      </trkpt>
      <trkpt lat="43.18514" lon="2.36092">
        <ele>134.8</ele>
        <time>2022-01-23T07:26:31.000Z</time>
      </trkpt>
      <trkpt lat="43.18514" lon="2.36092">
        <ele>134.9</ele>
        <time>2022-01-23T07:26:32.000Z</time>
      </trkpt>
      <trkpt lat="43.18515" lon="2.36093">
        <ele>134.9</ele>
        <time>2022-01-23T07:26:33.000Z</time>
      </trkpt>
      <trkpt lat="43.18516" lon="2.36093">
        <ele>134.9</ele>
        <time>2022-01-23T07:26:34.000Z</time>
      </trkpt>
      <trkpt lat="43.18517" lon="2.36094">
        <ele>135</ele>
        <time>2022-01-23T07:26:35.000Z</time>
      </trkpt>
      <trkpt lat="43.18518" lon="2.36094">
        <ele>135</ele>
        <time>2022-01-23T07:26:36.000Z</time>
      </trkpt>
      <trkpt lat="43.18518" lon="2.36095">
        <ele>135.1</ele>
        <time>2022-01-23T07:26:37.000Z</time>
      </trkpt>
      <trkpt lat="43.1852" lon="2.36095">
        <ele>135.2</ele>
        <time>2022-01-23T07:26:38.000Z</time>
      </trkpt>
      <trkpt lat="43.18521" lon="2.36096">
        <ele>135.2</ele>
        <time>2022-01-23T07:26:39.000Z</time>
      </trkpt>
      <trkpt lat="43.18522" lon="2.36096">
        <ele>135.3</ele>
        <time>2022-01-23T07:26:40.000Z</time>
      </trkpt>
      <trkpt lat="43.18523" lon="2.36097">
        <ele>135.4</ele>
        <time>2022-01-23T07:26:41.000Z</time>
      </trkpt>
      <trkpt lat="43.18525" lon="2.36097">
        <ele>135.4</ele>
        <time>2022-01-23T07:26:42.000Z</time>
      </trkpt>
      <trkpt lat="43.18527" lon="2.36098">
        <ele>135.5</ele>
        <time>2022-01-23T07:26:43.000Z</time>
      </trkpt>
      <trkpt lat="43.18529" lon="2.36099">
        <ele>135.6</ele>
        <time>2022-01-23T07:26:44.000Z</time>
      </trkpt>
      <trkpt lat="43.18531" lon="2.36099">
        <ele>135.7</ele>
        <time>2022-01-23T07:26:45.000Z</time>
      </trkpt>
      <trkpt lat="43.18533" lon="2.361">
        <ele>135.8</ele>
        <time>2022-01-23T07:26:46.000Z</time>
      </trkpt>
      <trkpt lat="43.18535" lon="2.36101">
        <ele>135.9</ele>
        <time>2022-01-23T07:26:47.000Z</time>
      </trkpt>
      <trkpt lat="43.18538" lon="2.36102">
        <ele>136</ele>
        <time>2022-01-23T07:26:48.000Z</time>
      </trkpt>
      <trkpt lat="43.1854" lon="2.36102">
        <ele>136.1</ele>
        <time>2022-01-23T07:26:49.000Z</time>
      </trkpt>
      <trkpt lat="43.18542" lon="2.36103">
        <ele>136.3</ele>
        <time>2022-01-23T07:26:50.000Z</time>
      </trkpt>
      <trkpt lat="43.18544" lon="2.36104">
        <ele>136.3</ele>
        <time>2022-01-23T07:26:51.000Z</time>
      </trkpt>
      <trkpt lat="43.18546" lon="2.36104">
        <ele>136.4</ele>
        <time>2022-01-23T07:26:52.000Z</time>
      </trkpt>
      <trkpt lat="43.18548" lon="2.36105">
        <ele>136.5</ele>
        <time>2022-01-23T07:26:53.000Z</time>
      </trkpt>
      <trkpt lat="43.18549" lon="2.36106">
        <ele>136.6</ele>
        <time>2022-01-23T07:26:54.000Z</time>
      </trkpt>
      <trkpt lat="43.1855" lon="2.36107">
        <ele>136.6</ele>
        <time>2022-01-23T07:26:55.000Z</time>
      </trkpt>
      <trkpt lat="43.18551" lon="2.36109">
        <ele>136.7</ele>
        <time>2022-01-23T07:26:56.000Z</time>
      </trkpt>
      <trkpt lat="43.18552" lon="2.36111">
        <ele>136.7</ele>
        <time>2022-01-23T07:26:57.000Z</time>
      </trkpt>
      <trkpt lat="43.18552" lon="2.36113">
        <ele>136.8</ele>
        <time>2022-01-23T07:26:58.000Z</time>
      </trkpt>
      <trkpt lat="43.18552" lon="2.36116">
        <ele>136.8</ele>
        <time>2022-01-23T07:26:59.000Z</time>
      </trkpt>
      <trkpt lat="43.18552" lon="2.36118">
        <ele>136.8</ele>
        <time>2022-01-23T07:27:00.000Z</time>
      </trkpt>
      <trkpt lat="43.18551" lon="2.36121">
        <ele>136.8</ele>
        <time>2022-01-23T07:27:01.000Z</time>
      </trkpt>
      <trkpt lat="43.18551" lon="2.36124">
        <ele>136.8</ele>
        <time>2022-01-23T07:27:02.000Z</time>
      </trkpt>
      <trkpt lat="43.1855" lon="2.36128">
        <ele>136.8</ele>
        <time>2022-01-23T07:27:03.000Z</time>
      </trkpt>
      <trkpt lat="43.1855" lon="2.36131">
        <ele>136.9</ele>
        <time>2022-01-23T07:27:04.000Z</time>
      </trkpt>
      <trkpt lat="43.18549" lon="2.36135">
        <ele>136.9</ele>
        <time>2022-01-23T07:27:05.000Z</time>
      </trkpt>
      <trkpt lat="43.18549" lon="2.36138">
        <ele>136.9</ele>
        <time>2022-01-23T07:27:06.000Z</time>
      </trkpt>
      <trkpt lat="43.18549" lon="2.36142">
        <ele>136.9</ele>
        <time>2022-01-23T07:27:07.000Z</time>
      </trkpt>
      <trkpt lat="43.18549" lon="2.36146">
        <ele>137</ele>
        <time>2022-01-23T07:27:08.000Z</time>
      </trkpt>
      <trkpt lat="43.18549" lon="2.3615">
        <ele>137</ele>
        <time>2022-01-23T07:27:09.000Z</time>
      </trkpt>
      <trkpt lat="43.18548" lon="2.36154">
        <ele>137</ele>
        <time>2022-01-23T07:27:10.000Z</time>
      </trkpt>
      <trkpt lat="43.18548" lon="2.36158">
        <ele>137.1</ele>
        <time>2022-01-23T07:27:11.000Z</time>
      </trkpt>
      <trkpt lat="43.18547" lon="2.36161">
        <ele>137.1</ele>
        <time>2022-01-23T07:27:12.000Z</time>
      </trkpt>
      <trkpt lat="43.18545" lon="2.36163">
        <ele>137</ele>
        <time>2022-01-23T07:27:13.000Z</time>
      </trkpt>
      <trkpt lat="43.18543" lon="2.36164">
        <ele>137</ele>
        <time>2022-01-23T07:27:14.000Z</time>
      </trkpt>
      <trkpt lat="43.18541" lon="2.36166">
        <ele>137</ele>
        <time>2022-01-23T07:27:15.000Z</time>
      </trkpt>
      <trkpt lat="43.18539" lon="2.36166">
        <ele>136.9</ele>
        <time>2022-01-23T07:27:16.000Z</time>
      </trkpt>
      <trkpt lat="43.18536" lon="2.36167">
        <ele>136.9</ele>
        <time>2022-01-23T07:27:17.000Z</time>
      </trkpt>
      <trkpt lat="43.18533" lon="2.36167">
        <ele>136.8</ele>
        <time>2022-01-23T07:27:18.000Z</time>
      </trkpt>
      <trkpt lat="43.18531" lon="2.36167">
        <ele>136.7</ele>
        <time>2022-01-23T07:27:19.000Z</time>
      </trkpt>
      <trkpt lat="43.18528" lon="2.36168">
        <ele>136.7</ele>
        <time>2022-01-23T07:27:20.000Z</time>
      </trkpt>
      <trkpt lat="43.18525" lon="2.36168">
        <ele>136.6</ele>
        <time>2022-01-23T07:27:21.000Z</time>
      </trkpt>
      <trkpt lat="43.18522" lon="2.36168">
        <ele>136.5</ele>
        <time>2022-01-23T07:27:22.000Z</time>
      </trkpt>
      <trkpt lat="43.18519" lon="2.36167">
        <ele>136.5</ele>
        <time>2022-01-23T07:27:23.000Z</time>
      </trkpt>
      <trkpt lat="43.18517" lon="2.36167">
        <ele>136.4</ele>
        <time>2022-01-23T07:27:24.000Z</time>
      </trkpt>
      <trkpt lat="43.18514" lon="2.36167">
        <ele>136.3</ele>
        <time>2022-01-23T07:27:25.000Z</time>
      </trkpt>
      <trkpt lat="43.18511" lon="2.36167">
        <ele>136.3</ele>
        <time>2022-01-23T07:27:26.000Z</time>
      </trkpt>
      <trkpt lat="43.18508" lon="2.36167">
        <ele>136.2</ele>
        <time>2022-01-23T07:27:27.000Z</time>
      </trkpt>
      <trkpt lat="43.18505" lon="2.36166">
        <ele>136.1</ele>
        <time>2022-01-23T07:27:28.000Z</time>
      </trkpt>
      <trkpt lat="43.18503" lon="2.36166">
        <ele>136</ele>
        <time>2022-01-23T07:27:29.000Z</time>
      </trkpt>
      <trkpt lat="43.185" lon="2.36166">
        <ele>136</ele>
        <time>2022-01-23T07:27:30.000Z</time>
      </trkpt>
      <trkpt lat="43.18497" lon="2.36165">
        <ele>135.9</ele>
        <time>2022-01-23T07:27:31.000Z</time>
      </trkpt>
      <trkpt lat="43.18494" lon="2.36165">
        <ele>135.8</ele>
        <time>2022-01-23T07:27:32.000Z</time>
      </trkpt>
      <trkpt lat="43.18492" lon="2.36165">
        <ele>135.8</ele>
        <time>2022-01-23T07:27:33.000Z</time>
      </trkpt>
      <trkpt lat="43.18489" lon="2.36164">
        <ele>135.7</ele>
        <time>2022-01-23T07:27:34.000Z</time>
      </trkpt>
      <trkpt lat="43.18486" lon="2.36164">
        <ele>135.6</ele>
        <time>2022-01-23T07:27:35.000Z</time>
      </trkpt>
      <trkpt lat="43.18484" lon="2.36164">
        <ele>135.5</ele>
        <time>2022-01-23T07:27:36.000Z</time>
      </trkpt>
      <trkpt lat="43.18481" lon="2.36163">
        <ele>135.5</ele>
        <time>2022-01-23T07:27:37.000Z</time>
      </trkpt>
      <trkpt lat="43.18479" lon="2.36163">
        <ele>135.4</ele>
        <time>2022-01-23T07:27:38.000Z</time>
      </trkpt>
      <trkpt lat="43.18476" lon="2.36162">
        <ele>135.3</ele>
        <time>2022-01-23T07:27:39.000Z</time>
      </trkpt>
      <trkpt lat="43.18474" lon="2.36162">
        <ele>135.3</ele>
        <time>2022-01-23T07:27:40.000Z</time>
      </trkpt>
      <trkpt lat="43.18471" lon="2.36162">
        <ele>135.2</ele>
        <time>2022-01-23T07:27:41.000Z</time>
      </trkpt>
      <trkpt lat="43.18468" lon="2.36161">
        <ele>135.1</ele>
        <time>2022-01-23T07:27:42.000Z</time>
      </trkpt>
      <trkpt lat="43.18466" lon="2.36161">
        <ele>135</ele>
        <time>2022-01-23T07:27:43.000Z</time>
      </trkpt>
      <trkpt lat="43.18463" lon="2.36161">
        <ele>135</ele>
        <time>2022-01-23T07:27:44.000Z</time>
      </trkpt>
      <trkpt lat="43.1846" lon="2.36161">
        <ele>134.9</ele>
        <time>2022-01-23T07:27:45.000Z</time>
      </trkpt>
      <trkpt lat="43.18457" lon="2.3616">
        <ele>134.8</ele>
        <time>2022-01-23T07:27:46.000Z</time>
      </trkpt>
      <trkpt lat="43.18454" lon="2.3616">
        <ele>134.7</ele>
        <time>2022-01-23T07:27:47.000Z</time>
      </trkpt>
      <trkpt lat="43.18451" lon="2.3616">
        <ele>134.7</ele>
        <time>2022-01-23T07:27:48.000Z</time>
      </trkpt>
      <trkpt lat="43.18448" lon="2.3616">
        <ele>134.6</ele>
        <time>2022-01-23T07:27:49.000Z</time>
      </trkpt>
      <trkpt lat="43.18445" lon="2.3616">
        <ele>134.5</ele>
        <time>2022-01-23T07:27:50.000Z</time>
      </trkpt>
      <trkpt lat="43.18442" lon="2.36159">
        <ele>134.4</ele>
        <time>2022-01-23T07:27:51.000Z</time>
      </trkpt>
      <trkpt lat="43.18439" lon="2.36159">
        <ele>134.4</ele>
        <time>2022-01-23T07:27:52.000Z</time>
      </trkpt>
      <trkpt lat="43.18436" lon="2.36159">
        <ele>134.3</ele>
        <time>2022-01-23T07:27:53.000Z</time>
      </trkpt>
      <trkpt lat="43.18433" lon="2.36159">
        <ele>134.2</ele>
        <time>2022-01-23T07:27:54.000Z</time>
      </trkpt>
      <trkpt lat="43.1843" lon="2.36158">
        <ele>134.1</ele>
        <time>2022-01-23T07:27:55.000Z</time>
      </trkpt>
      <trkpt lat="43.18427" lon="2.36158">
        <ele>134</ele>
        <time>2022-01-23T07:27:56.000Z</time>
      </trkpt>
      <trkpt lat="43.18424" lon="2.36157">
        <ele>133.9</ele>
        <time>2022-01-23T07:27:57.000Z</time>
      </trkpt>
      <trkpt lat="43.18421" lon="2.36157">
        <ele>133.9</ele>
        <time>2022-01-23T07:27:58.000Z</time>
      </trkpt>
      <trkpt lat="43.18418" lon="2.36156">
        <ele>133.8</ele>
        <time>2022-01-23T07:27:59.000Z</time>
      </trkpt>
      <trkpt lat="43.18415" lon="2.36156">
        <ele>133.8</ele>
        <time>2022-01-23T07:28:00.000Z</time>
      </trkpt>
      <trkpt lat="43.18412" lon="2.36155">
        <ele>133.9</ele>
        <time>2022-01-23T07:28:01.000Z</time>
      </trkpt>
      <trkpt lat="43.18409" lon="2.36155">
        <ele>134</ele>
        <time>2022-01-23T07:28:02.000Z</time>
      </trkpt>
      <trkpt lat="43.18406" lon="2.36154">
        <ele>134.1</ele>
        <time>2022-01-23T07:28:03.000Z</time>
      </trkpt>
      <trkpt lat="43.18403" lon="2.36154">
        <ele>134.2</ele>
        <time>2022-01-23T07:28:04.000Z</time>
      </trkpt>
      <trkpt lat="43.184" lon="2.36153">
        <ele>134.3</ele>
        <time>2022-01-23T07:28:05.000Z</time>
      </trkpt>
      <trkpt lat="43.18397" lon="2.36153">
        <ele>134.4</ele>
        <time>2022-01-23T07:28:06.000Z</time>
      </trkpt>
      <trkpt lat="43.18394" lon="2.36152">
        <ele>134.5</ele>
        <time>2022-01-23T07:28:07.000Z</time>
      </trkpt>
      <trkpt lat="43.18392" lon="2.36152">
        <ele>134.6</ele>
        <time>2022-01-23T07:28:08.000Z</time>
      </trkpt>
      <trkpt lat="43.18389" lon="2.36152">
        <ele>134.7</ele>
        <time>2022-01-23T07:28:09.000Z</time>
      </trkpt>
      <trkpt lat="43.18386" lon="2.36152">
        <ele>134.7</ele>
        <time>2022-01-23T07:28:10.000Z</time>
      </trkpt>
      <trkpt lat="43.18383" lon="2.36152">
        <ele>134.8</ele>
        <time>2022-01-23T07:28:11.000Z</time>
      </trkpt>
      <trkpt lat="43.18381" lon="2.36152">
        <ele>134.9</ele>
        <time>2022-01-23T07:28:12.000Z</time>
      </trkpt>
      <trkpt lat="43.18378" lon="2.36152">
        <ele>135</ele>
        <time>2022-01-23T07:28:13.000Z</time>
      </trkpt>
      <trkpt lat="43.18376" lon="2.36153">
        <ele>135.1</ele>
        <time>2022-01-23T07:28:14.000Z</time>
      </trkpt>
      <trkpt lat="43.18373" lon="2.36153">
        <ele>135.3</ele>
        <time>2022-01-23T07:28:15.000Z</time>
      </trkpt>
      <trkpt lat="43.18371" lon="2.36154">
        <ele>135.4</ele>
        <time>2022-01-23T07:28:16.000Z</time>
      </trkpt>
      <trkpt lat="43.18368" lon="2.36156">
        <ele>135.5</ele>
        <time>2022-01-23T07:28:17.000Z</time>
      </trkpt>
      <trkpt lat="43.18365" lon="2.36157">
        <ele>135.6</ele>
        <time>2022-01-23T07:28:18.000Z</time>
      </trkpt>
      <trkpt lat="43.18363" lon="2.36158">
        <ele>135.7</ele>
        <time>2022-01-23T07:28:19.000Z</time>
      </trkpt>
      <trkpt lat="43.18361" lon="2.3616">
        <ele>135.9</ele>
        <time>2022-01-23T07:28:20.000Z</time>
      </trkpt>
      <trkpt lat="43.18358" lon="2.36162">
        <ele>136</ele>
        <time>2022-01-23T07:28:21.000Z</time>
      </trkpt>
      <trkpt lat="43.18356" lon="2.36163">
        <ele>136.1</ele>
        <time>2022-01-23T07:28:22.000Z</time>
      </trkpt>
      <trkpt lat="43.18355" lon="2.36165">
        <ele>136.2</ele>
        <time>2022-01-23T07:28:23.000Z</time>
      </trkpt>
      <trkpt lat="43.18353" lon="2.36166">
        <ele>136.3</ele>
        <time>2022-01-23T07:28:24.000Z</time>
      </trkpt>
      <trkpt lat="43.18351" lon="2.36167">
        <ele>136.3</ele>
        <time>2022-01-23T07:28:25.000Z</time>
      </trkpt>
      <trkpt lat="43.1835" lon="2.36169">
        <ele>136.3</ele>
        <time>2022-01-23T07:28:26.000Z</time>
      </trkpt>
      <trkpt lat="43.18349" lon="2.3617">
        <ele>136.3</ele>
        <time>2022-01-23T07:28:27.000Z</time>
      </trkpt>
      <trkpt lat="43.18348" lon="2.36171">
        <ele>136.3</ele>
        <time>2022-01-23T07:28:28.000Z</time>
      </trkpt>
      <trkpt lat="43.18347" lon="2.36172">
        <ele>136.3</ele>
        <time>2022-01-23T07:28:29.000Z</time>
      </trkpt>
      <trkpt lat="43.18347" lon="2.36173">
        <ele>136.3</ele>
        <time>2022-01-23T07:28:30.000Z</time>
      </trkpt>
      <trkpt lat="43.18346" lon="2.36174">
        <ele>136.3</ele>
        <time>2022-01-23T07:28:31.000Z</time>
      </trkpt>
      <trkpt lat="43.18346" lon="2.36174">
        <ele>136.3</ele>
        <time>2022-01-23T07:28:32.000Z</time>
      </trkpt>
      <trkpt lat="43.18346" lon="2.36175">
        <ele>136.3</ele>
        <time>2022-01-23T07:28:33.000Z</time>
      </trkpt>
      <trkpt lat="43.18346" lon="2.36175">
        <ele>136.3</ele>
        <time>2022-01-23T07:28:34.000Z</time>
      </trkpt>
      <trkpt lat="43.18346" lon="2.36175">
        <ele>136.3</ele>
        <time>2022-01-23T07:28:35.000Z</time>
      </trkpt>
      <trkpt lat="43.18346" lon="2.36176">
        <ele>136.3</ele>
        <time>2022-01-23T07:28:36.000Z</time>
      </trkpt>
      <trkpt lat="43.18346" lon="2.36176">
        <ele>136.3</ele>
        <time>2022-01-23T07:28:37.000Z</time>
      </trkpt>
      <trkpt lat="43.18346" lon="2.36176">
        <ele>136.3</ele>
        <time>2022-01-23T07:28:38.000Z</time>
      </trkpt>
      <trkpt lat="43.18346" lon="2.36176">
        <ele>136.3</ele>
        <time>2022-01-23T07:28:39.000Z</time>
      </trkpt>
      <trkpt lat="43.18346" lon="2.36176">
        <ele>136.3</ele>
        <time>2022-01-23T07:28:40.000Z</time>
      </trkpt>
      <trkpt lat="43.18346" lon="2.36176">
        <ele>136.3</ele>
        <time>2022-01-23T07:28:41.000Z</time>
      </trkpt>
      <trkpt lat="43.18345" lon="2.36176">
        <ele>136.3</ele>
        <time>2022-01-23T07:28:42.000Z</time>
      </trkpt>
      <trkpt lat="43.18345" lon="2.36176">
        <ele>136.3</ele>
        <time>2022-01-23T07:28:43.000Z</time>
      </trkpt>
      <trkpt lat="43.18345" lon="2.36176">
        <ele>136.3</ele>
        <time>2022-01-23T07:28:44.000Z</time>
      </trkpt>
      <trkpt lat="43.18345" lon="2.36176">
        <ele>136.3</ele>
        <time>2022-01-23T07:28:45.000Z</time>
      </trkpt>
      <trkpt lat="43.18345" lon="2.36176">
        <ele>136.3</ele>
        <time>2022-01-23T07:28:46.000Z</time>
      </trkpt>
      <trkpt lat="43.18345" lon="2.36176">
        <ele>136.3</ele>
        <time>2022-01-23T07:28:47.000Z</time>
      </trkpt>
      <trkpt lat="43.18345" lon="2.36176">
        <ele>136.3</ele>
        <time>2022-01-23T07:28:48.000Z</time>
      </trkpt>
      <trkpt lat="43.18345" lon="2.36176">
        <ele>136.3</ele>
        <time>2022-01-23T07:28:49.000Z</time>
      </trkpt>
      <trkpt lat="43.18345" lon="2.36176">
        <ele>136.3</ele>
        <time>2022-01-23T07:28:50.000Z</time>
      </trkpt>
      <trkpt lat="43.18345" lon="2.36176">
        <ele>136.3</ele>
        <time>2022-01-23T07:28:51.000Z</time>
      </trkpt>
      <trkpt lat="43.18345" lon="2.36176">
        <ele>136.3</ele>
        <time>2022-01-23T07:28:52.000Z</time>
      </trkpt>
      <trkpt lat="43.18344" lon="2.36176">
        <ele>136.3</ele>
        <time>2022-01-23T07:28:53.000Z</time>
      </trkpt>
      <trkpt lat="43.18344" lon="2.36176">
        <ele>136.3</ele>
        <time>2022-01-23T07:28:54.000Z</time>
      </trkpt>
      <trkpt lat="43.18344" lon="2.36176">
        <ele>136.3</ele>
        <time>2022-01-23T07:28:55.000Z</time>
      </trkpt>
      <trkpt lat="43.18344" lon="2.36176">
        <ele>136.3</ele>
        <time>2022-01-23T07:28:56.000Z</time>
      </trkpt>
      <trkpt lat="43.18344" lon="2.36176">
        <ele>136.3</ele>
        <time>2022-01-23T07:28:57.000Z</time>
      </trkpt>
      <trkpt lat="43.18344" lon="2.36176">
        <ele>136.3</ele>
        <time>2022-01-23T07:28:58.000Z</time>
      </trkpt>
      <trkpt lat="43.18344" lon="2.36176">
        <ele>136.3</ele>
        <time>2022-01-23T07:28:59.000Z</time>
      </trkpt>
      <trkpt lat="43.18344" lon="2.36176">
        <ele>136.3</ele>
        <time>2022-01-23T07:29:00.000Z</time>
      </trkpt>
      <trkpt lat="43.18344" lon="2.36176">
        <ele>136.3</ele>
        <time>2022-01-23T07:29:01.000Z</time>
      </trkpt>
      <trkpt lat="43.18344" lon="2.36176">
        <ele>136.3</ele>
        <time>2022-01-23T07:29:02.000Z</time>
      </trkpt>
      <trkpt lat="43.18344" lon="2.36176">
        <ele>136.3</ele>
        <time>2022-01-23T07:29:03.000Z</time>
      </trkpt>
      <trkpt lat="43.18344" lon="2.36176">
        <ele>136.3</ele>
        <time>2022-01-23T07:29:04.000Z</time>
      </trkpt>
      <trkpt lat="43.18344" lon="2.36176">
        <ele>136.3</ele>
        <time>2022-01-23T07:29:05.000Z</time>
      </trkpt>
      <trkpt lat="43.18344" lon="2.36176">
        <ele>136.3</ele>
        <time>2022-01-23T07:29:06.000Z</time>
      </trkpt>
      <trkpt lat="43.18344" lon="2.36176">
        <ele>136.3</ele>
        <time>2022-01-23T07:29:07.000Z</time>
      </trkpt>
      <trkpt lat="43.18344" lon="2.36176">
        <ele>136.3</ele>
        <time>2022-01-23T07:29:08.000Z</time>
      </trkpt>
      <trkpt lat="43.18344" lon="2.36176">
        <ele>136.3</ele>
        <time>2022-01-23T07:29:09.000Z</time>
      </trkpt>
      <trkpt lat="43.18344" lon="2.36176">
        <ele>136.3</ele>
        <time>2022-01-23T07:29:10.000Z</time>
      </trkpt>
      <trkpt lat="43.18344" lon="2.36176">
        <ele>136.3</ele>
        <time>2022-01-23T07:29:11.000Z</time>
      </trkpt>
      <trkpt lat="43.18344" lon="2.36176">
        <ele>136.3</ele>
        <time>2022-01-23T07:29:12.000Z</time>
      </trkpt>
      <trkpt lat="43.18344" lon="2.36176">
        <ele>136.3</ele>
        <time>2022-01-23T07:29:13.000Z</time>
      </trkpt>
      <trkpt lat="43.18344" lon="2.36176">
        <ele>136.3</ele>
        <time>2022-01-23T07:29:14.000Z</time>
      </trkpt>
      <trkpt lat="43.18344" lon="2.36176">
        <ele>136.3</ele>
        <time>2022-01-23T07:29:15.000Z</time>
      </trkpt>
      <trkpt lat="43.18344" lon="2.36176">
        <ele>136.3</ele>
        <time>2022-01-23T07:29:16.000Z</time>
      </trkpt>
      <trkpt lat="43.18344" lon="2.36176">
        <ele>136.3</ele>
        <time>2022-01-23T07:29:17.000Z</time>
      </trkpt>
      <trkpt lat="43.18344" lon="2.36176">
        <ele>136.3</ele>
        <time>2022-01-23T07:29:18.000Z</time>
      </trkpt>
      <trkpt lat="43.18344" lon="2.36176">
        <ele>136.3</ele>
        <time>2022-01-23T07:29:19.000Z</time>
      </trkpt>
      <trkpt lat="43.18344" lon="2.36176">
        <ele>136.3</ele>
        <time>2022-01-23T07:29:20.000Z</time>
      </trkpt>
      <trkpt lat="43.18344" lon="2.36176">
        <ele>136.3</ele>
        <time>2022-01-23T07:29:21.000Z</time>
      </trkpt>
      <trkpt lat="43.18344" lon="2.36176">
        <ele>136.3</ele>
        <time>2022-01-23T07:29:22.000Z</time>
      </trkpt>
      <trkpt lat="43.18344" lon="2.36176">
        <ele>136.3</ele>
        <time>2022-01-23T07:29:23.000Z</time>
      </trkpt>
      <trkpt lat="43.18344" lon="2.36176">
        <ele>136.3</ele>
        <time>2022-01-23T07:29:24.000Z</time>
      </trkpt>
      <trkpt lat="43.18344" lon="2.36176">
        <ele>136.3</ele>
        <time>2022-01-23T07:29:25.000Z</time>
      </trkpt>
      <trkpt lat="43.18344" lon="2.36176">
        <ele>136.3</ele>
        <time>2022-01-23T07:29:26.000Z</time>
      </trkpt>
      <trkpt lat="43.18344" lon="2.36176">
        <ele>136.3</ele>
        <time>2022-01-23T07:29:27.000Z</time>
      </trkpt>
      <trkpt lat="43.18344" lon="2.36176">
        <ele>136.3</ele>
        <time>2022-01-23T07:29:28.000Z</time>
      </trkpt>
      <trkpt lat="43.18344" lon="2.36176">
        <ele>136.3</ele>
        <time>2022-01-23T07:29:29.000Z</time>
      </trkpt>
      <trkpt lat="43.18344" lon="2.36176">
        <ele>136.3</ele>
        <time>2022-01-23T07:29:30.000Z</time>
      </trkpt>
      <trkpt lat="43.18344" lon="2.36176">
        <ele>136.3</ele>
        <time>2022-01-23T07:29:31.000Z</time>
      </trkpt>
      <trkpt lat="43.18344" lon="2.36176">
        <ele>136.3</ele>
        <time>2022-01-23T07:29:32.000Z</time>
      </trkpt>
      <trkpt lat="43.18344" lon="2.36176">
        <ele>136.3</ele>
        <time>2022-01-23T07:29:33.000Z</time>
      </trkpt>
      <trkpt lat="43.18344" lon="2.36176">
        <ele>136.3</ele>
        <time>2022-01-23T07:29:34.000Z</time>
      </trkpt>
      <trkpt lat="43.18344" lon="2.36176">
        <ele>136.3</ele>
        <time>2022-01-23T07:29:35.000Z</time>
      </trkpt>
      <trkpt lat="43.18344" lon="2.36176">
        <ele>136.3</ele>
        <time>2022-01-23T07:29:36.000Z</time>
      </trkpt>
      <trkpt lat="43.18344" lon="2.36176">
        <ele>136.3</ele>
        <time>2022-01-23T07:29:37.000Z</time>
      </trkpt>
      <trkpt lat="43.18344" lon="2.36176">
        <ele>136.3</ele>
        <time>2022-01-23T07:29:38.000Z</time>
      </trkpt>
      <trkpt lat="43.18344" lon="2.36176">
        <ele>136.3</ele>
        <time>2022-01-23T07:29:39.000Z</time>
      </trkpt>
      <trkpt lat="43.18344" lon="2.36176">
        <ele>136.3</ele>
        <time>2022-01-23T07:29:40.000Z</time>
      </trkpt>
      <trkpt lat="43.18344" lon="2.36176">
        <ele>136.3</ele>
        <time>2022-01-23T07:29:41.000Z</time>
      </trkpt>
      <trkpt lat="43.18344" lon="2.36176">
        <ele>136.3</ele>
        <time>2022-01-23T07:29:42.000Z</time>
      </trkpt>
      <trkpt lat="43.18344" lon="2.36176">
        <ele>136.3</ele>
        <time>2022-01-23T07:29:43.000Z</time>
      </trkpt>
      <trkpt lat="43.18344" lon="2.36176">
        <ele>136.3</ele>
        <time>2022-01-23T07:29:44.000Z</time>
      </trkpt>
      <trkpt lat="43.18344" lon="2.36176">
        <ele>136.3</ele>
        <time>2022-01-23T07:29:45.000Z</time>
      </trkpt>
      <trkpt lat="43.18344" lon="2.36176">
        <ele>136.3</ele>
        <time>2022-01-23T07:29:46.000Z</time>
      </trkpt>
      <trkpt lat="43.18344" lon="2.36176">
        <ele>136.3</ele>
        <time>2022-01-23T07:29:47.000Z</time>
      </trkpt>
      <trkpt lat="43.18344" lon="2.36176">
        <ele>136.3</ele>
        <time>2022-01-23T07:29:48.000Z</time>
      </trkpt>
      <trkpt lat="43.18344" lon="2.36176">
        <ele>136.3</ele>
        <time>2022-01-23T07:29:49.000Z</time>
      </trkpt>
      <trkpt lat="43.18344" lon="2.36176">
        <ele>136.3</ele>
        <time>2022-01-23T07:29:50.000Z</time>
      </trkpt>
      <trkpt lat="43.18344" lon="2.36176">
        <ele>136.3</ele>
        <time>2022-01-23T07:29:51.000Z</time>
      </trkpt>
      <trkpt lat="43.18344" lon="2.36176">
        <ele>136.3</ele>
        <time>2022-01-23T07:29:52.000Z</time>
      </trkpt>
      <trkpt lat="43.18344" lon="2.36176">
        <ele>136.3</ele>
        <time>2022-01-23T07:29:53.000Z</time>
      </trkpt>
      <trkpt lat="43.18344" lon="2.36176">
        <ele>136.3</ele>
        <time>2022-01-23T07:29:54.000Z</time>
      </trkpt>
      <trkpt lat="43.18344" lon="2.36176">
        <ele>136.3</ele>
        <time>2022-01-23T07:29:55.000Z</time>
      </trkpt>
      <trkpt lat="43.18344" lon="2.36176">
        <ele>136.3</ele>
        <time>2022-01-23T07:29:56.000Z</time>
      </trkpt>
      <trkpt lat="43.18344" lon="2.36176">
        <ele>136.3</ele>
        <time>2022-01-23T07:29:57.000Z</time>
      </trkpt>
      <trkpt lat="43.18344" lon="2.36176">
        <ele>136.3</ele>
        <time>2022-01-23T07:29:58.000Z</time>
      </trkpt>
      <trkpt lat="43.18344" lon="2.36176">
        <ele>136.3</ele>
        <time>2022-01-23T07:29:59.000Z</time>
      </trkpt>
      <trkpt lat="43.18344" lon="2.36176">
        <ele>136.3</ele>
        <time>2022-01-23T07:30:00.000Z</time>
      </trkpt>
      <trkpt lat="43.18344" lon="2.36176">
        <ele>136.3</ele>
        <time>2022-01-23T07:30:01.000Z</time>
      </trkpt>
      <trkpt lat="43.18344" lon="2.36176">
        <ele>136.3</ele>
        <time>2022-01-23T07:30:02.000Z</time>
      </trkpt>
      <trkpt lat="43.18344" lon="2.36176">
        <ele>136.3</ele>
        <time>2022-01-23T07:30:03.000Z</time>
      </trkpt>
      <trkpt lat="43.18344" lon="2.36176">
        <ele>136.3</ele>
        <time>2022-01-23T07:30:04.000Z</time>
      </trkpt>
      <trkpt lat="43.18344" lon="2.36176">
        <ele>136.3</ele>
        <time>2022-01-23T07:30:05.000Z</time>
      </trkpt>
      <trkpt lat="43.18344" lon="2.36176">
        <ele>136.3</ele>
        <time>2022-01-23T07:30:06.000Z</time>
      </trkpt>
      <trkpt lat="43.18344" lon="2.36176">
        <ele>136.3</ele>
        <time>2022-01-23T07:30:07.000Z</time>
      </trkpt>
      <trkpt lat="43.18344" lon="2.36176">
        <ele>136.3</ele>
        <time>2022-01-23T07:30:08.000Z</time>
      </trkpt>
      <trkpt lat="43.18344" lon="2.36176">
        <ele>136.3</ele>
        <time>2022-01-23T07:30:09.000Z</time>
      </trkpt>
      <trkpt lat="43.18344" lon="2.36176">
        <ele>136.3</ele>
        <time>2022-01-23T07:30:10.000Z</time>
      </trkpt>
      <trkpt lat="43.18344" lon="2.36176">
        <ele>136.3</ele>
        <time>2022-01-23T07:30:11.000Z</time>
      </trkpt>
      <trkpt lat="43.18344" lon="2.36176">
        <ele>136.3</ele>
        <time>2022-01-23T07:30:12.000Z</time>
      </trkpt>
      <trkpt lat="43.18344" lon="2.36176">
        <ele>136.3</ele>
        <time>2022-01-23T07:30:13.000Z</time>
      </trkpt>
      <trkpt lat="43.18344" lon="2.36176">
        <ele>136.3</ele>
        <time>2022-01-23T07:30:14.000Z</time>
      </trkpt>
      <trkpt lat="43.18344" lon="2.36176">
        <ele>136.3</ele>
        <time>2022-01-23T07:30:15.000Z</time>
      </trkpt>
      <trkpt lat="43.18344" lon="2.36176">
        <ele>136.3</ele>
        <time>2022-01-23T07:30:16.000Z</time>
      </trkpt>
      <trkpt lat="43.18344" lon="2.36176">
        <ele>136.3</ele>
        <time>2022-01-23T07:30:17.000Z</time>
      </trkpt>
      <trkpt lat="43.18344" lon="2.36176">
        <ele>136.3</ele>
        <time>2022-01-23T07:30:18.000Z</time>
      </trkpt>
      <trkpt lat="43.18344" lon="2.36176">
        <ele>136.3</ele>
        <time>2022-01-23T07:30:19.000Z</time>
      </trkpt>
      <trkpt lat="43.18343" lon="2.36176">
        <ele>136.3</ele>
        <time>2022-01-23T07:30:20.000Z</time>
      </trkpt>
      <trkpt lat="43.18343" lon="2.36176">
        <ele>136.4</ele>
        <time>2022-01-23T07:30:21.000Z</time>
      </trkpt>
      <trkpt lat="43.18343" lon="2.36176">
        <ele>136.4</ele>
        <time>2022-01-23T07:30:22.000Z</time>
      </trkpt>
      <trkpt lat="43.18342" lon="2.36175">
        <ele>136.4</ele>
        <time>2022-01-23T07:30:23.000Z</time>
      </trkpt>
      <trkpt lat="43.18341" lon="2.36175">
        <ele>136.4</ele>
        <time>2022-01-23T07:30:24.000Z</time>
      </trkpt>
      <trkpt lat="43.1834" lon="2.36174">
        <ele>136.5</ele>
        <time>2022-01-23T07:30:25.000Z</time>
      </trkpt>
      <trkpt lat="43.18339" lon="2.36172">
        <ele>136.6</ele>
        <time>2022-01-23T07:30:26.000Z</time>
      </trkpt>
      <trkpt lat="43.18338" lon="2.36169">
        <ele>136.7</ele>
        <time>2022-01-23T07:30:27.000Z</time>
      </trkpt>
      <trkpt lat="43.18337" lon="2.36167">
        <ele>136.9</ele>
        <time>2022-01-23T07:30:28.000Z</time>
      </trkpt>
      <trkpt lat="43.18335" lon="2.36164">
        <ele>136.9</ele>
        <time>2022-01-23T07:30:29.000Z</time>
      </trkpt>
      <trkpt lat="43.18334" lon="2.36162">
        <ele>136.9</ele>
        <time>2022-01-23T07:30:30.000Z</time>
      </trkpt>
      <trkpt lat="43.18333" lon="2.36159">
        <ele>136.9</ele>
        <time>2022-01-23T07:30:31.000Z</time>
      </trkpt>
      <trkpt lat="43.18332" lon="2.36157">
        <ele>136.9</ele>
        <time>2022-01-23T07:30:32.000Z</time>
      </trkpt>
      <trkpt lat="43.1833" lon="2.36155">
        <ele>136.9</ele>
        <time>2022-01-23T07:30:33.000Z</time>
      </trkpt>
      <trkpt lat="43.18329" lon="2.36153">
        <ele>136.9</ele>
        <time>2022-01-23T07:30:34.000Z</time>
      </trkpt>
      <trkpt lat="43.18328" lon="2.36151">
        <ele>137</ele>
        <time>2022-01-23T07:30:35.000Z</time>
      </trkpt>
      <trkpt lat="43.18327" lon="2.36149">
        <ele>137</ele>
        <time>2022-01-23T07:30:36.000Z</time>
      </trkpt>
      <trkpt lat="43.18326" lon="2.36147">
        <ele>137.1</ele>
        <time>2022-01-23T07:30:37.000Z</time>
      </trkpt>
      <trkpt lat="43.18325" lon="2.36145">
        <ele>137.1</ele>
        <time>2022-01-23T07:30:38.000Z</time>
      </trkpt>
      <trkpt lat="43.18323" lon="2.36144">
        <ele>137.2</ele>
        <time>2022-01-23T07:30:39.000Z</time>
      </trkpt>
      <trkpt lat="43.18321" lon="2.36143">
        <ele>137.3</ele>
        <time>2022-01-23T07:30:40.000Z</time>
      </trkpt>
      <trkpt lat="43.18319" lon="2.36142">
        <ele>137.4</ele>
        <time>2022-01-23T07:30:41.000Z</time>
      </trkpt>
      <trkpt lat="43.18318" lon="2.36141">
        <ele>137.6</ele>
        <time>2022-01-23T07:30:42.000Z</time>
      </trkpt>
      <trkpt lat="43.18316" lon="2.36141">
        <ele>137.7</ele>
        <time>2022-01-23T07:30:43.000Z</time>
      </trkpt>
      <trkpt lat="43.18314" lon="2.3614">
        <ele>137.8</ele>
        <time>2022-01-23T07:30:44.000Z</time>
      </trkpt>
      <trkpt lat="43.18312" lon="2.3614">
        <ele>138</ele>
        <time>2022-01-23T07:30:45.000Z</time>
      </trkpt>
      <trkpt lat="43.1831" lon="2.36139">
        <ele>138.1</ele>
        <time>2022-01-23T07:30:46.000Z</time>
      </trkpt>
      <trkpt lat="43.18308" lon="2.36139">
        <ele>138.3</ele>
        <time>2022-01-23T07:30:47.000Z</time>
      </trkpt>
      <trkpt lat="43.18306" lon="2.36139">
        <ele>138.4</ele>
        <time>2022-01-23T07:30:48.000Z</time>
      </trkpt>
      <trkpt lat="43.18304" lon="2.36139">
        <ele>138.6</ele>
        <time>2022-01-23T07:30:49.000Z</time>
      </trkpt>
      <trkpt lat="43.18302" lon="2.36139">
        <ele>138.7</ele>
        <time>2022-01-23T07:30:50.000Z</time>
      </trkpt>
      <trkpt lat="43.183" lon="2.36139">
        <ele>138.9</ele>
        <time>2022-01-23T07:30:51.000Z</time>
      </trkpt>
      <trkpt lat="43.18297" lon="2.36139">
        <ele>139.1</ele>
        <time>2022-01-23T07:30:52.000Z</time>
      </trkpt>
      <trkpt lat="43.18295" lon="2.36139">
        <ele>139.2</ele>
        <time>2022-01-23T07:30:53.000Z</time>
      </trkpt>
      <trkpt lat="43.18293" lon="2.36139">
        <ele>139.4</ele>
        <time>2022-01-23T07:30:54.000Z</time>
      </trkpt>
      <trkpt lat="43.18291" lon="2.36139">
        <ele>139.6</ele>
        <time>2022-01-23T07:30:55.000Z</time>
      </trkpt>
      <trkpt lat="43.18289" lon="2.36139">
        <ele>139.7</ele>
        <time>2022-01-23T07:30:56.000Z</time>
      </trkpt>
      <trkpt lat="43.18287" lon="2.36139">
        <ele>139.9</ele>
        <time>2022-01-23T07:30:57.000Z</time>
      </trkpt>
      <trkpt lat="43.18285" lon="2.36139">
        <ele>140</ele>
        <time>2022-01-23T07:30:58.000Z</time>
      </trkpt>
      <trkpt lat="43.18283" lon="2.3614">
        <ele>140.2</ele>
        <time>2022-01-23T07:30:59.000Z</time>
      </trkpt>
      <trkpt lat="43.18281" lon="2.3614">
        <ele>140.3</ele>
        <time>2022-01-23T07:31:00.000Z</time>
      </trkpt>
      <trkpt lat="43.18279" lon="2.3614">
        <ele>140.5</ele>
        <time>2022-01-23T07:31:01.000Z</time>
      </trkpt>
      <trkpt lat="43.18277" lon="2.3614">
        <ele>140.6</ele>
        <time>2022-01-23T07:31:02.000Z</time>
      </trkpt>
      <trkpt lat="43.18275" lon="2.36139">
        <ele>140.7</ele>
        <time>2022-01-23T07:31:03.000Z</time>
      </trkpt>
      <trkpt lat="43.18274" lon="2.36139">
        <ele>140.9</ele>
        <time>2022-01-23T07:31:04.000Z</time>
      </trkpt>
      <trkpt lat="43.18272" lon="2.36139">
        <ele>141</ele>
        <time>2022-01-23T07:31:05.000Z</time>
      </trkpt>
      <trkpt lat="43.1827" lon="2.36139">
        <ele>141.1</ele>
        <time>2022-01-23T07:31:06.000Z</time>
      </trkpt>
      <trkpt lat="43.18269" lon="2.36138">
        <ele>141.3</ele>
        <time>2022-01-23T07:31:07.000Z</time>
      </trkpt>
      <trkpt lat="43.18267" lon="2.36138">
        <ele>141.4</ele>
        <time>2022-01-23T07:31:08.000Z</time>
      </trkpt>
      <trkpt lat="43.18266" lon="2.36138">
        <ele>141.5</ele>
        <time>2022-01-23T07:31:09.000Z</time>
      </trkpt>
      <trkpt lat="43.18264" lon="2.36137">
        <ele>141.6</ele>
        <time>2022-01-23T07:31:10.000Z</time>
      </trkpt>
      <trkpt lat="43.18262" lon="2.36137">
        <ele>141.8</ele>
        <time>2022-01-23T07:31:11.000Z</time>
      </trkpt>
      <trkpt lat="43.18261" lon="2.36137">
        <ele>141.9</ele>
        <time>2022-01-23T07:31:12.000Z</time>
      </trkpt>
      <trkpt lat="43.18259" lon="2.36137">
        <ele>142</ele>
        <time>2022-01-23T07:31:13.000Z</time>
      </trkpt>
      <trkpt lat="43.18257" lon="2.36137">
        <ele>142.2</ele>
        <time>2022-01-23T07:31:14.000Z</time>
      </trkpt>
      <trkpt lat="43.18255" lon="2.36137">
        <ele>142.3</ele>
        <time>2022-01-23T07:31:15.000Z</time>
      </trkpt>
      <trkpt lat="43.18253" lon="2.36137">
        <ele>142.4</ele>
        <time>2022-01-23T07:31:16.000Z</time>
      </trkpt>
      <trkpt lat="43.18251" lon="2.36137">
        <ele>142.6</ele>
        <time>2022-01-23T07:31:17.000Z</time>
      </trkpt>
      <trkpt lat="43.1825" lon="2.36137">
        <ele>142.7</ele>
        <time>2022-01-23T07:31:18.000Z</time>
      </trkpt>
      <trkpt lat="43.18248" lon="2.36137">
        <ele>142.6</ele>
        <time>2022-01-23T07:31:19.000Z</time>
      </trkpt>
      <trkpt lat="43.18246" lon="2.36137">
        <ele>142.6</ele>
        <time>2022-01-23T07:31:20.000Z</time>
      </trkpt>
      <trkpt lat="43.18244" lon="2.36137">
        <ele>142.5</ele>
        <time>2022-01-23T07:31:21.000Z</time>
      </trkpt>
      <trkpt lat="43.18242" lon="2.36137">
        <ele>142.5</ele>
        <time>2022-01-23T07:31:22.000Z</time>
      </trkpt>
      <trkpt lat="43.1824" lon="2.36137">
        <ele>142.5</ele>
        <time>2022-01-23T07:31:23.000Z</time>
      </trkpt>
      <trkpt lat="43.18238" lon="2.36137">
        <ele>142.4</ele>
        <time>2022-01-23T07:31:24.000Z</time>
      </trkpt>
      <trkpt lat="43.18236" lon="2.36137">
        <ele>142.4</ele>
        <time>2022-01-23T07:31:25.000Z</time>
      </trkpt>
      <trkpt lat="43.18234" lon="2.36137">
        <ele>142.3</ele>
        <time>2022-01-23T07:31:26.000Z</time>
      </trkpt>
      <trkpt lat="43.18232" lon="2.36136">
        <ele>142.3</ele>
        <time>2022-01-23T07:31:27.000Z</time>
      </trkpt>
      <trkpt lat="43.1823" lon="2.36136">
        <ele>142.2</ele>
        <time>2022-01-23T07:31:28.000Z</time>
      </trkpt>
      <trkpt lat="43.18228" lon="2.36136">
        <ele>142.2</ele>
        <time>2022-01-23T07:31:29.000Z</time>
      </trkpt>
      <trkpt lat="43.18226" lon="2.36135">
        <ele>142.1</ele>
        <time>2022-01-23T07:31:30.000Z</time>
      </trkpt>
      <trkpt lat="43.18225" lon="2.36135">
        <ele>142.1</ele>
        <time>2022-01-23T07:31:31.000Z</time>
      </trkpt>
      <trkpt lat="43.18223" lon="2.36135">
        <ele>142.1</ele>
        <time>2022-01-23T07:31:32.000Z</time>
      </trkpt>
      <trkpt lat="43.18221" lon="2.36135">
        <ele>142</ele>
        <time>2022-01-23T07:31:33.000Z</time>
      </trkpt>
      <trkpt lat="43.18219" lon="2.36135">
        <ele>142</ele>
        <time>2022-01-23T07:31:34.000Z</time>
      </trkpt>
      <trkpt lat="43.18218" lon="2.36135">
        <ele>141.9</ele>
        <time>2022-01-23T07:31:35.000Z</time>
      </trkpt>
      <trkpt lat="43.18216" lon="2.36134">
        <ele>141.9</ele>
        <time>2022-01-23T07:31:36.000Z</time>
      </trkpt>
      <trkpt lat="43.18214" lon="2.36134">
        <ele>141.8</ele>
        <time>2022-01-23T07:31:37.000Z</time>
      </trkpt>
      <trkpt lat="43.18213" lon="2.36134">
        <ele>141.8</ele>
        <time>2022-01-23T07:31:38.000Z</time>
      </trkpt>
      <trkpt lat="43.18211" lon="2.36134">
        <ele>141.8</ele>
        <time>2022-01-23T07:31:39.000Z</time>
      </trkpt>
      <trkpt lat="43.18209" lon="2.36134">
        <ele>141.7</ele>
        <time>2022-01-23T07:31:40.000Z</time>
      </trkpt>
      <trkpt lat="43.18207" lon="2.36134">
        <ele>141.7</ele>
        <time>2022-01-23T07:31:41.000Z</time>
      </trkpt>
      <trkpt lat="43.18206" lon="2.36134">
        <ele>141.6</ele>
        <time>2022-01-23T07:31:42.000Z</time>
      </trkpt>
      <trkpt lat="43.18203" lon="2.36134">
        <ele>141.6</ele>
        <time>2022-01-23T07:31:43.000Z</time>
      </trkpt>
      <trkpt lat="43.18201" lon="2.36134">
        <ele>141.5</ele>
        <time>2022-01-23T07:31:44.000Z</time>
      </trkpt>
      <trkpt lat="43.18199" lon="2.36135">
        <ele>141.4</ele>
        <time>2022-01-23T07:31:45.000Z</time>
      </trkpt>
      <trkpt lat="43.18196" lon="2.36135">
        <ele>141.4</ele>
        <time>2022-01-23T07:31:46.000Z</time>
      </trkpt>
      <trkpt lat="43.18194" lon="2.36136">
        <ele>141.3</ele>
        <time>2022-01-23T07:31:47.000Z</time>
      </trkpt>
      <trkpt lat="43.18192" lon="2.36137">
        <ele>141.3</ele>
        <time>2022-01-23T07:31:48.000Z</time>
      </trkpt>
      <trkpt lat="43.18191" lon="2.36138">
        <ele>141.2</ele>
        <time>2022-01-23T07:31:49.000Z</time>
      </trkpt>
      <trkpt lat="43.1819" lon="2.36139">
        <ele>141.2</ele>
        <time>2022-01-23T07:31:50.000Z</time>
      </trkpt>
      <trkpt lat="43.18189" lon="2.36141">
        <ele>141.2</ele>
        <time>2022-01-23T07:31:51.000Z</time>
      </trkpt>
      <trkpt lat="43.18188" lon="2.36143">
        <ele>141.2</ele>
        <time>2022-01-23T07:31:52.000Z</time>
      </trkpt>
      <trkpt lat="43.18188" lon="2.36145">
        <ele>141.2</ele>
        <time>2022-01-23T07:31:53.000Z</time>
      </trkpt>
      <trkpt lat="43.18187" lon="2.36147">
        <ele>141.2</ele>
        <time>2022-01-23T07:31:54.000Z</time>
      </trkpt>
      <trkpt lat="43.18186" lon="2.3615">
        <ele>141.2</ele>
        <time>2022-01-23T07:31:55.000Z</time>
      </trkpt>
      <trkpt lat="43.18186" lon="2.36152">
        <ele>141.2</ele>
        <time>2022-01-23T07:31:56.000Z</time>
      </trkpt>
      <trkpt lat="43.18185" lon="2.36155">
        <ele>141.2</ele>
        <time>2022-01-23T07:31:57.000Z</time>
      </trkpt>
      <trkpt lat="43.18185" lon="2.36157">
        <ele>141.2</ele>
        <time>2022-01-23T07:31:58.000Z</time>
      </trkpt>
      <trkpt lat="43.18184" lon="2.3616">
        <ele>141.2</ele>
        <time>2022-01-23T07:31:59.000Z</time>
      </trkpt>
      <trkpt lat="43.18183" lon="2.36163">
        <ele>141.2</ele>
        <time>2022-01-23T07:32:00.000Z</time>
      </trkpt>
      <trkpt lat="43.18182" lon="2.36165">
        <ele>141.2</ele>
        <time>2022-01-23T07:32:01.000Z</time>
      </trkpt>
      <trkpt lat="43.18182" lon="2.36168">
        <ele>141.2</ele>
        <time>2022-01-23T07:32:02.000Z</time>
      </trkpt>
      <trkpt lat="43.18181" lon="2.3617">
        <ele>141.2</ele>
        <time>2022-01-23T07:32:03.000Z</time>
      </trkpt>
      <trkpt lat="43.1818" lon="2.36173">
        <ele>141.1</ele>
        <time>2022-01-23T07:32:04.000Z</time>
      </trkpt>
      <trkpt lat="43.18179" lon="2.36176">
        <ele>141.1</ele>
        <time>2022-01-23T07:32:05.000Z</time>
      </trkpt>
      <trkpt lat="43.18178" lon="2.36178">
        <ele>141.1</ele>
        <time>2022-01-23T07:32:06.000Z</time>
      </trkpt>
      <trkpt lat="43.18178" lon="2.36181">
        <ele>141.1</ele>
        <time>2022-01-23T07:32:07.000Z</time>
      </trkpt>
      <trkpt lat="43.18177" lon="2.36184">
        <ele>141.1</ele>
        <time>2022-01-23T07:32:08.000Z</time>
      </trkpt>
      <trkpt lat="43.18176" lon="2.36186">
        <ele>141.1</ele>
        <time>2022-01-23T07:32:09.000Z</time>
      </trkpt>
      <trkpt lat="43.18176" lon="2.36189">
        <ele>141</ele>
        <time>2022-01-23T07:32:10.000Z</time>
      </trkpt>
      <trkpt lat="43.18175" lon="2.36191">
        <ele>141</ele>
        <time>2022-01-23T07:32:11.000Z</time>
      </trkpt>
      <trkpt lat="43.18174" lon="2.36194">
        <ele>141</ele>
        <time>2022-01-23T07:32:12.000Z</time>
      </trkpt>
      <trkpt lat="43.18174" lon="2.36197">
        <ele>141</ele>
        <time>2022-01-23T07:32:13.000Z</time>
      </trkpt>
      <trkpt lat="43.18173" lon="2.36199">
        <ele>141</ele>
        <time>2022-01-23T07:32:14.000Z</time>
      </trkpt>
      <trkpt lat="43.18173" lon="2.36202">
        <ele>141</ele>
        <time>2022-01-23T07:32:15.000Z</time>
      </trkpt>
      <trkpt lat="43.18172" lon="2.36204">
        <ele>141</ele>
        <time>2022-01-23T07:32:16.000Z</time>
      </trkpt>
      <trkpt lat="43.18172" lon="2.36207">
        <ele>141</ele>
        <time>2022-01-23T07:32:17.000Z</time>
      </trkpt>
      <trkpt lat="43.18171" lon="2.3621">
        <ele>141</ele>
        <time>2022-01-23T07:32:18.000Z</time>
      </trkpt>
      <trkpt lat="43.1817" lon="2.36212">
        <ele>141</ele>
        <time>2022-01-23T07:32:19.000Z</time>
      </trkpt>
      <trkpt lat="43.18169" lon="2.36215">
        <ele>141</ele>
        <time>2022-01-23T07:32:20.000Z</time>
      </trkpt>
      <trkpt lat="43.18168" lon="2.36218">
        <ele>141</ele>
        <time>2022-01-23T07:32:21.000Z</time>
      </trkpt>
      <trkpt lat="43.18167" lon="2.36221">
        <ele>141</ele>
        <time>2022-01-23T07:32:22.000Z</time>
      </trkpt>
      <trkpt lat="43.18165" lon="2.36224">
        <ele>140.9</ele>
        <time>2022-01-23T07:32:23.000Z</time>
      </trkpt>
      <trkpt lat="43.18164" lon="2.36227">
        <ele>140.9</ele>
        <time>2022-01-23T07:32:24.000Z</time>
      </trkpt>
      <trkpt lat="43.18162" lon="2.36229">
        <ele>140.8</ele>
        <time>2022-01-23T07:32:25.000Z</time>
      </trkpt>
      <trkpt lat="43.1816" lon="2.36232">
        <ele>140.7</ele>
        <time>2022-01-23T07:32:26.000Z</time>
      </trkpt>
      <trkpt lat="43.18158" lon="2.36234">
        <ele>140.7</ele>
        <time>2022-01-23T07:32:27.000Z</time>
      </trkpt>
      <trkpt lat="43.18156" lon="2.36236">
        <ele>140.6</ele>
        <time>2022-01-23T07:32:28.000Z</time>
      </trkpt>
      <trkpt lat="43.18154" lon="2.36238">
        <ele>140.5</ele>
        <time>2022-01-23T07:32:29.000Z</time>
      </trkpt>
      <trkpt lat="43.18151" lon="2.3624">
        <ele>140.4</ele>
        <time>2022-01-23T07:32:30.000Z</time>
      </trkpt>
      <trkpt lat="43.18149" lon="2.3624">
        <ele>140.3</ele>
        <time>2022-01-23T07:32:31.000Z</time>
      </trkpt>
      <trkpt lat="43.18147" lon="2.36241">
        <ele>140.3</ele>
        <time>2022-01-23T07:32:32.000Z</time>
      </trkpt>
      <trkpt lat="43.18145" lon="2.36241">
        <ele>140.2</ele>
        <time>2022-01-23T07:32:33.000Z</time>
      </trkpt>
      <trkpt lat="43.18142" lon="2.36241">
        <ele>140.1</ele>
        <time>2022-01-23T07:32:34.000Z</time>
      </trkpt>
      <trkpt lat="43.1814" lon="2.3624">
        <ele>140</ele>
        <time>2022-01-23T07:32:35.000Z</time>
      </trkpt>
      <trkpt lat="43.18138" lon="2.3624">
        <ele>139.9</ele>
        <time>2022-01-23T07:32:36.000Z</time>
      </trkpt>
      <trkpt lat="43.18136" lon="2.36239">
        <ele>139.8</ele>
        <time>2022-01-23T07:32:37.000Z</time>
      </trkpt>
      <trkpt lat="43.18133" lon="2.36238">
        <ele>139.7</ele>
        <time>2022-01-23T07:32:38.000Z</time>
      </trkpt>
      <trkpt lat="43.18131" lon="2.36237">
        <ele>139.7</ele>
        <time>2022-01-23T07:32:39.000Z</time>
      </trkpt>
      <trkpt lat="43.18129" lon="2.36236">
        <ele>139.6</ele>
        <time>2022-01-23T07:32:40.000Z</time>
      </trkpt>
      <trkpt lat="43.18127" lon="2.36234">
        <ele>139.5</ele>
        <time>2022-01-23T07:32:41.000Z</time>
      </trkpt>
      <trkpt lat="43.18125" lon="2.36233">
        <ele>139.4</ele>
        <time>2022-01-23T07:32:42.000Z</time>
      </trkpt>
      <trkpt lat="43.18123" lon="2.36232">
        <ele>139.3</ele>
        <time>2022-01-23T07:32:43.000Z</time>
      </trkpt>
      <trkpt lat="43.18121" lon="2.36231">
        <ele>139.2</ele>
        <time>2022-01-23T07:32:44.000Z</time>
      </trkpt>
      <trkpt lat="43.18119" lon="2.3623">
        <ele>139.1</ele>
        <time>2022-01-23T07:32:45.000Z</time>
      </trkpt>
      <trkpt lat="43.18117" lon="2.36228">
        <ele>139.1</ele>
        <time>2022-01-23T07:32:46.000Z</time>
      </trkpt>
      <trkpt lat="43.18115" lon="2.36227">
        <ele>139</ele>
        <time>2022-01-23T07:32:47.000Z</time>
      </trkpt>
      <trkpt lat="43.18113" lon="2.36226">
        <ele>138.9</ele>
        <time>2022-01-23T07:32:48.000Z</time>
      </trkpt>
      <trkpt lat="43.18112" lon="2.36225">
        <ele>138.8</ele>
        <time>2022-01-23T07:32:49.000Z</time>
      </trkpt>
      <trkpt lat="43.1811" lon="2.36224">
        <ele>138.7</ele>
        <time>2022-01-23T07:32:50.000Z</time>
      </trkpt>
      <trkpt lat="43.18108" lon="2.36223">
        <ele>138.7</ele>
        <time>2022-01-23T07:32:51.000Z</time>
      </trkpt>
      <trkpt lat="43.18106" lon="2.36222">
        <ele>138.6</ele>
        <time>2022-01-23T07:32:52.000Z</time>
      </trkpt>
      <trkpt lat="43.18104" lon="2.36222">
        <ele>138.5</ele>
        <time>2022-01-23T07:32:53.000Z</time>
      </trkpt>
      <trkpt lat="43.18102" lon="2.36221">
        <ele>138.4</ele>
        <time>2022-01-23T07:32:54.000Z</time>
      </trkpt>
      <trkpt lat="43.181" lon="2.3622">
        <ele>138.3</ele>
        <time>2022-01-23T07:32:55.000Z</time>
      </trkpt>
      <trkpt lat="43.18098" lon="2.3622">
        <ele>138.2</ele>
        <time>2022-01-23T07:32:56.000Z</time>
      </trkpt>
      <trkpt lat="43.18097" lon="2.36219">
        <ele>138.2</ele>
        <time>2022-01-23T07:32:57.000Z</time>
      </trkpt>
      <trkpt lat="43.18094" lon="2.36218">
        <ele>138.1</ele>
        <time>2022-01-23T07:32:58.000Z</time>
      </trkpt>
      <trkpt lat="43.18092" lon="2.36218">
        <ele>138</ele>
        <time>2022-01-23T07:32:59.000Z</time>
      </trkpt>
      <trkpt lat="43.1809" lon="2.36218">
        <ele>137.9</ele>
        <time>2022-01-23T07:33:00.000Z</time>
      </trkpt>
      <trkpt lat="43.18088" lon="2.36217">
        <ele>137.8</ele>
        <time>2022-01-23T07:33:01.000Z</time>
      </trkpt>
      <trkpt lat="43.18086" lon="2.36217">
        <ele>137.7</ele>
        <time>2022-01-23T07:33:02.000Z</time>
      </trkpt>
      <trkpt lat="43.18084" lon="2.36217">
        <ele>137.6</ele>
        <time>2022-01-23T07:33:03.000Z</time>
      </trkpt>
      <trkpt lat="43.18082" lon="2.36217">
        <ele>137.7</ele>
        <time>2022-01-23T07:33:04.000Z</time>
      </trkpt>
      <trkpt lat="43.1808" lon="2.36217">
        <ele>137.7</ele>
        <time>2022-01-23T07:33:05.000Z</time>
      </trkpt>
      <trkpt lat="43.18077" lon="2.36217">
        <ele>137.8</ele>
        <time>2022-01-23T07:33:06.000Z</time>
      </trkpt>
      <trkpt lat="43.18075" lon="2.36218">
        <ele>137.9</ele>
        <time>2022-01-23T07:33:07.000Z</time>
      </trkpt>
      <trkpt lat="43.18073" lon="2.36218">
        <ele>138</ele>
        <time>2022-01-23T07:33:08.000Z</time>
      </trkpt>
      <trkpt lat="43.18071" lon="2.36218">
        <ele>138.1</ele>
        <time>2022-01-23T07:33:09.000Z</time>
      </trkpt>
      <trkpt lat="43.18068" lon="2.36218">
        <ele>138.2</ele>
        <time>2022-01-23T07:33:10.000Z</time>
      </trkpt>
      <trkpt lat="43.18066" lon="2.36218">
        <ele>138.2</ele>
        <time>2022-01-23T07:33:11.000Z</time>
      </trkpt>
      <trkpt lat="43.18063" lon="2.36218">
        <ele>138.3</ele>
        <time>2022-01-23T07:33:12.000Z</time>
      </trkpt>
      <trkpt lat="43.18061" lon="2.36219">
        <ele>138.4</ele>
        <time>2022-01-23T07:33:13.000Z</time>
      </trkpt>
      <trkpt lat="43.18059" lon="2.36219">
        <ele>138.5</ele>
        <time>2022-01-23T07:33:14.000Z</time>
      </trkpt>
      <trkpt lat="43.18057" lon="2.3622">
        <ele>138.6</ele>
        <time>2022-01-23T07:33:15.000Z</time>
      </trkpt>
      <trkpt lat="43.18055" lon="2.36222">
        <ele>138.7</ele>
        <time>2022-01-23T07:33:16.000Z</time>
      </trkpt>
      <trkpt lat="43.18053" lon="2.36223">
        <ele>138.8</ele>
        <time>2022-01-23T07:33:17.000Z</time>
      </trkpt>
      <trkpt lat="43.18052" lon="2.36225">
        <ele>138.8</ele>
        <time>2022-01-23T07:33:18.000Z</time>
      </trkpt>
      <trkpt lat="43.1805" lon="2.36227">
        <ele>138.9</ele>
        <time>2022-01-23T07:33:19.000Z</time>
      </trkpt>
      <trkpt lat="43.18049" lon="2.36229">
        <ele>139</ele>
        <time>2022-01-23T07:33:20.000Z</time>
      </trkpt>
      <trkpt lat="43.18048" lon="2.36231">
        <ele>139.1</ele>
        <time>2022-01-23T07:33:21.000Z</time>
      </trkpt>
      <trkpt lat="43.18047" lon="2.36234">
        <ele>139.1</ele>
        <time>2022-01-23T07:33:22.000Z</time>
      </trkpt>
      <trkpt lat="43.18046" lon="2.36237">
        <ele>139.2</ele>
        <time>2022-01-23T07:33:23.000Z</time>
      </trkpt>
      <trkpt lat="43.18045" lon="2.36239">
        <ele>139.3</ele>
        <time>2022-01-23T07:33:24.000Z</time>
      </trkpt>
      <trkpt lat="43.18044" lon="2.36242">
        <ele>139.3</ele>
        <time>2022-01-23T07:33:25.000Z</time>
      </trkpt>
      <trkpt lat="43.18043" lon="2.36245">
        <ele>139.4</ele>
        <time>2022-01-23T07:33:26.000Z</time>
      </trkpt>
      <trkpt lat="43.18042" lon="2.36248">
        <ele>139.5</ele>
        <time>2022-01-23T07:33:27.000Z</time>
      </trkpt>
      <trkpt lat="43.18041" lon="2.3625">
        <ele>139.5</ele>
        <time>2022-01-23T07:33:28.000Z</time>
      </trkpt>
      <trkpt lat="43.1804" lon="2.36253">
        <ele>139.5</ele>
        <time>2022-01-23T07:33:29.000Z</time>
      </trkpt>
      <trkpt lat="43.18039" lon="2.36255">
        <ele>139.6</ele>
        <time>2022-01-23T07:33:30.000Z</time>
      </trkpt>
      <trkpt lat="43.18038" lon="2.36257">
        <ele>139.6</ele>
        <time>2022-01-23T07:33:31.000Z</time>
      </trkpt>
      <trkpt lat="43.18037" lon="2.36259">
        <ele>139.6</ele>
        <time>2022-01-23T07:33:32.000Z</time>
      </trkpt>
      <trkpt lat="43.18036" lon="2.36261">
        <ele>139.6</ele>
        <time>2022-01-23T07:33:33.000Z</time>
      </trkpt>
      <trkpt lat="43.18034" lon="2.36262">
        <ele>139.7</ele>
        <time>2022-01-23T07:33:34.000Z</time>
      </trkpt>
      <trkpt lat="43.18033" lon="2.36263">
        <ele>139.7</ele>
        <time>2022-01-23T07:33:35.000Z</time>
      </trkpt>
      <trkpt lat="43.18032" lon="2.36264">
        <ele>139.8</ele>
        <time>2022-01-23T07:33:36.000Z</time>
      </trkpt>
      <trkpt lat="43.1803" lon="2.36265">
        <ele>139.8</ele>
        <time>2022-01-23T07:33:37.000Z</time>
      </trkpt>
      <trkpt lat="43.18028" lon="2.36265">
        <ele>139.9</ele>
        <time>2022-01-23T07:33:38.000Z</time>
      </trkpt>
      <trkpt lat="43.18027" lon="2.36265">
        <ele>139.9</ele>
        <time>2022-01-23T07:33:39.000Z</time>
      </trkpt>
      <trkpt lat="43.18025" lon="2.36265">
        <ele>140</ele>
        <time>2022-01-23T07:33:40.000Z</time>
      </trkpt>
      <trkpt lat="43.18023" lon="2.36265">
        <ele>140</ele>
        <time>2022-01-23T07:33:41.000Z</time>
      </trkpt>
      <trkpt lat="43.18021" lon="2.36264">
        <ele>140.1</ele>
        <time>2022-01-23T07:33:42.000Z</time>
      </trkpt>
      <trkpt lat="43.18019" lon="2.36264">
        <ele>140.2</ele>
        <time>2022-01-23T07:33:43.000Z</time>
      </trkpt>
      <trkpt lat="43.18017" lon="2.36263">
        <ele>140.2</ele>
        <time>2022-01-23T07:33:44.000Z</time>
      </trkpt>
      <trkpt lat="43.18016" lon="2.36262">
        <ele>140.3</ele>
        <time>2022-01-23T07:33:45.000Z</time>
      </trkpt>
      <trkpt lat="43.18014" lon="2.36261">
        <ele>140.4</ele>
        <time>2022-01-23T07:33:46.000Z</time>
      </trkpt>
      <trkpt lat="43.18012" lon="2.36261">
        <ele>140.5</ele>
        <time>2022-01-23T07:33:47.000Z</time>
      </trkpt>
      <trkpt lat="43.1801" lon="2.3626">
        <ele>140.6</ele>
        <time>2022-01-23T07:33:48.000Z</time>
      </trkpt>
      <trkpt lat="43.18008" lon="2.36259">
        <ele>140.6</ele>
        <time>2022-01-23T07:33:49.000Z</time>
      </trkpt>
      <trkpt lat="43.18006" lon="2.36258">
        <ele>140.7</ele>
        <time>2022-01-23T07:33:50.000Z</time>
      </trkpt>
      <trkpt lat="43.18004" lon="2.36257">
        <ele>140.8</ele>
        <time>2022-01-23T07:33:51.000Z</time>
      </trkpt>
      <trkpt lat="43.18002" lon="2.36257">
        <ele>140.9</ele>
        <time>2022-01-23T07:33:52.000Z</time>
      </trkpt>
      <trkpt lat="43.18" lon="2.36256">
        <ele>140.9</ele>
        <time>2022-01-23T07:33:53.000Z</time>
      </trkpt>
      <trkpt lat="43.17998" lon="2.36256">
        <ele>141</ele>
        <time>2022-01-23T07:33:54.000Z</time>
      </trkpt>
      <trkpt lat="43.17996" lon="2.36255">
        <ele>141.1</ele>
        <time>2022-01-23T07:33:55.000Z</time>
      </trkpt>
      <trkpt lat="43.17994" lon="2.36255">
        <ele>141.2</ele>
        <time>2022-01-23T07:33:56.000Z</time>
      </trkpt>
      <trkpt lat="43.17991" lon="2.36254">
        <ele>141.3</ele>
        <time>2022-01-23T07:33:57.000Z</time>
      </trkpt>
      <trkpt lat="43.17989" lon="2.36254">
        <ele>141.4</ele>
        <time>2022-01-23T07:33:58.000Z</time>
      </trkpt>
      <trkpt lat="43.17987" lon="2.36254">
        <ele>141.4</ele>
        <time>2022-01-23T07:33:59.000Z</time>
      </trkpt>
      <trkpt lat="43.17985" lon="2.36253">
        <ele>141.5</ele>
        <time>2022-01-23T07:34:00.000Z</time>
      </trkpt>
      <trkpt lat="43.17983" lon="2.36253">
        <ele>141.6</ele>
        <time>2022-01-23T07:34:01.000Z</time>
      </trkpt>
      <trkpt lat="43.17981" lon="2.36253">
        <ele>141.7</ele>
        <time>2022-01-23T07:34:02.000Z</time>
      </trkpt>
      <trkpt lat="43.17978" lon="2.36252">
        <ele>141.8</ele>
        <time>2022-01-23T07:34:03.000Z</time>
      </trkpt>
      <trkpt lat="43.17976" lon="2.36252">
        <ele>141.9</ele>
        <time>2022-01-23T07:34:04.000Z</time>
      </trkpt>
      <trkpt lat="43.17974" lon="2.36251">
        <ele>141.9</ele>
        <time>2022-01-23T07:34:05.000Z</time>
      </trkpt>
      <trkpt lat="43.17972" lon="2.36251">
        <ele>142</ele>
        <time>2022-01-23T07:34:06.000Z</time>
      </trkpt>
      <trkpt lat="43.1797" lon="2.3625">
        <ele>142.1</ele>
        <time>2022-01-23T07:34:07.000Z</time>
      </trkpt>
      <trkpt lat="43.17967" lon="2.36249">
        <ele>142.2</ele>
        <time>2022-01-23T07:34:08.000Z</time>
      </trkpt>
      <trkpt lat="43.17965" lon="2.36248">
        <ele>142.2</ele>
        <time>2022-01-23T07:34:09.000Z</time>
      </trkpt>
      <trkpt lat="43.17963" lon="2.36247">
        <ele>142.3</ele>
        <time>2022-01-23T07:34:10.000Z</time>
      </trkpt>
      <trkpt lat="43.17961" lon="2.36246">
        <ele>142.4</ele>
        <time>2022-01-23T07:34:11.000Z</time>
      </trkpt>
      <trkpt lat="43.17959" lon="2.36246">
        <ele>142.4</ele>
        <time>2022-01-23T07:34:12.000Z</time>
      </trkpt>
      <trkpt lat="43.17957" lon="2.36245">
        <ele>142.5</ele>
        <time>2022-01-23T07:34:13.000Z</time>
      </trkpt>
      <trkpt lat="43.17954" lon="2.36244">
        <ele>142.6</ele>
        <time>2022-01-23T07:34:14.000Z</time>
      </trkpt>
      <trkpt lat="43.17952" lon="2.36243">
        <ele>142.6</ele>
        <time>2022-01-23T07:34:15.000Z</time>
      </trkpt>
      <trkpt lat="43.1795" lon="2.36242">
        <ele>142.7</ele>
        <time>2022-01-23T07:34:16.000Z</time>
      </trkpt>
      <trkpt lat="43.17948" lon="2.36242">
        <ele>142.8</ele>
        <time>2022-01-23T07:34:17.000Z</time>
      </trkpt>
      <trkpt lat="43.17945" lon="2.36241">
        <ele>142.9</ele>
        <time>2022-01-23T07:34:18.000Z</time>
      </trkpt>
      <trkpt lat="43.17943" lon="2.3624">
        <ele>142.9</ele>
        <time>2022-01-23T07:34:19.000Z</time>
      </trkpt>
      <trkpt lat="43.17941" lon="2.36239">
        <ele>143</ele>
        <time>2022-01-23T07:34:20.000Z</time>
      </trkpt>
      <trkpt lat="43.17939" lon="2.36238">
        <ele>143.1</ele>
        <time>2022-01-23T07:34:21.000Z</time>
      </trkpt>
      <trkpt lat="43.17937" lon="2.36237">
        <ele>143.1</ele>
        <time>2022-01-23T07:34:22.000Z</time>
      </trkpt>
      <trkpt lat="43.17935" lon="2.36236">
        <ele>143.2</ele>
        <time>2022-01-23T07:34:23.000Z</time>
      </trkpt>
      <trkpt lat="43.17933" lon="2.36235">
        <ele>143.2</ele>
        <time>2022-01-23T07:34:24.000Z</time>
      </trkpt>
      <trkpt lat="43.17931" lon="2.36234">
        <ele>143.3</ele>
        <time>2022-01-23T07:34:25.000Z</time>
      </trkpt>
      <trkpt lat="43.17929" lon="2.36233">
        <ele>143.3</ele>
        <time>2022-01-23T07:34:26.000Z</time>
      </trkpt>
      <trkpt lat="43.17928" lon="2.36232">
        <ele>143.4</ele>
        <time>2022-01-23T07:34:27.000Z</time>
      </trkpt>
      <trkpt lat="43.17926" lon="2.36231">
        <ele>143.4</ele>
        <time>2022-01-23T07:34:28.000Z</time>
      </trkpt>
      <trkpt lat="43.17924" lon="2.3623">
        <ele>143.5</ele>
        <time>2022-01-23T07:34:29.000Z</time>
      </trkpt>
      <trkpt lat="43.17922" lon="2.36229">
        <ele>143.6</ele>
        <time>2022-01-23T07:34:30.000Z</time>
      </trkpt>
      <trkpt lat="43.1792" lon="2.36228">
        <ele>143.6</ele>
        <time>2022-01-23T07:34:31.000Z</time>
      </trkpt>
      <trkpt lat="43.17918" lon="2.36227">
        <ele>143.7</ele>
        <time>2022-01-23T07:34:32.000Z</time>
      </trkpt>
      <trkpt lat="43.17916" lon="2.36226">
        <ele>143.7</ele>
        <time>2022-01-23T07:34:33.000Z</time>
      </trkpt>
      <trkpt lat="43.17914" lon="2.36225">
        <ele>143.7</ele>
        <time>2022-01-23T07:34:34.000Z</time>
      </trkpt>
      <trkpt lat="43.17912" lon="2.36224">
        <ele>143.6</ele>
        <time>2022-01-23T07:34:35.000Z</time>
      </trkpt>
      <trkpt lat="43.1791" lon="2.36223">
        <ele>143.6</ele>
        <time>2022-01-23T07:34:36.000Z</time>
      </trkpt>
      <trkpt lat="43.17908" lon="2.36223">
        <ele>143.6</ele>
        <time>2022-01-23T07:34:37.000Z</time>
      </trkpt>
      <trkpt lat="43.17906" lon="2.36223">
        <ele>143.5</ele>
        <time>2022-01-23T07:34:38.000Z</time>
      </trkpt>
      <trkpt lat="43.17904" lon="2.36222">
        <ele>143.5</ele>
        <time>2022-01-23T07:34:39.000Z</time>
      </trkpt>
      <trkpt lat="43.17902" lon="2.36222">
        <ele>143.5</ele>
        <time>2022-01-23T07:34:40.000Z</time>
      </trkpt>
      <trkpt lat="43.179" lon="2.36222">
        <ele>143.5</ele>
        <time>2022-01-23T07:34:41.000Z</time>
      </trkpt>
      <trkpt lat="43.17898" lon="2.36222">
        <ele>143.4</ele>
        <time>2022-01-23T07:34:42.000Z</time>
      </trkpt>
      <trkpt lat="43.17896" lon="2.36223">
        <ele>143.4</ele>
        <time>2022-01-23T07:34:43.000Z</time>
      </trkpt>
      <trkpt lat="43.17894" lon="2.36223">
        <ele>143.4</ele>
        <time>2022-01-23T07:34:44.000Z</time>
      </trkpt>
      <trkpt lat="43.17892" lon="2.36223">
        <ele>143.4</ele>
        <time>2022-01-23T07:34:45.000Z</time>
      </trkpt>
      <trkpt lat="43.1789" lon="2.36223">
        <ele>143.4</ele>
        <time>2022-01-23T07:34:46.000Z</time>
      </trkpt>
      <trkpt lat="43.17888" lon="2.36224">
        <ele>143.3</ele>
        <time>2022-01-23T07:34:47.000Z</time>
      </trkpt>
      <trkpt lat="43.17886" lon="2.36224">
        <ele>143.3</ele>
        <time>2022-01-23T07:34:48.000Z</time>
      </trkpt>
      <trkpt lat="43.17883" lon="2.36224">
        <ele>143.3</ele>
        <time>2022-01-23T07:34:49.000Z</time>
      </trkpt>
      <trkpt lat="43.17881" lon="2.36225">
        <ele>143.3</ele>
        <time>2022-01-23T07:34:50.000Z</time>
      </trkpt>
      <trkpt lat="43.17878" lon="2.36225">
        <ele>143.2</ele>
        <time>2022-01-23T07:34:51.000Z</time>
      </trkpt>
      <trkpt lat="43.17876" lon="2.36225">
        <ele>143.2</ele>
        <time>2022-01-23T07:34:52.000Z</time>
      </trkpt>
      <trkpt lat="43.17874" lon="2.36225">
        <ele>143.2</ele>
        <time>2022-01-23T07:34:53.000Z</time>
      </trkpt>
      <trkpt lat="43.17871" lon="2.36225">
        <ele>143.2</ele>
        <time>2022-01-23T07:34:54.000Z</time>
      </trkpt>
      <trkpt lat="43.17869" lon="2.36225">
        <ele>143.1</ele>
        <time>2022-01-23T07:34:55.000Z</time>
      </trkpt>
      <trkpt lat="43.17866" lon="2.36225">
        <ele>143.1</ele>
        <time>2022-01-23T07:34:56.000Z</time>
      </trkpt>
      <trkpt lat="43.17863" lon="2.36225">
        <ele>143.1</ele>
        <time>2022-01-23T07:34:57.000Z</time>
      </trkpt>
      <trkpt lat="43.17861" lon="2.36225">
        <ele>143</ele>
        <time>2022-01-23T07:34:58.000Z</time>
      </trkpt>
      <trkpt lat="43.17858" lon="2.36224">
        <ele>143</ele>
        <time>2022-01-23T07:34:59.000Z</time>
      </trkpt>
      <trkpt lat="43.17856" lon="2.36224">
        <ele>143</ele>
        <time>2022-01-23T07:35:00.000Z</time>
      </trkpt>
      <trkpt lat="43.17853" lon="2.36224">
        <ele>142.9</ele>
        <time>2022-01-23T07:35:01.000Z</time>
      </trkpt>
      <trkpt lat="43.17851" lon="2.36224">
        <ele>142.9</ele>
        <time>2022-01-23T07:35:02.000Z</time>
      </trkpt>
      <trkpt lat="43.17848" lon="2.36223">
        <ele>142.9</ele>
        <time>2022-01-23T07:35:03.000Z</time>
      </trkpt>
      <trkpt lat="43.17846" lon="2.36223">
        <ele>142.8</ele>
        <time>2022-01-23T07:35:04.000Z</time>
      </trkpt>
      <trkpt lat="43.17843" lon="2.36222">
        <ele>142.8</ele>
        <time>2022-01-23T07:35:05.000Z</time>
      </trkpt>
      <trkpt lat="43.17841" lon="2.36222">
        <ele>142.7</ele>
        <time>2022-01-23T07:35:06.000Z</time>
      </trkpt>
      <trkpt lat="43.17838" lon="2.36221">
        <ele>142.7</ele>
        <time>2022-01-23T07:35:07.000Z</time>
      </trkpt>
      <trkpt lat="43.17836" lon="2.36221">
        <ele>142.7</ele>
        <time>2022-01-23T07:35:08.000Z</time>
      </trkpt>
      <trkpt lat="43.17833" lon="2.3622">
        <ele>142.6</ele>
        <time>2022-01-23T07:35:09.000Z</time>
      </trkpt>
      <trkpt lat="43.17831" lon="2.36219">
        <ele>142.6</ele>
        <time>2022-01-23T07:35:10.000Z</time>
      </trkpt>
      <trkpt lat="43.17828" lon="2.36218">
        <ele>142.6</ele>
        <time>2022-01-23T07:35:11.000Z</time>
      </trkpt>
      <trkpt lat="43.17826" lon="2.36218">
        <ele>142.5</ele>
        <time>2022-01-23T07:35:12.000Z</time>
      </trkpt>
      <trkpt lat="43.17824" lon="2.36217">
        <ele>142.5</ele>
        <time>2022-01-23T07:35:13.000Z</time>
      </trkpt>
      <trkpt lat="43.17821" lon="2.36216">
        <ele>142.5</ele>
        <time>2022-01-23T07:35:14.000Z</time>
      </trkpt>
      <trkpt lat="43.17819" lon="2.36215">
        <ele>142.5</ele>
        <time>2022-01-23T07:35:15.000Z</time>
      </trkpt>
      <trkpt lat="43.17817" lon="2.36214">
        <ele>142.4</ele>
        <time>2022-01-23T07:35:16.000Z</time>
      </trkpt>
      <trkpt lat="43.17815" lon="2.36214">
        <ele>142.4</ele>
        <time>2022-01-23T07:35:17.000Z</time>
      </trkpt>
      <trkpt lat="43.17812" lon="2.36213">
        <ele>142.4</ele>
        <time>2022-01-23T07:35:18.000Z</time>
      </trkpt>
      <trkpt lat="43.1781" lon="2.36212">
        <ele>142.4</ele>
        <time>2022-01-23T07:35:19.000Z</time>
      </trkpt>
      <trkpt lat="43.17808" lon="2.36211">
        <ele>142.3</ele>
        <time>2022-01-23T07:35:20.000Z</time>
      </trkpt>
      <trkpt lat="43.17806" lon="2.3621">
        <ele>142.3</ele>
        <time>2022-01-23T07:35:21.000Z</time>
      </trkpt>
      <trkpt lat="43.17803" lon="2.36209">
        <ele>142.3</ele>
        <time>2022-01-23T07:35:22.000Z</time>
      </trkpt>
      <trkpt lat="43.17801" lon="2.36209">
        <ele>142.3</ele>
        <time>2022-01-23T07:35:23.000Z</time>
      </trkpt>
      <trkpt lat="43.17799" lon="2.36208">
        <ele>142.3</ele>
        <time>2022-01-23T07:35:24.000Z</time>
      </trkpt>
      <trkpt lat="43.17797" lon="2.36207">
        <ele>142.3</ele>
        <time>2022-01-23T07:35:25.000Z</time>
      </trkpt>
      <trkpt lat="43.17794" lon="2.36206">
        <ele>142.3</ele>
        <time>2022-01-23T07:35:26.000Z</time>
      </trkpt>
      <trkpt lat="43.17792" lon="2.36205">
        <ele>142.3</ele>
        <time>2022-01-23T07:35:27.000Z</time>
      </trkpt>
      <trkpt lat="43.1779" lon="2.36205">
        <ele>142.3</ele>
        <time>2022-01-23T07:35:28.000Z</time>
      </trkpt>
      <trkpt lat="43.17788" lon="2.36204">
        <ele>142.3</ele>
        <time>2022-01-23T07:35:29.000Z</time>
      </trkpt>
      <trkpt lat="43.17786" lon="2.36203">
        <ele>142.3</ele>
        <time>2022-01-23T07:35:30.000Z</time>
      </trkpt>
      <trkpt lat="43.17783" lon="2.36202">
        <ele>142.3</ele>
        <time>2022-01-23T07:35:31.000Z</time>
      </trkpt>
      <trkpt lat="43.17781" lon="2.36201">
        <ele>142.3</ele>
        <time>2022-01-23T07:35:32.000Z</time>
      </trkpt>
      <trkpt lat="43.17779" lon="2.36201">
        <ele>142.3</ele>
        <time>2022-01-23T07:35:33.000Z</time>
      </trkpt>
      <trkpt lat="43.17777" lon="2.362">
        <ele>142.3</ele>
        <time>2022-01-23T07:35:34.000Z</time>
      </trkpt>
      <trkpt lat="43.17775" lon="2.36199">
        <ele>142.3</ele>
        <time>2022-01-23T07:35:35.000Z</time>
      </trkpt>
      <trkpt lat="43.17772" lon="2.36198">
        <ele>142.3</ele>
        <time>2022-01-23T07:35:36.000Z</time>
      </trkpt>
      <trkpt lat="43.1777" lon="2.36197">
        <ele>142.3</ele>
        <time>2022-01-23T07:35:37.000Z</time>
      </trkpt>
      <trkpt lat="43.17768" lon="2.36196">
        <ele>142.3</ele>
        <time>2022-01-23T07:35:38.000Z</time>
      </trkpt>
      <trkpt lat="43.17766" lon="2.36195">
        <ele>142.3</ele>
        <time>2022-01-23T07:35:39.000Z</time>
      </trkpt>
      <trkpt lat="43.17763" lon="2.36194">
        <ele>142.3</ele>
        <time>2022-01-23T07:35:40.000Z</time>
      </trkpt>
      <trkpt lat="43.17761" lon="2.36193">
        <ele>142.4</ele>
        <time>2022-01-23T07:35:41.000Z</time>
      </trkpt>
      <trkpt lat="43.17759" lon="2.36192">
        <ele>142.4</ele>
        <time>2022-01-23T07:35:42.000Z</time>
      </trkpt>
      <trkpt lat="43.17757" lon="2.36191">
        <ele>142.4</ele>
        <time>2022-01-23T07:35:43.000Z</time>
      </trkpt>
      <trkpt lat="43.17754" lon="2.3619">
        <ele>142.4</ele>
        <time>2022-01-23T07:35:44.000Z</time>
      </trkpt>
      <trkpt lat="43.17752" lon="2.36189">
        <ele>142.5</ele>
        <time>2022-01-23T07:35:45.000Z</time>
      </trkpt>
      <trkpt lat="43.1775" lon="2.36188">
        <ele>142.5</ele>
        <time>2022-01-23T07:35:46.000Z</time>
      </trkpt>
      <trkpt lat="43.17748" lon="2.36187">
        <ele>142.5</ele>
        <time>2022-01-23T07:35:47.000Z</time>
      </trkpt>
      <trkpt lat="43.17746" lon="2.36186">
        <ele>142.6</ele>
        <time>2022-01-23T07:35:48.000Z</time>
      </trkpt>
      <trkpt lat="43.17744" lon="2.36185">
        <ele>142.7</ele>
        <time>2022-01-23T07:35:49.000Z</time>
      </trkpt>
      <trkpt lat="43.17742" lon="2.36184">
        <ele>142.7</ele>
        <time>2022-01-23T07:35:50.000Z</time>
      </trkpt>
      <trkpt lat="43.17739" lon="2.36183">
        <ele>142.8</ele>
        <time>2022-01-23T07:35:51.000Z</time>
      </trkpt>
      <trkpt lat="43.17737" lon="2.36181">
        <ele>142.9</ele>
        <time>2022-01-23T07:35:52.000Z</time>
      </trkpt>
      <trkpt lat="43.17735" lon="2.3618">
        <ele>142.9</ele>
        <time>2022-01-23T07:35:53.000Z</time>
      </trkpt>
      <trkpt lat="43.17733" lon="2.36179">
        <ele>143</ele>
        <time>2022-01-23T07:35:54.000Z</time>
      </trkpt>
      <trkpt lat="43.17731" lon="2.36178">
        <ele>143</ele>
        <time>2022-01-23T07:35:55.000Z</time>
      </trkpt>
      <trkpt lat="43.17729" lon="2.36176">
        <ele>143.1</ele>
        <time>2022-01-23T07:35:56.000Z</time>
      </trkpt>
      <trkpt lat="43.17727" lon="2.36175">
        <ele>143.1</ele>
        <time>2022-01-23T07:35:57.000Z</time>
      </trkpt>
      <trkpt lat="43.17725" lon="2.36174">
        <ele>143.2</ele>
        <time>2022-01-23T07:35:58.000Z</time>
      </trkpt>
      <trkpt lat="43.17723" lon="2.36173">
        <ele>143.2</ele>
        <time>2022-01-23T07:35:59.000Z</time>
      </trkpt>
      <trkpt lat="43.17721" lon="2.36172">
        <ele>143.3</ele>
        <time>2022-01-23T07:36:00.000Z</time>
      </trkpt>
      <trkpt lat="43.17719" lon="2.3617">
        <ele>143.3</ele>
        <time>2022-01-23T07:36:01.000Z</time>
      </trkpt>
      <trkpt lat="43.17717" lon="2.36169">
        <ele>143.4</ele>
        <time>2022-01-23T07:36:02.000Z</time>
      </trkpt>
      <trkpt lat="43.17715" lon="2.36168">
        <ele>143.4</ele>
        <time>2022-01-23T07:36:03.000Z</time>
      </trkpt>
      <trkpt lat="43.17713" lon="2.36167">
        <ele>143.4</ele>
        <time>2022-01-23T07:36:04.000Z</time>
      </trkpt>
      <trkpt lat="43.17711" lon="2.36166">
        <ele>143.4</ele>
        <time>2022-01-23T07:36:05.000Z</time>
      </trkpt>
      <trkpt lat="43.17709" lon="2.36165">
        <ele>143.4</ele>
        <time>2022-01-23T07:36:06.000Z</time>
      </trkpt>
      <trkpt lat="43.17707" lon="2.36163">
        <ele>143.4</ele>
        <time>2022-01-23T07:36:07.000Z</time>
      </trkpt>
      <trkpt lat="43.17705" lon="2.36162">
        <ele>143.4</ele>
        <time>2022-01-23T07:36:08.000Z</time>
      </trkpt>
      <trkpt lat="43.17703" lon="2.36161">
        <ele>143.4</ele>
        <time>2022-01-23T07:36:09.000Z</time>
      </trkpt>
      <trkpt lat="43.17701" lon="2.3616">
        <ele>143.4</ele>
        <time>2022-01-23T07:36:10.000Z</time>
      </trkpt>
      <trkpt lat="43.17699" lon="2.36159">
        <ele>143.4</ele>
        <time>2022-01-23T07:36:11.000Z</time>
      </trkpt>
      <trkpt lat="43.17697" lon="2.36158">
        <ele>143.4</ele>
        <time>2022-01-23T07:36:12.000Z</time>
      </trkpt>
      <trkpt lat="43.17695" lon="2.36158">
        <ele>143.4</ele>
        <time>2022-01-23T07:36:13.000Z</time>
      </trkpt>
      <trkpt lat="43.17693" lon="2.36157">
        <ele>143.4</ele>
        <time>2022-01-23T07:36:14.000Z</time>
      </trkpt>
      <trkpt lat="43.17691" lon="2.36156">
        <ele>143.4</ele>
        <time>2022-01-23T07:36:15.000Z</time>
      </trkpt>
      <trkpt lat="43.17689" lon="2.36155">
        <ele>143.4</ele>
        <time>2022-01-23T07:36:16.000Z</time>
      </trkpt>
      <trkpt lat="43.17686" lon="2.36154">
        <ele>143.4</ele>
        <time>2022-01-23T07:36:17.000Z</time>
      </trkpt>
      <trkpt lat="43.17684" lon="2.36154">
        <ele>143.4</ele>
        <time>2022-01-23T07:36:18.000Z</time>
      </trkpt>
      <trkpt lat="43.17682" lon="2.36153">
        <ele>143.4</ele>
        <time>2022-01-23T07:36:19.000Z</time>
      </trkpt>
      <trkpt lat="43.1768" lon="2.36152">
        <ele>143.4</ele>
        <time>2022-01-23T07:36:20.000Z</time>
      </trkpt>
      <trkpt lat="43.17678" lon="2.36152">
        <ele>143.4</ele>
        <time>2022-01-23T07:36:21.000Z</time>
      </trkpt>
      <trkpt lat="43.17675" lon="2.36151">
        <ele>143.4</ele>
        <time>2022-01-23T07:36:22.000Z</time>
      </trkpt>
      <trkpt lat="43.17673" lon="2.3615">
        <ele>143.4</ele>
        <time>2022-01-23T07:36:23.000Z</time>
      </trkpt>
      <trkpt lat="43.17671" lon="2.3615">
        <ele>143.4</ele>
        <time>2022-01-23T07:36:24.000Z</time>
      </trkpt>
      <trkpt lat="43.17669" lon="2.36149">
        <ele>143.4</ele>
        <time>2022-01-23T07:36:25.000Z</time>
      </trkpt>
      <trkpt lat="43.17666" lon="2.36149">
        <ele>143.4</ele>
        <time>2022-01-23T07:36:26.000Z</time>
      </trkpt>
      <trkpt lat="43.17664" lon="2.36148">
        <ele>143.3</ele>
        <time>2022-01-23T07:36:27.000Z</time>
      </trkpt>
      <trkpt lat="43.17662" lon="2.36148">
        <ele>143.3</ele>
        <time>2022-01-23T07:36:28.000Z</time>
      </trkpt>
      <trkpt lat="43.17659" lon="2.36147">
        <ele>143.3</ele>
        <time>2022-01-23T07:36:29.000Z</time>
      </trkpt>
      <trkpt lat="43.17657" lon="2.36147">
        <ele>143.3</ele>
        <time>2022-01-23T07:36:30.000Z</time>
      </trkpt>
      <trkpt lat="43.17655" lon="2.36146">
        <ele>143.3</ele>
        <time>2022-01-23T07:36:31.000Z</time>
      </trkpt>
      <trkpt lat="43.17652" lon="2.36145">
        <ele>143.3</ele>
        <time>2022-01-23T07:36:32.000Z</time>
      </trkpt>
      <trkpt lat="43.1765" lon="2.36145">
        <ele>143.3</ele>
        <time>2022-01-23T07:36:33.000Z</time>
      </trkpt>
      <trkpt lat="43.17648" lon="2.36144">
        <ele>143.2</ele>
        <time>2022-01-23T07:36:34.000Z</time>
      </trkpt>
      <trkpt lat="43.17645" lon="2.36144">
        <ele>143.2</ele>
        <time>2022-01-23T07:36:35.000Z</time>
      </trkpt>
      <trkpt lat="43.17643" lon="2.36143">
        <ele>143.2</ele>
        <time>2022-01-23T07:36:36.000Z</time>
      </trkpt>
      <trkpt lat="43.1764" lon="2.36142">
        <ele>143.2</ele>
        <time>2022-01-23T07:36:37.000Z</time>
      </trkpt>
      <trkpt lat="43.17638" lon="2.36142">
        <ele>143.2</ele>
        <time>2022-01-23T07:36:38.000Z</time>
      </trkpt>
      <trkpt lat="43.17636" lon="2.36141">
        <ele>143.2</ele>
        <time>2022-01-23T07:36:39.000Z</time>
      </trkpt>
      <trkpt lat="43.17633" lon="2.3614">
        <ele>143.2</ele>
        <time>2022-01-23T07:36:40.000Z</time>
      </trkpt>
      <trkpt lat="43.17631" lon="2.36139">
        <ele>143.2</ele>
        <time>2022-01-23T07:36:41.000Z</time>
      </trkpt>
      <trkpt lat="43.17629" lon="2.36139">
        <ele>143.1</ele>
        <time>2022-01-23T07:36:42.000Z</time>
      </trkpt>
      <trkpt lat="43.17626" lon="2.36138">
        <ele>143.1</ele>
        <time>2022-01-23T07:36:43.000Z</time>
      </trkpt>
      <trkpt lat="43.17624" lon="2.36137">
        <ele>143.1</ele>
        <time>2022-01-23T07:36:44.000Z</time>
      </trkpt>
      <trkpt lat="43.17622" lon="2.36136">
        <ele>143.1</ele>
        <time>2022-01-23T07:36:45.000Z</time>
      </trkpt>
      <trkpt lat="43.17619" lon="2.36135">
        <ele>143.1</ele>
        <time>2022-01-23T07:36:46.000Z</time>
      </trkpt>
      <trkpt lat="43.17617" lon="2.36134">
        <ele>143.1</ele>
        <time>2022-01-23T07:36:47.000Z</time>
      </trkpt>
      <trkpt lat="43.17615" lon="2.36133">
        <ele>143</ele>
        <time>2022-01-23T07:36:48.000Z</time>
      </trkpt>
      <trkpt lat="43.17612" lon="2.36132">
        <ele>143</ele>
        <time>2022-01-23T07:36:49.000Z</time>
      </trkpt>
      <trkpt lat="43.1761" lon="2.36131">
        <ele>143</ele>
        <time>2022-01-23T07:36:50.000Z</time>
      </trkpt>
      <trkpt lat="43.17608" lon="2.3613">
        <ele>143</ele>
        <time>2022-01-23T07:36:51.000Z</time>
      </trkpt>
      <trkpt lat="43.17605" lon="2.36129">
        <ele>143</ele>
        <time>2022-01-23T07:36:52.000Z</time>
      </trkpt>
      <trkpt lat="43.17603" lon="2.36128">
        <ele>143</ele>
        <time>2022-01-23T07:36:53.000Z</time>
      </trkpt>
      <trkpt lat="43.17601" lon="2.36126">
        <ele>142.9</ele>
        <time>2022-01-23T07:36:54.000Z</time>
      </trkpt>
      <trkpt lat="43.17599" lon="2.36125">
        <ele>142.9</ele>
        <time>2022-01-23T07:36:55.000Z</time>
      </trkpt>
      <trkpt lat="43.17597" lon="2.36124">
        <ele>142.9</ele>
        <time>2022-01-23T07:36:56.000Z</time>
      </trkpt>
      <trkpt lat="43.17594" lon="2.36122">
        <ele>142.9</ele>
        <time>2022-01-23T07:36:57.000Z</time>
      </trkpt>
      <trkpt lat="43.17592" lon="2.36121">
        <ele>142.8</ele>
        <time>2022-01-23T07:36:58.000Z</time>
      </trkpt>
      <trkpt lat="43.1759" lon="2.36119">
        <ele>142.8</ele>
        <time>2022-01-23T07:36:59.000Z</time>
      </trkpt>
      <trkpt lat="43.17588" lon="2.36118">
        <ele>142.8</ele>
        <time>2022-01-23T07:37:00.000Z</time>
      </trkpt>
      <trkpt lat="43.17586" lon="2.36116">
        <ele>142.8</ele>
        <time>2022-01-23T07:37:01.000Z</time>
      </trkpt>
      <trkpt lat="43.17584" lon="2.36115">
        <ele>142.7</ele>
        <time>2022-01-23T07:37:02.000Z</time>
      </trkpt>
      <trkpt lat="43.17582" lon="2.36113">
        <ele>142.8</ele>
        <time>2022-01-23T07:37:03.000Z</time>
      </trkpt>
      <trkpt lat="43.1758" lon="2.36111">
        <ele>142.8</ele>
        <time>2022-01-23T07:37:04.000Z</time>
      </trkpt>
      <trkpt lat="43.17578" lon="2.36109">
        <ele>142.8</ele>
        <time>2022-01-23T07:37:05.000Z</time>
      </trkpt>
      <trkpt lat="43.17576" lon="2.36108">
        <ele>142.9</ele>
        <time>2022-01-23T07:37:06.000Z</time>
      </trkpt>
      <trkpt lat="43.17574" lon="2.36106">
        <ele>142.9</ele>
        <time>2022-01-23T07:37:07.000Z</time>
      </trkpt>
      <trkpt lat="43.17572" lon="2.36104">
        <ele>143</ele>
        <time>2022-01-23T07:37:08.000Z</time>
      </trkpt>
      <trkpt lat="43.1757" lon="2.36102">
        <ele>143</ele>
        <time>2022-01-23T07:37:09.000Z</time>
      </trkpt>
      <trkpt lat="43.17568" lon="2.361">
        <ele>143.1</ele>
        <time>2022-01-23T07:37:10.000Z</time>
      </trkpt>
      <trkpt lat="43.17566" lon="2.36098">
        <ele>143.1</ele>
        <time>2022-01-23T07:37:11.000Z</time>
      </trkpt>
      <trkpt lat="43.17564" lon="2.36096">
        <ele>143.1</ele>
        <time>2022-01-23T07:37:12.000Z</time>
      </trkpt>
      <trkpt lat="43.17562" lon="2.36094">
        <ele>143.2</ele>
        <time>2022-01-23T07:37:13.000Z</time>
      </trkpt>
      <trkpt lat="43.1756" lon="2.36092">
        <ele>143.3</ele>
        <time>2022-01-23T07:37:14.000Z</time>
      </trkpt>
      <trkpt lat="43.17558" lon="2.36091">
        <ele>143.3</ele>
        <time>2022-01-23T07:37:15.000Z</time>
      </trkpt>
      <trkpt lat="43.17556" lon="2.36089">
        <ele>143.4</ele>
        <time>2022-01-23T07:37:16.000Z</time>
      </trkpt>
      <trkpt lat="43.17554" lon="2.36087">
        <ele>143.5</ele>
        <time>2022-01-23T07:37:17.000Z</time>
      </trkpt>
      <trkpt lat="43.17552" lon="2.36086">
        <ele>143.6</ele>
        <time>2022-01-23T07:37:18.000Z</time>
      </trkpt>
      <trkpt lat="43.1755" lon="2.36084">
        <ele>143.6</ele>
        <time>2022-01-23T07:37:19.000Z</time>
      </trkpt>
      <trkpt lat="43.17547" lon="2.36082">
        <ele>143.7</ele>
        <time>2022-01-23T07:37:20.000Z</time>
      </trkpt>
      <trkpt lat="43.17545" lon="2.36081">
        <ele>143.8</ele>
        <time>2022-01-23T07:37:21.000Z</time>
      </trkpt>
      <trkpt lat="43.17543" lon="2.3608">
        <ele>143.9</ele>
        <time>2022-01-23T07:37:22.000Z</time>
      </trkpt>
      <trkpt lat="43.17541" lon="2.36078">
        <ele>144</ele>
        <time>2022-01-23T07:37:23.000Z</time>
      </trkpt>
      <trkpt lat="43.17539" lon="2.36077">
        <ele>144.1</ele>
        <time>2022-01-23T07:37:24.000Z</time>
      </trkpt>
      <trkpt lat="43.17536" lon="2.36075">
        <ele>144.2</ele>
        <time>2022-01-23T07:37:25.000Z</time>
      </trkpt>
      <trkpt lat="43.17534" lon="2.36074">
        <ele>144.3</ele>
        <time>2022-01-23T07:37:26.000Z</time>
      </trkpt>
      <trkpt lat="43.17532" lon="2.36073">
        <ele>144.4</ele>
        <time>2022-01-23T07:37:27.000Z</time>
      </trkpt>
      <trkpt lat="43.1753" lon="2.36072">
        <ele>144.5</ele>
        <time>2022-01-23T07:37:28.000Z</time>
      </trkpt>
      <trkpt lat="43.17528" lon="2.3607">
        <ele>144.6</ele>
        <time>2022-01-23T07:37:29.000Z</time>
      </trkpt>
      <trkpt lat="43.17526" lon="2.36069">
        <ele>144.7</ele>
        <time>2022-01-23T07:37:30.000Z</time>
      </trkpt>
      <trkpt lat="43.17524" lon="2.36068">
        <ele>144.8</ele>
        <time>2022-01-23T07:37:31.000Z</time>
      </trkpt>
      <trkpt lat="43.17522" lon="2.36067">
        <ele>144.9</ele>
        <time>2022-01-23T07:37:32.000Z</time>
      </trkpt>
      <trkpt lat="43.1752" lon="2.36065">
        <ele>144.9</ele>
        <time>2022-01-23T07:37:33.000Z</time>
      </trkpt>
      <trkpt lat="43.17517" lon="2.36064">
        <ele>145</ele>
        <time>2022-01-23T07:37:34.000Z</time>
      </trkpt>
      <trkpt lat="43.17515" lon="2.36063">
        <ele>145.1</ele>
        <time>2022-01-23T07:37:35.000Z</time>
      </trkpt>
      <trkpt lat="43.17513" lon="2.36062">
        <ele>145.2</ele>
        <time>2022-01-23T07:37:36.000Z</time>
      </trkpt>
      <trkpt lat="43.17511" lon="2.36061">
        <ele>145.3</ele>
        <time>2022-01-23T07:37:37.000Z</time>
      </trkpt>
      <trkpt lat="43.17509" lon="2.36059">
        <ele>145.3</ele>
        <time>2022-01-23T07:37:38.000Z</time>
      </trkpt>
      <trkpt lat="43.17507" lon="2.36058">
        <ele>145.4</ele>
        <time>2022-01-23T07:37:39.000Z</time>
      </trkpt>
      <trkpt lat="43.17505" lon="2.36057">
        <ele>145.5</ele>
        <time>2022-01-23T07:37:40.000Z</time>
      </trkpt>
      <trkpt lat="43.17503" lon="2.36055">
        <ele>145.6</ele>
        <time>2022-01-23T07:37:41.000Z</time>
      </trkpt>
      <trkpt lat="43.17501" lon="2.36054">
        <ele>145.6</ele>
        <time>2022-01-23T07:37:42.000Z</time>
      </trkpt>
      <trkpt lat="43.17499" lon="2.36053">
        <ele>145.6</ele>
        <time>2022-01-23T07:37:43.000Z</time>
      </trkpt>
      <trkpt lat="43.17496" lon="2.36051">
        <ele>145.6</ele>
        <time>2022-01-23T07:37:44.000Z</time>
      </trkpt>
      <trkpt lat="43.17494" lon="2.3605">
        <ele>145.6</ele>
        <time>2022-01-23T07:37:45.000Z</time>
      </trkpt>
      <trkpt lat="43.17492" lon="2.36049">
        <ele>145.6</ele>
        <time>2022-01-23T07:37:46.000Z</time>
      </trkpt>
      <trkpt lat="43.1749" lon="2.36047">
        <ele>145.6</ele>
        <time>2022-01-23T07:37:47.000Z</time>
      </trkpt>
      <trkpt lat="43.17488" lon="2.36046">
        <ele>145.6</ele>
        <time>2022-01-23T07:37:48.000Z</time>
      </trkpt>
      <trkpt lat="43.17486" lon="2.36045">
        <ele>145.6</ele>
        <time>2022-01-23T07:37:49.000Z</time>
      </trkpt>
      <trkpt lat="43.17483" lon="2.36044">
        <ele>145.6</ele>
        <time>2022-01-23T07:37:50.000Z</time>
      </trkpt>
      <trkpt lat="43.17481" lon="2.36042">
        <ele>145.6</ele>
        <time>2022-01-23T07:37:51.000Z</time>
      </trkpt>
      <trkpt lat="43.17479" lon="2.36041">
        <ele>145.6</ele>
        <time>2022-01-23T07:37:52.000Z</time>
      </trkpt>
      <trkpt lat="43.17477" lon="2.3604">
        <ele>145.6</ele>
        <time>2022-01-23T07:37:53.000Z</time>
      </trkpt>
      <trkpt lat="43.17474" lon="2.36039">
        <ele>145.6</ele>
        <time>2022-01-23T07:37:54.000Z</time>
      </trkpt>
      <trkpt lat="43.17472" lon="2.36038">
        <ele>145.6</ele>
        <time>2022-01-23T07:37:55.000Z</time>
      </trkpt>
      <trkpt lat="43.1747" lon="2.36037">
        <ele>145.6</ele>
        <time>2022-01-23T07:37:56.000Z</time>
      </trkpt>
      <trkpt lat="43.17468" lon="2.36036">
        <ele>145.6</ele>
        <time>2022-01-23T07:37:57.000Z</time>
      </trkpt>
      <trkpt lat="43.17465" lon="2.36035">
        <ele>145.6</ele>
        <time>2022-01-23T07:37:58.000Z</time>
      </trkpt>
      <trkpt lat="43.17463" lon="2.36034">
        <ele>145.6</ele>
        <time>2022-01-23T07:37:59.000Z</time>
      </trkpt>
      <trkpt lat="43.17461" lon="2.36033">
        <ele>145.6</ele>
        <time>2022-01-23T07:38:00.000Z</time>
      </trkpt>
      <trkpt lat="43.17458" lon="2.36032">
        <ele>145.6</ele>
        <time>2022-01-23T07:38:01.000Z</time>
      </trkpt>
      <trkpt lat="43.17456" lon="2.36031">
        <ele>145.6</ele>
        <time>2022-01-23T07:38:02.000Z</time>
      </trkpt>
      <trkpt lat="43.17454" lon="2.3603">
        <ele>145.6</ele>
        <time>2022-01-23T07:38:03.000Z</time>
      </trkpt>
      <trkpt lat="43.17452" lon="2.36029">
        <ele>145.5</ele>
        <time>2022-01-23T07:38:04.000Z</time>
      </trkpt>
      <trkpt lat="43.17449" lon="2.36027">
        <ele>145.5</ele>
        <time>2022-01-23T07:38:05.000Z</time>
      </trkpt>
      <trkpt lat="43.17447" lon="2.36026">
        <ele>145.5</ele>
        <time>2022-01-23T07:38:06.000Z</time>
      </trkpt>
      <trkpt lat="43.17445" lon="2.36025">
        <ele>145.5</ele>
        <time>2022-01-23T07:38:07.000Z</time>
      </trkpt>
      <trkpt lat="43.17442" lon="2.36023">
        <ele>145.5</ele>
        <time>2022-01-23T07:38:08.000Z</time>
      </trkpt>
      <trkpt lat="43.1744" lon="2.36022">
        <ele>145.4</ele>
        <time>2022-01-23T07:38:09.000Z</time>
      </trkpt>
      <trkpt lat="43.17438" lon="2.3602">
        <ele>145.4</ele>
        <time>2022-01-23T07:38:10.000Z</time>
      </trkpt>
      <trkpt lat="43.17436" lon="2.36018">
        <ele>145.4</ele>
        <time>2022-01-23T07:38:11.000Z</time>
      </trkpt>
      <trkpt lat="43.17434" lon="2.36016">
        <ele>145.4</ele>
        <time>2022-01-23T07:38:12.000Z</time>
      </trkpt>
      <trkpt lat="43.17432" lon="2.36015">
        <ele>145.3</ele>
        <time>2022-01-23T07:38:13.000Z</time>
      </trkpt>
      <trkpt lat="43.1743" lon="2.36013">
        <ele>145.3</ele>
        <time>2022-01-23T07:38:14.000Z</time>
      </trkpt>
      <trkpt lat="43.17428" lon="2.36011">
        <ele>145.2</ele>
        <time>2022-01-23T07:38:15.000Z</time>
      </trkpt>
      <trkpt lat="43.17426" lon="2.36009">
        <ele>145.2</ele>
        <time>2022-01-23T07:38:16.000Z</time>
      </trkpt>
      <trkpt lat="43.17424" lon="2.36008">
        <ele>145.2</ele>
        <time>2022-01-23T07:38:17.000Z</time>
      </trkpt>
      <trkpt lat="43.17422" lon="2.36006">
        <ele>145.1</ele>
        <time>2022-01-23T07:38:18.000Z</time>
      </trkpt>
      <trkpt lat="43.1742" lon="2.36004">
        <ele>145.1</ele>
        <time>2022-01-23T07:38:19.000Z</time>
      </trkpt>
      <trkpt lat="43.17418" lon="2.36002">
        <ele>145.1</ele>
        <time>2022-01-23T07:38:20.000Z</time>
      </trkpt>
      <trkpt lat="43.17416" lon="2.36001">
        <ele>145</ele>
        <time>2022-01-23T07:38:21.000Z</time>
      </trkpt>
      <trkpt lat="43.17414" lon="2.35999">
        <ele>145</ele>
        <time>2022-01-23T07:38:22.000Z</time>
      </trkpt>
      <trkpt lat="43.17412" lon="2.35997">
        <ele>145.1</ele>
        <time>2022-01-23T07:38:23.000Z</time>
      </trkpt>
      <trkpt lat="43.1741" lon="2.35996">
        <ele>145.1</ele>
        <time>2022-01-23T07:38:24.000Z</time>
      </trkpt>
      <trkpt lat="43.17408" lon="2.35994">
        <ele>145.2</ele>
        <time>2022-01-23T07:38:25.000Z</time>
      </trkpt>
      <trkpt lat="43.17406" lon="2.35993">
        <ele>145.2</ele>
        <time>2022-01-23T07:38:26.000Z</time>
      </trkpt>
      <trkpt lat="43.17404" lon="2.35991">
        <ele>145.3</ele>
        <time>2022-01-23T07:38:27.000Z</time>
      </trkpt>
      <trkpt lat="43.17402" lon="2.3599">
        <ele>145.3</ele>
        <time>2022-01-23T07:38:28.000Z</time>
      </trkpt>
      <trkpt lat="43.174" lon="2.35989">
        <ele>145.4</ele>
        <time>2022-01-23T07:38:29.000Z</time>
      </trkpt>
      <trkpt lat="43.17398" lon="2.35987">
        <ele>145.4</ele>
        <time>2022-01-23T07:38:30.000Z</time>
      </trkpt>
      <trkpt lat="43.17396" lon="2.35986">
        <ele>145.5</ele>
        <time>2022-01-23T07:38:31.000Z</time>
      </trkpt>
      <trkpt lat="43.17394" lon="2.35985">
        <ele>145.5</ele>
        <time>2022-01-23T07:38:32.000Z</time>
      </trkpt>
      <trkpt lat="43.17392" lon="2.35984">
        <ele>145.6</ele>
        <time>2022-01-23T07:38:33.000Z</time>
      </trkpt>
      <trkpt lat="43.17389" lon="2.35983">
        <ele>145.6</ele>
        <time>2022-01-23T07:38:34.000Z</time>
      </trkpt>
      <trkpt lat="43.17387" lon="2.35982">
        <ele>145.6</ele>
        <time>2022-01-23T07:38:35.000Z</time>
      </trkpt>
      <trkpt lat="43.17385" lon="2.35981">
        <ele>145.7</ele>
        <time>2022-01-23T07:38:36.000Z</time>
      </trkpt>
      <trkpt lat="43.17383" lon="2.3598">
        <ele>145.7</ele>
        <time>2022-01-23T07:38:37.000Z</time>
      </trkpt>
      <trkpt lat="43.17381" lon="2.35979">
        <ele>145.8</ele>
        <time>2022-01-23T07:38:38.000Z</time>
      </trkpt>
      <trkpt lat="43.17378" lon="2.35979">
        <ele>145.8</ele>
        <time>2022-01-23T07:38:39.000Z</time>
      </trkpt>
      <trkpt lat="43.17376" lon="2.35978">
        <ele>145.9</ele>
        <time>2022-01-23T07:38:40.000Z</time>
      </trkpt>
      <trkpt lat="43.17374" lon="2.35977">
        <ele>145.9</ele>
        <time>2022-01-23T07:38:41.000Z</time>
      </trkpt>
      <trkpt lat="43.17372" lon="2.35976">
        <ele>146</ele>
        <time>2022-01-23T07:38:42.000Z</time>
      </trkpt>
      <trkpt lat="43.17369" lon="2.35976">
        <ele>146</ele>
        <time>2022-01-23T07:38:43.000Z</time>
      </trkpt>
      <trkpt lat="43.17367" lon="2.35975">
        <ele>146.1</ele>
        <time>2022-01-23T07:38:44.000Z</time>
      </trkpt>
      <trkpt lat="43.17365" lon="2.35974">
        <ele>146.1</ele>
        <time>2022-01-23T07:38:45.000Z</time>
      </trkpt>
      <trkpt lat="43.17363" lon="2.35974">
        <ele>146.2</ele>
        <time>2022-01-23T07:38:46.000Z</time>
      </trkpt>
      <trkpt lat="43.1736" lon="2.35973">
        <ele>146.2</ele>
        <time>2022-01-23T07:38:47.000Z</time>
      </trkpt>
      <trkpt lat="43.17358" lon="2.35972">
        <ele>146.3</ele>
        <time>2022-01-23T07:38:48.000Z</time>
      </trkpt>
      <trkpt lat="43.17356" lon="2.35971">
        <ele>146.3</ele>
        <time>2022-01-23T07:38:49.000Z</time>
      </trkpt>
      <trkpt lat="43.17354" lon="2.35971">
        <ele>146.4</ele>
        <time>2022-01-23T07:38:50.000Z</time>
      </trkpt>
      <trkpt lat="43.17351" lon="2.3597">
        <ele>146.4</ele>
        <time>2022-01-23T07:38:51.000Z</time>
      </trkpt>
      <trkpt lat="43.17349" lon="2.35969">
        <ele>146.5</ele>
        <time>2022-01-23T07:38:52.000Z</time>
      </trkpt>
      <trkpt lat="43.17347" lon="2.35968">
        <ele>146.5</ele>
        <time>2022-01-23T07:38:53.000Z</time>
      </trkpt>
      <trkpt lat="43.17345" lon="2.35967">
        <ele>146.6</ele>
        <time>2022-01-23T07:38:54.000Z</time>
      </trkpt>
      <trkpt lat="43.17342" lon="2.35967">
        <ele>146.7</ele>
        <time>2022-01-23T07:38:55.000Z</time>
      </trkpt>
      <trkpt lat="43.1734" lon="2.35966">
        <ele>146.7</ele>
        <time>2022-01-23T07:38:56.000Z</time>
      </trkpt>
      <trkpt lat="43.17338" lon="2.35965">
        <ele>146.8</ele>
        <time>2022-01-23T07:38:57.000Z</time>
      </trkpt>
      <trkpt lat="43.17336" lon="2.35964">
        <ele>146.8</ele>
        <time>2022-01-23T07:38:58.000Z</time>
      </trkpt>
      <trkpt lat="43.17334" lon="2.35963">
        <ele>146.9</ele>
        <time>2022-01-23T07:38:59.000Z</time>
      </trkpt>
      <trkpt lat="43.17331" lon="2.35962">
        <ele>147.1</ele>
        <time>2022-01-23T07:39:00.000Z</time>
      </trkpt>
      <trkpt lat="43.17329" lon="2.35962">
        <ele>147.2</ele>
        <time>2022-01-23T07:39:01.000Z</time>
      </trkpt>
      <trkpt lat="43.17327" lon="2.35961">
        <ele>147.4</ele>
        <time>2022-01-23T07:39:02.000Z</time>
      </trkpt>
      <trkpt lat="43.17325" lon="2.3596">
        <ele>147.6</ele>
        <time>2022-01-23T07:39:03.000Z</time>
      </trkpt>
      <trkpt lat="43.17322" lon="2.35959">
        <ele>147.8</ele>
        <time>2022-01-23T07:39:04.000Z</time>
      </trkpt>
      <trkpt lat="43.1732" lon="2.35959">
        <ele>147.9</ele>
        <time>2022-01-23T07:39:05.000Z</time>
      </trkpt>
      <trkpt lat="43.17318" lon="2.35958">
        <ele>148.1</ele>
        <time>2022-01-23T07:39:06.000Z</time>
      </trkpt>
      <trkpt lat="43.17316" lon="2.35957">
        <ele>148.3</ele>
        <time>2022-01-23T07:39:07.000Z</time>
      </trkpt>
      <trkpt lat="43.17314" lon="2.35957">
        <ele>148.5</ele>
        <time>2022-01-23T07:39:08.000Z</time>
      </trkpt>
      <trkpt lat="43.17311" lon="2.35956">
        <ele>148.6</ele>
        <time>2022-01-23T07:39:09.000Z</time>
      </trkpt>
      <trkpt lat="43.17309" lon="2.35956">
        <ele>148.8</ele>
        <time>2022-01-23T07:39:10.000Z</time>
      </trkpt>
      <trkpt lat="43.17307" lon="2.35955">
        <ele>149</ele>
        <time>2022-01-23T07:39:11.000Z</time>
      </trkpt>
      <trkpt lat="43.17305" lon="2.35955">
        <ele>149.1</ele>
        <time>2022-01-23T07:39:12.000Z</time>
      </trkpt>
      <trkpt lat="43.17303" lon="2.35954">
        <ele>149.3</ele>
        <time>2022-01-23T07:39:13.000Z</time>
      </trkpt>
      <trkpt lat="43.173" lon="2.35954">
        <ele>149.4</ele>
        <time>2022-01-23T07:39:14.000Z</time>
      </trkpt>
      <trkpt lat="43.17298" lon="2.35953">
        <ele>149.6</ele>
        <time>2022-01-23T07:39:15.000Z</time>
      </trkpt>
      <trkpt lat="43.17296" lon="2.35953">
        <ele>149.8</ele>
        <time>2022-01-23T07:39:16.000Z</time>
      </trkpt>
      <trkpt lat="43.17294" lon="2.35953">
        <ele>149.9</ele>
        <time>2022-01-23T07:39:17.000Z</time>
      </trkpt>
      <trkpt lat="43.17292" lon="2.35952">
        <ele>150.1</ele>
        <time>2022-01-23T07:39:18.000Z</time>
      </trkpt>
      <trkpt lat="43.17289" lon="2.35952">
        <ele>150.2</ele>
        <time>2022-01-23T07:39:19.000Z</time>
      </trkpt>
      <trkpt lat="43.17287" lon="2.35952">
        <ele>150.4</ele>
        <time>2022-01-23T07:39:20.000Z</time>
      </trkpt>
      <trkpt lat="43.17285" lon="2.35952">
        <ele>150.6</ele>
        <time>2022-01-23T07:39:21.000Z</time>
      </trkpt>
      <trkpt lat="43.17283" lon="2.35952">
        <ele>150.7</ele>
        <time>2022-01-23T07:39:22.000Z</time>
      </trkpt>
      <trkpt lat="43.17281" lon="2.35951">
        <ele>150.9</ele>
        <time>2022-01-23T07:39:23.000Z</time>
      </trkpt>
      <trkpt lat="43.17278" lon="2.35951">
        <ele>151</ele>
        <time>2022-01-23T07:39:24.000Z</time>
      </trkpt>
      <trkpt lat="43.17276" lon="2.35951">
        <ele>151.2</ele>
        <time>2022-01-23T07:39:25.000Z</time>
      </trkpt>
      <trkpt lat="43.17274" lon="2.35951">
        <ele>151.3</ele>
        <time>2022-01-23T07:39:26.000Z</time>
      </trkpt>
      <trkpt lat="43.17272" lon="2.35951">
        <ele>151.5</ele>
        <time>2022-01-23T07:39:27.000Z</time>
      </trkpt>
      <trkpt lat="43.1727" lon="2.35951">
        <ele>151.6</ele>
        <time>2022-01-23T07:39:28.000Z</time>
      </trkpt>
      <trkpt lat="43.17268" lon="2.35951">
        <ele>151.8</ele>
        <time>2022-01-23T07:39:29.000Z</time>
      </trkpt>
      <trkpt lat="43.17266" lon="2.35951">
        <ele>151.9</ele>
        <time>2022-01-23T07:39:30.000Z</time>
      </trkpt>
      <trkpt lat="43.17263" lon="2.35952">
        <ele>152.1</ele>
        <time>2022-01-23T07:39:31.000Z</time>
      </trkpt>
      <trkpt lat="43.17261" lon="2.35952">
        <ele>152.2</ele>
        <time>2022-01-23T07:39:32.000Z</time>
      </trkpt>
      <trkpt lat="43.17259" lon="2.35952">
        <ele>152.4</ele>
        <time>2022-01-23T07:39:33.000Z</time>
      </trkpt>
      <trkpt lat="43.17257" lon="2.35952">
        <ele>152.5</ele>
        <time>2022-01-23T07:39:34.000Z</time>
      </trkpt>
      <trkpt lat="43.17255" lon="2.35952">
        <ele>152.6</ele>
        <time>2022-01-23T07:39:35.000Z</time>
      </trkpt>
      <trkpt lat="43.17253" lon="2.35952">
        <ele>152.8</ele>
        <time>2022-01-23T07:39:36.000Z</time>
      </trkpt>
      <trkpt lat="43.17251" lon="2.35952">
        <ele>152.9</ele>
        <time>2022-01-23T07:39:37.000Z</time>
      </trkpt>
      <trkpt lat="43.17249" lon="2.35952">
        <ele>153.1</ele>
        <time>2022-01-23T07:39:38.000Z</time>
      </trkpt>
      <trkpt lat="43.17247" lon="2.35952">
        <ele>153.2</ele>
        <time>2022-01-23T07:39:39.000Z</time>
      </trkpt>
      <trkpt lat="43.17245" lon="2.35952">
        <ele>153.4</ele>
        <time>2022-01-23T07:39:40.000Z</time>
      </trkpt>
      <trkpt lat="43.17243" lon="2.35952">
        <ele>153.6</ele>
        <time>2022-01-23T07:39:41.000Z</time>
      </trkpt>
      <trkpt lat="43.17241" lon="2.35952">
        <ele>153.7</ele>
        <time>2022-01-23T07:39:42.000Z</time>
      </trkpt>
      <trkpt lat="43.17239" lon="2.35952">
        <ele>153.9</ele>
        <time>2022-01-23T07:39:43.000Z</time>
      </trkpt>
      <trkpt lat="43.17237" lon="2.35952">
        <ele>154</ele>
        <time>2022-01-23T07:39:44.000Z</time>
      </trkpt>
      <trkpt lat="43.17235" lon="2.35952">
        <ele>154.2</ele>
        <time>2022-01-23T07:39:45.000Z</time>
      </trkpt>
      <trkpt lat="43.17233" lon="2.35952">
        <ele>154.4</ele>
        <time>2022-01-23T07:39:46.000Z</time>
      </trkpt>
      <trkpt lat="43.17231" lon="2.35951">
        <ele>154.5</ele>
        <time>2022-01-23T07:39:47.000Z</time>
      </trkpt>
      <trkpt lat="43.17229" lon="2.35951">
        <ele>154.7</ele>
        <time>2022-01-23T07:39:48.000Z</time>
      </trkpt>
      <trkpt lat="43.17227" lon="2.35951">
        <ele>154.9</ele>
        <time>2022-01-23T07:39:49.000Z</time>
      </trkpt>
      <trkpt lat="43.17224" lon="2.35951">
        <ele>155</ele>
        <time>2022-01-23T07:39:50.000Z</time>
      </trkpt>
      <trkpt lat="43.17222" lon="2.35951">
        <ele>155.2</ele>
        <time>2022-01-23T07:39:51.000Z</time>
      </trkpt>
      <trkpt lat="43.1722" lon="2.35951">
        <ele>155.4</ele>
        <time>2022-01-23T07:39:52.000Z</time>
      </trkpt>
      <trkpt lat="43.17218" lon="2.3595">
        <ele>155.6</ele>
        <time>2022-01-23T07:39:53.000Z</time>
      </trkpt>
      <trkpt lat="43.17215" lon="2.3595">
        <ele>155.7</ele>
        <time>2022-01-23T07:39:54.000Z</time>
      </trkpt>
      <trkpt lat="43.17213" lon="2.3595">
        <ele>155.9</ele>
        <time>2022-01-23T07:39:55.000Z</time>
      </trkpt>
      <trkpt lat="43.17211" lon="2.3595">
        <ele>156.1</ele>
        <time>2022-01-23T07:39:56.000Z</time>
      </trkpt>
      <trkpt lat="43.17209" lon="2.35949">
        <ele>156.3</ele>
        <time>2022-01-23T07:39:57.000Z</time>
      </trkpt>
      <trkpt lat="43.17206" lon="2.35949">
        <ele>156.5</ele>
        <time>2022-01-23T07:39:58.000Z</time>
      </trkpt>
      <trkpt lat="43.17204" lon="2.35949">
        <ele>156.6</ele>
        <time>2022-01-23T07:39:59.000Z</time>
      </trkpt>
      <trkpt lat="43.17202" lon="2.35948">
        <ele>156.8</ele>
        <time>2022-01-23T07:40:00.000Z</time>
      </trkpt>
      <trkpt lat="43.172" lon="2.35948">
        <ele>157</ele>
        <time>2022-01-23T07:40:01.000Z</time>
      </trkpt>
      <trkpt lat="43.17198" lon="2.35947">
        <ele>157.1</ele>
        <time>2022-01-23T07:40:02.000Z</time>
      </trkpt>
      <trkpt lat="43.17196" lon="2.35947">
        <ele>157.3</ele>
        <time>2022-01-23T07:40:03.000Z</time>
      </trkpt>
      <trkpt lat="43.17194" lon="2.35946">
        <ele>157.5</ele>
        <time>2022-01-23T07:40:04.000Z</time>
      </trkpt>
      <trkpt lat="43.17192" lon="2.35945">
        <ele>157.6</ele>
        <time>2022-01-23T07:40:05.000Z</time>
      </trkpt>
      <trkpt lat="43.1719" lon="2.35944">
        <ele>157.8</ele>
        <time>2022-01-23T07:40:06.000Z</time>
      </trkpt>
      <trkpt lat="43.17188" lon="2.35943">
        <ele>157.9</ele>
        <time>2022-01-23T07:40:07.000Z</time>
      </trkpt>
      <trkpt lat="43.17186" lon="2.35942">
        <ele>158.1</ele>
        <time>2022-01-23T07:40:08.000Z</time>
      </trkpt>
      <trkpt lat="43.17185" lon="2.35941">
        <ele>158.3</ele>
        <time>2022-01-23T07:40:09.000Z</time>
      </trkpt>
      <trkpt lat="43.17183" lon="2.3594">
        <ele>158.4</ele>
        <time>2022-01-23T07:40:10.000Z</time>
      </trkpt>
      <trkpt lat="43.17181" lon="2.35938">
        <ele>158.6</ele>
        <time>2022-01-23T07:40:11.000Z</time>
      </trkpt>
      <trkpt lat="43.17179" lon="2.35937">
        <ele>158.8</ele>
        <time>2022-01-23T07:40:12.000Z</time>
      </trkpt>
      <trkpt lat="43.17177" lon="2.35936">
        <ele>158.9</ele>
        <time>2022-01-23T07:40:13.000Z</time>
      </trkpt>
      <trkpt lat="43.17175" lon="2.35934">
        <ele>159.1</ele>
        <time>2022-01-23T07:40:14.000Z</time>
      </trkpt>
      <trkpt lat="43.17174" lon="2.35932">
        <ele>159.3</ele>
        <time>2022-01-23T07:40:15.000Z</time>
      </trkpt>
      <trkpt lat="43.17172" lon="2.35931">
        <ele>159.4</ele>
        <time>2022-01-23T07:40:16.000Z</time>
      </trkpt>
      <trkpt lat="43.1717" lon="2.35929">
        <ele>159.6</ele>
        <time>2022-01-23T07:40:17.000Z</time>
      </trkpt>
      <trkpt lat="43.17168" lon="2.35928">
        <ele>159.7</ele>
        <time>2022-01-23T07:40:18.000Z</time>
      </trkpt>
      <trkpt lat="43.17167" lon="2.35926">
        <ele>159.9</ele>
        <time>2022-01-23T07:40:19.000Z</time>
      </trkpt>
      <trkpt lat="43.17165" lon="2.35924">
        <ele>160</ele>
        <time>2022-01-23T07:40:20.000Z</time>
      </trkpt>
      <trkpt lat="43.17164" lon="2.35923">
        <ele>160.2</ele>
        <time>2022-01-23T07:40:21.000Z</time>
      </trkpt>
      <trkpt lat="43.17162" lon="2.35921">
        <ele>160.3</ele>
        <time>2022-01-23T07:40:22.000Z</time>
      </trkpt>
      <trkpt lat="43.1716" lon="2.3592">
        <ele>160.4</ele>
        <time>2022-01-23T07:40:23.000Z</time>
      </trkpt>
      <trkpt lat="43.17158" lon="2.35918">
        <ele>160.6</ele>
        <time>2022-01-23T07:40:24.000Z</time>
      </trkpt>
      <trkpt lat="43.17157" lon="2.35917">
        <ele>160.7</ele>
        <time>2022-01-23T07:40:25.000Z</time>
      </trkpt>
      <trkpt lat="43.17155" lon="2.35915">
        <ele>160.9</ele>
        <time>2022-01-23T07:40:26.000Z</time>
      </trkpt>
      <trkpt lat="43.17153" lon="2.35914">
        <ele>161</ele>
        <time>2022-01-23T07:40:27.000Z</time>
      </trkpt>
      <trkpt lat="43.17151" lon="2.35913">
        <ele>161.2</ele>
        <time>2022-01-23T07:40:28.000Z</time>
      </trkpt>
      <trkpt lat="43.1715" lon="2.35911">
        <ele>161.3</ele>
        <time>2022-01-23T07:40:29.000Z</time>
      </trkpt>
      <trkpt lat="43.17148" lon="2.3591">
        <ele>161.5</ele>
        <time>2022-01-23T07:40:30.000Z</time>
      </trkpt>
      <trkpt lat="43.17146" lon="2.35909">
        <ele>161.6</ele>
        <time>2022-01-23T07:40:31.000Z</time>
      </trkpt>
      <trkpt lat="43.17144" lon="2.35908">
        <ele>161.8</ele>
        <time>2022-01-23T07:40:32.000Z</time>
      </trkpt>
      <trkpt lat="43.17142" lon="2.35906">
        <ele>162</ele>
        <time>2022-01-23T07:40:33.000Z</time>
      </trkpt>
      <trkpt lat="43.1714" lon="2.35905">
        <ele>162.1</ele>
        <time>2022-01-23T07:40:34.000Z</time>
      </trkpt>
      <trkpt lat="43.17139" lon="2.35904">
        <ele>162.3</ele>
        <time>2022-01-23T07:40:35.000Z</time>
      </trkpt>
      <trkpt lat="43.17137" lon="2.35903">
        <ele>162.4</ele>
        <time>2022-01-23T07:40:36.000Z</time>
      </trkpt>
      <trkpt lat="43.17135" lon="2.35901">
        <ele>162.6</ele>
        <time>2022-01-23T07:40:37.000Z</time>
      </trkpt>
      <trkpt lat="43.17133" lon="2.359">
        <ele>162.8</ele>
        <time>2022-01-23T07:40:38.000Z</time>
      </trkpt>
      <trkpt lat="43.17131" lon="2.35899">
        <ele>162.9</ele>
        <time>2022-01-23T07:40:39.000Z</time>
      </trkpt>
      <trkpt lat="43.17129" lon="2.35898">
        <ele>163.1</ele>
        <time>2022-01-23T07:40:40.000Z</time>
      </trkpt>
      <trkpt lat="43.17128" lon="2.35896">
        <ele>163.3</ele>
        <time>2022-01-23T07:40:41.000Z</time>
      </trkpt>
      <trkpt lat="43.17126" lon="2.35895">
        <ele>163.5</ele>
        <time>2022-01-23T07:40:42.000Z</time>
      </trkpt>
      <trkpt lat="43.17124" lon="2.35894">
        <ele>163.6</ele>
        <time>2022-01-23T07:40:43.000Z</time>
      </trkpt>
      <trkpt lat="43.17122" lon="2.35893">
        <ele>163.8</ele>
        <time>2022-01-23T07:40:44.000Z</time>
      </trkpt>
      <trkpt lat="43.1712" lon="2.35891">
        <ele>164</ele>
        <time>2022-01-23T07:40:45.000Z</time>
      </trkpt>
      <trkpt lat="43.17118" lon="2.3589">
        <ele>164.2</ele>
        <time>2022-01-23T07:40:46.000Z</time>
      </trkpt>
      <trkpt lat="43.17116" lon="2.35889">
        <ele>164.4</ele>
        <time>2022-01-23T07:40:47.000Z</time>
      </trkpt>
      <trkpt lat="43.17114" lon="2.35888">
        <ele>164.5</ele>
        <time>2022-01-23T07:40:48.000Z</time>
      </trkpt>
      <trkpt lat="43.17112" lon="2.35887">
        <ele>164.7</ele>
        <time>2022-01-23T07:40:49.000Z</time>
      </trkpt>
      <trkpt lat="43.1711" lon="2.35886">
        <ele>164.9</ele>
        <time>2022-01-23T07:40:50.000Z</time>
      </trkpt>
      <trkpt lat="43.17108" lon="2.35885">
        <ele>165.1</ele>
        <time>2022-01-23T07:40:51.000Z</time>
      </trkpt>
      <trkpt lat="43.17106" lon="2.35884">
        <ele>165.3</ele>
        <time>2022-01-23T07:40:52.000Z</time>
      </trkpt>
      <trkpt lat="43.17104" lon="2.35884">
        <ele>165.5</ele>
        <time>2022-01-23T07:40:53.000Z</time>
      </trkpt>
      <trkpt lat="43.17102" lon="2.35883">
        <ele>165.7</ele>
        <time>2022-01-23T07:40:54.000Z</time>
      </trkpt>
      <trkpt lat="43.171" lon="2.35882">
        <ele>165.8</ele>
        <time>2022-01-23T07:40:55.000Z</time>
      </trkpt>
      <trkpt lat="43.17098" lon="2.35881">
        <ele>166</ele>
        <time>2022-01-23T07:40:56.000Z</time>
      </trkpt>
      <trkpt lat="43.17096" lon="2.35881">
        <ele>166.2</ele>
        <time>2022-01-23T07:40:57.000Z</time>
      </trkpt>
      <trkpt lat="43.17094" lon="2.3588">
        <ele>166.4</ele>
        <time>2022-01-23T07:40:58.000Z</time>
      </trkpt>
      <trkpt lat="43.17092" lon="2.3588">
        <ele>166.6</ele>
        <time>2022-01-23T07:40:59.000Z</time>
      </trkpt>
      <trkpt lat="43.1709" lon="2.3588">
        <ele>166.8</ele>
        <time>2022-01-23T07:41:00.000Z</time>
      </trkpt>
      <trkpt lat="43.17088" lon="2.35879">
        <ele>166.9</ele>
        <time>2022-01-23T07:41:01.000Z</time>
      </trkpt>
      <trkpt lat="43.17086" lon="2.35879">
        <ele>167.1</ele>
        <time>2022-01-23T07:41:02.000Z</time>
      </trkpt>
      <trkpt lat="43.17084" lon="2.35879">
        <ele>167.3</ele>
        <time>2022-01-23T07:41:03.000Z</time>
      </trkpt>
      <trkpt lat="43.17082" lon="2.35879">
        <ele>167.4</ele>
        <time>2022-01-23T07:41:04.000Z</time>
      </trkpt>
      <trkpt lat="43.1708" lon="2.35879">
        <ele>167.6</ele>
        <time>2022-01-23T07:41:05.000Z</time>
      </trkpt>
      <trkpt lat="43.17078" lon="2.3588">
        <ele>167.7</ele>
        <time>2022-01-23T07:41:06.000Z</time>
      </trkpt>
      <trkpt lat="43.17076" lon="2.3588">
        <ele>167.8</ele>
        <time>2022-01-23T07:41:07.000Z</time>
      </trkpt>
      <trkpt lat="43.17075" lon="2.35881">
        <ele>167.9</ele>
        <time>2022-01-23T07:41:08.000Z</time>
      </trkpt>
      <trkpt lat="43.17073" lon="2.35881">
        <ele>168</ele>
        <time>2022-01-23T07:41:09.000Z</time>
      </trkpt>
      <trkpt lat="43.17071" lon="2.35882">
        <ele>168.2</ele>
        <time>2022-01-23T07:41:10.000Z</time>
      </trkpt>
      <trkpt lat="43.17069" lon="2.35883">
        <ele>168.3</ele>
        <time>2022-01-23T07:41:11.000Z</time>
      </trkpt>
      <trkpt lat="43.17067" lon="2.35884">
        <ele>168.4</ele>
        <time>2022-01-23T07:41:12.000Z</time>
      </trkpt>
      <trkpt lat="43.17065" lon="2.35884">
        <ele>168.5</ele>
        <time>2022-01-23T07:41:13.000Z</time>
      </trkpt>
      <trkpt lat="43.17064" lon="2.35885">
        <ele>168.6</ele>
        <time>2022-01-23T07:41:14.000Z</time>
      </trkpt>
      <trkpt lat="43.17062" lon="2.35887">
        <ele>168.6</ele>
        <time>2022-01-23T07:41:15.000Z</time>
      </trkpt>
      <trkpt lat="43.1706" lon="2.35888">
        <ele>168.7</ele>
        <time>2022-01-23T07:41:16.000Z</time>
      </trkpt>
      <trkpt lat="43.17058" lon="2.35889">
        <ele>168.8</ele>
        <time>2022-01-23T07:41:17.000Z</time>
      </trkpt>
      <trkpt lat="43.17057" lon="2.3589">
        <ele>168.9</ele>
        <time>2022-01-23T07:41:18.000Z</time>
      </trkpt>
      <trkpt lat="43.17055" lon="2.35891">
        <ele>169</ele>
        <time>2022-01-23T07:41:19.000Z</time>
      </trkpt>
      <trkpt lat="43.17053" lon="2.35892">
        <ele>169</ele>
        <time>2022-01-23T07:41:20.000Z</time>
      </trkpt>
      <trkpt lat="43.17052" lon="2.35894">
        <ele>169.1</ele>
        <time>2022-01-23T07:41:21.000Z</time>
      </trkpt>
      <trkpt lat="43.1705" lon="2.35895">
        <ele>169.2</ele>
        <time>2022-01-23T07:41:22.000Z</time>
      </trkpt>
      <trkpt lat="43.17048" lon="2.35896">
        <ele>169.3</ele>
        <time>2022-01-23T07:41:23.000Z</time>
      </trkpt>
      <trkpt lat="43.17046" lon="2.35898">
        <ele>169.3</ele>
        <time>2022-01-23T07:41:24.000Z</time>
      </trkpt>
      <trkpt lat="43.17044" lon="2.35899">
        <ele>169.4</ele>
        <time>2022-01-23T07:41:25.000Z</time>
      </trkpt>
      <trkpt lat="43.17042" lon="2.35901">
        <ele>169.5</ele>
        <time>2022-01-23T07:41:26.000Z</time>
      </trkpt>
      <trkpt lat="43.1704" lon="2.35902">
        <ele>169.6</ele>
        <time>2022-01-23T07:41:27.000Z</time>
      </trkpt>
      <trkpt lat="43.17038" lon="2.35903">
        <ele>169.7</ele>
        <time>2022-01-23T07:41:28.000Z</time>
      </trkpt>
      <trkpt lat="43.17036" lon="2.35904">
        <ele>169.8</ele>
        <time>2022-01-23T07:41:29.000Z</time>
      </trkpt>
      <trkpt lat="43.17034" lon="2.35905">
        <ele>170</ele>
        <time>2022-01-23T07:41:30.000Z</time>
      </trkpt>
      <trkpt lat="43.17032" lon="2.35905">
        <ele>170.1</ele>
        <time>2022-01-23T07:41:31.000Z</time>
      </trkpt>
      <trkpt lat="43.1703" lon="2.35906">
        <ele>170.2</ele>
        <time>2022-01-23T07:41:32.000Z</time>
      </trkpt>
      <trkpt lat="43.17028" lon="2.35906">
        <ele>170.4</ele>
        <time>2022-01-23T07:41:33.000Z</time>
      </trkpt>
      <trkpt lat="43.17026" lon="2.35906">
        <ele>170.6</ele>
        <time>2022-01-23T07:41:34.000Z</time>
      </trkpt>
      <trkpt lat="43.17023" lon="2.35905">
        <ele>170.7</ele>
        <time>2022-01-23T07:41:35.000Z</time>
      </trkpt>
      <trkpt lat="43.17021" lon="2.35904">
        <ele>170.9</ele>
        <time>2022-01-23T07:41:36.000Z</time>
      </trkpt>
      <trkpt lat="43.17019" lon="2.35904">
        <ele>171.1</ele>
        <time>2022-01-23T07:41:37.000Z</time>
      </trkpt>
      <trkpt lat="43.17017" lon="2.35903">
        <ele>171.3</ele>
        <time>2022-01-23T07:41:38.000Z</time>
      </trkpt>
      <trkpt lat="43.17015" lon="2.35901">
        <ele>171.5</ele>
        <time>2022-01-23T07:41:39.000Z</time>
      </trkpt>
      <trkpt lat="43.17013" lon="2.359">
        <ele>171.7</ele>
        <time>2022-01-23T07:41:40.000Z</time>
      </trkpt>
      <trkpt lat="43.1701" lon="2.35899">
        <ele>171.9</ele>
        <time>2022-01-23T07:41:41.000Z</time>
      </trkpt>
      <trkpt lat="43.17008" lon="2.35897">
        <ele>172.1</ele>
        <time>2022-01-23T07:41:42.000Z</time>
      </trkpt>
      <trkpt lat="43.17006" lon="2.35896">
        <ele>172.3</ele>
        <time>2022-01-23T07:41:43.000Z</time>
      </trkpt>
      <trkpt lat="43.17004" lon="2.35895">
        <ele>172.5</ele>
        <time>2022-01-23T07:41:44.000Z</time>
      </trkpt>
      <trkpt lat="43.17002" lon="2.35893">
        <ele>172.7</ele>
        <time>2022-01-23T07:41:45.000Z</time>
      </trkpt>
      <trkpt lat="43.17" lon="2.35892">
        <ele>172.9</ele>
        <time>2022-01-23T07:41:46.000Z</time>
      </trkpt>
      <trkpt lat="43.16998" lon="2.3589">
        <ele>173.2</ele>
        <time>2022-01-23T07:41:47.000Z</time>
      </trkpt>
      <trkpt lat="43.16996" lon="2.35888">
        <ele>173.4</ele>
        <time>2022-01-23T07:41:48.000Z</time>
      </trkpt>
      <trkpt lat="43.16994" lon="2.35887">
        <ele>173.7</ele>
        <time>2022-01-23T07:41:49.000Z</time>
      </trkpt>
      <trkpt lat="43.16992" lon="2.35885">
        <ele>174</ele>
        <time>2022-01-23T07:41:50.000Z</time>
      </trkpt>
      <trkpt lat="43.1699" lon="2.35884">
        <ele>174.2</ele>
        <time>2022-01-23T07:41:51.000Z</time>
      </trkpt>
      <trkpt lat="43.16988" lon="2.35882">
        <ele>174.5</ele>
        <time>2022-01-23T07:41:52.000Z</time>
      </trkpt>
      <trkpt lat="43.16986" lon="2.3588">
        <ele>174.7</ele>
        <time>2022-01-23T07:41:53.000Z</time>
      </trkpt>
      <trkpt lat="43.16984" lon="2.35879">
        <ele>175</ele>
        <time>2022-01-23T07:41:54.000Z</time>
      </trkpt>
      <trkpt lat="43.16982" lon="2.35877">
        <ele>175.3</ele>
        <time>2022-01-23T07:41:55.000Z</time>
      </trkpt>
      <trkpt lat="43.1698" lon="2.35876">
        <ele>175.5</ele>
        <time>2022-01-23T07:41:56.000Z</time>
      </trkpt>
      <trkpt lat="43.16978" lon="2.35874">
        <ele>175.8</ele>
        <time>2022-01-23T07:41:57.000Z</time>
      </trkpt>
      <trkpt lat="43.16976" lon="2.35873">
        <ele>176</ele>
        <time>2022-01-23T07:41:58.000Z</time>
      </trkpt>
      <trkpt lat="43.16974" lon="2.35871">
        <ele>176.3</ele>
        <time>2022-01-23T07:41:59.000Z</time>
      </trkpt>
      <trkpt lat="43.16972" lon="2.35869">
        <ele>176.5</ele>
        <time>2022-01-23T07:42:00.000Z</time>
      </trkpt>
      <trkpt lat="43.1697" lon="2.35868">
        <ele>176.8</ele>
        <time>2022-01-23T07:42:01.000Z</time>
      </trkpt>
      <trkpt lat="43.16968" lon="2.35866">
        <ele>177</ele>
        <time>2022-01-23T07:42:02.000Z</time>
      </trkpt>
      <trkpt lat="43.16966" lon="2.35865">
        <ele>177.3</ele>
        <time>2022-01-23T07:42:03.000Z</time>
      </trkpt>
      <trkpt lat="43.16964" lon="2.35863">
        <ele>177.5</ele>
        <time>2022-01-23T07:42:04.000Z</time>
      </trkpt>
      <trkpt lat="43.16962" lon="2.35862">
        <ele>177.7</ele>
        <time>2022-01-23T07:42:05.000Z</time>
      </trkpt>
      <trkpt lat="43.1696" lon="2.3586">
        <ele>178</ele>
        <time>2022-01-23T07:42:06.000Z</time>
      </trkpt>
      <trkpt lat="43.16958" lon="2.35859">
        <ele>178.2</ele>
        <time>2022-01-23T07:42:07.000Z</time>
      </trkpt>
      <trkpt lat="43.16957" lon="2.35857">
        <ele>178.5</ele>
        <time>2022-01-23T07:42:08.000Z</time>
      </trkpt>
      <trkpt lat="43.16955" lon="2.35856">
        <ele>178.7</ele>
        <time>2022-01-23T07:42:09.000Z</time>
      </trkpt>
      <trkpt lat="43.16953" lon="2.35855">
        <ele>178.9</ele>
        <time>2022-01-23T07:42:10.000Z</time>
      </trkpt>
      <trkpt lat="43.16951" lon="2.35853">
        <ele>179.2</ele>
        <time>2022-01-23T07:42:11.000Z</time>
      </trkpt>
      <trkpt lat="43.16949" lon="2.35852">
        <ele>179.4</ele>
        <time>2022-01-23T07:42:12.000Z</time>
      </trkpt>
      <trkpt lat="43.16947" lon="2.3585">
        <ele>179.6</ele>
        <time>2022-01-23T07:42:13.000Z</time>
      </trkpt>
      <trkpt lat="43.16945" lon="2.35849">
        <ele>179.9</ele>
        <time>2022-01-23T07:42:14.000Z</time>
      </trkpt>
      <trkpt lat="43.16943" lon="2.35847">
        <ele>180.1</ele>
        <time>2022-01-23T07:42:15.000Z</time>
      </trkpt>
      <trkpt lat="43.16941" lon="2.35846">
        <ele>180.3</ele>
        <time>2022-01-23T07:42:16.000Z</time>
      </trkpt>
      <trkpt lat="43.16939" lon="2.35845">
        <ele>180.5</ele>
        <time>2022-01-23T07:42:17.000Z</time>
      </trkpt>
      <trkpt lat="43.16937" lon="2.35843">
        <ele>180.7</ele>
        <time>2022-01-23T07:42:18.000Z</time>
      </trkpt>
      <trkpt lat="43.16936" lon="2.35842">
        <ele>181</ele>
        <time>2022-01-23T07:42:19.000Z</time>
      </trkpt>
      <trkpt lat="43.16934" lon="2.3584">
        <ele>181.2</ele>
        <time>2022-01-23T07:42:20.000Z</time>
      </trkpt>
      <trkpt lat="43.16932" lon="2.35839">
        <ele>181.4</ele>
        <time>2022-01-23T07:42:21.000Z</time>
      </trkpt>
      <trkpt lat="43.1693" lon="2.35838">
        <ele>181.6</ele>
        <time>2022-01-23T07:42:22.000Z</time>
      </trkpt>
      <trkpt lat="43.16928" lon="2.35836">
        <ele>181.8</ele>
        <time>2022-01-23T07:42:23.000Z</time>
      </trkpt>
      <trkpt lat="43.16927" lon="2.35835">
        <ele>182</ele>
        <time>2022-01-23T07:42:24.000Z</time>
      </trkpt>
      <trkpt lat="43.16925" lon="2.35833">
        <ele>182.2</ele>
        <time>2022-01-23T07:42:25.000Z</time>
      </trkpt>
      <trkpt lat="43.16923" lon="2.35832">
        <ele>182.4</ele>
        <time>2022-01-23T07:42:26.000Z</time>
      </trkpt>
      <trkpt lat="43.16921" lon="2.35831">
        <ele>182.6</ele>
        <time>2022-01-23T07:42:27.000Z</time>
      </trkpt>
      <trkpt lat="43.1692" lon="2.35829">
        <ele>182.8</ele>
        <time>2022-01-23T07:42:28.000Z</time>
      </trkpt>
      <trkpt lat="43.16918" lon="2.35828">
        <ele>183</ele>
        <time>2022-01-23T07:42:29.000Z</time>
      </trkpt>
      <trkpt lat="43.16916" lon="2.35827">
        <ele>183.2</ele>
        <time>2022-01-23T07:42:30.000Z</time>
      </trkpt>
      <trkpt lat="43.16915" lon="2.35826">
        <ele>183.5</ele>
        <time>2022-01-23T07:42:31.000Z</time>
      </trkpt>
      <trkpt lat="43.16913" lon="2.35825">
        <ele>183.7</ele>
        <time>2022-01-23T07:42:32.000Z</time>
      </trkpt>
      <trkpt lat="43.16911" lon="2.35824">
        <ele>184</ele>
        <time>2022-01-23T07:42:33.000Z</time>
      </trkpt>
      <trkpt lat="43.1691" lon="2.35823">
        <ele>184.2</ele>
        <time>2022-01-23T07:42:34.000Z</time>
      </trkpt>
      <trkpt lat="43.16908" lon="2.35823">
        <ele>184.4</ele>
        <time>2022-01-23T07:42:35.000Z</time>
      </trkpt>
      <trkpt lat="43.16907" lon="2.35823">
        <ele>184.6</ele>
        <time>2022-01-23T07:42:36.000Z</time>
      </trkpt>
      <trkpt lat="43.16905" lon="2.35824">
        <ele>184.8</ele>
        <time>2022-01-23T07:42:37.000Z</time>
      </trkpt>
      <trkpt lat="43.16903" lon="2.35825">
        <ele>185</ele>
        <time>2022-01-23T07:42:38.000Z</time>
      </trkpt>
      <trkpt lat="43.16902" lon="2.35827">
        <ele>185.1</ele>
        <time>2022-01-23T07:42:39.000Z</time>
      </trkpt>
      <trkpt lat="43.16901" lon="2.35829">
        <ele>185.2</ele>
        <time>2022-01-23T07:42:40.000Z</time>
      </trkpt>
      <trkpt lat="43.169" lon="2.35832">
        <ele>185.3</ele>
        <time>2022-01-23T07:42:41.000Z</time>
      </trkpt>
      <trkpt lat="43.16899" lon="2.35834">
        <ele>185.4</ele>
        <time>2022-01-23T07:42:42.000Z</time>
      </trkpt>
      <trkpt lat="43.16898" lon="2.35837">
        <ele>185.4</ele>
        <time>2022-01-23T07:42:43.000Z</time>
      </trkpt>
      <trkpt lat="43.16897" lon="2.35839">
        <ele>185.4</ele>
        <time>2022-01-23T07:42:44.000Z</time>
      </trkpt>
      <trkpt lat="43.16896" lon="2.35842">
        <ele>185.5</ele>
        <time>2022-01-23T07:42:45.000Z</time>
      </trkpt>
      <trkpt lat="43.16895" lon="2.35844">
        <ele>185.6</ele>
        <time>2022-01-23T07:42:46.000Z</time>
      </trkpt>
      <trkpt lat="43.16894" lon="2.35846">
        <ele>185.7</ele>
        <time>2022-01-23T07:42:47.000Z</time>
      </trkpt>
      <trkpt lat="43.16892" lon="2.35848">
        <ele>185.9</ele>
        <time>2022-01-23T07:42:48.000Z</time>
      </trkpt>
      <trkpt lat="43.1689" lon="2.3585">
        <ele>186.2</ele>
        <time>2022-01-23T07:42:49.000Z</time>
      </trkpt>
      <trkpt lat="43.16888" lon="2.35851">
        <ele>186.4</ele>
        <time>2022-01-23T07:42:50.000Z</time>
      </trkpt>
      <trkpt lat="43.16886" lon="2.35851">
        <ele>186.6</ele>
        <time>2022-01-23T07:42:51.000Z</time>
      </trkpt>
      <trkpt lat="43.16885" lon="2.3585">
        <ele>186.8</ele>
        <time>2022-01-23T07:42:52.000Z</time>
      </trkpt>
      <trkpt lat="43.16883" lon="2.35849">
        <ele>187.1</ele>
        <time>2022-01-23T07:42:53.000Z</time>
      </trkpt>
      <trkpt lat="43.16882" lon="2.35847">
        <ele>187.3</ele>
        <time>2022-01-23T07:42:54.000Z</time>
      </trkpt>
      <trkpt lat="43.1688" lon="2.35845">
        <ele>187.5</ele>
        <time>2022-01-23T07:42:55.000Z</time>
      </trkpt>
      <trkpt lat="43.16879" lon="2.35843">
        <ele>187.7</ele>
        <time>2022-01-23T07:42:56.000Z</time>
      </trkpt>
      <trkpt lat="43.16878" lon="2.3584">
        <ele>188</ele>
        <time>2022-01-23T07:42:57.000Z</time>
      </trkpt>
      <trkpt lat="43.16877" lon="2.35838">
        <ele>188.2</ele>
        <time>2022-01-23T07:42:58.000Z</time>
      </trkpt>
      <trkpt lat="43.16876" lon="2.35835">
        <ele>188.4</ele>
        <time>2022-01-23T07:42:59.000Z</time>
      </trkpt>
      <trkpt lat="43.16875" lon="2.35832">
        <ele>188.6</ele>
        <time>2022-01-23T07:43:00.000Z</time>
      </trkpt>
      <trkpt lat="43.16874" lon="2.35829">
        <ele>188.8</ele>
        <time>2022-01-23T07:43:01.000Z</time>
      </trkpt>
      <trkpt lat="43.16873" lon="2.35826">
        <ele>189.1</ele>
        <time>2022-01-23T07:43:02.000Z</time>
      </trkpt>
      <trkpt lat="43.16872" lon="2.35824">
        <ele>189.3</ele>
        <time>2022-01-23T07:43:03.000Z</time>
      </trkpt>
      <trkpt lat="43.16871" lon="2.35821">
        <ele>189.6</ele>
        <time>2022-01-23T07:43:04.000Z</time>
      </trkpt>
      <trkpt lat="43.1687" lon="2.35818">
        <ele>189.8</ele>
        <time>2022-01-23T07:43:05.000Z</time>
      </trkpt>
      <trkpt lat="43.16869" lon="2.35816">
        <ele>190</ele>
        <time>2022-01-23T07:43:06.000Z</time>
      </trkpt>
      <trkpt lat="43.16867" lon="2.35813">
        <ele>190.3</ele>
        <time>2022-01-23T07:43:07.000Z</time>
      </trkpt>
      <trkpt lat="43.16866" lon="2.3581">
        <ele>190.5</ele>
        <time>2022-01-23T07:43:08.000Z</time>
      </trkpt>
      <trkpt lat="43.16865" lon="2.35808">
        <ele>190.8</ele>
        <time>2022-01-23T07:43:09.000Z</time>
      </trkpt>
      <trkpt lat="43.16864" lon="2.35805">
        <ele>191.1</ele>
        <time>2022-01-23T07:43:10.000Z</time>
      </trkpt>
      <trkpt lat="43.16863" lon="2.35803">
        <ele>191.3</ele>
        <time>2022-01-23T07:43:11.000Z</time>
      </trkpt>
      <trkpt lat="43.16862" lon="2.358">
        <ele>191.6</ele>
        <time>2022-01-23T07:43:12.000Z</time>
      </trkpt>
      <trkpt lat="43.1686" lon="2.35798">
        <ele>191.9</ele>
        <time>2022-01-23T07:43:13.000Z</time>
      </trkpt>
      <trkpt lat="43.16859" lon="2.35795">
        <ele>192.1</ele>
        <time>2022-01-23T07:43:14.000Z</time>
      </trkpt>
      <trkpt lat="43.16858" lon="2.35793">
        <ele>192.4</ele>
        <time>2022-01-23T07:43:15.000Z</time>
      </trkpt>
      <trkpt lat="43.16857" lon="2.35791">
        <ele>192.7</ele>
        <time>2022-01-23T07:43:16.000Z</time>
      </trkpt>
      <trkpt lat="43.16855" lon="2.35788">
        <ele>193</ele>
        <time>2022-01-23T07:43:17.000Z</time>
      </trkpt>
      <trkpt lat="43.16854" lon="2.35786">
        <ele>193.3</ele>
        <time>2022-01-23T07:43:18.000Z</time>
      </trkpt>
      <trkpt lat="43.16853" lon="2.35783">
        <ele>193.5</ele>
        <time>2022-01-23T07:43:19.000Z</time>
      </trkpt>
      <trkpt lat="43.16852" lon="2.35781">
        <ele>193.8</ele>
        <time>2022-01-23T07:43:20.000Z</time>
      </trkpt>
      <trkpt lat="43.1685" lon="2.35779">
        <ele>194.1</ele>
        <time>2022-01-23T07:43:21.000Z</time>
      </trkpt>
      <trkpt lat="43.16849" lon="2.35776">
        <ele>194.4</ele>
        <time>2022-01-23T07:43:22.000Z</time>
      </trkpt>
      <trkpt lat="43.16848" lon="2.35774">
        <ele>194.7</ele>
        <time>2022-01-23T07:43:23.000Z</time>
      </trkpt>
      <trkpt lat="43.16847" lon="2.35772">
        <ele>195</ele>
        <time>2022-01-23T07:43:24.000Z</time>
      </trkpt>
      <trkpt lat="43.16846" lon="2.35769">
        <ele>195.2</ele>
        <time>2022-01-23T07:43:25.000Z</time>
      </trkpt>
      <trkpt lat="43.16844" lon="2.35767">
        <ele>195.5</ele>
        <time>2022-01-23T07:43:26.000Z</time>
      </trkpt>
      <trkpt lat="43.16843" lon="2.35765">
        <ele>195.8</ele>
        <time>2022-01-23T07:43:27.000Z</time>
      </trkpt>
      <trkpt lat="43.16842" lon="2.35763">
        <ele>196.1</ele>
        <time>2022-01-23T07:43:28.000Z</time>
      </trkpt>
      <trkpt lat="43.16841" lon="2.35761">
        <ele>196.4</ele>
        <time>2022-01-23T07:43:29.000Z</time>
      </trkpt>
      <trkpt lat="43.1684" lon="2.35758">
        <ele>196.6</ele>
        <time>2022-01-23T07:43:30.000Z</time>
      </trkpt>
      <trkpt lat="43.16839" lon="2.35756">
        <ele>196.9</ele>
        <time>2022-01-23T07:43:31.000Z</time>
      </trkpt>
      <trkpt lat="43.16837" lon="2.35755">
        <ele>197.2</ele>
        <time>2022-01-23T07:43:32.000Z</time>
      </trkpt>
      <trkpt lat="43.16836" lon="2.35753">
        <ele>197.4</ele>
        <time>2022-01-23T07:43:33.000Z</time>
      </trkpt>
      <trkpt lat="43.16835" lon="2.35751">
        <ele>197.7</ele>
        <time>2022-01-23T07:43:34.000Z</time>
      </trkpt>
      <trkpt lat="43.16834" lon="2.3575">
        <ele>198</ele>
        <time>2022-01-23T07:43:35.000Z</time>
      </trkpt>
      <trkpt lat="43.16833" lon="2.35748">
        <ele>198.2</ele>
        <time>2022-01-23T07:43:36.000Z</time>
      </trkpt>
      <trkpt lat="43.16832" lon="2.35746">
        <ele>198.4</ele>
        <time>2022-01-23T07:43:37.000Z</time>
      </trkpt>
      <trkpt lat="43.16831" lon="2.35743">
        <ele>198.6</ele>
        <time>2022-01-23T07:43:38.000Z</time>
      </trkpt>
      <trkpt lat="43.1683" lon="2.35741">
        <ele>198.8</ele>
        <time>2022-01-23T07:43:39.000Z</time>
      </trkpt>
      <trkpt lat="43.16829" lon="2.35738">
        <ele>199</ele>
        <time>2022-01-23T07:43:40.000Z</time>
      </trkpt>
      <trkpt lat="43.16828" lon="2.35736">
        <ele>199.2</ele>
        <time>2022-01-23T07:43:41.000Z</time>
      </trkpt>
      <trkpt lat="43.16827" lon="2.35734">
        <ele>199.4</ele>
        <time>2022-01-23T07:43:42.000Z</time>
      </trkpt>
      <trkpt lat="43.16826" lon="2.35732">
        <ele>199.5</ele>
        <time>2022-01-23T07:43:43.000Z</time>
      </trkpt>
      <trkpt lat="43.16826" lon="2.35731">
        <ele>199.6</ele>
        <time>2022-01-23T07:43:44.000Z</time>
      </trkpt>
      <trkpt lat="43.16825" lon="2.3573">
        <ele>199.8</ele>
        <time>2022-01-23T07:43:45.000Z</time>
      </trkpt>
      <trkpt lat="43.16824" lon="2.35729">
        <ele>199.9</ele>
        <time>2022-01-23T07:43:46.000Z</time>
      </trkpt>
      <trkpt lat="43.16823" lon="2.35728">
        <ele>200</ele>
        <time>2022-01-23T07:43:47.000Z</time>
      </trkpt>
      <trkpt lat="43.16823" lon="2.35728">
        <ele>200</ele>
        <time>2022-01-23T07:43:48.000Z</time>
      </trkpt>
      <trkpt lat="43.16822" lon="2.35727">
        <ele>200.1</ele>
        <time>2022-01-23T07:43:49.000Z</time>
      </trkpt>
      <trkpt lat="43.16821" lon="2.35727">
        <ele>200.2</ele>
        <time>2022-01-23T07:43:50.000Z</time>
      </trkpt>
      <trkpt lat="43.16821" lon="2.35726">
        <ele>200.2</ele>
        <time>2022-01-23T07:43:51.000Z</time>
      </trkpt>
      <trkpt lat="43.16821" lon="2.35726">
        <ele>200.3</ele>
        <time>2022-01-23T07:43:52.000Z</time>
      </trkpt>
      <trkpt lat="43.1682" lon="2.35726">
        <ele>200.3</ele>
        <time>2022-01-23T07:43:53.000Z</time>
      </trkpt>
      <trkpt lat="43.1682" lon="2.35726">
        <ele>200.3</ele>
        <time>2022-01-23T07:43:54.000Z</time>
      </trkpt>
      <trkpt lat="43.1682" lon="2.35726">
        <ele>200.4</ele>
        <time>2022-01-23T07:43:55.000Z</time>
      </trkpt>
      <trkpt lat="43.1682" lon="2.35726">
        <ele>200.4</ele>
        <time>2022-01-23T07:43:56.000Z</time>
      </trkpt>
      <trkpt lat="43.16819" lon="2.35726">
        <ele>200.4</ele>
        <time>2022-01-23T07:43:57.000Z</time>
      </trkpt>
      <trkpt lat="43.16819" lon="2.35726">
        <ele>200.4</ele>
        <time>2022-01-23T07:43:58.000Z</time>
      </trkpt>
      <trkpt lat="43.16819" lon="2.35726">
        <ele>200.4</ele>
        <time>2022-01-23T07:43:59.000Z</time>
      </trkpt>
      <trkpt lat="43.16819" lon="2.35726">
        <ele>200.4</ele>
        <time>2022-01-23T07:44:00.000Z</time>
      </trkpt>
      <trkpt lat="43.16819" lon="2.35726">
        <ele>200.4</ele>
        <time>2022-01-23T07:44:01.000Z</time>
      </trkpt>
      <trkpt lat="43.16819" lon="2.35726">
        <ele>200.4</ele>
        <time>2022-01-23T07:44:02.000Z</time>
      </trkpt>
      <trkpt lat="43.16819" lon="2.35726">
        <ele>200.4</ele>
        <time>2022-01-23T07:44:03.000Z</time>
      </trkpt>
      <trkpt lat="43.16819" lon="2.35726">
        <ele>200.4</ele>
        <time>2022-01-23T07:44:04.000Z</time>
      </trkpt>
      <trkpt lat="43.16819" lon="2.35726">
        <ele>200.4</ele>
        <time>2022-01-23T07:44:05.000Z</time>
      </trkpt>
      <trkpt lat="43.16819" lon="2.35726">
        <ele>200.5</ele>
        <time>2022-01-23T07:44:06.000Z</time>
      </trkpt>
      <trkpt lat="43.16819" lon="2.35726">
        <ele>200.5</ele>
        <time>2022-01-23T07:44:07.000Z</time>
      </trkpt>
      <trkpt lat="43.16819" lon="2.35726">
        <ele>200.5</ele>
        <time>2022-01-23T07:44:08.000Z</time>
      </trkpt>
      <trkpt lat="43.16819" lon="2.35726">
        <ele>200.5</ele>
        <time>2022-01-23T07:44:09.000Z</time>
      </trkpt>
      <trkpt lat="43.16819" lon="2.35726">
        <ele>200.5</ele>
        <time>2022-01-23T07:44:10.000Z</time>
      </trkpt>
      <trkpt lat="43.16819" lon="2.35726">
        <ele>200.5</ele>
        <time>2022-01-23T07:44:11.000Z</time>
      </trkpt>
      <trkpt lat="43.16819" lon="2.35726">
        <ele>200.5</ele>
        <time>2022-01-23T07:44:12.000Z</time>
      </trkpt>
      <trkpt lat="43.16819" lon="2.35726">
        <ele>200.5</ele>
        <time>2022-01-23T07:44:13.000Z</time>
      </trkpt>
      <trkpt lat="43.16819" lon="2.35726">
        <ele>200.5</ele>
        <time>2022-01-23T07:44:14.000Z</time>
      </trkpt>
      <trkpt lat="43.16819" lon="2.35726">
        <ele>200.5</ele>
        <time>2022-01-23T07:44:15.000Z</time>
      </trkpt>
      <trkpt lat="43.16819" lon="2.35726">
        <ele>200.5</ele>
        <time>2022-01-23T07:44:16.000Z</time>
      </trkpt>
      <trkpt lat="43.16819" lon="2.35726">
        <ele>200.5</ele>
        <time>2022-01-23T07:44:17.000Z</time>
      </trkpt>
      <trkpt lat="43.16819" lon="2.35726">
        <ele>200.5</ele>
        <time>2022-01-23T07:44:18.000Z</time>
      </trkpt>
      <trkpt lat="43.16819" lon="2.35726">
        <ele>200.5</ele>
        <time>2022-01-23T07:44:19.000Z</time>
      </trkpt>
      <trkpt lat="43.16819" lon="2.35726">
        <ele>200.5</ele>
        <time>2022-01-23T07:44:20.000Z</time>
      </trkpt>
      <trkpt lat="43.16819" lon="2.35726">
        <ele>200.5</ele>
        <time>2022-01-23T07:44:21.000Z</time>
      </trkpt>
      <trkpt lat="43.16819" lon="2.35726">
        <ele>200.5</ele>
        <time>2022-01-23T07:44:22.000Z</time>
      </trkpt>
      <trkpt lat="43.16819" lon="2.35726">
        <ele>200.5</ele>
        <time>2022-01-23T07:44:23.000Z</time>
      </trkpt>
      <trkpt lat="43.16819" lon="2.35726">
        <ele>200.5</ele>
        <time>2022-01-23T07:44:24.000Z</time>
      </trkpt>
      <trkpt lat="43.16819" lon="2.35726">
        <ele>200.5</ele>
        <time>2022-01-23T07:44:25.000Z</time>
      </trkpt>
      <trkpt lat="43.16819" lon="2.35726">
        <ele>200.5</ele>
        <time>2022-01-23T07:44:26.000Z</time>
      </trkpt>
      <trkpt lat="43.16819" lon="2.35726">
        <ele>200.5</ele>
        <time>2022-01-23T07:44:27.000Z</time>
      </trkpt>
      <trkpt lat="43.16819" lon="2.35726">
        <ele>200.5</ele>
        <time>2022-01-23T07:44:28.000Z</time>
      </trkpt>
      <trkpt lat="43.16819" lon="2.35726">
        <ele>200.5</ele>
        <time>2022-01-23T07:44:29.000Z</time>
      </trkpt>
      <trkpt lat="43.16819" lon="2.35726">
        <ele>200.5</ele>
        <time>2022-01-23T07:44:30.000Z</time>
      </trkpt>
      <trkpt lat="43.16819" lon="2.35726">
        <ele>200.5</ele>
        <time>2022-01-23T07:44:31.000Z</time>
      </trkpt>
      <trkpt lat="43.16819" lon="2.35726">
        <ele>200.5</ele>
        <time>2022-01-23T07:44:32.000Z</time>
      </trkpt>
      <trkpt lat="43.16819" lon="2.35726">
        <ele>200.5</ele>
        <time>2022-01-23T07:44:33.000Z</time>
      </trkpt>
      <trkpt lat="43.16819" lon="2.35726">
        <ele>200.5</ele>
        <time>2022-01-23T07:44:34.000Z</time>
      </trkpt>
      <trkpt lat="43.16819" lon="2.35726">
        <ele>200.5</ele>
        <time>2022-01-23T07:44:35.000Z</time>
      </trkpt>
      <trkpt lat="43.16819" lon="2.35725">
        <ele>200.5</ele>
        <time>2022-01-23T07:44:36.000Z</time>
      </trkpt>
      <trkpt lat="43.16819" lon="2.35725">
        <ele>200.5</ele>
        <time>2022-01-23T07:44:37.000Z</time>
      </trkpt>
      <trkpt lat="43.16818" lon="2.35725">
        <ele>200.5</ele>
        <time>2022-01-23T07:44:38.000Z</time>
      </trkpt>
      <trkpt lat="43.16818" lon="2.35725">
        <ele>200.5</ele>
        <time>2022-01-23T07:44:39.000Z</time>
      </trkpt>
      <trkpt lat="43.16818" lon="2.35725">
        <ele>200.5</ele>
        <time>2022-01-23T07:44:40.000Z</time>
      </trkpt>
      <trkpt lat="43.16818" lon="2.35725">
        <ele>200.5</ele>
        <time>2022-01-23T07:44:41.000Z</time>
      </trkpt>
      <trkpt lat="43.16818" lon="2.35725">
        <ele>200.6</ele>
        <time>2022-01-23T07:44:42.000Z</time>
      </trkpt>
      <trkpt lat="43.16818" lon="2.35725">
        <ele>200.6</ele>
        <time>2022-01-23T07:44:43.000Z</time>
      </trkpt>
      <trkpt lat="43.16818" lon="2.35725">
        <ele>200.6</ele>
        <time>2022-01-23T07:44:44.000Z</time>
      </trkpt>
      <trkpt lat="43.16818" lon="2.35725">
        <ele>200.6</ele>
        <time>2022-01-23T07:44:45.000Z</time>
      </trkpt>
      <trkpt lat="43.16818" lon="2.35726">
        <ele>200.5</ele>
        <time>2022-01-23T07:44:46.000Z</time>
      </trkpt>
      <trkpt lat="43.16818" lon="2.35726">
        <ele>200.5</ele>
        <time>2022-01-23T07:44:47.000Z</time>
      </trkpt>
      <trkpt lat="43.16818" lon="2.35726">
        <ele>200.5</ele>
        <time>2022-01-23T07:44:48.000Z</time>
      </trkpt>
      <trkpt lat="43.16819" lon="2.35727">
        <ele>200.4</ele>
        <time>2022-01-23T07:44:49.000Z</time>
      </trkpt>
      <trkpt lat="43.16819" lon="2.35727">
        <ele>200.4</ele>
        <time>2022-01-23T07:44:50.000Z</time>
      </trkpt>
      <trkpt lat="43.1682" lon="2.35727">
        <ele>200.3</ele>
        <time>2022-01-23T07:44:51.000Z</time>
      </trkpt>
      <trkpt lat="43.1682" lon="2.35727">
        <ele>200.3</ele>
        <time>2022-01-23T07:44:52.000Z</time>
      </trkpt>
      <trkpt lat="43.1682" lon="2.35726">
        <ele>200.3</ele>
        <time>2022-01-23T07:44:53.000Z</time>
      </trkpt>
      <trkpt lat="43.1682" lon="2.35726">
        <ele>200.4</ele>
        <time>2022-01-23T07:44:54.000Z</time>
      </trkpt>
      <trkpt lat="43.16819" lon="2.35725">
        <ele>200.4</ele>
        <time>2022-01-23T07:44:55.000Z</time>
      </trkpt>
      <trkpt lat="43.16819" lon="2.35725">
        <ele>200.4</ele>
        <time>2022-01-23T07:44:56.000Z</time>
      </trkpt>
      <trkpt lat="43.16819" lon="2.35726">
        <ele>200.4</ele>
        <time>2022-01-23T07:44:57.000Z</time>
      </trkpt>
      <trkpt lat="43.16819" lon="2.35726">
        <ele>200.4</ele>
        <time>2022-01-23T07:44:58.000Z</time>
      </trkpt>
      <trkpt lat="43.16819" lon="2.35726">
        <ele>200.4</ele>
        <time>2022-01-23T07:44:59.000Z</time>
      </trkpt>
      <trkpt lat="43.16819" lon="2.35726">
        <ele>200.4</ele>
        <time>2022-01-23T07:45:00.000Z</time>
      </trkpt>
      <trkpt lat="43.16819" lon="2.35726">
        <ele>200.4</ele>
        <time>2022-01-23T07:45:01.000Z</time>
      </trkpt>
      <trkpt lat="43.16818" lon="2.35727">
        <ele>200.4</ele>
        <time>2022-01-23T07:45:02.000Z</time>
      </trkpt>
      <trkpt lat="43.16818" lon="2.35727">
        <ele>200.4</ele>
        <time>2022-01-23T07:45:03.000Z</time>
      </trkpt>
      <trkpt lat="43.16818" lon="2.35727">
        <ele>200.4</ele>
        <time>2022-01-23T07:45:04.000Z</time>
      </trkpt>
      <trkpt lat="43.16818" lon="2.35726">
        <ele>200.4</ele>
        <time>2022-01-23T07:45:05.000Z</time>
      </trkpt>
      <trkpt lat="43.16818" lon="2.35726">
        <ele>200.4</ele>
        <time>2022-01-23T07:45:06.000Z</time>
      </trkpt>
      <trkpt lat="43.16818" lon="2.35726">
        <ele>200.5</ele>
        <time>2022-01-23T07:45:07.000Z</time>
      </trkpt>
      <trkpt lat="43.16818" lon="2.35726">
        <ele>200.5</ele>
        <time>2022-01-23T07:45:08.000Z</time>
      </trkpt>
      <trkpt lat="43.16818" lon="2.35726">
        <ele>200.4</ele>
        <time>2022-01-23T07:45:09.000Z</time>
      </trkpt>
      <trkpt lat="43.16818" lon="2.35726">
        <ele>200.4</ele>
        <time>2022-01-23T07:45:10.000Z</time>
      </trkpt>
      <trkpt lat="43.16818" lon="2.35726">
        <ele>200.5</ele>
        <time>2022-01-23T07:45:11.000Z</time>
      </trkpt>
      <trkpt lat="43.16818" lon="2.35726">
        <ele>200.5</ele>
        <time>2022-01-23T07:45:12.000Z</time>
      </trkpt>
      <trkpt lat="43.16818" lon="2.35726">
        <ele>200.5</ele>
        <time>2022-01-23T07:45:13.000Z</time>
      </trkpt>
      <trkpt lat="43.16818" lon="2.35726">
        <ele>200.5</ele>
        <time>2022-01-23T07:45:14.000Z</time>
      </trkpt>
      <trkpt lat="43.16817" lon="2.35726">
        <ele>200.6</ele>
        <time>2022-01-23T07:45:15.000Z</time>
      </trkpt>
      <trkpt lat="43.16817" lon="2.35726">
        <ele>200.6</ele>
        <time>2022-01-23T07:45:16.000Z</time>
      </trkpt>
      <trkpt lat="43.16816" lon="2.35726">
        <ele>200.6</ele>
        <time>2022-01-23T07:45:17.000Z</time>
      </trkpt>
      <trkpt lat="43.16816" lon="2.35726">
        <ele>200.6</ele>
        <time>2022-01-23T07:45:18.000Z</time>
      </trkpt>
      <trkpt lat="43.16816" lon="2.35726">
        <ele>200.7</ele>
        <time>2022-01-23T07:45:19.000Z</time>
      </trkpt>
      <trkpt lat="43.16816" lon="2.35726">
        <ele>200.7</ele>
        <time>2022-01-23T07:45:20.000Z</time>
      </trkpt>
      <trkpt lat="43.16816" lon="2.35726">
        <ele>200.7</ele>
        <time>2022-01-23T07:45:21.000Z</time>
      </trkpt>
      <trkpt lat="43.16816" lon="2.35726">
        <ele>200.7</ele>
        <time>2022-01-23T07:45:22.000Z</time>
      </trkpt>
      <trkpt lat="43.16816" lon="2.35726">
        <ele>200.7</ele>
        <time>2022-01-23T07:45:23.000Z</time>
      </trkpt>
      <trkpt lat="43.16816" lon="2.35726">
        <ele>200.7</ele>
        <time>2022-01-23T07:45:24.000Z</time>
      </trkpt>
      <trkpt lat="43.16816" lon="2.35726">
        <ele>200.7</ele>
        <time>2022-01-23T07:45:25.000Z</time>
      </trkpt>
      <trkpt lat="43.16816" lon="2.35726">
        <ele>200.7</ele>
        <time>2022-01-23T07:45:26.000Z</time>
      </trkpt>
      <trkpt lat="43.16816" lon="2.35726">
        <ele>200.7</ele>
        <time>2022-01-23T07:45:27.000Z</time>
      </trkpt>
      <trkpt lat="43.16816" lon="2.35726">
        <ele>200.7</ele>
        <time>2022-01-23T07:45:28.000Z</time>
      </trkpt>
      <trkpt lat="43.16816" lon="2.35726">
        <ele>200.7</ele>
        <time>2022-01-23T07:45:29.000Z</time>
      </trkpt>
      <trkpt lat="43.16816" lon="2.35726">
        <ele>200.7</ele>
        <time>2022-01-23T07:45:30.000Z</time>
      </trkpt>
      <trkpt lat="43.16816" lon="2.35726">
        <ele>200.7</ele>
        <time>2022-01-23T07:45:31.000Z</time>
      </trkpt>
      <trkpt lat="43.16816" lon="2.35726">
        <ele>200.7</ele>
        <time>2022-01-23T07:45:32.000Z</time>
      </trkpt>
      <trkpt lat="43.16816" lon="2.35726">
        <ele>200.7</ele>
        <time>2022-01-23T07:45:33.000Z</time>
      </trkpt>
      <trkpt lat="43.16816" lon="2.35726">
        <ele>200.7</ele>
        <time>2022-01-23T07:45:34.000Z</time>
      </trkpt>
      <trkpt lat="43.16815" lon="2.35726">
        <ele>200.7</ele>
        <time>2022-01-23T07:45:35.000Z</time>
      </trkpt>
      <trkpt lat="43.16815" lon="2.35727">
        <ele>200.7</ele>
        <time>2022-01-23T07:45:36.000Z</time>
      </trkpt>
      <trkpt lat="43.16815" lon="2.35727">
        <ele>200.7</ele>
        <time>2022-01-23T07:45:37.000Z</time>
      </trkpt>
      <trkpt lat="43.16815" lon="2.35727">
        <ele>200.7</ele>
        <time>2022-01-23T07:45:38.000Z</time>
      </trkpt>
      <trkpt lat="43.16815" lon="2.35727">
        <ele>200.7</ele>
        <time>2022-01-23T07:45:39.000Z</time>
      </trkpt>
      <trkpt lat="43.16815" lon="2.35727">
        <ele>200.7</ele>
        <time>2022-01-23T07:45:40.000Z</time>
      </trkpt>
      <trkpt lat="43.16815" lon="2.35727">
        <ele>200.7</ele>
        <time>2022-01-23T07:45:41.000Z</time>
      </trkpt>
      <trkpt lat="43.16815" lon="2.35727">
        <ele>200.7</ele>
        <time>2022-01-23T07:45:42.000Z</time>
      </trkpt>
      <trkpt lat="43.16815" lon="2.35727">
        <ele>200.7</ele>
        <time>2022-01-23T07:45:43.000Z</time>
      </trkpt>
      <trkpt lat="43.16815" lon="2.35727">
        <ele>200.7</ele>
        <time>2022-01-23T07:45:44.000Z</time>
      </trkpt>
      <trkpt lat="43.16815" lon="2.35727">
        <ele>200.7</ele>
        <time>2022-01-23T07:45:45.000Z</time>
      </trkpt>
      <trkpt lat="43.16815" lon="2.35727">
        <ele>200.7</ele>
        <time>2022-01-23T07:45:46.000Z</time>
      </trkpt>
      <trkpt lat="43.16815" lon="2.35727">
        <ele>200.7</ele>
        <time>2022-01-23T07:45:47.000Z</time>
      </trkpt>
      <trkpt lat="43.16815" lon="2.35727">
        <ele>200.7</ele>
        <time>2022-01-23T07:45:48.000Z</time>
      </trkpt>
      <trkpt lat="43.16815" lon="2.35727">
        <ele>200.7</ele>
        <time>2022-01-23T07:45:49.000Z</time>
      </trkpt>
      <trkpt lat="43.16815" lon="2.35728">
        <ele>200.7</ele>
        <time>2022-01-23T07:45:50.000Z</time>
      </trkpt>
      <trkpt lat="43.16815" lon="2.35728">
        <ele>200.7</ele>
        <time>2022-01-23T07:45:51.000Z</time>
      </trkpt>
      <trkpt lat="43.16815" lon="2.35729">
        <ele>200.7</ele>
        <time>2022-01-23T07:45:52.000Z</time>
      </trkpt>
      <trkpt lat="43.16815" lon="2.3573">
        <ele>200.7</ele>
        <time>2022-01-23T07:45:53.000Z</time>
      </trkpt>
      <trkpt lat="43.16814" lon="2.3573">
        <ele>200.7</ele>
        <time>2022-01-23T07:45:54.000Z</time>
      </trkpt>
      <trkpt lat="43.16814" lon="2.35731">
        <ele>200.7</ele>
        <time>2022-01-23T07:45:55.000Z</time>
      </trkpt>
      <trkpt lat="43.16814" lon="2.35731">
        <ele>200.7</ele>
        <time>2022-01-23T07:45:56.000Z</time>
      </trkpt>
      <trkpt lat="43.16814" lon="2.35731">
        <ele>200.7</ele>
        <time>2022-01-23T07:45:57.000Z</time>
      </trkpt>
      <trkpt lat="43.16814" lon="2.35731">
        <ele>200.7</ele>
        <time>2022-01-23T07:45:58.000Z</time>
      </trkpt>
      <trkpt lat="43.16814" lon="2.35732">
        <ele>200.7</ele>
        <time>2022-01-23T07:45:59.000Z</time>
      </trkpt>
      <trkpt lat="43.16814" lon="2.35732">
        <ele>200.7</ele>
        <time>2022-01-23T07:46:00.000Z</time>
      </trkpt>
      <trkpt lat="43.16814" lon="2.35732">
        <ele>200.7</ele>
        <time>2022-01-23T07:46:01.000Z</time>
      </trkpt>
      <trkpt lat="43.16814" lon="2.35732">
        <ele>200.7</ele>
        <time>2022-01-23T07:46:02.000Z</time>
      </trkpt>
      <trkpt lat="43.16814" lon="2.35732">
        <ele>200.7</ele>
        <time>2022-01-23T07:46:03.000Z</time>
      </trkpt>
      <trkpt lat="43.16814" lon="2.35732">
        <ele>200.7</ele>
        <time>2022-01-23T07:46:04.000Z</time>
      </trkpt>
      <trkpt lat="43.16814" lon="2.35732">
        <ele>200.7</ele>
        <time>2022-01-23T07:46:05.000Z</time>
      </trkpt>
      <trkpt lat="43.16814" lon="2.35732">
        <ele>200.7</ele>
        <time>2022-01-23T07:46:06.000Z</time>
      </trkpt>
      <trkpt lat="43.16814" lon="2.35732">
        <ele>200.7</ele>
        <time>2022-01-23T07:46:07.000Z</time>
      </trkpt>
      <trkpt lat="43.16813" lon="2.35732">
        <ele>200.7</ele>
        <time>2022-01-23T07:46:08.000Z</time>
      </trkpt>
      <trkpt lat="43.16813" lon="2.35733">
        <ele>200.7</ele>
        <time>2022-01-23T07:46:09.000Z</time>
      </trkpt>
      <trkpt lat="43.16813" lon="2.35734">
        <ele>200.7</ele>
        <time>2022-01-23T07:46:10.000Z</time>
      </trkpt>
      <trkpt lat="43.16812" lon="2.35735">
        <ele>200.7</ele>
        <time>2022-01-23T07:46:11.000Z</time>
      </trkpt>
      <trkpt lat="43.16812" lon="2.35736">
        <ele>200.8</ele>
        <time>2022-01-23T07:46:12.000Z</time>
      </trkpt>
      <trkpt lat="43.16811" lon="2.35737">
        <ele>200.8</ele>
        <time>2022-01-23T07:46:13.000Z</time>
      </trkpt>
      <trkpt lat="43.1681" lon="2.35738">
        <ele>200.9</ele>
        <time>2022-01-23T07:46:14.000Z</time>
      </trkpt>
      <trkpt lat="43.16809" lon="2.35739">
        <ele>200.9</ele>
        <time>2022-01-23T07:46:15.000Z</time>
      </trkpt>
      <trkpt lat="43.16808" lon="2.3574">
        <ele>201</ele>
        <time>2022-01-23T07:46:16.000Z</time>
      </trkpt>
      <trkpt lat="43.16807" lon="2.35741">
        <ele>201.1</ele>
        <time>2022-01-23T07:46:17.000Z</time>
      </trkpt>
      <trkpt lat="43.16806" lon="2.35743">
        <ele>201.2</ele>
        <time>2022-01-23T07:46:18.000Z</time>
      </trkpt>
      <trkpt lat="43.16804" lon="2.35744">
        <ele>201.3</ele>
        <time>2022-01-23T07:46:19.000Z</time>
      </trkpt>
      <trkpt lat="43.16803" lon="2.35745">
        <ele>201.4</ele>
        <time>2022-01-23T07:46:20.000Z</time>
      </trkpt>
      <trkpt lat="43.16801" lon="2.35747">
        <ele>201.5</ele>
        <time>2022-01-23T07:46:21.000Z</time>
      </trkpt>
      <trkpt lat="43.168" lon="2.35748">
        <ele>201.6</ele>
        <time>2022-01-23T07:46:22.000Z</time>
      </trkpt>
      <trkpt lat="43.16798" lon="2.3575">
        <ele>201.8</ele>
        <time>2022-01-23T07:46:23.000Z</time>
      </trkpt>
      <trkpt lat="43.16797" lon="2.35751">
        <ele>201.9</ele>
        <time>2022-01-23T07:46:24.000Z</time>
      </trkpt>
      <trkpt lat="43.16796" lon="2.35753">
        <ele>202</ele>
        <time>2022-01-23T07:46:25.000Z</time>
      </trkpt>
      <trkpt lat="43.16794" lon="2.35755">
        <ele>202.1</ele>
        <time>2022-01-23T07:46:26.000Z</time>
      </trkpt>
      <trkpt lat="43.16793" lon="2.35757">
        <ele>202.2</ele>
        <time>2022-01-23T07:46:27.000Z</time>
      </trkpt>
      <trkpt lat="43.16791" lon="2.35759">
        <ele>202.3</ele>
        <time>2022-01-23T07:46:28.000Z</time>
      </trkpt>
      <trkpt lat="43.1679" lon="2.35761">
        <ele>202.4</ele>
        <time>2022-01-23T07:46:29.000Z</time>
      </trkpt>
      <trkpt lat="43.16789" lon="2.35763">
        <ele>202.5</ele>
        <time>2022-01-23T07:46:30.000Z</time>
      </trkpt>
      <trkpt lat="43.16787" lon="2.35766">
        <ele>202.5</ele>
        <time>2022-01-23T07:46:31.000Z</time>
      </trkpt>
      <trkpt lat="43.16786" lon="2.35768">
        <ele>202.6</ele>
        <time>2022-01-23T07:46:32.000Z</time>
      </trkpt>
      <trkpt lat="43.16785" lon="2.35771">
        <ele>202.7</ele>
        <time>2022-01-23T07:46:33.000Z</time>
      </trkpt>
      <trkpt lat="43.16783" lon="2.35773">
        <ele>202.8</ele>
        <time>2022-01-23T07:46:34.000Z</time>
      </trkpt>
      <trkpt lat="43.16782" lon="2.35776">
        <ele>202.8</ele>
        <time>2022-01-23T07:46:35.000Z</time>
      </trkpt>
      <trkpt lat="43.16781" lon="2.35779">
        <ele>202.9</ele>
        <time>2022-01-23T07:46:36.000Z</time>
      </trkpt>
      <trkpt lat="43.1678" lon="2.35782">
        <ele>203</ele>
        <time>2022-01-23T07:46:37.000Z</time>
      </trkpt>
      <trkpt lat="43.16779" lon="2.35785">
        <ele>203.1</ele>
        <time>2022-01-23T07:46:38.000Z</time>
      </trkpt>
      <trkpt lat="43.16778" lon="2.35788">
        <ele>203.1</ele>
        <time>2022-01-23T07:46:39.000Z</time>
      </trkpt>
      <trkpt lat="43.16776" lon="2.35791">
        <ele>203.2</ele>
        <time>2022-01-23T07:46:40.000Z</time>
      </trkpt>
      <trkpt lat="43.16775" lon="2.35794">
        <ele>203.3</ele>
        <time>2022-01-23T07:46:41.000Z</time>
      </trkpt>
      <trkpt lat="43.16774" lon="2.35797">
        <ele>203.4</ele>
        <time>2022-01-23T07:46:42.000Z</time>
      </trkpt>
      <trkpt lat="43.16773" lon="2.358">
        <ele>203.5</ele>
        <time>2022-01-23T07:46:43.000Z</time>
      </trkpt>
      <trkpt lat="43.16771" lon="2.35802">
        <ele>203.6</ele>
        <time>2022-01-23T07:46:44.000Z</time>
      </trkpt>
      <trkpt lat="43.1677" lon="2.35805">
        <ele>203.7</ele>
        <time>2022-01-23T07:46:45.000Z</time>
      </trkpt>
      <trkpt lat="43.16769" lon="2.35808">
        <ele>203.8</ele>
        <time>2022-01-23T07:46:46.000Z</time>
      </trkpt>
      <trkpt lat="43.16768" lon="2.3581">
        <ele>203.9</ele>
        <time>2022-01-23T07:46:47.000Z</time>
      </trkpt>
      <trkpt lat="43.16766" lon="2.35813">
        <ele>204.1</ele>
        <time>2022-01-23T07:46:48.000Z</time>
      </trkpt>
      <trkpt lat="43.16765" lon="2.35815">
        <ele>204.2</ele>
        <time>2022-01-23T07:46:49.000Z</time>
      </trkpt>
      <trkpt lat="43.16763" lon="2.35817">
        <ele>204.4</ele>
        <time>2022-01-23T07:46:50.000Z</time>
      </trkpt>
      <trkpt lat="43.16762" lon="2.35819">
        <ele>204.6</ele>
        <time>2022-01-23T07:46:51.000Z</time>
      </trkpt>
      <trkpt lat="43.1676" lon="2.35821">
        <ele>204.8</ele>
        <time>2022-01-23T07:46:52.000Z</time>
      </trkpt>
      <trkpt lat="43.16758" lon="2.35823">
        <ele>205</ele>
        <time>2022-01-23T07:46:53.000Z</time>
      </trkpt>
      <trkpt lat="43.16757" lon="2.35824">
        <ele>205.2</ele>
        <time>2022-01-23T07:46:54.000Z</time>
      </trkpt>
      <trkpt lat="43.16755" lon="2.35825">
        <ele>205.4</ele>
        <time>2022-01-23T07:46:55.000Z</time>
      </trkpt>
      <trkpt lat="43.16753" lon="2.35826">
        <ele>205.7</ele>
        <time>2022-01-23T07:46:56.000Z</time>
      </trkpt>
      <trkpt lat="43.16751" lon="2.35827">
        <ele>205.9</ele>
        <time>2022-01-23T07:46:57.000Z</time>
      </trkpt>
      <trkpt lat="43.1675" lon="2.35827">
        <ele>206.1</ele>
        <time>2022-01-23T07:46:58.000Z</time>
      </trkpt>
      <trkpt lat="43.16748" lon="2.35828">
        <ele>206.4</ele>
        <time>2022-01-23T07:46:59.000Z</time>
      </trkpt>
      <trkpt lat="43.16746" lon="2.35828">
        <ele>206.7</ele>
        <time>2022-01-23T07:47:00.000Z</time>
      </trkpt>
      <trkpt lat="43.16744" lon="2.35828">
        <ele>207</ele>
        <time>2022-01-23T07:47:01.000Z</time>
      </trkpt>
      <trkpt lat="43.16742" lon="2.35828">
        <ele>207.3</ele>
        <time>2022-01-23T07:47:02.000Z</time>
      </trkpt>
      <trkpt lat="43.1674" lon="2.35827">
        <ele>207.6</ele>
        <time>2022-01-23T07:47:03.000Z</time>
      </trkpt>
      <trkpt lat="43.16739" lon="2.35827">
        <ele>207.8</ele>
        <time>2022-01-23T07:47:04.000Z</time>
      </trkpt>
      <trkpt lat="43.16737" lon="2.35826">
        <ele>208.1</ele>
        <time>2022-01-23T07:47:05.000Z</time>
      </trkpt>
      <trkpt lat="43.16735" lon="2.35825">
        <ele>208.4</ele>
        <time>2022-01-23T07:47:06.000Z</time>
      </trkpt>
      <trkpt lat="43.16733" lon="2.35824">
        <ele>208.7</ele>
        <time>2022-01-23T07:47:07.000Z</time>
      </trkpt>
      <trkpt lat="43.16731" lon="2.35823">
        <ele>209</ele>
        <time>2022-01-23T07:47:08.000Z</time>
      </trkpt>
      <trkpt lat="43.16729" lon="2.35822">
        <ele>209.3</ele>
        <time>2022-01-23T07:47:09.000Z</time>
      </trkpt>
      <trkpt lat="43.16727" lon="2.35821">
        <ele>209.6</ele>
        <time>2022-01-23T07:47:10.000Z</time>
      </trkpt>
      <trkpt lat="43.16725" lon="2.3582">
        <ele>209.8</ele>
        <time>2022-01-23T07:47:11.000Z</time>
      </trkpt>
      <trkpt lat="43.16723" lon="2.35819">
        <ele>210.1</ele>
        <time>2022-01-23T07:47:12.000Z</time>
      </trkpt>
      <trkpt lat="43.16722" lon="2.35818">
        <ele>210.4</ele>
        <time>2022-01-23T07:47:13.000Z</time>
      </trkpt>
      <trkpt lat="43.1672" lon="2.35816">
        <ele>210.6</ele>
        <time>2022-01-23T07:47:14.000Z</time>
      </trkpt>
      <trkpt lat="43.16718" lon="2.35814">
        <ele>210.8</ele>
        <time>2022-01-23T07:47:15.000Z</time>
      </trkpt>
      <trkpt lat="43.16717" lon="2.35813">
        <ele>211</ele>
        <time>2022-01-23T07:47:16.000Z</time>
      </trkpt>
      <trkpt lat="43.16716" lon="2.35811">
        <ele>211.2</ele>
        <time>2022-01-23T07:47:17.000Z</time>
      </trkpt>
      <trkpt lat="43.16715" lon="2.35808">
        <ele>211.3</ele>
        <time>2022-01-23T07:47:18.000Z</time>
      </trkpt>
      <trkpt lat="43.16714" lon="2.35806">
        <ele>211.4</ele>
        <time>2022-01-23T07:47:19.000Z</time>
      </trkpt>
      <trkpt lat="43.16714" lon="2.35803">
        <ele>211.4</ele>
        <time>2022-01-23T07:47:20.000Z</time>
      </trkpt>
      <trkpt lat="43.16714" lon="2.35801">
        <ele>211.4</ele>
        <time>2022-01-23T07:47:21.000Z</time>
      </trkpt>
      <trkpt lat="43.16714" lon="2.35798">
        <ele>211.3</ele>
        <time>2022-01-23T07:47:22.000Z</time>
      </trkpt>
      <trkpt lat="43.16715" lon="2.35795">
        <ele>211.2</ele>
        <time>2022-01-23T07:47:23.000Z</time>
      </trkpt>
      <trkpt lat="43.16716" lon="2.35792">
        <ele>211.1</ele>
        <time>2022-01-23T07:47:24.000Z</time>
      </trkpt>
      <trkpt lat="43.16717" lon="2.35789">
        <ele>210.9</ele>
        <time>2022-01-23T07:47:25.000Z</time>
      </trkpt>
      <trkpt lat="43.16718" lon="2.35787">
        <ele>210.8</ele>
        <time>2022-01-23T07:47:26.000Z</time>
      </trkpt>
      <trkpt lat="43.16719" lon="2.35784">
        <ele>210.6</ele>
        <time>2022-01-23T07:47:27.000Z</time>
      </trkpt>
      <trkpt lat="43.16719" lon="2.35782">
        <ele>210.5</ele>
        <time>2022-01-23T07:47:28.000Z</time>
      </trkpt>
      <trkpt lat="43.1672" lon="2.35779">
        <ele>210.3</ele>
        <time>2022-01-23T07:47:29.000Z</time>
      </trkpt>
      <trkpt lat="43.16721" lon="2.35777">
        <ele>210.2</ele>
        <time>2022-01-23T07:47:30.000Z</time>
      </trkpt>
      <trkpt lat="43.16722" lon="2.35775">
        <ele>210.1</ele>
        <time>2022-01-23T07:47:31.000Z</time>
      </trkpt>
      <trkpt lat="43.16723" lon="2.35772">
        <ele>210</ele>
        <time>2022-01-23T07:47:32.000Z</time>
      </trkpt>
      <trkpt lat="43.16724" lon="2.3577">
        <ele>209.9</ele>
        <time>2022-01-23T07:47:33.000Z</time>
      </trkpt>
      <trkpt lat="43.16724" lon="2.35767">
        <ele>209.8</ele>
        <time>2022-01-23T07:47:34.000Z</time>
      </trkpt>
      <trkpt lat="43.16725" lon="2.35765">
        <ele>209.7</ele>
        <time>2022-01-23T07:47:35.000Z</time>
      </trkpt>
      <trkpt lat="43.16725" lon="2.35762">
        <ele>209.7</ele>
        <time>2022-01-23T07:47:36.000Z</time>
      </trkpt>
      <trkpt lat="43.16726" lon="2.35759">
        <ele>209.6</ele>
        <time>2022-01-23T07:47:37.000Z</time>
      </trkpt>
      <trkpt lat="43.16726" lon="2.35756">
        <ele>209.6</ele>
        <time>2022-01-23T07:47:38.000Z</time>
      </trkpt>
      <trkpt lat="43.16726" lon="2.35753">
        <ele>209.6</ele>
        <time>2022-01-23T07:47:39.000Z</time>
      </trkpt>
      <trkpt lat="43.16726" lon="2.3575">
        <ele>209.6</ele>
        <time>2022-01-23T07:47:40.000Z</time>
      </trkpt>
      <trkpt lat="43.16726" lon="2.35747">
        <ele>209.5</ele>
        <time>2022-01-23T07:47:41.000Z</time>
      </trkpt>
      <trkpt lat="43.16725" lon="2.35744">
        <ele>209.5</ele>
        <time>2022-01-23T07:47:42.000Z</time>
      </trkpt>
      <trkpt lat="43.16724" lon="2.35741">
        <ele>209.5</ele>
        <time>2022-01-23T07:47:43.000Z</time>
      </trkpt>
      <trkpt lat="43.16724" lon="2.35739">
        <ele>209.5</ele>
        <time>2022-01-23T07:47:44.000Z</time>
      </trkpt>
      <trkpt lat="43.16722" lon="2.35736">
        <ele>209.5</ele>
        <time>2022-01-23T07:47:45.000Z</time>
      </trkpt>
      <trkpt lat="43.16721" lon="2.35734">
        <ele>209.6</ele>
        <time>2022-01-23T07:47:46.000Z</time>
      </trkpt>
      <trkpt lat="43.1672" lon="2.35731">
        <ele>209.7</ele>
        <time>2022-01-23T07:47:47.000Z</time>
      </trkpt>
      <trkpt lat="43.16718" lon="2.35729">
        <ele>209.8</ele>
        <time>2022-01-23T07:47:48.000Z</time>
      </trkpt>
      <trkpt lat="43.16716" lon="2.35727">
        <ele>209.9</ele>
        <time>2022-01-23T07:47:49.000Z</time>
      </trkpt>
      <trkpt lat="43.16715" lon="2.35725">
        <ele>210</ele>
        <time>2022-01-23T07:47:50.000Z</time>
      </trkpt>
      <trkpt lat="43.16713" lon="2.35723">
        <ele>210.1</ele>
        <time>2022-01-23T07:47:51.000Z</time>
      </trkpt>
      <trkpt lat="43.16711" lon="2.35722">
        <ele>210.3</ele>
        <time>2022-01-23T07:47:52.000Z</time>
      </trkpt>
      <trkpt lat="43.16709" lon="2.35721">
        <ele>210.4</ele>
        <time>2022-01-23T07:47:53.000Z</time>
      </trkpt>
      <trkpt lat="43.16707" lon="2.3572">
        <ele>210.6</ele>
        <time>2022-01-23T07:47:54.000Z</time>
      </trkpt>
      <trkpt lat="43.16705" lon="2.35718">
        <ele>210.7</ele>
        <time>2022-01-23T07:47:55.000Z</time>
      </trkpt>
      <trkpt lat="43.16703" lon="2.35717">
        <ele>210.9</ele>
        <time>2022-01-23T07:47:56.000Z</time>
      </trkpt>
      <trkpt lat="43.16701" lon="2.35716">
        <ele>211</ele>
        <time>2022-01-23T07:47:57.000Z</time>
      </trkpt>
      <trkpt lat="43.16699" lon="2.35715">
        <ele>211.2</ele>
        <time>2022-01-23T07:47:58.000Z</time>
      </trkpt>
      <trkpt lat="43.16697" lon="2.35714">
        <ele>211.3</ele>
        <time>2022-01-23T07:47:59.000Z</time>
      </trkpt>
      <trkpt lat="43.16695" lon="2.35712">
        <ele>211.4</ele>
        <time>2022-01-23T07:48:00.000Z</time>
      </trkpt>
      <trkpt lat="43.16694" lon="2.35711">
        <ele>211.5</ele>
        <time>2022-01-23T07:48:01.000Z</time>
      </trkpt>
      <trkpt lat="43.16692" lon="2.35709">
        <ele>211.6</ele>
        <time>2022-01-23T07:48:02.000Z</time>
      </trkpt>
      <trkpt lat="43.1669" lon="2.35708">
        <ele>211.7</ele>
        <time>2022-01-23T07:48:03.000Z</time>
      </trkpt>
      <trkpt lat="43.16689" lon="2.35706">
        <ele>211.8</ele>
        <time>2022-01-23T07:48:04.000Z</time>
      </trkpt>
      <trkpt lat="43.16688" lon="2.35704">
        <ele>211.8</ele>
        <time>2022-01-23T07:48:05.000Z</time>
      </trkpt>
      <trkpt lat="43.16686" lon="2.35703">
        <ele>211.9</ele>
        <time>2022-01-23T07:48:06.000Z</time>
      </trkpt>
      <trkpt lat="43.16685" lon="2.35701">
        <ele>211.9</ele>
        <time>2022-01-23T07:48:07.000Z</time>
      </trkpt>
      <trkpt lat="43.16684" lon="2.357">
        <ele>212</ele>
        <time>2022-01-23T07:48:08.000Z</time>
      </trkpt>
      <trkpt lat="43.16683" lon="2.35698">
        <ele>212</ele>
        <time>2022-01-23T07:48:09.000Z</time>
      </trkpt>
      <trkpt lat="43.16681" lon="2.35697">
        <ele>212.1</ele>
        <time>2022-01-23T07:48:10.000Z</time>
      </trkpt>
      <trkpt lat="43.1668" lon="2.35696">
        <ele>212.2</ele>
        <time>2022-01-23T07:48:11.000Z</time>
      </trkpt>
      <trkpt lat="43.16679" lon="2.35695">
        <ele>212.2</ele>
        <time>2022-01-23T07:48:12.000Z</time>
      </trkpt>
      <trkpt lat="43.16678" lon="2.35694">
        <ele>212.2</ele>
        <time>2022-01-23T07:48:13.000Z</time>
      </trkpt>
      <trkpt lat="43.16677" lon="2.35693">
        <ele>212.3</ele>
        <time>2022-01-23T07:48:14.000Z</time>
      </trkpt>
      <trkpt lat="43.16676" lon="2.35691">
        <ele>212.3</ele>
        <time>2022-01-23T07:48:15.000Z</time>
      </trkpt>
      <trkpt lat="43.16675" lon="2.3569">
        <ele>212.4</ele>
        <time>2022-01-23T07:48:16.000Z</time>
      </trkpt>
      <trkpt lat="43.16674" lon="2.35689">
        <ele>212.4</ele>
        <time>2022-01-23T07:48:17.000Z</time>
      </trkpt>
      <trkpt lat="43.16673" lon="2.35688">
        <ele>212.4</ele>
        <time>2022-01-23T07:48:18.000Z</time>
      </trkpt>
      <trkpt lat="43.16672" lon="2.35686">
        <ele>212.5</ele>
        <time>2022-01-23T07:48:19.000Z</time>
      </trkpt>
      <trkpt lat="43.16671" lon="2.35685">
        <ele>212.5</ele>
        <time>2022-01-23T07:48:20.000Z</time>
      </trkpt>
      <trkpt lat="43.1667" lon="2.35683">
        <ele>212.5</ele>
        <time>2022-01-23T07:48:21.000Z</time>
      </trkpt>
      <trkpt lat="43.16669" lon="2.35681">
        <ele>212.5</ele>
        <time>2022-01-23T07:48:22.000Z</time>
      </trkpt>
      <trkpt lat="43.16668" lon="2.3568">
        <ele>212.5</ele>
        <time>2022-01-23T07:48:23.000Z</time>
      </trkpt>
      <trkpt lat="43.16667" lon="2.35678">
        <ele>212.5</ele>
        <time>2022-01-23T07:48:24.000Z</time>
      </trkpt>
      <trkpt lat="43.16667" lon="2.35676">
        <ele>212.4</ele>
        <time>2022-01-23T07:48:25.000Z</time>
      </trkpt>
      <trkpt lat="43.16666" lon="2.35673">
        <ele>212.2</ele>
        <time>2022-01-23T07:48:26.000Z</time>
      </trkpt>
      <trkpt lat="43.16665" lon="2.35671">
        <ele>212</ele>
        <time>2022-01-23T07:48:27.000Z</time>
      </trkpt>
      <trkpt lat="43.16665" lon="2.35669">
        <ele>211.8</ele>
        <time>2022-01-23T07:48:28.000Z</time>
      </trkpt>
      <trkpt lat="43.16664" lon="2.35666">
        <ele>211.5</ele>
        <time>2022-01-23T07:48:29.000Z</time>
      </trkpt>
      <trkpt lat="43.16663" lon="2.35664">
        <ele>211.2</ele>
        <time>2022-01-23T07:48:30.000Z</time>
      </trkpt>
      <trkpt lat="43.16662" lon="2.35662">
        <ele>210.9</ele>
        <time>2022-01-23T07:48:31.000Z</time>
      </trkpt>
      <trkpt lat="43.16662" lon="2.3566">
        <ele>210.6</ele>
        <time>2022-01-23T07:48:32.000Z</time>
      </trkpt>
      <trkpt lat="43.16661" lon="2.35657">
        <ele>210.3</ele>
        <time>2022-01-23T07:48:33.000Z</time>
      </trkpt>
      <trkpt lat="43.16659" lon="2.35655">
        <ele>210</ele>
        <time>2022-01-23T07:48:34.000Z</time>
      </trkpt>
      <trkpt lat="43.16658" lon="2.35653">
        <ele>209.6</ele>
        <time>2022-01-23T07:48:35.000Z</time>
      </trkpt>
      <trkpt lat="43.16657" lon="2.35652">
        <ele>209.3</ele>
        <time>2022-01-23T07:48:36.000Z</time>
      </trkpt>
      <trkpt lat="43.16656" lon="2.3565">
        <ele>208.9</ele>
        <time>2022-01-23T07:48:37.000Z</time>
      </trkpt>
      <trkpt lat="43.16654" lon="2.35648">
        <ele>208.5</ele>
        <time>2022-01-23T07:48:38.000Z</time>
      </trkpt>
      <trkpt lat="43.16653" lon="2.35645">
        <ele>208.2</ele>
        <time>2022-01-23T07:48:39.000Z</time>
      </trkpt>
      <trkpt lat="43.16652" lon="2.35642">
        <ele>207.8</ele>
        <time>2022-01-23T07:48:40.000Z</time>
      </trkpt>
      <trkpt lat="43.16651" lon="2.35639">
        <ele>207.5</ele>
        <time>2022-01-23T07:48:41.000Z</time>
      </trkpt>
      <trkpt lat="43.16651" lon="2.35636">
        <ele>207.2</ele>
        <time>2022-01-23T07:48:42.000Z</time>
      </trkpt>
      <trkpt lat="43.1665" lon="2.35633">
        <ele>206.9</ele>
        <time>2022-01-23T07:48:43.000Z</time>
      </trkpt>
      <trkpt lat="43.1665" lon="2.3563">
        <ele>206.7</ele>
        <time>2022-01-23T07:48:44.000Z</time>
      </trkpt>
      <trkpt lat="43.16651" lon="2.35628">
        <ele>206.6</ele>
        <time>2022-01-23T07:48:45.000Z</time>
      </trkpt>
      <trkpt lat="43.16651" lon="2.35625">
        <ele>206.5</ele>
        <time>2022-01-23T07:48:46.000Z</time>
      </trkpt>
      <trkpt lat="43.16652" lon="2.35622">
        <ele>206.4</ele>
        <time>2022-01-23T07:48:47.000Z</time>
      </trkpt>
      <trkpt lat="43.16653" lon="2.3562">
        <ele>206.4</ele>
        <time>2022-01-23T07:48:48.000Z</time>
      </trkpt>
      <trkpt lat="43.16654" lon="2.35617">
        <ele>206.4</ele>
        <time>2022-01-23T07:48:49.000Z</time>
      </trkpt>
      <trkpt lat="43.16655" lon="2.35615">
        <ele>206.3</ele>
        <time>2022-01-23T07:48:50.000Z</time>
      </trkpt>
      <trkpt lat="43.16655" lon="2.35612">
        <ele>206.3</ele>
        <time>2022-01-23T07:48:51.000Z</time>
      </trkpt>
      <trkpt lat="43.16656" lon="2.3561">
        <ele>206.2</ele>
        <time>2022-01-23T07:48:52.000Z</time>
      </trkpt>
      <trkpt lat="43.16656" lon="2.35607">
        <ele>206.1</ele>
        <time>2022-01-23T07:48:53.000Z</time>
      </trkpt>
      <trkpt lat="43.16657" lon="2.35604">
        <ele>205.9</ele>
        <time>2022-01-23T07:48:54.000Z</time>
      </trkpt>
      <trkpt lat="43.16657" lon="2.35602">
        <ele>205.8</ele>
        <time>2022-01-23T07:48:55.000Z</time>
      </trkpt>
      <trkpt lat="43.16657" lon="2.35599">
        <ele>205.6</ele>
        <time>2022-01-23T07:48:56.000Z</time>
      </trkpt>
      <trkpt lat="43.16657" lon="2.35596">
        <ele>205.4</ele>
        <time>2022-01-23T07:48:57.000Z</time>
      </trkpt>
      <trkpt lat="43.16657" lon="2.35594">
        <ele>205.2</ele>
        <time>2022-01-23T07:48:58.000Z</time>
      </trkpt>
      <trkpt lat="43.16656" lon="2.35591">
        <ele>204.9</ele>
        <time>2022-01-23T07:48:59.000Z</time>
      </trkpt>
      <trkpt lat="43.16656" lon="2.35589">
        <ele>204.6</ele>
        <time>2022-01-23T07:49:00.000Z</time>
      </trkpt>
      <trkpt lat="43.16655" lon="2.35586">
        <ele>204.3</ele>
        <time>2022-01-23T07:49:01.000Z</time>
      </trkpt>
      <trkpt lat="43.16653" lon="2.35584">
        <ele>203.9</ele>
        <time>2022-01-23T07:49:02.000Z</time>
      </trkpt>
      <trkpt lat="43.16652" lon="2.35582">
        <ele>203.6</ele>
        <time>2022-01-23T07:49:03.000Z</time>
      </trkpt>
      <trkpt lat="43.1665" lon="2.35579">
        <ele>203.3</ele>
        <time>2022-01-23T07:49:04.000Z</time>
      </trkpt>
      <trkpt lat="43.16649" lon="2.35577">
        <ele>203.1</ele>
        <time>2022-01-23T07:49:05.000Z</time>
      </trkpt>
      <trkpt lat="43.16649" lon="2.35574">
        <ele>202.9</ele>
        <time>2022-01-23T07:49:06.000Z</time>
      </trkpt>
      <trkpt lat="43.16648" lon="2.35571">
        <ele>202.7</ele>
        <time>2022-01-23T07:49:07.000Z</time>
      </trkpt>
      <trkpt lat="43.16648" lon="2.35568">
        <ele>202.5</ele>
        <time>2022-01-23T07:49:08.000Z</time>
      </trkpt>
      <trkpt lat="43.16647" lon="2.35564">
        <ele>202.4</ele>
        <time>2022-01-23T07:49:09.000Z</time>
      </trkpt>
      <trkpt lat="43.16647" lon="2.35561">
        <ele>202.2</ele>
        <time>2022-01-23T07:49:10.000Z</time>
      </trkpt>
      <trkpt lat="43.16647" lon="2.35558">
        <ele>202.1</ele>
        <time>2022-01-23T07:49:11.000Z</time>
      </trkpt>
      <trkpt lat="43.16647" lon="2.35555">
        <ele>202</ele>
        <time>2022-01-23T07:49:12.000Z</time>
      </trkpt>
      <trkpt lat="43.16647" lon="2.35551">
        <ele>201.9</ele>
        <time>2022-01-23T07:49:13.000Z</time>
      </trkpt>
      <trkpt lat="43.16647" lon="2.35548">
        <ele>201.8</ele>
        <time>2022-01-23T07:49:14.000Z</time>
      </trkpt>
      <trkpt lat="43.16647" lon="2.35545">
        <ele>201.7</ele>
        <time>2022-01-23T07:49:15.000Z</time>
      </trkpt>
      <trkpt lat="43.16647" lon="2.35542">
        <ele>201.5</ele>
        <time>2022-01-23T07:49:16.000Z</time>
      </trkpt>
      <trkpt lat="43.16647" lon="2.3554">
        <ele>201.4</ele>
        <time>2022-01-23T07:49:17.000Z</time>
      </trkpt>
      <trkpt lat="43.16647" lon="2.35537">
        <ele>201.3</ele>
        <time>2022-01-23T07:49:18.000Z</time>
      </trkpt>
      <trkpt lat="43.16646" lon="2.35534">
        <ele>201.2</ele>
        <time>2022-01-23T07:49:19.000Z</time>
      </trkpt>
      <trkpt lat="43.16646" lon="2.35532">
        <ele>201.1</ele>
        <time>2022-01-23T07:49:20.000Z</time>
      </trkpt>
      <trkpt lat="43.16646" lon="2.3553">
        <ele>201</ele>
        <time>2022-01-23T07:49:21.000Z</time>
      </trkpt>
      <trkpt lat="43.16645" lon="2.35527">
        <ele>200.8</ele>
        <time>2022-01-23T07:49:22.000Z</time>
      </trkpt>
      <trkpt lat="43.16645" lon="2.35525">
        <ele>200.7</ele>
        <time>2022-01-23T07:49:23.000Z</time>
      </trkpt>
      <trkpt lat="43.16645" lon="2.35523">
        <ele>200.5</ele>
        <time>2022-01-23T07:49:24.000Z</time>
      </trkpt>
      <trkpt lat="43.16644" lon="2.3552">
        <ele>200.4</ele>
        <time>2022-01-23T07:49:25.000Z</time>
      </trkpt>
      <trkpt lat="43.16644" lon="2.35518">
        <ele>200.3</ele>
        <time>2022-01-23T07:49:26.000Z</time>
      </trkpt>
      <trkpt lat="43.16643" lon="2.35515">
        <ele>200.1</ele>
        <time>2022-01-23T07:49:27.000Z</time>
      </trkpt>
      <trkpt lat="43.16643" lon="2.35513">
        <ele>200</ele>
        <time>2022-01-23T07:49:28.000Z</time>
      </trkpt>
      <trkpt lat="43.16642" lon="2.3551">
        <ele>199.8</ele>
        <time>2022-01-23T07:49:29.000Z</time>
      </trkpt>
      <trkpt lat="43.16642" lon="2.35508">
        <ele>199.7</ele>
        <time>2022-01-23T07:49:30.000Z</time>
      </trkpt>
      <trkpt lat="43.16641" lon="2.35505">
        <ele>199.5</ele>
        <time>2022-01-23T07:49:31.000Z</time>
      </trkpt>
      <trkpt lat="43.16641" lon="2.35502">
        <ele>199.4</ele>
        <time>2022-01-23T07:49:32.000Z</time>
      </trkpt>
      <trkpt lat="43.16641" lon="2.35499">
        <ele>199.2</ele>
        <time>2022-01-23T07:49:33.000Z</time>
      </trkpt>
      <trkpt lat="43.1664" lon="2.35496">
        <ele>199</ele>
        <time>2022-01-23T07:49:34.000Z</time>
      </trkpt>
      <trkpt lat="43.1664" lon="2.35494">
        <ele>198.8</ele>
        <time>2022-01-23T07:49:35.000Z</time>
      </trkpt>
      <trkpt lat="43.16639" lon="2.35491">
        <ele>198.5</ele>
        <time>2022-01-23T07:49:36.000Z</time>
      </trkpt>
      <trkpt lat="43.16639" lon="2.35488">
        <ele>198.3</ele>
        <time>2022-01-23T07:49:37.000Z</time>
      </trkpt>
      <trkpt lat="43.16639" lon="2.35485">
        <ele>198.1</ele>
        <time>2022-01-23T07:49:38.000Z</time>
      </trkpt>
      <trkpt lat="43.16638" lon="2.35482">
        <ele>197.9</ele>
        <time>2022-01-23T07:49:39.000Z</time>
      </trkpt>
      <trkpt lat="43.16638" lon="2.35479">
        <ele>197.7</ele>
        <time>2022-01-23T07:49:40.000Z</time>
      </trkpt>
      <trkpt lat="43.16638" lon="2.35476">
        <ele>197.5</ele>
        <time>2022-01-23T07:49:41.000Z</time>
      </trkpt>
      <trkpt lat="43.16637" lon="2.35473">
        <ele>197.3</ele>
        <time>2022-01-23T07:49:42.000Z</time>
      </trkpt>
      <trkpt lat="43.16637" lon="2.3547">
        <ele>197.1</ele>
        <time>2022-01-23T07:49:43.000Z</time>
      </trkpt>
      <trkpt lat="43.16637" lon="2.35467">
        <ele>196.9</ele>
        <time>2022-01-23T07:49:44.000Z</time>
      </trkpt>
      <trkpt lat="43.16637" lon="2.35465">
        <ele>196.7</ele>
        <time>2022-01-23T07:49:45.000Z</time>
      </trkpt>
      <trkpt lat="43.16636" lon="2.35462">
        <ele>196.5</ele>
        <time>2022-01-23T07:49:46.000Z</time>
      </trkpt>
      <trkpt lat="43.16636" lon="2.35459">
        <ele>196.3</ele>
        <time>2022-01-23T07:49:47.000Z</time>
      </trkpt>
      <trkpt lat="43.16636" lon="2.35456">
        <ele>196.2</ele>
        <time>2022-01-23T07:49:48.000Z</time>
      </trkpt>
      <trkpt lat="43.16636" lon="2.35453">
        <ele>196</ele>
        <time>2022-01-23T07:49:49.000Z</time>
      </trkpt>
      <trkpt lat="43.16636" lon="2.3545">
        <ele>195.9</ele>
        <time>2022-01-23T07:49:50.000Z</time>
      </trkpt>
      <trkpt lat="43.16636" lon="2.35447">
        <ele>195.7</ele>
        <time>2022-01-23T07:49:51.000Z</time>
      </trkpt>
      <trkpt lat="43.16637" lon="2.35445">
        <ele>195.6</ele>
        <time>2022-01-23T07:49:52.000Z</time>
      </trkpt>
      <trkpt lat="43.16637" lon="2.35442">
        <ele>195.4</ele>
        <time>2022-01-23T07:49:53.000Z</time>
      </trkpt>
      <trkpt lat="43.16637" lon="2.35439">
        <ele>195.3</ele>
        <time>2022-01-23T07:49:54.000Z</time>
      </trkpt>
      <trkpt lat="43.16638" lon="2.35436">
        <ele>195.3</ele>
        <time>2022-01-23T07:49:55.000Z</time>
      </trkpt>
      <trkpt lat="43.16639" lon="2.35434">
        <ele>195.3</ele>
        <time>2022-01-23T07:49:56.000Z</time>
      </trkpt>
      <trkpt lat="43.1664" lon="2.35432">
        <ele>195.4</ele>
        <time>2022-01-23T07:49:57.000Z</time>
      </trkpt>
      <trkpt lat="43.16642" lon="2.3543">
        <ele>195.5</ele>
        <time>2022-01-23T07:49:58.000Z</time>
      </trkpt>
      <trkpt lat="43.16644" lon="2.35428">
        <ele>195.7</ele>
        <time>2022-01-23T07:49:59.000Z</time>
      </trkpt>
      <trkpt lat="43.16646" lon="2.35425">
        <ele>195.7</ele>
        <time>2022-01-23T07:50:00.000Z</time>
      </trkpt>
      <trkpt lat="43.16647" lon="2.35423">
        <ele>195.7</ele>
        <time>2022-01-23T07:50:01.000Z</time>
      </trkpt>
      <trkpt lat="43.16647" lon="2.35419">
        <ele>195.6</ele>
        <time>2022-01-23T07:50:02.000Z</time>
      </trkpt>
      <trkpt lat="43.16648" lon="2.35416">
        <ele>195.5</ele>
        <time>2022-01-23T07:50:03.000Z</time>
      </trkpt>
      <trkpt lat="43.16648" lon="2.35413">
        <ele>195.3</ele>
        <time>2022-01-23T07:50:04.000Z</time>
      </trkpt>
      <trkpt lat="43.16647" lon="2.35409">
        <ele>195.1</ele>
        <time>2022-01-23T07:50:05.000Z</time>
      </trkpt>
      <trkpt lat="43.16647" lon="2.35407">
        <ele>195</ele>
        <time>2022-01-23T07:50:06.000Z</time>
      </trkpt>
      <trkpt lat="43.16647" lon="2.35404">
        <ele>194.8</ele>
        <time>2022-01-23T07:50:07.000Z</time>
      </trkpt>
      <trkpt lat="43.16647" lon="2.35401">
        <ele>194.6</ele>
        <time>2022-01-23T07:50:08.000Z</time>
      </trkpt>
      <trkpt lat="43.16646" lon="2.35398">
        <ele>194.4</ele>
        <time>2022-01-23T07:50:09.000Z</time>
      </trkpt>
      <trkpt lat="43.16645" lon="2.35396">
        <ele>194.1</ele>
        <time>2022-01-23T07:50:10.000Z</time>
      </trkpt>
      <trkpt lat="43.16644" lon="2.35393">
        <ele>193.9</ele>
        <time>2022-01-23T07:50:11.000Z</time>
      </trkpt>
      <trkpt lat="43.16643" lon="2.3539">
        <ele>193.6</ele>
        <time>2022-01-23T07:50:12.000Z</time>
      </trkpt>
      <trkpt lat="43.16642" lon="2.35387">
        <ele>193.3</ele>
        <time>2022-01-23T07:50:13.000Z</time>
      </trkpt>
      <trkpt lat="43.16641" lon="2.35385">
        <ele>193.1</ele>
        <time>2022-01-23T07:50:14.000Z</time>
      </trkpt>
      <trkpt lat="43.16641" lon="2.35382">
        <ele>192.9</ele>
        <time>2022-01-23T07:50:15.000Z</time>
      </trkpt>
      <trkpt lat="43.16641" lon="2.35379">
        <ele>192.7</ele>
        <time>2022-01-23T07:50:16.000Z</time>
      </trkpt>
      <trkpt lat="43.16641" lon="2.35376">
        <ele>192.6</ele>
        <time>2022-01-23T07:50:17.000Z</time>
      </trkpt>
      <trkpt lat="43.16641" lon="2.35372">
        <ele>192.4</ele>
        <time>2022-01-23T07:50:18.000Z</time>
      </trkpt>
      <trkpt lat="43.16641" lon="2.35369">
        <ele>192.3</ele>
        <time>2022-01-23T07:50:19.000Z</time>
      </trkpt>
      <trkpt lat="43.16641" lon="2.35365">
        <ele>192.1</ele>
        <time>2022-01-23T07:50:20.000Z</time>
      </trkpt>
      <trkpt lat="43.16641" lon="2.35362">
        <ele>191.9</ele>
        <time>2022-01-23T07:50:21.000Z</time>
      </trkpt>
      <trkpt lat="43.16641" lon="2.35358">
        <ele>191.8</ele>
        <time>2022-01-23T07:50:22.000Z</time>
      </trkpt>
      <trkpt lat="43.16641" lon="2.35355">
        <ele>191.6</ele>
        <time>2022-01-23T07:50:23.000Z</time>
      </trkpt>
      <trkpt lat="43.16641" lon="2.35352">
        <ele>191.4</ele>
        <time>2022-01-23T07:50:24.000Z</time>
      </trkpt>
      <trkpt lat="43.1664" lon="2.35348">
        <ele>191.3</ele>
        <time>2022-01-23T07:50:25.000Z</time>
      </trkpt>
      <trkpt lat="43.1664" lon="2.35345">
        <ele>191.1</ele>
        <time>2022-01-23T07:50:26.000Z</time>
      </trkpt>
      <trkpt lat="43.1664" lon="2.35342">
        <ele>190.9</ele>
        <time>2022-01-23T07:50:27.000Z</time>
      </trkpt>
      <trkpt lat="43.1664" lon="2.35339">
        <ele>190.7</ele>
        <time>2022-01-23T07:50:28.000Z</time>
      </trkpt>
      <trkpt lat="43.16639" lon="2.35336">
        <ele>190.5</ele>
        <time>2022-01-23T07:50:29.000Z</time>
      </trkpt>
      <trkpt lat="43.16639" lon="2.35334">
        <ele>190.3</ele>
        <time>2022-01-23T07:50:30.000Z</time>
      </trkpt>
      <trkpt lat="43.16638" lon="2.35331">
        <ele>190.1</ele>
        <time>2022-01-23T07:50:31.000Z</time>
      </trkpt>
      <trkpt lat="43.16638" lon="2.35328">
        <ele>189.9</ele>
        <time>2022-01-23T07:50:32.000Z</time>
      </trkpt>
      <trkpt lat="43.16637" lon="2.35325">
        <ele>189.7</ele>
        <time>2022-01-23T07:50:33.000Z</time>
      </trkpt>
      <trkpt lat="43.16637" lon="2.35322">
        <ele>189.5</ele>
        <time>2022-01-23T07:50:34.000Z</time>
      </trkpt>
      <trkpt lat="43.16637" lon="2.35318">
        <ele>189.3</ele>
        <time>2022-01-23T07:50:35.000Z</time>
      </trkpt>
      <trkpt lat="43.16636" lon="2.35315">
        <ele>189.1</ele>
        <time>2022-01-23T07:50:36.000Z</time>
      </trkpt>
      <trkpt lat="43.16636" lon="2.35311">
        <ele>188.9</ele>
        <time>2022-01-23T07:50:37.000Z</time>
      </trkpt>
      <trkpt lat="43.16636" lon="2.35308">
        <ele>188.8</ele>
        <time>2022-01-23T07:50:38.000Z</time>
      </trkpt>
      <trkpt lat="43.16637" lon="2.35304">
        <ele>188.6</ele>
        <time>2022-01-23T07:50:39.000Z</time>
      </trkpt>
      <trkpt lat="43.16637" lon="2.353">
        <ele>188.5</ele>
        <time>2022-01-23T07:50:40.000Z</time>
      </trkpt>
      <trkpt lat="43.16638" lon="2.35297">
        <ele>188.5</ele>
        <time>2022-01-23T07:50:41.000Z</time>
      </trkpt>
      <trkpt lat="43.16639" lon="2.35294">
        <ele>188.4</ele>
        <time>2022-01-23T07:50:42.000Z</time>
      </trkpt>
      <trkpt lat="43.1664" lon="2.35291">
        <ele>188.4</ele>
        <time>2022-01-23T07:50:43.000Z</time>
      </trkpt>
      <trkpt lat="43.16641" lon="2.35288">
        <ele>188.4</ele>
        <time>2022-01-23T07:50:44.000Z</time>
      </trkpt>
      <trkpt lat="43.16643" lon="2.35286">
        <ele>188.5</ele>
        <time>2022-01-23T07:50:45.000Z</time>
      </trkpt>
      <trkpt lat="43.16645" lon="2.35283">
        <ele>188.6</ele>
        <time>2022-01-23T07:50:46.000Z</time>
      </trkpt>
      <trkpt lat="43.16646" lon="2.35281">
        <ele>188.6</ele>
        <time>2022-01-23T07:50:47.000Z</time>
      </trkpt>
      <trkpt lat="43.16647" lon="2.35278">
        <ele>188.6</ele>
        <time>2022-01-23T07:50:48.000Z</time>
      </trkpt>
      <trkpt lat="43.16648" lon="2.35275">
        <ele>188.5</ele>
        <time>2022-01-23T07:50:49.000Z</time>
      </trkpt>
      <trkpt lat="43.16649" lon="2.35272">
        <ele>188.4</ele>
        <time>2022-01-23T07:50:50.000Z</time>
      </trkpt>
      <trkpt lat="43.16649" lon="2.35269">
        <ele>188.3</ele>
        <time>2022-01-23T07:50:51.000Z</time>
      </trkpt>
      <trkpt lat="43.16649" lon="2.35267">
        <ele>188.2</ele>
        <time>2022-01-23T07:50:52.000Z</time>
      </trkpt>
      <trkpt lat="43.16649" lon="2.35264">
        <ele>188</ele>
        <time>2022-01-23T07:50:53.000Z</time>
      </trkpt>
      <trkpt lat="43.16649" lon="2.35262">
        <ele>187.9</ele>
        <time>2022-01-23T07:50:54.000Z</time>
      </trkpt>
      <trkpt lat="43.16649" lon="2.3526">
        <ele>187.8</ele>
        <time>2022-01-23T07:50:55.000Z</time>
      </trkpt>
      <trkpt lat="43.16648" lon="2.35259">
        <ele>187.7</ele>
        <time>2022-01-23T07:50:56.000Z</time>
      </trkpt>
      <trkpt lat="43.16648" lon="2.35257">
        <ele>187.6</ele>
        <time>2022-01-23T07:50:57.000Z</time>
      </trkpt>
      <trkpt lat="43.16648" lon="2.35256">
        <ele>187.5</ele>
        <time>2022-01-23T07:50:58.000Z</time>
      </trkpt>
      <trkpt lat="43.16647" lon="2.35254">
        <ele>187.4</ele>
        <time>2022-01-23T07:50:59.000Z</time>
      </trkpt>
      <trkpt lat="43.16647" lon="2.35253">
        <ele>187.3</ele>
        <time>2022-01-23T07:51:00.000Z</time>
      </trkpt>
      <trkpt lat="43.16647" lon="2.35252">
        <ele>187.2</ele>
        <time>2022-01-23T07:51:01.000Z</time>
      </trkpt>
      <trkpt lat="43.16646" lon="2.3525">
        <ele>187</ele>
        <time>2022-01-23T07:51:02.000Z</time>
      </trkpt>
      <trkpt lat="43.16646" lon="2.35249">
        <ele>186.9</ele>
        <time>2022-01-23T07:51:03.000Z</time>
      </trkpt>
      <trkpt lat="43.16645" lon="2.35247">
        <ele>186.8</ele>
        <time>2022-01-23T07:51:04.000Z</time>
      </trkpt>
      <trkpt lat="43.16645" lon="2.35246">
        <ele>186.6</ele>
        <time>2022-01-23T07:51:05.000Z</time>
      </trkpt>
      <trkpt lat="43.16645" lon="2.35244">
        <ele>186.5</ele>
        <time>2022-01-23T07:51:06.000Z</time>
      </trkpt>
      <trkpt lat="43.16644" lon="2.35243">
        <ele>186.4</ele>
        <time>2022-01-23T07:51:07.000Z</time>
      </trkpt>
      <trkpt lat="43.16644" lon="2.35242">
        <ele>186.3</ele>
        <time>2022-01-23T07:51:08.000Z</time>
      </trkpt>
      <trkpt lat="43.16644" lon="2.35241">
        <ele>186.2</ele>
        <time>2022-01-23T07:51:09.000Z</time>
      </trkpt>
      <trkpt lat="43.16644" lon="2.3524">
        <ele>186.1</ele>
        <time>2022-01-23T07:51:10.000Z</time>
      </trkpt>
      <trkpt lat="43.16644" lon="2.35239">
        <ele>186.1</ele>
        <time>2022-01-23T07:51:11.000Z</time>
      </trkpt>
      <trkpt lat="43.16644" lon="2.35239">
        <ele>186.1</ele>
        <time>2022-01-23T07:51:12.000Z</time>
      </trkpt>
      <trkpt lat="43.16644" lon="2.35238">
        <ele>186</ele>
        <time>2022-01-23T07:51:13.000Z</time>
      </trkpt>
      <trkpt lat="43.16644" lon="2.35238">
        <ele>186</ele>
        <time>2022-01-23T07:51:14.000Z</time>
      </trkpt>
      <trkpt lat="43.16644" lon="2.35238">
        <ele>186</ele>
        <time>2022-01-23T07:51:15.000Z</time>
      </trkpt>
      <trkpt lat="43.16644" lon="2.35238">
        <ele>186</ele>
        <time>2022-01-23T07:51:16.000Z</time>
      </trkpt>
      <trkpt lat="43.16644" lon="2.35238">
        <ele>186</ele>
        <time>2022-01-23T07:51:17.000Z</time>
      </trkpt>
      <trkpt lat="43.16644" lon="2.35237">
        <ele>186</ele>
        <time>2022-01-23T07:51:18.000Z</time>
      </trkpt>
      <trkpt lat="43.16644" lon="2.35237">
        <ele>186</ele>
        <time>2022-01-23T07:51:19.000Z</time>
      </trkpt>
      <trkpt lat="43.16644" lon="2.35237">
        <ele>186</ele>
        <time>2022-01-23T07:51:20.000Z</time>
      </trkpt>
      <trkpt lat="43.16644" lon="2.35237">
        <ele>186</ele>
        <time>2022-01-23T07:51:21.000Z</time>
      </trkpt>
      <trkpt lat="43.16644" lon="2.35236">
        <ele>185.9</ele>
        <time>2022-01-23T07:51:22.000Z</time>
      </trkpt>
      <trkpt lat="43.16644" lon="2.35236">
        <ele>185.9</ele>
        <time>2022-01-23T07:51:23.000Z</time>
      </trkpt>
      <trkpt lat="43.16644" lon="2.35235">
        <ele>185.9</ele>
        <time>2022-01-23T07:51:24.000Z</time>
      </trkpt>
      <trkpt lat="43.16645" lon="2.35235">
        <ele>185.9</ele>
        <time>2022-01-23T07:51:25.000Z</time>
      </trkpt>
      <trkpt lat="43.16645" lon="2.35235">
        <ele>185.9</ele>
        <time>2022-01-23T07:51:26.000Z</time>
      </trkpt>
      <trkpt lat="43.16645" lon="2.35235">
        <ele>186</ele>
        <time>2022-01-23T07:51:27.000Z</time>
      </trkpt>
      <trkpt lat="43.16646" lon="2.35235">
        <ele>186</ele>
        <time>2022-01-23T07:51:28.000Z</time>
      </trkpt>
      <trkpt lat="43.16646" lon="2.35235">
        <ele>186</ele>
        <time>2022-01-23T07:51:29.000Z</time>
      </trkpt>
      <trkpt lat="43.16646" lon="2.35235">
        <ele>186</ele>
        <time>2022-01-23T07:51:30.000Z</time>
      </trkpt>
      <trkpt lat="43.16646" lon="2.35234">
        <ele>186</ele>
        <time>2022-01-23T07:51:31.000Z</time>
      </trkpt>
      <trkpt lat="43.16647" lon="2.35234">
        <ele>186</ele>
        <time>2022-01-23T07:51:32.000Z</time>
      </trkpt>
      <trkpt lat="43.16647" lon="2.35233">
        <ele>186</ele>
        <time>2022-01-23T07:51:33.000Z</time>
      </trkpt>
      <trkpt lat="43.16647" lon="2.35232">
        <ele>185.9</ele>
        <time>2022-01-23T07:51:34.000Z</time>
      </trkpt>
      <trkpt lat="43.16648" lon="2.3523">
        <ele>185.9</ele>
        <time>2022-01-23T07:51:35.000Z</time>
      </trkpt>
      <trkpt lat="43.16648" lon="2.35228">
        <ele>185.8</ele>
        <time>2022-01-23T07:51:36.000Z</time>
      </trkpt>
      <trkpt lat="43.16648" lon="2.35226">
        <ele>185.6</ele>
        <time>2022-01-23T07:51:37.000Z</time>
      </trkpt>
      <trkpt lat="43.16649" lon="2.35224">
        <ele>185.5</ele>
        <time>2022-01-23T07:51:38.000Z</time>
      </trkpt>
      <trkpt lat="43.16649" lon="2.35221">
        <ele>185.4</ele>
        <time>2022-01-23T07:51:39.000Z</time>
      </trkpt>
      <trkpt lat="43.16649" lon="2.35218">
        <ele>185.2</ele>
        <time>2022-01-23T07:51:40.000Z</time>
      </trkpt>
      <trkpt lat="43.1665" lon="2.35215">
        <ele>185</ele>
        <time>2022-01-23T07:51:41.000Z</time>
      </trkpt>
      <trkpt lat="43.1665" lon="2.35212">
        <ele>184.8</ele>
        <time>2022-01-23T07:51:42.000Z</time>
      </trkpt>
      <trkpt lat="43.1665" lon="2.35209">
        <ele>184.6</ele>
        <time>2022-01-23T07:51:43.000Z</time>
      </trkpt>
      <trkpt lat="43.1665" lon="2.35206">
        <ele>184.4</ele>
        <time>2022-01-23T07:51:44.000Z</time>
      </trkpt>
      <trkpt lat="43.16651" lon="2.35202">
        <ele>184.3</ele>
        <time>2022-01-23T07:51:45.000Z</time>
      </trkpt>
      <trkpt lat="43.16651" lon="2.35199">
        <ele>184.1</ele>
        <time>2022-01-23T07:51:46.000Z</time>
      </trkpt>
      <trkpt lat="43.16651" lon="2.35196">
        <ele>183.9</ele>
        <time>2022-01-23T07:51:47.000Z</time>
      </trkpt>
      <trkpt lat="43.16652" lon="2.35193">
        <ele>183.7</ele>
        <time>2022-01-23T07:51:48.000Z</time>
      </trkpt>
      <trkpt lat="43.16652" lon="2.35189">
        <ele>183.5</ele>
        <time>2022-01-23T07:51:49.000Z</time>
      </trkpt>
      <trkpt lat="43.16652" lon="2.35186">
        <ele>183.3</ele>
        <time>2022-01-23T07:51:50.000Z</time>
      </trkpt>
      <trkpt lat="43.16652" lon="2.35183">
        <ele>183.1</ele>
        <time>2022-01-23T07:51:51.000Z</time>
      </trkpt>
      <trkpt lat="43.16653" lon="2.35179">
        <ele>182.9</ele>
        <time>2022-01-23T07:51:52.000Z</time>
      </trkpt>
      <trkpt lat="43.16653" lon="2.35176">
        <ele>182.6</ele>
        <time>2022-01-23T07:51:53.000Z</time>
      </trkpt>
      <trkpt lat="43.16653" lon="2.35173">
        <ele>182.4</ele>
        <time>2022-01-23T07:51:54.000Z</time>
      </trkpt>
      <trkpt lat="43.16653" lon="2.35169">
        <ele>182.2</ele>
        <time>2022-01-23T07:51:55.000Z</time>
      </trkpt>
      <trkpt lat="43.16654" lon="2.35166">
        <ele>182</ele>
        <time>2022-01-23T07:51:56.000Z</time>
      </trkpt>
      <trkpt lat="43.16654" lon="2.35162">
        <ele>181.9</ele>
        <time>2022-01-23T07:51:57.000Z</time>
      </trkpt>
      <trkpt lat="43.16654" lon="2.35159">
        <ele>181.8</ele>
        <time>2022-01-23T07:51:58.000Z</time>
      </trkpt>
      <trkpt lat="43.16655" lon="2.35155">
        <ele>181.7</ele>
        <time>2022-01-23T07:51:59.000Z</time>
      </trkpt>
      <trkpt lat="43.16655" lon="2.35152">
        <ele>181.5</ele>
        <time>2022-01-23T07:52:00.000Z</time>
      </trkpt>
      <trkpt lat="43.16655" lon="2.35148">
        <ele>181.4</ele>
        <time>2022-01-23T07:52:01.000Z</time>
      </trkpt>
      <trkpt lat="43.16656" lon="2.35145">
        <ele>181.3</ele>
        <time>2022-01-23T07:52:02.000Z</time>
      </trkpt>
      <trkpt lat="43.16656" lon="2.35141">
        <ele>181.1</ele>
        <time>2022-01-23T07:52:03.000Z</time>
      </trkpt>
      <trkpt lat="43.16657" lon="2.35138">
        <ele>181</ele>
        <time>2022-01-23T07:52:04.000Z</time>
      </trkpt>
      <trkpt lat="43.16657" lon="2.35134">
        <ele>180.9</ele>
        <time>2022-01-23T07:52:05.000Z</time>
      </trkpt>
      <trkpt lat="43.16657" lon="2.3513">
        <ele>180.7</ele>
        <time>2022-01-23T07:52:06.000Z</time>
      </trkpt>
      <trkpt lat="43.16658" lon="2.35127">
        <ele>180.6</ele>
        <time>2022-01-23T07:52:07.000Z</time>
      </trkpt>
      <trkpt lat="43.16659" lon="2.35123">
        <ele>180.5</ele>
        <time>2022-01-23T07:52:08.000Z</time>
      </trkpt>
      <trkpt lat="43.16659" lon="2.3512">
        <ele>180.3</ele>
        <time>2022-01-23T07:52:09.000Z</time>
      </trkpt>
      <trkpt lat="43.1666" lon="2.35116">
        <ele>180.2</ele>
        <time>2022-01-23T07:52:10.000Z</time>
      </trkpt>
      <trkpt lat="43.1666" lon="2.35112">
        <ele>180.1</ele>
        <time>2022-01-23T07:52:11.000Z</time>
      </trkpt>
      <trkpt lat="43.16661" lon="2.35109">
        <ele>180</ele>
        <time>2022-01-23T07:52:12.000Z</time>
      </trkpt>
      <trkpt lat="43.16662" lon="2.35105">
        <ele>179.8</ele>
        <time>2022-01-23T07:52:13.000Z</time>
      </trkpt>
      <trkpt lat="43.16662" lon="2.35102">
        <ele>179.7</ele>
        <time>2022-01-23T07:52:14.000Z</time>
      </trkpt>
      <trkpt lat="43.16663" lon="2.35098">
        <ele>179.6</ele>
        <time>2022-01-23T07:52:15.000Z</time>
      </trkpt>
      <trkpt lat="43.16664" lon="2.35095">
        <ele>179.5</ele>
        <time>2022-01-23T07:52:16.000Z</time>
      </trkpt>
      <trkpt lat="43.16665" lon="2.35092">
        <ele>179.3</ele>
        <time>2022-01-23T07:52:17.000Z</time>
      </trkpt>
      <trkpt lat="43.16666" lon="2.35088">
        <ele>179.2</ele>
        <time>2022-01-23T07:52:18.000Z</time>
      </trkpt>
      <trkpt lat="43.16667" lon="2.35085">
        <ele>179.1</ele>
        <time>2022-01-23T07:52:19.000Z</time>
      </trkpt>
      <trkpt lat="43.16668" lon="2.35082">
        <ele>179</ele>
        <time>2022-01-23T07:52:20.000Z</time>
      </trkpt>
      <trkpt lat="43.16669" lon="2.35079">
        <ele>178.9</ele>
        <time>2022-01-23T07:52:21.000Z</time>
      </trkpt>
      <trkpt lat="43.1667" lon="2.35076">
        <ele>178.8</ele>
        <time>2022-01-23T07:52:22.000Z</time>
      </trkpt>
      <trkpt lat="43.16672" lon="2.35073">
        <ele>178.7</ele>
        <time>2022-01-23T07:52:23.000Z</time>
      </trkpt>
      <trkpt lat="43.16673" lon="2.3507">
        <ele>178.6</ele>
        <time>2022-01-23T07:52:24.000Z</time>
      </trkpt>
      <trkpt lat="43.16674" lon="2.35067">
        <ele>178.5</ele>
        <time>2022-01-23T07:52:25.000Z</time>
      </trkpt>
      <trkpt lat="43.16675" lon="2.35064">
        <ele>178.4</ele>
        <time>2022-01-23T07:52:26.000Z</time>
      </trkpt>
      <trkpt lat="43.16677" lon="2.35061">
        <ele>178.3</ele>
        <time>2022-01-23T07:52:27.000Z</time>
      </trkpt>
      <trkpt lat="43.16678" lon="2.35058">
        <ele>178.2</ele>
        <time>2022-01-23T07:52:28.000Z</time>
      </trkpt>
      <trkpt lat="43.16679" lon="2.35055">
        <ele>178.1</ele>
        <time>2022-01-23T07:52:29.000Z</time>
      </trkpt>
      <trkpt lat="43.1668" lon="2.35052">
        <ele>178</ele>
        <time>2022-01-23T07:52:30.000Z</time>
      </trkpt>
      <trkpt lat="43.16681" lon="2.35049">
        <ele>177.9</ele>
        <time>2022-01-23T07:52:31.000Z</time>
      </trkpt>
      <trkpt lat="43.16683" lon="2.35046">
        <ele>177.9</ele>
        <time>2022-01-23T07:52:32.000Z</time>
      </trkpt>
      <trkpt lat="43.16684" lon="2.35042">
        <ele>177.8</ele>
        <time>2022-01-23T07:52:33.000Z</time>
      </trkpt>
      <trkpt lat="43.16685" lon="2.35039">
        <ele>177.7</ele>
        <time>2022-01-23T07:52:34.000Z</time>
      </trkpt>
      <trkpt lat="43.16686" lon="2.35036">
        <ele>177.6</ele>
        <time>2022-01-23T07:52:35.000Z</time>
      </trkpt>
      <trkpt lat="43.16687" lon="2.35033">
        <ele>177.5</ele>
        <time>2022-01-23T07:52:36.000Z</time>
      </trkpt>
      <trkpt lat="43.16688" lon="2.35029">
        <ele>177.3</ele>
        <time>2022-01-23T07:52:37.000Z</time>
      </trkpt>
      <trkpt lat="43.16689" lon="2.35026">
        <ele>177.2</ele>
        <time>2022-01-23T07:52:38.000Z</time>
      </trkpt>
      <trkpt lat="43.16689" lon="2.35022">
        <ele>177.1</ele>
        <time>2022-01-23T07:52:39.000Z</time>
      </trkpt>
      <trkpt lat="43.1669" lon="2.35019">
        <ele>177</ele>
        <time>2022-01-23T07:52:40.000Z</time>
      </trkpt>
      <trkpt lat="43.16691" lon="2.35015">
        <ele>176.8</ele>
        <time>2022-01-23T07:52:41.000Z</time>
      </trkpt>
      <trkpt lat="43.16691" lon="2.35011">
        <ele>176.7</ele>
        <time>2022-01-23T07:52:42.000Z</time>
      </trkpt>
      <trkpt lat="43.16692" lon="2.35008">
        <ele>176.5</ele>
        <time>2022-01-23T07:52:43.000Z</time>
      </trkpt>
      <trkpt lat="43.16692" lon="2.35004">
        <ele>176.3</ele>
        <time>2022-01-23T07:52:44.000Z</time>
      </trkpt>
      <trkpt lat="43.16692" lon="2.35">
        <ele>176.2</ele>
        <time>2022-01-23T07:52:45.000Z</time>
      </trkpt>
      <trkpt lat="43.16692" lon="2.34997">
        <ele>175.9</ele>
        <time>2022-01-23T07:52:46.000Z</time>
      </trkpt>
      <trkpt lat="43.16692" lon="2.34993">
        <ele>175.6</ele>
        <time>2022-01-23T07:52:47.000Z</time>
      </trkpt>
      <trkpt lat="43.16692" lon="2.34989">
        <ele>175.3</ele>
        <time>2022-01-23T07:52:48.000Z</time>
      </trkpt>
      <trkpt lat="43.16692" lon="2.34986">
        <ele>175</ele>
        <time>2022-01-23T07:52:49.000Z</time>
      </trkpt>
      <trkpt lat="43.16692" lon="2.34982">
        <ele>174.7</ele>
        <time>2022-01-23T07:52:50.000Z</time>
      </trkpt>
      <trkpt lat="43.16691" lon="2.34978">
        <ele>174.3</ele>
        <time>2022-01-23T07:52:51.000Z</time>
      </trkpt>
      <trkpt lat="43.16691" lon="2.34975">
        <ele>174</ele>
        <time>2022-01-23T07:52:52.000Z</time>
      </trkpt>
      <trkpt lat="43.1669" lon="2.34971">
        <ele>173.7</ele>
        <time>2022-01-23T07:52:53.000Z</time>
      </trkpt>
      <trkpt lat="43.16689" lon="2.34968">
        <ele>173.4</ele>
        <time>2022-01-23T07:52:54.000Z</time>
      </trkpt>
      <trkpt lat="43.16688" lon="2.34964">
        <ele>173</ele>
        <time>2022-01-23T07:52:55.000Z</time>
      </trkpt>
      <trkpt lat="43.16687" lon="2.34961">
        <ele>172.7</ele>
        <time>2022-01-23T07:52:56.000Z</time>
      </trkpt>
      <trkpt lat="43.16687" lon="2.34958">
        <ele>172.4</ele>
        <time>2022-01-23T07:52:57.000Z</time>
      </trkpt>
      <trkpt lat="43.16686" lon="2.34955">
        <ele>172.1</ele>
        <time>2022-01-23T07:52:58.000Z</time>
      </trkpt>
      <trkpt lat="43.16686" lon="2.34951">
        <ele>171.8</ele>
        <time>2022-01-23T07:52:59.000Z</time>
      </trkpt>
      <trkpt lat="43.16686" lon="2.34948">
        <ele>171.6</ele>
        <time>2022-01-23T07:53:00.000Z</time>
      </trkpt>
      <trkpt lat="43.16685" lon="2.34945">
        <ele>171.3</ele>
        <time>2022-01-23T07:53:01.000Z</time>
      </trkpt>
      <trkpt lat="43.16686" lon="2.34942">
        <ele>171.1</ele>
        <time>2022-01-23T07:53:02.000Z</time>
      </trkpt>
      <trkpt lat="43.16686" lon="2.34938">
        <ele>170.8</ele>
        <time>2022-01-23T07:53:03.000Z</time>
      </trkpt>
      <trkpt lat="43.16686" lon="2.34935">
        <ele>170.6</ele>
        <time>2022-01-23T07:53:04.000Z</time>
      </trkpt>
      <trkpt lat="43.16687" lon="2.34931">
        <ele>170.3</ele>
        <time>2022-01-23T07:53:05.000Z</time>
      </trkpt>
      <trkpt lat="43.16687" lon="2.34927">
        <ele>170</ele>
        <time>2022-01-23T07:53:06.000Z</time>
      </trkpt>
      <trkpt lat="43.16688" lon="2.34924">
        <ele>169.8</ele>
        <time>2022-01-23T07:53:07.000Z</time>
      </trkpt>
      <trkpt lat="43.16688" lon="2.3492">
        <ele>169.5</ele>
        <time>2022-01-23T07:53:08.000Z</time>
      </trkpt>
      <trkpt lat="43.16688" lon="2.34916">
        <ele>169.3</ele>
        <time>2022-01-23T07:53:09.000Z</time>
      </trkpt>
      <trkpt lat="43.16689" lon="2.34912">
        <ele>169.1</ele>
        <time>2022-01-23T07:53:10.000Z</time>
      </trkpt>
      <trkpt lat="43.16689" lon="2.34909">
        <ele>168.9</ele>
        <time>2022-01-23T07:53:11.000Z</time>
      </trkpt>
      <trkpt lat="43.16689" lon="2.34905">
        <ele>168.7</ele>
        <time>2022-01-23T07:53:12.000Z</time>
      </trkpt>
      <trkpt lat="43.16689" lon="2.34901">
        <ele>168.5</ele>
        <time>2022-01-23T07:53:13.000Z</time>
      </trkpt>
      <trkpt lat="43.16689" lon="2.34898">
        <ele>168.3</ele>
        <time>2022-01-23T07:53:14.000Z</time>
      </trkpt>
      <trkpt lat="43.16689" lon="2.34894">
        <ele>168.1</ele>
        <time>2022-01-23T07:53:15.000Z</time>
      </trkpt>
      <trkpt lat="43.1669" lon="2.34891">
        <ele>167.9</ele>
        <time>2022-01-23T07:53:16.000Z</time>
      </trkpt>
      <trkpt lat="43.1669" lon="2.34888">
        <ele>167.7</ele>
        <time>2022-01-23T07:53:17.000Z</time>
      </trkpt>
      <trkpt lat="43.1669" lon="2.34884">
        <ele>167.5</ele>
        <time>2022-01-23T07:53:18.000Z</time>
      </trkpt>
      <trkpt lat="43.16691" lon="2.34881">
        <ele>167.4</ele>
        <time>2022-01-23T07:53:19.000Z</time>
      </trkpt>
      <trkpt lat="43.16691" lon="2.34878">
        <ele>167.2</ele>
        <time>2022-01-23T07:53:20.000Z</time>
      </trkpt>
      <trkpt lat="43.16692" lon="2.34875">
        <ele>167</ele>
        <time>2022-01-23T07:53:21.000Z</time>
      </trkpt>
      <trkpt lat="43.16692" lon="2.34872">
        <ele>166.9</ele>
        <time>2022-01-23T07:53:22.000Z</time>
      </trkpt>
      <trkpt lat="43.16692" lon="2.34869">
        <ele>166.7</ele>
        <time>2022-01-23T07:53:23.000Z</time>
      </trkpt>
      <trkpt lat="43.16692" lon="2.34866">
        <ele>166.5</ele>
        <time>2022-01-23T07:53:24.000Z</time>
      </trkpt>
      <trkpt lat="43.16692" lon="2.34863">
        <ele>166.3</ele>
        <time>2022-01-23T07:53:25.000Z</time>
      </trkpt>
      <trkpt lat="43.16691" lon="2.34861">
        <ele>166.2</ele>
        <time>2022-01-23T07:53:26.000Z</time>
      </trkpt>
      <trkpt lat="43.16689" lon="2.34859">
        <ele>166</ele>
        <time>2022-01-23T07:53:27.000Z</time>
      </trkpt>
      <trkpt lat="43.16687" lon="2.34858">
        <ele>165.9</ele>
        <time>2022-01-23T07:53:28.000Z</time>
      </trkpt>
      <trkpt lat="43.16685" lon="2.34857">
        <ele>165.8</ele>
        <time>2022-01-23T07:53:29.000Z</time>
      </trkpt>
      <trkpt lat="43.16682" lon="2.34857">
        <ele>165.6</ele>
        <time>2022-01-23T07:53:30.000Z</time>
      </trkpt>
      <trkpt lat="43.16679" lon="2.34857">
        <ele>165.5</ele>
        <time>2022-01-23T07:53:31.000Z</time>
      </trkpt>
      <trkpt lat="43.16676" lon="2.34857">
        <ele>165.4</ele>
        <time>2022-01-23T07:53:32.000Z</time>
      </trkpt>
      <trkpt lat="43.16673" lon="2.34857">
        <ele>165.4</ele>
        <time>2022-01-23T07:53:33.000Z</time>
      </trkpt>
      <trkpt lat="43.1667" lon="2.34857">
        <ele>165.3</ele>
        <time>2022-01-23T07:53:34.000Z</time>
      </trkpt>
      <trkpt lat="43.16667" lon="2.34858">
        <ele>165.2</ele>
        <time>2022-01-23T07:53:35.000Z</time>
      </trkpt>
      <trkpt lat="43.16664" lon="2.34858">
        <ele>165.5</ele>
        <time>2022-01-23T07:53:36.000Z</time>
      </trkpt>
      <trkpt lat="43.16661" lon="2.34858">
        <ele>165.8</ele>
        <time>2022-01-23T07:53:37.000Z</time>
      </trkpt>
      <trkpt lat="43.16658" lon="2.34858">
        <ele>166.2</ele>
        <time>2022-01-23T07:53:38.000Z</time>
      </trkpt>
      <trkpt lat="43.16656" lon="2.34858">
        <ele>166.5</ele>
        <time>2022-01-23T07:53:39.000Z</time>
      </trkpt>
      <trkpt lat="43.16653" lon="2.34858">
        <ele>166.7</ele>
        <time>2022-01-23T07:53:40.000Z</time>
      </trkpt>
      <trkpt lat="43.16651" lon="2.34858">
        <ele>167</ele>
        <time>2022-01-23T07:53:41.000Z</time>
      </trkpt>
      <trkpt lat="43.16649" lon="2.34857">
        <ele>167.2</ele>
        <time>2022-01-23T07:53:42.000Z</time>
      </trkpt>
      <trkpt lat="43.16647" lon="2.34857">
        <ele>167.4</ele>
        <time>2022-01-23T07:53:43.000Z</time>
      </trkpt>
      <trkpt lat="43.16644" lon="2.34856">
        <ele>167.6</ele>
        <time>2022-01-23T07:53:44.000Z</time>
      </trkpt>
      <trkpt lat="43.16642" lon="2.34855">
        <ele>167.8</ele>
        <time>2022-01-23T07:53:45.000Z</time>
      </trkpt>
      <trkpt lat="43.1664" lon="2.34854">
        <ele>168</ele>
        <time>2022-01-23T07:53:46.000Z</time>
      </trkpt>
      <trkpt lat="43.16638" lon="2.34853">
        <ele>168.2</ele>
        <time>2022-01-23T07:53:47.000Z</time>
      </trkpt>
      <trkpt lat="43.16636" lon="2.34852">
        <ele>168.4</ele>
        <time>2022-01-23T07:53:48.000Z</time>
      </trkpt>
      <trkpt lat="43.16634" lon="2.34851">
        <ele>168.5</ele>
        <time>2022-01-23T07:53:49.000Z</time>
      </trkpt>
      <trkpt lat="43.16632" lon="2.3485">
        <ele>168.7</ele>
        <time>2022-01-23T07:53:50.000Z</time>
      </trkpt>
      <trkpt lat="43.1663" lon="2.34848">
        <ele>168.9</ele>
        <time>2022-01-23T07:53:51.000Z</time>
      </trkpt>
      <trkpt lat="43.16628" lon="2.34847">
        <ele>169</ele>
        <time>2022-01-23T07:53:52.000Z</time>
      </trkpt>
      <trkpt lat="43.16626" lon="2.34846">
        <ele>169.1</ele>
        <time>2022-01-23T07:53:53.000Z</time>
      </trkpt>
      <trkpt lat="43.16624" lon="2.34844">
        <ele>169.3</ele>
        <time>2022-01-23T07:53:54.000Z</time>
      </trkpt>
      <trkpt lat="43.16622" lon="2.34843">
        <ele>169.4</ele>
        <time>2022-01-23T07:53:55.000Z</time>
      </trkpt>
      <trkpt lat="43.1662" lon="2.34842">
        <ele>169.5</ele>
        <time>2022-01-23T07:53:56.000Z</time>
      </trkpt>
      <trkpt lat="43.16619" lon="2.3484">
        <ele>169.6</ele>
        <time>2022-01-23T07:53:57.000Z</time>
      </trkpt>
      <trkpt lat="43.16617" lon="2.34839">
        <ele>169.7</ele>
        <time>2022-01-23T07:53:58.000Z</time>
      </trkpt>
      <trkpt lat="43.16615" lon="2.34837">
        <ele>169.8</ele>
        <time>2022-01-23T07:53:59.000Z</time>
      </trkpt>
      <trkpt lat="43.16613" lon="2.34836">
        <ele>170</ele>
        <time>2022-01-23T07:54:00.000Z</time>
      </trkpt>
      <trkpt lat="43.16611" lon="2.34834">
        <ele>170</ele>
        <time>2022-01-23T07:54:01.000Z</time>
      </trkpt>
      <trkpt lat="43.16609" lon="2.34832">
        <ele>170.2</ele>
        <time>2022-01-23T07:54:02.000Z</time>
      </trkpt>
      <trkpt lat="43.16607" lon="2.3483">
        <ele>170.4</ele>
        <time>2022-01-23T07:54:03.000Z</time>
      </trkpt>
      <trkpt lat="43.16605" lon="2.34828">
        <ele>170.6</ele>
        <time>2022-01-23T07:54:04.000Z</time>
      </trkpt>
      <trkpt lat="43.16603" lon="2.34826">
        <ele>170.8</ele>
        <time>2022-01-23T07:54:05.000Z</time>
      </trkpt>
      <trkpt lat="43.16601" lon="2.34824">
        <ele>171</ele>
        <time>2022-01-23T07:54:06.000Z</time>
      </trkpt>
      <trkpt lat="43.16599" lon="2.34822">
        <ele>171.2</ele>
        <time>2022-01-23T07:54:07.000Z</time>
      </trkpt>
      <trkpt lat="43.16597" lon="2.3482">
        <ele>171.4</ele>
        <time>2022-01-23T07:54:08.000Z</time>
      </trkpt>
      <trkpt lat="43.16595" lon="2.34818">
        <ele>171.6</ele>
        <time>2022-01-23T07:54:09.000Z</time>
      </trkpt>
      <trkpt lat="43.16593" lon="2.34816">
        <ele>171.8</ele>
        <time>2022-01-23T07:54:10.000Z</time>
      </trkpt>
      <trkpt lat="43.16591" lon="2.34814">
        <ele>172</ele>
        <time>2022-01-23T07:54:11.000Z</time>
      </trkpt>
      <trkpt lat="43.16589" lon="2.34812">
        <ele>172.1</ele>
        <time>2022-01-23T07:54:12.000Z</time>
      </trkpt>
      <trkpt lat="43.16587" lon="2.3481">
        <ele>172.3</ele>
        <time>2022-01-23T07:54:13.000Z</time>
      </trkpt>
      <trkpt lat="43.16585" lon="2.34808">
        <ele>172.5</ele>
        <time>2022-01-23T07:54:14.000Z</time>
      </trkpt>
      <trkpt lat="43.16583" lon="2.34807">
        <ele>172.7</ele>
        <time>2022-01-23T07:54:15.000Z</time>
      </trkpt>
      <trkpt lat="43.16581" lon="2.34805">
        <ele>173</ele>
        <time>2022-01-23T07:54:16.000Z</time>
      </trkpt>
      <trkpt lat="43.16579" lon="2.34803">
        <ele>173.2</ele>
        <time>2022-01-23T07:54:17.000Z</time>
      </trkpt>
      <trkpt lat="43.16577" lon="2.34802">
        <ele>173.5</ele>
        <time>2022-01-23T07:54:18.000Z</time>
      </trkpt>
      <trkpt lat="43.16575" lon="2.34801">
        <ele>173.8</ele>
        <time>2022-01-23T07:54:19.000Z</time>
      </trkpt>
      <trkpt lat="43.16573" lon="2.34799">
        <ele>174</ele>
        <time>2022-01-23T07:54:20.000Z</time>
      </trkpt>
      <trkpt lat="43.16571" lon="2.34798">
        <ele>174.3</ele>
        <time>2022-01-23T07:54:21.000Z</time>
      </trkpt>
      <trkpt lat="43.16569" lon="2.34797">
        <ele>174.6</ele>
        <time>2022-01-23T07:54:22.000Z</time>
      </trkpt>
      <trkpt lat="43.16567" lon="2.34796">
        <ele>174.9</ele>
        <time>2022-01-23T07:54:23.000Z</time>
      </trkpt>
      <trkpt lat="43.16565" lon="2.34796">
        <ele>175.1</ele>
        <time>2022-01-23T07:54:24.000Z</time>
      </trkpt>
      <trkpt lat="43.16563" lon="2.34795">
        <ele>175.4</ele>
        <time>2022-01-23T07:54:25.000Z</time>
      </trkpt>
      <trkpt lat="43.16561" lon="2.34795">
        <ele>175.7</ele>
        <time>2022-01-23T07:54:26.000Z</time>
      </trkpt>
      <trkpt lat="43.1656" lon="2.34794">
        <ele>175.9</ele>
        <time>2022-01-23T07:54:27.000Z</time>
      </trkpt>
      <trkpt lat="43.16558" lon="2.34794">
        <ele>176.2</ele>
        <time>2022-01-23T07:54:28.000Z</time>
      </trkpt>
      <trkpt lat="43.16556" lon="2.34794">
        <ele>176.4</ele>
        <time>2022-01-23T07:54:29.000Z</time>
      </trkpt>
      <trkpt lat="43.16554" lon="2.34794">
        <ele>176.7</ele>
        <time>2022-01-23T07:54:30.000Z</time>
      </trkpt>
      <trkpt lat="43.16553" lon="2.34794">
        <ele>176.9</ele>
        <time>2022-01-23T07:54:31.000Z</time>
      </trkpt>
      <trkpt lat="43.16551" lon="2.34795">
        <ele>177.2</ele>
        <time>2022-01-23T07:54:32.000Z</time>
      </trkpt>
      <trkpt lat="43.16549" lon="2.34795">
        <ele>177.4</ele>
        <time>2022-01-23T07:54:33.000Z</time>
      </trkpt>
      <trkpt lat="43.16547" lon="2.34796">
        <ele>177.7</ele>
        <time>2022-01-23T07:54:34.000Z</time>
      </trkpt>
      <trkpt lat="43.16545" lon="2.34797">
        <ele>177.9</ele>
        <time>2022-01-23T07:54:35.000Z</time>
      </trkpt>
      <trkpt lat="43.16544" lon="2.34798">
        <ele>178.2</ele>
        <time>2022-01-23T07:54:36.000Z</time>
      </trkpt>
      <trkpt lat="43.16542" lon="2.34799">
        <ele>178.4</ele>
        <time>2022-01-23T07:54:37.000Z</time>
      </trkpt>
      <trkpt lat="43.1654" lon="2.348">
        <ele>178.7</ele>
        <time>2022-01-23T07:54:38.000Z</time>
      </trkpt>
      <trkpt lat="43.16538" lon="2.34801">
        <ele>178.9</ele>
        <time>2022-01-23T07:54:39.000Z</time>
      </trkpt>
      <trkpt lat="43.16536" lon="2.34802">
        <ele>179.2</ele>
        <time>2022-01-23T07:54:40.000Z</time>
      </trkpt>
      <trkpt lat="43.16534" lon="2.34804">
        <ele>179.4</ele>
        <time>2022-01-23T07:54:41.000Z</time>
      </trkpt>
      <trkpt lat="43.16532" lon="2.34805">
        <ele>179.7</ele>
        <time>2022-01-23T07:54:42.000Z</time>
      </trkpt>
      <trkpt lat="43.1653" lon="2.34806">
        <ele>179.9</ele>
        <time>2022-01-23T07:54:43.000Z</time>
      </trkpt>
      <trkpt lat="43.16528" lon="2.34807">
        <ele>180.2</ele>
        <time>2022-01-23T07:54:44.000Z</time>
      </trkpt>
      <trkpt lat="43.16526" lon="2.34808">
        <ele>180.5</ele>
        <time>2022-01-23T07:54:45.000Z</time>
      </trkpt>
      <trkpt lat="43.16523" lon="2.34809">
        <ele>180.7</ele>
        <time>2022-01-23T07:54:46.000Z</time>
      </trkpt>
      <trkpt lat="43.16521" lon="2.3481">
        <ele>181</ele>
        <time>2022-01-23T07:54:47.000Z</time>
      </trkpt>
      <trkpt lat="43.16519" lon="2.34811">
        <ele>181.3</ele>
        <time>2022-01-23T07:54:48.000Z</time>
      </trkpt>
      <trkpt lat="43.16517" lon="2.34812">
        <ele>181.5</ele>
        <time>2022-01-23T07:54:49.000Z</time>
      </trkpt>
      <trkpt lat="43.16515" lon="2.34813">
        <ele>181.8</ele>
        <time>2022-01-23T07:54:50.000Z</time>
      </trkpt>
      <trkpt lat="43.16512" lon="2.34813">
        <ele>182.1</ele>
        <time>2022-01-23T07:54:51.000Z</time>
      </trkpt>
      <trkpt lat="43.1651" lon="2.34814">
        <ele>182.4</ele>
        <time>2022-01-23T07:54:52.000Z</time>
      </trkpt>
      <trkpt lat="43.16508" lon="2.34815">
        <ele>182.6</ele>
        <time>2022-01-23T07:54:53.000Z</time>
      </trkpt>
      <trkpt lat="43.16506" lon="2.34816">
        <ele>182.9</ele>
        <time>2022-01-23T07:54:54.000Z</time>
      </trkpt>
      <trkpt lat="43.16504" lon="2.34817">
        <ele>183.1</ele>
        <time>2022-01-23T07:54:55.000Z</time>
      </trkpt>
      <trkpt lat="43.16502" lon="2.34818">
        <ele>183.4</ele>
        <time>2022-01-23T07:54:56.000Z</time>
      </trkpt>
      <trkpt lat="43.16499" lon="2.34819">
        <ele>183.5</ele>
        <time>2022-01-23T07:54:57.000Z</time>
      </trkpt>
      <trkpt lat="43.16497" lon="2.3482">
        <ele>183.6</ele>
        <time>2022-01-23T07:54:58.000Z</time>
      </trkpt>
      <trkpt lat="43.16495" lon="2.34821">
        <ele>183.6</ele>
        <time>2022-01-23T07:54:59.000Z</time>
      </trkpt>
      <trkpt lat="43.16493" lon="2.34822">
        <ele>183.7</ele>
        <time>2022-01-23T07:55:00.000Z</time>
      </trkpt>
      <trkpt lat="43.16491" lon="2.34824">
        <ele>183.7</ele>
        <time>2022-01-23T07:55:01.000Z</time>
      </trkpt>
      <trkpt lat="43.16489" lon="2.34825">
        <ele>183.8</ele>
        <time>2022-01-23T07:55:02.000Z</time>
      </trkpt>
      <trkpt lat="43.16487" lon="2.34826">
        <ele>183.8</ele>
        <time>2022-01-23T07:55:03.000Z</time>
      </trkpt>
      <trkpt lat="43.16485" lon="2.34827">
        <ele>183.9</ele>
        <time>2022-01-23T07:55:04.000Z</time>
      </trkpt>
      <trkpt lat="43.16482" lon="2.34828">
        <ele>184</ele>
        <time>2022-01-23T07:55:05.000Z</time>
      </trkpt>
      <trkpt lat="43.1648" lon="2.34829">
        <ele>184</ele>
        <time>2022-01-23T07:55:06.000Z</time>
      </trkpt>
      <trkpt lat="43.16478" lon="2.34831">
        <ele>184.1</ele>
        <time>2022-01-23T07:55:07.000Z</time>
      </trkpt>
      <trkpt lat="43.16476" lon="2.34832">
        <ele>184.2</ele>
        <time>2022-01-23T07:55:08.000Z</time>
      </trkpt>
      <trkpt lat="43.16474" lon="2.34833">
        <ele>184.3</ele>
        <time>2022-01-23T07:55:09.000Z</time>
      </trkpt>
      <trkpt lat="43.16472" lon="2.34834">
        <ele>184.4</ele>
        <time>2022-01-23T07:55:10.000Z</time>
      </trkpt>
      <trkpt lat="43.1647" lon="2.34835">
        <ele>184.5</ele>
        <time>2022-01-23T07:55:11.000Z</time>
      </trkpt>
      <trkpt lat="43.16468" lon="2.34836">
        <ele>184.6</ele>
        <time>2022-01-23T07:55:12.000Z</time>
      </trkpt>
      <trkpt lat="43.16466" lon="2.34837">
        <ele>184.7</ele>
        <time>2022-01-23T07:55:13.000Z</time>
      </trkpt>
      <trkpt lat="43.16464" lon="2.34838">
        <ele>184.8</ele>
        <time>2022-01-23T07:55:14.000Z</time>
      </trkpt>
      <trkpt lat="43.16462" lon="2.3484">
        <ele>184.9</ele>
        <time>2022-01-23T07:55:15.000Z</time>
      </trkpt>
      <trkpt lat="43.1646" lon="2.34841">
        <ele>185</ele>
        <time>2022-01-23T07:55:16.000Z</time>
      </trkpt>
      <trkpt lat="43.16458" lon="2.34842">
        <ele>185.1</ele>
        <time>2022-01-23T07:55:17.000Z</time>
      </trkpt>
      <trkpt lat="43.16456" lon="2.34843">
        <ele>185.2</ele>
        <time>2022-01-23T07:55:18.000Z</time>
      </trkpt>
      <trkpt lat="43.16454" lon="2.34844">
        <ele>185.4</ele>
        <time>2022-01-23T07:55:19.000Z</time>
      </trkpt>
      <trkpt lat="43.16452" lon="2.34845">
        <ele>185.5</ele>
        <time>2022-01-23T07:55:20.000Z</time>
      </trkpt>
      <trkpt lat="43.1645" lon="2.34846">
        <ele>185.6</ele>
        <time>2022-01-23T07:55:21.000Z</time>
      </trkpt>
      <trkpt lat="43.16448" lon="2.34847">
        <ele>185.7</ele>
        <time>2022-01-23T07:55:22.000Z</time>
      </trkpt>
      <trkpt lat="43.16446" lon="2.34848">
        <ele>185.8</ele>
        <time>2022-01-23T07:55:23.000Z</time>
      </trkpt>
      <trkpt lat="43.16444" lon="2.34849">
        <ele>185.9</ele>
        <time>2022-01-23T07:55:24.000Z</time>
      </trkpt>
      <trkpt lat="43.16442" lon="2.34849">
        <ele>186</ele>
        <time>2022-01-23T07:55:25.000Z</time>
      </trkpt>
      <trkpt lat="43.1644" lon="2.3485">
        <ele>186.1</ele>
        <time>2022-01-23T07:55:26.000Z</time>
      </trkpt>
      <trkpt lat="43.16438" lon="2.34851">
        <ele>186.2</ele>
        <time>2022-01-23T07:55:27.000Z</time>
      </trkpt>
      <trkpt lat="43.16436" lon="2.34852">
        <ele>186.3</ele>
        <time>2022-01-23T07:55:28.000Z</time>
      </trkpt>
      <trkpt lat="43.16435" lon="2.34853">
        <ele>186.4</ele>
        <time>2022-01-23T07:55:29.000Z</time>
      </trkpt>
      <trkpt lat="43.16433" lon="2.34854">
        <ele>186.5</ele>
        <time>2022-01-23T07:55:30.000Z</time>
      </trkpt>
      <trkpt lat="43.16431" lon="2.34855">
        <ele>186.6</ele>
        <time>2022-01-23T07:55:31.000Z</time>
      </trkpt>
      <trkpt lat="43.16429" lon="2.34856">
        <ele>186.7</ele>
        <time>2022-01-23T07:55:32.000Z</time>
      </trkpt>
      <trkpt lat="43.16427" lon="2.34856">
        <ele>186.8</ele>
        <time>2022-01-23T07:55:33.000Z</time>
      </trkpt>
      <trkpt lat="43.16425" lon="2.34857">
        <ele>186.9</ele>
        <time>2022-01-23T07:55:34.000Z</time>
      </trkpt>
      <trkpt lat="43.16423" lon="2.34857">
        <ele>187</ele>
        <time>2022-01-23T07:55:35.000Z</time>
      </trkpt>
      <trkpt lat="43.16421" lon="2.34858">
        <ele>187.1</ele>
        <time>2022-01-23T07:55:36.000Z</time>
      </trkpt>
      <trkpt lat="43.16419" lon="2.34858">
        <ele>187.2</ele>
        <time>2022-01-23T07:55:37.000Z</time>
      </trkpt>
      <trkpt lat="43.16417" lon="2.34858">
        <ele>187.3</ele>
        <time>2022-01-23T07:55:38.000Z</time>
      </trkpt>
      <trkpt lat="43.16415" lon="2.34858">
        <ele>187.5</ele>
        <time>2022-01-23T07:55:39.000Z</time>
      </trkpt>
      <trkpt lat="43.16413" lon="2.34858">
        <ele>187.6</ele>
        <time>2022-01-23T07:55:40.000Z</time>
      </trkpt>
      <trkpt lat="43.16411" lon="2.34857">
        <ele>187.7</ele>
        <time>2022-01-23T07:55:41.000Z</time>
      </trkpt>
      <trkpt lat="43.1641" lon="2.34857">
        <ele>187.8</ele>
        <time>2022-01-23T07:55:42.000Z</time>
      </trkpt>
      <trkpt lat="43.16408" lon="2.34856">
        <ele>187.9</ele>
        <time>2022-01-23T07:55:43.000Z</time>
      </trkpt>
      <trkpt lat="43.16407" lon="2.34855">
        <ele>188</ele>
        <time>2022-01-23T07:55:44.000Z</time>
      </trkpt>
      <trkpt lat="43.16406" lon="2.34854">
        <ele>188</ele>
        <time>2022-01-23T07:55:45.000Z</time>
      </trkpt>
      <trkpt lat="43.16406" lon="2.34854">
        <ele>188.1</ele>
        <time>2022-01-23T07:55:46.000Z</time>
      </trkpt>
      <trkpt lat="43.16405" lon="2.34853">
        <ele>188.1</ele>
        <time>2022-01-23T07:55:47.000Z</time>
      </trkpt>
      <trkpt lat="43.16405" lon="2.34853">
        <ele>188.1</ele>
        <time>2022-01-23T07:55:48.000Z</time>
      </trkpt>
      <trkpt lat="43.16405" lon="2.34852">
        <ele>188.1</ele>
        <time>2022-01-23T07:55:49.000Z</time>
      </trkpt>
      <trkpt lat="43.16405" lon="2.34852">
        <ele>188.1</ele>
        <time>2022-01-23T07:55:50.000Z</time>
      </trkpt>
      <trkpt lat="43.16405" lon="2.34851">
        <ele>188.1</ele>
        <time>2022-01-23T07:55:51.000Z</time>
      </trkpt>
      <trkpt lat="43.16405" lon="2.34851">
        <ele>188.1</ele>
        <time>2022-01-23T07:55:52.000Z</time>
      </trkpt>
      <trkpt lat="43.16405" lon="2.34851">
        <ele>188.1</ele>
        <time>2022-01-23T07:55:53.000Z</time>
      </trkpt>
      <trkpt lat="43.16405" lon="2.34851">
        <ele>188.1</ele>
        <time>2022-01-23T07:55:54.000Z</time>
      </trkpt>
      <trkpt lat="43.16405" lon="2.3485">
        <ele>188.1</ele>
        <time>2022-01-23T07:55:55.000Z</time>
      </trkpt>
      <trkpt lat="43.16405" lon="2.3485">
        <ele>188.1</ele>
        <time>2022-01-23T07:55:56.000Z</time>
      </trkpt>
      <trkpt lat="43.16405" lon="2.3485">
        <ele>188.1</ele>
        <time>2022-01-23T07:55:57.000Z</time>
      </trkpt>
      <trkpt lat="43.16405" lon="2.3485">
        <ele>188.1</ele>
        <time>2022-01-23T07:55:58.000Z</time>
      </trkpt>
      <trkpt lat="43.16405" lon="2.3485">
        <ele>188.1</ele>
        <time>2022-01-23T07:55:59.000Z</time>
      </trkpt>
      <trkpt lat="43.16405" lon="2.3485">
        <ele>188.1</ele>
        <time>2022-01-23T07:56:00.000Z</time>
      </trkpt>
      <trkpt lat="43.16405" lon="2.3485">
        <ele>188.1</ele>
        <time>2022-01-23T07:56:01.000Z</time>
      </trkpt>
      <trkpt lat="43.16405" lon="2.3485">
        <ele>188.1</ele>
        <time>2022-01-23T07:56:02.000Z</time>
      </trkpt>
      <trkpt lat="43.16405" lon="2.34851">
        <ele>188.1</ele>
        <time>2022-01-23T07:56:03.000Z</time>
      </trkpt>
      <trkpt lat="43.16405" lon="2.34851">
        <ele>188.1</ele>
        <time>2022-01-23T07:56:04.000Z</time>
      </trkpt>
      <trkpt lat="43.16405" lon="2.34851">
        <ele>188.1</ele>
        <time>2022-01-23T07:56:05.000Z</time>
      </trkpt>
      <trkpt lat="43.16405" lon="2.34851">
        <ele>188.1</ele>
        <time>2022-01-23T07:56:06.000Z</time>
      </trkpt>
      <trkpt lat="43.16405" lon="2.34851">
        <ele>188.1</ele>
        <time>2022-01-23T07:56:07.000Z</time>
      </trkpt>
      <trkpt lat="43.16405" lon="2.3485">
        <ele>188.1</ele>
        <time>2022-01-23T07:56:08.000Z</time>
      </trkpt>
      <trkpt lat="43.16405" lon="2.3485">
        <ele>188.1</ele>
        <time>2022-01-23T07:56:09.000Z</time>
      </trkpt>
      <trkpt lat="43.16405" lon="2.3485">
        <ele>188.1</ele>
        <time>2022-01-23T07:56:10.000Z</time>
      </trkpt>
      <trkpt lat="43.16405" lon="2.3485">
        <ele>188.1</ele>
        <time>2022-01-23T07:56:11.000Z</time>
      </trkpt>
      <trkpt lat="43.16405" lon="2.3485">
        <ele>188.1</ele>
        <time>2022-01-23T07:56:12.000Z</time>
      </trkpt>
      <trkpt lat="43.16405" lon="2.3485">
        <ele>188.1</ele>
        <time>2022-01-23T07:56:13.000Z</time>
      </trkpt>
      <trkpt lat="43.16405" lon="2.3485">
        <ele>188.1</ele>
        <time>2022-01-23T07:56:14.000Z</time>
      </trkpt>
      <trkpt lat="43.16405" lon="2.3485">
        <ele>188.1</ele>
        <time>2022-01-23T07:56:15.000Z</time>
      </trkpt>
      <trkpt lat="43.16405" lon="2.3485">
        <ele>188.1</ele>
        <time>2022-01-23T07:56:16.000Z</time>
      </trkpt>
      <trkpt lat="43.16405" lon="2.3485">
        <ele>188.1</ele>
        <time>2022-01-23T07:56:17.000Z</time>
      </trkpt>
      <trkpt lat="43.16405" lon="2.3485">
        <ele>188.1</ele>
        <time>2022-01-23T07:56:18.000Z</time>
      </trkpt>
      <trkpt lat="43.16405" lon="2.3485">
        <ele>188.1</ele>
        <time>2022-01-23T07:56:19.000Z</time>
      </trkpt>
      <trkpt lat="43.16405" lon="2.3485">
        <ele>188.1</ele>
        <time>2022-01-23T07:56:20.000Z</time>
      </trkpt>
      <trkpt lat="43.16405" lon="2.3485">
        <ele>188.1</ele>
        <time>2022-01-23T07:56:21.000Z</time>
      </trkpt>
      <trkpt lat="43.16405" lon="2.3485">
        <ele>188.1</ele>
        <time>2022-01-23T07:56:22.000Z</time>
      </trkpt>
      <trkpt lat="43.16405" lon="2.3485">
        <ele>188.1</ele>
        <time>2022-01-23T07:56:23.000Z</time>
      </trkpt>
      <trkpt lat="43.16405" lon="2.3485">
        <ele>188.1</ele>
        <time>2022-01-23T07:56:24.000Z</time>
      </trkpt>
      <trkpt lat="43.16405" lon="2.3485">
        <ele>188.1</ele>
        <time>2022-01-23T07:56:25.000Z</time>
      </trkpt>
      <trkpt lat="43.16405" lon="2.3485">
        <ele>188.1</ele>
        <time>2022-01-23T07:56:26.000Z</time>
      </trkpt>
      <trkpt lat="43.16405" lon="2.3485">
        <ele>188.1</ele>
        <time>2022-01-23T07:56:27.000Z</time>
      </trkpt>
      <trkpt lat="43.16405" lon="2.3485">
        <ele>188.1</ele>
        <time>2022-01-23T07:56:28.000Z</time>
      </trkpt>
      <trkpt lat="43.16405" lon="2.3485">
        <ele>188.1</ele>
        <time>2022-01-23T07:56:29.000Z</time>
      </trkpt>
      <trkpt lat="43.16405" lon="2.3485">
        <ele>188.1</ele>
        <time>2022-01-23T07:56:30.000Z</time>
      </trkpt>
      <trkpt lat="43.16405" lon="2.3485">
        <ele>188.1</ele>
        <time>2022-01-23T07:56:31.000Z</time>
      </trkpt>
      <trkpt lat="43.16404" lon="2.3485">
        <ele>188.1</ele>
        <time>2022-01-23T07:56:32.000Z</time>
      </trkpt>
      <trkpt lat="43.16404" lon="2.3485">
        <ele>188.2</ele>
        <time>2022-01-23T07:56:33.000Z</time>
      </trkpt>
      <trkpt lat="43.16404" lon="2.3485">
        <ele>188.2</ele>
        <time>2022-01-23T07:56:34.000Z</time>
      </trkpt>
      <trkpt lat="43.16404" lon="2.3485">
        <ele>188.2</ele>
        <time>2022-01-23T07:56:35.000Z</time>
      </trkpt>
      <trkpt lat="43.16404" lon="2.3485">
        <ele>188.2</ele>
        <time>2022-01-23T07:56:36.000Z</time>
      </trkpt>
      <trkpt lat="43.16404" lon="2.3485">
        <ele>188.2</ele>
        <time>2022-01-23T07:56:37.000Z</time>
      </trkpt>
      <trkpt lat="43.16404" lon="2.3485">
        <ele>188.2</ele>
        <time>2022-01-23T07:56:38.000Z</time>
      </trkpt>
      <trkpt lat="43.16403" lon="2.3485">
        <ele>188.2</ele>
        <time>2022-01-23T07:56:39.000Z</time>
      </trkpt>
      <trkpt lat="43.16403" lon="2.34851">
        <ele>188.2</ele>
        <time>2022-01-23T07:56:40.000Z</time>
      </trkpt>
      <trkpt lat="43.16403" lon="2.34851">
        <ele>188.2</ele>
        <time>2022-01-23T07:56:41.000Z</time>
      </trkpt>
      <trkpt lat="43.16403" lon="2.34851">
        <ele>188.2</ele>
        <time>2022-01-23T07:56:42.000Z</time>
      </trkpt>
      <trkpt lat="43.16403" lon="2.34851">
        <ele>188.2</ele>
        <time>2022-01-23T07:56:43.000Z</time>
      </trkpt>
      <trkpt lat="43.16403" lon="2.34851">
        <ele>188.2</ele>
        <time>2022-01-23T07:56:44.000Z</time>
      </trkpt>
      <trkpt lat="43.16403" lon="2.34851">
        <ele>188.2</ele>
        <time>2022-01-23T07:56:45.000Z</time>
      </trkpt>
      <trkpt lat="43.16403" lon="2.34851">
        <ele>188.2</ele>
        <time>2022-01-23T07:56:46.000Z</time>
      </trkpt>
      <trkpt lat="43.16403" lon="2.34851">
        <ele>188.2</ele>
        <time>2022-01-23T07:56:47.000Z</time>
      </trkpt>
      <trkpt lat="43.16404" lon="2.34851">
        <ele>188.2</ele>
        <time>2022-01-23T07:56:48.000Z</time>
      </trkpt>
      <trkpt lat="43.16404" lon="2.3485">
        <ele>188.2</ele>
        <time>2022-01-23T07:56:49.000Z</time>
      </trkpt>
      <trkpt lat="43.16404" lon="2.3485">
        <ele>188.1</ele>
        <time>2022-01-23T07:56:50.000Z</time>
      </trkpt>
      <trkpt lat="43.16404" lon="2.3485">
        <ele>188.1</ele>
        <time>2022-01-23T07:56:51.000Z</time>
      </trkpt>
      <trkpt lat="43.16405" lon="2.3485">
        <ele>188.1</ele>
        <time>2022-01-23T07:56:52.000Z</time>
      </trkpt>
      <trkpt lat="43.16405" lon="2.3485">
        <ele>188.1</ele>
        <time>2022-01-23T07:56:53.000Z</time>
      </trkpt>
      <trkpt lat="43.16405" lon="2.3485">
        <ele>188.1</ele>
        <time>2022-01-23T07:56:54.000Z</time>
      </trkpt>
      <trkpt lat="43.16405" lon="2.3485">
        <ele>188.1</ele>
        <time>2022-01-23T07:56:55.000Z</time>
      </trkpt>
      <trkpt lat="43.16405" lon="2.3485">
        <ele>188.1</ele>
        <time>2022-01-23T07:56:56.000Z</time>
      </trkpt>
      <trkpt lat="43.16405" lon="2.3485">
        <ele>188.1</ele>
        <time>2022-01-23T07:56:57.000Z</time>
      </trkpt>
      <trkpt lat="43.16405" lon="2.3485">
        <ele>188.1</ele>
        <time>2022-01-23T07:56:58.000Z</time>
      </trkpt>
      <trkpt lat="43.16405" lon="2.3485">
        <ele>188.1</ele>
        <time>2022-01-23T07:56:59.000Z</time>
      </trkpt>
      <trkpt lat="43.16405" lon="2.3485">
        <ele>188.1</ele>
        <time>2022-01-23T07:57:00.000Z</time>
      </trkpt>
      <trkpt lat="43.16405" lon="2.3485">
        <ele>188.1</ele>
        <time>2022-01-23T07:57:01.000Z</time>
      </trkpt>
      <trkpt lat="43.16405" lon="2.3485">
        <ele>188</ele>
        <time>2022-01-23T07:57:02.000Z</time>
      </trkpt>
      <trkpt lat="43.16406" lon="2.3485">
        <ele>188</ele>
        <time>2022-01-23T07:57:03.000Z</time>
      </trkpt>
      <trkpt lat="43.16406" lon="2.3485">
        <ele>188</ele>
        <time>2022-01-23T07:57:04.000Z</time>
      </trkpt>
      <trkpt lat="43.16407" lon="2.34849">
        <ele>187.9</ele>
        <time>2022-01-23T07:57:05.000Z</time>
      </trkpt>
      <trkpt lat="43.16407" lon="2.34849">
        <ele>187.9</ele>
        <time>2022-01-23T07:57:06.000Z</time>
      </trkpt>
      <trkpt lat="43.16408" lon="2.34848">
        <ele>187.8</ele>
        <time>2022-01-23T07:57:07.000Z</time>
      </trkpt>
      <trkpt lat="43.16409" lon="2.34848">
        <ele>187.8</ele>
        <time>2022-01-23T07:57:08.000Z</time>
      </trkpt>
      <trkpt lat="43.1641" lon="2.34847">
        <ele>187.7</ele>
        <time>2022-01-23T07:57:09.000Z</time>
      </trkpt>
      <trkpt lat="43.16411" lon="2.34845">
        <ele>187.6</ele>
        <time>2022-01-23T07:57:10.000Z</time>
      </trkpt>
      <trkpt lat="43.16412" lon="2.34843">
        <ele>187.5</ele>
        <time>2022-01-23T07:57:11.000Z</time>
      </trkpt>
      <trkpt lat="43.16413" lon="2.34841">
        <ele>187.3</ele>
        <time>2022-01-23T07:57:12.000Z</time>
      </trkpt>
      <trkpt lat="43.16415" lon="2.34839">
        <ele>187.2</ele>
        <time>2022-01-23T07:57:13.000Z</time>
      </trkpt>
      <trkpt lat="43.16416" lon="2.34837">
        <ele>187.1</ele>
        <time>2022-01-23T07:57:14.000Z</time>
      </trkpt>
      <trkpt lat="43.16418" lon="2.34834">
        <ele>187</ele>
        <time>2022-01-23T07:57:15.000Z</time>
      </trkpt>
      <trkpt lat="43.1642" lon="2.34832">
        <ele>186.8</ele>
        <time>2022-01-23T07:57:16.000Z</time>
      </trkpt>
      <trkpt lat="43.16421" lon="2.3483">
        <ele>186.7</ele>
        <time>2022-01-23T07:57:17.000Z</time>
      </trkpt>
      <trkpt lat="43.16423" lon="2.34828">
        <ele>186.6</ele>
        <time>2022-01-23T07:57:18.000Z</time>
      </trkpt>
      <trkpt lat="43.16425" lon="2.34826">
        <ele>186.5</ele>
        <time>2022-01-23T07:57:19.000Z</time>
      </trkpt>
      <trkpt lat="43.16427" lon="2.34824">
        <ele>186.4</ele>
        <time>2022-01-23T07:57:20.000Z</time>
      </trkpt>
      <trkpt lat="43.16429" lon="2.34823">
        <ele>186.2</ele>
        <time>2022-01-23T07:57:21.000Z</time>
      </trkpt>
      <trkpt lat="43.16431" lon="2.34822">
        <ele>186.1</ele>
        <time>2022-01-23T07:57:22.000Z</time>
      </trkpt>
      <trkpt lat="43.16433" lon="2.34821">
        <ele>186.1</ele>
        <time>2022-01-23T07:57:23.000Z</time>
      </trkpt>
      <trkpt lat="43.16436" lon="2.34821">
        <ele>186</ele>
        <time>2022-01-23T07:57:24.000Z</time>
      </trkpt>
      <trkpt lat="43.16438" lon="2.3482">
        <ele>185.9</ele>
        <time>2022-01-23T07:57:25.000Z</time>
      </trkpt>
      <trkpt lat="43.1644" lon="2.34819">
        <ele>185.8</ele>
        <time>2022-01-23T07:57:26.000Z</time>
      </trkpt>
      <trkpt lat="43.16442" lon="2.34818">
        <ele>185.7</ele>
        <time>2022-01-23T07:57:27.000Z</time>
      </trkpt>
      <trkpt lat="43.16444" lon="2.34816">
        <ele>185.6</ele>
        <time>2022-01-23T07:57:28.000Z</time>
      </trkpt>
      <trkpt lat="43.16446" lon="2.34814">
        <ele>185.5</ele>
        <time>2022-01-23T07:57:29.000Z</time>
      </trkpt>
      <trkpt lat="43.16448" lon="2.34813">
        <ele>185.5</ele>
        <time>2022-01-23T07:57:30.000Z</time>
      </trkpt>
      <trkpt lat="43.16449" lon="2.3481">
        <ele>185.4</ele>
        <time>2022-01-23T07:57:31.000Z</time>
      </trkpt>
      <trkpt lat="43.16451" lon="2.34808">
        <ele>185.4</ele>
        <time>2022-01-23T07:57:32.000Z</time>
      </trkpt>
      <trkpt lat="43.16452" lon="2.34806">
        <ele>185.3</ele>
        <time>2022-01-23T07:57:33.000Z</time>
      </trkpt>
      <trkpt lat="43.16454" lon="2.34803">
        <ele>185.3</ele>
        <time>2022-01-23T07:57:34.000Z</time>
      </trkpt>
      <trkpt lat="43.16455" lon="2.348">
        <ele>185.3</ele>
        <time>2022-01-23T07:57:35.000Z</time>
      </trkpt>
      <trkpt lat="43.16456" lon="2.34798">
        <ele>185.3</ele>
        <time>2022-01-23T07:57:36.000Z</time>
      </trkpt>
      <trkpt lat="43.16457" lon="2.34795">
        <ele>185.3</ele>
        <time>2022-01-23T07:57:37.000Z</time>
      </trkpt>
      <trkpt lat="43.16457" lon="2.34792">
        <ele>185.3</ele>
        <time>2022-01-23T07:57:38.000Z</time>
      </trkpt>
      <trkpt lat="43.16458" lon="2.34789">
        <ele>185.3</ele>
        <time>2022-01-23T07:57:39.000Z</time>
      </trkpt>
      <trkpt lat="43.16458" lon="2.34786">
        <ele>185.3</ele>
        <time>2022-01-23T07:57:40.000Z</time>
      </trkpt>
      <trkpt lat="43.16458" lon="2.34782">
        <ele>185.3</ele>
        <time>2022-01-23T07:57:41.000Z</time>
      </trkpt>
      <trkpt lat="43.16458" lon="2.34779">
        <ele>185.3</ele>
        <time>2022-01-23T07:57:42.000Z</time>
      </trkpt>
      <trkpt lat="43.16459" lon="2.34776">
        <ele>185.3</ele>
        <time>2022-01-23T07:57:43.000Z</time>
      </trkpt>
      <trkpt lat="43.16459" lon="2.34773">
        <ele>185.4</ele>
        <time>2022-01-23T07:57:44.000Z</time>
      </trkpt>
      <trkpt lat="43.16459" lon="2.34769">
        <ele>185.4</ele>
        <time>2022-01-23T07:57:45.000Z</time>
      </trkpt>
      <trkpt lat="43.16459" lon="2.34766">
        <ele>185.4</ele>
        <time>2022-01-23T07:57:46.000Z</time>
      </trkpt>
      <trkpt lat="43.16459" lon="2.34762">
        <ele>185.4</ele>
        <time>2022-01-23T07:57:47.000Z</time>
      </trkpt>
      <trkpt lat="43.16459" lon="2.34759">
        <ele>185.5</ele>
        <time>2022-01-23T07:57:48.000Z</time>
      </trkpt>
      <trkpt lat="43.16459" lon="2.34756">
        <ele>185.5</ele>
        <time>2022-01-23T07:57:49.000Z</time>
      </trkpt>
      <trkpt lat="43.1646" lon="2.34752">
        <ele>185.5</ele>
        <time>2022-01-23T07:57:50.000Z</time>
      </trkpt>
      <trkpt lat="43.1646" lon="2.34749">
        <ele>185.5</ele>
        <time>2022-01-23T07:57:51.000Z</time>
      </trkpt>
      <trkpt lat="43.16461" lon="2.34746">
        <ele>185.6</ele>
        <time>2022-01-23T07:57:52.000Z</time>
      </trkpt>
      <trkpt lat="43.16461" lon="2.34743">
        <ele>185.6</ele>
        <time>2022-01-23T07:57:53.000Z</time>
      </trkpt>
      <trkpt lat="43.16462" lon="2.3474">
        <ele>185.7</ele>
        <time>2022-01-23T07:57:54.000Z</time>
      </trkpt>
      <trkpt lat="43.16462" lon="2.34737">
        <ele>185.7</ele>
        <time>2022-01-23T07:57:55.000Z</time>
      </trkpt>
      <trkpt lat="43.16463" lon="2.34734">
        <ele>185.8</ele>
        <time>2022-01-23T07:57:56.000Z</time>
      </trkpt>
      <trkpt lat="43.16464" lon="2.34732">
        <ele>185.9</ele>
        <time>2022-01-23T07:57:57.000Z</time>
      </trkpt>
      <trkpt lat="43.16465" lon="2.34729">
        <ele>185.9</ele>
        <time>2022-01-23T07:57:58.000Z</time>
      </trkpt>
      <trkpt lat="43.16466" lon="2.34727">
        <ele>186</ele>
        <time>2022-01-23T07:57:59.000Z</time>
      </trkpt>
      <trkpt lat="43.16467" lon="2.34725">
        <ele>186.1</ele>
        <time>2022-01-23T07:58:00.000Z</time>
      </trkpt>
      <trkpt lat="43.16468" lon="2.34722">
        <ele>186.2</ele>
        <time>2022-01-23T07:58:01.000Z</time>
      </trkpt>
      <trkpt lat="43.16469" lon="2.3472">
        <ele>186.2</ele>
        <time>2022-01-23T07:58:02.000Z</time>
      </trkpt>
      <trkpt lat="43.1647" lon="2.34718">
        <ele>186.3</ele>
        <time>2022-01-23T07:58:03.000Z</time>
      </trkpt>
      <trkpt lat="43.1647" lon="2.34716">
        <ele>186.4</ele>
        <time>2022-01-23T07:58:04.000Z</time>
      </trkpt>
      <trkpt lat="43.16471" lon="2.34714">
        <ele>186.5</ele>
        <time>2022-01-23T07:58:05.000Z</time>
      </trkpt>
      <trkpt lat="43.16472" lon="2.34712">
        <ele>186.6</ele>
        <time>2022-01-23T07:58:06.000Z</time>
      </trkpt>
      <trkpt lat="43.16473" lon="2.3471">
        <ele>186.6</ele>
        <time>2022-01-23T07:58:07.000Z</time>
      </trkpt>
      <trkpt lat="43.16473" lon="2.34707">
        <ele>186.7</ele>
        <time>2022-01-23T07:58:08.000Z</time>
      </trkpt>
      <trkpt lat="43.16473" lon="2.34705">
        <ele>186.8</ele>
        <time>2022-01-23T07:58:09.000Z</time>
      </trkpt>
      <trkpt lat="43.16474" lon="2.34702">
        <ele>186.9</ele>
        <time>2022-01-23T07:58:10.000Z</time>
      </trkpt>
      <trkpt lat="43.16474" lon="2.34699">
        <ele>187</ele>
        <time>2022-01-23T07:58:11.000Z</time>
      </trkpt>
      <trkpt lat="43.16474" lon="2.34697">
        <ele>187.1</ele>
        <time>2022-01-23T07:58:12.000Z</time>
      </trkpt>
      <trkpt lat="43.16474" lon="2.34694">
        <ele>187.1</ele>
        <time>2022-01-23T07:58:13.000Z</time>
      </trkpt>
      <trkpt lat="43.16475" lon="2.34692">
        <ele>187.2</ele>
        <time>2022-01-23T07:58:14.000Z</time>
      </trkpt>
      <trkpt lat="43.16476" lon="2.3469">
        <ele>187.4</ele>
        <time>2022-01-23T07:58:15.000Z</time>
      </trkpt>
      <trkpt lat="43.16478" lon="2.34688">
        <ele>187.5</ele>
        <time>2022-01-23T07:58:16.000Z</time>
      </trkpt>
      <trkpt lat="43.16479" lon="2.34687">
        <ele>187.7</ele>
        <time>2022-01-23T07:58:17.000Z</time>
      </trkpt>
      <trkpt lat="43.16481" lon="2.34686">
        <ele>187.8</ele>
        <time>2022-01-23T07:58:18.000Z</time>
      </trkpt>
      <trkpt lat="43.16482" lon="2.34684">
        <ele>187.9</ele>
        <time>2022-01-23T07:58:19.000Z</time>
      </trkpt>
      <trkpt lat="43.16483" lon="2.34682">
        <ele>188</ele>
        <time>2022-01-23T07:58:20.000Z</time>
      </trkpt>
      <trkpt lat="43.16483" lon="2.34679">
        <ele>188.2</ele>
        <time>2022-01-23T07:58:21.000Z</time>
      </trkpt>
      <trkpt lat="43.16483" lon="2.34677">
        <ele>188.3</ele>
        <time>2022-01-23T07:58:22.000Z</time>
      </trkpt>
      <trkpt lat="43.16484" lon="2.34674">
        <ele>188.4</ele>
        <time>2022-01-23T07:58:23.000Z</time>
      </trkpt>
      <trkpt lat="43.16484" lon="2.34672">
        <ele>188.5</ele>
        <time>2022-01-23T07:58:24.000Z</time>
      </trkpt>
      <trkpt lat="43.16484" lon="2.34669">
        <ele>188.6</ele>
        <time>2022-01-23T07:58:25.000Z</time>
      </trkpt>
      <trkpt lat="43.16484" lon="2.34667">
        <ele>188.7</ele>
        <time>2022-01-23T07:58:26.000Z</time>
      </trkpt>
      <trkpt lat="43.16484" lon="2.34665">
        <ele>188.5</ele>
        <time>2022-01-23T07:58:27.000Z</time>
      </trkpt>
      <trkpt lat="43.16485" lon="2.34662">
        <ele>188.4</ele>
        <time>2022-01-23T07:58:28.000Z</time>
      </trkpt>
      <trkpt lat="43.16486" lon="2.3466">
        <ele>188.3</ele>
        <time>2022-01-23T07:58:29.000Z</time>
      </trkpt>
      <trkpt lat="43.16486" lon="2.34659">
        <ele>188.3</ele>
        <time>2022-01-23T07:58:30.000Z</time>
      </trkpt>
      <trkpt lat="43.16487" lon="2.34657">
        <ele>188.2</ele>
        <time>2022-01-23T07:58:31.000Z</time>
      </trkpt>
      <trkpt lat="43.16488" lon="2.34655">
        <ele>188.2</ele>
        <time>2022-01-23T07:58:32.000Z</time>
      </trkpt>
      <trkpt lat="43.1649" lon="2.34654">
        <ele>188.2</ele>
        <time>2022-01-23T07:58:33.000Z</time>
      </trkpt>
      <trkpt lat="43.16491" lon="2.34652">
        <ele>188.2</ele>
        <time>2022-01-23T07:58:34.000Z</time>
      </trkpt>
      <trkpt lat="43.16492" lon="2.34651">
        <ele>188.2</ele>
        <time>2022-01-23T07:58:35.000Z</time>
      </trkpt>
      <trkpt lat="43.16494" lon="2.34649">
        <ele>188.2</ele>
        <time>2022-01-23T07:58:36.000Z</time>
      </trkpt>
      <trkpt lat="43.16496" lon="2.34648">
        <ele>188.2</ele>
        <time>2022-01-23T07:58:37.000Z</time>
      </trkpt>
      <trkpt lat="43.16497" lon="2.34646">
        <ele>188.3</ele>
        <time>2022-01-23T07:58:38.000Z</time>
      </trkpt>
      <trkpt lat="43.16499" lon="2.34644">
        <ele>188.3</ele>
        <time>2022-01-23T07:58:39.000Z</time>
      </trkpt>
      <trkpt lat="43.165" lon="2.34642">
        <ele>188.2</ele>
        <time>2022-01-23T07:58:40.000Z</time>
      </trkpt>
      <trkpt lat="43.16502" lon="2.3464">
        <ele>187.9</ele>
        <time>2022-01-23T07:58:41.000Z</time>
      </trkpt>
      <trkpt lat="43.16503" lon="2.34638">
        <ele>187.6</ele>
        <time>2022-01-23T07:58:42.000Z</time>
      </trkpt>
      <trkpt lat="43.16505" lon="2.34636">
        <ele>187.2</ele>
        <time>2022-01-23T07:58:43.000Z</time>
      </trkpt>
      <trkpt lat="43.16506" lon="2.34634">
        <ele>186.9</ele>
        <time>2022-01-23T07:58:44.000Z</time>
      </trkpt>
      <trkpt lat="43.16508" lon="2.34631">
        <ele>186.6</ele>
        <time>2022-01-23T07:58:45.000Z</time>
      </trkpt>
      <trkpt lat="43.16509" lon="2.34628">
        <ele>186.4</ele>
        <time>2022-01-23T07:58:46.000Z</time>
      </trkpt>
      <trkpt lat="43.1651" lon="2.34626">
        <ele>186.1</ele>
        <time>2022-01-23T07:58:47.000Z</time>
      </trkpt>
      <trkpt lat="43.16511" lon="2.34623">
        <ele>185.8</ele>
        <time>2022-01-23T07:58:48.000Z</time>
      </trkpt>
      <trkpt lat="43.16512" lon="2.34619">
        <ele>185.6</ele>
        <time>2022-01-23T07:58:49.000Z</time>
      </trkpt>
      <trkpt lat="43.16512" lon="2.34616">
        <ele>185.4</ele>
        <time>2022-01-23T07:58:50.000Z</time>
      </trkpt>
      <trkpt lat="43.16513" lon="2.34613">
        <ele>185.2</ele>
        <time>2022-01-23T07:58:51.000Z</time>
      </trkpt>
      <trkpt lat="43.16514" lon="2.3461">
        <ele>184.9</ele>
        <time>2022-01-23T07:58:52.000Z</time>
      </trkpt>
      <trkpt lat="43.16514" lon="2.34606">
        <ele>184.8</ele>
        <time>2022-01-23T07:58:53.000Z</time>
      </trkpt>
      <trkpt lat="43.16515" lon="2.34603">
        <ele>184.6</ele>
        <time>2022-01-23T07:58:54.000Z</time>
      </trkpt>
      <trkpt lat="43.16515" lon="2.346">
        <ele>184.4</ele>
        <time>2022-01-23T07:58:55.000Z</time>
      </trkpt>
      <trkpt lat="43.16516" lon="2.34597">
        <ele>184.2</ele>
        <time>2022-01-23T07:58:56.000Z</time>
      </trkpt>
      <trkpt lat="43.16516" lon="2.34593">
        <ele>184.1</ele>
        <time>2022-01-23T07:58:57.000Z</time>
      </trkpt>
      <trkpt lat="43.16516" lon="2.3459">
        <ele>183.9</ele>
        <time>2022-01-23T07:58:58.000Z</time>
      </trkpt>
      <trkpt lat="43.16517" lon="2.34587">
        <ele>183.8</ele>
        <time>2022-01-23T07:58:59.000Z</time>
      </trkpt>
      <trkpt lat="43.16517" lon="2.34584">
        <ele>183.6</ele>
        <time>2022-01-23T07:59:00.000Z</time>
      </trkpt>
      <trkpt lat="43.16518" lon="2.34581">
        <ele>183.4</ele>
        <time>2022-01-23T07:59:01.000Z</time>
      </trkpt>
      <trkpt lat="43.16518" lon="2.34578">
        <ele>183.2</ele>
        <time>2022-01-23T07:59:02.000Z</time>
      </trkpt>
      <trkpt lat="43.16519" lon="2.34575">
        <ele>183</ele>
        <time>2022-01-23T07:59:03.000Z</time>
      </trkpt>
      <trkpt lat="43.1652" lon="2.34572">
        <ele>182.8</ele>
        <time>2022-01-23T07:59:04.000Z</time>
      </trkpt>
      <trkpt lat="43.16521" lon="2.34569">
        <ele>182.7</ele>
        <time>2022-01-23T07:59:05.000Z</time>
      </trkpt>
      <trkpt lat="43.16522" lon="2.34567">
        <ele>182.5</ele>
        <time>2022-01-23T07:59:06.000Z</time>
      </trkpt>
      <trkpt lat="43.16523" lon="2.34565">
        <ele>182.4</ele>
        <time>2022-01-23T07:59:07.000Z</time>
      </trkpt>
      <trkpt lat="43.16524" lon="2.34563">
        <ele>182.3</ele>
        <time>2022-01-23T07:59:08.000Z</time>
      </trkpt>
      <trkpt lat="43.16525" lon="2.34561">
        <ele>182.1</ele>
        <time>2022-01-23T07:59:09.000Z</time>
      </trkpt>
      <trkpt lat="43.16527" lon="2.34559">
        <ele>182.1</ele>
        <time>2022-01-23T07:59:10.000Z</time>
      </trkpt>
      <trkpt lat="43.16528" lon="2.34557">
        <ele>182</ele>
        <time>2022-01-23T07:59:11.000Z</time>
      </trkpt>
      <trkpt lat="43.16529" lon="2.34556">
        <ele>181.9</ele>
        <time>2022-01-23T07:59:12.000Z</time>
      </trkpt>
      <trkpt lat="43.1653" lon="2.34555">
        <ele>181.9</ele>
        <time>2022-01-23T07:59:13.000Z</time>
      </trkpt>
      <trkpt lat="43.16531" lon="2.34553">
        <ele>181.8</ele>
        <time>2022-01-23T07:59:14.000Z</time>
      </trkpt>
      <trkpt lat="43.16532" lon="2.34551">
        <ele>181.7</ele>
        <time>2022-01-23T07:59:15.000Z</time>
      </trkpt>
      <trkpt lat="43.16533" lon="2.34548">
        <ele>181.6</ele>
        <time>2022-01-23T07:59:16.000Z</time>
      </trkpt>
      <trkpt lat="43.16533" lon="2.34545">
        <ele>181.5</ele>
        <time>2022-01-23T07:59:17.000Z</time>
      </trkpt>
      <trkpt lat="43.16533" lon="2.34542">
        <ele>181.3</ele>
        <time>2022-01-23T07:59:18.000Z</time>
      </trkpt>
      <trkpt lat="43.16534" lon="2.34539">
        <ele>181.2</ele>
        <time>2022-01-23T07:59:19.000Z</time>
      </trkpt>
      <trkpt lat="43.16534" lon="2.34536">
        <ele>181</ele>
        <time>2022-01-23T07:59:20.000Z</time>
      </trkpt>
      <trkpt lat="43.16534" lon="2.34533">
        <ele>180.9</ele>
        <time>2022-01-23T07:59:21.000Z</time>
      </trkpt>
      <trkpt lat="43.16534" lon="2.3453">
        <ele>180.8</ele>
        <time>2022-01-23T07:59:22.000Z</time>
      </trkpt>
      <trkpt lat="43.16534" lon="2.34527">
        <ele>180.7</ele>
        <time>2022-01-23T07:59:23.000Z</time>
      </trkpt>
      <trkpt lat="43.16534" lon="2.34524">
        <ele>180.5</ele>
        <time>2022-01-23T07:59:24.000Z</time>
      </trkpt>
      <trkpt lat="43.16534" lon="2.34521">
        <ele>180.4</ele>
        <time>2022-01-23T07:59:25.000Z</time>
      </trkpt>
      <trkpt lat="43.16534" lon="2.34518">
        <ele>180.2</ele>
        <time>2022-01-23T07:59:26.000Z</time>
      </trkpt>
      <trkpt lat="43.16533" lon="2.34515">
        <ele>180.1</ele>
        <time>2022-01-23T07:59:27.000Z</time>
      </trkpt>
      <trkpt lat="43.16533" lon="2.34512">
        <ele>179.9</ele>
        <time>2022-01-23T07:59:28.000Z</time>
      </trkpt>
      <trkpt lat="43.16532" lon="2.34509">
        <ele>179.7</ele>
        <time>2022-01-23T07:59:29.000Z</time>
      </trkpt>
      <trkpt lat="43.16532" lon="2.34506">
        <ele>179.5</ele>
        <time>2022-01-23T07:59:30.000Z</time>
      </trkpt>
      <trkpt lat="43.16531" lon="2.34503">
        <ele>179.4</ele>
        <time>2022-01-23T07:59:31.000Z</time>
      </trkpt>
      <trkpt lat="43.16531" lon="2.345">
        <ele>179.2</ele>
        <time>2022-01-23T07:59:32.000Z</time>
      </trkpt>
      <trkpt lat="43.16532" lon="2.34497">
        <ele>179.1</ele>
        <time>2022-01-23T07:59:33.000Z</time>
      </trkpt>
      <trkpt lat="43.16533" lon="2.34495">
        <ele>179</ele>
        <time>2022-01-23T07:59:34.000Z</time>
      </trkpt>
      <trkpt lat="43.16534" lon="2.34492">
        <ele>178.9</ele>
        <time>2022-01-23T07:59:35.000Z</time>
      </trkpt>
      <trkpt lat="43.16535" lon="2.3449">
        <ele>178.8</ele>
        <time>2022-01-23T07:59:36.000Z</time>
      </trkpt>
      <trkpt lat="43.16537" lon="2.34488">
        <ele>178.7</ele>
        <time>2022-01-23T07:59:37.000Z</time>
      </trkpt>
      <trkpt lat="43.16538" lon="2.34485">
        <ele>178.6</ele>
        <time>2022-01-23T07:59:38.000Z</time>
      </trkpt>
      <trkpt lat="43.16539" lon="2.34483">
        <ele>178.5</ele>
        <time>2022-01-23T07:59:39.000Z</time>
      </trkpt>
      <trkpt lat="43.1654" lon="2.3448">
        <ele>178.3</ele>
        <time>2022-01-23T07:59:40.000Z</time>
      </trkpt>
      <trkpt lat="43.16541" lon="2.34477">
        <ele>178.2</ele>
        <time>2022-01-23T07:59:41.000Z</time>
      </trkpt>
      <trkpt lat="43.16542" lon="2.34475">
        <ele>178.1</ele>
        <time>2022-01-23T07:59:42.000Z</time>
      </trkpt>
      <trkpt lat="43.16544" lon="2.34472">
        <ele>177.9</ele>
        <time>2022-01-23T07:59:43.000Z</time>
      </trkpt>
      <trkpt lat="43.16545" lon="2.34469">
        <ele>177.8</ele>
        <time>2022-01-23T07:59:44.000Z</time>
      </trkpt>
      <trkpt lat="43.16546" lon="2.34467">
        <ele>177.6</ele>
        <time>2022-01-23T07:59:45.000Z</time>
      </trkpt>
      <trkpt lat="43.16547" lon="2.34464">
        <ele>177.5</ele>
        <time>2022-01-23T07:59:46.000Z</time>
      </trkpt>
      <trkpt lat="43.16548" lon="2.34462">
        <ele>177.4</ele>
        <time>2022-01-23T07:59:47.000Z</time>
      </trkpt>
      <trkpt lat="43.16548" lon="2.3446">
        <ele>177.2</ele>
        <time>2022-01-23T07:59:48.000Z</time>
      </trkpt>
      <trkpt lat="43.16548" lon="2.34458">
        <ele>177.1</ele>
        <time>2022-01-23T07:59:49.000Z</time>
      </trkpt>
      <trkpt lat="43.16548" lon="2.34456">
        <ele>176.9</ele>
        <time>2022-01-23T07:59:50.000Z</time>
      </trkpt>
      <trkpt lat="43.16548" lon="2.34454">
        <ele>176.8</ele>
        <time>2022-01-23T07:59:51.000Z</time>
      </trkpt>
      <trkpt lat="43.16547" lon="2.34453">
        <ele>176.6</ele>
        <time>2022-01-23T07:59:52.000Z</time>
      </trkpt>
      <trkpt lat="43.16546" lon="2.34452">
        <ele>176.5</ele>
        <time>2022-01-23T07:59:53.000Z</time>
      </trkpt>
      <trkpt lat="43.16545" lon="2.34452">
        <ele>176.4</ele>
        <time>2022-01-23T07:59:54.000Z</time>
      </trkpt>
      <trkpt lat="43.16544" lon="2.34452">
        <ele>176.3</ele>
        <time>2022-01-23T07:59:55.000Z</time>
      </trkpt>
      <trkpt lat="43.16542" lon="2.34452">
        <ele>176.3</ele>
        <time>2022-01-23T07:59:56.000Z</time>
      </trkpt>
      <trkpt lat="43.16541" lon="2.34453">
        <ele>176.3</ele>
        <time>2022-01-23T07:59:57.000Z</time>
      </trkpt>
      <trkpt lat="43.1654" lon="2.34455">
        <ele>176.3</ele>
        <time>2022-01-23T07:59:58.000Z</time>
      </trkpt>
      <trkpt lat="43.16538" lon="2.34456">
        <ele>176.4</ele>
        <time>2022-01-23T07:59:59.000Z</time>
      </trkpt>
      <trkpt lat="43.16536" lon="2.34458">
        <ele>176.4</ele>
        <time>2022-01-23T08:00:00.000Z</time>
      </trkpt>
      <trkpt lat="43.16535" lon="2.3446">
        <ele>176.5</ele>
        <time>2022-01-23T08:00:01.000Z</time>
      </trkpt>
      <trkpt lat="43.16533" lon="2.34462">
        <ele>176.5</ele>
        <time>2022-01-23T08:00:02.000Z</time>
      </trkpt>
      <trkpt lat="43.16531" lon="2.34464">
        <ele>176.6</ele>
        <time>2022-01-23T08:00:03.000Z</time>
      </trkpt>
      <trkpt lat="43.16529" lon="2.34466">
        <ele>176.6</ele>
        <time>2022-01-23T08:00:04.000Z</time>
      </trkpt>
      <trkpt lat="43.16526" lon="2.34467">
        <ele>176.6</ele>
        <time>2022-01-23T08:00:05.000Z</time>
      </trkpt>
      <trkpt lat="43.16524" lon="2.34469">
        <ele>176.5</ele>
        <time>2022-01-23T08:00:06.000Z</time>
      </trkpt>
      <trkpt lat="43.16522" lon="2.34471">
        <ele>176.5</ele>
        <time>2022-01-23T08:00:07.000Z</time>
      </trkpt>
      <trkpt lat="43.1652" lon="2.34472">
        <ele>176.5</ele>
        <time>2022-01-23T08:00:08.000Z</time>
      </trkpt>
      <trkpt lat="43.16518" lon="2.34474">
        <ele>176.5</ele>
        <time>2022-01-23T08:00:09.000Z</time>
      </trkpt>
      <trkpt lat="43.16516" lon="2.34476">
        <ele>176.5</ele>
        <time>2022-01-23T08:00:10.000Z</time>
      </trkpt>
      <trkpt lat="43.16515" lon="2.34477">
        <ele>176.6</ele>
        <time>2022-01-23T08:00:11.000Z</time>
      </trkpt>
      <trkpt lat="43.16514" lon="2.3448">
        <ele>176.6</ele>
        <time>2022-01-23T08:00:12.000Z</time>
      </trkpt>
      <trkpt lat="43.16513" lon="2.34482">
        <ele>176.7</ele>
        <time>2022-01-23T08:00:13.000Z</time>
      </trkpt>
      <trkpt lat="43.16513" lon="2.34484">
        <ele>176.9</ele>
        <time>2022-01-23T08:00:14.000Z</time>
      </trkpt>
      <trkpt lat="43.16512" lon="2.34487">
        <ele>177</ele>
        <time>2022-01-23T08:00:15.000Z</time>
      </trkpt>
      <trkpt lat="43.16512" lon="2.34489">
        <ele>177.2</ele>
        <time>2022-01-23T08:00:16.000Z</time>
      </trkpt>
      <trkpt lat="43.16512" lon="2.34492">
        <ele>177.3</ele>
        <time>2022-01-23T08:00:17.000Z</time>
      </trkpt>
      <trkpt lat="43.16512" lon="2.34494">
        <ele>177.5</ele>
        <time>2022-01-23T08:00:18.000Z</time>
      </trkpt>
      <trkpt lat="43.16512" lon="2.34497">
        <ele>177.7</ele>
        <time>2022-01-23T08:00:19.000Z</time>
      </trkpt>
      <trkpt lat="43.16512" lon="2.345">
        <ele>177.8</ele>
        <time>2022-01-23T08:00:20.000Z</time>
      </trkpt>
      <trkpt lat="43.16512" lon="2.34502">
        <ele>178</ele>
        <time>2022-01-23T08:00:21.000Z</time>
      </trkpt>
      <trkpt lat="43.16512" lon="2.34505">
        <ele>178.2</ele>
        <time>2022-01-23T08:00:22.000Z</time>
      </trkpt>
      <trkpt lat="43.16512" lon="2.34508">
        <ele>178.4</ele>
        <time>2022-01-23T08:00:23.000Z</time>
      </trkpt>
      <trkpt lat="43.16511" lon="2.34511">
        <ele>178.6</ele>
        <time>2022-01-23T08:00:24.000Z</time>
      </trkpt>
      <trkpt lat="43.16511" lon="2.34513">
        <ele>178.7</ele>
        <time>2022-01-23T08:00:25.000Z</time>
      </trkpt>
      <trkpt lat="43.16511" lon="2.34516">
        <ele>178.9</ele>
        <time>2022-01-23T08:00:26.000Z</time>
      </trkpt>
      <trkpt lat="43.16511" lon="2.34519">
        <ele>179.1</ele>
        <time>2022-01-23T08:00:27.000Z</time>
      </trkpt>
      <trkpt lat="43.1651" lon="2.34522">
        <ele>179.3</ele>
        <time>2022-01-23T08:00:28.000Z</time>
      </trkpt>
      <trkpt lat="43.1651" lon="2.34525">
        <ele>179.5</ele>
        <time>2022-01-23T08:00:29.000Z</time>
      </trkpt>
      <trkpt lat="43.16509" lon="2.34528">
        <ele>179.7</ele>
        <time>2022-01-23T08:00:30.000Z</time>
      </trkpt>
      <trkpt lat="43.16509" lon="2.34531">
        <ele>179.9</ele>
        <time>2022-01-23T08:00:31.000Z</time>
      </trkpt>
      <trkpt lat="43.16509" lon="2.34534">
        <ele>180.2</ele>
        <time>2022-01-23T08:00:32.000Z</time>
      </trkpt>
      <trkpt lat="43.16508" lon="2.34537">
        <ele>180.4</ele>
        <time>2022-01-23T08:00:33.000Z</time>
      </trkpt>
      <trkpt lat="43.16508" lon="2.3454">
        <ele>180.5</ele>
        <time>2022-01-23T08:00:34.000Z</time>
      </trkpt>
      <trkpt lat="43.16507" lon="2.34542">
        <ele>180.7</ele>
        <time>2022-01-23T08:00:35.000Z</time>
      </trkpt>
      <trkpt lat="43.16507" lon="2.34545">
        <ele>180.9</ele>
        <time>2022-01-23T08:00:36.000Z</time>
      </trkpt>
      <trkpt lat="43.16507" lon="2.34547">
        <ele>181.1</ele>
        <time>2022-01-23T08:00:37.000Z</time>
      </trkpt>
      <trkpt lat="43.16507" lon="2.34549">
        <ele>181.2</ele>
        <time>2022-01-23T08:00:38.000Z</time>
      </trkpt>
      <trkpt lat="43.16506" lon="2.3455">
        <ele>181.3</ele>
        <time>2022-01-23T08:00:39.000Z</time>
      </trkpt>
      <trkpt lat="43.16506" lon="2.34552">
        <ele>181.4</ele>
        <time>2022-01-23T08:00:40.000Z</time>
      </trkpt>
      <trkpt lat="43.16506" lon="2.34554">
        <ele>181.6</ele>
        <time>2022-01-23T08:00:41.000Z</time>
      </trkpt>
      <trkpt lat="43.16506" lon="2.34555">
        <ele>181.7</ele>
        <time>2022-01-23T08:00:42.000Z</time>
      </trkpt>
      <trkpt lat="43.16505" lon="2.34557">
        <ele>181.8</ele>
        <time>2022-01-23T08:00:43.000Z</time>
      </trkpt>
      <trkpt lat="43.16505" lon="2.34558">
        <ele>181.9</ele>
        <time>2022-01-23T08:00:44.000Z</time>
      </trkpt>
      <trkpt lat="43.16505" lon="2.3456">
        <ele>182</ele>
        <time>2022-01-23T08:00:45.000Z</time>
      </trkpt>
      <trkpt lat="43.16505" lon="2.34562">
        <ele>182.2</ele>
        <time>2022-01-23T08:00:46.000Z</time>
      </trkpt>
      <trkpt lat="43.16505" lon="2.34564">
        <ele>182.4</ele>
        <time>2022-01-23T08:00:47.000Z</time>
      </trkpt>
      <trkpt lat="43.16504" lon="2.34566">
        <ele>182.5</ele>
        <time>2022-01-23T08:00:48.000Z</time>
      </trkpt>
      <trkpt lat="43.16503" lon="2.34567">
        <ele>182.6</ele>
        <time>2022-01-23T08:00:49.000Z</time>
      </trkpt>
      <trkpt lat="43.16502" lon="2.34569">
        <ele>182.7</ele>
        <time>2022-01-23T08:00:50.000Z</time>
      </trkpt>
      <trkpt lat="43.165" lon="2.3457">
        <ele>182.8</ele>
        <time>2022-01-23T08:00:51.000Z</time>
      </trkpt>
      <trkpt lat="43.16499" lon="2.3457">
        <ele>182.8</ele>
        <time>2022-01-23T08:00:52.000Z</time>
      </trkpt>
      <trkpt lat="43.16497" lon="2.34571">
        <ele>182.6</ele>
        <time>2022-01-23T08:00:53.000Z</time>
      </trkpt>
      <trkpt lat="43.16496" lon="2.34571">
        <ele>182.5</ele>
        <time>2022-01-23T08:00:54.000Z</time>
      </trkpt>
      <trkpt lat="43.16494" lon="2.34571">
        <ele>182.4</ele>
        <time>2022-01-23T08:00:55.000Z</time>
      </trkpt>
      <trkpt lat="43.16493" lon="2.3457">
        <ele>182.2</ele>
        <time>2022-01-23T08:00:56.000Z</time>
      </trkpt>
      <trkpt lat="43.16492" lon="2.3457">
        <ele>182.2</ele>
        <time>2022-01-23T08:00:57.000Z</time>
      </trkpt>
      <trkpt lat="43.16491" lon="2.3457">
        <ele>182.1</ele>
        <time>2022-01-23T08:00:58.000Z</time>
      </trkpt>
      <trkpt lat="43.16491" lon="2.3457">
        <ele>182.1</ele>
        <time>2022-01-23T08:00:59.000Z</time>
      </trkpt>
      <trkpt lat="43.16491" lon="2.3457">
        <ele>182.1</ele>
        <time>2022-01-23T08:01:00.000Z</time>
      </trkpt>
      <trkpt lat="43.16491" lon="2.3457">
        <ele>182.1</ele>
        <time>2022-01-23T08:01:01.000Z</time>
      </trkpt>
      <trkpt lat="43.16491" lon="2.3457">
        <ele>182</ele>
        <time>2022-01-23T08:01:02.000Z</time>
      </trkpt>
      <trkpt lat="43.1649" lon="2.3457">
        <ele>182</ele>
        <time>2022-01-23T08:01:03.000Z</time>
      </trkpt>
      <trkpt lat="43.1649" lon="2.3457">
        <ele>181.9</ele>
        <time>2022-01-23T08:01:04.000Z</time>
      </trkpt>
      <trkpt lat="43.16488" lon="2.34571">
        <ele>181.8</ele>
        <time>2022-01-23T08:01:05.000Z</time>
      </trkpt>
      <trkpt lat="43.16486" lon="2.34571">
        <ele>181.7</ele>
        <time>2022-01-23T08:01:06.000Z</time>
      </trkpt>
      <trkpt lat="43.16484" lon="2.34572">
        <ele>181.6</ele>
        <time>2022-01-23T08:01:07.000Z</time>
      </trkpt>
      <trkpt lat="43.16482" lon="2.34574">
        <ele>181.5</ele>
        <time>2022-01-23T08:01:08.000Z</time>
      </trkpt>
      <trkpt lat="43.16481" lon="2.34575">
        <ele>181.5</ele>
        <time>2022-01-23T08:01:09.000Z</time>
      </trkpt>
      <trkpt lat="43.1648" lon="2.34577">
        <ele>181.5</ele>
        <time>2022-01-23T08:01:10.000Z</time>
      </trkpt>
      <trkpt lat="43.16479" lon="2.34578">
        <ele>181.5</ele>
        <time>2022-01-23T08:01:11.000Z</time>
      </trkpt>
      <trkpt lat="43.16478" lon="2.3458">
        <ele>181.5</ele>
        <time>2022-01-23T08:01:12.000Z</time>
      </trkpt>
      <trkpt lat="43.16476" lon="2.34581">
        <ele>181.5</ele>
        <time>2022-01-23T08:01:13.000Z</time>
      </trkpt>
      <trkpt lat="43.16475" lon="2.34583">
        <ele>181.5</ele>
        <time>2022-01-23T08:01:14.000Z</time>
      </trkpt>
      <trkpt lat="43.16473" lon="2.34584">
        <ele>181.5</ele>
        <time>2022-01-23T08:01:15.000Z</time>
      </trkpt>
      <trkpt lat="43.16472" lon="2.34585">
        <ele>181.4</ele>
        <time>2022-01-23T08:01:16.000Z</time>
      </trkpt>
      <trkpt lat="43.1647" lon="2.34586">
        <ele>181.3</ele>
        <time>2022-01-23T08:01:17.000Z</time>
      </trkpt>
      <trkpt lat="43.16468" lon="2.34587">
        <ele>181.2</ele>
        <time>2022-01-23T08:01:18.000Z</time>
      </trkpt>
      <trkpt lat="43.16466" lon="2.34587">
        <ele>181</ele>
        <time>2022-01-23T08:01:19.000Z</time>
      </trkpt>
      <trkpt lat="43.16464" lon="2.34587">
        <ele>180.8</ele>
        <time>2022-01-23T08:01:20.000Z</time>
      </trkpt>
      <trkpt lat="43.16462" lon="2.34587">
        <ele>180.6</ele>
        <time>2022-01-23T08:01:21.000Z</time>
      </trkpt>
      <trkpt lat="43.16459" lon="2.34587">
        <ele>180.4</ele>
        <time>2022-01-23T08:01:22.000Z</time>
      </trkpt>
      <trkpt lat="43.16457" lon="2.34587">
        <ele>180.2</ele>
        <time>2022-01-23T08:01:23.000Z</time>
      </trkpt>
      <trkpt lat="43.16455" lon="2.34587">
        <ele>179.9</ele>
        <time>2022-01-23T08:01:24.000Z</time>
      </trkpt>
      <trkpt lat="43.16453" lon="2.34587">
        <ele>179.7</ele>
        <time>2022-01-23T08:01:25.000Z</time>
      </trkpt>
      <trkpt lat="43.16451" lon="2.34587">
        <ele>179.6</ele>
        <time>2022-01-23T08:01:26.000Z</time>
      </trkpt>
      <trkpt lat="43.16449" lon="2.34587">
        <ele>179.4</ele>
        <time>2022-01-23T08:01:27.000Z</time>
      </trkpt>
      <trkpt lat="43.16447" lon="2.34588">
        <ele>179.4</ele>
        <time>2022-01-23T08:01:28.000Z</time>
      </trkpt>
      <trkpt lat="43.16446" lon="2.3459">
        <ele>179.4</ele>
        <time>2022-01-23T08:01:29.000Z</time>
      </trkpt>
      <trkpt lat="43.16445" lon="2.34592">
        <ele>179.4</ele>
        <time>2022-01-23T08:01:30.000Z</time>
      </trkpt>
      <trkpt lat="43.16444" lon="2.34595">
        <ele>179.5</ele>
        <time>2022-01-23T08:01:31.000Z</time>
      </trkpt>
      <trkpt lat="43.16443" lon="2.34597">
        <ele>179.5</ele>
        <time>2022-01-23T08:01:32.000Z</time>
      </trkpt>
      <trkpt lat="43.16441" lon="2.34598">
        <ele>179.6</ele>
        <time>2022-01-23T08:01:33.000Z</time>
      </trkpt>
      <trkpt lat="43.1644" lon="2.346">
        <ele>179.6</ele>
        <time>2022-01-23T08:01:34.000Z</time>
      </trkpt>
      <trkpt lat="43.16439" lon="2.346">
        <ele>179.5</ele>
        <time>2022-01-23T08:01:35.000Z</time>
      </trkpt>
      <trkpt lat="43.16438" lon="2.34601">
        <ele>179.4</ele>
        <time>2022-01-23T08:01:36.000Z</time>
      </trkpt>
      <trkpt lat="43.16437" lon="2.34601">
        <ele>179.4</ele>
        <time>2022-01-23T08:01:37.000Z</time>
      </trkpt>
      <trkpt lat="43.16436" lon="2.34601">
        <ele>179.3</ele>
        <time>2022-01-23T08:01:38.000Z</time>
      </trkpt>
      <trkpt lat="43.16436" lon="2.34601">
        <ele>179.2</ele>
        <time>2022-01-23T08:01:39.000Z</time>
      </trkpt>
      <trkpt lat="43.16435" lon="2.34601">
        <ele>179.2</ele>
        <time>2022-01-23T08:01:40.000Z</time>
      </trkpt>
      <trkpt lat="43.16435" lon="2.34601">
        <ele>179.2</ele>
        <time>2022-01-23T08:01:41.000Z</time>
      </trkpt>
      <trkpt lat="43.16435" lon="2.346">
        <ele>179.1</ele>
        <time>2022-01-23T08:01:42.000Z</time>
      </trkpt>
      <trkpt lat="43.16435" lon="2.346">
        <ele>179.1</ele>
        <time>2022-01-23T08:01:43.000Z</time>
      </trkpt>
      <trkpt lat="43.16435" lon="2.346">
        <ele>179.1</ele>
        <time>2022-01-23T08:01:44.000Z</time>
      </trkpt>
      <trkpt lat="43.16435" lon="2.346">
        <ele>179.1</ele>
        <time>2022-01-23T08:01:45.000Z</time>
      </trkpt>
      <trkpt lat="43.16435" lon="2.34599">
        <ele>179.1</ele>
        <time>2022-01-23T08:01:46.000Z</time>
      </trkpt>
      <trkpt lat="43.16435" lon="2.34599">
        <ele>179.1</ele>
        <time>2022-01-23T08:01:47.000Z</time>
      </trkpt>
      <trkpt lat="43.16435" lon="2.34599">
        <ele>179</ele>
        <time>2022-01-23T08:01:48.000Z</time>
      </trkpt>
      <trkpt lat="43.16435" lon="2.34599">
        <ele>179</ele>
        <time>2022-01-23T08:01:49.000Z</time>
      </trkpt>
      <trkpt lat="43.16435" lon="2.34599">
        <ele>179</ele>
        <time>2022-01-23T08:01:50.000Z</time>
      </trkpt>
      <trkpt lat="43.16435" lon="2.34599">
        <ele>179</ele>
        <time>2022-01-23T08:01:51.000Z</time>
      </trkpt>
      <trkpt lat="43.16435" lon="2.34599">
        <ele>179</ele>
        <time>2022-01-23T08:01:52.000Z</time>
      </trkpt>
      <trkpt lat="43.16435" lon="2.34599">
        <ele>179</ele>
        <time>2022-01-23T08:01:53.000Z</time>
      </trkpt>
      <trkpt lat="43.16435" lon="2.34599">
        <ele>179</ele>
        <time>2022-01-23T08:01:54.000Z</time>
      </trkpt>
      <trkpt lat="43.16435" lon="2.34599">
        <ele>179</ele>
        <time>2022-01-23T08:01:55.000Z</time>
      </trkpt>
      <trkpt lat="43.16435" lon="2.34599">
        <ele>179</ele>
        <time>2022-01-23T08:01:56.000Z</time>
      </trkpt>
      <trkpt lat="43.16435" lon="2.34599">
        <ele>179</ele>
        <time>2022-01-23T08:01:57.000Z</time>
      </trkpt>
      <trkpt lat="43.16435" lon="2.34599">
        <ele>179</ele>
        <time>2022-01-23T08:01:58.000Z</time>
      </trkpt>
      <trkpt lat="43.16436" lon="2.34599">
        <ele>179.1</ele>
        <time>2022-01-23T08:01:59.000Z</time>
      </trkpt>
      <trkpt lat="43.16436" lon="2.34599">
        <ele>179.1</ele>
        <time>2022-01-23T08:02:00.000Z</time>
      </trkpt>
      <trkpt lat="43.16436" lon="2.34599">
        <ele>179.1</ele>
        <time>2022-01-23T08:02:01.000Z</time>
      </trkpt>
      <trkpt lat="43.16436" lon="2.34599">
        <ele>179.1</ele>
        <time>2022-01-23T08:02:02.000Z</time>
      </trkpt>
      <trkpt lat="43.16436" lon="2.34599">
        <ele>179.1</ele>
        <time>2022-01-23T08:02:03.000Z</time>
      </trkpt>
      <trkpt lat="43.16436" lon="2.34599">
        <ele>179.1</ele>
        <time>2022-01-23T08:02:04.000Z</time>
      </trkpt>
      <trkpt lat="43.16436" lon="2.34599">
        <ele>179.1</ele>
        <time>2022-01-23T08:02:05.000Z</time>
      </trkpt>
      <trkpt lat="43.16436" lon="2.34599">
        <ele>179.1</ele>
        <time>2022-01-23T08:02:06.000Z</time>
      </trkpt>
      <trkpt lat="43.16436" lon="2.34599">
        <ele>179.1</ele>
        <time>2022-01-23T08:02:07.000Z</time>
      </trkpt>
      <trkpt lat="43.16436" lon="2.34599">
        <ele>179.1</ele>
        <time>2022-01-23T08:02:08.000Z</time>
      </trkpt>
      <trkpt lat="43.16436" lon="2.34599">
        <ele>179.1</ele>
        <time>2022-01-23T08:02:09.000Z</time>
      </trkpt>
      <trkpt lat="43.16436" lon="2.34599">
        <ele>179.1</ele>
        <time>2022-01-23T08:02:10.000Z</time>
      </trkpt>
      <trkpt lat="43.16436" lon="2.34599">
        <ele>179.1</ele>
        <time>2022-01-23T08:02:11.000Z</time>
      </trkpt>
      <trkpt lat="43.16436" lon="2.34599">
        <ele>179.1</ele>
        <time>2022-01-23T08:02:12.000Z</time>
      </trkpt>
      <trkpt lat="43.16436" lon="2.34599">
        <ele>179.1</ele>
        <time>2022-01-23T08:02:13.000Z</time>
      </trkpt>
      <trkpt lat="43.16436" lon="2.34599">
        <ele>179.1</ele>
        <time>2022-01-23T08:02:14.000Z</time>
      </trkpt>
      <trkpt lat="43.16436" lon="2.34599">
        <ele>179.1</ele>
        <time>2022-01-23T08:02:15.000Z</time>
      </trkpt>
      <trkpt lat="43.16436" lon="2.34599">
        <ele>179.1</ele>
        <time>2022-01-23T08:02:16.000Z</time>
      </trkpt>
      <trkpt lat="43.16436" lon="2.34599">
        <ele>179.1</ele>
        <time>2022-01-23T08:02:17.000Z</time>
      </trkpt>
      <trkpt lat="43.16436" lon="2.34599">
        <ele>179.1</ele>
        <time>2022-01-23T08:02:18.000Z</time>
      </trkpt>
      <trkpt lat="43.16436" lon="2.34599">
        <ele>179.1</ele>
        <time>2022-01-23T08:02:19.000Z</time>
      </trkpt>
      <trkpt lat="43.16436" lon="2.34599">
        <ele>179.1</ele>
        <time>2022-01-23T08:02:20.000Z</time>
      </trkpt>
      <trkpt lat="43.16436" lon="2.34599">
        <ele>179.1</ele>
        <time>2022-01-23T08:02:21.000Z</time>
      </trkpt>
      <trkpt lat="43.16436" lon="2.34599">
        <ele>179.1</ele>
        <time>2022-01-23T08:02:22.000Z</time>
      </trkpt>
      <trkpt lat="43.16436" lon="2.34599">
        <ele>179.1</ele>
        <time>2022-01-23T08:02:23.000Z</time>
      </trkpt>
      <trkpt lat="43.16436" lon="2.34599">
        <ele>179.1</ele>
        <time>2022-01-23T08:02:24.000Z</time>
      </trkpt>
      <trkpt lat="43.16436" lon="2.34599">
        <ele>179.1</ele>
        <time>2022-01-23T08:02:25.000Z</time>
      </trkpt>
      <trkpt lat="43.16436" lon="2.34599">
        <ele>179.1</ele>
        <time>2022-01-23T08:02:26.000Z</time>
      </trkpt>
      <trkpt lat="43.16436" lon="2.34599">
        <ele>179.1</ele>
        <time>2022-01-23T08:02:27.000Z</time>
      </trkpt>
      <trkpt lat="43.16436" lon="2.34599">
        <ele>179.1</ele>
        <time>2022-01-23T08:02:28.000Z</time>
      </trkpt>
      <trkpt lat="43.16436" lon="2.34599">
        <ele>179.1</ele>
        <time>2022-01-23T08:02:29.000Z</time>
      </trkpt>
      <trkpt lat="43.16436" lon="2.34599">
        <ele>179.1</ele>
        <time>2022-01-23T08:02:30.000Z</time>
      </trkpt>
      <trkpt lat="43.16436" lon="2.34599">
        <ele>179.1</ele>
        <time>2022-01-23T08:02:31.000Z</time>
      </trkpt>
      <trkpt lat="43.16436" lon="2.34599">
        <ele>179.1</ele>
        <time>2022-01-23T08:02:32.000Z</time>
      </trkpt>
      <trkpt lat="43.16436" lon="2.34599">
        <ele>179.1</ele>
        <time>2022-01-23T08:02:33.000Z</time>
      </trkpt>
      <trkpt lat="43.16436" lon="2.34599">
        <ele>179.1</ele>
        <time>2022-01-23T08:02:34.000Z</time>
      </trkpt>
      <trkpt lat="43.16436" lon="2.34599">
        <ele>179</ele>
        <time>2022-01-23T08:02:35.000Z</time>
      </trkpt>
      <trkpt lat="43.16436" lon="2.34599">
        <ele>179</ele>
        <time>2022-01-23T08:02:36.000Z</time>
      </trkpt>
      <trkpt lat="43.16435" lon="2.34599">
        <ele>179</ele>
        <time>2022-01-23T08:02:37.000Z</time>
      </trkpt>
      <trkpt lat="43.16435" lon="2.34599">
        <ele>179</ele>
        <time>2022-01-23T08:02:38.000Z</time>
      </trkpt>
      <trkpt lat="43.16435" lon="2.34598">
        <ele>179</ele>
        <time>2022-01-23T08:02:39.000Z</time>
      </trkpt>
      <trkpt lat="43.16435" lon="2.34598">
        <ele>179</ele>
        <time>2022-01-23T08:02:40.000Z</time>
      </trkpt>
      <trkpt lat="43.16435" lon="2.34598">
        <ele>179</ele>
        <time>2022-01-23T08:02:41.000Z</time>
      </trkpt>
      <trkpt lat="43.16435" lon="2.34598">
        <ele>179</ele>
        <time>2022-01-23T08:02:42.000Z</time>
      </trkpt>
      <trkpt lat="43.16435" lon="2.34598">
        <ele>179</ele>
        <time>2022-01-23T08:02:43.000Z</time>
      </trkpt>
      <trkpt lat="43.16435" lon="2.34598">
        <ele>178.9</ele>
        <time>2022-01-23T08:02:44.000Z</time>
      </trkpt>
      <trkpt lat="43.16435" lon="2.34597">
        <ele>178.9</ele>
        <time>2022-01-23T08:02:45.000Z</time>
      </trkpt>
      <trkpt lat="43.16435" lon="2.34597">
        <ele>178.9</ele>
        <time>2022-01-23T08:02:46.000Z</time>
      </trkpt>
      <trkpt lat="43.16435" lon="2.34597">
        <ele>178.9</ele>
        <time>2022-01-23T08:02:47.000Z</time>
      </trkpt>
      <trkpt lat="43.16435" lon="2.34596">
        <ele>178.8</ele>
        <time>2022-01-23T08:02:48.000Z</time>
      </trkpt>
      <trkpt lat="43.16435" lon="2.34596">
        <ele>178.8</ele>
        <time>2022-01-23T08:02:49.000Z</time>
      </trkpt>
      <trkpt lat="43.16435" lon="2.34595">
        <ele>178.7</ele>
        <time>2022-01-23T08:02:50.000Z</time>
      </trkpt>
      <trkpt lat="43.16434" lon="2.34595">
        <ele>178.6</ele>
        <time>2022-01-23T08:02:51.000Z</time>
      </trkpt>
      <trkpt lat="43.16434" lon="2.34594">
        <ele>178.5</ele>
        <time>2022-01-23T08:02:52.000Z</time>
      </trkpt>
      <trkpt lat="43.16434" lon="2.34593">
        <ele>178.4</ele>
        <time>2022-01-23T08:02:53.000Z</time>
      </trkpt>
      <trkpt lat="43.16433" lon="2.34591">
        <ele>178.2</ele>
        <time>2022-01-23T08:02:54.000Z</time>
      </trkpt>
      <trkpt lat="43.16433" lon="2.3459">
        <ele>178.1</ele>
        <time>2022-01-23T08:02:55.000Z</time>
      </trkpt>
      <trkpt lat="43.16433" lon="2.34588">
        <ele>177.9</ele>
        <time>2022-01-23T08:02:56.000Z</time>
      </trkpt>
      <trkpt lat="43.16432" lon="2.34586">
        <ele>177.7</ele>
        <time>2022-01-23T08:02:57.000Z</time>
      </trkpt>
      <trkpt lat="43.16432" lon="2.34584">
        <ele>177.5</ele>
        <time>2022-01-23T08:02:58.000Z</time>
      </trkpt>
      <trkpt lat="43.16431" lon="2.34582">
        <ele>177.3</ele>
        <time>2022-01-23T08:02:59.000Z</time>
      </trkpt>
      <trkpt lat="43.16431" lon="2.3458">
        <ele>177.1</ele>
        <time>2022-01-23T08:03:00.000Z</time>
      </trkpt>
      <trkpt lat="43.1643" lon="2.34578">
        <ele>176.9</ele>
        <time>2022-01-23T08:03:01.000Z</time>
      </trkpt>
      <trkpt lat="43.1643" lon="2.34576">
        <ele>176.7</ele>
        <time>2022-01-23T08:03:02.000Z</time>
      </trkpt>
      <trkpt lat="43.1643" lon="2.34574">
        <ele>176.6</ele>
        <time>2022-01-23T08:03:03.000Z</time>
      </trkpt>
      <trkpt lat="43.16429" lon="2.34572">
        <ele>176.4</ele>
        <time>2022-01-23T08:03:04.000Z</time>
      </trkpt>
      <trkpt lat="43.16429" lon="2.3457">
        <ele>176.2</ele>
        <time>2022-01-23T08:03:05.000Z</time>
      </trkpt>
      <trkpt lat="43.16428" lon="2.34568">
        <ele>176</ele>
        <time>2022-01-23T08:03:06.000Z</time>
      </trkpt>
      <trkpt lat="43.16428" lon="2.34566">
        <ele>175.8</ele>
        <time>2022-01-23T08:03:07.000Z</time>
      </trkpt>
      <trkpt lat="43.16427" lon="2.34564">
        <ele>175.6</ele>
        <time>2022-01-23T08:03:08.000Z</time>
      </trkpt>
      <trkpt lat="43.16426" lon="2.34562">
        <ele>175.4</ele>
        <time>2022-01-23T08:03:09.000Z</time>
      </trkpt>
      <trkpt lat="43.16425" lon="2.3456">
        <ele>175.1</ele>
        <time>2022-01-23T08:03:10.000Z</time>
      </trkpt>
      <trkpt lat="43.16424" lon="2.34558">
        <ele>174.9</ele>
        <time>2022-01-23T08:03:11.000Z</time>
      </trkpt>
      <trkpt lat="43.16422" lon="2.34556">
        <ele>174.6</ele>
        <time>2022-01-23T08:03:12.000Z</time>
      </trkpt>
      <trkpt lat="43.16421" lon="2.34554">
        <ele>174.3</ele>
        <time>2022-01-23T08:03:13.000Z</time>
      </trkpt>
      <trkpt lat="43.16419" lon="2.34552">
        <ele>174</ele>
        <time>2022-01-23T08:03:14.000Z</time>
      </trkpt>
      <trkpt lat="43.16417" lon="2.3455">
        <ele>173.7</ele>
        <time>2022-01-23T08:03:15.000Z</time>
      </trkpt>
      <trkpt lat="43.16416" lon="2.34548">
        <ele>173.5</ele>
        <time>2022-01-23T08:03:16.000Z</time>
      </trkpt>
      <trkpt lat="43.16415" lon="2.34546">
        <ele>173.4</ele>
        <time>2022-01-23T08:03:17.000Z</time>
      </trkpt>
      <trkpt lat="43.16414" lon="2.34544">
        <ele>173.2</ele>
        <time>2022-01-23T08:03:18.000Z</time>
      </trkpt>
      <trkpt lat="43.16414" lon="2.34542">
        <ele>173.1</ele>
        <time>2022-01-23T08:03:19.000Z</time>
      </trkpt>
      <trkpt lat="43.16414" lon="2.3454">
        <ele>172.9</ele>
        <time>2022-01-23T08:03:20.000Z</time>
      </trkpt>
      <trkpt lat="43.16415" lon="2.34538">
        <ele>172.8</ele>
        <time>2022-01-23T08:03:21.000Z</time>
      </trkpt>
      <trkpt lat="43.16416" lon="2.34536">
        <ele>172.6</ele>
        <time>2022-01-23T08:03:22.000Z</time>
      </trkpt>
      <trkpt lat="43.16417" lon="2.34534">
        <ele>172.5</ele>
        <time>2022-01-23T08:03:23.000Z</time>
      </trkpt>
      <trkpt lat="43.16417" lon="2.34533">
        <ele>172.4</ele>
        <time>2022-01-23T08:03:24.000Z</time>
      </trkpt>
      <trkpt lat="43.16417" lon="2.34532">
        <ele>172.3</ele>
        <time>2022-01-23T08:03:25.000Z</time>
      </trkpt>
      <trkpt lat="43.16417" lon="2.34531">
        <ele>172.3</ele>
        <time>2022-01-23T08:03:26.000Z</time>
      </trkpt>
      <trkpt lat="43.16417" lon="2.3453">
        <ele>172.2</ele>
        <time>2022-01-23T08:03:27.000Z</time>
      </trkpt>
      <trkpt lat="43.16416" lon="2.3453">
        <ele>172.2</ele>
        <time>2022-01-23T08:03:28.000Z</time>
      </trkpt>
      <trkpt lat="43.16414" lon="2.34529">
        <ele>172.1</ele>
        <time>2022-01-23T08:03:29.000Z</time>
      </trkpt>
      <trkpt lat="43.16413" lon="2.34528">
        <ele>172.1</ele>
        <time>2022-01-23T08:03:30.000Z</time>
      </trkpt>
      <trkpt lat="43.16411" lon="2.34527">
        <ele>172.1</ele>
        <time>2022-01-23T08:03:31.000Z</time>
      </trkpt>
      <trkpt lat="43.16409" lon="2.34526">
        <ele>172.1</ele>
        <time>2022-01-23T08:03:32.000Z</time>
      </trkpt>
      <trkpt lat="43.16408" lon="2.34525">
        <ele>172</ele>
        <time>2022-01-23T08:03:33.000Z</time>
      </trkpt>
      <trkpt lat="43.16407" lon="2.34523">
        <ele>171.9</ele>
        <time>2022-01-23T08:03:34.000Z</time>
      </trkpt>
      <trkpt lat="43.16406" lon="2.34522">
        <ele>171.8</ele>
        <time>2022-01-23T08:03:35.000Z</time>
      </trkpt>
      <trkpt lat="43.16406" lon="2.3452">
        <ele>171.7</ele>
        <time>2022-01-23T08:03:36.000Z</time>
      </trkpt>
      <trkpt lat="43.16405" lon="2.34518">
        <ele>171.6</ele>
        <time>2022-01-23T08:03:37.000Z</time>
      </trkpt>
      <trkpt lat="43.16404" lon="2.34517">
        <ele>171.5</ele>
        <time>2022-01-23T08:03:38.000Z</time>
      </trkpt>
      <trkpt lat="43.16402" lon="2.34515">
        <ele>171.4</ele>
        <time>2022-01-23T08:03:39.000Z</time>
      </trkpt>
      <trkpt lat="43.16401" lon="2.34513">
        <ele>171.3</ele>
        <time>2022-01-23T08:03:40.000Z</time>
      </trkpt>
      <trkpt lat="43.16399" lon="2.34512">
        <ele>171.3</ele>
        <time>2022-01-23T08:03:41.000Z</time>
      </trkpt>
      <trkpt lat="43.16397" lon="2.3451">
        <ele>171.2</ele>
        <time>2022-01-23T08:03:42.000Z</time>
      </trkpt>
      <trkpt lat="43.16395" lon="2.34508">
        <ele>171.1</ele>
        <time>2022-01-23T08:03:43.000Z</time>
      </trkpt>
      <trkpt lat="43.16394" lon="2.34505">
        <ele>170.9</ele>
        <time>2022-01-23T08:03:44.000Z</time>
      </trkpt>
      <trkpt lat="43.16392" lon="2.34503">
        <ele>170.8</ele>
        <time>2022-01-23T08:03:45.000Z</time>
      </trkpt>
      <trkpt lat="43.16391" lon="2.345">
        <ele>170.6</ele>
        <time>2022-01-23T08:03:46.000Z</time>
      </trkpt>
      <trkpt lat="43.16391" lon="2.34497">
        <ele>170.4</ele>
        <time>2022-01-23T08:03:47.000Z</time>
      </trkpt>
      <trkpt lat="43.1639" lon="2.34494">
        <ele>170.3</ele>
        <time>2022-01-23T08:03:48.000Z</time>
      </trkpt>
      <trkpt lat="43.16389" lon="2.3449">
        <ele>170.1</ele>
        <time>2022-01-23T08:03:49.000Z</time>
      </trkpt>
      <trkpt lat="43.16389" lon="2.34487">
        <ele>169.9</ele>
        <time>2022-01-23T08:03:50.000Z</time>
      </trkpt>
      <trkpt lat="43.16388" lon="2.34484">
        <ele>169.8</ele>
        <time>2022-01-23T08:03:51.000Z</time>
      </trkpt>
      <trkpt lat="43.16388" lon="2.34481">
        <ele>169.6</ele>
        <time>2022-01-23T08:03:52.000Z</time>
      </trkpt>
      <trkpt lat="43.16387" lon="2.34478">
        <ele>169.5</ele>
        <time>2022-01-23T08:03:53.000Z</time>
      </trkpt>
      <trkpt lat="43.16386" lon="2.34477">
        <ele>169.4</ele>
        <time>2022-01-23T08:03:54.000Z</time>
      </trkpt>
      <trkpt lat="43.16386" lon="2.34476">
        <ele>169.4</ele>
        <time>2022-01-23T08:03:55.000Z</time>
      </trkpt>
      <trkpt lat="43.16385" lon="2.34477">
        <ele>169.5</ele>
        <time>2022-01-23T08:03:56.000Z</time>
      </trkpt>
      <trkpt lat="43.16384" lon="2.34478">
        <ele>169.5</ele>
        <time>2022-01-23T08:03:57.000Z</time>
      </trkpt>
      <trkpt lat="43.16384" lon="2.3448">
        <ele>169.7</ele>
        <time>2022-01-23T08:03:58.000Z</time>
      </trkpt>
      <trkpt lat="43.16384" lon="2.34482">
        <ele>169.8</ele>
        <time>2022-01-23T08:03:59.000Z</time>
      </trkpt>
      <trkpt lat="43.16383" lon="2.34485">
        <ele>169.9</ele>
        <time>2022-01-23T08:04:00.000Z</time>
      </trkpt>
      <trkpt lat="43.16383" lon="2.34487">
        <ele>170.1</ele>
        <time>2022-01-23T08:04:01.000Z</time>
      </trkpt>
      <trkpt lat="43.16383" lon="2.3449">
        <ele>170.3</ele>
        <time>2022-01-23T08:04:02.000Z</time>
      </trkpt>
      <trkpt lat="43.16382" lon="2.34492">
        <ele>170.4</ele>
        <time>2022-01-23T08:04:03.000Z</time>
      </trkpt>
      <trkpt lat="43.16382" lon="2.34495">
        <ele>170.5</ele>
        <time>2022-01-23T08:04:04.000Z</time>
      </trkpt>
      <trkpt lat="43.16382" lon="2.34497">
        <ele>170.7</ele>
        <time>2022-01-23T08:04:05.000Z</time>
      </trkpt>
      <trkpt lat="43.16381" lon="2.34499">
        <ele>170.8</ele>
        <time>2022-01-23T08:04:06.000Z</time>
      </trkpt>
      <trkpt lat="43.16381" lon="2.34501">
        <ele>170.9</ele>
        <time>2022-01-23T08:04:07.000Z</time>
      </trkpt>
      <trkpt lat="43.16381" lon="2.34503">
        <ele>171</ele>
        <time>2022-01-23T08:04:08.000Z</time>
      </trkpt>
      <trkpt lat="43.1638" lon="2.34504">
        <ele>171.2</ele>
        <time>2022-01-23T08:04:09.000Z</time>
      </trkpt>
      <trkpt lat="43.1638" lon="2.34506">
        <ele>171.3</ele>
        <time>2022-01-23T08:04:10.000Z</time>
      </trkpt>
      <trkpt lat="43.16379" lon="2.34508">
        <ele>171.5</ele>
        <time>2022-01-23T08:04:11.000Z</time>
      </trkpt>
      <trkpt lat="43.16379" lon="2.3451">
        <ele>171.6</ele>
        <time>2022-01-23T08:04:12.000Z</time>
      </trkpt>
      <trkpt lat="43.16378" lon="2.34512">
        <ele>171.8</ele>
        <time>2022-01-23T08:04:13.000Z</time>
      </trkpt>
      <trkpt lat="43.16377" lon="2.34514">
        <ele>172</ele>
        <time>2022-01-23T08:04:14.000Z</time>
      </trkpt>
      <trkpt lat="43.16377" lon="2.34516">
        <ele>172.1</ele>
        <time>2022-01-23T08:04:15.000Z</time>
      </trkpt>
      <trkpt lat="43.16376" lon="2.34518">
        <ele>172.3</ele>
        <time>2022-01-23T08:04:16.000Z</time>
      </trkpt>
      <trkpt lat="43.16375" lon="2.3452">
        <ele>172.4</ele>
        <time>2022-01-23T08:04:17.000Z</time>
      </trkpt>
      <trkpt lat="43.16373" lon="2.34521">
        <ele>172.6</ele>
        <time>2022-01-23T08:04:18.000Z</time>
      </trkpt>
      <trkpt lat="43.16372" lon="2.34522">
        <ele>172.7</ele>
        <time>2022-01-23T08:04:19.000Z</time>
      </trkpt>
      <trkpt lat="43.16371" lon="2.34523">
        <ele>172.7</ele>
        <time>2022-01-23T08:04:20.000Z</time>
      </trkpt>
      <trkpt lat="43.16369" lon="2.34523">
        <ele>172.8</ele>
        <time>2022-01-23T08:04:21.000Z</time>
      </trkpt>
      <trkpt lat="43.16367" lon="2.34523">
        <ele>172.9</ele>
        <time>2022-01-23T08:04:22.000Z</time>
      </trkpt>
      <trkpt lat="43.16366" lon="2.34524">
        <ele>172.9</ele>
        <time>2022-01-23T08:04:23.000Z</time>
      </trkpt>
      <trkpt lat="43.16364" lon="2.34524">
        <ele>173</ele>
        <time>2022-01-23T08:04:24.000Z</time>
      </trkpt>
      <trkpt lat="43.16362" lon="2.34524">
        <ele>173</ele>
        <time>2022-01-23T08:04:25.000Z</time>
      </trkpt>
      <trkpt lat="43.16361" lon="2.34524">
        <ele>173.1</ele>
        <time>2022-01-23T08:04:26.000Z</time>
      </trkpt>
      <trkpt lat="43.16359" lon="2.34525">
        <ele>173.2</ele>
        <time>2022-01-23T08:04:27.000Z</time>
      </trkpt>
      <trkpt lat="43.16358" lon="2.34526">
        <ele>173.3</ele>
        <time>2022-01-23T08:04:28.000Z</time>
      </trkpt>
      <trkpt lat="43.16356" lon="2.34527">
        <ele>173.4</ele>
        <time>2022-01-23T08:04:29.000Z</time>
      </trkpt>
      <trkpt lat="43.16355" lon="2.34529">
        <ele>173.6</ele>
        <time>2022-01-23T08:04:30.000Z</time>
      </trkpt>
      <trkpt lat="43.16354" lon="2.34531">
        <ele>173.8</ele>
        <time>2022-01-23T08:04:31.000Z</time>
      </trkpt>
      <trkpt lat="43.16353" lon="2.34533">
        <ele>173.9</ele>
        <time>2022-01-23T08:04:32.000Z</time>
      </trkpt>
      <trkpt lat="43.16352" lon="2.34536">
        <ele>174.1</ele>
        <time>2022-01-23T08:04:33.000Z</time>
      </trkpt>
      <trkpt lat="43.16351" lon="2.34538">
        <ele>174.3</ele>
        <time>2022-01-23T08:04:34.000Z</time>
      </trkpt>
      <trkpt lat="43.1635" lon="2.34541">
        <ele>174.5</ele>
        <time>2022-01-23T08:04:35.000Z</time>
      </trkpt>
      <trkpt lat="43.1635" lon="2.34543">
        <ele>174.7</ele>
        <time>2022-01-23T08:04:36.000Z</time>
      </trkpt>
      <trkpt lat="43.16349" lon="2.34545">
        <ele>174.8</ele>
        <time>2022-01-23T08:04:37.000Z</time>
      </trkpt>
      <trkpt lat="43.16349" lon="2.34546">
        <ele>175</ele>
        <time>2022-01-23T08:04:38.000Z</time>
      </trkpt>
      <trkpt lat="43.16349" lon="2.34548">
        <ele>175.1</ele>
        <time>2022-01-23T08:04:39.000Z</time>
      </trkpt>
      <trkpt lat="43.16348" lon="2.3455">
        <ele>175.2</ele>
        <time>2022-01-23T08:04:40.000Z</time>
      </trkpt>
      <trkpt lat="43.16348" lon="2.34551">
        <ele>175.3</ele>
        <time>2022-01-23T08:04:41.000Z</time>
      </trkpt>
      <trkpt lat="43.16348" lon="2.34553">
        <ele>175.5</ele>
        <time>2022-01-23T08:04:42.000Z</time>
      </trkpt>
      <trkpt lat="43.16347" lon="2.34555">
        <ele>175.7</ele>
        <time>2022-01-23T08:04:43.000Z</time>
      </trkpt>
      <trkpt lat="43.16346" lon="2.34558">
        <ele>175.9</ele>
        <time>2022-01-23T08:04:44.000Z</time>
      </trkpt>
      <trkpt lat="43.16346" lon="2.3456">
        <ele>176</ele>
        <time>2022-01-23T08:04:45.000Z</time>
      </trkpt>
      <trkpt lat="43.16345" lon="2.34563">
        <ele>176.2</ele>
        <time>2022-01-23T08:04:46.000Z</time>
      </trkpt>
      <trkpt lat="43.16345" lon="2.34565">
        <ele>176.4</ele>
        <time>2022-01-23T08:04:47.000Z</time>
      </trkpt>
      <trkpt lat="43.16344" lon="2.34568">
        <ele>176.6</ele>
        <time>2022-01-23T08:04:48.000Z</time>
      </trkpt>
      <trkpt lat="43.16344" lon="2.3457">
        <ele>176.8</ele>
        <time>2022-01-23T08:04:49.000Z</time>
      </trkpt>
      <trkpt lat="43.16344" lon="2.34572">
        <ele>176.9</ele>
        <time>2022-01-23T08:04:50.000Z</time>
      </trkpt>
      <trkpt lat="43.16345" lon="2.34574">
        <ele>177</ele>
        <time>2022-01-23T08:04:51.000Z</time>
      </trkpt>
      <trkpt lat="43.16345" lon="2.34576">
        <ele>177.2</ele>
        <time>2022-01-23T08:04:52.000Z</time>
      </trkpt>
      <trkpt lat="43.16345" lon="2.34578">
        <ele>177.3</ele>
        <time>2022-01-23T08:04:53.000Z</time>
      </trkpt>
      <trkpt lat="43.16345" lon="2.3458">
        <ele>177.5</ele>
        <time>2022-01-23T08:04:54.000Z</time>
      </trkpt>
      <trkpt lat="43.16346" lon="2.34582">
        <ele>177.6</ele>
        <time>2022-01-23T08:04:55.000Z</time>
      </trkpt>
      <trkpt lat="43.16346" lon="2.34584">
        <ele>177.7</ele>
        <time>2022-01-23T08:04:56.000Z</time>
      </trkpt>
      <trkpt lat="43.16347" lon="2.34586">
        <ele>177.9</ele>
        <time>2022-01-23T08:04:57.000Z</time>
      </trkpt>
      <trkpt lat="43.16347" lon="2.34588">
        <ele>178</ele>
        <time>2022-01-23T08:04:58.000Z</time>
      </trkpt>
      <trkpt lat="43.16347" lon="2.3459">
        <ele>178.1</ele>
        <time>2022-01-23T08:04:59.000Z</time>
      </trkpt>
      <trkpt lat="43.16348" lon="2.34593">
        <ele>178.2</ele>
        <time>2022-01-23T08:05:00.000Z</time>
      </trkpt>
      <trkpt lat="43.16348" lon="2.34595">
        <ele>178.4</ele>
        <time>2022-01-23T08:05:01.000Z</time>
      </trkpt>
      <trkpt lat="43.16348" lon="2.34597">
        <ele>178.5</ele>
        <time>2022-01-23T08:05:02.000Z</time>
      </trkpt>
      <trkpt lat="43.16348" lon="2.34598">
        <ele>178.6</ele>
        <time>2022-01-23T08:05:03.000Z</time>
      </trkpt>
      <trkpt lat="43.16348" lon="2.346">
        <ele>178.7</ele>
        <time>2022-01-23T08:05:04.000Z</time>
      </trkpt>
      <trkpt lat="43.16347" lon="2.34602">
        <ele>178.9</ele>
        <time>2022-01-23T08:05:05.000Z</time>
      </trkpt>
      <trkpt lat="43.16347" lon="2.34604">
        <ele>179</ele>
        <time>2022-01-23T08:05:06.000Z</time>
      </trkpt>
      <trkpt lat="43.16346" lon="2.34605">
        <ele>179.1</ele>
        <time>2022-01-23T08:05:07.000Z</time>
      </trkpt>
      <trkpt lat="43.16346" lon="2.34607">
        <ele>179.2</ele>
        <time>2022-01-23T08:05:08.000Z</time>
      </trkpt>
      <trkpt lat="43.16345" lon="2.34609">
        <ele>179.3</ele>
        <time>2022-01-23T08:05:09.000Z</time>
      </trkpt>
      <trkpt lat="43.16344" lon="2.3461">
        <ele>179.4</ele>
        <time>2022-01-23T08:05:10.000Z</time>
      </trkpt>
      <trkpt lat="43.16343" lon="2.34612">
        <ele>179.5</ele>
        <time>2022-01-23T08:05:11.000Z</time>
      </trkpt>
      <trkpt lat="43.16342" lon="2.34613">
        <ele>179.7</ele>
        <time>2022-01-23T08:05:12.000Z</time>
      </trkpt>
      <trkpt lat="43.16341" lon="2.34615">
        <ele>179.8</ele>
        <time>2022-01-23T08:05:13.000Z</time>
      </trkpt>
      <trkpt lat="43.16339" lon="2.34616">
        <ele>179.9</ele>
        <time>2022-01-23T08:05:14.000Z</time>
      </trkpt>
      <trkpt lat="43.16338" lon="2.34618">
        <ele>180</ele>
        <time>2022-01-23T08:05:15.000Z</time>
      </trkpt>
      <trkpt lat="43.16337" lon="2.3462">
        <ele>180.1</ele>
        <time>2022-01-23T08:05:16.000Z</time>
      </trkpt>
      <trkpt lat="43.16336" lon="2.34621">
        <ele>180.2</ele>
        <time>2022-01-23T08:05:17.000Z</time>
      </trkpt>
      <trkpt lat="43.16335" lon="2.34623">
        <ele>180.4</ele>
        <time>2022-01-23T08:05:18.000Z</time>
      </trkpt>
      <trkpt lat="43.16334" lon="2.34625">
        <ele>180.5</ele>
        <time>2022-01-23T08:05:19.000Z</time>
      </trkpt>
      <trkpt lat="43.16334" lon="2.34627">
        <ele>180.6</ele>
        <time>2022-01-23T08:05:20.000Z</time>
      </trkpt>
      <trkpt lat="43.16334" lon="2.3463">
        <ele>180.8</ele>
        <time>2022-01-23T08:05:21.000Z</time>
      </trkpt>
      <trkpt lat="43.16334" lon="2.34632">
        <ele>180.9</ele>
        <time>2022-01-23T08:05:22.000Z</time>
      </trkpt>
      <trkpt lat="43.16334" lon="2.34635">
        <ele>181.1</ele>
        <time>2022-01-23T08:05:23.000Z</time>
      </trkpt>
      <trkpt lat="43.16334" lon="2.34638">
        <ele>181.3</ele>
        <time>2022-01-23T08:05:24.000Z</time>
      </trkpt>
      <trkpt lat="43.16333" lon="2.34641">
        <ele>181.5</ele>
        <time>2022-01-23T08:05:25.000Z</time>
      </trkpt>
      <trkpt lat="43.16333" lon="2.34644">
        <ele>181.6</ele>
        <time>2022-01-23T08:05:26.000Z</time>
      </trkpt>
      <trkpt lat="43.16333" lon="2.34648">
        <ele>181.8</ele>
        <time>2022-01-23T08:05:27.000Z</time>
      </trkpt>
      <trkpt lat="43.16332" lon="2.34651">
        <ele>182</ele>
        <time>2022-01-23T08:05:28.000Z</time>
      </trkpt>
      <trkpt lat="43.16332" lon="2.34654">
        <ele>182.2</ele>
        <time>2022-01-23T08:05:29.000Z</time>
      </trkpt>
      <trkpt lat="43.16333" lon="2.34657">
        <ele>182.4</ele>
        <time>2022-01-23T08:05:30.000Z</time>
      </trkpt>
      <trkpt lat="43.16333" lon="2.34659">
        <ele>182.5</ele>
        <time>2022-01-23T08:05:31.000Z</time>
      </trkpt>
      <trkpt lat="43.16333" lon="2.34661">
        <ele>182.7</ele>
        <time>2022-01-23T08:05:32.000Z</time>
      </trkpt>
      <trkpt lat="43.16334" lon="2.34664">
        <ele>182.8</ele>
        <time>2022-01-23T08:05:33.000Z</time>
      </trkpt>
      <trkpt lat="43.16334" lon="2.34666">
        <ele>183</ele>
        <time>2022-01-23T08:05:34.000Z</time>
      </trkpt>
      <trkpt lat="43.16334" lon="2.34669">
        <ele>183.1</ele>
        <time>2022-01-23T08:05:35.000Z</time>
      </trkpt>
      <trkpt lat="43.16335" lon="2.34671">
        <ele>183.2</ele>
        <time>2022-01-23T08:05:36.000Z</time>
      </trkpt>
      <trkpt lat="43.16335" lon="2.34673">
        <ele>183.3</ele>
        <time>2022-01-23T08:05:37.000Z</time>
      </trkpt>
      <trkpt lat="43.16335" lon="2.34674">
        <ele>183.4</ele>
        <time>2022-01-23T08:05:38.000Z</time>
      </trkpt>
      <trkpt lat="43.16335" lon="2.34676">
        <ele>183.4</ele>
        <time>2022-01-23T08:05:39.000Z</time>
      </trkpt>
      <trkpt lat="43.16334" lon="2.34677">
        <ele>183.5</ele>
        <time>2022-01-23T08:05:40.000Z</time>
      </trkpt>
      <trkpt lat="43.16334" lon="2.34678">
        <ele>183.5</ele>
        <time>2022-01-23T08:05:41.000Z</time>
      </trkpt>
      <trkpt lat="43.16333" lon="2.34678">
        <ele>183.5</ele>
        <time>2022-01-23T08:05:42.000Z</time>
      </trkpt>
      <trkpt lat="43.16332" lon="2.34679">
        <ele>183.5</ele>
        <time>2022-01-23T08:05:43.000Z</time>
      </trkpt>
      <trkpt lat="43.16331" lon="2.34679">
        <ele>183.5</ele>
        <time>2022-01-23T08:05:44.000Z</time>
      </trkpt>
      <trkpt lat="43.1633" lon="2.34679">
        <ele>183.5</ele>
        <time>2022-01-23T08:05:45.000Z</time>
      </trkpt>
      <trkpt lat="43.16329" lon="2.34679">
        <ele>183.5</ele>
        <time>2022-01-23T08:05:46.000Z</time>
      </trkpt>
      <trkpt lat="43.16328" lon="2.34679">
        <ele>183.4</ele>
        <time>2022-01-23T08:05:47.000Z</time>
      </trkpt>
      <trkpt lat="43.16327" lon="2.34679">
        <ele>183.4</ele>
        <time>2022-01-23T08:05:48.000Z</time>
      </trkpt>
      <trkpt lat="43.16326" lon="2.34679">
        <ele>183.4</ele>
        <time>2022-01-23T08:05:49.000Z</time>
      </trkpt>
      <trkpt lat="43.16325" lon="2.34679">
        <ele>183.4</ele>
        <time>2022-01-23T08:05:50.000Z</time>
      </trkpt>
      <trkpt lat="43.16324" lon="2.34679">
        <ele>183.3</ele>
        <time>2022-01-23T08:05:51.000Z</time>
      </trkpt>
      <trkpt lat="43.16324" lon="2.3468">
        <ele>183.3</ele>
        <time>2022-01-23T08:05:52.000Z</time>
      </trkpt>
      <trkpt lat="43.16323" lon="2.3468">
        <ele>183.3</ele>
        <time>2022-01-23T08:05:53.000Z</time>
      </trkpt>
      <trkpt lat="43.16323" lon="2.3468">
        <ele>183.3</ele>
        <time>2022-01-23T08:05:54.000Z</time>
      </trkpt>
      <trkpt lat="43.16322" lon="2.34681">
        <ele>183.3</ele>
        <time>2022-01-23T08:05:55.000Z</time>
      </trkpt>
      <trkpt lat="43.16321" lon="2.34681">
        <ele>183.3</ele>
        <time>2022-01-23T08:05:56.000Z</time>
      </trkpt>
      <trkpt lat="43.1632" lon="2.34681">
        <ele>183.3</ele>
        <time>2022-01-23T08:05:57.000Z</time>
      </trkpt>
      <trkpt lat="43.16319" lon="2.34682">
        <ele>183.3</ele>
        <time>2022-01-23T08:05:58.000Z</time>
      </trkpt>
      <trkpt lat="43.16318" lon="2.34682">
        <ele>183.2</ele>
        <time>2022-01-23T08:05:59.000Z</time>
      </trkpt>
      <trkpt lat="43.16317" lon="2.34682">
        <ele>183.2</ele>
        <time>2022-01-23T08:06:00.000Z</time>
      </trkpt>
      <trkpt lat="43.16315" lon="2.34682">
        <ele>183.2</ele>
        <time>2022-01-23T08:06:01.000Z</time>
      </trkpt>
      <trkpt lat="43.16314" lon="2.34682">
        <ele>183.2</ele>
        <time>2022-01-23T08:06:02.000Z</time>
      </trkpt>
      <trkpt lat="43.16313" lon="2.34682">
        <ele>183.1</ele>
        <time>2022-01-23T08:06:03.000Z</time>
      </trkpt>
      <trkpt lat="43.16313" lon="2.34682">
        <ele>183.1</ele>
        <time>2022-01-23T08:06:04.000Z</time>
      </trkpt>
      <trkpt lat="43.16312" lon="2.34682">
        <ele>183.1</ele>
        <time>2022-01-23T08:06:05.000Z</time>
      </trkpt>
      <trkpt lat="43.16312" lon="2.34682">
        <ele>183</ele>
        <time>2022-01-23T08:06:06.000Z</time>
      </trkpt>
      <trkpt lat="43.16311" lon="2.34681">
        <ele>183</ele>
        <time>2022-01-23T08:06:07.000Z</time>
      </trkpt>
      <trkpt lat="43.16311" lon="2.34681">
        <ele>183</ele>
        <time>2022-01-23T08:06:08.000Z</time>
      </trkpt>
      <trkpt lat="43.16311" lon="2.34681">
        <ele>183</ele>
        <time>2022-01-23T08:06:09.000Z</time>
      </trkpt>
      <trkpt lat="43.1631" lon="2.3468">
        <ele>183</ele>
        <time>2022-01-23T08:06:10.000Z</time>
      </trkpt>
      <trkpt lat="43.1631" lon="2.3468">
        <ele>183</ele>
        <time>2022-01-23T08:06:11.000Z</time>
      </trkpt>
      <trkpt lat="43.1631" lon="2.3468">
        <ele>182.9</ele>
        <time>2022-01-23T08:06:12.000Z</time>
      </trkpt>
      <trkpt lat="43.1631" lon="2.3468">
        <ele>182.9</ele>
        <time>2022-01-23T08:06:13.000Z</time>
      </trkpt>
      <trkpt lat="43.1631" lon="2.34679">
        <ele>182.9</ele>
        <time>2022-01-23T08:06:14.000Z</time>
      </trkpt>
      <trkpt lat="43.1631" lon="2.34679">
        <ele>182.9</ele>
        <time>2022-01-23T08:06:15.000Z</time>
      </trkpt>
      <trkpt lat="43.1631" lon="2.34679">
        <ele>182.9</ele>
        <time>2022-01-23T08:06:16.000Z</time>
      </trkpt>
      <trkpt lat="43.1631" lon="2.34679">
        <ele>182.9</ele>
        <time>2022-01-23T08:06:17.000Z</time>
      </trkpt>
      <trkpt lat="43.1631" lon="2.34679">
        <ele>182.9</ele>
        <time>2022-01-23T08:06:18.000Z</time>
      </trkpt>
      <trkpt lat="43.1631" lon="2.34679">
        <ele>182.9</ele>
        <time>2022-01-23T08:06:19.000Z</time>
      </trkpt>
      <trkpt lat="43.1631" lon="2.34679">
        <ele>182.9</ele>
        <time>2022-01-23T08:06:20.000Z</time>
      </trkpt>
      <trkpt lat="43.1631" lon="2.34679">
        <ele>182.9</ele>
        <time>2022-01-23T08:06:21.000Z</time>
      </trkpt>
      <trkpt lat="43.1631" lon="2.34679">
        <ele>182.9</ele>
        <time>2022-01-23T08:06:22.000Z</time>
      </trkpt>
      <trkpt lat="43.1631" lon="2.34679">
        <ele>182.9</ele>
        <time>2022-01-23T08:06:23.000Z</time>
      </trkpt>
      <trkpt lat="43.1631" lon="2.34679">
        <ele>182.9</ele>
        <time>2022-01-23T08:06:24.000Z</time>
      </trkpt>
      <trkpt lat="43.1631" lon="2.34679">
        <ele>182.9</ele>
        <time>2022-01-23T08:06:25.000Z</time>
      </trkpt>
      <trkpt lat="43.1631" lon="2.34679">
        <ele>182.9</ele>
        <time>2022-01-23T08:06:26.000Z</time>
      </trkpt>
      <trkpt lat="43.1631" lon="2.34679">
        <ele>182.9</ele>
        <time>2022-01-23T08:06:27.000Z</time>
      </trkpt>
      <trkpt lat="43.1631" lon="2.34679">
        <ele>182.9</ele>
        <time>2022-01-23T08:06:28.000Z</time>
      </trkpt>
      <trkpt lat="43.1631" lon="2.34679">
        <ele>182.9</ele>
        <time>2022-01-23T08:06:29.000Z</time>
      </trkpt>
      <trkpt lat="43.1631" lon="2.34679">
        <ele>182.9</ele>
        <time>2022-01-23T08:06:30.000Z</time>
      </trkpt>
      <trkpt lat="43.1631" lon="2.34679">
        <ele>182.9</ele>
        <time>2022-01-23T08:06:31.000Z</time>
      </trkpt>
      <trkpt lat="43.1631" lon="2.34679">
        <ele>182.9</ele>
        <time>2022-01-23T08:06:32.000Z</time>
      </trkpt>
      <trkpt lat="43.1631" lon="2.34679">
        <ele>182.9</ele>
        <time>2022-01-23T08:06:33.000Z</time>
      </trkpt>
      <trkpt lat="43.1631" lon="2.34679">
        <ele>182.9</ele>
        <time>2022-01-23T08:06:34.000Z</time>
      </trkpt>
      <trkpt lat="43.1631" lon="2.34679">
        <ele>182.9</ele>
        <time>2022-01-23T08:06:35.000Z</time>
      </trkpt>
      <trkpt lat="43.1631" lon="2.34679">
        <ele>182.9</ele>
        <time>2022-01-23T08:06:36.000Z</time>
      </trkpt>
      <trkpt lat="43.1631" lon="2.34679">
        <ele>182.9</ele>
        <time>2022-01-23T08:06:37.000Z</time>
      </trkpt>
      <trkpt lat="43.1631" lon="2.34679">
        <ele>182.9</ele>
        <time>2022-01-23T08:06:38.000Z</time>
      </trkpt>
      <trkpt lat="43.1631" lon="2.34679">
        <ele>182.9</ele>
        <time>2022-01-23T08:06:39.000Z</time>
      </trkpt>
      <trkpt lat="43.1631" lon="2.34679">
        <ele>182.9</ele>
        <time>2022-01-23T08:06:40.000Z</time>
      </trkpt>
      <trkpt lat="43.1631" lon="2.34679">
        <ele>182.9</ele>
        <time>2022-01-23T08:06:41.000Z</time>
      </trkpt>
      <trkpt lat="43.1631" lon="2.34679">
        <ele>182.9</ele>
        <time>2022-01-23T08:06:42.000Z</time>
      </trkpt>
      <trkpt lat="43.1631" lon="2.34679">
        <ele>182.9</ele>
        <time>2022-01-23T08:06:43.000Z</time>
      </trkpt>
      <trkpt lat="43.1631" lon="2.34679">
        <ele>182.9</ele>
        <time>2022-01-23T08:06:44.000Z</time>
      </trkpt>
      <trkpt lat="43.1631" lon="2.34679">
        <ele>182.9</ele>
        <time>2022-01-23T08:06:45.000Z</time>
      </trkpt>
      <trkpt lat="43.1631" lon="2.34679">
        <ele>182.9</ele>
        <time>2022-01-23T08:06:46.000Z</time>
      </trkpt>
      <trkpt lat="43.16309" lon="2.34679">
        <ele>182.9</ele>
        <time>2022-01-23T08:06:47.000Z</time>
      </trkpt>
      <trkpt lat="43.16309" lon="2.34679">
        <ele>182.9</ele>
        <time>2022-01-23T08:06:48.000Z</time>
      </trkpt>
      <trkpt lat="43.16309" lon="2.34678">
        <ele>182.8</ele>
        <time>2022-01-23T08:06:49.000Z</time>
      </trkpt>
      <trkpt lat="43.16308" lon="2.34678">
        <ele>182.8</ele>
        <time>2022-01-23T08:06:50.000Z</time>
      </trkpt>
      <trkpt lat="43.16307" lon="2.34678">
        <ele>182.8</ele>
        <time>2022-01-23T08:06:51.000Z</time>
      </trkpt>
      <trkpt lat="43.16306" lon="2.34678">
        <ele>182.7</ele>
        <time>2022-01-23T08:06:52.000Z</time>
      </trkpt>
      <trkpt lat="43.16304" lon="2.34678">
        <ele>182.7</ele>
        <time>2022-01-23T08:06:53.000Z</time>
      </trkpt>
      <trkpt lat="43.16302" lon="2.34678">
        <ele>182.6</ele>
        <time>2022-01-23T08:06:54.000Z</time>
      </trkpt>
      <trkpt lat="43.163" lon="2.34678">
        <ele>182.6</ele>
        <time>2022-01-23T08:06:55.000Z</time>
      </trkpt>
      <trkpt lat="43.16297" lon="2.34677">
        <ele>182.5</ele>
        <time>2022-01-23T08:06:56.000Z</time>
      </trkpt>
      <trkpt lat="43.16295" lon="2.34677">
        <ele>182.4</ele>
        <time>2022-01-23T08:06:57.000Z</time>
      </trkpt>
      <trkpt lat="43.16293" lon="2.34675">
        <ele>182.3</ele>
        <time>2022-01-23T08:06:58.000Z</time>
      </trkpt>
      <trkpt lat="43.16291" lon="2.34674">
        <ele>182.2</ele>
        <time>2022-01-23T08:06:59.000Z</time>
      </trkpt>
      <trkpt lat="43.16289" lon="2.34671">
        <ele>182.1</ele>
        <time>2022-01-23T08:07:00.000Z</time>
      </trkpt>
      <trkpt lat="43.16287" lon="2.34668">
        <ele>181.9</ele>
        <time>2022-01-23T08:07:01.000Z</time>
      </trkpt>
      <trkpt lat="43.16285" lon="2.34665">
        <ele>181.8</ele>
        <time>2022-01-23T08:07:02.000Z</time>
      </trkpt>
      <trkpt lat="43.16284" lon="2.34662">
        <ele>181.5</ele>
        <time>2022-01-23T08:07:03.000Z</time>
      </trkpt>
      <trkpt lat="43.16282" lon="2.34658">
        <ele>181.3</ele>
        <time>2022-01-23T08:07:04.000Z</time>
      </trkpt>
      <trkpt lat="43.16281" lon="2.34654">
        <ele>181.1</ele>
        <time>2022-01-23T08:07:05.000Z</time>
      </trkpt>
      <trkpt lat="43.1628" lon="2.34651">
        <ele>180.9</ele>
        <time>2022-01-23T08:07:06.000Z</time>
      </trkpt>
      <trkpt lat="43.1628" lon="2.34647">
        <ele>180.7</ele>
        <time>2022-01-23T08:07:07.000Z</time>
      </trkpt>
      <trkpt lat="43.16279" lon="2.34644">
        <ele>180.5</ele>
        <time>2022-01-23T08:07:08.000Z</time>
      </trkpt>
      <trkpt lat="43.16278" lon="2.3464">
        <ele>180.3</ele>
        <time>2022-01-23T08:07:09.000Z</time>
      </trkpt>
      <trkpt lat="43.16278" lon="2.34636">
        <ele>180.1</ele>
        <time>2022-01-23T08:07:10.000Z</time>
      </trkpt>
      <trkpt lat="43.16277" lon="2.34633">
        <ele>179.9</ele>
        <time>2022-01-23T08:07:11.000Z</time>
      </trkpt>
      <trkpt lat="43.16276" lon="2.34629">
        <ele>179.7</ele>
        <time>2022-01-23T08:07:12.000Z</time>
      </trkpt>
      <trkpt lat="43.16276" lon="2.34626">
        <ele>179.5</ele>
        <time>2022-01-23T08:07:13.000Z</time>
      </trkpt>
      <trkpt lat="43.16275" lon="2.34622">
        <ele>179.3</ele>
        <time>2022-01-23T08:07:14.000Z</time>
      </trkpt>
      <trkpt lat="43.16274" lon="2.34619">
        <ele>179.1</ele>
        <time>2022-01-23T08:07:15.000Z</time>
      </trkpt>
      <trkpt lat="43.16273" lon="2.34615">
        <ele>178.9</ele>
        <time>2022-01-23T08:07:16.000Z</time>
      </trkpt>
      <trkpt lat="43.16272" lon="2.34612">
        <ele>178.7</ele>
        <time>2022-01-23T08:07:17.000Z</time>
      </trkpt>
      <trkpt lat="43.16271" lon="2.34608">
        <ele>178.5</ele>
        <time>2022-01-23T08:07:18.000Z</time>
      </trkpt>
      <trkpt lat="43.1627" lon="2.34604">
        <ele>178.3</ele>
        <time>2022-01-23T08:07:19.000Z</time>
      </trkpt>
      <trkpt lat="43.1627" lon="2.34601">
        <ele>178.1</ele>
        <time>2022-01-23T08:07:20.000Z</time>
      </trkpt>
      <trkpt lat="43.16269" lon="2.34597">
        <ele>177.9</ele>
        <time>2022-01-23T08:07:21.000Z</time>
      </trkpt>
      <trkpt lat="43.16269" lon="2.34593">
        <ele>177.7</ele>
        <time>2022-01-23T08:07:22.000Z</time>
      </trkpt>
      <trkpt lat="43.16268" lon="2.34589">
        <ele>177.5</ele>
        <time>2022-01-23T08:07:23.000Z</time>
      </trkpt>
      <trkpt lat="43.16268" lon="2.34585">
        <ele>177.3</ele>
        <time>2022-01-23T08:07:24.000Z</time>
      </trkpt>
      <trkpt lat="43.16268" lon="2.34581">
        <ele>177.1</ele>
        <time>2022-01-23T08:07:25.000Z</time>
      </trkpt>
      <trkpt lat="43.16268" lon="2.34577">
        <ele>177.1</ele>
        <time>2022-01-23T08:07:26.000Z</time>
      </trkpt>
      <trkpt lat="43.16268" lon="2.34573">
        <ele>177</ele>
        <time>2022-01-23T08:07:27.000Z</time>
      </trkpt>
      <trkpt lat="43.16269" lon="2.3457">
        <ele>176.9</ele>
        <time>2022-01-23T08:07:28.000Z</time>
      </trkpt>
      <trkpt lat="43.16269" lon="2.34567">
        <ele>176.8</ele>
        <time>2022-01-23T08:07:29.000Z</time>
      </trkpt>
      <trkpt lat="43.1627" lon="2.34564">
        <ele>176.7</ele>
        <time>2022-01-23T08:07:30.000Z</time>
      </trkpt>
      <trkpt lat="43.16271" lon="2.3456">
        <ele>176.6</ele>
        <time>2022-01-23T08:07:31.000Z</time>
      </trkpt>
      <trkpt lat="43.16272" lon="2.34557">
        <ele>176.5</ele>
        <time>2022-01-23T08:07:32.000Z</time>
      </trkpt>
      <trkpt lat="43.16273" lon="2.34554">
        <ele>176.4</ele>
        <time>2022-01-23T08:07:33.000Z</time>
      </trkpt>
      <trkpt lat="43.16274" lon="2.34551">
        <ele>176.3</ele>
        <time>2022-01-23T08:07:34.000Z</time>
      </trkpt>
      <trkpt lat="43.16275" lon="2.34548">
        <ele>176.2</ele>
        <time>2022-01-23T08:07:35.000Z</time>
      </trkpt>
      <trkpt lat="43.16276" lon="2.34544">
        <ele>176.1</ele>
        <time>2022-01-23T08:07:36.000Z</time>
      </trkpt>
      <trkpt lat="43.16277" lon="2.34541">
        <ele>176</ele>
        <time>2022-01-23T08:07:37.000Z</time>
      </trkpt>
      <trkpt lat="43.16278" lon="2.34537">
        <ele>175.8</ele>
        <time>2022-01-23T08:07:38.000Z</time>
      </trkpt>
      <trkpt lat="43.16279" lon="2.34533">
        <ele>175.7</ele>
        <time>2022-01-23T08:07:39.000Z</time>
      </trkpt>
      <trkpt lat="43.1628" lon="2.34529">
        <ele>175.5</ele>
        <time>2022-01-23T08:07:40.000Z</time>
      </trkpt>
      <trkpt lat="43.16281" lon="2.34526">
        <ele>175.4</ele>
        <time>2022-01-23T08:07:41.000Z</time>
      </trkpt>
      <trkpt lat="43.16282" lon="2.34521">
        <ele>175.2</ele>
        <time>2022-01-23T08:07:42.000Z</time>
      </trkpt>
      <trkpt lat="43.16283" lon="2.34517">
        <ele>175</ele>
        <time>2022-01-23T08:07:43.000Z</time>
      </trkpt>
      <trkpt lat="43.16283" lon="2.34513">
        <ele>174.9</ele>
        <time>2022-01-23T08:07:44.000Z</time>
      </trkpt>
      <trkpt lat="43.16283" lon="2.34509">
        <ele>174.7</ele>
        <time>2022-01-23T08:07:45.000Z</time>
      </trkpt>
      <trkpt lat="43.16283" lon="2.34505">
        <ele>174.6</ele>
        <time>2022-01-23T08:07:46.000Z</time>
      </trkpt>
      <trkpt lat="43.16283" lon="2.34501">
        <ele>174.5</ele>
        <time>2022-01-23T08:07:47.000Z</time>
      </trkpt>
      <trkpt lat="43.16282" lon="2.34498">
        <ele>174.4</ele>
        <time>2022-01-23T08:07:48.000Z</time>
      </trkpt>
      <trkpt lat="43.16281" lon="2.34494">
        <ele>174.3</ele>
        <time>2022-01-23T08:07:49.000Z</time>
      </trkpt>
      <trkpt lat="43.1628" lon="2.3449">
        <ele>174.2</ele>
        <time>2022-01-23T08:07:50.000Z</time>
      </trkpt>
      <trkpt lat="43.16279" lon="2.34487">
        <ele>174.1</ele>
        <time>2022-01-23T08:07:51.000Z</time>
      </trkpt>
      <trkpt lat="43.16278" lon="2.34483">
        <ele>174</ele>
        <time>2022-01-23T08:07:52.000Z</time>
      </trkpt>
      <trkpt lat="43.16277" lon="2.3448">
        <ele>173.9</ele>
        <time>2022-01-23T08:07:53.000Z</time>
      </trkpt>
      <trkpt lat="43.16276" lon="2.34476">
        <ele>173.8</ele>
        <time>2022-01-23T08:07:54.000Z</time>
      </trkpt>
      <trkpt lat="43.16275" lon="2.34472">
        <ele>173.7</ele>
        <time>2022-01-23T08:07:55.000Z</time>
      </trkpt>
      <trkpt lat="43.16274" lon="2.34469">
        <ele>173.6</ele>
        <time>2022-01-23T08:07:56.000Z</time>
      </trkpt>
      <trkpt lat="43.16273" lon="2.34465">
        <ele>173.5</ele>
        <time>2022-01-23T08:07:57.000Z</time>
      </trkpt>
      <trkpt lat="43.16273" lon="2.34462">
        <ele>173.4</ele>
        <time>2022-01-23T08:07:58.000Z</time>
      </trkpt>
      <trkpt lat="43.16272" lon="2.34458">
        <ele>173.3</ele>
        <time>2022-01-23T08:07:59.000Z</time>
      </trkpt>
      <trkpt lat="43.16272" lon="2.34455">
        <ele>173.2</ele>
        <time>2022-01-23T08:08:00.000Z</time>
      </trkpt>
      <trkpt lat="43.16272" lon="2.34451">
        <ele>173</ele>
        <time>2022-01-23T08:08:01.000Z</time>
      </trkpt>
      <trkpt lat="43.16272" lon="2.34448">
        <ele>172.9</ele>
        <time>2022-01-23T08:08:02.000Z</time>
      </trkpt>
      <trkpt lat="43.16272" lon="2.34444">
        <ele>172.7</ele>
        <time>2022-01-23T08:08:03.000Z</time>
      </trkpt>
      <trkpt lat="43.16273" lon="2.3444">
        <ele>172.6</ele>
        <time>2022-01-23T08:08:04.000Z</time>
      </trkpt>
      <trkpt lat="43.16273" lon="2.34437">
        <ele>172.4</ele>
        <time>2022-01-23T08:08:05.000Z</time>
      </trkpt>
      <trkpt lat="43.16274" lon="2.34433">
        <ele>172.2</ele>
        <time>2022-01-23T08:08:06.000Z</time>
      </trkpt>
      <trkpt lat="43.16274" lon="2.34429">
        <ele>172</ele>
        <time>2022-01-23T08:08:07.000Z</time>
      </trkpt>
      <trkpt lat="43.16275" lon="2.34426">
        <ele>171.9</ele>
        <time>2022-01-23T08:08:08.000Z</time>
      </trkpt>
      <trkpt lat="43.16276" lon="2.34422">
        <ele>171.7</ele>
        <time>2022-01-23T08:08:09.000Z</time>
      </trkpt>
      <trkpt lat="43.16276" lon="2.34419">
        <ele>171.5</ele>
        <time>2022-01-23T08:08:10.000Z</time>
      </trkpt>
      <trkpt lat="43.16277" lon="2.34416">
        <ele>171.3</ele>
        <time>2022-01-23T08:08:11.000Z</time>
      </trkpt>
      <trkpt lat="43.16278" lon="2.34413">
        <ele>170.9</ele>
        <time>2022-01-23T08:08:12.000Z</time>
      </trkpt>
      <trkpt lat="43.1628" lon="2.3441">
        <ele>170.6</ele>
        <time>2022-01-23T08:08:13.000Z</time>
      </trkpt>
      <trkpt lat="43.16281" lon="2.34407">
        <ele>170.3</ele>
        <time>2022-01-23T08:08:14.000Z</time>
      </trkpt>
      <trkpt lat="43.16282" lon="2.34405">
        <ele>169.9</ele>
        <time>2022-01-23T08:08:15.000Z</time>
      </trkpt>
      <trkpt lat="43.16283" lon="2.34402">
        <ele>169.7</ele>
        <time>2022-01-23T08:08:16.000Z</time>
      </trkpt>
      <trkpt lat="43.16285" lon="2.344">
        <ele>169.4</ele>
        <time>2022-01-23T08:08:17.000Z</time>
      </trkpt>
      <trkpt lat="43.16286" lon="2.34398">
        <ele>169.1</ele>
        <time>2022-01-23T08:08:18.000Z</time>
      </trkpt>
      <trkpt lat="43.16288" lon="2.34395">
        <ele>168.8</ele>
        <time>2022-01-23T08:08:19.000Z</time>
      </trkpt>
      <trkpt lat="43.16289" lon="2.34393">
        <ele>168.5</ele>
        <time>2022-01-23T08:08:20.000Z</time>
      </trkpt>
      <trkpt lat="43.16291" lon="2.3439">
        <ele>168.2</ele>
        <time>2022-01-23T08:08:21.000Z</time>
      </trkpt>
      <trkpt lat="43.16293" lon="2.34388">
        <ele>167.8</ele>
        <time>2022-01-23T08:08:22.000Z</time>
      </trkpt>
      <trkpt lat="43.16294" lon="2.34385">
        <ele>167.5</ele>
        <time>2022-01-23T08:08:23.000Z</time>
      </trkpt>
      <trkpt lat="43.16296" lon="2.34381">
        <ele>167.1</ele>
        <time>2022-01-23T08:08:24.000Z</time>
      </trkpt>
      <trkpt lat="43.16298" lon="2.34378">
        <ele>166.8</ele>
        <time>2022-01-23T08:08:25.000Z</time>
      </trkpt>
      <trkpt lat="43.16299" lon="2.34375">
        <ele>166.4</ele>
        <time>2022-01-23T08:08:26.000Z</time>
      </trkpt>
      <trkpt lat="43.16301" lon="2.34371">
        <ele>166</ele>
        <time>2022-01-23T08:08:27.000Z</time>
      </trkpt>
      <trkpt lat="43.16302" lon="2.34368">
        <ele>165.7</ele>
        <time>2022-01-23T08:08:28.000Z</time>
      </trkpt>
      <trkpt lat="43.16303" lon="2.34364">
        <ele>165.3</ele>
        <time>2022-01-23T08:08:29.000Z</time>
      </trkpt>
      <trkpt lat="43.16304" lon="2.34361">
        <ele>165</ele>
        <time>2022-01-23T08:08:30.000Z</time>
      </trkpt>
      <trkpt lat="43.16305" lon="2.34357">
        <ele>164.7</ele>
        <time>2022-01-23T08:08:31.000Z</time>
      </trkpt>
      <trkpt lat="43.16306" lon="2.34354">
        <ele>164.3</ele>
        <time>2022-01-23T08:08:32.000Z</time>
      </trkpt>
      <trkpt lat="43.16307" lon="2.3435">
        <ele>164</ele>
        <time>2022-01-23T08:08:33.000Z</time>
      </trkpt>
      <trkpt lat="43.16308" lon="2.34347">
        <ele>163.7</ele>
        <time>2022-01-23T08:08:34.000Z</time>
      </trkpt>
      <trkpt lat="43.16308" lon="2.34343">
        <ele>163.4</ele>
        <time>2022-01-23T08:08:35.000Z</time>
      </trkpt>
      <trkpt lat="43.16309" lon="2.3434">
        <ele>163.1</ele>
        <time>2022-01-23T08:08:36.000Z</time>
      </trkpt>
      <trkpt lat="43.1631" lon="2.34337">
        <ele>162.8</ele>
        <time>2022-01-23T08:08:37.000Z</time>
      </trkpt>
      <trkpt lat="43.1631" lon="2.34333">
        <ele>162.5</ele>
        <time>2022-01-23T08:08:38.000Z</time>
      </trkpt>
      <trkpt lat="43.16311" lon="2.3433">
        <ele>162.3</ele>
        <time>2022-01-23T08:08:39.000Z</time>
      </trkpt>
      <trkpt lat="43.16311" lon="2.34326">
        <ele>162</ele>
        <time>2022-01-23T08:08:40.000Z</time>
      </trkpt>
      <trkpt lat="43.16312" lon="2.34323">
        <ele>161.7</ele>
        <time>2022-01-23T08:08:41.000Z</time>
      </trkpt>
      <trkpt lat="43.16312" lon="2.34319">
        <ele>161.4</ele>
        <time>2022-01-23T08:08:42.000Z</time>
      </trkpt>
      <trkpt lat="43.16313" lon="2.34316">
        <ele>161.2</ele>
        <time>2022-01-23T08:08:43.000Z</time>
      </trkpt>
      <trkpt lat="43.16313" lon="2.34313">
        <ele>160.9</ele>
        <time>2022-01-23T08:08:44.000Z</time>
      </trkpt>
      <trkpt lat="43.16313" lon="2.3431">
        <ele>160.7</ele>
        <time>2022-01-23T08:08:45.000Z</time>
      </trkpt>
      <trkpt lat="43.16313" lon="2.34307">
        <ele>160.5</ele>
        <time>2022-01-23T08:08:46.000Z</time>
      </trkpt>
      <trkpt lat="43.16313" lon="2.34305">
        <ele>160.3</ele>
        <time>2022-01-23T08:08:47.000Z</time>
      </trkpt>
      <trkpt lat="43.16313" lon="2.34302">
        <ele>160.2</ele>
        <time>2022-01-23T08:08:48.000Z</time>
      </trkpt>
      <trkpt lat="43.16313" lon="2.34301">
        <ele>160</ele>
        <time>2022-01-23T08:08:49.000Z</time>
      </trkpt>
      <trkpt lat="43.16313" lon="2.34299">
        <ele>159.9</ele>
        <time>2022-01-23T08:08:50.000Z</time>
      </trkpt>
      <trkpt lat="43.16312" lon="2.34298">
        <ele>159.8</ele>
        <time>2022-01-23T08:08:51.000Z</time>
      </trkpt>
      <trkpt lat="43.16312" lon="2.34297">
        <ele>159.8</ele>
        <time>2022-01-23T08:08:52.000Z</time>
      </trkpt>
      <trkpt lat="43.16311" lon="2.34296">
        <ele>159.7</ele>
        <time>2022-01-23T08:08:53.000Z</time>
      </trkpt>
      <trkpt lat="43.1631" lon="2.34295">
        <ele>159.7</ele>
        <time>2022-01-23T08:08:54.000Z</time>
      </trkpt>
      <trkpt lat="43.1631" lon="2.34295">
        <ele>159.7</ele>
        <time>2022-01-23T08:08:55.000Z</time>
      </trkpt>
      <trkpt lat="43.16309" lon="2.34295">
        <ele>159.7</ele>
        <time>2022-01-23T08:08:56.000Z</time>
      </trkpt>
      <trkpt lat="43.16309" lon="2.34295">
        <ele>159.7</ele>
        <time>2022-01-23T08:08:57.000Z</time>
      </trkpt>
      <trkpt lat="43.16308" lon="2.34296">
        <ele>159.7</ele>
        <time>2022-01-23T08:08:58.000Z</time>
      </trkpt>
      <trkpt lat="43.16308" lon="2.34296">
        <ele>159.8</ele>
        <time>2022-01-23T08:08:59.000Z</time>
      </trkpt>
      <trkpt lat="43.16307" lon="2.34297">
        <ele>159.8</ele>
        <time>2022-01-23T08:09:00.000Z</time>
      </trkpt>
      <trkpt lat="43.16307" lon="2.34297">
        <ele>159.9</ele>
        <time>2022-01-23T08:09:01.000Z</time>
      </trkpt>
      <trkpt lat="43.16306" lon="2.34298">
        <ele>159.9</ele>
        <time>2022-01-23T08:09:02.000Z</time>
      </trkpt>
      <trkpt lat="43.16306" lon="2.34298">
        <ele>160</ele>
        <time>2022-01-23T08:09:03.000Z</time>
      </trkpt>
      <trkpt lat="43.16305" lon="2.34299">
        <ele>160.1</ele>
        <time>2022-01-23T08:09:04.000Z</time>
      </trkpt>
      <trkpt lat="43.16304" lon="2.34299">
        <ele>160.1</ele>
        <time>2022-01-23T08:09:05.000Z</time>
      </trkpt>
      <trkpt lat="43.16303" lon="2.343">
        <ele>160.1</ele>
        <time>2022-01-23T08:09:06.000Z</time>
      </trkpt>
      <trkpt lat="43.16303" lon="2.343">
        <ele>160.2</ele>
        <time>2022-01-23T08:09:07.000Z</time>
      </trkpt>
      <trkpt lat="43.16302" lon="2.343">
        <ele>160.2</ele>
        <time>2022-01-23T08:09:08.000Z</time>
      </trkpt>
      <trkpt lat="43.16301" lon="2.34301">
        <ele>160.3</ele>
        <time>2022-01-23T08:09:09.000Z</time>
      </trkpt>
      <trkpt lat="43.163" lon="2.34301">
        <ele>160.3</ele>
        <time>2022-01-23T08:09:10.000Z</time>
      </trkpt>
      <trkpt lat="43.16299" lon="2.34302">
        <ele>160.4</ele>
        <time>2022-01-23T08:09:11.000Z</time>
      </trkpt>
      <trkpt lat="43.16299" lon="2.34303">
        <ele>160.5</ele>
        <time>2022-01-23T08:09:12.000Z</time>
      </trkpt>
      <trkpt lat="43.16298" lon="2.34304">
        <ele>160.6</ele>
        <time>2022-01-23T08:09:13.000Z</time>
      </trkpt>
      <trkpt lat="43.16297" lon="2.34306">
        <ele>160.7</ele>
        <time>2022-01-23T08:09:14.000Z</time>
      </trkpt>
      <trkpt lat="43.16297" lon="2.34307">
        <ele>160.9</ele>
        <time>2022-01-23T08:09:15.000Z</time>
      </trkpt>
      <trkpt lat="43.16297" lon="2.34309">
        <ele>161</ele>
        <time>2022-01-23T08:09:16.000Z</time>
      </trkpt>
      <trkpt lat="43.16296" lon="2.34311">
        <ele>161.2</ele>
        <time>2022-01-23T08:09:17.000Z</time>
      </trkpt>
      <trkpt lat="43.16296" lon="2.34313">
        <ele>161.3</ele>
        <time>2022-01-23T08:09:18.000Z</time>
      </trkpt>
      <trkpt lat="43.16296" lon="2.34315">
        <ele>161.5</ele>
        <time>2022-01-23T08:09:19.000Z</time>
      </trkpt>
      <trkpt lat="43.16295" lon="2.34317">
        <ele>161.6</ele>
        <time>2022-01-23T08:09:20.000Z</time>
      </trkpt>
      <trkpt lat="43.16295" lon="2.34318">
        <ele>161.8</ele>
        <time>2022-01-23T08:09:21.000Z</time>
      </trkpt>
      <trkpt lat="43.16294" lon="2.3432">
        <ele>161.9</ele>
        <time>2022-01-23T08:09:22.000Z</time>
      </trkpt>
      <trkpt lat="43.16293" lon="2.3432">
        <ele>162</ele>
        <time>2022-01-23T08:09:23.000Z</time>
      </trkpt>
      <trkpt lat="43.16292" lon="2.34321">
        <ele>162</ele>
        <time>2022-01-23T08:09:24.000Z</time>
      </trkpt>
      <trkpt lat="43.1629" lon="2.34321">
        <ele>162.1</ele>
        <time>2022-01-23T08:09:25.000Z</time>
      </trkpt>
      <trkpt lat="43.16289" lon="2.34322">
        <ele>162.2</ele>
        <time>2022-01-23T08:09:26.000Z</time>
      </trkpt>
      <trkpt lat="43.16288" lon="2.34322">
        <ele>162.2</ele>
        <time>2022-01-23T08:09:27.000Z</time>
      </trkpt>
      <trkpt lat="43.16286" lon="2.34323">
        <ele>162.3</ele>
        <time>2022-01-23T08:09:28.000Z</time>
      </trkpt>
      <trkpt lat="43.16285" lon="2.34324">
        <ele>162.4</ele>
        <time>2022-01-23T08:09:29.000Z</time>
      </trkpt>
      <trkpt lat="43.16284" lon="2.34325">
        <ele>162.6</ele>
        <time>2022-01-23T08:09:30.000Z</time>
      </trkpt>
      <trkpt lat="43.16283" lon="2.34327">
        <ele>162.7</ele>
        <time>2022-01-23T08:09:31.000Z</time>
      </trkpt>
      <trkpt lat="43.16282" lon="2.34329">
        <ele>162.9</ele>
        <time>2022-01-23T08:09:32.000Z</time>
      </trkpt>
      <trkpt lat="43.16281" lon="2.34331">
        <ele>163</ele>
        <time>2022-01-23T08:09:33.000Z</time>
      </trkpt>
      <trkpt lat="43.16281" lon="2.34333">
        <ele>163.2</ele>
        <time>2022-01-23T08:09:34.000Z</time>
      </trkpt>
      <trkpt lat="43.1628" lon="2.34335">
        <ele>163.4</ele>
        <time>2022-01-23T08:09:35.000Z</time>
      </trkpt>
      <trkpt lat="43.1628" lon="2.34337">
        <ele>163.6</ele>
        <time>2022-01-23T08:09:36.000Z</time>
      </trkpt>
      <trkpt lat="43.1628" lon="2.34339">
        <ele>163.8</ele>
        <time>2022-01-23T08:09:37.000Z</time>
      </trkpt>
      <trkpt lat="43.16279" lon="2.34341">
        <ele>164</ele>
        <time>2022-01-23T08:09:38.000Z</time>
      </trkpt>
      <trkpt lat="43.16279" lon="2.34342">
        <ele>164.2</ele>
        <time>2022-01-23T08:09:39.000Z</time>
      </trkpt>
      <trkpt lat="43.16279" lon="2.34344">
        <ele>164.3</ele>
        <time>2022-01-23T08:09:40.000Z</time>
      </trkpt>
      <trkpt lat="43.16279" lon="2.34345">
        <ele>164.4</ele>
        <time>2022-01-23T08:09:41.000Z</time>
      </trkpt>
      <trkpt lat="43.16279" lon="2.34346">
        <ele>164.5</ele>
        <time>2022-01-23T08:09:42.000Z</time>
      </trkpt>
      <trkpt lat="43.16278" lon="2.34348">
        <ele>164.7</ele>
        <time>2022-01-23T08:09:43.000Z</time>
      </trkpt>
      <trkpt lat="43.16278" lon="2.34349">
        <ele>164.8</ele>
        <time>2022-01-23T08:09:44.000Z</time>
      </trkpt>
      <trkpt lat="43.16278" lon="2.3435">
        <ele>165</ele>
        <time>2022-01-23T08:09:45.000Z</time>
      </trkpt>
      <trkpt lat="43.16277" lon="2.34352">
        <ele>165.1</ele>
        <time>2022-01-23T08:09:46.000Z</time>
      </trkpt>
      <trkpt lat="43.16277" lon="2.34353">
        <ele>165.2</ele>
        <time>2022-01-23T08:09:47.000Z</time>
      </trkpt>
      <trkpt lat="43.16276" lon="2.34354">
        <ele>165.3</ele>
        <time>2022-01-23T08:09:48.000Z</time>
      </trkpt>
      <trkpt lat="43.16276" lon="2.34355">
        <ele>165.5</ele>
        <time>2022-01-23T08:09:49.000Z</time>
      </trkpt>
      <trkpt lat="43.16275" lon="2.34355">
        <ele>165.5</ele>
        <time>2022-01-23T08:09:50.000Z</time>
      </trkpt>
      <trkpt lat="43.16274" lon="2.34356">
        <ele>165.6</ele>
        <time>2022-01-23T08:09:51.000Z</time>
      </trkpt>
      <trkpt lat="43.16273" lon="2.34356">
        <ele>165.7</ele>
        <time>2022-01-23T08:09:52.000Z</time>
      </trkpt>
      <trkpt lat="43.16273" lon="2.34357">
        <ele>165.8</ele>
        <time>2022-01-23T08:09:53.000Z</time>
      </trkpt>
      <trkpt lat="43.16272" lon="2.34357">
        <ele>165.8</ele>
        <time>2022-01-23T08:09:54.000Z</time>
      </trkpt>
      <trkpt lat="43.16272" lon="2.34358">
        <ele>165.9</ele>
        <time>2022-01-23T08:09:55.000Z</time>
      </trkpt>
      <trkpt lat="43.16272" lon="2.34359">
        <ele>166</ele>
        <time>2022-01-23T08:09:56.000Z</time>
      </trkpt>
      <trkpt lat="43.16271" lon="2.34361">
        <ele>166.2</ele>
        <time>2022-01-23T08:09:57.000Z</time>
      </trkpt>
      <trkpt lat="43.16271" lon="2.34362">
        <ele>166.3</ele>
        <time>2022-01-23T08:09:58.000Z</time>
      </trkpt>
      <trkpt lat="43.1627" lon="2.34363">
        <ele>166.5</ele>
        <time>2022-01-23T08:09:59.000Z</time>
      </trkpt>
      <trkpt lat="43.1627" lon="2.34365">
        <ele>166.6</ele>
        <time>2022-01-23T08:10:00.000Z</time>
      </trkpt>
      <trkpt lat="43.16269" lon="2.34366">
        <ele>166.8</ele>
        <time>2022-01-23T08:10:01.000Z</time>
      </trkpt>
      <trkpt lat="43.16269" lon="2.34367">
        <ele>166.9</ele>
        <time>2022-01-23T08:10:02.000Z</time>
      </trkpt>
      <trkpt lat="43.16268" lon="2.34368">
        <ele>167</ele>
        <time>2022-01-23T08:10:03.000Z</time>
      </trkpt>
      <trkpt lat="43.16267" lon="2.34369">
        <ele>167.2</ele>
        <time>2022-01-23T08:10:04.000Z</time>
      </trkpt>
      <trkpt lat="43.16267" lon="2.3437">
        <ele>167.3</ele>
        <time>2022-01-23T08:10:05.000Z</time>
      </trkpt>
      <trkpt lat="43.16266" lon="2.3437">
        <ele>167.4</ele>
        <time>2022-01-23T08:10:06.000Z</time>
      </trkpt>
      <trkpt lat="43.16265" lon="2.34371">
        <ele>167.5</ele>
        <time>2022-01-23T08:10:07.000Z</time>
      </trkpt>
      <trkpt lat="43.16264" lon="2.34372">
        <ele>167.6</ele>
        <time>2022-01-23T08:10:08.000Z</time>
      </trkpt>
      <trkpt lat="43.16264" lon="2.34373">
        <ele>167.7</ele>
        <time>2022-01-23T08:10:09.000Z</time>
      </trkpt>
      <trkpt lat="43.16263" lon="2.34374">
        <ele>167.9</ele>
        <time>2022-01-23T08:10:10.000Z</time>
      </trkpt>
      <trkpt lat="43.16262" lon="2.34375">
        <ele>168</ele>
        <time>2022-01-23T08:10:11.000Z</time>
      </trkpt>
      <trkpt lat="43.16262" lon="2.34376">
        <ele>168.1</ele>
        <time>2022-01-23T08:10:12.000Z</time>
      </trkpt>
      <trkpt lat="43.16261" lon="2.34377">
        <ele>168.2</ele>
        <time>2022-01-23T08:10:13.000Z</time>
      </trkpt>
      <trkpt lat="43.16261" lon="2.34378">
        <ele>168.4</ele>
        <time>2022-01-23T08:10:14.000Z</time>
      </trkpt>
      <trkpt lat="43.16261" lon="2.3438">
        <ele>168.5</ele>
        <time>2022-01-23T08:10:15.000Z</time>
      </trkpt>
      <trkpt lat="43.16261" lon="2.34381">
        <ele>168.7</ele>
        <time>2022-01-23T08:10:16.000Z</time>
      </trkpt>
      <trkpt lat="43.1626" lon="2.34383">
        <ele>168.8</ele>
        <time>2022-01-23T08:10:17.000Z</time>
      </trkpt>
      <trkpt lat="43.1626" lon="2.34384">
        <ele>169</ele>
        <time>2022-01-23T08:10:18.000Z</time>
      </trkpt>
      <trkpt lat="43.1626" lon="2.34386">
        <ele>169.2</ele>
        <time>2022-01-23T08:10:19.000Z</time>
      </trkpt>
      <trkpt lat="43.1626" lon="2.34387">
        <ele>169.3</ele>
        <time>2022-01-23T08:10:20.000Z</time>
      </trkpt>
      <trkpt lat="43.1626" lon="2.34389">
        <ele>169.5</ele>
        <time>2022-01-23T08:10:21.000Z</time>
      </trkpt>
      <trkpt lat="43.1626" lon="2.3439">
        <ele>169.7</ele>
        <time>2022-01-23T08:10:22.000Z</time>
      </trkpt>
      <trkpt lat="43.1626" lon="2.34392">
        <ele>169.8</ele>
        <time>2022-01-23T08:10:23.000Z</time>
      </trkpt>
      <trkpt lat="43.16259" lon="2.34393">
        <ele>170</ele>
        <time>2022-01-23T08:10:24.000Z</time>
      </trkpt>
      <trkpt lat="43.16259" lon="2.34395">
        <ele>170.2</ele>
        <time>2022-01-23T08:10:25.000Z</time>
      </trkpt>
      <trkpt lat="43.16258" lon="2.34396">
        <ele>170.3</ele>
        <time>2022-01-23T08:10:26.000Z</time>
      </trkpt>
      <trkpt lat="43.16258" lon="2.34397">
        <ele>170.5</ele>
        <time>2022-01-23T08:10:27.000Z</time>
      </trkpt>
      <trkpt lat="43.16257" lon="2.34399">
        <ele>170.7</ele>
        <time>2022-01-23T08:10:28.000Z</time>
      </trkpt>
      <trkpt lat="43.16257" lon="2.344">
        <ele>170.8</ele>
        <time>2022-01-23T08:10:29.000Z</time>
      </trkpt>
      <trkpt lat="43.16256" lon="2.34401">
        <ele>171</ele>
        <time>2022-01-23T08:10:30.000Z</time>
      </trkpt>
      <trkpt lat="43.16256" lon="2.34402">
        <ele>171.1</ele>
        <time>2022-01-23T08:10:31.000Z</time>
      </trkpt>
      <trkpt lat="43.16255" lon="2.34403">
        <ele>171.3</ele>
        <time>2022-01-23T08:10:32.000Z</time>
      </trkpt>
      <trkpt lat="43.16254" lon="2.34404">
        <ele>171.4</ele>
        <time>2022-01-23T08:10:33.000Z</time>
      </trkpt>
      <trkpt lat="43.16254" lon="2.34405">
        <ele>171.5</ele>
        <time>2022-01-23T08:10:34.000Z</time>
      </trkpt>
      <trkpt lat="43.16254" lon="2.34406">
        <ele>171.6</ele>
        <time>2022-01-23T08:10:35.000Z</time>
      </trkpt>
      <trkpt lat="43.16253" lon="2.34406">
        <ele>171.7</ele>
        <time>2022-01-23T08:10:36.000Z</time>
      </trkpt>
      <trkpt lat="43.16253" lon="2.34407">
        <ele>171.8</ele>
        <time>2022-01-23T08:10:37.000Z</time>
      </trkpt>
      <trkpt lat="43.16252" lon="2.34407">
        <ele>171.8</ele>
        <time>2022-01-23T08:10:38.000Z</time>
      </trkpt>
      <trkpt lat="43.16252" lon="2.34407">
        <ele>171.9</ele>
        <time>2022-01-23T08:10:39.000Z</time>
      </trkpt>
      <trkpt lat="43.16252" lon="2.34407">
        <ele>171.9</ele>
        <time>2022-01-23T08:10:40.000Z</time>
      </trkpt>
      <trkpt lat="43.16251" lon="2.34407">
        <ele>171.9</ele>
        <time>2022-01-23T08:10:41.000Z</time>
      </trkpt>
      <trkpt lat="43.16251" lon="2.34407">
        <ele>171.9</ele>
        <time>2022-01-23T08:10:42.000Z</time>
      </trkpt>
      <trkpt lat="43.16251" lon="2.34407">
        <ele>171.9</ele>
        <time>2022-01-23T08:10:43.000Z</time>
      </trkpt>
      <trkpt lat="43.16251" lon="2.34407">
        <ele>171.9</ele>
        <time>2022-01-23T08:10:44.000Z</time>
      </trkpt>
      <trkpt lat="43.1625" lon="2.34407">
        <ele>171.9</ele>
        <time>2022-01-23T08:10:45.000Z</time>
      </trkpt>
      <trkpt lat="43.1625" lon="2.34406">
        <ele>171.9</ele>
        <time>2022-01-23T08:10:46.000Z</time>
      </trkpt>
      <trkpt lat="43.1625" lon="2.34406">
        <ele>171.8</ele>
        <time>2022-01-23T08:10:47.000Z</time>
      </trkpt>
      <trkpt lat="43.1625" lon="2.34406">
        <ele>171.8</ele>
        <time>2022-01-23T08:10:48.000Z</time>
      </trkpt>
      <trkpt lat="43.1625" lon="2.34406">
        <ele>171.8</ele>
        <time>2022-01-23T08:10:49.000Z</time>
      </trkpt>
      <trkpt lat="43.1625" lon="2.34406">
        <ele>171.8</ele>
        <time>2022-01-23T08:10:50.000Z</time>
      </trkpt>
      <trkpt lat="43.1625" lon="2.34406">
        <ele>171.7</ele>
        <time>2022-01-23T08:10:51.000Z</time>
      </trkpt>
      <trkpt lat="43.1625" lon="2.34406">
        <ele>171.7</ele>
        <time>2022-01-23T08:10:52.000Z</time>
      </trkpt>
      <trkpt lat="43.1625" lon="2.34406">
        <ele>171.7</ele>
        <time>2022-01-23T08:10:53.000Z</time>
      </trkpt>
      <trkpt lat="43.16249" lon="2.34406">
        <ele>171.7</ele>
        <time>2022-01-23T08:10:54.000Z</time>
      </trkpt>
      <trkpt lat="43.16249" lon="2.34406">
        <ele>171.7</ele>
        <time>2022-01-23T08:10:55.000Z</time>
      </trkpt>
      <trkpt lat="43.16249" lon="2.34406">
        <ele>171.7</ele>
        <time>2022-01-23T08:10:56.000Z</time>
      </trkpt>
      <trkpt lat="43.16249" lon="2.34406">
        <ele>171.7</ele>
        <time>2022-01-23T08:10:57.000Z</time>
      </trkpt>
      <trkpt lat="43.16249" lon="2.34406">
        <ele>171.7</ele>
        <time>2022-01-23T08:10:58.000Z</time>
      </trkpt>
      <trkpt lat="43.16249" lon="2.34406">
        <ele>171.7</ele>
        <time>2022-01-23T08:10:59.000Z</time>
      </trkpt>
      <trkpt lat="43.16249" lon="2.34406">
        <ele>171.7</ele>
        <time>2022-01-23T08:11:00.000Z</time>
      </trkpt>
      <trkpt lat="43.16249" lon="2.34406">
        <ele>171.7</ele>
        <time>2022-01-23T08:11:01.000Z</time>
      </trkpt>
      <trkpt lat="43.16249" lon="2.34405">
        <ele>171.7</ele>
        <time>2022-01-23T08:11:02.000Z</time>
      </trkpt>
      <trkpt lat="43.16249" lon="2.34405">
        <ele>171.7</ele>
        <time>2022-01-23T08:11:03.000Z</time>
      </trkpt>
      <trkpt lat="43.16249" lon="2.34405">
        <ele>171.7</ele>
        <time>2022-01-23T08:11:04.000Z</time>
      </trkpt>
      <trkpt lat="43.16249" lon="2.34405">
        <ele>171.7</ele>
        <time>2022-01-23T08:11:05.000Z</time>
      </trkpt>
      <trkpt lat="43.16249" lon="2.34405">
        <ele>171.7</ele>
        <time>2022-01-23T08:11:06.000Z</time>
      </trkpt>
      <trkpt lat="43.16249" lon="2.34405">
        <ele>171.7</ele>
        <time>2022-01-23T08:11:07.000Z</time>
      </trkpt>
      <trkpt lat="43.16249" lon="2.34405">
        <ele>171.6</ele>
        <time>2022-01-23T08:11:08.000Z</time>
      </trkpt>
      <trkpt lat="43.16249" lon="2.34405">
        <ele>171.6</ele>
        <time>2022-01-23T08:11:09.000Z</time>
      </trkpt>
      <trkpt lat="43.16249" lon="2.34405">
        <ele>171.6</ele>
        <time>2022-01-23T08:11:10.000Z</time>
      </trkpt>
      <trkpt lat="43.16249" lon="2.34405">
        <ele>171.6</ele>
        <time>2022-01-23T08:11:11.000Z</time>
      </trkpt>
      <trkpt lat="43.16249" lon="2.34405">
        <ele>171.5</ele>
        <time>2022-01-23T08:11:12.000Z</time>
      </trkpt>
      <trkpt lat="43.16249" lon="2.34404">
        <ele>171.5</ele>
        <time>2022-01-23T08:11:13.000Z</time>
      </trkpt>
      <trkpt lat="43.16249" lon="2.34404">
        <ele>171.4</ele>
        <time>2022-01-23T08:11:14.000Z</time>
      </trkpt>
      <trkpt lat="43.16249" lon="2.34403">
        <ele>171.4</ele>
        <time>2022-01-23T08:11:15.000Z</time>
      </trkpt>
      <trkpt lat="43.16249" lon="2.34403">
        <ele>171.3</ele>
        <time>2022-01-23T08:11:16.000Z</time>
      </trkpt>
      <trkpt lat="43.16248" lon="2.34402">
        <ele>171.2</ele>
        <time>2022-01-23T08:11:17.000Z</time>
      </trkpt>
      <trkpt lat="43.16248" lon="2.34402">
        <ele>171.2</ele>
        <time>2022-01-23T08:11:18.000Z</time>
      </trkpt>
      <trkpt lat="43.16248" lon="2.34402">
        <ele>171.1</ele>
        <time>2022-01-23T08:11:19.000Z</time>
      </trkpt>
      <trkpt lat="43.16248" lon="2.34402">
        <ele>171.1</ele>
        <time>2022-01-23T08:11:20.000Z</time>
      </trkpt>
      <trkpt lat="43.16248" lon="2.34401">
        <ele>171.1</ele>
        <time>2022-01-23T08:11:21.000Z</time>
      </trkpt>
      <trkpt lat="43.16248" lon="2.34401">
        <ele>171.1</ele>
        <time>2022-01-23T08:11:22.000Z</time>
      </trkpt>
      <trkpt lat="43.16248" lon="2.34401">
        <ele>171.1</ele>
        <time>2022-01-23T08:11:23.000Z</time>
      </trkpt>
      <trkpt lat="43.16248" lon="2.34401">
        <ele>171</ele>
        <time>2022-01-23T08:11:24.000Z</time>
      </trkpt>
      <trkpt lat="43.16248" lon="2.34401">
        <ele>171</ele>
        <time>2022-01-23T08:11:25.000Z</time>
      </trkpt>
      <trkpt lat="43.16248" lon="2.34401">
        <ele>171</ele>
        <time>2022-01-23T08:11:26.000Z</time>
      </trkpt>
      <trkpt lat="43.16247" lon="2.344">
        <ele>170.9</ele>
        <time>2022-01-23T08:11:27.000Z</time>
      </trkpt>
      <trkpt lat="43.16247" lon="2.344">
        <ele>170.8</ele>
        <time>2022-01-23T08:11:28.000Z</time>
      </trkpt>
      <trkpt lat="43.16247" lon="2.34399">
        <ele>170.7</ele>
        <time>2022-01-23T08:11:29.000Z</time>
      </trkpt>
      <trkpt lat="43.16247" lon="2.34398">
        <ele>170.6</ele>
        <time>2022-01-23T08:11:30.000Z</time>
      </trkpt>
      <trkpt lat="43.16247" lon="2.34397">
        <ele>170.5</ele>
        <time>2022-01-23T08:11:31.000Z</time>
      </trkpt>
      <trkpt lat="43.16248" lon="2.34396">
        <ele>170.5</ele>
        <time>2022-01-23T08:11:32.000Z</time>
      </trkpt>
      <trkpt lat="43.16248" lon="2.34395">
        <ele>170.4</ele>
        <time>2022-01-23T08:11:33.000Z</time>
      </trkpt>
      <trkpt lat="43.16248" lon="2.34394">
        <ele>170.3</ele>
        <time>2022-01-23T08:11:34.000Z</time>
      </trkpt>
      <trkpt lat="43.16249" lon="2.34393">
        <ele>170.3</ele>
        <time>2022-01-23T08:11:35.000Z</time>
      </trkpt>
      <trkpt lat="43.16249" lon="2.34393">
        <ele>170.3</ele>
        <time>2022-01-23T08:11:36.000Z</time>
      </trkpt>
      <trkpt lat="43.16249" lon="2.34393">
        <ele>170.3</ele>
        <time>2022-01-23T08:11:37.000Z</time>
      </trkpt>
      <trkpt lat="43.16249" lon="2.34393">
        <ele>170.3</ele>
        <time>2022-01-23T08:11:38.000Z</time>
      </trkpt>
      <trkpt lat="43.16249" lon="2.34393">
        <ele>170.4</ele>
        <time>2022-01-23T08:11:39.000Z</time>
      </trkpt>
      <trkpt lat="43.16249" lon="2.34394">
        <ele>170.4</ele>
        <time>2022-01-23T08:11:40.000Z</time>
      </trkpt>
      <trkpt lat="43.16249" lon="2.34394">
        <ele>170.4</ele>
        <time>2022-01-23T08:11:41.000Z</time>
      </trkpt>
      <trkpt lat="43.16249" lon="2.34394">
        <ele>170.4</ele>
        <time>2022-01-23T08:11:42.000Z</time>
      </trkpt>
      <trkpt lat="43.16249" lon="2.34394">
        <ele>170.4</ele>
        <time>2022-01-23T08:11:43.000Z</time>
      </trkpt>
      <trkpt lat="43.16249" lon="2.34394">
        <ele>170.5</ele>
        <time>2022-01-23T08:11:44.000Z</time>
      </trkpt>
      <trkpt lat="43.16249" lon="2.34394">
        <ele>170.5</ele>
        <time>2022-01-23T08:11:45.000Z</time>
      </trkpt>
      <trkpt lat="43.16249" lon="2.34394">
        <ele>170.5</ele>
        <time>2022-01-23T08:11:46.000Z</time>
      </trkpt>
      <trkpt lat="43.16249" lon="2.34394">
        <ele>170.5</ele>
        <time>2022-01-23T08:11:47.000Z</time>
      </trkpt>
      <trkpt lat="43.16249" lon="2.34394">
        <ele>170.5</ele>
        <time>2022-01-23T08:11:48.000Z</time>
      </trkpt>
      <trkpt lat="43.16249" lon="2.34394">
        <ele>170.5</ele>
        <time>2022-01-23T08:11:49.000Z</time>
      </trkpt>
      <trkpt lat="43.16249" lon="2.34394">
        <ele>170.5</ele>
        <time>2022-01-23T08:11:50.000Z</time>
      </trkpt>
      <trkpt lat="43.16249" lon="2.34394">
        <ele>170.4</ele>
        <time>2022-01-23T08:11:51.000Z</time>
      </trkpt>
      <trkpt lat="43.16249" lon="2.34394">
        <ele>170.4</ele>
        <time>2022-01-23T08:11:52.000Z</time>
      </trkpt>
      <trkpt lat="43.16249" lon="2.34394">
        <ele>170.5</ele>
        <time>2022-01-23T08:11:53.000Z</time>
      </trkpt>
      <trkpt lat="43.16249" lon="2.34394">
        <ele>170.5</ele>
        <time>2022-01-23T08:11:54.000Z</time>
      </trkpt>
      <trkpt lat="43.16249" lon="2.34395">
        <ele>170.5</ele>
        <time>2022-01-23T08:11:55.000Z</time>
      </trkpt>
      <trkpt lat="43.16249" lon="2.34395">
        <ele>170.5</ele>
        <time>2022-01-23T08:11:56.000Z</time>
      </trkpt>
      <trkpt lat="43.16249" lon="2.34395">
        <ele>170.5</ele>
        <time>2022-01-23T08:11:57.000Z</time>
      </trkpt>
      <trkpt lat="43.16249" lon="2.34395">
        <ele>170.5</ele>
        <time>2022-01-23T08:11:58.000Z</time>
      </trkpt>
      <trkpt lat="43.16249" lon="2.34395">
        <ele>170.5</ele>
        <time>2022-01-23T08:11:59.000Z</time>
      </trkpt>
      <trkpt lat="43.16249" lon="2.34394">
        <ele>170.5</ele>
        <time>2022-01-23T08:12:00.000Z</time>
      </trkpt>
      <trkpt lat="43.16249" lon="2.34394">
        <ele>170.4</ele>
        <time>2022-01-23T08:12:01.000Z</time>
      </trkpt>
      <trkpt lat="43.16249" lon="2.34393">
        <ele>170.2</ele>
        <time>2022-01-23T08:12:02.000Z</time>
      </trkpt>
      <trkpt lat="43.16248" lon="2.34392">
        <ele>170.1</ele>
        <time>2022-01-23T08:12:03.000Z</time>
      </trkpt>
      <trkpt lat="43.16248" lon="2.3439">
        <ele>169.9</ele>
        <time>2022-01-23T08:12:04.000Z</time>
      </trkpt>
      <trkpt lat="43.16248" lon="2.34389">
        <ele>169.7</ele>
        <time>2022-01-23T08:12:05.000Z</time>
      </trkpt>
      <trkpt lat="43.16247" lon="2.34387">
        <ele>169.5</ele>
        <time>2022-01-23T08:12:06.000Z</time>
      </trkpt>
      <trkpt lat="43.16247" lon="2.34385">
        <ele>169.2</ele>
        <time>2022-01-23T08:12:07.000Z</time>
      </trkpt>
      <trkpt lat="43.16247" lon="2.34383">
        <ele>169</ele>
        <time>2022-01-23T08:12:08.000Z</time>
      </trkpt>
      <trkpt lat="43.16246" lon="2.34381">
        <ele>168.8</ele>
        <time>2022-01-23T08:12:09.000Z</time>
      </trkpt>
      <trkpt lat="43.16246" lon="2.3438">
        <ele>168.6</ele>
        <time>2022-01-23T08:12:10.000Z</time>
      </trkpt>
      <trkpt lat="43.16246" lon="2.34378">
        <ele>168.4</ele>
        <time>2022-01-23T08:12:11.000Z</time>
      </trkpt>
      <trkpt lat="43.16245" lon="2.34377">
        <ele>168.2</ele>
        <time>2022-01-23T08:12:12.000Z</time>
      </trkpt>
      <trkpt lat="43.16244" lon="2.34376">
        <ele>168.1</ele>
        <time>2022-01-23T08:12:13.000Z</time>
      </trkpt>
      <trkpt lat="43.16243" lon="2.34375">
        <ele>167.9</ele>
        <time>2022-01-23T08:12:14.000Z</time>
      </trkpt>
      <trkpt lat="43.16243" lon="2.34375">
        <ele>167.8</ele>
        <time>2022-01-23T08:12:15.000Z</time>
      </trkpt>
      <trkpt lat="43.16241" lon="2.34375">
        <ele>167.7</ele>
        <time>2022-01-23T08:12:16.000Z</time>
      </trkpt>
      <trkpt lat="43.1624" lon="2.34375">
        <ele>167.6</ele>
        <time>2022-01-23T08:12:17.000Z</time>
      </trkpt>
      <trkpt lat="43.16239" lon="2.34375">
        <ele>167.4</ele>
        <time>2022-01-23T08:12:18.000Z</time>
      </trkpt>
      <trkpt lat="43.16238" lon="2.34375">
        <ele>167.3</ele>
        <time>2022-01-23T08:12:19.000Z</time>
      </trkpt>
      <trkpt lat="43.16236" lon="2.34374">
        <ele>167.1</ele>
        <time>2022-01-23T08:12:20.000Z</time>
      </trkpt>
      <trkpt lat="43.16235" lon="2.34374">
        <ele>166.9</ele>
        <time>2022-01-23T08:12:21.000Z</time>
      </trkpt>
      <trkpt lat="43.16233" lon="2.34372">
        <ele>166.7</ele>
        <time>2022-01-23T08:12:22.000Z</time>
      </trkpt>
      <trkpt lat="43.16232" lon="2.34371">
        <ele>166.4</ele>
        <time>2022-01-23T08:12:23.000Z</time>
      </trkpt>
      <trkpt lat="43.1623" lon="2.34369">
        <ele>166.1</ele>
        <time>2022-01-23T08:12:24.000Z</time>
      </trkpt>
      <trkpt lat="43.16229" lon="2.34367">
        <ele>165.8</ele>
        <time>2022-01-23T08:12:25.000Z</time>
      </trkpt>
      <trkpt lat="43.16228" lon="2.34365">
        <ele>165.6</ele>
        <time>2022-01-23T08:12:26.000Z</time>
      </trkpt>
      <trkpt lat="43.16228" lon="2.34363">
        <ele>165.3</ele>
        <time>2022-01-23T08:12:27.000Z</time>
      </trkpt>
      <trkpt lat="43.16228" lon="2.34361">
        <ele>165.2</ele>
        <time>2022-01-23T08:12:28.000Z</time>
      </trkpt>
      <trkpt lat="43.16228" lon="2.34359">
        <ele>165</ele>
        <time>2022-01-23T08:12:29.000Z</time>
      </trkpt>
      <trkpt lat="43.16228" lon="2.34357">
        <ele>164.8</ele>
        <time>2022-01-23T08:12:30.000Z</time>
      </trkpt>
      <trkpt lat="43.16228" lon="2.34355">
        <ele>164.7</ele>
        <time>2022-01-23T08:12:31.000Z</time>
      </trkpt>
      <trkpt lat="43.16229" lon="2.34353">
        <ele>164.6</ele>
        <time>2022-01-23T08:12:32.000Z</time>
      </trkpt>
      <trkpt lat="43.16229" lon="2.34351">
        <ele>164.5</ele>
        <time>2022-01-23T08:12:33.000Z</time>
      </trkpt>
      <trkpt lat="43.1623" lon="2.34349">
        <ele>164.4</ele>
        <time>2022-01-23T08:12:34.000Z</time>
      </trkpt>
      <trkpt lat="43.1623" lon="2.34347">
        <ele>164.2</ele>
        <time>2022-01-23T08:12:35.000Z</time>
      </trkpt>
      <trkpt lat="43.16231" lon="2.34346">
        <ele>164.1</ele>
        <time>2022-01-23T08:12:36.000Z</time>
      </trkpt>
      <trkpt lat="43.16232" lon="2.34344">
        <ele>164</ele>
        <time>2022-01-23T08:12:37.000Z</time>
      </trkpt>
      <trkpt lat="43.16232" lon="2.34342">
        <ele>163.9</ele>
        <time>2022-01-23T08:12:38.000Z</time>
      </trkpt>
      <trkpt lat="43.16233" lon="2.3434">
        <ele>163.8</ele>
        <time>2022-01-23T08:12:39.000Z</time>
      </trkpt>
      <trkpt lat="43.16233" lon="2.34338">
        <ele>163.6</ele>
        <time>2022-01-23T08:12:40.000Z</time>
      </trkpt>
      <trkpt lat="43.16234" lon="2.34335">
        <ele>163.4</ele>
        <time>2022-01-23T08:12:41.000Z</time>
      </trkpt>
      <trkpt lat="43.16234" lon="2.34333">
        <ele>163.2</ele>
        <time>2022-01-23T08:12:42.000Z</time>
      </trkpt>
      <trkpt lat="43.16235" lon="2.3433">
        <ele>163.1</ele>
        <time>2022-01-23T08:12:43.000Z</time>
      </trkpt>
      <trkpt lat="43.16236" lon="2.34328">
        <ele>162.9</ele>
        <time>2022-01-23T08:12:44.000Z</time>
      </trkpt>
      <trkpt lat="43.16237" lon="2.34325">
        <ele>162.8</ele>
        <time>2022-01-23T08:12:45.000Z</time>
      </trkpt>
      <trkpt lat="43.16238" lon="2.34322">
        <ele>162.6</ele>
        <time>2022-01-23T08:12:46.000Z</time>
      </trkpt>
      <trkpt lat="43.16239" lon="2.3432">
        <ele>162.5</ele>
        <time>2022-01-23T08:12:47.000Z</time>
      </trkpt>
      <trkpt lat="43.16239" lon="2.34317">
        <ele>162.3</ele>
        <time>2022-01-23T08:12:48.000Z</time>
      </trkpt>
      <trkpt lat="43.16238" lon="2.34316">
        <ele>162.2</ele>
        <time>2022-01-23T08:12:49.000Z</time>
      </trkpt>
      <trkpt lat="43.16236" lon="2.34315">
        <ele>162.1</ele>
        <time>2022-01-23T08:12:50.000Z</time>
      </trkpt>
      <trkpt lat="43.16233" lon="2.34315">
        <ele>162</ele>
        <time>2022-01-23T08:12:51.000Z</time>
      </trkpt>
      <trkpt lat="43.1623" lon="2.34315">
        <ele>161.9</ele>
        <time>2022-01-23T08:12:52.000Z</time>
      </trkpt>
      <trkpt lat="43.16227" lon="2.34315">
        <ele>161.9</ele>
        <time>2022-01-23T08:12:53.000Z</time>
      </trkpt>
      <trkpt lat="43.16225" lon="2.34316">
        <ele>161.8</ele>
        <time>2022-01-23T08:12:54.000Z</time>
      </trkpt>
      <trkpt lat="43.16222" lon="2.34318">
        <ele>161.8</ele>
        <time>2022-01-23T08:12:55.000Z</time>
      </trkpt>
      <trkpt lat="43.1622" lon="2.34319">
        <ele>161.8</ele>
        <time>2022-01-23T08:12:56.000Z</time>
      </trkpt>
      <trkpt lat="43.16218" lon="2.3432">
        <ele>161.8</ele>
        <time>2022-01-23T08:12:57.000Z</time>
      </trkpt>
      <trkpt lat="43.16217" lon="2.34321">
        <ele>161.8</ele>
        <time>2022-01-23T08:12:58.000Z</time>
      </trkpt>
      <trkpt lat="43.16216" lon="2.34321">
        <ele>161.8</ele>
        <time>2022-01-23T08:12:59.000Z</time>
      </trkpt>
      <trkpt lat="43.16215" lon="2.34322">
        <ele>161.8</ele>
        <time>2022-01-23T08:13:00.000Z</time>
      </trkpt>
      <trkpt lat="43.16215" lon="2.34323">
        <ele>161.8</ele>
        <time>2022-01-23T08:13:01.000Z</time>
      </trkpt>
      <trkpt lat="43.16214" lon="2.34324">
        <ele>161.9</ele>
        <time>2022-01-23T08:13:02.000Z</time>
      </trkpt>
      <trkpt lat="43.16213" lon="2.34325">
        <ele>161.9</ele>
        <time>2022-01-23T08:13:03.000Z</time>
      </trkpt>
      <trkpt lat="43.16213" lon="2.34326">
        <ele>161.9</ele>
        <time>2022-01-23T08:13:04.000Z</time>
      </trkpt>
      <trkpt lat="43.16212" lon="2.34327">
        <ele>161.9</ele>
        <time>2022-01-23T08:13:05.000Z</time>
      </trkpt>
      <trkpt lat="43.16211" lon="2.34328">
        <ele>161.9</ele>
        <time>2022-01-23T08:13:06.000Z</time>
      </trkpt>
      <trkpt lat="43.1621" lon="2.3433">
        <ele>161.9</ele>
        <time>2022-01-23T08:13:07.000Z</time>
      </trkpt>
      <trkpt lat="43.16209" lon="2.34331">
        <ele>161.9</ele>
        <time>2022-01-23T08:13:08.000Z</time>
      </trkpt>
      <trkpt lat="43.16208" lon="2.34331">
        <ele>161.9</ele>
        <time>2022-01-23T08:13:09.000Z</time>
      </trkpt>
      <trkpt lat="43.16207" lon="2.3433">
        <ele>161.8</ele>
        <time>2022-01-23T08:13:10.000Z</time>
      </trkpt>
      <trkpt lat="43.16207" lon="2.34329">
        <ele>161.8</ele>
        <time>2022-01-23T08:13:11.000Z</time>
      </trkpt>
      <trkpt lat="43.16206" lon="2.34327">
        <ele>161.7</ele>
        <time>2022-01-23T08:13:12.000Z</time>
      </trkpt>
      <trkpt lat="43.16206" lon="2.34326">
        <ele>161.6</ele>
        <time>2022-01-23T08:13:13.000Z</time>
      </trkpt>
      <trkpt lat="43.16205" lon="2.34324">
        <ele>161.6</ele>
        <time>2022-01-23T08:13:14.000Z</time>
      </trkpt>
      <trkpt lat="43.16204" lon="2.34324">
        <ele>161.5</ele>
        <time>2022-01-23T08:13:15.000Z</time>
      </trkpt>
      <trkpt lat="43.16203" lon="2.34323">
        <ele>161.5</ele>
        <time>2022-01-23T08:13:16.000Z</time>
      </trkpt>
      <trkpt lat="43.16202" lon="2.34323">
        <ele>161.4</ele>
        <time>2022-01-23T08:13:17.000Z</time>
      </trkpt>
      <trkpt lat="43.16201" lon="2.34323">
        <ele>161.4</ele>
        <time>2022-01-23T08:13:18.000Z</time>
      </trkpt>
      <trkpt lat="43.162" lon="2.34324">
        <ele>161.3</ele>
        <time>2022-01-23T08:13:19.000Z</time>
      </trkpt>
      <trkpt lat="43.16199" lon="2.34325">
        <ele>161.3</ele>
        <time>2022-01-23T08:13:20.000Z</time>
      </trkpt>
      <trkpt lat="43.16198" lon="2.34325">
        <ele>161.3</ele>
        <time>2022-01-23T08:13:21.000Z</time>
      </trkpt>
      <trkpt lat="43.16197" lon="2.34326">
        <ele>161.3</ele>
        <time>2022-01-23T08:13:22.000Z</time>
      </trkpt>
      <trkpt lat="43.16196" lon="2.34327">
        <ele>161.3</ele>
        <time>2022-01-23T08:13:23.000Z</time>
      </trkpt>
      <trkpt lat="43.16195" lon="2.34327">
        <ele>161.2</ele>
        <time>2022-01-23T08:13:24.000Z</time>
      </trkpt>
      <trkpt lat="43.16194" lon="2.34328">
        <ele>161.2</ele>
        <time>2022-01-23T08:13:25.000Z</time>
      </trkpt>
      <trkpt lat="43.16194" lon="2.34328">
        <ele>161.2</ele>
        <time>2022-01-23T08:13:26.000Z</time>
      </trkpt>
      <trkpt lat="43.16193" lon="2.34328">
        <ele>161.2</ele>
        <time>2022-01-23T08:13:27.000Z</time>
      </trkpt>
      <trkpt lat="43.16192" lon="2.34329">
        <ele>161.1</ele>
        <time>2022-01-23T08:13:28.000Z</time>
      </trkpt>
      <trkpt lat="43.16192" lon="2.34328">
        <ele>161.1</ele>
        <time>2022-01-23T08:13:29.000Z</time>
      </trkpt>
      <trkpt lat="43.16191" lon="2.34328">
        <ele>161.1</ele>
        <time>2022-01-23T08:13:30.000Z</time>
      </trkpt>
      <trkpt lat="43.16191" lon="2.34327">
        <ele>161.1</ele>
        <time>2022-01-23T08:13:31.000Z</time>
      </trkpt>
      <trkpt lat="43.1619" lon="2.34327">
        <ele>161</ele>
        <time>2022-01-23T08:13:32.000Z</time>
      </trkpt>
      <trkpt lat="43.16189" lon="2.34326">
        <ele>161</ele>
        <time>2022-01-23T08:13:33.000Z</time>
      </trkpt>
      <trkpt lat="43.16189" lon="2.34324">
        <ele>160.9</ele>
        <time>2022-01-23T08:13:34.000Z</time>
      </trkpt>
      <trkpt lat="43.16188" lon="2.34323">
        <ele>160.9</ele>
        <time>2022-01-23T08:13:35.000Z</time>
      </trkpt>
      <trkpt lat="43.16188" lon="2.34321">
        <ele>160.8</ele>
        <time>2022-01-23T08:13:36.000Z</time>
      </trkpt>
      <trkpt lat="43.16187" lon="2.34319">
        <ele>160.8</ele>
        <time>2022-01-23T08:13:37.000Z</time>
      </trkpt>
      <trkpt lat="43.16186" lon="2.34316">
        <ele>160.8</ele>
        <time>2022-01-23T08:13:38.000Z</time>
      </trkpt>
      <trkpt lat="43.16186" lon="2.34314">
        <ele>160.7</ele>
        <time>2022-01-23T08:13:39.000Z</time>
      </trkpt>
      <trkpt lat="43.16186" lon="2.34311">
        <ele>160.7</ele>
        <time>2022-01-23T08:13:40.000Z</time>
      </trkpt>
      <trkpt lat="43.16185" lon="2.34308">
        <ele>160.7</ele>
        <time>2022-01-23T08:13:41.000Z</time>
      </trkpt>
      <trkpt lat="43.16185" lon="2.34305">
        <ele>160.6</ele>
        <time>2022-01-23T08:13:42.000Z</time>
      </trkpt>
      <trkpt lat="43.16184" lon="2.34302">
        <ele>160.6</ele>
        <time>2022-01-23T08:13:43.000Z</time>
      </trkpt>
      <trkpt lat="43.16184" lon="2.34299">
        <ele>160.6</ele>
        <time>2022-01-23T08:13:44.000Z</time>
      </trkpt>
      <trkpt lat="43.16184" lon="2.34295">
        <ele>160.5</ele>
        <time>2022-01-23T08:13:45.000Z</time>
      </trkpt>
      <trkpt lat="43.16184" lon="2.34292">
        <ele>160.5</ele>
        <time>2022-01-23T08:13:46.000Z</time>
      </trkpt>
      <trkpt lat="43.16183" lon="2.34289">
        <ele>160.5</ele>
        <time>2022-01-23T08:13:47.000Z</time>
      </trkpt>
      <trkpt lat="43.16183" lon="2.34286">
        <ele>160.5</ele>
        <time>2022-01-23T08:13:48.000Z</time>
      </trkpt>
      <trkpt lat="43.16183" lon="2.34283">
        <ele>160.4</ele>
        <time>2022-01-23T08:13:49.000Z</time>
      </trkpt>
      <trkpt lat="43.16182" lon="2.34281">
        <ele>160.4</ele>
        <time>2022-01-23T08:13:50.000Z</time>
      </trkpt>
      <trkpt lat="43.16182" lon="2.34278">
        <ele>160.4</ele>
        <time>2022-01-23T08:13:51.000Z</time>
      </trkpt>
      <trkpt lat="43.16181" lon="2.34276">
        <ele>160.4</ele>
        <time>2022-01-23T08:13:52.000Z</time>
      </trkpt>
      <trkpt lat="43.1618" lon="2.34275">
        <ele>160.4</ele>
        <time>2022-01-23T08:13:53.000Z</time>
      </trkpt>
      <trkpt lat="43.16178" lon="2.34273">
        <ele>160.5</ele>
        <time>2022-01-23T08:13:54.000Z</time>
      </trkpt>
      <trkpt lat="43.16176" lon="2.34272">
        <ele>160.5</ele>
        <time>2022-01-23T08:13:55.000Z</time>
      </trkpt>
      <trkpt lat="43.16174" lon="2.34272">
        <ele>160.6</ele>
        <time>2022-01-23T08:13:56.000Z</time>
      </trkpt>
      <trkpt lat="43.16172" lon="2.34273">
        <ele>160.6</ele>
        <time>2022-01-23T08:13:57.000Z</time>
      </trkpt>
      <trkpt lat="43.1617" lon="2.34275">
        <ele>160.6</ele>
        <time>2022-01-23T08:13:58.000Z</time>
      </trkpt>
      <trkpt lat="43.16168" lon="2.34277">
        <ele>160.6</ele>
        <time>2022-01-23T08:13:59.000Z</time>
      </trkpt>
      <trkpt lat="43.16167" lon="2.3428">
        <ele>160.6</ele>
        <time>2022-01-23T08:14:00.000Z</time>
      </trkpt>
      <trkpt lat="43.16165" lon="2.34283">
        <ele>160.7</ele>
        <time>2022-01-23T08:14:01.000Z</time>
      </trkpt>
      <trkpt lat="43.16164" lon="2.34286">
        <ele>160.7</ele>
        <time>2022-01-23T08:14:02.000Z</time>
      </trkpt>
      <trkpt lat="43.16162" lon="2.34289">
        <ele>160.7</ele>
        <time>2022-01-23T08:14:03.000Z</time>
      </trkpt>
      <trkpt lat="43.16161" lon="2.34292">
        <ele>160.7</ele>
        <time>2022-01-23T08:14:04.000Z</time>
      </trkpt>
      <trkpt lat="43.16159" lon="2.34295">
        <ele>160.8</ele>
        <time>2022-01-23T08:14:05.000Z</time>
      </trkpt>
      <trkpt lat="43.16157" lon="2.34298">
        <ele>160.8</ele>
        <time>2022-01-23T08:14:06.000Z</time>
      </trkpt>
      <trkpt lat="43.16155" lon="2.34301">
        <ele>160.8</ele>
        <time>2022-01-23T08:14:07.000Z</time>
      </trkpt>
      <trkpt lat="43.16153" lon="2.34303">
        <ele>160.8</ele>
        <time>2022-01-23T08:14:08.000Z</time>
      </trkpt>
      <trkpt lat="43.16151" lon="2.34306">
        <ele>160.8</ele>
        <time>2022-01-23T08:14:09.000Z</time>
      </trkpt>
      <trkpt lat="43.16149" lon="2.34308">
        <ele>160.7</ele>
        <time>2022-01-23T08:14:10.000Z</time>
      </trkpt>
      <trkpt lat="43.16147" lon="2.34311">
        <ele>160.7</ele>
        <time>2022-01-23T08:14:11.000Z</time>
      </trkpt>
      <trkpt lat="43.16145" lon="2.34313">
        <ele>160.7</ele>
        <time>2022-01-23T08:14:12.000Z</time>
      </trkpt>
      <trkpt lat="43.16143" lon="2.34316">
        <ele>160.6</ele>
        <time>2022-01-23T08:14:13.000Z</time>
      </trkpt>
      <trkpt lat="43.16141" lon="2.34318">
        <ele>160.6</ele>
        <time>2022-01-23T08:14:14.000Z</time>
      </trkpt>
      <trkpt lat="43.16139" lon="2.3432">
        <ele>160.5</ele>
        <time>2022-01-23T08:14:15.000Z</time>
      </trkpt>
      <trkpt lat="43.16137" lon="2.34323">
        <ele>160.5</ele>
        <time>2022-01-23T08:14:16.000Z</time>
      </trkpt>
      <trkpt lat="43.16134" lon="2.34325">
        <ele>160.4</ele>
        <time>2022-01-23T08:14:17.000Z</time>
      </trkpt>
      <trkpt lat="43.16132" lon="2.34327">
        <ele>160.3</ele>
        <time>2022-01-23T08:14:18.000Z</time>
      </trkpt>
      <trkpt lat="43.1613" lon="2.3433">
        <ele>160.2</ele>
        <time>2022-01-23T08:14:19.000Z</time>
      </trkpt>
      <trkpt lat="43.16128" lon="2.34332">
        <ele>160.1</ele>
        <time>2022-01-23T08:14:20.000Z</time>
      </trkpt>
      <trkpt lat="43.16126" lon="2.34334">
        <ele>160</ele>
        <time>2022-01-23T08:14:21.000Z</time>
      </trkpt>
      <trkpt lat="43.16125" lon="2.34337">
        <ele>160</ele>
        <time>2022-01-23T08:14:22.000Z</time>
      </trkpt>
      <trkpt lat="43.16123" lon="2.34339">
        <ele>160</ele>
        <time>2022-01-23T08:14:23.000Z</time>
      </trkpt>
      <trkpt lat="43.16121" lon="2.34341">
        <ele>159.9</ele>
        <time>2022-01-23T08:14:24.000Z</time>
      </trkpt>
      <trkpt lat="43.16119" lon="2.34344">
        <ele>159.9</ele>
        <time>2022-01-23T08:14:25.000Z</time>
      </trkpt>
      <trkpt lat="43.16118" lon="2.34346">
        <ele>159.9</ele>
        <time>2022-01-23T08:14:26.000Z</time>
      </trkpt>
      <trkpt lat="43.16116" lon="2.34349">
        <ele>159.8</ele>
        <time>2022-01-23T08:14:27.000Z</time>
      </trkpt>
      <trkpt lat="43.16114" lon="2.34351">
        <ele>159.8</ele>
        <time>2022-01-23T08:14:28.000Z</time>
      </trkpt>
      <trkpt lat="43.16113" lon="2.34354">
        <ele>159.8</ele>
        <time>2022-01-23T08:14:29.000Z</time>
      </trkpt>
      <trkpt lat="43.16111" lon="2.34356">
        <ele>159.7</ele>
        <time>2022-01-23T08:14:30.000Z</time>
      </trkpt>
      <trkpt lat="43.16109" lon="2.34359">
        <ele>159.7</ele>
        <time>2022-01-23T08:14:31.000Z</time>
      </trkpt>
      <trkpt lat="43.16107" lon="2.34361">
        <ele>159.6</ele>
        <time>2022-01-23T08:14:32.000Z</time>
      </trkpt>
      <trkpt lat="43.16106" lon="2.34363">
        <ele>159.6</ele>
        <time>2022-01-23T08:14:33.000Z</time>
      </trkpt>
      <trkpt lat="43.16104" lon="2.34366">
        <ele>159.5</ele>
        <time>2022-01-23T08:14:34.000Z</time>
      </trkpt>
      <trkpt lat="43.16102" lon="2.34368">
        <ele>159.4</ele>
        <time>2022-01-23T08:14:35.000Z</time>
      </trkpt>
      <trkpt lat="43.161" lon="2.3437">
        <ele>159.4</ele>
        <time>2022-01-23T08:14:36.000Z</time>
      </trkpt>
      <trkpt lat="43.16098" lon="2.34373">
        <ele>159.3</ele>
        <time>2022-01-23T08:14:37.000Z</time>
      </trkpt>
      <trkpt lat="43.16096" lon="2.34375">
        <ele>159.2</ele>
        <time>2022-01-23T08:14:38.000Z</time>
      </trkpt>
      <trkpt lat="43.16093" lon="2.34377">
        <ele>159.1</ele>
        <time>2022-01-23T08:14:39.000Z</time>
      </trkpt>
      <trkpt lat="43.16091" lon="2.34379">
        <ele>159.1</ele>
        <time>2022-01-23T08:14:40.000Z</time>
      </trkpt>
      <trkpt lat="43.16089" lon="2.34381">
        <ele>159</ele>
        <time>2022-01-23T08:14:41.000Z</time>
      </trkpt>
      <trkpt lat="43.16087" lon="2.34383">
        <ele>158.9</ele>
        <time>2022-01-23T08:14:42.000Z</time>
      </trkpt>
      <trkpt lat="43.16085" lon="2.34385">
        <ele>158.8</ele>
        <time>2022-01-23T08:14:43.000Z</time>
      </trkpt>
      <trkpt lat="43.16083" lon="2.34386">
        <ele>158.8</ele>
        <time>2022-01-23T08:14:44.000Z</time>
      </trkpt>
      <trkpt lat="43.1608" lon="2.34387">
        <ele>158.8</ele>
        <time>2022-01-23T08:14:45.000Z</time>
      </trkpt>
      <trkpt lat="43.16078" lon="2.34388">
        <ele>158.9</ele>
        <time>2022-01-23T08:14:46.000Z</time>
      </trkpt>
      <trkpt lat="43.16076" lon="2.34388">
        <ele>159</ele>
        <time>2022-01-23T08:14:47.000Z</time>
      </trkpt>
      <trkpt lat="43.16074" lon="2.34388">
        <ele>159.1</ele>
        <time>2022-01-23T08:14:48.000Z</time>
      </trkpt>
      <trkpt lat="43.16072" lon="2.34387">
        <ele>159.2</ele>
        <time>2022-01-23T08:14:49.000Z</time>
      </trkpt>
      <trkpt lat="43.1607" lon="2.34386">
        <ele>159.3</ele>
        <time>2022-01-23T08:14:50.000Z</time>
      </trkpt>
      <trkpt lat="43.16069" lon="2.34385">
        <ele>159.4</ele>
        <time>2022-01-23T08:14:51.000Z</time>
      </trkpt>
      <trkpt lat="43.16067" lon="2.34384">
        <ele>159.5</ele>
        <time>2022-01-23T08:14:52.000Z</time>
      </trkpt>
      <trkpt lat="43.16065" lon="2.34382">
        <ele>159.6</ele>
        <time>2022-01-23T08:14:53.000Z</time>
      </trkpt>
      <trkpt lat="43.16063" lon="2.34381">
        <ele>159.8</ele>
        <time>2022-01-23T08:14:54.000Z</time>
      </trkpt>
      <trkpt lat="43.1606" lon="2.3438">
        <ele>159.9</ele>
        <time>2022-01-23T08:14:55.000Z</time>
      </trkpt>
      <trkpt lat="43.16058" lon="2.3438">
        <ele>160</ele>
        <time>2022-01-23T08:14:56.000Z</time>
      </trkpt>
      <trkpt lat="43.16056" lon="2.34379">
        <ele>160.1</ele>
        <time>2022-01-23T08:14:57.000Z</time>
      </trkpt>
      <trkpt lat="43.16054" lon="2.34379">
        <ele>160.2</ele>
        <time>2022-01-23T08:14:58.000Z</time>
      </trkpt>
      <trkpt lat="43.16052" lon="2.3438">
        <ele>160.3</ele>
        <time>2022-01-23T08:14:59.000Z</time>
      </trkpt>
      <trkpt lat="43.1605" lon="2.3438">
        <ele>160.4</ele>
        <time>2022-01-23T08:15:00.000Z</time>
      </trkpt>
      <trkpt lat="43.16048" lon="2.34381">
        <ele>160.5</ele>
        <time>2022-01-23T08:15:01.000Z</time>
      </trkpt>
      <trkpt lat="43.16046" lon="2.34381">
        <ele>160.5</ele>
        <time>2022-01-23T08:15:02.000Z</time>
      </trkpt>
      <trkpt lat="43.16044" lon="2.34381">
        <ele>160.6</ele>
        <time>2022-01-23T08:15:03.000Z</time>
      </trkpt>
      <trkpt lat="43.16042" lon="2.34381">
        <ele>160.7</ele>
        <time>2022-01-23T08:15:04.000Z</time>
      </trkpt>
      <trkpt lat="43.1604" lon="2.34381">
        <ele>160.8</ele>
        <time>2022-01-23T08:15:05.000Z</time>
      </trkpt>
      <trkpt lat="43.16038" lon="2.34381">
        <ele>160.9</ele>
        <time>2022-01-23T08:15:06.000Z</time>
      </trkpt>
      <trkpt lat="43.16035" lon="2.34381">
        <ele>161</ele>
        <time>2022-01-23T08:15:07.000Z</time>
      </trkpt>
      <trkpt lat="43.16033" lon="2.34381">
        <ele>161.1</ele>
        <time>2022-01-23T08:15:08.000Z</time>
      </trkpt>
      <trkpt lat="43.16031" lon="2.34381">
        <ele>161.2</ele>
        <time>2022-01-23T08:15:09.000Z</time>
      </trkpt>
      <trkpt lat="43.16029" lon="2.34382">
        <ele>161.2</ele>
        <time>2022-01-23T08:15:10.000Z</time>
      </trkpt>
      <trkpt lat="43.16027" lon="2.34382">
        <ele>161.3</ele>
        <time>2022-01-23T08:15:11.000Z</time>
      </trkpt>
      <trkpt lat="43.16025" lon="2.34383">
        <ele>161.4</ele>
        <time>2022-01-23T08:15:12.000Z</time>
      </trkpt>
      <trkpt lat="43.16024" lon="2.34383">
        <ele>161.4</ele>
        <time>2022-01-23T08:15:13.000Z</time>
      </trkpt>
      <trkpt lat="43.16022" lon="2.34383">
        <ele>161.4</ele>
        <time>2022-01-23T08:15:14.000Z</time>
      </trkpt>
      <trkpt lat="43.16021" lon="2.34384">
        <ele>161.5</ele>
        <time>2022-01-23T08:15:15.000Z</time>
      </trkpt>
      <trkpt lat="43.16019" lon="2.34385">
        <ele>161.5</ele>
        <time>2022-01-23T08:15:16.000Z</time>
      </trkpt>
      <trkpt lat="43.16018" lon="2.34386">
        <ele>161.5</ele>
        <time>2022-01-23T08:15:17.000Z</time>
      </trkpt>
      <trkpt lat="43.16016" lon="2.34386">
        <ele>161.5</ele>
        <time>2022-01-23T08:15:18.000Z</time>
      </trkpt>
      <trkpt lat="43.16014" lon="2.34387">
        <ele>161.5</ele>
        <time>2022-01-23T08:15:19.000Z</time>
      </trkpt>
      <trkpt lat="43.16012" lon="2.34388">
        <ele>161.6</ele>
        <time>2022-01-23T08:15:20.000Z</time>
      </trkpt>
      <trkpt lat="43.16011" lon="2.34389">
        <ele>161.6</ele>
        <time>2022-01-23T08:15:21.000Z</time>
      </trkpt>
      <trkpt lat="43.16009" lon="2.3439">
        <ele>161.6</ele>
        <time>2022-01-23T08:15:22.000Z</time>
      </trkpt>
      <trkpt lat="43.16007" lon="2.3439">
        <ele>161.6</ele>
        <time>2022-01-23T08:15:23.000Z</time>
      </trkpt>
      <trkpt lat="43.16005" lon="2.34391">
        <ele>161.7</ele>
        <time>2022-01-23T08:15:24.000Z</time>
      </trkpt>
      <trkpt lat="43.16003" lon="2.34391">
        <ele>161.8</ele>
        <time>2022-01-23T08:15:25.000Z</time>
      </trkpt>
      <trkpt lat="43.16001" lon="2.34391">
        <ele>161.8</ele>
        <time>2022-01-23T08:15:26.000Z</time>
      </trkpt>
      <trkpt lat="43.15999" lon="2.34391">
        <ele>161.9</ele>
        <time>2022-01-23T08:15:27.000Z</time>
      </trkpt>
      <trkpt lat="43.15997" lon="2.34391">
        <ele>162</ele>
        <time>2022-01-23T08:15:28.000Z</time>
      </trkpt>
      <trkpt lat="43.15995" lon="2.34391">
        <ele>162.1</ele>
        <time>2022-01-23T08:15:29.000Z</time>
      </trkpt>
      <trkpt lat="43.15993" lon="2.3439">
        <ele>162.3</ele>
        <time>2022-01-23T08:15:30.000Z</time>
      </trkpt>
      <trkpt lat="43.15991" lon="2.34389">
        <ele>162.4</ele>
        <time>2022-01-23T08:15:31.000Z</time>
      </trkpt>
      <trkpt lat="43.1599" lon="2.34388">
        <ele>162.6</ele>
        <time>2022-01-23T08:15:32.000Z</time>
      </trkpt>
      <trkpt lat="43.15988" lon="2.34387">
        <ele>162.7</ele>
        <time>2022-01-23T08:15:33.000Z</time>
      </trkpt>
      <trkpt lat="43.15986" lon="2.34386">
        <ele>162.9</ele>
        <time>2022-01-23T08:15:34.000Z</time>
      </trkpt>
      <trkpt lat="43.15985" lon="2.34385">
        <ele>163.1</ele>
        <time>2022-01-23T08:15:35.000Z</time>
      </trkpt>
      <trkpt lat="43.15983" lon="2.34383">
        <ele>163.3</ele>
        <time>2022-01-23T08:15:36.000Z</time>
      </trkpt>
      <trkpt lat="43.15981" lon="2.34382">
        <ele>163.5</ele>
        <time>2022-01-23T08:15:37.000Z</time>
      </trkpt>
      <trkpt lat="43.1598" lon="2.3438">
        <ele>163.7</ele>
        <time>2022-01-23T08:15:38.000Z</time>
      </trkpt>
      <trkpt lat="43.15978" lon="2.34379">
        <ele>164</ele>
        <time>2022-01-23T08:15:39.000Z</time>
      </trkpt>
      <trkpt lat="43.15976" lon="2.34377">
        <ele>164.2</ele>
        <time>2022-01-23T08:15:40.000Z</time>
      </trkpt>
      <trkpt lat="43.15975" lon="2.34376">
        <ele>164.4</ele>
        <time>2022-01-23T08:15:41.000Z</time>
      </trkpt>
      <trkpt lat="43.15973" lon="2.34375">
        <ele>164.7</ele>
        <time>2022-01-23T08:15:42.000Z</time>
      </trkpt>
      <trkpt lat="43.15971" lon="2.34373">
        <ele>164.9</ele>
        <time>2022-01-23T08:15:43.000Z</time>
      </trkpt>
      <trkpt lat="43.15969" lon="2.34372">
        <ele>165.2</ele>
        <time>2022-01-23T08:15:44.000Z</time>
      </trkpt>
      <trkpt lat="43.15967" lon="2.34371">
        <ele>165.4</ele>
        <time>2022-01-23T08:15:45.000Z</time>
      </trkpt>
      <trkpt lat="43.15966" lon="2.34369">
        <ele>165.7</ele>
        <time>2022-01-23T08:15:46.000Z</time>
      </trkpt>
      <trkpt lat="43.15964" lon="2.34368">
        <ele>165.9</ele>
        <time>2022-01-23T08:15:47.000Z</time>
      </trkpt>
      <trkpt lat="43.15962" lon="2.34366">
        <ele>166.2</ele>
        <time>2022-01-23T08:15:48.000Z</time>
      </trkpt>
      <trkpt lat="43.15961" lon="2.34365">
        <ele>166.4</ele>
        <time>2022-01-23T08:15:49.000Z</time>
      </trkpt>
      <trkpt lat="43.15959" lon="2.34364">
        <ele>166.7</ele>
        <time>2022-01-23T08:15:50.000Z</time>
      </trkpt>
      <trkpt lat="43.15957" lon="2.34362">
        <ele>166.9</ele>
        <time>2022-01-23T08:15:51.000Z</time>
      </trkpt>
      <trkpt lat="43.15956" lon="2.34361">
        <ele>167.2</ele>
        <time>2022-01-23T08:15:52.000Z</time>
      </trkpt>
      <trkpt lat="43.15955" lon="2.3436">
        <ele>167.5</ele>
        <time>2022-01-23T08:15:53.000Z</time>
      </trkpt>
      <trkpt lat="43.15953" lon="2.34358">
        <ele>167.7</ele>
        <time>2022-01-23T08:15:54.000Z</time>
      </trkpt>
      <trkpt lat="43.15952" lon="2.34357">
        <ele>168</ele>
        <time>2022-01-23T08:15:55.000Z</time>
      </trkpt>
      <trkpt lat="43.1595" lon="2.34356">
        <ele>168.3</ele>
        <time>2022-01-23T08:15:56.000Z</time>
      </trkpt>
      <trkpt lat="43.15948" lon="2.34354">
        <ele>168.5</ele>
        <time>2022-01-23T08:15:57.000Z</time>
      </trkpt>
      <trkpt lat="43.15947" lon="2.34353">
        <ele>168.8</ele>
        <time>2022-01-23T08:15:58.000Z</time>
      </trkpt>
      <trkpt lat="43.15945" lon="2.34352">
        <ele>169</ele>
        <time>2022-01-23T08:15:59.000Z</time>
      </trkpt>
      <trkpt lat="43.15943" lon="2.34351">
        <ele>169.3</ele>
        <time>2022-01-23T08:16:00.000Z</time>
      </trkpt>
      <trkpt lat="43.15942" lon="2.3435">
        <ele>169.6</ele>
        <time>2022-01-23T08:16:01.000Z</time>
      </trkpt>
      <trkpt lat="43.1594" lon="2.34349">
        <ele>169.8</ele>
        <time>2022-01-23T08:16:02.000Z</time>
      </trkpt>
      <trkpt lat="43.15938" lon="2.34348">
        <ele>170.1</ele>
        <time>2022-01-23T08:16:03.000Z</time>
      </trkpt>
      <trkpt lat="43.15937" lon="2.34348">
        <ele>170.3</ele>
        <time>2022-01-23T08:16:04.000Z</time>
      </trkpt>
      <trkpt lat="43.15935" lon="2.34347">
        <ele>170.5</ele>
        <time>2022-01-23T08:16:05.000Z</time>
      </trkpt>
      <trkpt lat="43.15933" lon="2.34346">
        <ele>170.8</ele>
        <time>2022-01-23T08:16:06.000Z</time>
      </trkpt>
      <trkpt lat="43.15932" lon="2.34346">
        <ele>171</ele>
        <time>2022-01-23T08:16:07.000Z</time>
      </trkpt>
      <trkpt lat="43.1593" lon="2.34345">
        <ele>171.2</ele>
        <time>2022-01-23T08:16:08.000Z</time>
      </trkpt>
      <trkpt lat="43.15929" lon="2.34344">
        <ele>171.4</ele>
        <time>2022-01-23T08:16:09.000Z</time>
      </trkpt>
      <trkpt lat="43.15927" lon="2.34344">
        <ele>171.6</ele>
        <time>2022-01-23T08:16:10.000Z</time>
      </trkpt>
      <trkpt lat="43.15926" lon="2.34343">
        <ele>171.8</ele>
        <time>2022-01-23T08:16:11.000Z</time>
      </trkpt>
      <trkpt lat="43.15924" lon="2.34343">
        <ele>172</ele>
        <time>2022-01-23T08:16:12.000Z</time>
      </trkpt>
      <trkpt lat="43.15923" lon="2.34342">
        <ele>172.2</ele>
        <time>2022-01-23T08:16:13.000Z</time>
      </trkpt>
      <trkpt lat="43.15921" lon="2.34341">
        <ele>172.4</ele>
        <time>2022-01-23T08:16:14.000Z</time>
      </trkpt>
      <trkpt lat="43.1592" lon="2.34341">
        <ele>172.7</ele>
        <time>2022-01-23T08:16:15.000Z</time>
      </trkpt>
      <trkpt lat="43.15919" lon="2.3434">
        <ele>172.9</ele>
        <time>2022-01-23T08:16:16.000Z</time>
      </trkpt>
      <trkpt lat="43.15917" lon="2.34339">
        <ele>173.1</ele>
        <time>2022-01-23T08:16:17.000Z</time>
      </trkpt>
      <trkpt lat="43.15916" lon="2.34338">
        <ele>173.3</ele>
        <time>2022-01-23T08:16:18.000Z</time>
      </trkpt>
      <trkpt lat="43.15914" lon="2.34338">
        <ele>173.4</ele>
        <time>2022-01-23T08:16:19.000Z</time>
      </trkpt>
      <trkpt lat="43.15913" lon="2.34337">
        <ele>173.6</ele>
        <time>2022-01-23T08:16:20.000Z</time>
      </trkpt>
      <trkpt lat="43.15911" lon="2.34336">
        <ele>173.8</ele>
        <time>2022-01-23T08:16:21.000Z</time>
      </trkpt>
      <trkpt lat="43.1591" lon="2.34335">
        <ele>174</ele>
        <time>2022-01-23T08:16:22.000Z</time>
      </trkpt>
      <trkpt lat="43.15908" lon="2.34333">
        <ele>174.2</ele>
        <time>2022-01-23T08:16:23.000Z</time>
      </trkpt>
      <trkpt lat="43.15907" lon="2.34332">
        <ele>174.3</ele>
        <time>2022-01-23T08:16:24.000Z</time>
      </trkpt>
      <trkpt lat="43.15906" lon="2.34331">
        <ele>174.4</ele>
        <time>2022-01-23T08:16:25.000Z</time>
      </trkpt>
      <trkpt lat="43.15906" lon="2.34329">
        <ele>174.4</ele>
        <time>2022-01-23T08:16:26.000Z</time>
      </trkpt>
      <trkpt lat="43.15906" lon="2.34328">
        <ele>174.5</ele>
        <time>2022-01-23T08:16:27.000Z</time>
      </trkpt>
      <trkpt lat="43.15907" lon="2.34327">
        <ele>174.5</ele>
        <time>2022-01-23T08:16:28.000Z</time>
      </trkpt>
      <trkpt lat="43.15908" lon="2.34327">
        <ele>174.5</ele>
        <time>2022-01-23T08:16:29.000Z</time>
      </trkpt>
      <trkpt lat="43.15909" lon="2.34327">
        <ele>174.4</ele>
        <time>2022-01-23T08:16:30.000Z</time>
      </trkpt>
      <trkpt lat="43.15911" lon="2.34328">
        <ele>174.4</ele>
        <time>2022-01-23T08:16:31.000Z</time>
      </trkpt>
      <trkpt lat="43.15912" lon="2.34329">
        <ele>174.3</ele>
        <time>2022-01-23T08:16:32.000Z</time>
      </trkpt>
      <trkpt lat="43.15913" lon="2.3433">
        <ele>174.2</ele>
        <time>2022-01-23T08:16:33.000Z</time>
      </trkpt>
      <trkpt lat="43.15914" lon="2.3433">
        <ele>174.2</ele>
        <time>2022-01-23T08:16:34.000Z</time>
      </trkpt>
      <trkpt lat="43.15915" lon="2.34331">
        <ele>174.1</ele>
        <time>2022-01-23T08:16:35.000Z</time>
      </trkpt>
      <trkpt lat="43.15915" lon="2.34331">
        <ele>174.1</ele>
        <time>2022-01-23T08:16:36.000Z</time>
      </trkpt>
      <trkpt lat="43.15915" lon="2.3433">
        <ele>174.1</ele>
        <time>2022-01-23T08:16:37.000Z</time>
      </trkpt>
      <trkpt lat="43.15915" lon="2.3433">
        <ele>174.2</ele>
        <time>2022-01-23T08:16:38.000Z</time>
      </trkpt>
      <trkpt lat="43.15914" lon="2.34329">
        <ele>174.2</ele>
        <time>2022-01-23T08:16:39.000Z</time>
      </trkpt>
      <trkpt lat="43.15914" lon="2.34329">
        <ele>174.2</ele>
        <time>2022-01-23T08:16:40.000Z</time>
      </trkpt>
      <trkpt lat="43.15914" lon="2.34328">
        <ele>174.3</ele>
        <time>2022-01-23T08:16:41.000Z</time>
      </trkpt>
      <trkpt lat="43.15914" lon="2.34328">
        <ele>174.3</ele>
        <time>2022-01-23T08:16:42.000Z</time>
      </trkpt>
      <trkpt lat="43.15914" lon="2.34327">
        <ele>174.3</ele>
        <time>2022-01-23T08:16:43.000Z</time>
      </trkpt>
      <trkpt lat="43.15913" lon="2.34327">
        <ele>174.3</ele>
        <time>2022-01-23T08:16:44.000Z</time>
      </trkpt>
      <trkpt lat="43.15913" lon="2.34327">
        <ele>174.3</ele>
        <time>2022-01-23T08:16:45.000Z</time>
      </trkpt>
      <trkpt lat="43.15913" lon="2.34327">
        <ele>174.3</ele>
        <time>2022-01-23T08:16:46.000Z</time>
      </trkpt>
      <trkpt lat="43.15913" lon="2.34327">
        <ele>174.3</ele>
        <time>2022-01-23T08:16:47.000Z</time>
      </trkpt>
      <trkpt lat="43.15913" lon="2.34327">
        <ele>174.3</ele>
        <time>2022-01-23T08:16:48.000Z</time>
      </trkpt>
      <trkpt lat="43.15913" lon="2.34327">
        <ele>174.3</ele>
        <time>2022-01-23T08:16:49.000Z</time>
      </trkpt>
      <trkpt lat="43.15913" lon="2.34327">
        <ele>174.3</ele>
        <time>2022-01-23T08:16:50.000Z</time>
      </trkpt>
      <trkpt lat="43.15913" lon="2.34327">
        <ele>174.3</ele>
        <time>2022-01-23T08:16:51.000Z</time>
      </trkpt>
      <trkpt lat="43.15913" lon="2.34327">
        <ele>174.3</ele>
        <time>2022-01-23T08:16:52.000Z</time>
      </trkpt>
      <trkpt lat="43.15913" lon="2.34327">
        <ele>174.3</ele>
        <time>2022-01-23T08:16:53.000Z</time>
      </trkpt>
      <trkpt lat="43.15913" lon="2.34327">
        <ele>174.3</ele>
        <time>2022-01-23T08:16:54.000Z</time>
      </trkpt>
      <trkpt lat="43.15913" lon="2.34327">
        <ele>174.3</ele>
        <time>2022-01-23T08:16:55.000Z</time>
      </trkpt>
      <trkpt lat="43.15913" lon="2.34327">
        <ele>174.3</ele>
        <time>2022-01-23T08:16:56.000Z</time>
      </trkpt>
      <trkpt lat="43.15913" lon="2.34327">
        <ele>174.3</ele>
        <time>2022-01-23T08:16:57.000Z</time>
      </trkpt>
      <trkpt lat="43.15913" lon="2.34327">
        <ele>174.3</ele>
        <time>2022-01-23T08:16:58.000Z</time>
      </trkpt>
      <trkpt lat="43.15913" lon="2.34327">
        <ele>174.3</ele>
        <time>2022-01-23T08:16:59.000Z</time>
      </trkpt>
      <trkpt lat="43.15913" lon="2.34327">
        <ele>174.3</ele>
        <time>2022-01-23T08:17:00.000Z</time>
      </trkpt>
      <trkpt lat="43.15913" lon="2.34327">
        <ele>174.3</ele>
        <time>2022-01-23T08:17:01.000Z</time>
      </trkpt>
      <trkpt lat="43.15913" lon="2.34327">
        <ele>174.3</ele>
        <time>2022-01-23T08:17:02.000Z</time>
      </trkpt>
      <trkpt lat="43.15913" lon="2.34327">
        <ele>174.3</ele>
        <time>2022-01-23T08:17:03.000Z</time>
      </trkpt>
      <trkpt lat="43.15913" lon="2.34327">
        <ele>174.3</ele>
        <time>2022-01-23T08:17:04.000Z</time>
      </trkpt>
      <trkpt lat="43.15913" lon="2.34327">
        <ele>174.3</ele>
        <time>2022-01-23T08:17:05.000Z</time>
      </trkpt>
      <trkpt lat="43.15913" lon="2.34327">
        <ele>174.3</ele>
        <time>2022-01-23T08:17:06.000Z</time>
      </trkpt>
      <trkpt lat="43.15914" lon="2.34327">
        <ele>174.3</ele>
        <time>2022-01-23T08:17:07.000Z</time>
      </trkpt>
      <trkpt lat="43.15914" lon="2.34327">
        <ele>174.3</ele>
        <time>2022-01-23T08:17:08.000Z</time>
      </trkpt>
      <trkpt lat="43.15914" lon="2.34327">
        <ele>174.3</ele>
        <time>2022-01-23T08:17:09.000Z</time>
      </trkpt>
      <trkpt lat="43.15914" lon="2.34327">
        <ele>174.3</ele>
        <time>2022-01-23T08:17:10.000Z</time>
      </trkpt>
      <trkpt lat="43.15914" lon="2.34327">
        <ele>174.3</ele>
        <time>2022-01-23T08:17:11.000Z</time>
      </trkpt>
      <trkpt lat="43.15914" lon="2.34327">
        <ele>174.3</ele>
        <time>2022-01-23T08:17:12.000Z</time>
      </trkpt>
      <trkpt lat="43.15914" lon="2.34327">
        <ele>174.3</ele>
        <time>2022-01-23T08:17:13.000Z</time>
      </trkpt>
      <trkpt lat="43.15914" lon="2.34327">
        <ele>174.3</ele>
        <time>2022-01-23T08:17:14.000Z</time>
      </trkpt>
      <trkpt lat="43.15914" lon="2.34327">
        <ele>174.3</ele>
        <time>2022-01-23T08:17:15.000Z</time>
      </trkpt>
      <trkpt lat="43.15914" lon="2.34327">
        <ele>174.3</ele>
        <time>2022-01-23T08:17:16.000Z</time>
      </trkpt>
      <trkpt lat="43.15914" lon="2.34327">
        <ele>174.3</ele>
        <time>2022-01-23T08:17:17.000Z</time>
      </trkpt>
      <trkpt lat="43.15914" lon="2.34327">
        <ele>174.3</ele>
        <time>2022-01-23T08:17:18.000Z</time>
      </trkpt>
      <trkpt lat="43.15914" lon="2.34327">
        <ele>174.3</ele>
        <time>2022-01-23T08:17:19.000Z</time>
      </trkpt>
      <trkpt lat="43.15914" lon="2.34327">
        <ele>174.3</ele>
        <time>2022-01-23T08:17:20.000Z</time>
      </trkpt>
      <trkpt lat="43.15915" lon="2.34327">
        <ele>174.3</ele>
        <time>2022-01-23T08:17:21.000Z</time>
      </trkpt>
      <trkpt lat="43.15915" lon="2.34327">
        <ele>174.3</ele>
        <time>2022-01-23T08:17:22.000Z</time>
      </trkpt>
      <trkpt lat="43.15915" lon="2.34327">
        <ele>174.3</ele>
        <time>2022-01-23T08:17:23.000Z</time>
      </trkpt>
      <trkpt lat="43.15916" lon="2.34328">
        <ele>174.2</ele>
        <time>2022-01-23T08:17:24.000Z</time>
      </trkpt>
      <trkpt lat="43.15916" lon="2.34328">
        <ele>174.2</ele>
        <time>2022-01-23T08:17:25.000Z</time>
      </trkpt>
      <trkpt lat="43.15917" lon="2.34328">
        <ele>174.2</ele>
        <time>2022-01-23T08:17:26.000Z</time>
      </trkpt>
      <trkpt lat="43.15918" lon="2.34329">
        <ele>174.1</ele>
        <time>2022-01-23T08:17:27.000Z</time>
      </trkpt>
      <trkpt lat="43.15919" lon="2.34329">
        <ele>174</ele>
        <time>2022-01-23T08:17:28.000Z</time>
      </trkpt>
      <trkpt lat="43.1592" lon="2.3433">
        <ele>173.9</ele>
        <time>2022-01-23T08:17:29.000Z</time>
      </trkpt>
      <trkpt lat="43.15921" lon="2.3433">
        <ele>173.7</ele>
        <time>2022-01-23T08:17:30.000Z</time>
      </trkpt>
      <trkpt lat="43.15922" lon="2.3433">
        <ele>173.6</ele>
        <time>2022-01-23T08:17:31.000Z</time>
      </trkpt>
      <trkpt lat="43.15923" lon="2.34331">
        <ele>173.5</ele>
        <time>2022-01-23T08:17:32.000Z</time>
      </trkpt>
      <trkpt lat="43.15925" lon="2.34331">
        <ele>173.3</ele>
        <time>2022-01-23T08:17:33.000Z</time>
      </trkpt>
      <trkpt lat="43.15926" lon="2.34331">
        <ele>173.2</ele>
        <time>2022-01-23T08:17:34.000Z</time>
      </trkpt>
      <trkpt lat="43.15928" lon="2.34332">
        <ele>173</ele>
        <time>2022-01-23T08:17:35.000Z</time>
      </trkpt>
      <trkpt lat="43.1593" lon="2.34332">
        <ele>172.8</ele>
        <time>2022-01-23T08:17:36.000Z</time>
      </trkpt>
      <trkpt lat="43.15932" lon="2.34332">
        <ele>172.6</ele>
        <time>2022-01-23T08:17:37.000Z</time>
      </trkpt>
      <trkpt lat="43.15934" lon="2.34332">
        <ele>172.4</ele>
        <time>2022-01-23T08:17:38.000Z</time>
      </trkpt>
      <trkpt lat="43.15936" lon="2.34333">
        <ele>172.2</ele>
        <time>2022-01-23T08:17:39.000Z</time>
      </trkpt>
      <trkpt lat="43.15939" lon="2.34333">
        <ele>171.9</ele>
        <time>2022-01-23T08:17:40.000Z</time>
      </trkpt>
      <trkpt lat="43.15941" lon="2.34333">
        <ele>171.7</ele>
        <time>2022-01-23T08:17:41.000Z</time>
      </trkpt>
      <trkpt lat="43.15944" lon="2.34333">
        <ele>171.4</ele>
        <time>2022-01-23T08:17:42.000Z</time>
      </trkpt>
      <trkpt lat="43.15946" lon="2.34333">
        <ele>171.2</ele>
        <time>2022-01-23T08:17:43.000Z</time>
      </trkpt>
      <trkpt lat="43.15948" lon="2.34333">
        <ele>171</ele>
        <time>2022-01-23T08:17:44.000Z</time>
      </trkpt>
      <trkpt lat="43.1595" lon="2.34332">
        <ele>170.9</ele>
        <time>2022-01-23T08:17:45.000Z</time>
      </trkpt>
      <trkpt lat="43.15952" lon="2.3433">
        <ele>170.8</ele>
        <time>2022-01-23T08:17:46.000Z</time>
      </trkpt>
      <trkpt lat="43.15953" lon="2.34328">
        <ele>170.7</ele>
        <time>2022-01-23T08:17:47.000Z</time>
      </trkpt>
      <trkpt lat="43.15954" lon="2.34326">
        <ele>170.8</ele>
        <time>2022-01-23T08:17:48.000Z</time>
      </trkpt>
      <trkpt lat="43.15954" lon="2.34324">
        <ele>170.8</ele>
        <time>2022-01-23T08:17:49.000Z</time>
      </trkpt>
      <trkpt lat="43.15955" lon="2.34321">
        <ele>170.8</ele>
        <time>2022-01-23T08:17:50.000Z</time>
      </trkpt>
      <trkpt lat="43.15955" lon="2.34318">
        <ele>170.9</ele>
        <time>2022-01-23T08:17:51.000Z</time>
      </trkpt>
      <trkpt lat="43.15956" lon="2.34315">
        <ele>171</ele>
        <time>2022-01-23T08:17:52.000Z</time>
      </trkpt>
      <trkpt lat="43.15956" lon="2.34312">
        <ele>171.1</ele>
        <time>2022-01-23T08:17:53.000Z</time>
      </trkpt>
      <trkpt lat="43.15956" lon="2.34309">
        <ele>171.2</ele>
        <time>2022-01-23T08:17:54.000Z</time>
      </trkpt>
      <trkpt lat="43.15956" lon="2.34306">
        <ele>171.4</ele>
        <time>2022-01-23T08:17:55.000Z</time>
      </trkpt>
      <trkpt lat="43.15956" lon="2.34303">
        <ele>171.5</ele>
        <time>2022-01-23T08:17:56.000Z</time>
      </trkpt>
      <trkpt lat="43.15956" lon="2.343">
        <ele>171.6</ele>
        <time>2022-01-23T08:17:57.000Z</time>
      </trkpt>
      <trkpt lat="43.15956" lon="2.34297">
        <ele>171.8</ele>
        <time>2022-01-23T08:17:58.000Z</time>
      </trkpt>
      <trkpt lat="43.15956" lon="2.34294">
        <ele>171.9</ele>
        <time>2022-01-23T08:17:59.000Z</time>
      </trkpt>
      <trkpt lat="43.15956" lon="2.34291">
        <ele>172</ele>
        <time>2022-01-23T08:18:00.000Z</time>
      </trkpt>
      <trkpt lat="43.15956" lon="2.34289">
        <ele>172.1</ele>
        <time>2022-01-23T08:18:01.000Z</time>
      </trkpt>
      <trkpt lat="43.15955" lon="2.34286">
        <ele>172.3</ele>
        <time>2022-01-23T08:18:02.000Z</time>
      </trkpt>
      <trkpt lat="43.15955" lon="2.34283">
        <ele>172.4</ele>
        <time>2022-01-23T08:18:03.000Z</time>
      </trkpt>
      <trkpt lat="43.15955" lon="2.3428">
        <ele>172.5</ele>
        <time>2022-01-23T08:18:04.000Z</time>
      </trkpt>
      <trkpt lat="43.15955" lon="2.34278">
        <ele>172.6</ele>
        <time>2022-01-23T08:18:05.000Z</time>
      </trkpt>
      <trkpt lat="43.15955" lon="2.34275">
        <ele>172.8</ele>
        <time>2022-01-23T08:18:06.000Z</time>
      </trkpt>
      <trkpt lat="43.15954" lon="2.34272">
        <ele>172.9</ele>
        <time>2022-01-23T08:18:07.000Z</time>
      </trkpt>
      <trkpt lat="43.15954" lon="2.34269">
        <ele>173.1</ele>
        <time>2022-01-23T08:18:08.000Z</time>
      </trkpt>
      <trkpt lat="43.15953" lon="2.34267">
        <ele>173.2</ele>
        <time>2022-01-23T08:18:09.000Z</time>
      </trkpt>
      <trkpt lat="43.15953" lon="2.34264">
        <ele>173.4</ele>
        <time>2022-01-23T08:18:10.000Z</time>
      </trkpt>
      <trkpt lat="43.15952" lon="2.34261">
        <ele>173.6</ele>
        <time>2022-01-23T08:18:11.000Z</time>
      </trkpt>
      <trkpt lat="43.15951" lon="2.34259">
        <ele>173.8</ele>
        <time>2022-01-23T08:18:12.000Z</time>
      </trkpt>
      <trkpt lat="43.1595" lon="2.34256">
        <ele>174</ele>
        <time>2022-01-23T08:18:13.000Z</time>
      </trkpt>
      <trkpt lat="43.15948" lon="2.34253">
        <ele>174.2</ele>
        <time>2022-01-23T08:18:14.000Z</time>
      </trkpt>
      <trkpt lat="43.15947" lon="2.34251">
        <ele>174.4</ele>
        <time>2022-01-23T08:18:15.000Z</time>
      </trkpt>
      <trkpt lat="43.15945" lon="2.34249">
        <ele>174.6</ele>
        <time>2022-01-23T08:18:16.000Z</time>
      </trkpt>
      <trkpt lat="43.15944" lon="2.34246">
        <ele>174.8</ele>
        <time>2022-01-23T08:18:17.000Z</time>
      </trkpt>
      <trkpt lat="43.15942" lon="2.34244">
        <ele>175</ele>
        <time>2022-01-23T08:18:18.000Z</time>
      </trkpt>
      <trkpt lat="43.1594" lon="2.34242">
        <ele>175.2</ele>
        <time>2022-01-23T08:18:19.000Z</time>
      </trkpt>
      <trkpt lat="43.15938" lon="2.3424">
        <ele>175.4</ele>
        <time>2022-01-23T08:18:20.000Z</time>
      </trkpt>
      <trkpt lat="43.15936" lon="2.34238">
        <ele>175.6</ele>
        <time>2022-01-23T08:18:21.000Z</time>
      </trkpt>
      <trkpt lat="43.15933" lon="2.34236">
        <ele>175.8</ele>
        <time>2022-01-23T08:18:22.000Z</time>
      </trkpt>
      <trkpt lat="43.15931" lon="2.34233">
        <ele>176</ele>
        <time>2022-01-23T08:18:23.000Z</time>
      </trkpt>
      <trkpt lat="43.15929" lon="2.34231">
        <ele>176.2</ele>
        <time>2022-01-23T08:18:24.000Z</time>
      </trkpt>
      <trkpt lat="43.15927" lon="2.34229">
        <ele>176.3</ele>
        <time>2022-01-23T08:18:25.000Z</time>
      </trkpt>
      <trkpt lat="43.15925" lon="2.34227">
        <ele>176.5</ele>
        <time>2022-01-23T08:18:26.000Z</time>
      </trkpt>
      <trkpt lat="43.15923" lon="2.34225">
        <ele>176.6</ele>
        <time>2022-01-23T08:18:27.000Z</time>
      </trkpt>
      <trkpt lat="43.15921" lon="2.34222">
        <ele>176.7</ele>
        <time>2022-01-23T08:18:28.000Z</time>
      </trkpt>
      <trkpt lat="43.15919" lon="2.34219">
        <ele>176.8</ele>
        <time>2022-01-23T08:18:29.000Z</time>
      </trkpt>
      <trkpt lat="43.15918" lon="2.34217">
        <ele>176.9</ele>
        <time>2022-01-23T08:18:30.000Z</time>
      </trkpt>
      <trkpt lat="43.15916" lon="2.34214">
        <ele>177.1</ele>
        <time>2022-01-23T08:18:31.000Z</time>
      </trkpt>
      <trkpt lat="43.15914" lon="2.34211">
        <ele>177.2</ele>
        <time>2022-01-23T08:18:32.000Z</time>
      </trkpt>
      <trkpt lat="43.15912" lon="2.34209">
        <ele>177.4</ele>
        <time>2022-01-23T08:18:33.000Z</time>
      </trkpt>
      <trkpt lat="43.15911" lon="2.34206">
        <ele>177.6</ele>
        <time>2022-01-23T08:18:34.000Z</time>
      </trkpt>
      <trkpt lat="43.15909" lon="2.34204">
        <ele>177.7</ele>
        <time>2022-01-23T08:18:35.000Z</time>
      </trkpt>
      <trkpt lat="43.15907" lon="2.34202">
        <ele>177.9</ele>
        <time>2022-01-23T08:18:36.000Z</time>
      </trkpt>
      <trkpt lat="43.15905" lon="2.342">
        <ele>178.1</ele>
        <time>2022-01-23T08:18:37.000Z</time>
      </trkpt>
      <trkpt lat="43.15902" lon="2.34198">
        <ele>178.3</ele>
        <time>2022-01-23T08:18:38.000Z</time>
      </trkpt>
      <trkpt lat="43.159" lon="2.34196">
        <ele>178.5</ele>
        <time>2022-01-23T08:18:39.000Z</time>
      </trkpt>
      <trkpt lat="43.15898" lon="2.34195">
        <ele>178.7</ele>
        <time>2022-01-23T08:18:40.000Z</time>
      </trkpt>
      <trkpt lat="43.15896" lon="2.34193">
        <ele>178.9</ele>
        <time>2022-01-23T08:18:41.000Z</time>
      </trkpt>
      <trkpt lat="43.15894" lon="2.34191">
        <ele>179.1</ele>
        <time>2022-01-23T08:18:42.000Z</time>
      </trkpt>
      <trkpt lat="43.15892" lon="2.3419">
        <ele>179.3</ele>
        <time>2022-01-23T08:18:43.000Z</time>
      </trkpt>
      <trkpt lat="43.1589" lon="2.34188">
        <ele>179.5</ele>
        <time>2022-01-23T08:18:44.000Z</time>
      </trkpt>
      <trkpt lat="43.15888" lon="2.34187">
        <ele>179.7</ele>
        <time>2022-01-23T08:18:45.000Z</time>
      </trkpt>
      <trkpt lat="43.15886" lon="2.34186">
        <ele>179.9</ele>
        <time>2022-01-23T08:18:46.000Z</time>
      </trkpt>
      <trkpt lat="43.15884" lon="2.34184">
        <ele>180</ele>
        <time>2022-01-23T08:18:47.000Z</time>
      </trkpt>
      <trkpt lat="43.15882" lon="2.34183">
        <ele>180.2</ele>
        <time>2022-01-23T08:18:48.000Z</time>
      </trkpt>
      <trkpt lat="43.1588" lon="2.34181">
        <ele>180.4</ele>
        <time>2022-01-23T08:18:49.000Z</time>
      </trkpt>
      <trkpt lat="43.15878" lon="2.3418">
        <ele>180.6</ele>
        <time>2022-01-23T08:18:50.000Z</time>
      </trkpt>
      <trkpt lat="43.15877" lon="2.34178">
        <ele>180.8</ele>
        <time>2022-01-23T08:18:51.000Z</time>
      </trkpt>
      <trkpt lat="43.15875" lon="2.34177">
        <ele>181</ele>
        <time>2022-01-23T08:18:52.000Z</time>
      </trkpt>
      <trkpt lat="43.15873" lon="2.34175">
        <ele>181.1</ele>
        <time>2022-01-23T08:18:53.000Z</time>
      </trkpt>
      <trkpt lat="43.15871" lon="2.34174">
        <ele>181.3</ele>
        <time>2022-01-23T08:18:54.000Z</time>
      </trkpt>
      <trkpt lat="43.1587" lon="2.34172">
        <ele>181.5</ele>
        <time>2022-01-23T08:18:55.000Z</time>
      </trkpt>
      <trkpt lat="43.15868" lon="2.34171">
        <ele>181.6</ele>
        <time>2022-01-23T08:18:56.000Z</time>
      </trkpt>
      <trkpt lat="43.15867" lon="2.34169">
        <ele>181.8</ele>
        <time>2022-01-23T08:18:57.000Z</time>
      </trkpt>
      <trkpt lat="43.15865" lon="2.34167">
        <ele>182</ele>
        <time>2022-01-23T08:18:58.000Z</time>
      </trkpt>
      <trkpt lat="43.15864" lon="2.34165">
        <ele>182.1</ele>
        <time>2022-01-23T08:18:59.000Z</time>
      </trkpt>
      <trkpt lat="43.15862" lon="2.34163">
        <ele>182.3</ele>
        <time>2022-01-23T08:19:00.000Z</time>
      </trkpt>
      <trkpt lat="43.15861" lon="2.34161">
        <ele>182.4</ele>
        <time>2022-01-23T08:19:01.000Z</time>
      </trkpt>
      <trkpt lat="43.15859" lon="2.34159">
        <ele>182.6</ele>
        <time>2022-01-23T08:19:02.000Z</time>
      </trkpt>
      <trkpt lat="43.15858" lon="2.34157">
        <ele>182.7</ele>
        <time>2022-01-23T08:19:03.000Z</time>
      </trkpt>
      <trkpt lat="43.15857" lon="2.34155">
        <ele>182.9</ele>
        <time>2022-01-23T08:19:04.000Z</time>
      </trkpt>
      <trkpt lat="43.15855" lon="2.34153">
        <ele>183</ele>
        <time>2022-01-23T08:19:05.000Z</time>
      </trkpt>
      <trkpt lat="43.15854" lon="2.3415">
        <ele>183.2</ele>
        <time>2022-01-23T08:19:06.000Z</time>
      </trkpt>
      <trkpt lat="43.15853" lon="2.34148">
        <ele>183.3</ele>
        <time>2022-01-23T08:19:07.000Z</time>
      </trkpt>
      <trkpt lat="43.15851" lon="2.34146">
        <ele>183.4</ele>
        <time>2022-01-23T08:19:08.000Z</time>
      </trkpt>
      <trkpt lat="43.1585" lon="2.34144">
        <ele>183.6</ele>
        <time>2022-01-23T08:19:09.000Z</time>
      </trkpt>
      <trkpt lat="43.15849" lon="2.34142">
        <ele>183.7</ele>
        <time>2022-01-23T08:19:10.000Z</time>
      </trkpt>
      <trkpt lat="43.15847" lon="2.3414">
        <ele>183.8</ele>
        <time>2022-01-23T08:19:11.000Z</time>
      </trkpt>
      <trkpt lat="43.15846" lon="2.34137">
        <ele>184</ele>
        <time>2022-01-23T08:19:12.000Z</time>
      </trkpt>
      <trkpt lat="43.15845" lon="2.34135">
        <ele>184.1</ele>
        <time>2022-01-23T08:19:13.000Z</time>
      </trkpt>
      <trkpt lat="43.15843" lon="2.34133">
        <ele>184.2</ele>
        <time>2022-01-23T08:19:14.000Z</time>
      </trkpt>
      <trkpt lat="43.15842" lon="2.34132">
        <ele>184.3</ele>
        <time>2022-01-23T08:19:15.000Z</time>
      </trkpt>
      <trkpt lat="43.1584" lon="2.3413">
        <ele>184.4</ele>
        <time>2022-01-23T08:19:16.000Z</time>
      </trkpt>
      <trkpt lat="43.15839" lon="2.34128">
        <ele>184.5</ele>
        <time>2022-01-23T08:19:17.000Z</time>
      </trkpt>
      <trkpt lat="43.15838" lon="2.34126">
        <ele>184.7</ele>
        <time>2022-01-23T08:19:18.000Z</time>
      </trkpt>
      <trkpt lat="43.15836" lon="2.34123">
        <ele>184.8</ele>
        <time>2022-01-23T08:19:19.000Z</time>
      </trkpt>
      <trkpt lat="43.15835" lon="2.34121">
        <ele>184.9</ele>
        <time>2022-01-23T08:19:20.000Z</time>
      </trkpt>
      <trkpt lat="43.15834" lon="2.34119">
        <ele>185</ele>
        <time>2022-01-23T08:19:21.000Z</time>
      </trkpt>
      <trkpt lat="43.15832" lon="2.34116">
        <ele>185.1</ele>
        <time>2022-01-23T08:19:22.000Z</time>
      </trkpt>
      <trkpt lat="43.15831" lon="2.34113">
        <ele>185.2</ele>
        <time>2022-01-23T08:19:23.000Z</time>
      </trkpt>
      <trkpt lat="43.1583" lon="2.34111">
        <ele>185.3</ele>
        <time>2022-01-23T08:19:24.000Z</time>
      </trkpt>
      <trkpt lat="43.15829" lon="2.34108">
        <ele>185.4</ele>
        <time>2022-01-23T08:19:25.000Z</time>
      </trkpt>
      <trkpt lat="43.15827" lon="2.34105">
        <ele>185.6</ele>
        <time>2022-01-23T08:19:26.000Z</time>
      </trkpt>
      <trkpt lat="43.15826" lon="2.34103">
        <ele>185.7</ele>
        <time>2022-01-23T08:19:27.000Z</time>
      </trkpt>
      <trkpt lat="43.15825" lon="2.34101">
        <ele>185.8</ele>
        <time>2022-01-23T08:19:28.000Z</time>
      </trkpt>
      <trkpt lat="43.15823" lon="2.34098">
        <ele>185.9</ele>
        <time>2022-01-23T08:19:29.000Z</time>
      </trkpt>
      <trkpt lat="43.15822" lon="2.34096">
        <ele>186.1</ele>
        <time>2022-01-23T08:19:30.000Z</time>
      </trkpt>
      <trkpt lat="43.1582" lon="2.34095">
        <ele>186.2</ele>
        <time>2022-01-23T08:19:31.000Z</time>
      </trkpt>
      <trkpt lat="43.15819" lon="2.34093">
        <ele>186.4</ele>
        <time>2022-01-23T08:19:32.000Z</time>
      </trkpt>
      <trkpt lat="43.15817" lon="2.34091">
        <ele>186.5</ele>
        <time>2022-01-23T08:19:33.000Z</time>
      </trkpt>
      <trkpt lat="43.15816" lon="2.3409">
        <ele>186.7</ele>
        <time>2022-01-23T08:19:34.000Z</time>
      </trkpt>
      <trkpt lat="43.15814" lon="2.34088">
        <ele>186.8</ele>
        <time>2022-01-23T08:19:35.000Z</time>
      </trkpt>
      <trkpt lat="43.15812" lon="2.34087">
        <ele>187</ele>
        <time>2022-01-23T08:19:36.000Z</time>
      </trkpt>
      <trkpt lat="43.15811" lon="2.34085">
        <ele>187.2</ele>
        <time>2022-01-23T08:19:37.000Z</time>
      </trkpt>
      <trkpt lat="43.15809" lon="2.34084">
        <ele>187.3</ele>
        <time>2022-01-23T08:19:38.000Z</time>
      </trkpt>
      <trkpt lat="43.15807" lon="2.34082">
        <ele>187.5</ele>
        <time>2022-01-23T08:19:39.000Z</time>
      </trkpt>
      <trkpt lat="43.15806" lon="2.34081">
        <ele>187.7</ele>
        <time>2022-01-23T08:19:40.000Z</time>
      </trkpt>
      <trkpt lat="43.15804" lon="2.34079">
        <ele>187.8</ele>
        <time>2022-01-23T08:19:41.000Z</time>
      </trkpt>
      <trkpt lat="43.15802" lon="2.34078">
        <ele>188</ele>
        <time>2022-01-23T08:19:42.000Z</time>
      </trkpt>
      <trkpt lat="43.15801" lon="2.34077">
        <ele>188.1</ele>
        <time>2022-01-23T08:19:43.000Z</time>
      </trkpt>
      <trkpt lat="43.15799" lon="2.34075">
        <ele>188.3</ele>
        <time>2022-01-23T08:19:44.000Z</time>
      </trkpt>
      <trkpt lat="43.15797" lon="2.34074">
        <ele>188.5</ele>
        <time>2022-01-23T08:19:45.000Z</time>
      </trkpt>
      <trkpt lat="43.15795" lon="2.34073">
        <ele>188.6</ele>
        <time>2022-01-23T08:19:46.000Z</time>
      </trkpt>
      <trkpt lat="43.15794" lon="2.34072">
        <ele>188.8</ele>
        <time>2022-01-23T08:19:47.000Z</time>
      </trkpt>
      <trkpt lat="43.15792" lon="2.3407">
        <ele>189</ele>
        <time>2022-01-23T08:19:48.000Z</time>
      </trkpt>
      <trkpt lat="43.1579" lon="2.34069">
        <ele>189.1</ele>
        <time>2022-01-23T08:19:49.000Z</time>
      </trkpt>
      <trkpt lat="43.15788" lon="2.34068">
        <ele>189.3</ele>
        <time>2022-01-23T08:19:50.000Z</time>
      </trkpt>
      <trkpt lat="43.15787" lon="2.34066">
        <ele>189.5</ele>
        <time>2022-01-23T08:19:51.000Z</time>
      </trkpt>
      <trkpt lat="43.15785" lon="2.34065">
        <ele>189.6</ele>
        <time>2022-01-23T08:19:52.000Z</time>
      </trkpt>
      <trkpt lat="43.15783" lon="2.34064">
        <ele>189.8</ele>
        <time>2022-01-23T08:19:53.000Z</time>
      </trkpt>
      <trkpt lat="43.15781" lon="2.34062">
        <ele>190</ele>
        <time>2022-01-23T08:19:54.000Z</time>
      </trkpt>
      <trkpt lat="43.1578" lon="2.34061">
        <ele>190.2</ele>
        <time>2022-01-23T08:19:55.000Z</time>
      </trkpt>
      <trkpt lat="43.15778" lon="2.3406">
        <ele>190.3</ele>
        <time>2022-01-23T08:19:56.000Z</time>
      </trkpt>
      <trkpt lat="43.15776" lon="2.34058">
        <ele>190.5</ele>
        <time>2022-01-23T08:19:57.000Z</time>
      </trkpt>
      <trkpt lat="43.15774" lon="2.34057">
        <ele>190.7</ele>
        <time>2022-01-23T08:19:58.000Z</time>
      </trkpt>
      <trkpt lat="43.15772" lon="2.34056">
        <ele>190.8</ele>
        <time>2022-01-23T08:19:59.000Z</time>
      </trkpt>
      <trkpt lat="43.15771" lon="2.34054">
        <ele>191</ele>
        <time>2022-01-23T08:20:00.000Z</time>
      </trkpt>
      <trkpt lat="43.15769" lon="2.34053">
        <ele>191.2</ele>
        <time>2022-01-23T08:20:01.000Z</time>
      </trkpt>
      <trkpt lat="43.15767" lon="2.34052">
        <ele>191.4</ele>
        <time>2022-01-23T08:20:02.000Z</time>
      </trkpt>
      <trkpt lat="43.15765" lon="2.3405">
        <ele>191.6</ele>
        <time>2022-01-23T08:20:03.000Z</time>
      </trkpt>
      <trkpt lat="43.15763" lon="2.34049">
        <ele>191.8</ele>
        <time>2022-01-23T08:20:04.000Z</time>
      </trkpt>
      <trkpt lat="43.15761" lon="2.34048">
        <ele>191.9</ele>
        <time>2022-01-23T08:20:05.000Z</time>
      </trkpt>
      <trkpt lat="43.15759" lon="2.34047">
        <ele>192.1</ele>
        <time>2022-01-23T08:20:06.000Z</time>
      </trkpt>
      <trkpt lat="43.15757" lon="2.34046">
        <ele>192.3</ele>
        <time>2022-01-23T08:20:07.000Z</time>
      </trkpt>
      <trkpt lat="43.15755" lon="2.34044">
        <ele>192.5</ele>
        <time>2022-01-23T08:20:08.000Z</time>
      </trkpt>
      <trkpt lat="43.15753" lon="2.34043">
        <ele>192.7</ele>
        <time>2022-01-23T08:20:09.000Z</time>
      </trkpt>
      <trkpt lat="43.15751" lon="2.34042">
        <ele>192.9</ele>
        <time>2022-01-23T08:20:10.000Z</time>
      </trkpt>
      <trkpt lat="43.15749" lon="2.34041">
        <ele>193.1</ele>
        <time>2022-01-23T08:20:11.000Z</time>
      </trkpt>
      <trkpt lat="43.15747" lon="2.3404">
        <ele>193.3</ele>
        <time>2022-01-23T08:20:12.000Z</time>
      </trkpt>
      <trkpt lat="43.15745" lon="2.34039">
        <ele>193.5</ele>
        <time>2022-01-23T08:20:13.000Z</time>
      </trkpt>
      <trkpt lat="43.15742" lon="2.34038">
        <ele>193.7</ele>
        <time>2022-01-23T08:20:14.000Z</time>
      </trkpt>
      <trkpt lat="43.1574" lon="2.34037">
        <ele>193.9</ele>
        <time>2022-01-23T08:20:15.000Z</time>
      </trkpt>
      <trkpt lat="43.15738" lon="2.34037">
        <ele>194.1</ele>
        <time>2022-01-23T08:20:16.000Z</time>
      </trkpt>
      <trkpt lat="43.15736" lon="2.34036">
        <ele>194.3</ele>
        <time>2022-01-23T08:20:17.000Z</time>
      </trkpt>
      <trkpt lat="43.15734" lon="2.34035">
        <ele>194.5</ele>
        <time>2022-01-23T08:20:18.000Z</time>
      </trkpt>
      <trkpt lat="43.15732" lon="2.34034">
        <ele>194.7</ele>
        <time>2022-01-23T08:20:19.000Z</time>
      </trkpt>
      <trkpt lat="43.15729" lon="2.34033">
        <ele>194.9</ele>
        <time>2022-01-23T08:20:20.000Z</time>
      </trkpt>
      <trkpt lat="43.15727" lon="2.34032">
        <ele>195.2</ele>
        <time>2022-01-23T08:20:21.000Z</time>
      </trkpt>
      <trkpt lat="43.15725" lon="2.34031">
        <ele>195.4</ele>
        <time>2022-01-23T08:20:22.000Z</time>
      </trkpt>
      <trkpt lat="43.15723" lon="2.3403">
        <ele>195.6</ele>
        <time>2022-01-23T08:20:23.000Z</time>
      </trkpt>
      <trkpt lat="43.15721" lon="2.34029">
        <ele>195.8</ele>
        <time>2022-01-23T08:20:24.000Z</time>
      </trkpt>
      <trkpt lat="43.15719" lon="2.34029">
        <ele>196</ele>
        <time>2022-01-23T08:20:25.000Z</time>
      </trkpt>
      <trkpt lat="43.15717" lon="2.34028">
        <ele>196.2</ele>
        <time>2022-01-23T08:20:26.000Z</time>
      </trkpt>
      <trkpt lat="43.15714" lon="2.34027">
        <ele>196.4</ele>
        <time>2022-01-23T08:20:27.000Z</time>
      </trkpt>
      <trkpt lat="43.15712" lon="2.34026">
        <ele>196.7</ele>
        <time>2022-01-23T08:20:28.000Z</time>
      </trkpt>
      <trkpt lat="43.1571" lon="2.34025">
        <ele>196.9</ele>
        <time>2022-01-23T08:20:29.000Z</time>
      </trkpt>
      <trkpt lat="43.15708" lon="2.34024">
        <ele>197.1</ele>
        <time>2022-01-23T08:20:30.000Z</time>
      </trkpt>
      <trkpt lat="43.15706" lon="2.34023">
        <ele>197.3</ele>
        <time>2022-01-23T08:20:31.000Z</time>
      </trkpt>
      <trkpt lat="43.15704" lon="2.34022">
        <ele>197.5</ele>
        <time>2022-01-23T08:20:32.000Z</time>
      </trkpt>
      <trkpt lat="43.15702" lon="2.34021">
        <ele>197.7</ele>
        <time>2022-01-23T08:20:33.000Z</time>
      </trkpt>
      <trkpt lat="43.157" lon="2.34019">
        <ele>198</ele>
        <time>2022-01-23T08:20:34.000Z</time>
      </trkpt>
      <trkpt lat="43.15698" lon="2.34018">
        <ele>198.2</ele>
        <time>2022-01-23T08:20:35.000Z</time>
      </trkpt>
      <trkpt lat="43.15697" lon="2.34017">
        <ele>198.4</ele>
        <time>2022-01-23T08:20:36.000Z</time>
      </trkpt>
      <trkpt lat="43.15695" lon="2.34016">
        <ele>198.6</ele>
        <time>2022-01-23T08:20:37.000Z</time>
      </trkpt>
      <trkpt lat="43.15693" lon="2.34015">
        <ele>198.8</ele>
        <time>2022-01-23T08:20:38.000Z</time>
      </trkpt>
      <trkpt lat="43.15691" lon="2.34014">
        <ele>199</ele>
        <time>2022-01-23T08:20:39.000Z</time>
      </trkpt>
      <trkpt lat="43.1569" lon="2.34012">
        <ele>199.2</ele>
        <time>2022-01-23T08:20:40.000Z</time>
      </trkpt>
      <trkpt lat="43.15688" lon="2.34011">
        <ele>199.4</ele>
        <time>2022-01-23T08:20:41.000Z</time>
      </trkpt>
      <trkpt lat="43.15686" lon="2.3401">
        <ele>199.6</ele>
        <time>2022-01-23T08:20:42.000Z</time>
      </trkpt>
      <trkpt lat="43.15685" lon="2.34009">
        <ele>199.8</ele>
        <time>2022-01-23T08:20:43.000Z</time>
      </trkpt>
      <trkpt lat="43.15683" lon="2.34008">
        <ele>200</ele>
        <time>2022-01-23T08:20:44.000Z</time>
      </trkpt>
      <trkpt lat="43.15682" lon="2.34006">
        <ele>200.2</ele>
        <time>2022-01-23T08:20:45.000Z</time>
      </trkpt>
      <trkpt lat="43.1568" lon="2.34005">
        <ele>200.4</ele>
        <time>2022-01-23T08:20:46.000Z</time>
      </trkpt>
      <trkpt lat="43.15679" lon="2.34004">
        <ele>200.6</ele>
        <time>2022-01-23T08:20:47.000Z</time>
      </trkpt>
      <trkpt lat="43.15678" lon="2.34003">
        <ele>200.7</ele>
        <time>2022-01-23T08:20:48.000Z</time>
      </trkpt>
      <trkpt lat="43.15677" lon="2.34002">
        <ele>200.9</ele>
        <time>2022-01-23T08:20:49.000Z</time>
      </trkpt>
      <trkpt lat="43.15675" lon="2.34001">
        <ele>201</ele>
        <time>2022-01-23T08:20:50.000Z</time>
      </trkpt>
      <trkpt lat="43.15674" lon="2.34001">
        <ele>201.1</ele>
        <time>2022-01-23T08:20:51.000Z</time>
      </trkpt>
      <trkpt lat="43.15673" lon="2.34">
        <ele>201.3</ele>
        <time>2022-01-23T08:20:52.000Z</time>
      </trkpt>
      <trkpt lat="43.15673" lon="2.33999">
        <ele>201.4</ele>
        <time>2022-01-23T08:20:53.000Z</time>
      </trkpt>
      <trkpt lat="43.15672" lon="2.33999">
        <ele>201.6</ele>
        <time>2022-01-23T08:20:54.000Z</time>
      </trkpt>
      <trkpt lat="43.15671" lon="2.33998">
        <ele>201.7</ele>
        <time>2022-01-23T08:20:55.000Z</time>
      </trkpt>
      <trkpt lat="43.1567" lon="2.33997">
        <ele>201.8</ele>
        <time>2022-01-23T08:20:56.000Z</time>
      </trkpt>
      <trkpt lat="43.15669" lon="2.33996">
        <ele>202</ele>
        <time>2022-01-23T08:20:57.000Z</time>
      </trkpt>
      <trkpt lat="43.15668" lon="2.33995">
        <ele>202.2</ele>
        <time>2022-01-23T08:20:58.000Z</time>
      </trkpt>
      <trkpt lat="43.15667" lon="2.33994">
        <ele>202.3</ele>
        <time>2022-01-23T08:20:59.000Z</time>
      </trkpt>
      <trkpt lat="43.15666" lon="2.33993">
        <ele>202.5</ele>
        <time>2022-01-23T08:21:00.000Z</time>
      </trkpt>
      <trkpt lat="43.15665" lon="2.33992">
        <ele>202.6</ele>
        <time>2022-01-23T08:21:01.000Z</time>
      </trkpt>
      <trkpt lat="43.15665" lon="2.33991">
        <ele>202.6</ele>
        <time>2022-01-23T08:21:02.000Z</time>
      </trkpt>
      <trkpt lat="43.15665" lon="2.33991">
        <ele>202.6</ele>
        <time>2022-01-23T08:21:03.000Z</time>
      </trkpt>
      <trkpt lat="43.15664" lon="2.33991">
        <ele>202.6</ele>
        <time>2022-01-23T08:21:04.000Z</time>
      </trkpt>
      <trkpt lat="43.15664" lon="2.33992">
        <ele>202.6</ele>
        <time>2022-01-23T08:21:05.000Z</time>
      </trkpt>
      <trkpt lat="43.15664" lon="2.33992">
        <ele>202.6</ele>
        <time>2022-01-23T08:21:06.000Z</time>
      </trkpt>
      <trkpt lat="43.15664" lon="2.33992">
        <ele>202.6</ele>
        <time>2022-01-23T08:21:07.000Z</time>
      </trkpt>
      <trkpt lat="43.15664" lon="2.33992">
        <ele>202.6</ele>
        <time>2022-01-23T08:21:08.000Z</time>
      </trkpt>
      <trkpt lat="43.15664" lon="2.33992">
        <ele>202.6</ele>
        <time>2022-01-23T08:21:09.000Z</time>
      </trkpt>
      <trkpt lat="43.15664" lon="2.33992">
        <ele>202.7</ele>
        <time>2022-01-23T08:21:10.000Z</time>
      </trkpt>
      <trkpt lat="43.15663" lon="2.33991">
        <ele>202.7</ele>
        <time>2022-01-23T08:21:11.000Z</time>
      </trkpt>
      <trkpt lat="43.15663" lon="2.33991">
        <ele>202.7</ele>
        <time>2022-01-23T08:21:12.000Z</time>
      </trkpt>
      <trkpt lat="43.15663" lon="2.33991">
        <ele>202.8</ele>
        <time>2022-01-23T08:21:13.000Z</time>
      </trkpt>
      <trkpt lat="43.15663" lon="2.3399">
        <ele>202.8</ele>
        <time>2022-01-23T08:21:14.000Z</time>
      </trkpt>
      <trkpt lat="43.15662" lon="2.3399">
        <ele>202.8</ele>
        <time>2022-01-23T08:21:15.000Z</time>
      </trkpt>
      <trkpt lat="43.15662" lon="2.3399">
        <ele>202.8</ele>
        <time>2022-01-23T08:21:16.000Z</time>
      </trkpt>
      <trkpt lat="43.15662" lon="2.3399">
        <ele>202.9</ele>
        <time>2022-01-23T08:21:17.000Z</time>
      </trkpt>
      <trkpt lat="43.15662" lon="2.3399">
        <ele>202.9</ele>
        <time>2022-01-23T08:21:18.000Z</time>
      </trkpt>
      <trkpt lat="43.15662" lon="2.3399">
        <ele>202.9</ele>
        <time>2022-01-23T08:21:19.000Z</time>
      </trkpt>
      <trkpt lat="43.15662" lon="2.33989">
        <ele>202.9</ele>
        <time>2022-01-23T08:21:20.000Z</time>
      </trkpt>
      <trkpt lat="43.15662" lon="2.33989">
        <ele>202.9</ele>
        <time>2022-01-23T08:21:21.000Z</time>
      </trkpt>
      <trkpt lat="43.15662" lon="2.33989">
        <ele>202.9</ele>
        <time>2022-01-23T08:21:22.000Z</time>
      </trkpt>
      <trkpt lat="43.15662" lon="2.3399">
        <ele>202.9</ele>
        <time>2022-01-23T08:21:23.000Z</time>
      </trkpt>
      <trkpt lat="43.15662" lon="2.3399">
        <ele>202.9</ele>
        <time>2022-01-23T08:21:24.000Z</time>
      </trkpt>
      <trkpt lat="43.15662" lon="2.3399">
        <ele>202.8</ele>
        <time>2022-01-23T08:21:25.000Z</time>
      </trkpt>
      <trkpt lat="43.15662" lon="2.3399">
        <ele>202.8</ele>
        <time>2022-01-23T08:21:26.000Z</time>
      </trkpt>
      <trkpt lat="43.15662" lon="2.3399">
        <ele>202.8</ele>
        <time>2022-01-23T08:21:27.000Z</time>
      </trkpt>
      <trkpt lat="43.15663" lon="2.3399">
        <ele>202.8</ele>
        <time>2022-01-23T08:21:28.000Z</time>
      </trkpt>
      <trkpt lat="43.15663" lon="2.3399">
        <ele>202.8</ele>
        <time>2022-01-23T08:21:29.000Z</time>
      </trkpt>
      <trkpt lat="43.15662" lon="2.3399">
        <ele>202.8</ele>
        <time>2022-01-23T08:21:30.000Z</time>
      </trkpt>
      <trkpt lat="43.15662" lon="2.3399">
        <ele>202.9</ele>
        <time>2022-01-23T08:21:31.000Z</time>
      </trkpt>
      <trkpt lat="43.15662" lon="2.33989">
        <ele>202.9</ele>
        <time>2022-01-23T08:21:32.000Z</time>
      </trkpt>
      <trkpt lat="43.15661" lon="2.33989">
        <ele>203</ele>
        <time>2022-01-23T08:21:33.000Z</time>
      </trkpt>
      <trkpt lat="43.15661" lon="2.33988">
        <ele>203</ele>
        <time>2022-01-23T08:21:34.000Z</time>
      </trkpt>
      <trkpt lat="43.15661" lon="2.33987">
        <ele>203.1</ele>
        <time>2022-01-23T08:21:35.000Z</time>
      </trkpt>
      <trkpt lat="43.1566" lon="2.33987">
        <ele>203.1</ele>
        <time>2022-01-23T08:21:36.000Z</time>
      </trkpt>
      <trkpt lat="43.1566" lon="2.33986">
        <ele>203.2</ele>
        <time>2022-01-23T08:21:37.000Z</time>
      </trkpt>
      <trkpt lat="43.1566" lon="2.33986">
        <ele>203.2</ele>
        <time>2022-01-23T08:21:38.000Z</time>
      </trkpt>
      <trkpt lat="43.1566" lon="2.33986">
        <ele>203.2</ele>
        <time>2022-01-23T08:21:39.000Z</time>
      </trkpt>
      <trkpt lat="43.15659" lon="2.33986">
        <ele>203.2</ele>
        <time>2022-01-23T08:21:40.000Z</time>
      </trkpt>
      <trkpt lat="43.15659" lon="2.33985">
        <ele>203.2</ele>
        <time>2022-01-23T08:21:41.000Z</time>
      </trkpt>
      <trkpt lat="43.15659" lon="2.33985">
        <ele>203.3</ele>
        <time>2022-01-23T08:21:42.000Z</time>
      </trkpt>
      <trkpt lat="43.15659" lon="2.33985">
        <ele>203.3</ele>
        <time>2022-01-23T08:21:43.000Z</time>
      </trkpt>
      <trkpt lat="43.15659" lon="2.33985">
        <ele>203.3</ele>
        <time>2022-01-23T08:21:44.000Z</time>
      </trkpt>
      <trkpt lat="43.15658" lon="2.33984">
        <ele>203.4</ele>
        <time>2022-01-23T08:21:45.000Z</time>
      </trkpt>
      <trkpt lat="43.15658" lon="2.33984">
        <ele>203.4</ele>
        <time>2022-01-23T08:21:46.000Z</time>
      </trkpt>
      <trkpt lat="43.15658" lon="2.33983">
        <ele>203.4</ele>
        <time>2022-01-23T08:21:47.000Z</time>
      </trkpt>
      <trkpt lat="43.15657" lon="2.33983">
        <ele>203.5</ele>
        <time>2022-01-23T08:21:48.000Z</time>
      </trkpt>
      <trkpt lat="43.15657" lon="2.33982">
        <ele>203.5</ele>
        <time>2022-01-23T08:21:49.000Z</time>
      </trkpt>
      <trkpt lat="43.15656" lon="2.33982">
        <ele>203.6</ele>
        <time>2022-01-23T08:21:50.000Z</time>
      </trkpt>
      <trkpt lat="43.15656" lon="2.33981">
        <ele>203.7</ele>
        <time>2022-01-23T08:21:51.000Z</time>
      </trkpt>
      <trkpt lat="43.15655" lon="2.3398">
        <ele>203.7</ele>
        <time>2022-01-23T08:21:52.000Z</time>
      </trkpt>
      <trkpt lat="43.15654" lon="2.33979">
        <ele>203.8</ele>
        <time>2022-01-23T08:21:53.000Z</time>
      </trkpt>
      <trkpt lat="43.15654" lon="2.33979">
        <ele>203.9</ele>
        <time>2022-01-23T08:21:54.000Z</time>
      </trkpt>
      <trkpt lat="43.15653" lon="2.33978">
        <ele>204</ele>
        <time>2022-01-23T08:21:55.000Z</time>
      </trkpt>
      <trkpt lat="43.15652" lon="2.33977">
        <ele>204</ele>
        <time>2022-01-23T08:21:56.000Z</time>
      </trkpt>
      <trkpt lat="43.15651" lon="2.33976">
        <ele>204.1</ele>
        <time>2022-01-23T08:21:57.000Z</time>
      </trkpt>
      <trkpt lat="43.1565" lon="2.33974">
        <ele>204.2</ele>
        <time>2022-01-23T08:21:58.000Z</time>
      </trkpt>
      <trkpt lat="43.15649" lon="2.33973">
        <ele>204.3</ele>
        <time>2022-01-23T08:21:59.000Z</time>
      </trkpt>
      <trkpt lat="43.15648" lon="2.33972">
        <ele>204.4</ele>
        <time>2022-01-23T08:22:00.000Z</time>
      </trkpt>
      <trkpt lat="43.15647" lon="2.3397">
        <ele>204.6</ele>
        <time>2022-01-23T08:22:01.000Z</time>
      </trkpt>
      <trkpt lat="43.15645" lon="2.33969">
        <ele>204.7</ele>
        <time>2022-01-23T08:22:02.000Z</time>
      </trkpt>
      <trkpt lat="43.15644" lon="2.33967">
        <ele>204.8</ele>
        <time>2022-01-23T08:22:03.000Z</time>
      </trkpt>
      <trkpt lat="43.15643" lon="2.33966">
        <ele>204.9</ele>
        <time>2022-01-23T08:22:04.000Z</time>
      </trkpt>
      <trkpt lat="43.15642" lon="2.33964">
        <ele>205</ele>
        <time>2022-01-23T08:22:05.000Z</time>
      </trkpt>
      <trkpt lat="43.1564" lon="2.33962">
        <ele>205.1</ele>
        <time>2022-01-23T08:22:06.000Z</time>
      </trkpt>
      <trkpt lat="43.15639" lon="2.3396">
        <ele>205.3</ele>
        <time>2022-01-23T08:22:07.000Z</time>
      </trkpt>
      <trkpt lat="43.15637" lon="2.33958">
        <ele>205.4</ele>
        <time>2022-01-23T08:22:08.000Z</time>
      </trkpt>
      <trkpt lat="43.15636" lon="2.33956">
        <ele>205.5</ele>
        <time>2022-01-23T08:22:09.000Z</time>
      </trkpt>
      <trkpt lat="43.15634" lon="2.33953">
        <ele>205.7</ele>
        <time>2022-01-23T08:22:10.000Z</time>
      </trkpt>
      <trkpt lat="43.15633" lon="2.33951">
        <ele>205.8</ele>
        <time>2022-01-23T08:22:11.000Z</time>
      </trkpt>
      <trkpt lat="43.15631" lon="2.33949">
        <ele>205.9</ele>
        <time>2022-01-23T08:22:12.000Z</time>
      </trkpt>
      <trkpt lat="43.1563" lon="2.33947">
        <ele>206</ele>
        <time>2022-01-23T08:22:13.000Z</time>
      </trkpt>
      <trkpt lat="43.15628" lon="2.33945">
        <ele>206.1</ele>
        <time>2022-01-23T08:22:14.000Z</time>
      </trkpt>
      <trkpt lat="43.15627" lon="2.33942">
        <ele>206.2</ele>
        <time>2022-01-23T08:22:15.000Z</time>
      </trkpt>
      <trkpt lat="43.15625" lon="2.3394">
        <ele>206.3</ele>
        <time>2022-01-23T08:22:16.000Z</time>
      </trkpt>
      <trkpt lat="43.15624" lon="2.33938">
        <ele>206.4</ele>
        <time>2022-01-23T08:22:17.000Z</time>
      </trkpt>
      <trkpt lat="43.15623" lon="2.33937">
        <ele>206.4</ele>
        <time>2022-01-23T08:22:18.000Z</time>
      </trkpt>
      <trkpt lat="43.15622" lon="2.33935">
        <ele>206.5</ele>
        <time>2022-01-23T08:22:19.000Z</time>
      </trkpt>
      <trkpt lat="43.15621" lon="2.33933">
        <ele>206.6</ele>
        <time>2022-01-23T08:22:20.000Z</time>
      </trkpt>
      <trkpt lat="43.1562" lon="2.33932">
        <ele>206.6</ele>
        <time>2022-01-23T08:22:21.000Z</time>
      </trkpt>
      <trkpt lat="43.15619" lon="2.3393">
        <ele>206.6</ele>
        <time>2022-01-23T08:22:22.000Z</time>
      </trkpt>
      <trkpt lat="43.15618" lon="2.33929">
        <ele>206.7</ele>
        <time>2022-01-23T08:22:23.000Z</time>
      </trkpt>
      <trkpt lat="43.15618" lon="2.33928">
        <ele>206.7</ele>
        <time>2022-01-23T08:22:24.000Z</time>
      </trkpt>
      <trkpt lat="43.15617" lon="2.33927">
        <ele>206.7</ele>
        <time>2022-01-23T08:22:25.000Z</time>
      </trkpt>
      <trkpt lat="43.15617" lon="2.33926">
        <ele>206.8</ele>
        <time>2022-01-23T08:22:26.000Z</time>
      </trkpt>
      <trkpt lat="43.15616" lon="2.33925">
        <ele>206.8</ele>
        <time>2022-01-23T08:22:27.000Z</time>
      </trkpt>
      <trkpt lat="43.15616" lon="2.33924">
        <ele>206.8</ele>
        <time>2022-01-23T08:22:28.000Z</time>
      </trkpt>
      <trkpt lat="43.15615" lon="2.33923">
        <ele>206.9</ele>
        <time>2022-01-23T08:22:29.000Z</time>
      </trkpt>
      <trkpt lat="43.15615" lon="2.33922">
        <ele>206.9</ele>
        <time>2022-01-23T08:22:30.000Z</time>
      </trkpt>
      <trkpt lat="43.15614" lon="2.3392">
        <ele>206.9</ele>
        <time>2022-01-23T08:22:31.000Z</time>
      </trkpt>
      <trkpt lat="43.15613" lon="2.33918">
        <ele>207</ele>
        <time>2022-01-23T08:22:32.000Z</time>
      </trkpt>
      <trkpt lat="43.15612" lon="2.33917">
        <ele>207</ele>
        <time>2022-01-23T08:22:33.000Z</time>
      </trkpt>
      <trkpt lat="43.15611" lon="2.33914">
        <ele>207</ele>
        <time>2022-01-23T08:22:34.000Z</time>
      </trkpt>
      <trkpt lat="43.1561" lon="2.33912">
        <ele>207</ele>
        <time>2022-01-23T08:22:35.000Z</time>
      </trkpt>
      <trkpt lat="43.15608" lon="2.3391">
        <ele>207</ele>
        <time>2022-01-23T08:22:36.000Z</time>
      </trkpt>
      <trkpt lat="43.15607" lon="2.33907">
        <ele>207</ele>
        <time>2022-01-23T08:22:37.000Z</time>
      </trkpt>
      <trkpt lat="43.15605" lon="2.33904">
        <ele>207</ele>
        <time>2022-01-23T08:22:38.000Z</time>
      </trkpt>
      <trkpt lat="43.15604" lon="2.33901">
        <ele>207</ele>
        <time>2022-01-23T08:22:39.000Z</time>
      </trkpt>
      <trkpt lat="43.15602" lon="2.33898">
        <ele>207</ele>
        <time>2022-01-23T08:22:40.000Z</time>
      </trkpt>
      <trkpt lat="43.15601" lon="2.33895">
        <ele>206.9</ele>
        <time>2022-01-23T08:22:41.000Z</time>
      </trkpt>
      <trkpt lat="43.15599" lon="2.33892">
        <ele>206.9</ele>
        <time>2022-01-23T08:22:42.000Z</time>
      </trkpt>
      <trkpt lat="43.15598" lon="2.33889">
        <ele>206.8</ele>
        <time>2022-01-23T08:22:43.000Z</time>
      </trkpt>
      <trkpt lat="43.15597" lon="2.33885">
        <ele>206.7</ele>
        <time>2022-01-23T08:22:44.000Z</time>
      </trkpt>
      <trkpt lat="43.15596" lon="2.33882">
        <ele>206.7</ele>
        <time>2022-01-23T08:22:45.000Z</time>
      </trkpt>
      <trkpt lat="43.15595" lon="2.33879">
        <ele>206.6</ele>
        <time>2022-01-23T08:22:46.000Z</time>
      </trkpt>
      <trkpt lat="43.15593" lon="2.33875">
        <ele>206.5</ele>
        <time>2022-01-23T08:22:47.000Z</time>
      </trkpt>
      <trkpt lat="43.15592" lon="2.33872">
        <ele>206.4</ele>
        <time>2022-01-23T08:22:48.000Z</time>
      </trkpt>
      <trkpt lat="43.15591" lon="2.33869">
        <ele>206.3</ele>
        <time>2022-01-23T08:22:49.000Z</time>
      </trkpt>
      <trkpt lat="43.1559" lon="2.33866">
        <ele>206.2</ele>
        <time>2022-01-23T08:22:50.000Z</time>
      </trkpt>
      <trkpt lat="43.15588" lon="2.33863">
        <ele>206</ele>
        <time>2022-01-23T08:22:51.000Z</time>
      </trkpt>
      <trkpt lat="43.15587" lon="2.3386">
        <ele>205.9</ele>
        <time>2022-01-23T08:22:52.000Z</time>
      </trkpt>
      <trkpt lat="43.15586" lon="2.33857">
        <ele>205.7</ele>
        <time>2022-01-23T08:22:53.000Z</time>
      </trkpt>
      <trkpt lat="43.15584" lon="2.33854">
        <ele>205.5</ele>
        <time>2022-01-23T08:22:54.000Z</time>
      </trkpt>
      <trkpt lat="43.15583" lon="2.33851">
        <ele>205.4</ele>
        <time>2022-01-23T08:22:55.000Z</time>
      </trkpt>
      <trkpt lat="43.15581" lon="2.33848">
        <ele>205.3</ele>
        <time>2022-01-23T08:22:56.000Z</time>
      </trkpt>
      <trkpt lat="43.15579" lon="2.33845">
        <ele>205.2</ele>
        <time>2022-01-23T08:22:57.000Z</time>
      </trkpt>
      <trkpt lat="43.15578" lon="2.33842">
        <ele>205.1</ele>
        <time>2022-01-23T08:22:58.000Z</time>
      </trkpt>
      <trkpt lat="43.15576" lon="2.33839">
        <ele>205</ele>
        <time>2022-01-23T08:22:59.000Z</time>
      </trkpt>
      <trkpt lat="43.15574" lon="2.33836">
        <ele>204.9</ele>
        <time>2022-01-23T08:23:00.000Z</time>
      </trkpt>
      <trkpt lat="43.15572" lon="2.33833">
        <ele>204.7</ele>
        <time>2022-01-23T08:23:01.000Z</time>
      </trkpt>
      <trkpt lat="43.15571" lon="2.3383">
        <ele>204.5</ele>
        <time>2022-01-23T08:23:02.000Z</time>
      </trkpt>
      <trkpt lat="43.15569" lon="2.33827">
        <ele>204.3</ele>
        <time>2022-01-23T08:23:03.000Z</time>
      </trkpt>
      <trkpt lat="43.15567" lon="2.33824">
        <ele>204.1</ele>
        <time>2022-01-23T08:23:04.000Z</time>
      </trkpt>
      <trkpt lat="43.15565" lon="2.33821">
        <ele>203.9</ele>
        <time>2022-01-23T08:23:05.000Z</time>
      </trkpt>
      <trkpt lat="43.15563" lon="2.33818">
        <ele>203.7</ele>
        <time>2022-01-23T08:23:06.000Z</time>
      </trkpt>
      <trkpt lat="43.15561" lon="2.33815">
        <ele>203.5</ele>
        <time>2022-01-23T08:23:07.000Z</time>
      </trkpt>
      <trkpt lat="43.15559" lon="2.33812">
        <ele>203.3</ele>
        <time>2022-01-23T08:23:08.000Z</time>
      </trkpt>
      <trkpt lat="43.15557" lon="2.33809">
        <ele>203</ele>
        <time>2022-01-23T08:23:09.000Z</time>
      </trkpt>
      <trkpt lat="43.15555" lon="2.33807">
        <ele>202.8</ele>
        <time>2022-01-23T08:23:10.000Z</time>
      </trkpt>
      <trkpt lat="43.15554" lon="2.33804">
        <ele>202.6</ele>
        <time>2022-01-23T08:23:11.000Z</time>
      </trkpt>
      <trkpt lat="43.15552" lon="2.33801">
        <ele>202.4</ele>
        <time>2022-01-23T08:23:12.000Z</time>
      </trkpt>
      <trkpt lat="43.1555" lon="2.33798">
        <ele>202.2</ele>
        <time>2022-01-23T08:23:13.000Z</time>
      </trkpt>
      <trkpt lat="43.15548" lon="2.33796">
        <ele>202</ele>
        <time>2022-01-23T08:23:14.000Z</time>
      </trkpt>
      <trkpt lat="43.15546" lon="2.33793">
        <ele>201.7</ele>
        <time>2022-01-23T08:23:15.000Z</time>
      </trkpt>
      <trkpt lat="43.15544" lon="2.3379">
        <ele>201.5</ele>
        <time>2022-01-23T08:23:16.000Z</time>
      </trkpt>
      <trkpt lat="43.15543" lon="2.33786">
        <ele>201.2</ele>
        <time>2022-01-23T08:23:17.000Z</time>
      </trkpt>
      <trkpt lat="43.15541" lon="2.33783">
        <ele>201</ele>
        <time>2022-01-23T08:23:18.000Z</time>
      </trkpt>
      <trkpt lat="43.15539" lon="2.3378">
        <ele>200.7</ele>
        <time>2022-01-23T08:23:19.000Z</time>
      </trkpt>
      <trkpt lat="43.15537" lon="2.33777">
        <ele>200.4</ele>
        <time>2022-01-23T08:23:20.000Z</time>
      </trkpt>
      <trkpt lat="43.15536" lon="2.33773">
        <ele>200.1</ele>
        <time>2022-01-23T08:23:21.000Z</time>
      </trkpt>
      <trkpt lat="43.15534" lon="2.3377">
        <ele>199.9</ele>
        <time>2022-01-23T08:23:22.000Z</time>
      </trkpt>
      <trkpt lat="43.15532" lon="2.33766">
        <ele>199.6</ele>
        <time>2022-01-23T08:23:23.000Z</time>
      </trkpt>
      <trkpt lat="43.15531" lon="2.33763">
        <ele>199.3</ele>
        <time>2022-01-23T08:23:24.000Z</time>
      </trkpt>
      <trkpt lat="43.15529" lon="2.33759">
        <ele>199</ele>
        <time>2022-01-23T08:23:25.000Z</time>
      </trkpt>
      <trkpt lat="43.15527" lon="2.33756">
        <ele>198.7</ele>
        <time>2022-01-23T08:23:26.000Z</time>
      </trkpt>
      <trkpt lat="43.15526" lon="2.33752">
        <ele>198.3</ele>
        <time>2022-01-23T08:23:27.000Z</time>
      </trkpt>
      <trkpt lat="43.15524" lon="2.33748">
        <ele>198</ele>
        <time>2022-01-23T08:23:28.000Z</time>
      </trkpt>
      <trkpt lat="43.15522" lon="2.33745">
        <ele>197.7</ele>
        <time>2022-01-23T08:23:29.000Z</time>
      </trkpt>
      <trkpt lat="43.15521" lon="2.33741">
        <ele>197.5</ele>
        <time>2022-01-23T08:23:30.000Z</time>
      </trkpt>
      <trkpt lat="43.15519" lon="2.33737">
        <ele>197.2</ele>
        <time>2022-01-23T08:23:31.000Z</time>
      </trkpt>
      <trkpt lat="43.15517" lon="2.33734">
        <ele>196.9</ele>
        <time>2022-01-23T08:23:32.000Z</time>
      </trkpt>
      <trkpt lat="43.15516" lon="2.3373">
        <ele>196.6</ele>
        <time>2022-01-23T08:23:33.000Z</time>
      </trkpt>
      <trkpt lat="43.15514" lon="2.33727">
        <ele>196.4</ele>
        <time>2022-01-23T08:23:34.000Z</time>
      </trkpt>
      <trkpt lat="43.15513" lon="2.33723">
        <ele>196.1</ele>
        <time>2022-01-23T08:23:35.000Z</time>
      </trkpt>
      <trkpt lat="43.15511" lon="2.3372">
        <ele>195.9</ele>
        <time>2022-01-23T08:23:36.000Z</time>
      </trkpt>
      <trkpt lat="43.15509" lon="2.33717">
        <ele>195.7</ele>
        <time>2022-01-23T08:23:37.000Z</time>
      </trkpt>
      <trkpt lat="43.15508" lon="2.33713">
        <ele>195.4</ele>
        <time>2022-01-23T08:23:38.000Z</time>
      </trkpt>
      <trkpt lat="43.15506" lon="2.3371">
        <ele>195.2</ele>
        <time>2022-01-23T08:23:39.000Z</time>
      </trkpt>
      <trkpt lat="43.15505" lon="2.33706">
        <ele>195</ele>
        <time>2022-01-23T08:23:40.000Z</time>
      </trkpt>
      <trkpt lat="43.15504" lon="2.33703">
        <ele>194.8</ele>
        <time>2022-01-23T08:23:41.000Z</time>
      </trkpt>
      <trkpt lat="43.15502" lon="2.33699">
        <ele>194.6</ele>
        <time>2022-01-23T08:23:42.000Z</time>
      </trkpt>
      <trkpt lat="43.15501" lon="2.33696">
        <ele>194.4</ele>
        <time>2022-01-23T08:23:43.000Z</time>
      </trkpt>
      <trkpt lat="43.155" lon="2.33692">
        <ele>194.2</ele>
        <time>2022-01-23T08:23:44.000Z</time>
      </trkpt>
      <trkpt lat="43.15499" lon="2.33689">
        <ele>194.2</ele>
        <time>2022-01-23T08:23:45.000Z</time>
      </trkpt>
      <trkpt lat="43.15498" lon="2.33685">
        <ele>194.1</ele>
        <time>2022-01-23T08:23:46.000Z</time>
      </trkpt>
      <trkpt lat="43.15498" lon="2.33682">
        <ele>194.1</ele>
        <time>2022-01-23T08:23:47.000Z</time>
      </trkpt>
      <trkpt lat="43.15497" lon="2.33678">
        <ele>194</ele>
        <time>2022-01-23T08:23:48.000Z</time>
      </trkpt>
      <trkpt lat="43.15496" lon="2.33674">
        <ele>193.9</ele>
        <time>2022-01-23T08:23:49.000Z</time>
      </trkpt>
      <trkpt lat="43.15496" lon="2.3367">
        <ele>193.8</ele>
        <time>2022-01-23T08:23:50.000Z</time>
      </trkpt>
      <trkpt lat="43.15496" lon="2.33666">
        <ele>193.7</ele>
        <time>2022-01-23T08:23:51.000Z</time>
      </trkpt>
      <trkpt lat="43.15495" lon="2.33663">
        <ele>193.7</ele>
        <time>2022-01-23T08:23:52.000Z</time>
      </trkpt>
      <trkpt lat="43.15495" lon="2.33659">
        <ele>193.6</ele>
        <time>2022-01-23T08:23:53.000Z</time>
      </trkpt>
      <trkpt lat="43.15495" lon="2.33655">
        <ele>193.6</ele>
        <time>2022-01-23T08:23:54.000Z</time>
      </trkpt>
      <trkpt lat="43.15495" lon="2.33651">
        <ele>193.5</ele>
        <time>2022-01-23T08:23:55.000Z</time>
      </trkpt>
      <trkpt lat="43.15495" lon="2.33647">
        <ele>193.4</ele>
        <time>2022-01-23T08:23:56.000Z</time>
      </trkpt>
      <trkpt lat="43.15495" lon="2.33644">
        <ele>193.4</ele>
        <time>2022-01-23T08:23:57.000Z</time>
      </trkpt>
      <trkpt lat="43.15496" lon="2.3364">
        <ele>193.3</ele>
        <time>2022-01-23T08:23:58.000Z</time>
      </trkpt>
      <trkpt lat="43.15496" lon="2.33637">
        <ele>193.2</ele>
        <time>2022-01-23T08:23:59.000Z</time>
      </trkpt>
      <trkpt lat="43.15496" lon="2.33633">
        <ele>193.2</ele>
        <time>2022-01-23T08:24:00.000Z</time>
      </trkpt>
      <trkpt lat="43.15496" lon="2.3363">
        <ele>193.1</ele>
        <time>2022-01-23T08:24:01.000Z</time>
      </trkpt>
      <trkpt lat="43.15496" lon="2.33627">
        <ele>193.1</ele>
        <time>2022-01-23T08:24:02.000Z</time>
      </trkpt>
      <trkpt lat="43.15496" lon="2.33624">
        <ele>193</ele>
        <time>2022-01-23T08:24:03.000Z</time>
      </trkpt>
      <trkpt lat="43.15496" lon="2.3362">
        <ele>192.9</ele>
        <time>2022-01-23T08:24:04.000Z</time>
      </trkpt>
      <trkpt lat="43.15496" lon="2.33617">
        <ele>192.9</ele>
        <time>2022-01-23T08:24:05.000Z</time>
      </trkpt>
      <trkpt lat="43.15497" lon="2.33614">
        <ele>192.8</ele>
        <time>2022-01-23T08:24:06.000Z</time>
      </trkpt>
      <trkpt lat="43.15497" lon="2.33611">
        <ele>192.7</ele>
        <time>2022-01-23T08:24:07.000Z</time>
      </trkpt>
      <trkpt lat="43.15497" lon="2.33607">
        <ele>192.6</ele>
        <time>2022-01-23T08:24:08.000Z</time>
      </trkpt>
      <trkpt lat="43.15497" lon="2.33604">
        <ele>192.6</ele>
        <time>2022-01-23T08:24:09.000Z</time>
      </trkpt>
      <trkpt lat="43.15498" lon="2.336">
        <ele>192.5</ele>
        <time>2022-01-23T08:24:10.000Z</time>
      </trkpt>
      <trkpt lat="43.15498" lon="2.33597">
        <ele>192.4</ele>
        <time>2022-01-23T08:24:11.000Z</time>
      </trkpt>
      <trkpt lat="43.15498" lon="2.33594">
        <ele>192.3</ele>
        <time>2022-01-23T08:24:12.000Z</time>
      </trkpt>
      <trkpt lat="43.15498" lon="2.3359">
        <ele>192.3</ele>
        <time>2022-01-23T08:24:13.000Z</time>
      </trkpt>
      <trkpt lat="43.15498" lon="2.33587">
        <ele>192.2</ele>
        <time>2022-01-23T08:24:14.000Z</time>
      </trkpt>
      <trkpt lat="43.15498" lon="2.33583">
        <ele>192.2</ele>
        <time>2022-01-23T08:24:15.000Z</time>
      </trkpt>
      <trkpt lat="43.15498" lon="2.3358">
        <ele>192.2</ele>
        <time>2022-01-23T08:24:16.000Z</time>
      </trkpt>
      <trkpt lat="43.15497" lon="2.33577">
        <ele>192.3</ele>
        <time>2022-01-23T08:24:17.000Z</time>
      </trkpt>
      <trkpt lat="43.15497" lon="2.33574">
        <ele>192.4</ele>
        <time>2022-01-23T08:24:18.000Z</time>
      </trkpt>
      <trkpt lat="43.15496" lon="2.33571">
        <ele>192.4</ele>
        <time>2022-01-23T08:24:19.000Z</time>
      </trkpt>
      <trkpt lat="43.15495" lon="2.33568">
        <ele>192.5</ele>
        <time>2022-01-23T08:24:20.000Z</time>
      </trkpt>
      <trkpt lat="43.15494" lon="2.33565">
        <ele>192.7</ele>
        <time>2022-01-23T08:24:21.000Z</time>
      </trkpt>
      <trkpt lat="43.15492" lon="2.33562">
        <ele>192.8</ele>
        <time>2022-01-23T08:24:22.000Z</time>
      </trkpt>
      <trkpt lat="43.15491" lon="2.3356">
        <ele>192.9</ele>
        <time>2022-01-23T08:24:23.000Z</time>
      </trkpt>
      <trkpt lat="43.1549" lon="2.33557">
        <ele>193</ele>
        <time>2022-01-23T08:24:24.000Z</time>
      </trkpt>
      <trkpt lat="43.15488" lon="2.33554">
        <ele>193.1</ele>
        <time>2022-01-23T08:24:25.000Z</time>
      </trkpt>
      <trkpt lat="43.15487" lon="2.33552">
        <ele>193.3</ele>
        <time>2022-01-23T08:24:26.000Z</time>
      </trkpt>
      <trkpt lat="43.15485" lon="2.33549">
        <ele>193.4</ele>
        <time>2022-01-23T08:24:27.000Z</time>
      </trkpt>
      <trkpt lat="43.15484" lon="2.33547">
        <ele>193.5</ele>
        <time>2022-01-23T08:24:28.000Z</time>
      </trkpt>
      <trkpt lat="43.15482" lon="2.33544">
        <ele>193.6</ele>
        <time>2022-01-23T08:24:29.000Z</time>
      </trkpt>
      <trkpt lat="43.1548" lon="2.33542">
        <ele>193.8</ele>
        <time>2022-01-23T08:24:30.000Z</time>
      </trkpt>
      <trkpt lat="43.15479" lon="2.33539">
        <ele>193.9</ele>
        <time>2022-01-23T08:24:31.000Z</time>
      </trkpt>
      <trkpt lat="43.15477" lon="2.33537">
        <ele>194</ele>
        <time>2022-01-23T08:24:32.000Z</time>
      </trkpt>
      <trkpt lat="43.15475" lon="2.33534">
        <ele>194.1</ele>
        <time>2022-01-23T08:24:33.000Z</time>
      </trkpt>
      <trkpt lat="43.15474" lon="2.33532">
        <ele>194.3</ele>
        <time>2022-01-23T08:24:34.000Z</time>
      </trkpt>
      <trkpt lat="43.15472" lon="2.33529">
        <ele>194.4</ele>
        <time>2022-01-23T08:24:35.000Z</time>
      </trkpt>
      <trkpt lat="43.15471" lon="2.33527">
        <ele>194.5</ele>
        <time>2022-01-23T08:24:36.000Z</time>
      </trkpt>
      <trkpt lat="43.15469" lon="2.33524">
        <ele>194.6</ele>
        <time>2022-01-23T08:24:37.000Z</time>
      </trkpt>
      <trkpt lat="43.15467" lon="2.33522">
        <ele>194.7</ele>
        <time>2022-01-23T08:24:38.000Z</time>
      </trkpt>
      <trkpt lat="43.15466" lon="2.33519">
        <ele>194.7</ele>
        <time>2022-01-23T08:24:39.000Z</time>
      </trkpt>
      <trkpt lat="43.15465" lon="2.33516">
        <ele>194.8</ele>
        <time>2022-01-23T08:24:40.000Z</time>
      </trkpt>
      <trkpt lat="43.15463" lon="2.33514">
        <ele>194.9</ele>
        <time>2022-01-23T08:24:41.000Z</time>
      </trkpt>
      <trkpt lat="43.15462" lon="2.33511">
        <ele>194.9</ele>
        <time>2022-01-23T08:24:42.000Z</time>
      </trkpt>
      <trkpt lat="43.15461" lon="2.33508">
        <ele>195</ele>
        <time>2022-01-23T08:24:43.000Z</time>
      </trkpt>
      <trkpt lat="43.15459" lon="2.33505">
        <ele>195</ele>
        <time>2022-01-23T08:24:44.000Z</time>
      </trkpt>
      <trkpt lat="43.15458" lon="2.33502">
        <ele>195</ele>
        <time>2022-01-23T08:24:45.000Z</time>
      </trkpt>
      <trkpt lat="43.15457" lon="2.33499">
        <ele>195</ele>
        <time>2022-01-23T08:24:46.000Z</time>
      </trkpt>
      <trkpt lat="43.15456" lon="2.33495">
        <ele>194.9</ele>
        <time>2022-01-23T08:24:47.000Z</time>
      </trkpt>
      <trkpt lat="43.15455" lon="2.33492">
        <ele>194.8</ele>
        <time>2022-01-23T08:24:48.000Z</time>
      </trkpt>
      <trkpt lat="43.15454" lon="2.33489">
        <ele>194.7</ele>
        <time>2022-01-23T08:24:49.000Z</time>
      </trkpt>
      <trkpt lat="43.15453" lon="2.33485">
        <ele>194.6</ele>
        <time>2022-01-23T08:24:50.000Z</time>
      </trkpt>
      <trkpt lat="43.15452" lon="2.33482">
        <ele>194.4</ele>
        <time>2022-01-23T08:24:51.000Z</time>
      </trkpt>
      <trkpt lat="43.15452" lon="2.33478">
        <ele>194.3</ele>
        <time>2022-01-23T08:24:52.000Z</time>
      </trkpt>
      <trkpt lat="43.15451" lon="2.33475">
        <ele>194.2</ele>
        <time>2022-01-23T08:24:53.000Z</time>
      </trkpt>
      <trkpt lat="43.1545" lon="2.33472">
        <ele>194</ele>
        <time>2022-01-23T08:24:54.000Z</time>
      </trkpt>
      <trkpt lat="43.15449" lon="2.33469">
        <ele>193.9</ele>
        <time>2022-01-23T08:24:55.000Z</time>
      </trkpt>
      <trkpt lat="43.15448" lon="2.33466">
        <ele>193.8</ele>
        <time>2022-01-23T08:24:56.000Z</time>
      </trkpt>
      <trkpt lat="43.15447" lon="2.33463">
        <ele>193.8</ele>
        <time>2022-01-23T08:24:57.000Z</time>
      </trkpt>
      <trkpt lat="43.15446" lon="2.33461">
        <ele>193.7</ele>
        <time>2022-01-23T08:24:58.000Z</time>
      </trkpt>
      <trkpt lat="43.15445" lon="2.3346">
        <ele>193.7</ele>
        <time>2022-01-23T08:24:59.000Z</time>
      </trkpt>
      <trkpt lat="43.15444" lon="2.33459">
        <ele>193.7</ele>
        <time>2022-01-23T08:25:00.000Z</time>
      </trkpt>
      <trkpt lat="43.15443" lon="2.33458">
        <ele>193.7</ele>
        <time>2022-01-23T08:25:01.000Z</time>
      </trkpt>
      <trkpt lat="43.15443" lon="2.33457">
        <ele>193.7</ele>
        <time>2022-01-23T08:25:02.000Z</time>
      </trkpt>
      <trkpt lat="43.15442" lon="2.33457">
        <ele>193.8</ele>
        <time>2022-01-23T08:25:03.000Z</time>
      </trkpt>
      <trkpt lat="43.15441" lon="2.33457">
        <ele>193.8</ele>
        <time>2022-01-23T08:25:04.000Z</time>
      </trkpt>
      <trkpt lat="43.15441" lon="2.33457">
        <ele>193.8</ele>
        <time>2022-01-23T08:25:05.000Z</time>
      </trkpt>
      <trkpt lat="43.15441" lon="2.33457">
        <ele>193.8</ele>
        <time>2022-01-23T08:25:06.000Z</time>
      </trkpt>
      <trkpt lat="43.15441" lon="2.33457">
        <ele>193.8</ele>
        <time>2022-01-23T08:25:07.000Z</time>
      </trkpt>
      <trkpt lat="43.15441" lon="2.33457">
        <ele>193.8</ele>
        <time>2022-01-23T08:25:08.000Z</time>
      </trkpt>
      <trkpt lat="43.15441" lon="2.33457">
        <ele>193.8</ele>
        <time>2022-01-23T08:25:09.000Z</time>
      </trkpt>
      <trkpt lat="43.15441" lon="2.33457">
        <ele>193.8</ele>
        <time>2022-01-23T08:25:10.000Z</time>
      </trkpt>
      <trkpt lat="43.15441" lon="2.33457">
        <ele>193.8</ele>
        <time>2022-01-23T08:25:11.000Z</time>
      </trkpt>
      <trkpt lat="43.15441" lon="2.33457">
        <ele>193.8</ele>
        <time>2022-01-23T08:25:12.000Z</time>
      </trkpt>
      <trkpt lat="43.15441" lon="2.33457">
        <ele>193.8</ele>
        <time>2022-01-23T08:25:13.000Z</time>
      </trkpt>
      <trkpt lat="43.15441" lon="2.33457">
        <ele>193.8</ele>
        <time>2022-01-23T08:25:14.000Z</time>
      </trkpt>
      <trkpt lat="43.15441" lon="2.33457">
        <ele>193.8</ele>
        <time>2022-01-23T08:25:15.000Z</time>
      </trkpt>
      <trkpt lat="43.15441" lon="2.33457">
        <ele>193.8</ele>
        <time>2022-01-23T08:25:16.000Z</time>
      </trkpt>
      <trkpt lat="43.15441" lon="2.33457">
        <ele>193.8</ele>
        <time>2022-01-23T08:25:17.000Z</time>
      </trkpt>
      <trkpt lat="43.15441" lon="2.33457">
        <ele>193.8</ele>
        <time>2022-01-23T08:25:18.000Z</time>
      </trkpt>
      <trkpt lat="43.15441" lon="2.33457">
        <ele>193.8</ele>
        <time>2022-01-23T08:25:19.000Z</time>
      </trkpt>
      <trkpt lat="43.15441" lon="2.33457">
        <ele>193.8</ele>
        <time>2022-01-23T08:25:20.000Z</time>
      </trkpt>
      <trkpt lat="43.15441" lon="2.33457">
        <ele>193.8</ele>
        <time>2022-01-23T08:25:21.000Z</time>
      </trkpt>
      <trkpt lat="43.15441" lon="2.33457">
        <ele>193.8</ele>
        <time>2022-01-23T08:25:22.000Z</time>
      </trkpt>
      <trkpt lat="43.15441" lon="2.33457">
        <ele>193.8</ele>
        <time>2022-01-23T08:25:23.000Z</time>
      </trkpt>
      <trkpt lat="43.15441" lon="2.33457">
        <ele>193.8</ele>
        <time>2022-01-23T08:25:24.000Z</time>
      </trkpt>
      <trkpt lat="43.15441" lon="2.33457">
        <ele>193.8</ele>
        <time>2022-01-23T08:25:25.000Z</time>
      </trkpt>
      <trkpt lat="43.15441" lon="2.33457">
        <ele>193.8</ele>
        <time>2022-01-23T08:25:26.000Z</time>
      </trkpt>
      <trkpt lat="43.15441" lon="2.33457">
        <ele>193.8</ele>
        <time>2022-01-23T08:25:27.000Z</time>
      </trkpt>
      <trkpt lat="43.15441" lon="2.33457">
        <ele>193.8</ele>
        <time>2022-01-23T08:25:28.000Z</time>
      </trkpt>
      <trkpt lat="43.15441" lon="2.33457">
        <ele>193.8</ele>
        <time>2022-01-23T08:25:29.000Z</time>
      </trkpt>
      <trkpt lat="43.15441" lon="2.33457">
        <ele>193.8</ele>
        <time>2022-01-23T08:25:30.000Z</time>
      </trkpt>
      <trkpt lat="43.1544" lon="2.33457">
        <ele>193.8</ele>
        <time>2022-01-23T08:25:31.000Z</time>
      </trkpt>
      <trkpt lat="43.1544" lon="2.33456">
        <ele>193.9</ele>
        <time>2022-01-23T08:25:32.000Z</time>
      </trkpt>
      <trkpt lat="43.15439" lon="2.33456">
        <ele>193.9</ele>
        <time>2022-01-23T08:25:33.000Z</time>
      </trkpt>
      <trkpt lat="43.15439" lon="2.33456">
        <ele>193.9</ele>
        <time>2022-01-23T08:25:34.000Z</time>
      </trkpt>
      <trkpt lat="43.15439" lon="2.33456">
        <ele>193.9</ele>
        <time>2022-01-23T08:25:35.000Z</time>
      </trkpt>
      <trkpt lat="43.15439" lon="2.33456">
        <ele>193.9</ele>
        <time>2022-01-23T08:25:36.000Z</time>
      </trkpt>
      <trkpt lat="43.15438" lon="2.33455">
        <ele>193.9</ele>
        <time>2022-01-23T08:25:37.000Z</time>
      </trkpt>
      <trkpt lat="43.15438" lon="2.33455">
        <ele>193.9</ele>
        <time>2022-01-23T08:25:38.000Z</time>
      </trkpt>
      <trkpt lat="43.15438" lon="2.33455">
        <ele>193.9</ele>
        <time>2022-01-23T08:25:39.000Z</time>
      </trkpt>
      <trkpt lat="43.15438" lon="2.33454">
        <ele>193.9</ele>
        <time>2022-01-23T08:25:40.000Z</time>
      </trkpt>
      <trkpt lat="43.15438" lon="2.33454">
        <ele>193.9</ele>
        <time>2022-01-23T08:25:41.000Z</time>
      </trkpt>
      <trkpt lat="43.15438" lon="2.33454">
        <ele>193.9</ele>
        <time>2022-01-23T08:25:42.000Z</time>
      </trkpt>
      <trkpt lat="43.15438" lon="2.33454">
        <ele>193.8</ele>
        <time>2022-01-23T08:25:43.000Z</time>
      </trkpt>
      <trkpt lat="43.15438" lon="2.33454">
        <ele>193.8</ele>
        <time>2022-01-23T08:25:44.000Z</time>
      </trkpt>
      <trkpt lat="43.15438" lon="2.33453">
        <ele>193.8</ele>
        <time>2022-01-23T08:25:45.000Z</time>
      </trkpt>
      <trkpt lat="43.15438" lon="2.33453">
        <ele>193.8</ele>
        <time>2022-01-23T08:25:46.000Z</time>
      </trkpt>
      <trkpt lat="43.15438" lon="2.33453">
        <ele>193.8</ele>
        <time>2022-01-23T08:25:47.000Z</time>
      </trkpt>
      <trkpt lat="43.15438" lon="2.33453">
        <ele>193.8</ele>
        <time>2022-01-23T08:25:48.000Z</time>
      </trkpt>
      <trkpt lat="43.15438" lon="2.33453">
        <ele>193.8</ele>
        <time>2022-01-23T08:25:49.000Z</time>
      </trkpt>
      <trkpt lat="43.15438" lon="2.33453">
        <ele>193.8</ele>
        <time>2022-01-23T08:25:50.000Z</time>
      </trkpt>
      <trkpt lat="43.15438" lon="2.33453">
        <ele>193.8</ele>
        <time>2022-01-23T08:25:51.000Z</time>
      </trkpt>
      <trkpt lat="43.15438" lon="2.33452">
        <ele>193.7</ele>
        <time>2022-01-23T08:25:52.000Z</time>
      </trkpt>
      <trkpt lat="43.15438" lon="2.33452">
        <ele>193.7</ele>
        <time>2022-01-23T08:25:53.000Z</time>
      </trkpt>
      <trkpt lat="43.15438" lon="2.33452">
        <ele>193.7</ele>
        <time>2022-01-23T08:25:54.000Z</time>
      </trkpt>
      <trkpt lat="43.15438" lon="2.33452">
        <ele>193.7</ele>
        <time>2022-01-23T08:25:55.000Z</time>
      </trkpt>
      <trkpt lat="43.15438" lon="2.33452">
        <ele>193.7</ele>
        <time>2022-01-23T08:25:56.000Z</time>
      </trkpt>
      <trkpt lat="43.15438" lon="2.33452">
        <ele>193.7</ele>
        <time>2022-01-23T08:25:57.000Z</time>
      </trkpt>
      <trkpt lat="43.15438" lon="2.33452">
        <ele>193.7</ele>
        <time>2022-01-23T08:25:58.000Z</time>
      </trkpt>
      <trkpt lat="43.15438" lon="2.33452">
        <ele>193.7</ele>
        <time>2022-01-23T08:25:59.000Z</time>
      </trkpt>
      <trkpt lat="43.15438" lon="2.33452">
        <ele>193.7</ele>
        <time>2022-01-23T08:26:00.000Z</time>
      </trkpt>
      <trkpt lat="43.15438" lon="2.33452">
        <ele>193.7</ele>
        <time>2022-01-23T08:26:01.000Z</time>
      </trkpt>
      <trkpt lat="43.15438" lon="2.33452">
        <ele>193.7</ele>
        <time>2022-01-23T08:26:02.000Z</time>
      </trkpt>
      <trkpt lat="43.15438" lon="2.33452">
        <ele>193.7</ele>
        <time>2022-01-23T08:26:03.000Z</time>
      </trkpt>
      <trkpt lat="43.15438" lon="2.33452">
        <ele>193.7</ele>
        <time>2022-01-23T08:26:04.000Z</time>
      </trkpt>
      <trkpt lat="43.15438" lon="2.33452">
        <ele>193.7</ele>
        <time>2022-01-23T08:26:05.000Z</time>
      </trkpt>
      <trkpt lat="43.15438" lon="2.33452">
        <ele>193.7</ele>
        <time>2022-01-23T08:26:06.000Z</time>
      </trkpt>
      <trkpt lat="43.15438" lon="2.33452">
        <ele>193.7</ele>
        <time>2022-01-23T08:26:07.000Z</time>
      </trkpt>
      <trkpt lat="43.15438" lon="2.33452">
        <ele>193.7</ele>
        <time>2022-01-23T08:26:08.000Z</time>
      </trkpt>
      <trkpt lat="43.15438" lon="2.33452">
        <ele>193.7</ele>
        <time>2022-01-23T08:26:09.000Z</time>
      </trkpt>
      <trkpt lat="43.15438" lon="2.33452">
        <ele>193.7</ele>
        <time>2022-01-23T08:26:10.000Z</time>
      </trkpt>
      <trkpt lat="43.15438" lon="2.33452">
        <ele>193.7</ele>
        <time>2022-01-23T08:26:11.000Z</time>
      </trkpt>
      <trkpt lat="43.15438" lon="2.33452">
        <ele>193.7</ele>
        <time>2022-01-23T08:26:12.000Z</time>
      </trkpt>
      <trkpt lat="43.15438" lon="2.33452">
        <ele>193.7</ele>
        <time>2022-01-23T08:26:13.000Z</time>
      </trkpt>
      <trkpt lat="43.15438" lon="2.33452">
        <ele>193.7</ele>
        <time>2022-01-23T08:26:14.000Z</time>
      </trkpt>
      <trkpt lat="43.15438" lon="2.33452">
        <ele>193.7</ele>
        <time>2022-01-23T08:26:15.000Z</time>
      </trkpt>
      <trkpt lat="43.15438" lon="2.33452">
        <ele>193.7</ele>
        <time>2022-01-23T08:26:16.000Z</time>
      </trkpt>
      <trkpt lat="43.15438" lon="2.33452">
        <ele>193.7</ele>
        <time>2022-01-23T08:26:17.000Z</time>
      </trkpt>
      <trkpt lat="43.15438" lon="2.33452">
        <ele>193.7</ele>
        <time>2022-01-23T08:26:18.000Z</time>
      </trkpt>
      <trkpt lat="43.15438" lon="2.33452">
        <ele>193.7</ele>
        <time>2022-01-23T08:26:19.000Z</time>
      </trkpt>
      <trkpt lat="43.15438" lon="2.33452">
        <ele>193.7</ele>
        <time>2022-01-23T08:26:20.000Z</time>
      </trkpt>
      <trkpt lat="43.15438" lon="2.33452">
        <ele>193.7</ele>
        <time>2022-01-23T08:26:21.000Z</time>
      </trkpt>
      <trkpt lat="43.15438" lon="2.33452">
        <ele>193.7</ele>
        <time>2022-01-23T08:26:22.000Z</time>
      </trkpt>
      <trkpt lat="43.15438" lon="2.33452">
        <ele>193.7</ele>
        <time>2022-01-23T08:26:23.000Z</time>
      </trkpt>
      <trkpt lat="43.15438" lon="2.33452">
        <ele>193.7</ele>
        <time>2022-01-23T08:26:24.000Z</time>
      </trkpt>
      <trkpt lat="43.15438" lon="2.33452">
        <ele>193.7</ele>
        <time>2022-01-23T08:26:25.000Z</time>
      </trkpt>
      <trkpt lat="43.15438" lon="2.33452">
        <ele>193.7</ele>
        <time>2022-01-23T08:26:26.000Z</time>
      </trkpt>
      <trkpt lat="43.15438" lon="2.33452">
        <ele>193.7</ele>
        <time>2022-01-23T08:26:27.000Z</time>
      </trkpt>
      <trkpt lat="43.15438" lon="2.33452">
        <ele>193.7</ele>
        <time>2022-01-23T08:26:28.000Z</time>
      </trkpt>
      <trkpt lat="43.15438" lon="2.33452">
        <ele>193.7</ele>
        <time>2022-01-23T08:26:29.000Z</time>
      </trkpt>
      <trkpt lat="43.15438" lon="2.33452">
        <ele>193.7</ele>
        <time>2022-01-23T08:26:30.000Z</time>
      </trkpt>
      <trkpt lat="43.15438" lon="2.33452">
        <ele>193.7</ele>
        <time>2022-01-23T08:26:31.000Z</time>
      </trkpt>
      <trkpt lat="43.15438" lon="2.33452">
        <ele>193.7</ele>
        <time>2022-01-23T08:26:32.000Z</time>
      </trkpt>
      <trkpt lat="43.15438" lon="2.33452">
        <ele>193.7</ele>
        <time>2022-01-23T08:26:33.000Z</time>
      </trkpt>
      <trkpt lat="43.15438" lon="2.33452">
        <ele>193.7</ele>
        <time>2022-01-23T08:26:34.000Z</time>
      </trkpt>
      <trkpt lat="43.15438" lon="2.33452">
        <ele>193.7</ele>
        <time>2022-01-23T08:26:35.000Z</time>
      </trkpt>
      <trkpt lat="43.15438" lon="2.33452">
        <ele>193.7</ele>
        <time>2022-01-23T08:26:36.000Z</time>
      </trkpt>
      <trkpt lat="43.15438" lon="2.33452">
        <ele>193.7</ele>
        <time>2022-01-23T08:26:37.000Z</time>
      </trkpt>
      <trkpt lat="43.15438" lon="2.33452">
        <ele>193.7</ele>
        <time>2022-01-23T08:26:38.000Z</time>
      </trkpt>
      <trkpt lat="43.15438" lon="2.33452">
        <ele>193.7</ele>
        <time>2022-01-23T08:26:39.000Z</time>
      </trkpt>
      <trkpt lat="43.15438" lon="2.33452">
        <ele>193.7</ele>
        <time>2022-01-23T08:26:40.000Z</time>
      </trkpt>
      <trkpt lat="43.15438" lon="2.33452">
        <ele>193.7</ele>
        <time>2022-01-23T08:26:41.000Z</time>
      </trkpt>
      <trkpt lat="43.15438" lon="2.33452">
        <ele>193.7</ele>
        <time>2022-01-23T08:26:42.000Z</time>
      </trkpt>
      <trkpt lat="43.15438" lon="2.33452">
        <ele>193.7</ele>
        <time>2022-01-23T08:26:43.000Z</time>
      </trkpt>
      <trkpt lat="43.15438" lon="2.33452">
        <ele>193.7</ele>
        <time>2022-01-23T08:26:44.000Z</time>
      </trkpt>
      <trkpt lat="43.15438" lon="2.33452">
        <ele>193.7</ele>
        <time>2022-01-23T08:26:45.000Z</time>
      </trkpt>
      <trkpt lat="43.15438" lon="2.33452">
        <ele>193.7</ele>
        <time>2022-01-23T08:26:46.000Z</time>
      </trkpt>
      <trkpt lat="43.15438" lon="2.33452">
        <ele>193.7</ele>
        <time>2022-01-23T08:26:47.000Z</time>
      </trkpt>
      <trkpt lat="43.15438" lon="2.33452">
        <ele>193.7</ele>
        <time>2022-01-23T08:26:48.000Z</time>
      </trkpt>
      <trkpt lat="43.15438" lon="2.33452">
        <ele>193.7</ele>
        <time>2022-01-23T08:26:49.000Z</time>
      </trkpt>
      <trkpt lat="43.15438" lon="2.33452">
        <ele>193.7</ele>
        <time>2022-01-23T08:26:50.000Z</time>
      </trkpt>
      <trkpt lat="43.15438" lon="2.33452">
        <ele>193.7</ele>
        <time>2022-01-23T08:26:51.000Z</time>
      </trkpt>
      <trkpt lat="43.15438" lon="2.33452">
        <ele>193.7</ele>
        <time>2022-01-23T08:26:52.000Z</time>
      </trkpt>
      <trkpt lat="43.15438" lon="2.33452">
        <ele>193.7</ele>
        <time>2022-01-23T08:26:53.000Z</time>
      </trkpt>
      <trkpt lat="43.15438" lon="2.33452">
        <ele>193.7</ele>
        <time>2022-01-23T08:26:54.000Z</time>
      </trkpt>
      <trkpt lat="43.15438" lon="2.33452">
        <ele>193.7</ele>
        <time>2022-01-23T08:26:55.000Z</time>
      </trkpt>
      <trkpt lat="43.15438" lon="2.33452">
        <ele>193.7</ele>
        <time>2022-01-23T08:26:56.000Z</time>
      </trkpt>
      <trkpt lat="43.15438" lon="2.33452">
        <ele>193.7</ele>
        <time>2022-01-23T08:26:57.000Z</time>
      </trkpt>
      <trkpt lat="43.15438" lon="2.33452">
        <ele>193.7</ele>
        <time>2022-01-23T08:26:58.000Z</time>
      </trkpt>
      <trkpt lat="43.15438" lon="2.33452">
        <ele>193.7</ele>
        <time>2022-01-23T08:26:59.000Z</time>
      </trkpt>
      <trkpt lat="43.15438" lon="2.33452">
        <ele>193.7</ele>
        <time>2022-01-23T08:27:00.000Z</time>
      </trkpt>
      <trkpt lat="43.15438" lon="2.33452">
        <ele>193.7</ele>
        <time>2022-01-23T08:27:01.000Z</time>
      </trkpt>
      <trkpt lat="43.15438" lon="2.33452">
        <ele>193.7</ele>
        <time>2022-01-23T08:27:02.000Z</time>
      </trkpt>
      <trkpt lat="43.15439" lon="2.33452">
        <ele>193.7</ele>
        <time>2022-01-23T08:27:03.000Z</time>
      </trkpt>
      <trkpt lat="43.15439" lon="2.33452">
        <ele>193.7</ele>
        <time>2022-01-23T08:27:04.000Z</time>
      </trkpt>
      <trkpt lat="43.15439" lon="2.33452">
        <ele>193.7</ele>
        <time>2022-01-23T08:27:05.000Z</time>
      </trkpt>
      <trkpt lat="43.1544" lon="2.33452">
        <ele>193.6</ele>
        <time>2022-01-23T08:27:06.000Z</time>
      </trkpt>
      <trkpt lat="43.15441" lon="2.33452">
        <ele>193.6</ele>
        <time>2022-01-23T08:27:07.000Z</time>
      </trkpt>
      <trkpt lat="43.15441" lon="2.33452">
        <ele>193.5</ele>
        <time>2022-01-23T08:27:08.000Z</time>
      </trkpt>
      <trkpt lat="43.15441" lon="2.33452">
        <ele>193.5</ele>
        <time>2022-01-23T08:27:09.000Z</time>
      </trkpt>
      <trkpt lat="43.15442" lon="2.33452">
        <ele>193.5</ele>
        <time>2022-01-23T08:27:10.000Z</time>
      </trkpt>
      <trkpt lat="43.15442" lon="2.33452">
        <ele>193.5</ele>
        <time>2022-01-23T08:27:11.000Z</time>
      </trkpt>
      <trkpt lat="43.15442" lon="2.33452">
        <ele>193.5</ele>
        <time>2022-01-23T08:27:12.000Z</time>
      </trkpt>
      <trkpt lat="43.15442" lon="2.33452">
        <ele>193.5</ele>
        <time>2022-01-23T08:27:13.000Z</time>
      </trkpt>
      <trkpt lat="43.15442" lon="2.33452">
        <ele>193.5</ele>
        <time>2022-01-23T08:27:14.000Z</time>
      </trkpt>
      <trkpt lat="43.15442" lon="2.33452">
        <ele>193.5</ele>
        <time>2022-01-23T08:27:15.000Z</time>
      </trkpt>
      <trkpt lat="43.15442" lon="2.33452">
        <ele>193.5</ele>
        <time>2022-01-23T08:27:16.000Z</time>
      </trkpt>
      <trkpt lat="43.15442" lon="2.33452">
        <ele>193.5</ele>
        <time>2022-01-23T08:27:17.000Z</time>
      </trkpt>
      <trkpt lat="43.15442" lon="2.33452">
        <ele>193.5</ele>
        <time>2022-01-23T08:27:18.000Z</time>
      </trkpt>
      <trkpt lat="43.15442" lon="2.33452">
        <ele>193.5</ele>
        <time>2022-01-23T08:27:19.000Z</time>
      </trkpt>
      <trkpt lat="43.15442" lon="2.33451">
        <ele>193.4</ele>
        <time>2022-01-23T08:27:20.000Z</time>
      </trkpt>
      <trkpt lat="43.15442" lon="2.33451">
        <ele>193.4</ele>
        <time>2022-01-23T08:27:21.000Z</time>
      </trkpt>
      <trkpt lat="43.15441" lon="2.3345">
        <ele>193.4</ele>
        <time>2022-01-23T08:27:22.000Z</time>
      </trkpt>
      <trkpt lat="43.15441" lon="2.33449">
        <ele>193.4</ele>
        <time>2022-01-23T08:27:23.000Z</time>
      </trkpt>
      <trkpt lat="43.15441" lon="2.33449">
        <ele>193.3</ele>
        <time>2022-01-23T08:27:24.000Z</time>
      </trkpt>
      <trkpt lat="43.15441" lon="2.33448">
        <ele>193.3</ele>
        <time>2022-01-23T08:27:25.000Z</time>
      </trkpt>
      <trkpt lat="43.15441" lon="2.33447">
        <ele>193.3</ele>
        <time>2022-01-23T08:27:26.000Z</time>
      </trkpt>
      <trkpt lat="43.15441" lon="2.33447">
        <ele>193.3</ele>
        <time>2022-01-23T08:27:27.000Z</time>
      </trkpt>
      <trkpt lat="43.1544" lon="2.33447">
        <ele>193.3</ele>
        <time>2022-01-23T08:27:28.000Z</time>
      </trkpt>
      <trkpt lat="43.1544" lon="2.33447">
        <ele>193.3</ele>
        <time>2022-01-23T08:27:29.000Z</time>
      </trkpt>
      <trkpt lat="43.1544" lon="2.33447">
        <ele>193.3</ele>
        <time>2022-01-23T08:27:30.000Z</time>
      </trkpt>
      <trkpt lat="43.1544" lon="2.33447">
        <ele>193.3</ele>
        <time>2022-01-23T08:27:31.000Z</time>
      </trkpt>
      <trkpt lat="43.1544" lon="2.33447">
        <ele>193.3</ele>
        <time>2022-01-23T08:27:32.000Z</time>
      </trkpt>
      <trkpt lat="43.1544" lon="2.33447">
        <ele>193.3</ele>
        <time>2022-01-23T08:27:33.000Z</time>
      </trkpt>
      <trkpt lat="43.1544" lon="2.33447">
        <ele>193.3</ele>
        <time>2022-01-23T08:27:34.000Z</time>
      </trkpt>
      <trkpt lat="43.1544" lon="2.33447">
        <ele>193.3</ele>
        <time>2022-01-23T08:27:35.000Z</time>
      </trkpt>
      <trkpt lat="43.1544" lon="2.33447">
        <ele>193.3</ele>
        <time>2022-01-23T08:27:36.000Z</time>
      </trkpt>
      <trkpt lat="43.1544" lon="2.33447">
        <ele>193.3</ele>
        <time>2022-01-23T08:27:37.000Z</time>
      </trkpt>
      <trkpt lat="43.1544" lon="2.33447">
        <ele>193.3</ele>
        <time>2022-01-23T08:27:38.000Z</time>
      </trkpt>
      <trkpt lat="43.1544" lon="2.33447">
        <ele>193.3</ele>
        <time>2022-01-23T08:27:39.000Z</time>
      </trkpt>
      <trkpt lat="43.1544" lon="2.33447">
        <ele>193.3</ele>
        <time>2022-01-23T08:27:40.000Z</time>
      </trkpt>
      <trkpt lat="43.1544" lon="2.33447">
        <ele>193.3</ele>
        <time>2022-01-23T08:27:41.000Z</time>
      </trkpt>
      <trkpt lat="43.1544" lon="2.33447">
        <ele>193.3</ele>
        <time>2022-01-23T08:27:42.000Z</time>
      </trkpt>
      <trkpt lat="43.1544" lon="2.33447">
        <ele>193.3</ele>
        <time>2022-01-23T08:27:43.000Z</time>
      </trkpt>
      <trkpt lat="43.1544" lon="2.33447">
        <ele>193.3</ele>
        <time>2022-01-23T08:27:44.000Z</time>
      </trkpt>
      <trkpt lat="43.1544" lon="2.33447">
        <ele>193.3</ele>
        <time>2022-01-23T08:27:45.000Z</time>
      </trkpt>
      <trkpt lat="43.1544" lon="2.33447">
        <ele>193.3</ele>
        <time>2022-01-23T08:27:46.000Z</time>
      </trkpt>
      <trkpt lat="43.1544" lon="2.33447">
        <ele>193.3</ele>
        <time>2022-01-23T08:27:47.000Z</time>
      </trkpt>
      <trkpt lat="43.1544" lon="2.33447">
        <ele>193.3</ele>
        <time>2022-01-23T08:27:48.000Z</time>
      </trkpt>
      <trkpt lat="43.15439" lon="2.33447">
        <ele>193.3</ele>
        <time>2022-01-23T08:27:49.000Z</time>
      </trkpt>
      <trkpt lat="43.15439" lon="2.33447">
        <ele>193.4</ele>
        <time>2022-01-23T08:27:50.000Z</time>
      </trkpt>
      <trkpt lat="43.15439" lon="2.33446">
        <ele>193.4</ele>
        <time>2022-01-23T08:27:51.000Z</time>
      </trkpt>
      <trkpt lat="43.15438" lon="2.33446">
        <ele>193.4</ele>
        <time>2022-01-23T08:27:52.000Z</time>
      </trkpt>
      <trkpt lat="43.15438" lon="2.33446">
        <ele>193.4</ele>
        <time>2022-01-23T08:27:53.000Z</time>
      </trkpt>
      <trkpt lat="43.15438" lon="2.33446">
        <ele>193.4</ele>
        <time>2022-01-23T08:27:54.000Z</time>
      </trkpt>
      <trkpt lat="43.15437" lon="2.33445">
        <ele>193.4</ele>
        <time>2022-01-23T08:27:55.000Z</time>
      </trkpt>
      <trkpt lat="43.15437" lon="2.33445">
        <ele>193.4</ele>
        <time>2022-01-23T08:27:56.000Z</time>
      </trkpt>
      <trkpt lat="43.15436" lon="2.33444">
        <ele>193.4</ele>
        <time>2022-01-23T08:27:57.000Z</time>
      </trkpt>
      <trkpt lat="43.15435" lon="2.33444">
        <ele>193.5</ele>
        <time>2022-01-23T08:27:58.000Z</time>
      </trkpt>
      <trkpt lat="43.15434" lon="2.33443">
        <ele>193.5</ele>
        <time>2022-01-23T08:27:59.000Z</time>
      </trkpt>
      <trkpt lat="43.15432" lon="2.33443">
        <ele>193.6</ele>
        <time>2022-01-23T08:28:00.000Z</time>
      </trkpt>
      <trkpt lat="43.15431" lon="2.33442">
        <ele>193.6</ele>
        <time>2022-01-23T08:28:01.000Z</time>
      </trkpt>
      <trkpt lat="43.15429" lon="2.33441">
        <ele>193.7</ele>
        <time>2022-01-23T08:28:02.000Z</time>
      </trkpt>
      <trkpt lat="43.15427" lon="2.33439">
        <ele>193.7</ele>
        <time>2022-01-23T08:28:03.000Z</time>
      </trkpt>
      <trkpt lat="43.15424" lon="2.33438">
        <ele>193.8</ele>
        <time>2022-01-23T08:28:04.000Z</time>
      </trkpt>
      <trkpt lat="43.15422" lon="2.33437">
        <ele>193.9</ele>
        <time>2022-01-23T08:28:05.000Z</time>
      </trkpt>
      <trkpt lat="43.1542" lon="2.33436">
        <ele>194</ele>
        <time>2022-01-23T08:28:06.000Z</time>
      </trkpt>
      <trkpt lat="43.15417" lon="2.33435">
        <ele>194.1</ele>
        <time>2022-01-23T08:28:07.000Z</time>
      </trkpt>
      <trkpt lat="43.15415" lon="2.33434">
        <ele>194.1</ele>
        <time>2022-01-23T08:28:08.000Z</time>
      </trkpt>
      <trkpt lat="43.15412" lon="2.33433">
        <ele>194.2</ele>
        <time>2022-01-23T08:28:09.000Z</time>
      </trkpt>
      <trkpt lat="43.1541" lon="2.33433">
        <ele>194.2</ele>
        <time>2022-01-23T08:28:10.000Z</time>
      </trkpt>
      <trkpt lat="43.15408" lon="2.33432">
        <ele>194.3</ele>
        <time>2022-01-23T08:28:11.000Z</time>
      </trkpt>
      <trkpt lat="43.15406" lon="2.33432">
        <ele>194.4</ele>
        <time>2022-01-23T08:28:12.000Z</time>
      </trkpt>
      <trkpt lat="43.15403" lon="2.33432">
        <ele>194.4</ele>
        <time>2022-01-23T08:28:13.000Z</time>
      </trkpt>
      <trkpt lat="43.15401" lon="2.33431">
        <ele>194.5</ele>
        <time>2022-01-23T08:28:14.000Z</time>
      </trkpt>
      <trkpt lat="43.15399" lon="2.33431">
        <ele>194.6</ele>
        <time>2022-01-23T08:28:15.000Z</time>
      </trkpt>
      <trkpt lat="43.15397" lon="2.33431">
        <ele>194.6</ele>
        <time>2022-01-23T08:28:16.000Z</time>
      </trkpt>
      <trkpt lat="43.15394" lon="2.3343">
        <ele>194.7</ele>
        <time>2022-01-23T08:28:17.000Z</time>
      </trkpt>
      <trkpt lat="43.15391" lon="2.3343">
        <ele>194.8</ele>
        <time>2022-01-23T08:28:18.000Z</time>
      </trkpt>
      <trkpt lat="43.15388" lon="2.3343">
        <ele>194.9</ele>
        <time>2022-01-23T08:28:19.000Z</time>
      </trkpt>
      <trkpt lat="43.15385" lon="2.33429">
        <ele>195</ele>
        <time>2022-01-23T08:28:20.000Z</time>
      </trkpt>
      <trkpt lat="43.15382" lon="2.33428">
        <ele>195</ele>
        <time>2022-01-23T08:28:21.000Z</time>
      </trkpt>
      <trkpt lat="43.1538" lon="2.33427">
        <ele>195</ele>
        <time>2022-01-23T08:28:22.000Z</time>
      </trkpt>
      <trkpt lat="43.15377" lon="2.33425">
        <ele>194.9</ele>
        <time>2022-01-23T08:28:23.000Z</time>
      </trkpt>
      <trkpt lat="43.15375" lon="2.33423">
        <ele>194.7</ele>
        <time>2022-01-23T08:28:24.000Z</time>
      </trkpt>
      <trkpt lat="43.15373" lon="2.33421">
        <ele>194.6</ele>
        <time>2022-01-23T08:28:25.000Z</time>
      </trkpt>
      <trkpt lat="43.15371" lon="2.33419">
        <ele>194.4</ele>
        <time>2022-01-23T08:28:26.000Z</time>
      </trkpt>
      <trkpt lat="43.15368" lon="2.33416">
        <ele>194.1</ele>
        <time>2022-01-23T08:28:27.000Z</time>
      </trkpt>
      <trkpt lat="43.15366" lon="2.33414">
        <ele>193.9</ele>
        <time>2022-01-23T08:28:28.000Z</time>
      </trkpt>
      <trkpt lat="43.15364" lon="2.33411">
        <ele>193.7</ele>
        <time>2022-01-23T08:28:29.000Z</time>
      </trkpt>
      <trkpt lat="43.15362" lon="2.33409">
        <ele>193.5</ele>
        <time>2022-01-23T08:28:30.000Z</time>
      </trkpt>
      <trkpt lat="43.1536" lon="2.33406">
        <ele>193.3</ele>
        <time>2022-01-23T08:28:31.000Z</time>
      </trkpt>
      <trkpt lat="43.15358" lon="2.33404">
        <ele>193</ele>
        <time>2022-01-23T08:28:32.000Z</time>
      </trkpt>
      <trkpt lat="43.15356" lon="2.33401">
        <ele>192.8</ele>
        <time>2022-01-23T08:28:33.000Z</time>
      </trkpt>
      <trkpt lat="43.15354" lon="2.33398">
        <ele>192.5</ele>
        <time>2022-01-23T08:28:34.000Z</time>
      </trkpt>
      <trkpt lat="43.15352" lon="2.33396">
        <ele>192.3</ele>
        <time>2022-01-23T08:28:35.000Z</time>
      </trkpt>
      <trkpt lat="43.1535" lon="2.33394">
        <ele>192</ele>
        <time>2022-01-23T08:28:36.000Z</time>
      </trkpt>
      <trkpt lat="43.15349" lon="2.33391">
        <ele>191.8</ele>
        <time>2022-01-23T08:28:37.000Z</time>
      </trkpt>
      <trkpt lat="43.15347" lon="2.33389">
        <ele>191.6</ele>
        <time>2022-01-23T08:28:38.000Z</time>
      </trkpt>
      <trkpt lat="43.15345" lon="2.33387">
        <ele>191.3</ele>
        <time>2022-01-23T08:28:39.000Z</time>
      </trkpt>
      <trkpt lat="43.15343" lon="2.33385">
        <ele>191.1</ele>
        <time>2022-01-23T08:28:40.000Z</time>
      </trkpt>
      <trkpt lat="43.15341" lon="2.33382">
        <ele>190.8</ele>
        <time>2022-01-23T08:28:41.000Z</time>
      </trkpt>
      <trkpt lat="43.15339" lon="2.3338">
        <ele>190.6</ele>
        <time>2022-01-23T08:28:42.000Z</time>
      </trkpt>
      <trkpt lat="43.15337" lon="2.33378">
        <ele>190.4</ele>
        <time>2022-01-23T08:28:43.000Z</time>
      </trkpt>
      <trkpt lat="43.15335" lon="2.33376">
        <ele>190.1</ele>
        <time>2022-01-23T08:28:44.000Z</time>
      </trkpt>
      <trkpt lat="43.15333" lon="2.33374">
        <ele>189.9</ele>
        <time>2022-01-23T08:28:45.000Z</time>
      </trkpt>
      <trkpt lat="43.15331" lon="2.33372">
        <ele>189.8</ele>
        <time>2022-01-23T08:28:46.000Z</time>
      </trkpt>
      <trkpt lat="43.15329" lon="2.3337">
        <ele>189.8</ele>
        <time>2022-01-23T08:28:47.000Z</time>
      </trkpt>
      <trkpt lat="43.15327" lon="2.33368">
        <ele>189.7</ele>
        <time>2022-01-23T08:28:48.000Z</time>
      </trkpt>
      <trkpt lat="43.15325" lon="2.33365">
        <ele>189.7</ele>
        <time>2022-01-23T08:28:49.000Z</time>
      </trkpt>
      <trkpt lat="43.15323" lon="2.33363">
        <ele>189.6</ele>
        <time>2022-01-23T08:28:50.000Z</time>
      </trkpt>
      <trkpt lat="43.1532" lon="2.33361">
        <ele>189.5</ele>
        <time>2022-01-23T08:28:51.000Z</time>
      </trkpt>
      <trkpt lat="43.15318" lon="2.33359">
        <ele>189.5</ele>
        <time>2022-01-23T08:28:52.000Z</time>
      </trkpt>
      <trkpt lat="43.15316" lon="2.33357">
        <ele>189.4</ele>
        <time>2022-01-23T08:28:53.000Z</time>
      </trkpt>
      <trkpt lat="43.15314" lon="2.33355">
        <ele>189.3</ele>
        <time>2022-01-23T08:28:54.000Z</time>
      </trkpt>
      <trkpt lat="43.15312" lon="2.33353">
        <ele>189.3</ele>
        <time>2022-01-23T08:28:55.000Z</time>
      </trkpt>
      <trkpt lat="43.1531" lon="2.33351">
        <ele>189.2</ele>
        <time>2022-01-23T08:28:56.000Z</time>
      </trkpt>
      <trkpt lat="43.15307" lon="2.33349">
        <ele>189.1</ele>
        <time>2022-01-23T08:28:57.000Z</time>
      </trkpt>
      <trkpt lat="43.15305" lon="2.33347">
        <ele>189.1</ele>
        <time>2022-01-23T08:28:58.000Z</time>
      </trkpt>
      <trkpt lat="43.15304" lon="2.33345">
        <ele>189</ele>
        <time>2022-01-23T08:28:59.000Z</time>
      </trkpt>
      <trkpt lat="43.15302" lon="2.33343">
        <ele>188.9</ele>
        <time>2022-01-23T08:29:00.000Z</time>
      </trkpt>
      <trkpt lat="43.153" lon="2.33341">
        <ele>188.8</ele>
        <time>2022-01-23T08:29:01.000Z</time>
      </trkpt>
      <trkpt lat="43.15298" lon="2.3334">
        <ele>188.8</ele>
        <time>2022-01-23T08:29:02.000Z</time>
      </trkpt>
      <trkpt lat="43.15296" lon="2.33338">
        <ele>188.7</ele>
        <time>2022-01-23T08:29:03.000Z</time>
      </trkpt>
      <trkpt lat="43.15295" lon="2.33336">
        <ele>188.6</ele>
        <time>2022-01-23T08:29:04.000Z</time>
      </trkpt>
      <trkpt lat="43.15293" lon="2.33334">
        <ele>188.5</ele>
        <time>2022-01-23T08:29:05.000Z</time>
      </trkpt>
      <trkpt lat="43.15291" lon="2.33332">
        <ele>188.4</ele>
        <time>2022-01-23T08:29:06.000Z</time>
      </trkpt>
      <trkpt lat="43.1529" lon="2.3333">
        <ele>188.4</ele>
        <time>2022-01-23T08:29:07.000Z</time>
      </trkpt>
      <trkpt lat="43.15288" lon="2.33328">
        <ele>188.3</ele>
        <time>2022-01-23T08:29:08.000Z</time>
      </trkpt>
      <trkpt lat="43.15286" lon="2.33326">
        <ele>188.3</ele>
        <time>2022-01-23T08:29:09.000Z</time>
      </trkpt>
      <trkpt lat="43.15285" lon="2.33324">
        <ele>188.3</ele>
        <time>2022-01-23T08:29:10.000Z</time>
      </trkpt>
      <trkpt lat="43.15283" lon="2.33322">
        <ele>188.3</ele>
        <time>2022-01-23T08:29:11.000Z</time>
      </trkpt>
      <trkpt lat="43.15281" lon="2.3332">
        <ele>188.3</ele>
        <time>2022-01-23T08:29:12.000Z</time>
      </trkpt>
      <trkpt lat="43.15279" lon="2.33318">
        <ele>188.3</ele>
        <time>2022-01-23T08:29:13.000Z</time>
      </trkpt>
      <trkpt lat="43.15277" lon="2.33316">
        <ele>188.3</ele>
        <time>2022-01-23T08:29:14.000Z</time>
      </trkpt>
      <trkpt lat="43.15275" lon="2.33314">
        <ele>188.3</ele>
        <time>2022-01-23T08:29:15.000Z</time>
      </trkpt>
      <trkpt lat="43.15273" lon="2.33311">
        <ele>188.2</ele>
        <time>2022-01-23T08:29:16.000Z</time>
      </trkpt>
      <trkpt lat="43.15271" lon="2.33309">
        <ele>188.2</ele>
        <time>2022-01-23T08:29:17.000Z</time>
      </trkpt>
      <trkpt lat="43.15269" lon="2.33306">
        <ele>188.2</ele>
        <time>2022-01-23T08:29:18.000Z</time>
      </trkpt>
      <trkpt lat="43.15267" lon="2.33304">
        <ele>188.1</ele>
        <time>2022-01-23T08:29:19.000Z</time>
      </trkpt>
      <trkpt lat="43.15265" lon="2.33301">
        <ele>188.1</ele>
        <time>2022-01-23T08:29:20.000Z</time>
      </trkpt>
      <trkpt lat="43.15263" lon="2.33299">
        <ele>188</ele>
        <time>2022-01-23T08:29:21.000Z</time>
      </trkpt>
      <trkpt lat="43.15262" lon="2.33296">
        <ele>187.9</ele>
        <time>2022-01-23T08:29:22.000Z</time>
      </trkpt>
      <trkpt lat="43.1526" lon="2.33294">
        <ele>187.9</ele>
        <time>2022-01-23T08:29:23.000Z</time>
      </trkpt>
      <trkpt lat="43.15258" lon="2.33291">
        <ele>187.8</ele>
        <time>2022-01-23T08:29:24.000Z</time>
      </trkpt>
      <trkpt lat="43.15257" lon="2.33289">
        <ele>187.7</ele>
        <time>2022-01-23T08:29:25.000Z</time>
      </trkpt>
      <trkpt lat="43.15255" lon="2.33286">
        <ele>187.6</ele>
        <time>2022-01-23T08:29:26.000Z</time>
      </trkpt>
      <trkpt lat="43.15254" lon="2.33284">
        <ele>187.5</ele>
        <time>2022-01-23T08:29:27.000Z</time>
      </trkpt>
      <trkpt lat="43.15252" lon="2.33281">
        <ele>187.4</ele>
        <time>2022-01-23T08:29:28.000Z</time>
      </trkpt>
      <trkpt lat="43.15251" lon="2.33278">
        <ele>187.3</ele>
        <time>2022-01-23T08:29:29.000Z</time>
      </trkpt>
      <trkpt lat="43.1525" lon="2.33276">
        <ele>187.2</ele>
        <time>2022-01-23T08:29:30.000Z</time>
      </trkpt>
      <trkpt lat="43.15248" lon="2.33273">
        <ele>187.1</ele>
        <time>2022-01-23T08:29:31.000Z</time>
      </trkpt>
      <trkpt lat="43.15247" lon="2.3327">
        <ele>187.1</ele>
        <time>2022-01-23T08:29:32.000Z</time>
      </trkpt>
      <trkpt lat="43.15245" lon="2.33267">
        <ele>187</ele>
        <time>2022-01-23T08:29:33.000Z</time>
      </trkpt>
      <trkpt lat="43.15244" lon="2.33265">
        <ele>187</ele>
        <time>2022-01-23T08:29:34.000Z</time>
      </trkpt>
      <trkpt lat="43.15243" lon="2.33262">
        <ele>186.9</ele>
        <time>2022-01-23T08:29:35.000Z</time>
      </trkpt>
      <trkpt lat="43.15241" lon="2.33259">
        <ele>186.9</ele>
        <time>2022-01-23T08:29:36.000Z</time>
      </trkpt>
      <trkpt lat="43.1524" lon="2.33256">
        <ele>186.8</ele>
        <time>2022-01-23T08:29:37.000Z</time>
      </trkpt>
      <trkpt lat="43.15238" lon="2.33253">
        <ele>186.8</ele>
        <time>2022-01-23T08:29:38.000Z</time>
      </trkpt>
      <trkpt lat="43.15237" lon="2.33251">
        <ele>186.8</ele>
        <time>2022-01-23T08:29:39.000Z</time>
      </trkpt>
      <trkpt lat="43.15235" lon="2.33248">
        <ele>186.8</ele>
        <time>2022-01-23T08:29:40.000Z</time>
      </trkpt>
      <trkpt lat="43.15234" lon="2.33245">
        <ele>186.7</ele>
        <time>2022-01-23T08:29:41.000Z</time>
      </trkpt>
      <trkpt lat="43.15232" lon="2.33242">
        <ele>186.7</ele>
        <time>2022-01-23T08:29:42.000Z</time>
      </trkpt>
      <trkpt lat="43.15231" lon="2.33239">
        <ele>186.7</ele>
        <time>2022-01-23T08:29:43.000Z</time>
      </trkpt>
      <trkpt lat="43.15229" lon="2.33237">
        <ele>186.6</ele>
        <time>2022-01-23T08:29:44.000Z</time>
      </trkpt>
      <trkpt lat="43.15228" lon="2.33234">
        <ele>186.6</ele>
        <time>2022-01-23T08:29:45.000Z</time>
      </trkpt>
      <trkpt lat="43.15226" lon="2.33232">
        <ele>186.6</ele>
        <time>2022-01-23T08:29:46.000Z</time>
      </trkpt>
      <trkpt lat="43.15225" lon="2.33229">
        <ele>186.6</ele>
        <time>2022-01-23T08:29:47.000Z</time>
      </trkpt>
      <trkpt lat="43.15223" lon="2.33227">
        <ele>186.6</ele>
        <time>2022-01-23T08:29:48.000Z</time>
      </trkpt>
      <trkpt lat="43.15222" lon="2.33224">
        <ele>186.6</ele>
        <time>2022-01-23T08:29:49.000Z</time>
      </trkpt>
      <trkpt lat="43.1522" lon="2.33222">
        <ele>186.6</ele>
        <time>2022-01-23T08:29:50.000Z</time>
      </trkpt>
      <trkpt lat="43.15219" lon="2.3322">
        <ele>186.6</ele>
        <time>2022-01-23T08:29:51.000Z</time>
      </trkpt>
      <trkpt lat="43.15217" lon="2.33218">
        <ele>186.6</ele>
        <time>2022-01-23T08:29:52.000Z</time>
      </trkpt>
      <trkpt lat="43.15216" lon="2.33216">
        <ele>186.7</ele>
        <time>2022-01-23T08:29:53.000Z</time>
      </trkpt>
      <trkpt lat="43.15214" lon="2.33214">
        <ele>186.7</ele>
        <time>2022-01-23T08:29:54.000Z</time>
      </trkpt>
      <trkpt lat="43.15213" lon="2.33212">
        <ele>186.7</ele>
        <time>2022-01-23T08:29:55.000Z</time>
      </trkpt>
      <trkpt lat="43.15212" lon="2.33211">
        <ele>186.8</ele>
        <time>2022-01-23T08:29:56.000Z</time>
      </trkpt>
      <trkpt lat="43.1521" lon="2.33209">
        <ele>186.8</ele>
        <time>2022-01-23T08:29:57.000Z</time>
      </trkpt>
      <trkpt lat="43.15208" lon="2.33207">
        <ele>186.8</ele>
        <time>2022-01-23T08:29:58.000Z</time>
      </trkpt>
      <trkpt lat="43.15207" lon="2.33205">
        <ele>186.9</ele>
        <time>2022-01-23T08:29:59.000Z</time>
      </trkpt>
      <trkpt lat="43.15205" lon="2.33202">
        <ele>186.9</ele>
        <time>2022-01-23T08:30:00.000Z</time>
      </trkpt>
      <trkpt lat="43.15204" lon="2.332">
        <ele>186.9</ele>
        <time>2022-01-23T08:30:01.000Z</time>
      </trkpt>
      <trkpt lat="43.15202" lon="2.33197">
        <ele>186.9</ele>
        <time>2022-01-23T08:30:02.000Z</time>
      </trkpt>
      <trkpt lat="43.152" lon="2.33195">
        <ele>187</ele>
        <time>2022-01-23T08:30:03.000Z</time>
      </trkpt>
      <trkpt lat="43.15198" lon="2.33193">
        <ele>187</ele>
        <time>2022-01-23T08:30:04.000Z</time>
      </trkpt>
      <trkpt lat="43.15197" lon="2.33191">
        <ele>187</ele>
        <time>2022-01-23T08:30:05.000Z</time>
      </trkpt>
      <trkpt lat="43.15195" lon="2.33189">
        <ele>187.1</ele>
        <time>2022-01-23T08:30:06.000Z</time>
      </trkpt>
      <trkpt lat="43.15194" lon="2.33188">
        <ele>187.2</ele>
        <time>2022-01-23T08:30:07.000Z</time>
      </trkpt>
      <trkpt lat="43.15192" lon="2.33188">
        <ele>187.4</ele>
        <time>2022-01-23T08:30:08.000Z</time>
      </trkpt>
      <trkpt lat="43.15191" lon="2.33188">
        <ele>187.6</ele>
        <time>2022-01-23T08:30:09.000Z</time>
      </trkpt>
      <trkpt lat="43.1519" lon="2.33189">
        <ele>187.8</ele>
        <time>2022-01-23T08:30:10.000Z</time>
      </trkpt>
      <trkpt lat="43.15189" lon="2.33191">
        <ele>188.1</ele>
        <time>2022-01-23T08:30:11.000Z</time>
      </trkpt>
      <trkpt lat="43.15189" lon="2.33193">
        <ele>188.3</ele>
        <time>2022-01-23T08:30:12.000Z</time>
      </trkpt>
      <trkpt lat="43.15188" lon="2.33196">
        <ele>188.6</ele>
        <time>2022-01-23T08:30:13.000Z</time>
      </trkpt>
      <trkpt lat="43.15187" lon="2.33198">
        <ele>188.9</ele>
        <time>2022-01-23T08:30:14.000Z</time>
      </trkpt>
      <trkpt lat="43.15187" lon="2.33201">
        <ele>189.2</ele>
        <time>2022-01-23T08:30:15.000Z</time>
      </trkpt>
      <trkpt lat="43.15187" lon="2.33204">
        <ele>189.5</ele>
        <time>2022-01-23T08:30:16.000Z</time>
      </trkpt>
      <trkpt lat="43.15187" lon="2.33207">
        <ele>189.7</ele>
        <time>2022-01-23T08:30:17.000Z</time>
      </trkpt>
      <trkpt lat="43.15187" lon="2.3321">
        <ele>189.9</ele>
        <time>2022-01-23T08:30:18.000Z</time>
      </trkpt>
      <trkpt lat="43.15188" lon="2.33213">
        <ele>190.1</ele>
        <time>2022-01-23T08:30:19.000Z</time>
      </trkpt>
      <trkpt lat="43.15188" lon="2.33215">
        <ele>190.3</ele>
        <time>2022-01-23T08:30:20.000Z</time>
      </trkpt>
      <trkpt lat="43.15189" lon="2.33218">
        <ele>190.4</ele>
        <time>2022-01-23T08:30:21.000Z</time>
      </trkpt>
      <trkpt lat="43.15189" lon="2.33221">
        <ele>190.5</ele>
        <time>2022-01-23T08:30:22.000Z</time>
      </trkpt>
      <trkpt lat="43.1519" lon="2.33223">
        <ele>190.7</ele>
        <time>2022-01-23T08:30:23.000Z</time>
      </trkpt>
      <trkpt lat="43.15191" lon="2.33226">
        <ele>190.8</ele>
        <time>2022-01-23T08:30:24.000Z</time>
      </trkpt>
      <trkpt lat="43.15191" lon="2.33228">
        <ele>190.9</ele>
        <time>2022-01-23T08:30:25.000Z</time>
      </trkpt>
      <trkpt lat="43.15192" lon="2.33231">
        <ele>191.1</ele>
        <time>2022-01-23T08:30:26.000Z</time>
      </trkpt>
      <trkpt lat="43.15192" lon="2.33233">
        <ele>191.2</ele>
        <time>2022-01-23T08:30:27.000Z</time>
      </trkpt>
      <trkpt lat="43.15193" lon="2.33236">
        <ele>191.4</ele>
        <time>2022-01-23T08:30:28.000Z</time>
      </trkpt>
      <trkpt lat="43.15193" lon="2.33238">
        <ele>191.5</ele>
        <time>2022-01-23T08:30:29.000Z</time>
      </trkpt>
      <trkpt lat="43.15193" lon="2.33241">
        <ele>191.7</ele>
        <time>2022-01-23T08:30:30.000Z</time>
      </trkpt>
      <trkpt lat="43.15194" lon="2.33244">
        <ele>191.9</ele>
        <time>2022-01-23T08:30:31.000Z</time>
      </trkpt>
      <trkpt lat="43.15194" lon="2.33246">
        <ele>192.1</ele>
        <time>2022-01-23T08:30:32.000Z</time>
      </trkpt>
      <trkpt lat="43.15194" lon="2.33249">
        <ele>192.4</ele>
        <time>2022-01-23T08:30:33.000Z</time>
      </trkpt>
      <trkpt lat="43.15193" lon="2.33251">
        <ele>192.6</ele>
        <time>2022-01-23T08:30:34.000Z</time>
      </trkpt>
      <trkpt lat="43.15193" lon="2.33254">
        <ele>192.7</ele>
        <time>2022-01-23T08:30:35.000Z</time>
      </trkpt>
      <trkpt lat="43.15192" lon="2.33256">
        <ele>192.9</ele>
        <time>2022-01-23T08:30:36.000Z</time>
      </trkpt>
      <trkpt lat="43.15192" lon="2.33259">
        <ele>193.1</ele>
        <time>2022-01-23T08:30:37.000Z</time>
      </trkpt>
      <trkpt lat="43.15191" lon="2.33261">
        <ele>193.3</ele>
        <time>2022-01-23T08:30:38.000Z</time>
      </trkpt>
      <trkpt lat="43.1519" lon="2.33264">
        <ele>193.5</ele>
        <time>2022-01-23T08:30:39.000Z</time>
      </trkpt>
      <trkpt lat="43.15189" lon="2.33266">
        <ele>193.7</ele>
        <time>2022-01-23T08:30:40.000Z</time>
      </trkpt>
      <trkpt lat="43.15188" lon="2.33268">
        <ele>193.9</ele>
        <time>2022-01-23T08:30:41.000Z</time>
      </trkpt>
      <trkpt lat="43.15187" lon="2.3327">
        <ele>194.1</ele>
        <time>2022-01-23T08:30:42.000Z</time>
      </trkpt>
      <trkpt lat="43.15186" lon="2.33273">
        <ele>194.3</ele>
        <time>2022-01-23T08:30:43.000Z</time>
      </trkpt>
      <trkpt lat="43.15185" lon="2.33275">
        <ele>194.5</ele>
        <time>2022-01-23T08:30:44.000Z</time>
      </trkpt>
      <trkpt lat="43.15184" lon="2.33277">
        <ele>194.7</ele>
        <time>2022-01-23T08:30:45.000Z</time>
      </trkpt>
      <trkpt lat="43.15183" lon="2.33279">
        <ele>194.9</ele>
        <time>2022-01-23T08:30:46.000Z</time>
      </trkpt>
      <trkpt lat="43.15182" lon="2.33281">
        <ele>195.1</ele>
        <time>2022-01-23T08:30:47.000Z</time>
      </trkpt>
      <trkpt lat="43.15181" lon="2.33283">
        <ele>195.3</ele>
        <time>2022-01-23T08:30:48.000Z</time>
      </trkpt>
      <trkpt lat="43.1518" lon="2.33286">
        <ele>195.4</ele>
        <time>2022-01-23T08:30:49.000Z</time>
      </trkpt>
      <trkpt lat="43.1518" lon="2.33288">
        <ele>195.6</ele>
        <time>2022-01-23T08:30:50.000Z</time>
      </trkpt>
      <trkpt lat="43.1518" lon="2.33291">
        <ele>195.7</ele>
        <time>2022-01-23T08:30:51.000Z</time>
      </trkpt>
      <trkpt lat="43.15179" lon="2.33294">
        <ele>195.8</ele>
        <time>2022-01-23T08:30:52.000Z</time>
      </trkpt>
      <trkpt lat="43.1518" lon="2.33297">
        <ele>195.9</ele>
        <time>2022-01-23T08:30:53.000Z</time>
      </trkpt>
      <trkpt lat="43.1518" lon="2.33301">
        <ele>195.9</ele>
        <time>2022-01-23T08:30:54.000Z</time>
      </trkpt>
      <trkpt lat="43.1518" lon="2.33304">
        <ele>196</ele>
        <time>2022-01-23T08:30:55.000Z</time>
      </trkpt>
      <trkpt lat="43.15181" lon="2.33307">
        <ele>196.1</ele>
        <time>2022-01-23T08:30:56.000Z</time>
      </trkpt>
      <trkpt lat="43.15182" lon="2.33311">
        <ele>196.1</ele>
        <time>2022-01-23T08:30:57.000Z</time>
      </trkpt>
      <trkpt lat="43.15183" lon="2.33314">
        <ele>196.2</ele>
        <time>2022-01-23T08:30:58.000Z</time>
      </trkpt>
      <trkpt lat="43.15184" lon="2.33317">
        <ele>196.2</ele>
        <time>2022-01-23T08:30:59.000Z</time>
      </trkpt>
      <trkpt lat="43.15185" lon="2.3332">
        <ele>196.2</ele>
        <time>2022-01-23T08:31:00.000Z</time>
      </trkpt>
      <trkpt lat="43.15186" lon="2.33323">
        <ele>196.2</ele>
        <time>2022-01-23T08:31:01.000Z</time>
      </trkpt>
      <trkpt lat="43.15187" lon="2.33325">
        <ele>196.3</ele>
        <time>2022-01-23T08:31:02.000Z</time>
      </trkpt>
      <trkpt lat="43.15188" lon="2.33328">
        <ele>196.3</ele>
        <time>2022-01-23T08:31:03.000Z</time>
      </trkpt>
      <trkpt lat="43.15189" lon="2.3333">
        <ele>196.3</ele>
        <time>2022-01-23T08:31:04.000Z</time>
      </trkpt>
      <trkpt lat="43.1519" lon="2.33332">
        <ele>196.3</ele>
        <time>2022-01-23T08:31:05.000Z</time>
      </trkpt>
      <trkpt lat="43.15191" lon="2.33334">
        <ele>196.3</ele>
        <time>2022-01-23T08:31:06.000Z</time>
      </trkpt>
      <trkpt lat="43.15192" lon="2.33337">
        <ele>196.4</ele>
        <time>2022-01-23T08:31:07.000Z</time>
      </trkpt>
      <trkpt lat="43.15193" lon="2.33339">
        <ele>196.5</ele>
        <time>2022-01-23T08:31:08.000Z</time>
      </trkpt>
      <trkpt lat="43.15194" lon="2.33341">
        <ele>196.7</ele>
        <time>2022-01-23T08:31:09.000Z</time>
      </trkpt>
      <trkpt lat="43.15195" lon="2.33343">
        <ele>196.8</ele>
        <time>2022-01-23T08:31:10.000Z</time>
      </trkpt>
      <trkpt lat="43.15196" lon="2.33345">
        <ele>196.9</ele>
        <time>2022-01-23T08:31:11.000Z</time>
      </trkpt>
      <trkpt lat="43.15197" lon="2.33348">
        <ele>197.1</ele>
        <time>2022-01-23T08:31:12.000Z</time>
      </trkpt>
      <trkpt lat="43.15198" lon="2.3335">
        <ele>197.2</ele>
        <time>2022-01-23T08:31:13.000Z</time>
      </trkpt>
      <trkpt lat="43.15199" lon="2.33352">
        <ele>197.4</ele>
        <time>2022-01-23T08:31:14.000Z</time>
      </trkpt>
      <trkpt lat="43.15199" lon="2.33354">
        <ele>197.6</ele>
        <time>2022-01-23T08:31:15.000Z</time>
      </trkpt>
      <trkpt lat="43.152" lon="2.33356">
        <ele>197.8</ele>
        <time>2022-01-23T08:31:16.000Z</time>
      </trkpt>
      <trkpt lat="43.152" lon="2.33359">
        <ele>198</ele>
        <time>2022-01-23T08:31:17.000Z</time>
      </trkpt>
      <trkpt lat="43.152" lon="2.33361">
        <ele>198.2</ele>
        <time>2022-01-23T08:31:18.000Z</time>
      </trkpt>
      <trkpt lat="43.15199" lon="2.33363">
        <ele>198.4</ele>
        <time>2022-01-23T08:31:19.000Z</time>
      </trkpt>
      <trkpt lat="43.15199" lon="2.33364">
        <ele>198.5</ele>
        <time>2022-01-23T08:31:20.000Z</time>
      </trkpt>
      <trkpt lat="43.15199" lon="2.33366">
        <ele>198.7</ele>
        <time>2022-01-23T08:31:21.000Z</time>
      </trkpt>
      <trkpt lat="43.15199" lon="2.33367">
        <ele>198.8</ele>
        <time>2022-01-23T08:31:22.000Z</time>
      </trkpt>
      <trkpt lat="43.15199" lon="2.33368">
        <ele>198.9</ele>
        <time>2022-01-23T08:31:23.000Z</time>
      </trkpt>
      <trkpt lat="43.152" lon="2.33369">
        <ele>198.9</ele>
        <time>2022-01-23T08:31:24.000Z</time>
      </trkpt>
      <trkpt lat="43.152" lon="2.33369">
        <ele>199</ele>
        <time>2022-01-23T08:31:25.000Z</time>
      </trkpt>
      <trkpt lat="43.15201" lon="2.33371">
        <ele>199</ele>
        <time>2022-01-23T08:31:26.000Z</time>
      </trkpt>
      <trkpt lat="43.15202" lon="2.33372">
        <ele>199.1</ele>
        <time>2022-01-23T08:31:27.000Z</time>
      </trkpt>
      <trkpt lat="43.15204" lon="2.33374">
        <ele>199.3</ele>
        <time>2022-01-23T08:31:28.000Z</time>
      </trkpt>
      <trkpt lat="43.15205" lon="2.33376">
        <ele>199.4</ele>
        <time>2022-01-23T08:31:29.000Z</time>
      </trkpt>
      <trkpt lat="43.15207" lon="2.33378">
        <ele>199.6</ele>
        <time>2022-01-23T08:31:30.000Z</time>
      </trkpt>
      <trkpt lat="43.15209" lon="2.3338">
        <ele>199.8</ele>
        <time>2022-01-23T08:31:31.000Z</time>
      </trkpt>
      <trkpt lat="43.1521" lon="2.33383">
        <ele>200</ele>
        <time>2022-01-23T08:31:32.000Z</time>
      </trkpt>
      <trkpt lat="43.15212" lon="2.33385">
        <ele>200.2</ele>
        <time>2022-01-23T08:31:33.000Z</time>
      </trkpt>
      <trkpt lat="43.15213" lon="2.33387">
        <ele>200.3</ele>
        <time>2022-01-23T08:31:34.000Z</time>
      </trkpt>
      <trkpt lat="43.15214" lon="2.33388">
        <ele>200.5</ele>
        <time>2022-01-23T08:31:35.000Z</time>
      </trkpt>
      <trkpt lat="43.15215" lon="2.33389">
        <ele>200.6</ele>
        <time>2022-01-23T08:31:36.000Z</time>
      </trkpt>
      <trkpt lat="43.15216" lon="2.33391">
        <ele>200.7</ele>
        <time>2022-01-23T08:31:37.000Z</time>
      </trkpt>
      <trkpt lat="43.15216" lon="2.33392">
        <ele>200.8</ele>
        <time>2022-01-23T08:31:38.000Z</time>
      </trkpt>
      <trkpt lat="43.15217" lon="2.33392">
        <ele>200.9</ele>
        <time>2022-01-23T08:31:39.000Z</time>
      </trkpt>
      <trkpt lat="43.15217" lon="2.33393">
        <ele>201</ele>
        <time>2022-01-23T08:31:40.000Z</time>
      </trkpt>
      <trkpt lat="43.15218" lon="2.33394">
        <ele>201.1</ele>
        <time>2022-01-23T08:31:41.000Z</time>
      </trkpt>
      <trkpt lat="43.15218" lon="2.33395">
        <ele>201.2</ele>
        <time>2022-01-23T08:31:42.000Z</time>
      </trkpt>
      <trkpt lat="43.15218" lon="2.33396">
        <ele>201.3</ele>
        <time>2022-01-23T08:31:43.000Z</time>
      </trkpt>
      <trkpt lat="43.15219" lon="2.33397">
        <ele>201.4</ele>
        <time>2022-01-23T08:31:44.000Z</time>
      </trkpt>
      <trkpt lat="43.15219" lon="2.33398">
        <ele>201.6</ele>
        <time>2022-01-23T08:31:45.000Z</time>
      </trkpt>
      <trkpt lat="43.1522" lon="2.334">
        <ele>201.7</ele>
        <time>2022-01-23T08:31:46.000Z</time>
      </trkpt>
      <trkpt lat="43.1522" lon="2.33402">
        <ele>201.9</ele>
        <time>2022-01-23T08:31:47.000Z</time>
      </trkpt>
      <trkpt lat="43.15221" lon="2.33403">
        <ele>202.1</ele>
        <time>2022-01-23T08:31:48.000Z</time>
      </trkpt>
      <trkpt lat="43.15221" lon="2.33405">
        <ele>202.3</ele>
        <time>2022-01-23T08:31:49.000Z</time>
      </trkpt>
      <trkpt lat="43.15222" lon="2.33407">
        <ele>202.6</ele>
        <time>2022-01-23T08:31:50.000Z</time>
      </trkpt>
      <trkpt lat="43.15222" lon="2.3341">
        <ele>202.8</ele>
        <time>2022-01-23T08:31:51.000Z</time>
      </trkpt>
      <trkpt lat="43.15222" lon="2.33412">
        <ele>203.1</ele>
        <time>2022-01-23T08:31:52.000Z</time>
      </trkpt>
      <trkpt lat="43.15223" lon="2.33414">
        <ele>203.4</ele>
        <time>2022-01-23T08:31:53.000Z</time>
      </trkpt>
      <trkpt lat="43.15223" lon="2.33417">
        <ele>203.7</ele>
        <time>2022-01-23T08:31:54.000Z</time>
      </trkpt>
      <trkpt lat="43.15223" lon="2.33419">
        <ele>204.1</ele>
        <time>2022-01-23T08:31:55.000Z</time>
      </trkpt>
      <trkpt lat="43.15223" lon="2.33422">
        <ele>204.4</ele>
        <time>2022-01-23T08:31:56.000Z</time>
      </trkpt>
      <trkpt lat="43.15223" lon="2.33424">
        <ele>204.8</ele>
        <time>2022-01-23T08:31:57.000Z</time>
      </trkpt>
      <trkpt lat="43.15223" lon="2.33427">
        <ele>205.1</ele>
        <time>2022-01-23T08:31:58.000Z</time>
      </trkpt>
      <trkpt lat="43.15223" lon="2.33429">
        <ele>205.4</ele>
        <time>2022-01-23T08:31:59.000Z</time>
      </trkpt>
      <trkpt lat="43.15223" lon="2.33431">
        <ele>205.7</ele>
        <time>2022-01-23T08:32:00.000Z</time>
      </trkpt>
      <trkpt lat="43.15222" lon="2.33433">
        <ele>206</ele>
        <time>2022-01-23T08:32:01.000Z</time>
      </trkpt>
      <trkpt lat="43.15222" lon="2.33434">
        <ele>206.2</ele>
        <time>2022-01-23T08:32:02.000Z</time>
      </trkpt>
      <trkpt lat="43.15221" lon="2.33436">
        <ele>206.5</ele>
        <time>2022-01-23T08:32:03.000Z</time>
      </trkpt>
      <trkpt lat="43.15221" lon="2.33437">
        <ele>206.7</ele>
        <time>2022-01-23T08:32:04.000Z</time>
      </trkpt>
      <trkpt lat="43.1522" lon="2.33439">
        <ele>206.9</ele>
        <time>2022-01-23T08:32:05.000Z</time>
      </trkpt>
      <trkpt lat="43.1522" lon="2.3344">
        <ele>207</ele>
        <time>2022-01-23T08:32:06.000Z</time>
      </trkpt>
      <trkpt lat="43.15219" lon="2.33442">
        <ele>207.2</ele>
        <time>2022-01-23T08:32:07.000Z</time>
      </trkpt>
      <trkpt lat="43.15218" lon="2.33443">
        <ele>207.5</ele>
        <time>2022-01-23T08:32:08.000Z</time>
      </trkpt>
      <trkpt lat="43.15218" lon="2.33445">
        <ele>207.7</ele>
        <time>2022-01-23T08:32:09.000Z</time>
      </trkpt>
      <trkpt lat="43.15218" lon="2.33447">
        <ele>208</ele>
        <time>2022-01-23T08:32:10.000Z</time>
      </trkpt>
      <trkpt lat="43.15217" lon="2.33449">
        <ele>208.3</ele>
        <time>2022-01-23T08:32:11.000Z</time>
      </trkpt>
      <trkpt lat="43.15217" lon="2.33451">
        <ele>208.6</ele>
        <time>2022-01-23T08:32:12.000Z</time>
      </trkpt>
      <trkpt lat="43.15216" lon="2.33453">
        <ele>208.8</ele>
        <time>2022-01-23T08:32:13.000Z</time>
      </trkpt>
      <trkpt lat="43.15215" lon="2.33456">
        <ele>209.1</ele>
        <time>2022-01-23T08:32:14.000Z</time>
      </trkpt>
      <trkpt lat="43.15214" lon="2.33458">
        <ele>209.4</ele>
        <time>2022-01-23T08:32:15.000Z</time>
      </trkpt>
      <trkpt lat="43.15212" lon="2.3346">
        <ele>209.7</ele>
        <time>2022-01-23T08:32:16.000Z</time>
      </trkpt>
      <trkpt lat="43.15211" lon="2.33462">
        <ele>209.9</ele>
        <time>2022-01-23T08:32:17.000Z</time>
      </trkpt>
      <trkpt lat="43.15209" lon="2.33464">
        <ele>210.1</ele>
        <time>2022-01-23T08:32:18.000Z</time>
      </trkpt>
      <trkpt lat="43.15208" lon="2.33466">
        <ele>210.3</ele>
        <time>2022-01-23T08:32:19.000Z</time>
      </trkpt>
      <trkpt lat="43.15207" lon="2.33468">
        <ele>210.5</ele>
        <time>2022-01-23T08:32:20.000Z</time>
      </trkpt>
      <trkpt lat="43.15206" lon="2.3347">
        <ele>210.7</ele>
        <time>2022-01-23T08:32:21.000Z</time>
      </trkpt>
      <trkpt lat="43.15206" lon="2.33471">
        <ele>210.9</ele>
        <time>2022-01-23T08:32:22.000Z</time>
      </trkpt>
      <trkpt lat="43.15205" lon="2.33473">
        <ele>211.1</ele>
        <time>2022-01-23T08:32:23.000Z</time>
      </trkpt>
      <trkpt lat="43.15205" lon="2.33474">
        <ele>211.3</ele>
        <time>2022-01-23T08:32:24.000Z</time>
      </trkpt>
      <trkpt lat="43.15204" lon="2.33476">
        <ele>211.5</ele>
        <time>2022-01-23T08:32:25.000Z</time>
      </trkpt>
      <trkpt lat="43.15204" lon="2.33478">
        <ele>211.7</ele>
        <time>2022-01-23T08:32:26.000Z</time>
      </trkpt>
      <trkpt lat="43.15204" lon="2.33479">
        <ele>211.9</ele>
        <time>2022-01-23T08:32:27.000Z</time>
      </trkpt>
      <trkpt lat="43.15204" lon="2.33481">
        <ele>212.1</ele>
        <time>2022-01-23T08:32:28.000Z</time>
      </trkpt>
      <trkpt lat="43.15204" lon="2.33483">
        <ele>212.3</ele>
        <time>2022-01-23T08:32:29.000Z</time>
      </trkpt>
      <trkpt lat="43.15204" lon="2.33484">
        <ele>212.5</ele>
        <time>2022-01-23T08:32:30.000Z</time>
      </trkpt>
      <trkpt lat="43.15203" lon="2.33486">
        <ele>212.8</ele>
        <time>2022-01-23T08:32:31.000Z</time>
      </trkpt>
      <trkpt lat="43.15203" lon="2.33488">
        <ele>213</ele>
        <time>2022-01-23T08:32:32.000Z</time>
      </trkpt>
      <trkpt lat="43.15203" lon="2.3349">
        <ele>213.3</ele>
        <time>2022-01-23T08:32:33.000Z</time>
      </trkpt>
      <trkpt lat="43.15203" lon="2.33492">
        <ele>213.5</ele>
        <time>2022-01-23T08:32:34.000Z</time>
      </trkpt>
      <trkpt lat="43.15203" lon="2.33494">
        <ele>213.8</ele>
        <time>2022-01-23T08:32:35.000Z</time>
      </trkpt>
      <trkpt lat="43.15204" lon="2.33496">
        <ele>214</ele>
        <time>2022-01-23T08:32:36.000Z</time>
      </trkpt>
      <trkpt lat="43.15204" lon="2.33497">
        <ele>214.3</ele>
        <time>2022-01-23T08:32:37.000Z</time>
      </trkpt>
      <trkpt lat="43.15204" lon="2.33499">
        <ele>214.6</ele>
        <time>2022-01-23T08:32:38.000Z</time>
      </trkpt>
      <trkpt lat="43.15204" lon="2.33501">
        <ele>214.8</ele>
        <time>2022-01-23T08:32:39.000Z</time>
      </trkpt>
      <trkpt lat="43.15204" lon="2.33503">
        <ele>215.1</ele>
        <time>2022-01-23T08:32:40.000Z</time>
      </trkpt>
      <trkpt lat="43.15204" lon="2.33505">
        <ele>215.3</ele>
        <time>2022-01-23T08:32:41.000Z</time>
      </trkpt>
      <trkpt lat="43.15204" lon="2.33507">
        <ele>215.5</ele>
        <time>2022-01-23T08:32:42.000Z</time>
      </trkpt>
      <trkpt lat="43.15204" lon="2.33509">
        <ele>215.8</ele>
        <time>2022-01-23T08:32:43.000Z</time>
      </trkpt>
      <trkpt lat="43.15205" lon="2.3351">
        <ele>216</ele>
        <time>2022-01-23T08:32:44.000Z</time>
      </trkpt>
      <trkpt lat="43.15205" lon="2.33512">
        <ele>216.2</ele>
        <time>2022-01-23T08:32:45.000Z</time>
      </trkpt>
      <trkpt lat="43.15205" lon="2.33514">
        <ele>216.5</ele>
        <time>2022-01-23T08:32:46.000Z</time>
      </trkpt>
      <trkpt lat="43.15205" lon="2.33516">
        <ele>216.7</ele>
        <time>2022-01-23T08:32:47.000Z</time>
      </trkpt>
      <trkpt lat="43.15205" lon="2.33517">
        <ele>216.9</ele>
        <time>2022-01-23T08:32:48.000Z</time>
      </trkpt>
      <trkpt lat="43.15205" lon="2.33519">
        <ele>217.2</ele>
        <time>2022-01-23T08:32:49.000Z</time>
      </trkpt>
      <trkpt lat="43.15205" lon="2.33521">
        <ele>217.4</ele>
        <time>2022-01-23T08:32:50.000Z</time>
      </trkpt>
      <trkpt lat="43.15205" lon="2.33523">
        <ele>217.6</ele>
        <time>2022-01-23T08:32:51.000Z</time>
      </trkpt>
      <trkpt lat="43.15205" lon="2.33525">
        <ele>217.9</ele>
        <time>2022-01-23T08:32:52.000Z</time>
      </trkpt>
      <trkpt lat="43.15205" lon="2.33528">
        <ele>218.2</ele>
        <time>2022-01-23T08:32:53.000Z</time>
      </trkpt>
      <trkpt lat="43.15204" lon="2.3353">
        <ele>218.4</ele>
        <time>2022-01-23T08:32:54.000Z</time>
      </trkpt>
      <trkpt lat="43.15204" lon="2.33532">
        <ele>218.7</ele>
        <time>2022-01-23T08:32:55.000Z</time>
      </trkpt>
      <trkpt lat="43.15204" lon="2.33535">
        <ele>219</ele>
        <time>2022-01-23T08:32:56.000Z</time>
      </trkpt>
      <trkpt lat="43.15204" lon="2.33537">
        <ele>219.3</ele>
        <time>2022-01-23T08:32:57.000Z</time>
      </trkpt>
      <trkpt lat="43.15205" lon="2.33539">
        <ele>219.6</ele>
        <time>2022-01-23T08:32:58.000Z</time>
      </trkpt>
      <trkpt lat="43.15206" lon="2.33541">
        <ele>220</ele>
        <time>2022-01-23T08:32:59.000Z</time>
      </trkpt>
      <trkpt lat="43.15207" lon="2.33543">
        <ele>220.3</ele>
        <time>2022-01-23T08:33:00.000Z</time>
      </trkpt>
      <trkpt lat="43.15209" lon="2.33545">
        <ele>220.7</ele>
        <time>2022-01-23T08:33:01.000Z</time>
      </trkpt>
      <trkpt lat="43.1521" lon="2.33547">
        <ele>221.2</ele>
        <time>2022-01-23T08:33:02.000Z</time>
      </trkpt>
      <trkpt lat="43.15212" lon="2.3355">
        <ele>221.6</ele>
        <time>2022-01-23T08:33:03.000Z</time>
      </trkpt>
      <trkpt lat="43.15214" lon="2.33552">
        <ele>222</ele>
        <time>2022-01-23T08:33:04.000Z</time>
      </trkpt>
      <trkpt lat="43.15215" lon="2.33553">
        <ele>222.4</ele>
        <time>2022-01-23T08:33:05.000Z</time>
      </trkpt>
      <trkpt lat="43.15217" lon="2.33555">
        <ele>222.7</ele>
        <time>2022-01-23T08:33:06.000Z</time>
      </trkpt>
      <trkpt lat="43.15218" lon="2.33557">
        <ele>223.1</ele>
        <time>2022-01-23T08:33:07.000Z</time>
      </trkpt>
      <trkpt lat="43.15219" lon="2.33559">
        <ele>223.4</ele>
        <time>2022-01-23T08:33:08.000Z</time>
      </trkpt>
      <trkpt lat="43.1522" lon="2.3356">
        <ele>223.7</ele>
        <time>2022-01-23T08:33:09.000Z</time>
      </trkpt>
      <trkpt lat="43.15221" lon="2.33562">
        <ele>224</ele>
        <time>2022-01-23T08:33:10.000Z</time>
      </trkpt>
      <trkpt lat="43.15222" lon="2.33564">
        <ele>224.4</ele>
        <time>2022-01-23T08:33:11.000Z</time>
      </trkpt>
      <trkpt lat="43.15222" lon="2.33566">
        <ele>224.7</ele>
        <time>2022-01-23T08:33:12.000Z</time>
      </trkpt>
      <trkpt lat="43.15223" lon="2.33568">
        <ele>225.1</ele>
        <time>2022-01-23T08:33:13.000Z</time>
      </trkpt>
      <trkpt lat="43.15224" lon="2.3357">
        <ele>225.5</ele>
        <time>2022-01-23T08:33:14.000Z</time>
      </trkpt>
      <trkpt lat="43.15225" lon="2.33573">
        <ele>225.9</ele>
        <time>2022-01-23T08:33:15.000Z</time>
      </trkpt>
      <trkpt lat="43.15225" lon="2.33575">
        <ele>226.3</ele>
        <time>2022-01-23T08:33:16.000Z</time>
      </trkpt>
      <trkpt lat="43.15226" lon="2.33577">
        <ele>226.6</ele>
        <time>2022-01-23T08:33:17.000Z</time>
      </trkpt>
      <trkpt lat="43.15227" lon="2.33579">
        <ele>227</ele>
        <time>2022-01-23T08:33:18.000Z</time>
      </trkpt>
      <trkpt lat="43.15228" lon="2.33581">
        <ele>227.3</ele>
        <time>2022-01-23T08:33:19.000Z</time>
      </trkpt>
      <trkpt lat="43.15229" lon="2.33581">
        <ele>227.5</ele>
        <time>2022-01-23T08:33:20.000Z</time>
      </trkpt>
      <trkpt lat="43.15231" lon="2.33582">
        <ele>227.7</ele>
        <time>2022-01-23T08:33:21.000Z</time>
      </trkpt>
      <trkpt lat="43.15232" lon="2.33583">
        <ele>228</ele>
        <time>2022-01-23T08:33:22.000Z</time>
      </trkpt>
      <trkpt lat="43.15233" lon="2.33584">
        <ele>228.2</ele>
        <time>2022-01-23T08:33:23.000Z</time>
      </trkpt>
      <trkpt lat="43.15234" lon="2.33585">
        <ele>228.4</ele>
        <time>2022-01-23T08:33:24.000Z</time>
      </trkpt>
      <trkpt lat="43.15235" lon="2.33586">
        <ele>228.6</ele>
        <time>2022-01-23T08:33:25.000Z</time>
      </trkpt>
      <trkpt lat="43.15236" lon="2.33587">
        <ele>228.8</ele>
        <time>2022-01-23T08:33:26.000Z</time>
      </trkpt>
      <trkpt lat="43.15237" lon="2.33589">
        <ele>229</ele>
        <time>2022-01-23T08:33:27.000Z</time>
      </trkpt>
      <trkpt lat="43.15237" lon="2.3359">
        <ele>229.2</ele>
        <time>2022-01-23T08:33:28.000Z</time>
      </trkpt>
      <trkpt lat="43.15237" lon="2.33592">
        <ele>229.3</ele>
        <time>2022-01-23T08:33:29.000Z</time>
      </trkpt>
      <trkpt lat="43.15237" lon="2.33593">
        <ele>229.5</ele>
        <time>2022-01-23T08:33:30.000Z</time>
      </trkpt>
      <trkpt lat="43.15237" lon="2.33595">
        <ele>229.6</ele>
        <time>2022-01-23T08:33:31.000Z</time>
      </trkpt>
      <trkpt lat="43.15236" lon="2.33597">
        <ele>229.7</ele>
        <time>2022-01-23T08:33:32.000Z</time>
      </trkpt>
      <trkpt lat="43.15236" lon="2.33599">
        <ele>229.9</ele>
        <time>2022-01-23T08:33:33.000Z</time>
      </trkpt>
      <trkpt lat="43.15236" lon="2.33601">
        <ele>230.1</ele>
        <time>2022-01-23T08:33:34.000Z</time>
      </trkpt>
      <trkpt lat="43.15236" lon="2.33603">
        <ele>230.3</ele>
        <time>2022-01-23T08:33:35.000Z</time>
      </trkpt>
      <trkpt lat="43.15237" lon="2.33605">
        <ele>230.5</ele>
        <time>2022-01-23T08:33:36.000Z</time>
      </trkpt>
      <trkpt lat="43.15237" lon="2.33607">
        <ele>230.8</ele>
        <time>2022-01-23T08:33:37.000Z</time>
      </trkpt>
      <trkpt lat="43.15237" lon="2.3361">
        <ele>231</ele>
        <time>2022-01-23T08:33:38.000Z</time>
      </trkpt>
      <trkpt lat="43.15238" lon="2.33612">
        <ele>231.3</ele>
        <time>2022-01-23T08:33:39.000Z</time>
      </trkpt>
      <trkpt lat="43.15238" lon="2.33614">
        <ele>231.5</ele>
        <time>2022-01-23T08:33:40.000Z</time>
      </trkpt>
      <trkpt lat="43.15238" lon="2.33616">
        <ele>231.6</ele>
        <time>2022-01-23T08:33:41.000Z</time>
      </trkpt>
      <trkpt lat="43.15237" lon="2.33618">
        <ele>231.7</ele>
        <time>2022-01-23T08:33:42.000Z</time>
      </trkpt>
      <trkpt lat="43.15237" lon="2.33619">
        <ele>231.9</ele>
        <time>2022-01-23T08:33:43.000Z</time>
      </trkpt>
      <trkpt lat="43.15237" lon="2.33621">
        <ele>232</ele>
        <time>2022-01-23T08:33:44.000Z</time>
      </trkpt>
      <trkpt lat="43.15236" lon="2.33623">
        <ele>232.1</ele>
        <time>2022-01-23T08:33:45.000Z</time>
      </trkpt>
      <trkpt lat="43.15236" lon="2.33626">
        <ele>232.3</ele>
        <time>2022-01-23T08:33:46.000Z</time>
      </trkpt>
      <trkpt lat="43.15236" lon="2.33628">
        <ele>232.5</ele>
        <time>2022-01-23T08:33:47.000Z</time>
      </trkpt>
      <trkpt lat="43.15236" lon="2.3363">
        <ele>232.7</ele>
        <time>2022-01-23T08:33:48.000Z</time>
      </trkpt>
      <trkpt lat="43.15236" lon="2.33632">
        <ele>232.9</ele>
        <time>2022-01-23T08:33:49.000Z</time>
      </trkpt>
      <trkpt lat="43.15236" lon="2.33634">
        <ele>233</ele>
        <time>2022-01-23T08:33:50.000Z</time>
      </trkpt>
      <trkpt lat="43.15236" lon="2.33636">
        <ele>233.2</ele>
        <time>2022-01-23T08:33:51.000Z</time>
      </trkpt>
      <trkpt lat="43.15236" lon="2.33637">
        <ele>233.3</ele>
        <time>2022-01-23T08:33:52.000Z</time>
      </trkpt>
      <trkpt lat="43.15236" lon="2.33638">
        <ele>233.4</ele>
        <time>2022-01-23T08:33:53.000Z</time>
      </trkpt>
      <trkpt lat="43.15236" lon="2.33638">
        <ele>233.4</ele>
        <time>2022-01-23T08:33:54.000Z</time>
      </trkpt>
      <trkpt lat="43.15236" lon="2.33638">
        <ele>233.5</ele>
        <time>2022-01-23T08:33:55.000Z</time>
      </trkpt>
      <trkpt lat="43.15236" lon="2.33639">
        <ele>233.5</ele>
        <time>2022-01-23T08:33:56.000Z</time>
      </trkpt>
      <trkpt lat="43.15236" lon="2.3364">
        <ele>233.6</ele>
        <time>2022-01-23T08:33:57.000Z</time>
      </trkpt>
      <trkpt lat="43.15236" lon="2.33641">
        <ele>233.7</ele>
        <time>2022-01-23T08:33:58.000Z</time>
      </trkpt>
      <trkpt lat="43.15236" lon="2.33643">
        <ele>233.8</ele>
        <time>2022-01-23T08:33:59.000Z</time>
      </trkpt>
      <trkpt lat="43.15236" lon="2.33645">
        <ele>234</ele>
        <time>2022-01-23T08:34:00.000Z</time>
      </trkpt>
      <trkpt lat="43.15236" lon="2.33647">
        <ele>234.2</ele>
        <time>2022-01-23T08:34:01.000Z</time>
      </trkpt>
      <trkpt lat="43.15236" lon="2.33649">
        <ele>234.3</ele>
        <time>2022-01-23T08:34:02.000Z</time>
      </trkpt>
      <trkpt lat="43.15236" lon="2.33651">
        <ele>234.5</ele>
        <time>2022-01-23T08:34:03.000Z</time>
      </trkpt>
      <trkpt lat="43.15236" lon="2.33652">
        <ele>234.7</ele>
        <time>2022-01-23T08:34:04.000Z</time>
      </trkpt>
      <trkpt lat="43.15236" lon="2.33654">
        <ele>234.8</ele>
        <time>2022-01-23T08:34:05.000Z</time>
      </trkpt>
      <trkpt lat="43.15236" lon="2.33656">
        <ele>235</ele>
        <time>2022-01-23T08:34:06.000Z</time>
      </trkpt>
      <trkpt lat="43.15236" lon="2.33657">
        <ele>235.2</ele>
        <time>2022-01-23T08:34:07.000Z</time>
      </trkpt>
      <trkpt lat="43.15237" lon="2.33659">
        <ele>235.3</ele>
        <time>2022-01-23T08:34:08.000Z</time>
      </trkpt>
      <trkpt lat="43.15237" lon="2.3366">
        <ele>235.5</ele>
        <time>2022-01-23T08:34:09.000Z</time>
      </trkpt>
      <trkpt lat="43.15237" lon="2.33662">
        <ele>235.7</ele>
        <time>2022-01-23T08:34:10.000Z</time>
      </trkpt>
      <trkpt lat="43.15237" lon="2.33663">
        <ele>235.9</ele>
        <time>2022-01-23T08:34:11.000Z</time>
      </trkpt>
      <trkpt lat="43.15238" lon="2.33665">
        <ele>236.1</ele>
        <time>2022-01-23T08:34:12.000Z</time>
      </trkpt>
      <trkpt lat="43.15238" lon="2.33667">
        <ele>236.3</ele>
        <time>2022-01-23T08:34:13.000Z</time>
      </trkpt>
      <trkpt lat="43.15238" lon="2.33668">
        <ele>236.5</ele>
        <time>2022-01-23T08:34:14.000Z</time>
      </trkpt>
      <trkpt lat="43.15238" lon="2.3367">
        <ele>236.7</ele>
        <time>2022-01-23T08:34:15.000Z</time>
      </trkpt>
      <trkpt lat="43.15239" lon="2.33672">
        <ele>236.9</ele>
        <time>2022-01-23T08:34:16.000Z</time>
      </trkpt>
      <trkpt lat="43.15239" lon="2.33673">
        <ele>237.1</ele>
        <time>2022-01-23T08:34:17.000Z</time>
      </trkpt>
      <trkpt lat="43.15239" lon="2.33675">
        <ele>237.4</ele>
        <time>2022-01-23T08:34:18.000Z</time>
      </trkpt>
      <trkpt lat="43.1524" lon="2.33677">
        <ele>237.6</ele>
        <time>2022-01-23T08:34:19.000Z</time>
      </trkpt>
      <trkpt lat="43.1524" lon="2.33678">
        <ele>237.8</ele>
        <time>2022-01-23T08:34:20.000Z</time>
      </trkpt>
      <trkpt lat="43.1524" lon="2.3368">
        <ele>238</ele>
        <time>2022-01-23T08:34:21.000Z</time>
      </trkpt>
      <trkpt lat="43.1524" lon="2.33682">
        <ele>238.3</ele>
        <time>2022-01-23T08:34:22.000Z</time>
      </trkpt>
      <trkpt lat="43.15241" lon="2.33683">
        <ele>238.5</ele>
        <time>2022-01-23T08:34:23.000Z</time>
      </trkpt>
      <trkpt lat="43.15241" lon="2.33685">
        <ele>238.7</ele>
        <time>2022-01-23T08:34:24.000Z</time>
      </trkpt>
      <trkpt lat="43.15241" lon="2.33687">
        <ele>238.9</ele>
        <time>2022-01-23T08:34:25.000Z</time>
      </trkpt>
      <trkpt lat="43.15241" lon="2.33689">
        <ele>239.1</ele>
        <time>2022-01-23T08:34:26.000Z</time>
      </trkpt>
      <trkpt lat="43.15241" lon="2.33691">
        <ele>239.3</ele>
        <time>2022-01-23T08:34:27.000Z</time>
      </trkpt>
      <trkpt lat="43.1524" lon="2.33694">
        <ele>239.6</ele>
        <time>2022-01-23T08:34:28.000Z</time>
      </trkpt>
      <trkpt lat="43.1524" lon="2.33696">
        <ele>239.8</ele>
        <time>2022-01-23T08:34:29.000Z</time>
      </trkpt>
      <trkpt lat="43.1524" lon="2.33698">
        <ele>240</ele>
        <time>2022-01-23T08:34:30.000Z</time>
      </trkpt>
      <trkpt lat="43.1524" lon="2.33701">
        <ele>240.3</ele>
        <time>2022-01-23T08:34:31.000Z</time>
      </trkpt>
      <trkpt lat="43.1524" lon="2.33703">
        <ele>240.5</ele>
        <time>2022-01-23T08:34:32.000Z</time>
      </trkpt>
      <trkpt lat="43.1524" lon="2.33705">
        <ele>240.8</ele>
        <time>2022-01-23T08:34:33.000Z</time>
      </trkpt>
      <trkpt lat="43.15241" lon="2.33707">
        <ele>241.1</ele>
        <time>2022-01-23T08:34:34.000Z</time>
      </trkpt>
      <trkpt lat="43.15241" lon="2.33709">
        <ele>241.3</ele>
        <time>2022-01-23T08:34:35.000Z</time>
      </trkpt>
      <trkpt lat="43.15241" lon="2.33711">
        <ele>241.6</ele>
        <time>2022-01-23T08:34:36.000Z</time>
      </trkpt>
      <trkpt lat="43.15241" lon="2.33714">
        <ele>241.9</ele>
        <time>2022-01-23T08:34:37.000Z</time>
      </trkpt>
      <trkpt lat="43.15242" lon="2.33716">
        <ele>242.2</ele>
        <time>2022-01-23T08:34:38.000Z</time>
      </trkpt>
      <trkpt lat="43.15242" lon="2.33718">
        <ele>242.4</ele>
        <time>2022-01-23T08:34:39.000Z</time>
      </trkpt>
      <trkpt lat="43.15242" lon="2.3372">
        <ele>242.7</ele>
        <time>2022-01-23T08:34:40.000Z</time>
      </trkpt>
      <trkpt lat="43.15242" lon="2.33722">
        <ele>242.9</ele>
        <time>2022-01-23T08:34:41.000Z</time>
      </trkpt>
      <trkpt lat="43.15243" lon="2.33724">
        <ele>243.2</ele>
        <time>2022-01-23T08:34:42.000Z</time>
      </trkpt>
      <trkpt lat="43.15243" lon="2.33726">
        <ele>243.4</ele>
        <time>2022-01-23T08:34:43.000Z</time>
      </trkpt>
      <trkpt lat="43.15243" lon="2.33728">
        <ele>243.6</ele>
        <time>2022-01-23T08:34:44.000Z</time>
      </trkpt>
      <trkpt lat="43.15243" lon="2.3373">
        <ele>243.9</ele>
        <time>2022-01-23T08:34:45.000Z</time>
      </trkpt>
      <trkpt lat="43.15243" lon="2.33732">
        <ele>244.1</ele>
        <time>2022-01-23T08:34:46.000Z</time>
      </trkpt>
      <trkpt lat="43.15243" lon="2.33734">
        <ele>244.4</ele>
        <time>2022-01-23T08:34:47.000Z</time>
      </trkpt>
      <trkpt lat="43.15244" lon="2.33737">
        <ele>244.7</ele>
        <time>2022-01-23T08:34:48.000Z</time>
      </trkpt>
      <trkpt lat="43.15244" lon="2.33739">
        <ele>245.1</ele>
        <time>2022-01-23T08:34:49.000Z</time>
      </trkpt>
      <trkpt lat="43.15245" lon="2.33742">
        <ele>245.5</ele>
        <time>2022-01-23T08:34:50.000Z</time>
      </trkpt>
      <trkpt lat="43.15245" lon="2.33745">
        <ele>245.8</ele>
        <time>2022-01-23T08:34:51.000Z</time>
      </trkpt>
      <trkpt lat="43.15246" lon="2.33748">
        <ele>246.2</ele>
        <time>2022-01-23T08:34:52.000Z</time>
      </trkpt>
      <trkpt lat="43.15246" lon="2.3375">
        <ele>246.5</ele>
        <time>2022-01-23T08:34:53.000Z</time>
      </trkpt>
      <trkpt lat="43.15246" lon="2.33753">
        <ele>246.9</ele>
        <time>2022-01-23T08:34:54.000Z</time>
      </trkpt>
      <trkpt lat="43.15246" lon="2.33755">
        <ele>247.2</ele>
        <time>2022-01-23T08:34:55.000Z</time>
      </trkpt>
      <trkpt lat="43.15246" lon="2.33757">
        <ele>247.5</ele>
        <time>2022-01-23T08:34:56.000Z</time>
      </trkpt>
      <trkpt lat="43.15245" lon="2.33759">
        <ele>247.8</ele>
        <time>2022-01-23T08:34:57.000Z</time>
      </trkpt>
      <trkpt lat="43.15245" lon="2.33761">
        <ele>248</ele>
        <time>2022-01-23T08:34:58.000Z</time>
      </trkpt>
      <trkpt lat="43.15244" lon="2.33763">
        <ele>248.3</ele>
        <time>2022-01-23T08:34:59.000Z</time>
      </trkpt>
      <trkpt lat="43.15244" lon="2.33765">
        <ele>248.5</ele>
        <time>2022-01-23T08:35:00.000Z</time>
      </trkpt>
      <trkpt lat="43.15243" lon="2.33767">
        <ele>248.7</ele>
        <time>2022-01-23T08:35:01.000Z</time>
      </trkpt>
      <trkpt lat="43.15243" lon="2.33769">
        <ele>249</ele>
        <time>2022-01-23T08:35:02.000Z</time>
      </trkpt>
      <trkpt lat="43.15243" lon="2.33771">
        <ele>249.3</ele>
        <time>2022-01-23T08:35:03.000Z</time>
      </trkpt>
      <trkpt lat="43.15242" lon="2.33773">
        <ele>249.5</ele>
        <time>2022-01-23T08:35:04.000Z</time>
      </trkpt>
      <trkpt lat="43.15242" lon="2.33775">
        <ele>249.8</ele>
        <time>2022-01-23T08:35:05.000Z</time>
      </trkpt>
      <trkpt lat="43.15242" lon="2.33777">
        <ele>250.1</ele>
        <time>2022-01-23T08:35:06.000Z</time>
      </trkpt>
      <trkpt lat="43.15241" lon="2.33779">
        <ele>250.5</ele>
        <time>2022-01-23T08:35:07.000Z</time>
      </trkpt>
      <trkpt lat="43.15241" lon="2.33782">
        <ele>250.8</ele>
        <time>2022-01-23T08:35:08.000Z</time>
      </trkpt>
      <trkpt lat="43.15241" lon="2.33784">
        <ele>251.2</ele>
        <time>2022-01-23T08:35:09.000Z</time>
      </trkpt>
      <trkpt lat="43.15241" lon="2.33786">
        <ele>251.5</ele>
        <time>2022-01-23T08:35:10.000Z</time>
      </trkpt>
      <trkpt lat="43.15242" lon="2.33788">
        <ele>251.9</ele>
        <time>2022-01-23T08:35:11.000Z</time>
      </trkpt>
      <trkpt lat="43.15242" lon="2.33791">
        <ele>252.3</ele>
        <time>2022-01-23T08:35:12.000Z</time>
      </trkpt>
      <trkpt lat="43.15242" lon="2.33793">
        <ele>252.7</ele>
        <time>2022-01-23T08:35:13.000Z</time>
      </trkpt>
      <trkpt lat="43.15243" lon="2.33795">
        <ele>253.1</ele>
        <time>2022-01-23T08:35:14.000Z</time>
      </trkpt>
      <trkpt lat="43.15243" lon="2.33797">
        <ele>253.5</ele>
        <time>2022-01-23T08:35:15.000Z</time>
      </trkpt>
      <trkpt lat="43.15243" lon="2.33799">
        <ele>253.9</ele>
        <time>2022-01-23T08:35:16.000Z</time>
      </trkpt>
      <trkpt lat="43.15244" lon="2.33801">
        <ele>254.2</ele>
        <time>2022-01-23T08:35:17.000Z</time>
      </trkpt>
      <trkpt lat="43.15244" lon="2.33803">
        <ele>254.5</ele>
        <time>2022-01-23T08:35:18.000Z</time>
      </trkpt>
      <trkpt lat="43.15244" lon="2.33805">
        <ele>254.8</ele>
        <time>2022-01-23T08:35:19.000Z</time>
      </trkpt>
      <trkpt lat="43.15244" lon="2.33807">
        <ele>255.1</ele>
        <time>2022-01-23T08:35:20.000Z</time>
      </trkpt>
      <trkpt lat="43.15244" lon="2.33808">
        <ele>255.4</ele>
        <time>2022-01-23T08:35:21.000Z</time>
      </trkpt>
      <trkpt lat="43.15244" lon="2.3381">
        <ele>255.6</ele>
        <time>2022-01-23T08:35:22.000Z</time>
      </trkpt>
      <trkpt lat="43.15245" lon="2.33812">
        <ele>255.9</ele>
        <time>2022-01-23T08:35:23.000Z</time>
      </trkpt>
      <trkpt lat="43.15245" lon="2.33813">
        <ele>256.2</ele>
        <time>2022-01-23T08:35:24.000Z</time>
      </trkpt>
      <trkpt lat="43.15245" lon="2.33815">
        <ele>256.5</ele>
        <time>2022-01-23T08:35:25.000Z</time>
      </trkpt>
      <trkpt lat="43.15245" lon="2.33817">
        <ele>256.8</ele>
        <time>2022-01-23T08:35:26.000Z</time>
      </trkpt>
      <trkpt lat="43.15245" lon="2.33819">
        <ele>257.2</ele>
        <time>2022-01-23T08:35:27.000Z</time>
      </trkpt>
      <trkpt lat="43.15246" lon="2.33821">
        <ele>257.6</ele>
        <time>2022-01-23T08:35:28.000Z</time>
      </trkpt>
      <trkpt lat="43.15246" lon="2.33823">
        <ele>258</ele>
        <time>2022-01-23T08:35:29.000Z</time>
      </trkpt>
      <trkpt lat="43.15247" lon="2.33825">
        <ele>258.4</ele>
        <time>2022-01-23T08:35:30.000Z</time>
      </trkpt>
      <trkpt lat="43.15247" lon="2.33827">
        <ele>258.8</ele>
        <time>2022-01-23T08:35:31.000Z</time>
      </trkpt>
      <trkpt lat="43.15248" lon="2.3383">
        <ele>259.2</ele>
        <time>2022-01-23T08:35:32.000Z</time>
      </trkpt>
      <trkpt lat="43.15249" lon="2.33832">
        <ele>259.6</ele>
        <time>2022-01-23T08:35:33.000Z</time>
      </trkpt>
      <trkpt lat="43.15249" lon="2.33834">
        <ele>259.9</ele>
        <time>2022-01-23T08:35:34.000Z</time>
      </trkpt>
      <trkpt lat="43.15249" lon="2.33836">
        <ele>260.2</ele>
        <time>2022-01-23T08:35:35.000Z</time>
      </trkpt>
      <trkpt lat="43.1525" lon="2.33838">
        <ele>260.5</ele>
        <time>2022-01-23T08:35:36.000Z</time>
      </trkpt>
      <trkpt lat="43.1525" lon="2.3384">
        <ele>260.7</ele>
        <time>2022-01-23T08:35:37.000Z</time>
      </trkpt>
      <trkpt lat="43.1525" lon="2.33842">
        <ele>260.9</ele>
        <time>2022-01-23T08:35:38.000Z</time>
      </trkpt>
      <trkpt lat="43.1525" lon="2.33844">
        <ele>261.1</ele>
        <time>2022-01-23T08:35:39.000Z</time>
      </trkpt>
      <trkpt lat="43.1525" lon="2.33845">
        <ele>261.3</ele>
        <time>2022-01-23T08:35:40.000Z</time>
      </trkpt>
      <trkpt lat="43.1525" lon="2.33847">
        <ele>261.5</ele>
        <time>2022-01-23T08:35:41.000Z</time>
      </trkpt>
      <trkpt lat="43.1525" lon="2.33849">
        <ele>261.6</ele>
        <time>2022-01-23T08:35:42.000Z</time>
      </trkpt>
      <trkpt lat="43.15249" lon="2.33851">
        <ele>261.8</ele>
        <time>2022-01-23T08:35:43.000Z</time>
      </trkpt>
      <trkpt lat="43.15249" lon="2.33852">
        <ele>261.9</ele>
        <time>2022-01-23T08:35:44.000Z</time>
      </trkpt>
      <trkpt lat="43.15248" lon="2.33854">
        <ele>262.1</ele>
        <time>2022-01-23T08:35:45.000Z</time>
      </trkpt>
      <trkpt lat="43.15248" lon="2.33856">
        <ele>262.2</ele>
        <time>2022-01-23T08:35:46.000Z</time>
      </trkpt>
      <trkpt lat="43.15247" lon="2.33858">
        <ele>262.3</ele>
        <time>2022-01-23T08:35:47.000Z</time>
      </trkpt>
      <trkpt lat="43.15246" lon="2.3386">
        <ele>262.4</ele>
        <time>2022-01-23T08:35:48.000Z</time>
      </trkpt>
      <trkpt lat="43.15245" lon="2.33861">
        <ele>262.6</ele>
        <time>2022-01-23T08:35:49.000Z</time>
      </trkpt>
      <trkpt lat="43.15245" lon="2.33863">
        <ele>262.7</ele>
        <time>2022-01-23T08:35:50.000Z</time>
      </trkpt>
      <trkpt lat="43.15244" lon="2.33865">
        <ele>262.8</ele>
        <time>2022-01-23T08:35:51.000Z</time>
      </trkpt>
      <trkpt lat="43.15243" lon="2.33867">
        <ele>262.9</ele>
        <time>2022-01-23T08:35:52.000Z</time>
      </trkpt>
      <trkpt lat="43.15243" lon="2.33868">
        <ele>263.1</ele>
        <time>2022-01-23T08:35:53.000Z</time>
      </trkpt>
      <trkpt lat="43.15243" lon="2.3387">
        <ele>263.2</ele>
        <time>2022-01-23T08:35:54.000Z</time>
      </trkpt>
      <trkpt lat="43.15242" lon="2.33871">
        <ele>263.4</ele>
        <time>2022-01-23T08:35:55.000Z</time>
      </trkpt>
      <trkpt lat="43.15242" lon="2.33873">
        <ele>263.5</ele>
        <time>2022-01-23T08:35:56.000Z</time>
      </trkpt>
      <trkpt lat="43.15242" lon="2.33874">
        <ele>263.6</ele>
        <time>2022-01-23T08:35:57.000Z</time>
      </trkpt>
      <trkpt lat="43.15242" lon="2.33875">
        <ele>263.8</ele>
        <time>2022-01-23T08:35:58.000Z</time>
      </trkpt>
      <trkpt lat="43.15242" lon="2.33876">
        <ele>263.9</ele>
        <time>2022-01-23T08:35:59.000Z</time>
      </trkpt>
      <trkpt lat="43.15242" lon="2.33878">
        <ele>264</ele>
        <time>2022-01-23T08:36:00.000Z</time>
      </trkpt>
      <trkpt lat="43.15242" lon="2.33879">
        <ele>264.2</ele>
        <time>2022-01-23T08:36:01.000Z</time>
      </trkpt>
      <trkpt lat="43.15241" lon="2.3388">
        <ele>264.3</ele>
        <time>2022-01-23T08:36:02.000Z</time>
      </trkpt>
      <trkpt lat="43.15241" lon="2.33881">
        <ele>264.4</ele>
        <time>2022-01-23T08:36:03.000Z</time>
      </trkpt>
      <trkpt lat="43.15241" lon="2.33882">
        <ele>264.5</ele>
        <time>2022-01-23T08:36:04.000Z</time>
      </trkpt>
      <trkpt lat="43.15241" lon="2.33883">
        <ele>264.6</ele>
        <time>2022-01-23T08:36:05.000Z</time>
      </trkpt>
      <trkpt lat="43.1524" lon="2.33884">
        <ele>264.6</ele>
        <time>2022-01-23T08:36:06.000Z</time>
      </trkpt>
      <trkpt lat="43.1524" lon="2.33885">
        <ele>264.7</ele>
        <time>2022-01-23T08:36:07.000Z</time>
      </trkpt>
      <trkpt lat="43.15239" lon="2.33886">
        <ele>264.8</ele>
        <time>2022-01-23T08:36:08.000Z</time>
      </trkpt>
      <trkpt lat="43.15239" lon="2.33887">
        <ele>264.9</ele>
        <time>2022-01-23T08:36:09.000Z</time>
      </trkpt>
      <trkpt lat="43.15239" lon="2.33888">
        <ele>265</ele>
        <time>2022-01-23T08:36:10.000Z</time>
      </trkpt>
      <trkpt lat="43.15239" lon="2.33889">
        <ele>265.1</ele>
        <time>2022-01-23T08:36:11.000Z</time>
      </trkpt>
      <trkpt lat="43.15238" lon="2.3389">
        <ele>265.2</ele>
        <time>2022-01-23T08:36:12.000Z</time>
      </trkpt>
      <trkpt lat="43.15238" lon="2.33891">
        <ele>265.3</ele>
        <time>2022-01-23T08:36:13.000Z</time>
      </trkpt>
      <trkpt lat="43.15238" lon="2.33892">
        <ele>265.4</ele>
        <time>2022-01-23T08:36:14.000Z</time>
      </trkpt>
      <trkpt lat="43.15237" lon="2.33893">
        <ele>265.5</ele>
        <time>2022-01-23T08:36:15.000Z</time>
      </trkpt>
      <trkpt lat="43.15237" lon="2.33894">
        <ele>265.6</ele>
        <time>2022-01-23T08:36:16.000Z</time>
      </trkpt>
      <trkpt lat="43.15236" lon="2.33895">
        <ele>265.6</ele>
        <time>2022-01-23T08:36:17.000Z</time>
      </trkpt>
      <trkpt lat="43.15236" lon="2.33896">
        <ele>265.7</ele>
        <time>2022-01-23T08:36:18.000Z</time>
      </trkpt>
      <trkpt lat="43.15235" lon="2.33897">
        <ele>265.8</ele>
        <time>2022-01-23T08:36:19.000Z</time>
      </trkpt>
      <trkpt lat="43.15234" lon="2.33898">
        <ele>265.8</ele>
        <time>2022-01-23T08:36:20.000Z</time>
      </trkpt>
      <trkpt lat="43.15234" lon="2.33899">
        <ele>265.8</ele>
        <time>2022-01-23T08:36:21.000Z</time>
      </trkpt>
      <trkpt lat="43.15233" lon="2.33899">
        <ele>265.9</ele>
        <time>2022-01-23T08:36:22.000Z</time>
      </trkpt>
      <trkpt lat="43.15232" lon="2.339">
        <ele>265.9</ele>
        <time>2022-01-23T08:36:23.000Z</time>
      </trkpt>
      <trkpt lat="43.15231" lon="2.33901">
        <ele>266</ele>
        <time>2022-01-23T08:36:24.000Z</time>
      </trkpt>
      <trkpt lat="43.15231" lon="2.33902">
        <ele>266</ele>
        <time>2022-01-23T08:36:25.000Z</time>
      </trkpt>
      <trkpt lat="43.15231" lon="2.33902">
        <ele>266.1</ele>
        <time>2022-01-23T08:36:26.000Z</time>
      </trkpt>
      <trkpt lat="43.1523" lon="2.33903">
        <ele>266.1</ele>
        <time>2022-01-23T08:36:27.000Z</time>
      </trkpt>
      <trkpt lat="43.1523" lon="2.33904">
        <ele>266.2</ele>
        <time>2022-01-23T08:36:28.000Z</time>
      </trkpt>
      <trkpt lat="43.1523" lon="2.33905">
        <ele>266.4</ele>
        <time>2022-01-23T08:36:29.000Z</time>
      </trkpt>
      <trkpt lat="43.1523" lon="2.33906">
        <ele>266.5</ele>
        <time>2022-01-23T08:36:30.000Z</time>
      </trkpt>
      <trkpt lat="43.15231" lon="2.33908">
        <ele>266.7</ele>
        <time>2022-01-23T08:36:31.000Z</time>
      </trkpt>
      <trkpt lat="43.15231" lon="2.3391">
        <ele>267</ele>
        <time>2022-01-23T08:36:32.000Z</time>
      </trkpt>
      <trkpt lat="43.15232" lon="2.33912">
        <ele>267.3</ele>
        <time>2022-01-23T08:36:33.000Z</time>
      </trkpt>
      <trkpt lat="43.15232" lon="2.33914">
        <ele>267.6</ele>
        <time>2022-01-23T08:36:34.000Z</time>
      </trkpt>
      <trkpt lat="43.15232" lon="2.33916">
        <ele>267.9</ele>
        <time>2022-01-23T08:36:35.000Z</time>
      </trkpt>
      <trkpt lat="43.15232" lon="2.33918">
        <ele>267.9</ele>
        <time>2022-01-23T08:36:36.000Z</time>
      </trkpt>
      <trkpt lat="43.15232" lon="2.3392">
        <ele>267.9</ele>
        <time>2022-01-23T08:36:37.000Z</time>
      </trkpt>
      <trkpt lat="43.15231" lon="2.33921">
        <ele>267.9</ele>
        <time>2022-01-23T08:36:38.000Z</time>
      </trkpt>
      <trkpt lat="43.15231" lon="2.33923">
        <ele>267.8</ele>
        <time>2022-01-23T08:36:39.000Z</time>
      </trkpt>
      <trkpt lat="43.1523" lon="2.33924">
        <ele>267.8</ele>
        <time>2022-01-23T08:36:40.000Z</time>
      </trkpt>
      <trkpt lat="43.1523" lon="2.33925">
        <ele>267.8</ele>
        <time>2022-01-23T08:36:41.000Z</time>
      </trkpt>
      <trkpt lat="43.15229" lon="2.33926">
        <ele>267.8</ele>
        <time>2022-01-23T08:36:42.000Z</time>
      </trkpt>
      <trkpt lat="43.15229" lon="2.33928">
        <ele>267.8</ele>
        <time>2022-01-23T08:36:43.000Z</time>
      </trkpt>
      <trkpt lat="43.15229" lon="2.33929">
        <ele>267.8</ele>
        <time>2022-01-23T08:36:44.000Z</time>
      </trkpt>
      <trkpt lat="43.15229" lon="2.33931">
        <ele>267.8</ele>
        <time>2022-01-23T08:36:45.000Z</time>
      </trkpt>
      <trkpt lat="43.15228" lon="2.33933">
        <ele>267.8</ele>
        <time>2022-01-23T08:36:46.000Z</time>
      </trkpt>
      <trkpt lat="43.15228" lon="2.33936">
        <ele>267.7</ele>
        <time>2022-01-23T08:36:47.000Z</time>
      </trkpt>
      <trkpt lat="43.15228" lon="2.33938">
        <ele>267.7</ele>
        <time>2022-01-23T08:36:48.000Z</time>
      </trkpt>
      <trkpt lat="43.15227" lon="2.33941">
        <ele>267.7</ele>
        <time>2022-01-23T08:36:49.000Z</time>
      </trkpt>
      <trkpt lat="43.15227" lon="2.33944">
        <ele>267.7</ele>
        <time>2022-01-23T08:36:50.000Z</time>
      </trkpt>
      <trkpt lat="43.15227" lon="2.33946">
        <ele>267.7</ele>
        <time>2022-01-23T08:36:51.000Z</time>
      </trkpt>
      <trkpt lat="43.15226" lon="2.33949">
        <ele>267.7</ele>
        <time>2022-01-23T08:36:52.000Z</time>
      </trkpt>
      <trkpt lat="43.15226" lon="2.33952">
        <ele>267.7</ele>
        <time>2022-01-23T08:36:53.000Z</time>
      </trkpt>
      <trkpt lat="43.15226" lon="2.33954">
        <ele>267.8</ele>
        <time>2022-01-23T08:36:54.000Z</time>
      </trkpt>
      <trkpt lat="43.15226" lon="2.33956">
        <ele>267.8</ele>
        <time>2022-01-23T08:36:55.000Z</time>
      </trkpt>
      <trkpt lat="43.15225" lon="2.33958">
        <ele>267.8</ele>
        <time>2022-01-23T08:36:56.000Z</time>
      </trkpt>
      <trkpt lat="43.15225" lon="2.3396">
        <ele>267.8</ele>
        <time>2022-01-23T08:36:57.000Z</time>
      </trkpt>
      <trkpt lat="43.15225" lon="2.33961">
        <ele>267.8</ele>
        <time>2022-01-23T08:36:58.000Z</time>
      </trkpt>
      <trkpt lat="43.15225" lon="2.33962">
        <ele>267.8</ele>
        <time>2022-01-23T08:36:59.000Z</time>
      </trkpt>
      <trkpt lat="43.15224" lon="2.33963">
        <ele>267.8</ele>
        <time>2022-01-23T08:37:00.000Z</time>
      </trkpt>
      <trkpt lat="43.15224" lon="2.33963">
        <ele>267.8</ele>
        <time>2022-01-23T08:37:01.000Z</time>
      </trkpt>
      <trkpt lat="43.15224" lon="2.33964">
        <ele>267.7</ele>
        <time>2022-01-23T08:37:02.000Z</time>
      </trkpt>
      <trkpt lat="43.15223" lon="2.33963">
        <ele>267.7</ele>
        <time>2022-01-23T08:37:03.000Z</time>
      </trkpt>
      <trkpt lat="43.15223" lon="2.33963">
        <ele>267.7</ele>
        <time>2022-01-23T08:37:04.000Z</time>
      </trkpt>
      <trkpt lat="43.15222" lon="2.33963">
        <ele>267.7</ele>
        <time>2022-01-23T08:37:05.000Z</time>
      </trkpt>
      <trkpt lat="43.15222" lon="2.33962">
        <ele>267.7</ele>
        <time>2022-01-23T08:37:06.000Z</time>
      </trkpt>
      <trkpt lat="43.15221" lon="2.33962">
        <ele>267.7</ele>
        <time>2022-01-23T08:37:07.000Z</time>
      </trkpt>
      <trkpt lat="43.15221" lon="2.33962">
        <ele>267.7</ele>
        <time>2022-01-23T08:37:08.000Z</time>
      </trkpt>
      <trkpt lat="43.15221" lon="2.33962">
        <ele>267.6</ele>
        <time>2022-01-23T08:37:09.000Z</time>
      </trkpt>
      <trkpt lat="43.1522" lon="2.33962">
        <ele>267.6</ele>
        <time>2022-01-23T08:37:10.000Z</time>
      </trkpt>
      <trkpt lat="43.1522" lon="2.33961">
        <ele>267.6</ele>
        <time>2022-01-23T08:37:11.000Z</time>
      </trkpt>
      <trkpt lat="43.15219" lon="2.33961">
        <ele>267.6</ele>
        <time>2022-01-23T08:37:12.000Z</time>
      </trkpt>
      <trkpt lat="43.15219" lon="2.33961">
        <ele>267.6</ele>
        <time>2022-01-23T08:37:13.000Z</time>
      </trkpt>
      <trkpt lat="43.15219" lon="2.33961">
        <ele>267.6</ele>
        <time>2022-01-23T08:37:14.000Z</time>
      </trkpt>
      <trkpt lat="43.15219" lon="2.33961">
        <ele>267.6</ele>
        <time>2022-01-23T08:37:15.000Z</time>
      </trkpt>
      <trkpt lat="43.15219" lon="2.33961">
        <ele>267.6</ele>
        <time>2022-01-23T08:37:16.000Z</time>
      </trkpt>
      <trkpt lat="43.15219" lon="2.33961">
        <ele>267.6</ele>
        <time>2022-01-23T08:37:17.000Z</time>
      </trkpt>
      <trkpt lat="43.15219" lon="2.3396">
        <ele>267.6</ele>
        <time>2022-01-23T08:37:18.000Z</time>
      </trkpt>
      <trkpt lat="43.15219" lon="2.3396">
        <ele>267.6</ele>
        <time>2022-01-23T08:37:19.000Z</time>
      </trkpt>
      <trkpt lat="43.15219" lon="2.3396">
        <ele>267.6</ele>
        <time>2022-01-23T08:37:20.000Z</time>
      </trkpt>
      <trkpt lat="43.15219" lon="2.3396">
        <ele>267.6</ele>
        <time>2022-01-23T08:37:21.000Z</time>
      </trkpt>
      <trkpt lat="43.15219" lon="2.3396">
        <ele>267.6</ele>
        <time>2022-01-23T08:37:22.000Z</time>
      </trkpt>
      <trkpt lat="43.15219" lon="2.3396">
        <ele>267.6</ele>
        <time>2022-01-23T08:37:23.000Z</time>
      </trkpt>
      <trkpt lat="43.15219" lon="2.3396">
        <ele>267.6</ele>
        <time>2022-01-23T08:37:24.000Z</time>
      </trkpt>
      <trkpt lat="43.15219" lon="2.3396">
        <ele>267.6</ele>
        <time>2022-01-23T08:37:25.000Z</time>
      </trkpt>
      <trkpt lat="43.15219" lon="2.3396">
        <ele>267.6</ele>
        <time>2022-01-23T08:37:26.000Z</time>
      </trkpt>
      <trkpt lat="43.15219" lon="2.3396">
        <ele>267.6</ele>
        <time>2022-01-23T08:37:27.000Z</time>
      </trkpt>
      <trkpt lat="43.15219" lon="2.3396">
        <ele>267.6</ele>
        <time>2022-01-23T08:37:28.000Z</time>
      </trkpt>
      <trkpt lat="43.15219" lon="2.3396">
        <ele>267.6</ele>
        <time>2022-01-23T08:37:29.000Z</time>
      </trkpt>
      <trkpt lat="43.15219" lon="2.3396">
        <ele>267.6</ele>
        <time>2022-01-23T08:37:30.000Z</time>
      </trkpt>
      <trkpt lat="43.15219" lon="2.3396">
        <ele>267.6</ele>
        <time>2022-01-23T08:37:31.000Z</time>
      </trkpt>
      <trkpt lat="43.15219" lon="2.3396">
        <ele>267.6</ele>
        <time>2022-01-23T08:37:32.000Z</time>
      </trkpt>
      <trkpt lat="43.15219" lon="2.3396">
        <ele>267.6</ele>
        <time>2022-01-23T08:37:33.000Z</time>
      </trkpt>
      <trkpt lat="43.15219" lon="2.3396">
        <ele>267.6</ele>
        <time>2022-01-23T08:37:34.000Z</time>
      </trkpt>
      <trkpt lat="43.15219" lon="2.3396">
        <ele>267.6</ele>
        <time>2022-01-23T08:37:35.000Z</time>
      </trkpt>
      <trkpt lat="43.15219" lon="2.3396">
        <ele>267.6</ele>
        <time>2022-01-23T08:37:36.000Z</time>
      </trkpt>
      <trkpt lat="43.15219" lon="2.3396">
        <ele>267.6</ele>
        <time>2022-01-23T08:37:37.000Z</time>
      </trkpt>
      <trkpt lat="43.15219" lon="2.3396">
        <ele>267.6</ele>
        <time>2022-01-23T08:37:38.000Z</time>
      </trkpt>
      <trkpt lat="43.15219" lon="2.3396">
        <ele>267.6</ele>
        <time>2022-01-23T08:37:39.000Z</time>
      </trkpt>
      <trkpt lat="43.15219" lon="2.3396">
        <ele>267.6</ele>
        <time>2022-01-23T08:37:40.000Z</time>
      </trkpt>
      <trkpt lat="43.15219" lon="2.3396">
        <ele>267.6</ele>
        <time>2022-01-23T08:37:41.000Z</time>
      </trkpt>
      <trkpt lat="43.15219" lon="2.3396">
        <ele>267.6</ele>
        <time>2022-01-23T08:37:42.000Z</time>
      </trkpt>
      <trkpt lat="43.15219" lon="2.3396">
        <ele>267.6</ele>
        <time>2022-01-23T08:37:43.000Z</time>
      </trkpt>
      <trkpt lat="43.15219" lon="2.3396">
        <ele>267.6</ele>
        <time>2022-01-23T08:37:44.000Z</time>
      </trkpt>
      <trkpt lat="43.15219" lon="2.3396">
        <ele>267.6</ele>
        <time>2022-01-23T08:37:45.000Z</time>
      </trkpt>
      <trkpt lat="43.15219" lon="2.3396">
        <ele>267.6</ele>
        <time>2022-01-23T08:37:46.000Z</time>
      </trkpt>
      <trkpt lat="43.15219" lon="2.3396">
        <ele>267.6</ele>
        <time>2022-01-23T08:37:47.000Z</time>
      </trkpt>
      <trkpt lat="43.15219" lon="2.3396">
        <ele>267.6</ele>
        <time>2022-01-23T08:37:48.000Z</time>
      </trkpt>
      <trkpt lat="43.15219" lon="2.3396">
        <ele>267.6</ele>
        <time>2022-01-23T08:37:49.000Z</time>
      </trkpt>
      <trkpt lat="43.15219" lon="2.3396">
        <ele>267.6</ele>
        <time>2022-01-23T08:37:50.000Z</time>
      </trkpt>
      <trkpt lat="43.15219" lon="2.3396">
        <ele>267.6</ele>
        <time>2022-01-23T08:37:51.000Z</time>
      </trkpt>
      <trkpt lat="43.15219" lon="2.3396">
        <ele>267.6</ele>
        <time>2022-01-23T08:37:52.000Z</time>
      </trkpt>
      <trkpt lat="43.15219" lon="2.3396">
        <ele>267.6</ele>
        <time>2022-01-23T08:37:53.000Z</time>
      </trkpt>
      <trkpt lat="43.15219" lon="2.3396">
        <ele>267.6</ele>
        <time>2022-01-23T08:37:54.000Z</time>
      </trkpt>
      <trkpt lat="43.15219" lon="2.3396">
        <ele>267.6</ele>
        <time>2022-01-23T08:37:55.000Z</time>
      </trkpt>
      <trkpt lat="43.15219" lon="2.3396">
        <ele>267.6</ele>
        <time>2022-01-23T08:37:56.000Z</time>
      </trkpt>
      <trkpt lat="43.15219" lon="2.3396">
        <ele>267.6</ele>
        <time>2022-01-23T08:37:57.000Z</time>
      </trkpt>
      <trkpt lat="43.15219" lon="2.3396">
        <ele>267.6</ele>
        <time>2022-01-23T08:37:58.000Z</time>
      </trkpt>
      <trkpt lat="43.15219" lon="2.3396">
        <ele>267.6</ele>
        <time>2022-01-23T08:37:59.000Z</time>
      </trkpt>
      <trkpt lat="43.15219" lon="2.3396">
        <ele>267.6</ele>
        <time>2022-01-23T08:38:00.000Z</time>
      </trkpt>
      <trkpt lat="43.15219" lon="2.3396">
        <ele>267.6</ele>
        <time>2022-01-23T08:38:01.000Z</time>
      </trkpt>
      <trkpt lat="43.15219" lon="2.3396">
        <ele>267.6</ele>
        <time>2022-01-23T08:38:02.000Z</time>
      </trkpt>
      <trkpt lat="43.15219" lon="2.3396">
        <ele>267.6</ele>
        <time>2022-01-23T08:38:03.000Z</time>
      </trkpt>
      <trkpt lat="43.15219" lon="2.3396">
        <ele>267.6</ele>
        <time>2022-01-23T08:38:04.000Z</time>
      </trkpt>
      <trkpt lat="43.15219" lon="2.3396">
        <ele>267.6</ele>
        <time>2022-01-23T08:38:05.000Z</time>
      </trkpt>
      <trkpt lat="43.15219" lon="2.3396">
        <ele>267.6</ele>
        <time>2022-01-23T08:38:06.000Z</time>
      </trkpt>
      <trkpt lat="43.15219" lon="2.3396">
        <ele>267.6</ele>
        <time>2022-01-23T08:38:07.000Z</time>
      </trkpt>
      <trkpt lat="43.15219" lon="2.3396">
        <ele>267.6</ele>
        <time>2022-01-23T08:38:08.000Z</time>
      </trkpt>
      <trkpt lat="43.15219" lon="2.3396">
        <ele>267.6</ele>
        <time>2022-01-23T08:38:09.000Z</time>
      </trkpt>
      <trkpt lat="43.15219" lon="2.3396">
        <ele>267.6</ele>
        <time>2022-01-23T08:38:10.000Z</time>
      </trkpt>
      <trkpt lat="43.15219" lon="2.3396">
        <ele>267.6</ele>
        <time>2022-01-23T08:38:11.000Z</time>
      </trkpt>
      <trkpt lat="43.15219" lon="2.3396">
        <ele>267.6</ele>
        <time>2022-01-23T08:38:12.000Z</time>
      </trkpt>
      <trkpt lat="43.15219" lon="2.3396">
        <ele>267.6</ele>
        <time>2022-01-23T08:38:13.000Z</time>
      </trkpt>
      <trkpt lat="43.15219" lon="2.3396">
        <ele>267.6</ele>
        <time>2022-01-23T08:38:14.000Z</time>
      </trkpt>
      <trkpt lat="43.15219" lon="2.3396">
        <ele>267.6</ele>
        <time>2022-01-23T08:38:15.000Z</time>
      </trkpt>
      <trkpt lat="43.15219" lon="2.3396">
        <ele>267.6</ele>
        <time>2022-01-23T08:38:16.000Z</time>
      </trkpt>
      <trkpt lat="43.15219" lon="2.3396">
        <ele>267.6</ele>
        <time>2022-01-23T08:38:17.000Z</time>
      </trkpt>
      <trkpt lat="43.15219" lon="2.3396">
        <ele>267.6</ele>
        <time>2022-01-23T08:38:18.000Z</time>
      </trkpt>
      <trkpt lat="43.15219" lon="2.3396">
        <ele>267.6</ele>
        <time>2022-01-23T08:38:19.000Z</time>
      </trkpt>
      <trkpt lat="43.15219" lon="2.3396">
        <ele>267.6</ele>
        <time>2022-01-23T08:38:20.000Z</time>
      </trkpt>
      <trkpt lat="43.15219" lon="2.3396">
        <ele>267.6</ele>
        <time>2022-01-23T08:38:21.000Z</time>
      </trkpt>
      <trkpt lat="43.15219" lon="2.3396">
        <ele>267.6</ele>
        <time>2022-01-23T08:38:22.000Z</time>
      </trkpt>
      <trkpt lat="43.15219" lon="2.3396">
        <ele>267.6</ele>
        <time>2022-01-23T08:38:23.000Z</time>
      </trkpt>
      <trkpt lat="43.15219" lon="2.3396">
        <ele>267.6</ele>
        <time>2022-01-23T08:38:24.000Z</time>
      </trkpt>
      <trkpt lat="43.15219" lon="2.3396">
        <ele>267.6</ele>
        <time>2022-01-23T08:38:25.000Z</time>
      </trkpt>
      <trkpt lat="43.15219" lon="2.3396">
        <ele>267.6</ele>
        <time>2022-01-23T08:38:26.000Z</time>
      </trkpt>
      <trkpt lat="43.15219" lon="2.3396">
        <ele>267.6</ele>
        <time>2022-01-23T08:38:27.000Z</time>
      </trkpt>
      <trkpt lat="43.15219" lon="2.3396">
        <ele>267.6</ele>
        <time>2022-01-23T08:38:28.000Z</time>
      </trkpt>
      <trkpt lat="43.15219" lon="2.3396">
        <ele>267.6</ele>
        <time>2022-01-23T08:38:29.000Z</time>
      </trkpt>
      <trkpt lat="43.15219" lon="2.3396">
        <ele>267.6</ele>
        <time>2022-01-23T08:38:30.000Z</time>
      </trkpt>
      <trkpt lat="43.15219" lon="2.3396">
        <ele>267.6</ele>
        <time>2022-01-23T08:38:31.000Z</time>
      </trkpt>
      <trkpt lat="43.15219" lon="2.3396">
        <ele>267.6</ele>
        <time>2022-01-23T08:38:32.000Z</time>
      </trkpt>
      <trkpt lat="43.15219" lon="2.3396">
        <ele>267.6</ele>
        <time>2022-01-23T08:38:33.000Z</time>
      </trkpt>
      <trkpt lat="43.15219" lon="2.3396">
        <ele>267.6</ele>
        <time>2022-01-23T08:38:34.000Z</time>
      </trkpt>
      <trkpt lat="43.15219" lon="2.3396">
        <ele>267.6</ele>
        <time>2022-01-23T08:38:35.000Z</time>
      </trkpt>
      <trkpt lat="43.15219" lon="2.3396">
        <ele>267.6</ele>
        <time>2022-01-23T08:38:36.000Z</time>
      </trkpt>
      <trkpt lat="43.15219" lon="2.3396">
        <ele>267.6</ele>
        <time>2022-01-23T08:38:37.000Z</time>
      </trkpt>
      <trkpt lat="43.15219" lon="2.3396">
        <ele>267.6</ele>
        <time>2022-01-23T08:38:38.000Z</time>
      </trkpt>
      <trkpt lat="43.15219" lon="2.3396">
        <ele>267.6</ele>
        <time>2022-01-23T08:38:39.000Z</time>
      </trkpt>
      <trkpt lat="43.15219" lon="2.3396">
        <ele>267.6</ele>
        <time>2022-01-23T08:38:40.000Z</time>
      </trkpt>
      <trkpt lat="43.15219" lon="2.3396">
        <ele>267.6</ele>
        <time>2022-01-23T08:38:41.000Z</time>
      </trkpt>
      <trkpt lat="43.15219" lon="2.3396">
        <ele>267.6</ele>
        <time>2022-01-23T08:38:42.000Z</time>
      </trkpt>
      <trkpt lat="43.15219" lon="2.3396">
        <ele>267.6</ele>
        <time>2022-01-23T08:38:43.000Z</time>
      </trkpt>
      <trkpt lat="43.15219" lon="2.3396">
        <ele>267.6</ele>
        <time>2022-01-23T08:38:44.000Z</time>
      </trkpt>
      <trkpt lat="43.15219" lon="2.3396">
        <ele>267.6</ele>
        <time>2022-01-23T08:38:45.000Z</time>
      </trkpt>
      <trkpt lat="43.15219" lon="2.3396">
        <ele>267.6</ele>
        <time>2022-01-23T08:38:46.000Z</time>
      </trkpt>
      <trkpt lat="43.15219" lon="2.3396">
        <ele>267.6</ele>
        <time>2022-01-23T08:38:47.000Z</time>
      </trkpt>
      <trkpt lat="43.15219" lon="2.3396">
        <ele>267.6</ele>
        <time>2022-01-23T08:38:48.000Z</time>
      </trkpt>
      <trkpt lat="43.15219" lon="2.3396">
        <ele>267.6</ele>
        <time>2022-01-23T08:38:49.000Z</time>
      </trkpt>
      <trkpt lat="43.15219" lon="2.3396">
        <ele>267.6</ele>
        <time>2022-01-23T08:38:50.000Z</time>
      </trkpt>
      <trkpt lat="43.15219" lon="2.3396">
        <ele>267.6</ele>
        <time>2022-01-23T08:38:51.000Z</time>
      </trkpt>
      <trkpt lat="43.15219" lon="2.3396">
        <ele>267.6</ele>
        <time>2022-01-23T08:38:52.000Z</time>
      </trkpt>
      <trkpt lat="43.15219" lon="2.3396">
        <ele>267.6</ele>
        <time>2022-01-23T08:38:53.000Z</time>
      </trkpt>
      <trkpt lat="43.15219" lon="2.3396">
        <ele>267.6</ele>
        <time>2022-01-23T08:38:54.000Z</time>
      </trkpt>
      <trkpt lat="43.15219" lon="2.3396">
        <ele>267.6</ele>
        <time>2022-01-23T08:38:55.000Z</time>
      </trkpt>
      <trkpt lat="43.15219" lon="2.3396">
        <ele>267.6</ele>
        <time>2022-01-23T08:38:56.000Z</time>
      </trkpt>
      <trkpt lat="43.15219" lon="2.3396">
        <ele>267.6</ele>
        <time>2022-01-23T08:38:57.000Z</time>
      </trkpt>
      <trkpt lat="43.15219" lon="2.3396">
        <ele>267.6</ele>
        <time>2022-01-23T08:38:58.000Z</time>
      </trkpt>
      <trkpt lat="43.15219" lon="2.3396">
        <ele>267.6</ele>
        <time>2022-01-23T08:38:59.000Z</time>
      </trkpt>
      <trkpt lat="43.15219" lon="2.3396">
        <ele>267.6</ele>
        <time>2022-01-23T08:39:00.000Z</time>
      </trkpt>
      <trkpt lat="43.15219" lon="2.3396">
        <ele>267.6</ele>
        <time>2022-01-23T08:39:01.000Z</time>
      </trkpt>
      <trkpt lat="43.15219" lon="2.3396">
        <ele>267.6</ele>
        <time>2022-01-23T08:39:02.000Z</time>
      </trkpt>
      <trkpt lat="43.15219" lon="2.3396">
        <ele>267.6</ele>
        <time>2022-01-23T08:39:03.000Z</time>
      </trkpt>
      <trkpt lat="43.15219" lon="2.3396">
        <ele>267.6</ele>
        <time>2022-01-23T08:39:04.000Z</time>
      </trkpt>
      <trkpt lat="43.15219" lon="2.3396">
        <ele>267.6</ele>
        <time>2022-01-23T08:39:05.000Z</time>
      </trkpt>
      <trkpt lat="43.15219" lon="2.3396">
        <ele>267.6</ele>
        <time>2022-01-23T08:39:06.000Z</time>
      </trkpt>
      <trkpt lat="43.15219" lon="2.3396">
        <ele>267.6</ele>
        <time>2022-01-23T08:39:07.000Z</time>
      </trkpt>
      <trkpt lat="43.15219" lon="2.3396">
        <ele>267.6</ele>
        <time>2022-01-23T08:39:08.000Z</time>
      </trkpt>
      <trkpt lat="43.15219" lon="2.3396">
        <ele>267.6</ele>
        <time>2022-01-23T08:39:09.000Z</time>
      </trkpt>
      <trkpt lat="43.15219" lon="2.3396">
        <ele>267.6</ele>
        <time>2022-01-23T08:39:10.000Z</time>
      </trkpt>
      <trkpt lat="43.15219" lon="2.3396">
        <ele>267.6</ele>
        <time>2022-01-23T08:39:11.000Z</time>
      </trkpt>
      <trkpt lat="43.15219" lon="2.3396">
        <ele>267.6</ele>
        <time>2022-01-23T08:39:12.000Z</time>
      </trkpt>
      <trkpt lat="43.15219" lon="2.3396">
        <ele>267.6</ele>
        <time>2022-01-23T08:39:13.000Z</time>
      </trkpt>
      <trkpt lat="43.15219" lon="2.3396">
        <ele>267.6</ele>
        <time>2022-01-23T08:39:14.000Z</time>
      </trkpt>
      <trkpt lat="43.15219" lon="2.3396">
        <ele>267.6</ele>
        <time>2022-01-23T08:39:15.000Z</time>
      </trkpt>
      <trkpt lat="43.15219" lon="2.3396">
        <ele>267.6</ele>
        <time>2022-01-23T08:39:16.000Z</time>
      </trkpt>
      <trkpt lat="43.15219" lon="2.3396">
        <ele>267.6</ele>
        <time>2022-01-23T08:39:17.000Z</time>
      </trkpt>
      <trkpt lat="43.15219" lon="2.3396">
        <ele>267.6</ele>
        <time>2022-01-23T08:39:18.000Z</time>
      </trkpt>
      <trkpt lat="43.15219" lon="2.3396">
        <ele>267.6</ele>
        <time>2022-01-23T08:39:19.000Z</time>
      </trkpt>
      <trkpt lat="43.15219" lon="2.3396">
        <ele>267.6</ele>
        <time>2022-01-23T08:39:20.000Z</time>
      </trkpt>
      <trkpt lat="43.15219" lon="2.3396">
        <ele>267.6</ele>
        <time>2022-01-23T08:39:21.000Z</time>
      </trkpt>
      <trkpt lat="43.15219" lon="2.3396">
        <ele>267.6</ele>
        <time>2022-01-23T08:39:22.000Z</time>
      </trkpt>
      <trkpt lat="43.15219" lon="2.3396">
        <ele>267.6</ele>
        <time>2022-01-23T08:39:23.000Z</time>
      </trkpt>
      <trkpt lat="43.15219" lon="2.3396">
        <ele>267.6</ele>
        <time>2022-01-23T08:39:24.000Z</time>
      </trkpt>
      <trkpt lat="43.15219" lon="2.3396">
        <ele>267.6</ele>
        <time>2022-01-23T08:39:25.000Z</time>
      </trkpt>
      <trkpt lat="43.15219" lon="2.3396">
        <ele>267.6</ele>
        <time>2022-01-23T08:39:26.000Z</time>
      </trkpt>
      <trkpt lat="43.15219" lon="2.3396">
        <ele>267.6</ele>
        <time>2022-01-23T08:39:27.000Z</time>
      </trkpt>
      <trkpt lat="43.15219" lon="2.3396">
        <ele>267.6</ele>
        <time>2022-01-23T08:39:28.000Z</time>
      </trkpt>
      <trkpt lat="43.15219" lon="2.3396">
        <ele>267.6</ele>
        <time>2022-01-23T08:39:29.000Z</time>
      </trkpt>
      <trkpt lat="43.15219" lon="2.3396">
        <ele>267.6</ele>
        <time>2022-01-23T08:39:30.000Z</time>
      </trkpt>
      <trkpt lat="43.15219" lon="2.3396">
        <ele>267.6</ele>
        <time>2022-01-23T08:39:31.000Z</time>
      </trkpt>
      <trkpt lat="43.15219" lon="2.3396">
        <ele>267.6</ele>
        <time>2022-01-23T08:39:32.000Z</time>
      </trkpt>
      <trkpt lat="43.15219" lon="2.3396">
        <ele>267.6</ele>
        <time>2022-01-23T08:39:33.000Z</time>
      </trkpt>
      <trkpt lat="43.15219" lon="2.3396">
        <ele>267.6</ele>
        <time>2022-01-23T08:39:34.000Z</time>
      </trkpt>
      <trkpt lat="43.15219" lon="2.3396">
        <ele>267.6</ele>
        <time>2022-01-23T08:39:35.000Z</time>
      </trkpt>
      <trkpt lat="43.15219" lon="2.3396">
        <ele>267.6</ele>
        <time>2022-01-23T08:39:36.000Z</time>
      </trkpt>
      <trkpt lat="43.15219" lon="2.3396">
        <ele>267.6</ele>
        <time>2022-01-23T08:39:37.000Z</time>
      </trkpt>
      <trkpt lat="43.15219" lon="2.3396">
        <ele>267.6</ele>
        <time>2022-01-23T08:39:38.000Z</time>
      </trkpt>
      <trkpt lat="43.15219" lon="2.3396">
        <ele>267.6</ele>
        <time>2022-01-23T08:39:39.000Z</time>
      </trkpt>
      <trkpt lat="43.15219" lon="2.3396">
        <ele>267.6</ele>
        <time>2022-01-23T08:39:40.000Z</time>
      </trkpt>
      <trkpt lat="43.15219" lon="2.3396">
        <ele>267.6</ele>
        <time>2022-01-23T08:39:41.000Z</time>
      </trkpt>
      <trkpt lat="43.15219" lon="2.3396">
        <ele>267.6</ele>
        <time>2022-01-23T08:39:42.000Z</time>
      </trkpt>
      <trkpt lat="43.15219" lon="2.3396">
        <ele>267.6</ele>
        <time>2022-01-23T08:39:43.000Z</time>
      </trkpt>
      <trkpt lat="43.15219" lon="2.3396">
        <ele>267.6</ele>
        <time>2022-01-23T08:39:44.000Z</time>
      </trkpt>
      <trkpt lat="43.15219" lon="2.3396">
        <ele>267.6</ele>
        <time>2022-01-23T08:39:45.000Z</time>
      </trkpt>
      <trkpt lat="43.15219" lon="2.3396">
        <ele>267.6</ele>
        <time>2022-01-23T08:39:46.000Z</time>
      </trkpt>
      <trkpt lat="43.15219" lon="2.3396">
        <ele>267.6</ele>
        <time>2022-01-23T08:39:47.000Z</time>
      </trkpt>
      <trkpt lat="43.15219" lon="2.3396">
        <ele>267.6</ele>
        <time>2022-01-23T08:39:48.000Z</time>
      </trkpt>
      <trkpt lat="43.15219" lon="2.3396">
        <ele>267.6</ele>
        <time>2022-01-23T08:39:49.000Z</time>
      </trkpt>
      <trkpt lat="43.15219" lon="2.3396">
        <ele>267.6</ele>
        <time>2022-01-23T08:39:50.000Z</time>
      </trkpt>
      <trkpt lat="43.15219" lon="2.3396">
        <ele>267.6</ele>
        <time>2022-01-23T08:39:51.000Z</time>
      </trkpt>
      <trkpt lat="43.15219" lon="2.3396">
        <ele>267.6</ele>
        <time>2022-01-23T08:39:52.000Z</time>
      </trkpt>
      <trkpt lat="43.15219" lon="2.3396">
        <ele>267.6</ele>
        <time>2022-01-23T08:39:53.000Z</time>
      </trkpt>
      <trkpt lat="43.15219" lon="2.3396">
        <ele>267.6</ele>
        <time>2022-01-23T08:39:54.000Z</time>
      </trkpt>
      <trkpt lat="43.15219" lon="2.3396">
        <ele>267.6</ele>
        <time>2022-01-23T08:39:55.000Z</time>
      </trkpt>
      <trkpt lat="43.15219" lon="2.3396">
        <ele>267.6</ele>
        <time>2022-01-23T08:39:56.000Z</time>
      </trkpt>
      <trkpt lat="43.15219" lon="2.3396">
        <ele>267.6</ele>
        <time>2022-01-23T08:39:57.000Z</time>
      </trkpt>
      <trkpt lat="43.15219" lon="2.3396">
        <ele>267.6</ele>
        <time>2022-01-23T08:39:58.000Z</time>
      </trkpt>
      <trkpt lat="43.15219" lon="2.3396">
        <ele>267.6</ele>
        <time>2022-01-23T08:39:59.000Z</time>
      </trkpt>
      <trkpt lat="43.15219" lon="2.3396">
        <ele>267.6</ele>
        <time>2022-01-23T08:40:00.000Z</time>
      </trkpt>
      <trkpt lat="43.15219" lon="2.3396">
        <ele>267.6</ele>
        <time>2022-01-23T08:40:01.000Z</time>
      </trkpt>
      <trkpt lat="43.15219" lon="2.3396">
        <ele>267.6</ele>
        <time>2022-01-23T08:40:02.000Z</time>
      </trkpt>
      <trkpt lat="43.15219" lon="2.3396">
        <ele>267.6</ele>
        <time>2022-01-23T08:40:03.000Z</time>
      </trkpt>
      <trkpt lat="43.15219" lon="2.3396">
        <ele>267.6</ele>
        <time>2022-01-23T08:40:04.000Z</time>
      </trkpt>
      <trkpt lat="43.15219" lon="2.3396">
        <ele>267.6</ele>
        <time>2022-01-23T08:40:05.000Z</time>
      </trkpt>
      <trkpt lat="43.15219" lon="2.3396">
        <ele>267.6</ele>
        <time>2022-01-23T08:40:06.000Z</time>
      </trkpt>
      <trkpt lat="43.15219" lon="2.3396">
        <ele>267.6</ele>
        <time>2022-01-23T08:40:07.000Z</time>
      </trkpt>
      <trkpt lat="43.15219" lon="2.3396">
        <ele>267.6</ele>
        <time>2022-01-23T08:40:08.000Z</time>
      </trkpt>
      <trkpt lat="43.15219" lon="2.3396">
        <ele>267.6</ele>
        <time>2022-01-23T08:40:09.000Z</time>
      </trkpt>
      <trkpt lat="43.15219" lon="2.3396">
        <ele>267.6</ele>
        <time>2022-01-23T08:40:10.000Z</time>
      </trkpt>
      <trkpt lat="43.15219" lon="2.3396">
        <ele>267.6</ele>
        <time>2022-01-23T08:40:11.000Z</time>
      </trkpt>
      <trkpt lat="43.15219" lon="2.3396">
        <ele>267.6</ele>
        <time>2022-01-23T08:40:12.000Z</time>
      </trkpt>
      <trkpt lat="43.15219" lon="2.3396">
        <ele>267.6</ele>
        <time>2022-01-23T08:40:13.000Z</time>
      </trkpt>
      <trkpt lat="43.15219" lon="2.3396">
        <ele>267.6</ele>
        <time>2022-01-23T08:40:14.000Z</time>
      </trkpt>
      <trkpt lat="43.15219" lon="2.3396">
        <ele>267.6</ele>
        <time>2022-01-23T08:40:15.000Z</time>
      </trkpt>
      <trkpt lat="43.15219" lon="2.3396">
        <ele>267.6</ele>
        <time>2022-01-23T08:40:16.000Z</time>
      </trkpt>
      <trkpt lat="43.15219" lon="2.3396">
        <ele>267.6</ele>
        <time>2022-01-23T08:40:17.000Z</time>
      </trkpt>
      <trkpt lat="43.15219" lon="2.3396">
        <ele>267.6</ele>
        <time>2022-01-23T08:40:18.000Z</time>
      </trkpt>
      <trkpt lat="43.15219" lon="2.3396">
        <ele>267.6</ele>
        <time>2022-01-23T08:40:19.000Z</time>
      </trkpt>
      <trkpt lat="43.15219" lon="2.3396">
        <ele>267.6</ele>
        <time>2022-01-23T08:40:20.000Z</time>
      </trkpt>
      <trkpt lat="43.15219" lon="2.3396">
        <ele>267.6</ele>
        <time>2022-01-23T08:40:21.000Z</time>
      </trkpt>
      <trkpt lat="43.15219" lon="2.3396">
        <ele>267.6</ele>
        <time>2022-01-23T08:40:22.000Z</time>
      </trkpt>
      <trkpt lat="43.15219" lon="2.3396">
        <ele>267.6</ele>
        <time>2022-01-23T08:40:23.000Z</time>
      </trkpt>
      <trkpt lat="43.15219" lon="2.3396">
        <ele>267.6</ele>
        <time>2022-01-23T08:40:24.000Z</time>
      </trkpt>
      <trkpt lat="43.15219" lon="2.3396">
        <ele>267.6</ele>
        <time>2022-01-23T08:40:25.000Z</time>
      </trkpt>
      <trkpt lat="43.15219" lon="2.3396">
        <ele>267.6</ele>
        <time>2022-01-23T08:40:26.000Z</time>
      </trkpt>
      <trkpt lat="43.15219" lon="2.3396">
        <ele>267.6</ele>
        <time>2022-01-23T08:40:27.000Z</time>
      </trkpt>
      <trkpt lat="43.15219" lon="2.3396">
        <ele>267.6</ele>
        <time>2022-01-23T08:40:28.000Z</time>
      </trkpt>
      <trkpt lat="43.15219" lon="2.3396">
        <ele>267.6</ele>
        <time>2022-01-23T08:40:29.000Z</time>
      </trkpt>
      <trkpt lat="43.15219" lon="2.3396">
        <ele>267.6</ele>
        <time>2022-01-23T08:40:30.000Z</time>
      </trkpt>
      <trkpt lat="43.15219" lon="2.3396">
        <ele>267.6</ele>
        <time>2022-01-23T08:40:31.000Z</time>
      </trkpt>
      <trkpt lat="43.15219" lon="2.3396">
        <ele>267.6</ele>
        <time>2022-01-23T08:40:32.000Z</time>
      </trkpt>
      <trkpt lat="43.15219" lon="2.3396">
        <ele>267.6</ele>
        <time>2022-01-23T08:40:33.000Z</time>
      </trkpt>
      <trkpt lat="43.15219" lon="2.3396">
        <ele>267.6</ele>
        <time>2022-01-23T08:40:34.000Z</time>
      </trkpt>
      <trkpt lat="43.15219" lon="2.3396">
        <ele>267.6</ele>
        <time>2022-01-23T08:40:35.000Z</time>
      </trkpt>
      <trkpt lat="43.15219" lon="2.3396">
        <ele>267.6</ele>
        <time>2022-01-23T08:40:36.000Z</time>
      </trkpt>
      <trkpt lat="43.15219" lon="2.3396">
        <ele>267.6</ele>
        <time>2022-01-23T08:40:37.000Z</time>
      </trkpt>
      <trkpt lat="43.15219" lon="2.3396">
        <ele>267.6</ele>
        <time>2022-01-23T08:40:38.000Z</time>
      </trkpt>
      <trkpt lat="43.15219" lon="2.3396">
        <ele>267.6</ele>
        <time>2022-01-23T08:40:39.000Z</time>
      </trkpt>
      <trkpt lat="43.15219" lon="2.3396">
        <ele>267.6</ele>
        <time>2022-01-23T08:40:40.000Z</time>
      </trkpt>
      <trkpt lat="43.15219" lon="2.3396">
        <ele>267.6</ele>
        <time>2022-01-23T08:40:41.000Z</time>
      </trkpt>
      <trkpt lat="43.15219" lon="2.3396">
        <ele>267.6</ele>
        <time>2022-01-23T08:40:42.000Z</time>
      </trkpt>
      <trkpt lat="43.15219" lon="2.3396">
        <ele>267.6</ele>
        <time>2022-01-23T08:40:43.000Z</time>
      </trkpt>
      <trkpt lat="43.15219" lon="2.3396">
        <ele>267.6</ele>
        <time>2022-01-23T08:40:44.000Z</time>
      </trkpt>
      <trkpt lat="43.15219" lon="2.3396">
        <ele>267.6</ele>
        <time>2022-01-23T08:40:45.000Z</time>
      </trkpt>
      <trkpt lat="43.15219" lon="2.3396">
        <ele>267.6</ele>
        <time>2022-01-23T08:40:46.000Z</time>
      </trkpt>
      <trkpt lat="43.15219" lon="2.3396">
        <ele>267.6</ele>
        <time>2022-01-23T08:40:47.000Z</time>
      </trkpt>
      <trkpt lat="43.15219" lon="2.3396">
        <ele>267.6</ele>
        <time>2022-01-23T08:40:48.000Z</time>
      </trkpt>
      <trkpt lat="43.15219" lon="2.3396">
        <ele>267.6</ele>
        <time>2022-01-23T08:40:49.000Z</time>
      </trkpt>
      <trkpt lat="43.15219" lon="2.3396">
        <ele>267.6</ele>
        <time>2022-01-23T08:40:50.000Z</time>
      </trkpt>
      <trkpt lat="43.15219" lon="2.3396">
        <ele>267.6</ele>
        <time>2022-01-23T08:40:51.000Z</time>
      </trkpt>
      <trkpt lat="43.15219" lon="2.3396">
        <ele>267.6</ele>
        <time>2022-01-23T08:40:52.000Z</time>
      </trkpt>
      <trkpt lat="43.15219" lon="2.3396">
        <ele>267.6</ele>
        <time>2022-01-23T08:40:53.000Z</time>
      </trkpt>
      <trkpt lat="43.15219" lon="2.3396">
        <ele>267.6</ele>
        <time>2022-01-23T08:40:54.000Z</time>
      </trkpt>
      <trkpt lat="43.15219" lon="2.3396">
        <ele>267.6</ele>
        <time>2022-01-23T08:40:55.000Z</time>
      </trkpt>
      <trkpt lat="43.15219" lon="2.3396">
        <ele>267.6</ele>
        <time>2022-01-23T08:40:56.000Z</time>
      </trkpt>
      <trkpt lat="43.15219" lon="2.3396">
        <ele>267.6</ele>
        <time>2022-01-23T08:40:57.000Z</time>
      </trkpt>
      <trkpt lat="43.15219" lon="2.3396">
        <ele>267.6</ele>
        <time>2022-01-23T08:40:58.000Z</time>
      </trkpt>
      <trkpt lat="43.15219" lon="2.3396">
        <ele>267.6</ele>
        <time>2022-01-23T08:40:59.000Z</time>
      </trkpt>
      <trkpt lat="43.15219" lon="2.3396">
        <ele>267.6</ele>
        <time>2022-01-23T08:41:00.000Z</time>
      </trkpt>
      <trkpt lat="43.15219" lon="2.3396">
        <ele>267.6</ele>
        <time>2022-01-23T08:41:01.000Z</time>
      </trkpt>
      <trkpt lat="43.15219" lon="2.3396">
        <ele>267.6</ele>
        <time>2022-01-23T08:41:02.000Z</time>
      </trkpt>
      <trkpt lat="43.15219" lon="2.3396">
        <ele>267.6</ele>
        <time>2022-01-23T08:41:03.000Z</time>
      </trkpt>
      <trkpt lat="43.15219" lon="2.3396">
        <ele>267.6</ele>
        <time>2022-01-23T08:41:04.000Z</time>
      </trkpt>
      <trkpt lat="43.15219" lon="2.3396">
        <ele>267.6</ele>
        <time>2022-01-23T08:41:05.000Z</time>
      </trkpt>
      <trkpt lat="43.15219" lon="2.3396">
        <ele>267.6</ele>
        <time>2022-01-23T08:41:06.000Z</time>
      </trkpt>
      <trkpt lat="43.15219" lon="2.3396">
        <ele>267.6</ele>
        <time>2022-01-23T08:41:07.000Z</time>
      </trkpt>
      <trkpt lat="43.15219" lon="2.3396">
        <ele>267.6</ele>
        <time>2022-01-23T08:41:08.000Z</time>
      </trkpt>
      <trkpt lat="43.15219" lon="2.3396">
        <ele>267.6</ele>
        <time>2022-01-23T08:41:09.000Z</time>
      </trkpt>
      <trkpt lat="43.15219" lon="2.3396">
        <ele>267.6</ele>
        <time>2022-01-23T08:41:10.000Z</time>
      </trkpt>
      <trkpt lat="43.15219" lon="2.3396">
        <ele>267.6</ele>
        <time>2022-01-23T08:41:11.000Z</time>
      </trkpt>
      <trkpt lat="43.15219" lon="2.3396">
        <ele>267.6</ele>
        <time>2022-01-23T08:41:12.000Z</time>
      </trkpt>
      <trkpt lat="43.15219" lon="2.3396">
        <ele>267.6</ele>
        <time>2022-01-23T08:41:13.000Z</time>
      </trkpt>
      <trkpt lat="43.15219" lon="2.3396">
        <ele>267.6</ele>
        <time>2022-01-23T08:41:14.000Z</time>
      </trkpt>
      <trkpt lat="43.15219" lon="2.3396">
        <ele>267.6</ele>
        <time>2022-01-23T08:41:15.000Z</time>
      </trkpt>
      <trkpt lat="43.15219" lon="2.3396">
        <ele>267.6</ele>
        <time>2022-01-23T08:41:16.000Z</time>
      </trkpt>
      <trkpt lat="43.15219" lon="2.3396">
        <ele>267.6</ele>
        <time>2022-01-23T08:41:17.000Z</time>
      </trkpt>
      <trkpt lat="43.15219" lon="2.3396">
        <ele>267.6</ele>
        <time>2022-01-23T08:41:18.000Z</time>
      </trkpt>
      <trkpt lat="43.15219" lon="2.3396">
        <ele>267.6</ele>
        <time>2022-01-23T08:41:19.000Z</time>
      </trkpt>
      <trkpt lat="43.15219" lon="2.3396">
        <ele>267.6</ele>
        <time>2022-01-23T08:41:20.000Z</time>
      </trkpt>
      <trkpt lat="43.15219" lon="2.3396">
        <ele>267.6</ele>
        <time>2022-01-23T08:41:21.000Z</time>
      </trkpt>
      <trkpt lat="43.15219" lon="2.3396">
        <ele>267.6</ele>
        <time>2022-01-23T08:41:22.000Z</time>
      </trkpt>
      <trkpt lat="43.15219" lon="2.3396">
        <ele>267.6</ele>
        <time>2022-01-23T08:41:23.000Z</time>
      </trkpt>
      <trkpt lat="43.15219" lon="2.3396">
        <ele>267.6</ele>
        <time>2022-01-23T08:41:24.000Z</time>
      </trkpt>
      <trkpt lat="43.15219" lon="2.3396">
        <ele>267.6</ele>
        <time>2022-01-23T08:41:25.000Z</time>
      </trkpt>
      <trkpt lat="43.15219" lon="2.3396">
        <ele>267.6</ele>
        <time>2022-01-23T08:41:26.000Z</time>
      </trkpt>
      <trkpt lat="43.15219" lon="2.3396">
        <ele>267.6</ele>
        <time>2022-01-23T08:41:27.000Z</time>
      </trkpt>
      <trkpt lat="43.15219" lon="2.3396">
        <ele>267.6</ele>
        <time>2022-01-23T08:41:28.000Z</time>
      </trkpt>
      <trkpt lat="43.15219" lon="2.3396">
        <ele>267.6</ele>
        <time>2022-01-23T08:41:29.000Z</time>
      </trkpt>
      <trkpt lat="43.15219" lon="2.3396">
        <ele>267.6</ele>
        <time>2022-01-23T08:41:30.000Z</time>
      </trkpt>
      <trkpt lat="43.15219" lon="2.3396">
        <ele>267.6</ele>
        <time>2022-01-23T08:41:31.000Z</time>
      </trkpt>
      <trkpt lat="43.15219" lon="2.3396">
        <ele>267.6</ele>
        <time>2022-01-23T08:41:32.000Z</time>
      </trkpt>
      <trkpt lat="43.15219" lon="2.3396">
        <ele>267.6</ele>
        <time>2022-01-23T08:41:33.000Z</time>
      </trkpt>
      <trkpt lat="43.15219" lon="2.3396">
        <ele>267.6</ele>
        <time>2022-01-23T08:41:34.000Z</time>
      </trkpt>
      <trkpt lat="43.15219" lon="2.3396">
        <ele>267.6</ele>
        <time>2022-01-23T08:41:35.000Z</time>
      </trkpt>
      <trkpt lat="43.15219" lon="2.3396">
        <ele>267.6</ele>
        <time>2022-01-23T08:41:36.000Z</time>
      </trkpt>
      <trkpt lat="43.15219" lon="2.3396">
        <ele>267.6</ele>
        <time>2022-01-23T08:41:37.000Z</time>
      </trkpt>
      <trkpt lat="43.15219" lon="2.3396">
        <ele>267.6</ele>
        <time>2022-01-23T08:41:38.000Z</time>
      </trkpt>
      <trkpt lat="43.15219" lon="2.3396">
        <ele>267.6</ele>
        <time>2022-01-23T08:41:39.000Z</time>
      </trkpt>
      <trkpt lat="43.15219" lon="2.3396">
        <ele>267.6</ele>
        <time>2022-01-23T08:41:40.000Z</time>
      </trkpt>
      <trkpt lat="43.15219" lon="2.3396">
        <ele>267.6</ele>
        <time>2022-01-23T08:41:41.000Z</time>
      </trkpt>
      <trkpt lat="43.15219" lon="2.3396">
        <ele>267.6</ele>
        <time>2022-01-23T08:41:42.000Z</time>
      </trkpt>
      <trkpt lat="43.15219" lon="2.3396">
        <ele>267.6</ele>
        <time>2022-01-23T08:41:43.000Z</time>
      </trkpt>
      <trkpt lat="43.15219" lon="2.3396">
        <ele>267.6</ele>
        <time>2022-01-23T08:41:44.000Z</time>
      </trkpt>
      <trkpt lat="43.15219" lon="2.3396">
        <ele>267.6</ele>
        <time>2022-01-23T08:41:45.000Z</time>
      </trkpt>
      <trkpt lat="43.15219" lon="2.3396">
        <ele>267.6</ele>
        <time>2022-01-23T08:41:46.000Z</time>
      </trkpt>
      <trkpt lat="43.15219" lon="2.3396">
        <ele>267.6</ele>
        <time>2022-01-23T08:41:47.000Z</time>
      </trkpt>
      <trkpt lat="43.15219" lon="2.3396">
        <ele>267.6</ele>
        <time>2022-01-23T08:41:48.000Z</time>
      </trkpt>
      <trkpt lat="43.15219" lon="2.3396">
        <ele>267.6</ele>
        <time>2022-01-23T08:41:49.000Z</time>
      </trkpt>
      <trkpt lat="43.15219" lon="2.3396">
        <ele>267.6</ele>
        <time>2022-01-23T08:41:50.000Z</time>
      </trkpt>
      <trkpt lat="43.15219" lon="2.3396">
        <ele>267.6</ele>
        <time>2022-01-23T08:41:51.000Z</time>
      </trkpt>
      <trkpt lat="43.15219" lon="2.3396">
        <ele>267.6</ele>
        <time>2022-01-23T08:41:52.000Z</time>
      </trkpt>
      <trkpt lat="43.15219" lon="2.3396">
        <ele>267.6</ele>
        <time>2022-01-23T08:41:53.000Z</time>
      </trkpt>
      <trkpt lat="43.15219" lon="2.3396">
        <ele>267.6</ele>
        <time>2022-01-23T08:41:54.000Z</time>
      </trkpt>
      <trkpt lat="43.15219" lon="2.3396">
        <ele>267.6</ele>
        <time>2022-01-23T08:41:55.000Z</time>
      </trkpt>
      <trkpt lat="43.15219" lon="2.3396">
        <ele>267.6</ele>
        <time>2022-01-23T08:41:56.000Z</time>
      </trkpt>
      <trkpt lat="43.15219" lon="2.3396">
        <ele>267.6</ele>
        <time>2022-01-23T08:41:57.000Z</time>
      </trkpt>
      <trkpt lat="43.15219" lon="2.3396">
        <ele>267.6</ele>
        <time>2022-01-23T08:41:58.000Z</time>
      </trkpt>
      <trkpt lat="43.15219" lon="2.3396">
        <ele>267.6</ele>
        <time>2022-01-23T08:41:59.000Z</time>
      </trkpt>
      <trkpt lat="43.15219" lon="2.3396">
        <ele>267.6</ele>
        <time>2022-01-23T08:42:00.000Z</time>
      </trkpt>
      <trkpt lat="43.15219" lon="2.3396">
        <ele>267.6</ele>
        <time>2022-01-23T08:42:01.000Z</time>
      </trkpt>
      <trkpt lat="43.15219" lon="2.3396">
        <ele>267.6</ele>
        <time>2022-01-23T08:42:02.000Z</time>
      </trkpt>
      <trkpt lat="43.15219" lon="2.3396">
        <ele>267.6</ele>
        <time>2022-01-23T08:42:03.000Z</time>
      </trkpt>
      <trkpt lat="43.15219" lon="2.3396">
        <ele>267.6</ele>
        <time>2022-01-23T08:42:04.000Z</time>
      </trkpt>
      <trkpt lat="43.15219" lon="2.3396">
        <ele>267.6</ele>
        <time>2022-01-23T08:42:05.000Z</time>
      </trkpt>
      <trkpt lat="43.15219" lon="2.3396">
        <ele>267.6</ele>
        <time>2022-01-23T08:42:06.000Z</time>
      </trkpt>
      <trkpt lat="43.15219" lon="2.3396">
        <ele>267.6</ele>
        <time>2022-01-23T08:42:07.000Z</time>
      </trkpt>
      <trkpt lat="43.15219" lon="2.3396">
        <ele>267.6</ele>
        <time>2022-01-23T08:42:08.000Z</time>
      </trkpt>
      <trkpt lat="43.15219" lon="2.3396">
        <ele>267.6</ele>
        <time>2022-01-23T08:42:09.000Z</time>
      </trkpt>
      <trkpt lat="43.15219" lon="2.3396">
        <ele>267.6</ele>
        <time>2022-01-23T08:42:10.000Z</time>
      </trkpt>
      <trkpt lat="43.15219" lon="2.3396">
        <ele>267.6</ele>
        <time>2022-01-23T08:42:11.000Z</time>
      </trkpt>
      <trkpt lat="43.15219" lon="2.3396">
        <ele>267.6</ele>
        <time>2022-01-23T08:42:12.000Z</time>
      </trkpt>
      <trkpt lat="43.15219" lon="2.3396">
        <ele>267.6</ele>
        <time>2022-01-23T08:42:13.000Z</time>
      </trkpt>
      <trkpt lat="43.15219" lon="2.3396">
        <ele>267.6</ele>
        <time>2022-01-23T08:42:14.000Z</time>
      </trkpt>
      <trkpt lat="43.15219" lon="2.3396">
        <ele>267.6</ele>
        <time>2022-01-23T08:42:15.000Z</time>
      </trkpt>
      <trkpt lat="43.15219" lon="2.3396">
        <ele>267.6</ele>
        <time>2022-01-23T08:42:16.000Z</time>
      </trkpt>
      <trkpt lat="43.15219" lon="2.3396">
        <ele>267.6</ele>
        <time>2022-01-23T08:42:17.000Z</time>
      </trkpt>
      <trkpt lat="43.15219" lon="2.3396">
        <ele>267.6</ele>
        <time>2022-01-23T08:42:18.000Z</time>
      </trkpt>
      <trkpt lat="43.15219" lon="2.3396">
        <ele>267.6</ele>
        <time>2022-01-23T08:42:19.000Z</time>
      </trkpt>
      <trkpt lat="43.15219" lon="2.3396">
        <ele>267.6</ele>
        <time>2022-01-23T08:42:20.000Z</time>
      </trkpt>
      <trkpt lat="43.15219" lon="2.3396">
        <ele>267.6</ele>
        <time>2022-01-23T08:42:21.000Z</time>
      </trkpt>
      <trkpt lat="43.15219" lon="2.3396">
        <ele>267.6</ele>
        <time>2022-01-23T08:42:22.000Z</time>
      </trkpt>
      <trkpt lat="43.15219" lon="2.3396">
        <ele>267.6</ele>
        <time>2022-01-23T08:42:23.000Z</time>
      </trkpt>
      <trkpt lat="43.15219" lon="2.3396">
        <ele>267.6</ele>
        <time>2022-01-23T08:42:24.000Z</time>
      </trkpt>
      <trkpt lat="43.15219" lon="2.3396">
        <ele>267.6</ele>
        <time>2022-01-23T08:42:25.000Z</time>
      </trkpt>
      <trkpt lat="43.15219" lon="2.3396">
        <ele>267.6</ele>
        <time>2022-01-23T08:42:26.000Z</time>
      </trkpt>
      <trkpt lat="43.15219" lon="2.3396">
        <ele>267.6</ele>
        <time>2022-01-23T08:42:27.000Z</time>
      </trkpt>
      <trkpt lat="43.15219" lon="2.3396">
        <ele>267.6</ele>
        <time>2022-01-23T08:42:28.000Z</time>
      </trkpt>
      <trkpt lat="43.15219" lon="2.3396">
        <ele>267.6</ele>
        <time>2022-01-23T08:42:29.000Z</time>
      </trkpt>
      <trkpt lat="43.15219" lon="2.3396">
        <ele>267.6</ele>
        <time>2022-01-23T08:42:30.000Z</time>
      </trkpt>
      <trkpt lat="43.1522" lon="2.33961">
        <ele>267.6</ele>
        <time>2022-01-23T08:42:31.000Z</time>
      </trkpt>
      <trkpt lat="43.1522" lon="2.33961">
        <ele>267.6</ele>
        <time>2022-01-23T08:42:32.000Z</time>
      </trkpt>
      <trkpt lat="43.1522" lon="2.33962">
        <ele>267.6</ele>
        <time>2022-01-23T08:42:33.000Z</time>
      </trkpt>
      <trkpt lat="43.1522" lon="2.33962">
        <ele>267.6</ele>
        <time>2022-01-23T08:42:34.000Z</time>
      </trkpt>
      <trkpt lat="43.15221" lon="2.33962">
        <ele>267.6</ele>
        <time>2022-01-23T08:42:35.000Z</time>
      </trkpt>
      <trkpt lat="43.15221" lon="2.33961">
        <ele>267.7</ele>
        <time>2022-01-23T08:42:36.000Z</time>
      </trkpt>
      <trkpt lat="43.15221" lon="2.33961">
        <ele>267.7</ele>
        <time>2022-01-23T08:42:37.000Z</time>
      </trkpt>
      <trkpt lat="43.15222" lon="2.33961">
        <ele>267.7</ele>
        <time>2022-01-23T08:42:38.000Z</time>
      </trkpt>
      <trkpt lat="43.15222" lon="2.33962">
        <ele>267.7</ele>
        <time>2022-01-23T08:42:39.000Z</time>
      </trkpt>
      <trkpt lat="43.15223" lon="2.33962">
        <ele>267.7</ele>
        <time>2022-01-23T08:42:40.000Z</time>
      </trkpt>
      <trkpt lat="43.15224" lon="2.33963">
        <ele>267.7</ele>
        <time>2022-01-23T08:42:41.000Z</time>
      </trkpt>
      <trkpt lat="43.15224" lon="2.33964">
        <ele>267.8</ele>
        <time>2022-01-23T08:42:42.000Z</time>
      </trkpt>
      <trkpt lat="43.15225" lon="2.33964">
        <ele>267.8</ele>
        <time>2022-01-23T08:42:43.000Z</time>
      </trkpt>
      <trkpt lat="43.15225" lon="2.33965">
        <ele>267.8</ele>
        <time>2022-01-23T08:42:44.000Z</time>
      </trkpt>
      <trkpt lat="43.15225" lon="2.33966">
        <ele>267.8</ele>
        <time>2022-01-23T08:42:45.000Z</time>
      </trkpt>
      <trkpt lat="43.15225" lon="2.33967">
        <ele>267.8</ele>
        <time>2022-01-23T08:42:46.000Z</time>
      </trkpt>
      <trkpt lat="43.15226" lon="2.33968">
        <ele>267.8</ele>
        <time>2022-01-23T08:42:47.000Z</time>
      </trkpt>
      <trkpt lat="43.15226" lon="2.33969">
        <ele>267.8</ele>
        <time>2022-01-23T08:42:48.000Z</time>
      </trkpt>
      <trkpt lat="43.15226" lon="2.3397">
        <ele>267.8</ele>
        <time>2022-01-23T08:42:49.000Z</time>
      </trkpt>
      <trkpt lat="43.15226" lon="2.33972">
        <ele>267.8</ele>
        <time>2022-01-23T08:42:50.000Z</time>
      </trkpt>
      <trkpt lat="43.15225" lon="2.33973">
        <ele>267.8</ele>
        <time>2022-01-23T08:42:51.000Z</time>
      </trkpt>
      <trkpt lat="43.15225" lon="2.33974">
        <ele>267.8</ele>
        <time>2022-01-23T08:42:52.000Z</time>
      </trkpt>
      <trkpt lat="43.15225" lon="2.33976">
        <ele>267.9</ele>
        <time>2022-01-23T08:42:53.000Z</time>
      </trkpt>
      <trkpt lat="43.15225" lon="2.33978">
        <ele>267.9</ele>
        <time>2022-01-23T08:42:54.000Z</time>
      </trkpt>
      <trkpt lat="43.15224" lon="2.33979">
        <ele>267.9</ele>
        <time>2022-01-23T08:42:55.000Z</time>
      </trkpt>
      <trkpt lat="43.15224" lon="2.33981">
        <ele>267.9</ele>
        <time>2022-01-23T08:42:56.000Z</time>
      </trkpt>
      <trkpt lat="43.15223" lon="2.33983">
        <ele>267.9</ele>
        <time>2022-01-23T08:42:57.000Z</time>
      </trkpt>
      <trkpt lat="43.15223" lon="2.33985">
        <ele>267.9</ele>
        <time>2022-01-23T08:42:58.000Z</time>
      </trkpt>
      <trkpt lat="43.15222" lon="2.33986">
        <ele>267.9</ele>
        <time>2022-01-23T08:42:59.000Z</time>
      </trkpt>
      <trkpt lat="43.15222" lon="2.33988">
        <ele>267.9</ele>
        <time>2022-01-23T08:43:00.000Z</time>
      </trkpt>
      <trkpt lat="43.15222" lon="2.3399">
        <ele>267.9</ele>
        <time>2022-01-23T08:43:01.000Z</time>
      </trkpt>
      <trkpt lat="43.15221" lon="2.33992">
        <ele>267.9</ele>
        <time>2022-01-23T08:43:02.000Z</time>
      </trkpt>
      <trkpt lat="43.15221" lon="2.33993">
        <ele>267.9</ele>
        <time>2022-01-23T08:43:03.000Z</time>
      </trkpt>
      <trkpt lat="43.15221" lon="2.33995">
        <ele>268</ele>
        <time>2022-01-23T08:43:04.000Z</time>
      </trkpt>
      <trkpt lat="43.1522" lon="2.33997">
        <ele>268</ele>
        <time>2022-01-23T08:43:05.000Z</time>
      </trkpt>
      <trkpt lat="43.1522" lon="2.33999">
        <ele>268</ele>
        <time>2022-01-23T08:43:06.000Z</time>
      </trkpt>
      <trkpt lat="43.1522" lon="2.34">
        <ele>268</ele>
        <time>2022-01-23T08:43:07.000Z</time>
      </trkpt>
      <trkpt lat="43.1522" lon="2.34002">
        <ele>267.9</ele>
        <time>2022-01-23T08:43:08.000Z</time>
      </trkpt>
      <trkpt lat="43.15219" lon="2.34004">
        <ele>267.8</ele>
        <time>2022-01-23T08:43:09.000Z</time>
      </trkpt>
      <trkpt lat="43.15219" lon="2.34005">
        <ele>267.8</ele>
        <time>2022-01-23T08:43:10.000Z</time>
      </trkpt>
      <trkpt lat="43.15218" lon="2.34007">
        <ele>267.7</ele>
        <time>2022-01-23T08:43:11.000Z</time>
      </trkpt>
      <trkpt lat="43.15217" lon="2.34008">
        <ele>267.7</ele>
        <time>2022-01-23T08:43:12.000Z</time>
      </trkpt>
      <trkpt lat="43.15217" lon="2.34008">
        <ele>267.7</ele>
        <time>2022-01-23T08:43:13.000Z</time>
      </trkpt>
      <trkpt lat="43.15216" lon="2.34009">
        <ele>267.7</ele>
        <time>2022-01-23T08:43:14.000Z</time>
      </trkpt>
      <trkpt lat="43.15214" lon="2.34009">
        <ele>267.7</ele>
        <time>2022-01-23T08:43:15.000Z</time>
      </trkpt>
      <trkpt lat="43.15213" lon="2.3401">
        <ele>267.6</ele>
        <time>2022-01-23T08:43:16.000Z</time>
      </trkpt>
      <trkpt lat="43.15212" lon="2.34011">
        <ele>267.6</ele>
        <time>2022-01-23T08:43:17.000Z</time>
      </trkpt>
      <trkpt lat="43.15211" lon="2.34013">
        <ele>267.6</ele>
        <time>2022-01-23T08:43:18.000Z</time>
      </trkpt>
      <trkpt lat="43.1521" lon="2.34015">
        <ele>267.5</ele>
        <time>2022-01-23T08:43:19.000Z</time>
      </trkpt>
      <trkpt lat="43.1521" lon="2.34016">
        <ele>267.5</ele>
        <time>2022-01-23T08:43:20.000Z</time>
      </trkpt>
      <trkpt lat="43.15209" lon="2.34019">
        <ele>267.4</ele>
        <time>2022-01-23T08:43:21.000Z</time>
      </trkpt>
      <trkpt lat="43.15208" lon="2.34021">
        <ele>267.4</ele>
        <time>2022-01-23T08:43:22.000Z</time>
      </trkpt>
      <trkpt lat="43.15208" lon="2.34024">
        <ele>267.3</ele>
        <time>2022-01-23T08:43:23.000Z</time>
      </trkpt>
      <trkpt lat="43.15207" lon="2.34026">
        <ele>267.3</ele>
        <time>2022-01-23T08:43:24.000Z</time>
      </trkpt>
      <trkpt lat="43.15206" lon="2.34029">
        <ele>267.2</ele>
        <time>2022-01-23T08:43:25.000Z</time>
      </trkpt>
      <trkpt lat="43.15206" lon="2.34032">
        <ele>267.1</ele>
        <time>2022-01-23T08:43:26.000Z</time>
      </trkpt>
      <trkpt lat="43.15205" lon="2.34034">
        <ele>267.1</ele>
        <time>2022-01-23T08:43:27.000Z</time>
      </trkpt>
      <trkpt lat="43.15205" lon="2.34036">
        <ele>267.1</ele>
        <time>2022-01-23T08:43:28.000Z</time>
      </trkpt>
      <trkpt lat="43.15204" lon="2.34039">
        <ele>267</ele>
        <time>2022-01-23T08:43:29.000Z</time>
      </trkpt>
      <trkpt lat="43.15203" lon="2.34041">
        <ele>267</ele>
        <time>2022-01-23T08:43:30.000Z</time>
      </trkpt>
      <trkpt lat="43.15202" lon="2.34042">
        <ele>267</ele>
        <time>2022-01-23T08:43:31.000Z</time>
      </trkpt>
      <trkpt lat="43.15202" lon="2.34044">
        <ele>267</ele>
        <time>2022-01-23T08:43:32.000Z</time>
      </trkpt>
      <trkpt lat="43.15201" lon="2.34046">
        <ele>267</ele>
        <time>2022-01-23T08:43:33.000Z</time>
      </trkpt>
      <trkpt lat="43.152" lon="2.34048">
        <ele>266.9</ele>
        <time>2022-01-23T08:43:34.000Z</time>
      </trkpt>
      <trkpt lat="43.152" lon="2.3405">
        <ele>266.9</ele>
        <time>2022-01-23T08:43:35.000Z</time>
      </trkpt>
      <trkpt lat="43.15199" lon="2.34053">
        <ele>266.9</ele>
        <time>2022-01-23T08:43:36.000Z</time>
      </trkpt>
      <trkpt lat="43.15199" lon="2.34055">
        <ele>266.9</ele>
        <time>2022-01-23T08:43:37.000Z</time>
      </trkpt>
      <trkpt lat="43.15199" lon="2.34058">
        <ele>266.8</ele>
        <time>2022-01-23T08:43:38.000Z</time>
      </trkpt>
      <trkpt lat="43.15198" lon="2.34061">
        <ele>266.8</ele>
        <time>2022-01-23T08:43:39.000Z</time>
      </trkpt>
      <trkpt lat="43.15198" lon="2.34064">
        <ele>266.7</ele>
        <time>2022-01-23T08:43:40.000Z</time>
      </trkpt>
      <trkpt lat="43.15198" lon="2.34068">
        <ele>266.7</ele>
        <time>2022-01-23T08:43:41.000Z</time>
      </trkpt>
      <trkpt lat="43.15197" lon="2.34071">
        <ele>266.7</ele>
        <time>2022-01-23T08:43:42.000Z</time>
      </trkpt>
      <trkpt lat="43.15196" lon="2.34075">
        <ele>266.7</ele>
        <time>2022-01-23T08:43:43.000Z</time>
      </trkpt>
      <trkpt lat="43.15195" lon="2.34078">
        <ele>266.7</ele>
        <time>2022-01-23T08:43:44.000Z</time>
      </trkpt>
      <trkpt lat="43.15194" lon="2.34081">
        <ele>266.7</ele>
        <time>2022-01-23T08:43:45.000Z</time>
      </trkpt>
      <trkpt lat="43.15193" lon="2.34083">
        <ele>266.8</ele>
        <time>2022-01-23T08:43:46.000Z</time>
      </trkpt>
      <trkpt lat="43.15193" lon="2.34085">
        <ele>266.8</ele>
        <time>2022-01-23T08:43:47.000Z</time>
      </trkpt>
      <trkpt lat="43.15193" lon="2.34086">
        <ele>266.8</ele>
        <time>2022-01-23T08:43:48.000Z</time>
      </trkpt>
      <trkpt lat="43.15193" lon="2.34087">
        <ele>266.7</ele>
        <time>2022-01-23T08:43:49.000Z</time>
      </trkpt>
      <trkpt lat="43.15194" lon="2.34088">
        <ele>266.7</ele>
        <time>2022-01-23T08:43:50.000Z</time>
      </trkpt>
      <trkpt lat="43.15195" lon="2.3409">
        <ele>266.6</ele>
        <time>2022-01-23T08:43:51.000Z</time>
      </trkpt>
      <trkpt lat="43.15196" lon="2.34091">
        <ele>266.4</ele>
        <time>2022-01-23T08:43:52.000Z</time>
      </trkpt>
      <trkpt lat="43.15197" lon="2.34094">
        <ele>266.3</ele>
        <time>2022-01-23T08:43:53.000Z</time>
      </trkpt>
      <trkpt lat="43.15198" lon="2.34096">
        <ele>266.2</ele>
        <time>2022-01-23T08:43:54.000Z</time>
      </trkpt>
      <trkpt lat="43.15198" lon="2.34098">
        <ele>266.1</ele>
        <time>2022-01-23T08:43:55.000Z</time>
      </trkpt>
      <trkpt lat="43.15199" lon="2.341">
        <ele>266</ele>
        <time>2022-01-23T08:43:56.000Z</time>
      </trkpt>
      <trkpt lat="43.15199" lon="2.34103">
        <ele>266</ele>
        <time>2022-01-23T08:43:57.000Z</time>
      </trkpt>
      <trkpt lat="43.15199" lon="2.34105">
        <ele>266</ele>
        <time>2022-01-23T08:43:58.000Z</time>
      </trkpt>
      <trkpt lat="43.15198" lon="2.34108">
        <ele>266</ele>
        <time>2022-01-23T08:43:59.000Z</time>
      </trkpt>
      <trkpt lat="43.15198" lon="2.3411">
        <ele>266</ele>
        <time>2022-01-23T08:44:00.000Z</time>
      </trkpt>
      <trkpt lat="43.15197" lon="2.34113">
        <ele>266</ele>
        <time>2022-01-23T08:44:01.000Z</time>
      </trkpt>
      <trkpt lat="43.15196" lon="2.34115">
        <ele>266.1</ele>
        <time>2022-01-23T08:44:02.000Z</time>
      </trkpt>
      <trkpt lat="43.15195" lon="2.34118">
        <ele>266.2</ele>
        <time>2022-01-23T08:44:03.000Z</time>
      </trkpt>
      <trkpt lat="43.15194" lon="2.3412">
        <ele>266.3</ele>
        <time>2022-01-23T08:44:04.000Z</time>
      </trkpt>
      <trkpt lat="43.15193" lon="2.34122">
        <ele>266.4</ele>
        <time>2022-01-23T08:44:05.000Z</time>
      </trkpt>
      <trkpt lat="43.15191" lon="2.34124">
        <ele>266.5</ele>
        <time>2022-01-23T08:44:06.000Z</time>
      </trkpt>
      <trkpt lat="43.1519" lon="2.34126">
        <ele>266.7</ele>
        <time>2022-01-23T08:44:07.000Z</time>
      </trkpt>
      <trkpt lat="43.15189" lon="2.34128">
        <ele>266.8</ele>
        <time>2022-01-23T08:44:08.000Z</time>
      </trkpt>
      <trkpt lat="43.15187" lon="2.3413">
        <ele>267</ele>
        <time>2022-01-23T08:44:09.000Z</time>
      </trkpt>
      <trkpt lat="43.15186" lon="2.34132">
        <ele>267.1</ele>
        <time>2022-01-23T08:44:10.000Z</time>
      </trkpt>
      <trkpt lat="43.15185" lon="2.34135">
        <ele>267.3</ele>
        <time>2022-01-23T08:44:11.000Z</time>
      </trkpt>
      <trkpt lat="43.15183" lon="2.34137">
        <ele>267.5</ele>
        <time>2022-01-23T08:44:12.000Z</time>
      </trkpt>
      <trkpt lat="43.15182" lon="2.34139">
        <ele>267.7</ele>
        <time>2022-01-23T08:44:13.000Z</time>
      </trkpt>
      <trkpt lat="43.15181" lon="2.34142">
        <ele>267.8</ele>
        <time>2022-01-23T08:44:14.000Z</time>
      </trkpt>
      <trkpt lat="43.15179" lon="2.34144">
        <ele>268</ele>
        <time>2022-01-23T08:44:15.000Z</time>
      </trkpt>
      <trkpt lat="43.15178" lon="2.34147">
        <ele>268.2</ele>
        <time>2022-01-23T08:44:16.000Z</time>
      </trkpt>
      <trkpt lat="43.15177" lon="2.34149">
        <ele>268.4</ele>
        <time>2022-01-23T08:44:17.000Z</time>
      </trkpt>
      <trkpt lat="43.15175" lon="2.34151">
        <ele>268.6</ele>
        <time>2022-01-23T08:44:18.000Z</time>
      </trkpt>
      <trkpt lat="43.15174" lon="2.34153">
        <ele>268.8</ele>
        <time>2022-01-23T08:44:19.000Z</time>
      </trkpt>
      <trkpt lat="43.15173" lon="2.34156">
        <ele>269</ele>
        <time>2022-01-23T08:44:20.000Z</time>
      </trkpt>
      <trkpt lat="43.15172" lon="2.34158">
        <ele>269.2</ele>
        <time>2022-01-23T08:44:21.000Z</time>
      </trkpt>
      <trkpt lat="43.15171" lon="2.34159">
        <ele>269.3</ele>
        <time>2022-01-23T08:44:22.000Z</time>
      </trkpt>
      <trkpt lat="43.1517" lon="2.34161">
        <ele>269.5</ele>
        <time>2022-01-23T08:44:23.000Z</time>
      </trkpt>
      <trkpt lat="43.15169" lon="2.34163">
        <ele>269.6</ele>
        <time>2022-01-23T08:44:24.000Z</time>
      </trkpt>
      <trkpt lat="43.15168" lon="2.34165">
        <ele>269.8</ele>
        <time>2022-01-23T08:44:25.000Z</time>
      </trkpt>
      <trkpt lat="43.15167" lon="2.34167">
        <ele>269.8</ele>
        <time>2022-01-23T08:44:26.000Z</time>
      </trkpt>
      <trkpt lat="43.15166" lon="2.34169">
        <ele>269.6</ele>
        <time>2022-01-23T08:44:27.000Z</time>
      </trkpt>
      <trkpt lat="43.15166" lon="2.34171">
        <ele>269.2</ele>
        <time>2022-01-23T08:44:28.000Z</time>
      </trkpt>
      <trkpt lat="43.15164" lon="2.34172">
        <ele>268.7</ele>
        <time>2022-01-23T08:44:29.000Z</time>
      </trkpt>
      <trkpt lat="43.15163" lon="2.34173">
        <ele>268.3</ele>
        <time>2022-01-23T08:44:30.000Z</time>
      </trkpt>
      <trkpt lat="43.15162" lon="2.34174">
        <ele>267.9</ele>
        <time>2022-01-23T08:44:31.000Z</time>
      </trkpt>
      <trkpt lat="43.15161" lon="2.34175">
        <ele>267.6</ele>
        <time>2022-01-23T08:44:32.000Z</time>
      </trkpt>
      <trkpt lat="43.15161" lon="2.34177">
        <ele>267.3</ele>
        <time>2022-01-23T08:44:33.000Z</time>
      </trkpt>
      <trkpt lat="43.15161" lon="2.34179">
        <ele>267</ele>
        <time>2022-01-23T08:44:34.000Z</time>
      </trkpt>
      <trkpt lat="43.15161" lon="2.34182">
        <ele>266.8</ele>
        <time>2022-01-23T08:44:35.000Z</time>
      </trkpt>
      <trkpt lat="43.15161" lon="2.34185">
        <ele>266.5</ele>
        <time>2022-01-23T08:44:36.000Z</time>
      </trkpt>
      <trkpt lat="43.15162" lon="2.34187">
        <ele>266.3</ele>
        <time>2022-01-23T08:44:37.000Z</time>
      </trkpt>
      <trkpt lat="43.15162" lon="2.3419">
        <ele>266.1</ele>
        <time>2022-01-23T08:44:38.000Z</time>
      </trkpt>
      <trkpt lat="43.15162" lon="2.34193">
        <ele>265.8</ele>
        <time>2022-01-23T08:44:39.000Z</time>
      </trkpt>
      <trkpt lat="43.15162" lon="2.34195">
        <ele>265.6</ele>
        <time>2022-01-23T08:44:40.000Z</time>
      </trkpt>
      <trkpt lat="43.15162" lon="2.34198">
        <ele>265.3</ele>
        <time>2022-01-23T08:44:41.000Z</time>
      </trkpt>
      <trkpt lat="43.15162" lon="2.34201">
        <ele>264.9</ele>
        <time>2022-01-23T08:44:42.000Z</time>
      </trkpt>
      <trkpt lat="43.15162" lon="2.34204">
        <ele>264.6</ele>
        <time>2022-01-23T08:44:43.000Z</time>
      </trkpt>
      <trkpt lat="43.15161" lon="2.34206">
        <ele>264.2</ele>
        <time>2022-01-23T08:44:44.000Z</time>
      </trkpt>
      <trkpt lat="43.15161" lon="2.34209">
        <ele>263.8</ele>
        <time>2022-01-23T08:44:45.000Z</time>
      </trkpt>
      <trkpt lat="43.1516" lon="2.34212">
        <ele>263.4</ele>
        <time>2022-01-23T08:44:46.000Z</time>
      </trkpt>
      <trkpt lat="43.1516" lon="2.34214">
        <ele>263</ele>
        <time>2022-01-23T08:44:47.000Z</time>
      </trkpt>
      <trkpt lat="43.15159" lon="2.34217">
        <ele>262.7</ele>
        <time>2022-01-23T08:44:48.000Z</time>
      </trkpt>
      <trkpt lat="43.15159" lon="2.34219">
        <ele>262.4</ele>
        <time>2022-01-23T08:44:49.000Z</time>
      </trkpt>
      <trkpt lat="43.15159" lon="2.34222">
        <ele>262.1</ele>
        <time>2022-01-23T08:44:50.000Z</time>
      </trkpt>
      <trkpt lat="43.15158" lon="2.34224">
        <ele>261.7</ele>
        <time>2022-01-23T08:44:51.000Z</time>
      </trkpt>
      <trkpt lat="43.15158" lon="2.34228">
        <ele>261.4</ele>
        <time>2022-01-23T08:44:52.000Z</time>
      </trkpt>
      <trkpt lat="43.15157" lon="2.34231">
        <ele>261</ele>
        <time>2022-01-23T08:44:53.000Z</time>
      </trkpt>
      <trkpt lat="43.15157" lon="2.34234">
        <ele>260.5</ele>
        <time>2022-01-23T08:44:54.000Z</time>
      </trkpt>
      <trkpt lat="43.15156" lon="2.34237">
        <ele>260.1</ele>
        <time>2022-01-23T08:44:55.000Z</time>
      </trkpt>
      <trkpt lat="43.15155" lon="2.34239">
        <ele>259.7</ele>
        <time>2022-01-23T08:44:56.000Z</time>
      </trkpt>
      <trkpt lat="43.15153" lon="2.34241">
        <ele>259.3</ele>
        <time>2022-01-23T08:44:57.000Z</time>
      </trkpt>
      <trkpt lat="43.15151" lon="2.34243">
        <ele>259</ele>
        <time>2022-01-23T08:44:58.000Z</time>
      </trkpt>
      <trkpt lat="43.1515" lon="2.34245">
        <ele>258.6</ele>
        <time>2022-01-23T08:44:59.000Z</time>
      </trkpt>
      <trkpt lat="43.15148" lon="2.34246">
        <ele>258.3</ele>
        <time>2022-01-23T08:45:00.000Z</time>
      </trkpt>
      <trkpt lat="43.15147" lon="2.34248">
        <ele>258</ele>
        <time>2022-01-23T08:45:01.000Z</time>
      </trkpt>
      <trkpt lat="43.15146" lon="2.3425">
        <ele>257.8</ele>
        <time>2022-01-23T08:45:02.000Z</time>
      </trkpt>
      <trkpt lat="43.15145" lon="2.34252">
        <ele>257.4</ele>
        <time>2022-01-23T08:45:03.000Z</time>
      </trkpt>
      <trkpt lat="43.15144" lon="2.34254">
        <ele>257.1</ele>
        <time>2022-01-23T08:45:04.000Z</time>
      </trkpt>
      <trkpt lat="43.15143" lon="2.34257">
        <ele>256.7</ele>
        <time>2022-01-23T08:45:05.000Z</time>
      </trkpt>
      <trkpt lat="43.15143" lon="2.3426">
        <ele>256.3</ele>
        <time>2022-01-23T08:45:06.000Z</time>
      </trkpt>
      <trkpt lat="43.15142" lon="2.34263">
        <ele>255.9</ele>
        <time>2022-01-23T08:45:07.000Z</time>
      </trkpt>
      <trkpt lat="43.15141" lon="2.34266">
        <ele>255.6</ele>
        <time>2022-01-23T08:45:08.000Z</time>
      </trkpt>
      <trkpt lat="43.15141" lon="2.34269">
        <ele>255.2</ele>
        <time>2022-01-23T08:45:09.000Z</time>
      </trkpt>
      <trkpt lat="43.1514" lon="2.34272">
        <ele>254.8</ele>
        <time>2022-01-23T08:45:10.000Z</time>
      </trkpt>
      <trkpt lat="43.1514" lon="2.34275">
        <ele>254.5</ele>
        <time>2022-01-23T08:45:11.000Z</time>
      </trkpt>
      <trkpt lat="43.15139" lon="2.34278">
        <ele>254.1</ele>
        <time>2022-01-23T08:45:12.000Z</time>
      </trkpt>
      <trkpt lat="43.15138" lon="2.3428">
        <ele>253.8</ele>
        <time>2022-01-23T08:45:13.000Z</time>
      </trkpt>
      <trkpt lat="43.15137" lon="2.34283">
        <ele>253.5</ele>
        <time>2022-01-23T08:45:14.000Z</time>
      </trkpt>
      <trkpt lat="43.15136" lon="2.34285">
        <ele>253.2</ele>
        <time>2022-01-23T08:45:15.000Z</time>
      </trkpt>
      <trkpt lat="43.15135" lon="2.34288">
        <ele>253</ele>
        <time>2022-01-23T08:45:16.000Z</time>
      </trkpt>
      <trkpt lat="43.15135" lon="2.3429">
        <ele>252.7</ele>
        <time>2022-01-23T08:45:17.000Z</time>
      </trkpt>
      <trkpt lat="43.15134" lon="2.34292">
        <ele>252.5</ele>
        <time>2022-01-23T08:45:18.000Z</time>
      </trkpt>
      <trkpt lat="43.15133" lon="2.34295">
        <ele>252.2</ele>
        <time>2022-01-23T08:45:19.000Z</time>
      </trkpt>
      <trkpt lat="43.15132" lon="2.34297">
        <ele>252</ele>
        <time>2022-01-23T08:45:20.000Z</time>
      </trkpt>
      <trkpt lat="43.15132" lon="2.34299">
        <ele>251.7</ele>
        <time>2022-01-23T08:45:21.000Z</time>
      </trkpt>
      <trkpt lat="43.15131" lon="2.34302">
        <ele>251.5</ele>
        <time>2022-01-23T08:45:22.000Z</time>
      </trkpt>
      <trkpt lat="43.1513" lon="2.34305">
        <ele>251.3</ele>
        <time>2022-01-23T08:45:23.000Z</time>
      </trkpt>
      <trkpt lat="43.1513" lon="2.34307">
        <ele>251.1</ele>
        <time>2022-01-23T08:45:24.000Z</time>
      </trkpt>
      <trkpt lat="43.15129" lon="2.3431">
        <ele>250.8</ele>
        <time>2022-01-23T08:45:25.000Z</time>
      </trkpt>
      <trkpt lat="43.15128" lon="2.34312">
        <ele>250.6</ele>
        <time>2022-01-23T08:45:26.000Z</time>
      </trkpt>
      <trkpt lat="43.15127" lon="2.34314">
        <ele>250.5</ele>
        <time>2022-01-23T08:45:27.000Z</time>
      </trkpt>
      <trkpt lat="43.15125" lon="2.34316">
        <ele>250.3</ele>
        <time>2022-01-23T08:45:28.000Z</time>
      </trkpt>
      <trkpt lat="43.15124" lon="2.34318">
        <ele>250.2</ele>
        <time>2022-01-23T08:45:29.000Z</time>
      </trkpt>
      <trkpt lat="43.15122" lon="2.3432">
        <ele>250.1</ele>
        <time>2022-01-23T08:45:30.000Z</time>
      </trkpt>
      <trkpt lat="43.1512" lon="2.34322">
        <ele>250</ele>
        <time>2022-01-23T08:45:31.000Z</time>
      </trkpt>
      <trkpt lat="43.15118" lon="2.34324">
        <ele>249.9</ele>
        <time>2022-01-23T08:45:32.000Z</time>
      </trkpt>
      <trkpt lat="43.15116" lon="2.34326">
        <ele>249.9</ele>
        <time>2022-01-23T08:45:33.000Z</time>
      </trkpt>
      <trkpt lat="43.15115" lon="2.34328">
        <ele>249.8</ele>
        <time>2022-01-23T08:45:34.000Z</time>
      </trkpt>
      <trkpt lat="43.15113" lon="2.34331">
        <ele>249.7</ele>
        <time>2022-01-23T08:45:35.000Z</time>
      </trkpt>
      <trkpt lat="43.15111" lon="2.34333">
        <ele>249.7</ele>
        <time>2022-01-23T08:45:36.000Z</time>
      </trkpt>
      <trkpt lat="43.15109" lon="2.34336">
        <ele>249.4</ele>
        <time>2022-01-23T08:45:37.000Z</time>
      </trkpt>
      <trkpt lat="43.15108" lon="2.34339">
        <ele>249.1</ele>
        <time>2022-01-23T08:45:38.000Z</time>
      </trkpt>
      <trkpt lat="43.15106" lon="2.34343">
        <ele>248.7</ele>
        <time>2022-01-23T08:45:39.000Z</time>
      </trkpt>
      <trkpt lat="43.15105" lon="2.34346">
        <ele>248.4</ele>
        <time>2022-01-23T08:45:40.000Z</time>
      </trkpt>
      <trkpt lat="43.15104" lon="2.34349">
        <ele>248</ele>
        <time>2022-01-23T08:45:41.000Z</time>
      </trkpt>
      <trkpt lat="43.15103" lon="2.34352">
        <ele>247.7</ele>
        <time>2022-01-23T08:45:42.000Z</time>
      </trkpt>
      <trkpt lat="43.15103" lon="2.34355">
        <ele>247.5</ele>
        <time>2022-01-23T08:45:43.000Z</time>
      </trkpt>
      <trkpt lat="43.15103" lon="2.34357">
        <ele>247.2</ele>
        <time>2022-01-23T08:45:44.000Z</time>
      </trkpt>
      <trkpt lat="43.15103" lon="2.34359">
        <ele>246.9</ele>
        <time>2022-01-23T08:45:45.000Z</time>
      </trkpt>
      <trkpt lat="43.15102" lon="2.34362">
        <ele>246.6</ele>
        <time>2022-01-23T08:45:46.000Z</time>
      </trkpt>
      <trkpt lat="43.15102" lon="2.34365">
        <ele>246.3</ele>
        <time>2022-01-23T08:45:47.000Z</time>
      </trkpt>
      <trkpt lat="43.15101" lon="2.34369">
        <ele>245.9</ele>
        <time>2022-01-23T08:45:48.000Z</time>
      </trkpt>
      <trkpt lat="43.151" lon="2.34372">
        <ele>245.6</ele>
        <time>2022-01-23T08:45:49.000Z</time>
      </trkpt>
      <trkpt lat="43.15099" lon="2.34376">
        <ele>245.3</ele>
        <time>2022-01-23T08:45:50.000Z</time>
      </trkpt>
      <trkpt lat="43.15098" lon="2.3438">
        <ele>245.1</ele>
        <time>2022-01-23T08:45:51.000Z</time>
      </trkpt>
      <trkpt lat="43.15096" lon="2.34383">
        <ele>245</ele>
        <time>2022-01-23T08:45:52.000Z</time>
      </trkpt>
      <trkpt lat="43.15095" lon="2.34385">
        <ele>244.9</ele>
        <time>2022-01-23T08:45:53.000Z</time>
      </trkpt>
      <trkpt lat="43.15093" lon="2.34387">
        <ele>244.9</ele>
        <time>2022-01-23T08:45:54.000Z</time>
      </trkpt>
      <trkpt lat="43.15091" lon="2.34389">
        <ele>245.1</ele>
        <time>2022-01-23T08:45:55.000Z</time>
      </trkpt>
      <trkpt lat="43.15089" lon="2.3439">
        <ele>245.2</ele>
        <time>2022-01-23T08:45:56.000Z</time>
      </trkpt>
      <trkpt lat="43.15088" lon="2.34391">
        <ele>245.4</ele>
        <time>2022-01-23T08:45:57.000Z</time>
      </trkpt>
      <trkpt lat="43.15086" lon="2.34392">
        <ele>245.7</ele>
        <time>2022-01-23T08:45:58.000Z</time>
      </trkpt>
      <trkpt lat="43.15084" lon="2.34393">
        <ele>245.8</ele>
        <time>2022-01-23T08:45:59.000Z</time>
      </trkpt>
      <trkpt lat="43.15082" lon="2.34395">
        <ele>245.6</ele>
        <time>2022-01-23T08:46:00.000Z</time>
      </trkpt>
      <trkpt lat="43.15081" lon="2.34397">
        <ele>245.2</ele>
        <time>2022-01-23T08:46:01.000Z</time>
      </trkpt>
      <trkpt lat="43.1508" lon="2.344">
        <ele>244.7</ele>
        <time>2022-01-23T08:46:02.000Z</time>
      </trkpt>
      <trkpt lat="43.15079" lon="2.34403">
        <ele>244.3</ele>
        <time>2022-01-23T08:46:03.000Z</time>
      </trkpt>
      <trkpt lat="43.15078" lon="2.34406">
        <ele>243.9</ele>
        <time>2022-01-23T08:46:04.000Z</time>
      </trkpt>
      <trkpt lat="43.15077" lon="2.34409">
        <ele>243.5</ele>
        <time>2022-01-23T08:46:05.000Z</time>
      </trkpt>
      <trkpt lat="43.15076" lon="2.34412">
        <ele>243.1</ele>
        <time>2022-01-23T08:46:06.000Z</time>
      </trkpt>
      <trkpt lat="43.15076" lon="2.34415">
        <ele>242.8</ele>
        <time>2022-01-23T08:46:07.000Z</time>
      </trkpt>
      <trkpt lat="43.15075" lon="2.34417">
        <ele>242.4</ele>
        <time>2022-01-23T08:46:08.000Z</time>
      </trkpt>
      <trkpt lat="43.15074" lon="2.3442">
        <ele>241.6</ele>
        <time>2022-01-23T08:46:09.000Z</time>
      </trkpt>
      <trkpt lat="43.15074" lon="2.34422">
        <ele>240.9</ele>
        <time>2022-01-23T08:46:10.000Z</time>
      </trkpt>
      <trkpt lat="43.15073" lon="2.34425">
        <ele>240.2</ele>
        <time>2022-01-23T08:46:11.000Z</time>
      </trkpt>
      <trkpt lat="43.15072" lon="2.34427">
        <ele>239.5</ele>
        <time>2022-01-23T08:46:12.000Z</time>
      </trkpt>
      <trkpt lat="43.15071" lon="2.34429">
        <ele>238.8</ele>
        <time>2022-01-23T08:46:13.000Z</time>
      </trkpt>
      <trkpt lat="43.1507" lon="2.34431">
        <ele>238.1</ele>
        <time>2022-01-23T08:46:14.000Z</time>
      </trkpt>
      <trkpt lat="43.15069" lon="2.34433">
        <ele>237.6</ele>
        <time>2022-01-23T08:46:15.000Z</time>
      </trkpt>
      <trkpt lat="43.15068" lon="2.34435">
        <ele>237</ele>
        <time>2022-01-23T08:46:16.000Z</time>
      </trkpt>
      <trkpt lat="43.15067" lon="2.34436">
        <ele>236.6</ele>
        <time>2022-01-23T08:46:17.000Z</time>
      </trkpt>
      <trkpt lat="43.15066" lon="2.34437">
        <ele>236.2</ele>
        <time>2022-01-23T08:46:18.000Z</time>
      </trkpt>
      <trkpt lat="43.15065" lon="2.34438">
        <ele>235.9</ele>
        <time>2022-01-23T08:46:19.000Z</time>
      </trkpt>
      <trkpt lat="43.15064" lon="2.34439">
        <ele>235.7</ele>
        <time>2022-01-23T08:46:20.000Z</time>
      </trkpt>
      <trkpt lat="43.15063" lon="2.34439">
        <ele>235.5</ele>
        <time>2022-01-23T08:46:21.000Z</time>
      </trkpt>
      <trkpt lat="43.15062" lon="2.34439">
        <ele>235.4</ele>
        <time>2022-01-23T08:46:22.000Z</time>
      </trkpt>
      <trkpt lat="43.15062" lon="2.34439">
        <ele>235.2</ele>
        <time>2022-01-23T08:46:23.000Z</time>
      </trkpt>
      <trkpt lat="43.15061" lon="2.3444">
        <ele>235</ele>
        <time>2022-01-23T08:46:24.000Z</time>
      </trkpt>
      <trkpt lat="43.1506" lon="2.34441">
        <ele>234.7</ele>
        <time>2022-01-23T08:46:25.000Z</time>
      </trkpt>
      <trkpt lat="43.15058" lon="2.34443">
        <ele>234.2</ele>
        <time>2022-01-23T08:46:26.000Z</time>
      </trkpt>
      <trkpt lat="43.15057" lon="2.34445">
        <ele>233.6</ele>
        <time>2022-01-23T08:46:27.000Z</time>
      </trkpt>
      <trkpt lat="43.15056" lon="2.34447">
        <ele>233</ele>
        <time>2022-01-23T08:46:28.000Z</time>
      </trkpt>
      <trkpt lat="43.15055" lon="2.3445">
        <ele>232.4</ele>
        <time>2022-01-23T08:46:29.000Z</time>
      </trkpt>
      <trkpt lat="43.15054" lon="2.34452">
        <ele>231.8</ele>
        <time>2022-01-23T08:46:30.000Z</time>
      </trkpt>
      <trkpt lat="43.15054" lon="2.34455">
        <ele>231.3</ele>
        <time>2022-01-23T08:46:31.000Z</time>
      </trkpt>
      <trkpt lat="43.15054" lon="2.34457">
        <ele>230.8</ele>
        <time>2022-01-23T08:46:32.000Z</time>
      </trkpt>
      <trkpt lat="43.15053" lon="2.3446">
        <ele>230.3</ele>
        <time>2022-01-23T08:46:33.000Z</time>
      </trkpt>
      <trkpt lat="43.15053" lon="2.34462">
        <ele>229.9</ele>
        <time>2022-01-23T08:46:34.000Z</time>
      </trkpt>
      <trkpt lat="43.15052" lon="2.34463">
        <ele>229.5</ele>
        <time>2022-01-23T08:46:35.000Z</time>
      </trkpt>
      <trkpt lat="43.15051" lon="2.34465">
        <ele>229.2</ele>
        <time>2022-01-23T08:46:36.000Z</time>
      </trkpt>
      <trkpt lat="43.1505" lon="2.34466">
        <ele>228.9</ele>
        <time>2022-01-23T08:46:37.000Z</time>
      </trkpt>
      <trkpt lat="43.15049" lon="2.34468">
        <ele>228.5</ele>
        <time>2022-01-23T08:46:38.000Z</time>
      </trkpt>
      <trkpt lat="43.15048" lon="2.3447">
        <ele>228.1</ele>
        <time>2022-01-23T08:46:39.000Z</time>
      </trkpt>
      <trkpt lat="43.15047" lon="2.34472">
        <ele>227.7</ele>
        <time>2022-01-23T08:46:40.000Z</time>
      </trkpt>
      <trkpt lat="43.15046" lon="2.34475">
        <ele>227.3</ele>
        <time>2022-01-23T08:46:41.000Z</time>
      </trkpt>
      <trkpt lat="43.15045" lon="2.34477">
        <ele>226.8</ele>
        <time>2022-01-23T08:46:42.000Z</time>
      </trkpt>
      <trkpt lat="43.15044" lon="2.3448">
        <ele>226.3</ele>
        <time>2022-01-23T08:46:43.000Z</time>
      </trkpt>
      <trkpt lat="43.15044" lon="2.34483">
        <ele>225.8</ele>
        <time>2022-01-23T08:46:44.000Z</time>
      </trkpt>
      <trkpt lat="43.15043" lon="2.34486">
        <ele>225.4</ele>
        <time>2022-01-23T08:46:45.000Z</time>
      </trkpt>
      <trkpt lat="43.15042" lon="2.34488">
        <ele>225</ele>
        <time>2022-01-23T08:46:46.000Z</time>
      </trkpt>
      <trkpt lat="43.15041" lon="2.34491">
        <ele>224.6</ele>
        <time>2022-01-23T08:46:47.000Z</time>
      </trkpt>
      <trkpt lat="43.1504" lon="2.34493">
        <ele>224.3</ele>
        <time>2022-01-23T08:46:48.000Z</time>
      </trkpt>
      <trkpt lat="43.15038" lon="2.34495">
        <ele>224</ele>
        <time>2022-01-23T08:46:49.000Z</time>
      </trkpt>
      <trkpt lat="43.15037" lon="2.34498">
        <ele>223.7</ele>
        <time>2022-01-23T08:46:50.000Z</time>
      </trkpt>
      <trkpt lat="43.15036" lon="2.345">
        <ele>223.4</ele>
        <time>2022-01-23T08:46:51.000Z</time>
      </trkpt>
      <trkpt lat="43.15035" lon="2.34502">
        <ele>223</ele>
        <time>2022-01-23T08:46:52.000Z</time>
      </trkpt>
      <trkpt lat="43.15034" lon="2.34504">
        <ele>222.5</ele>
        <time>2022-01-23T08:46:53.000Z</time>
      </trkpt>
      <trkpt lat="43.15032" lon="2.34506">
        <ele>222</ele>
        <time>2022-01-23T08:46:54.000Z</time>
      </trkpt>
      <trkpt lat="43.15031" lon="2.34508">
        <ele>221.5</ele>
        <time>2022-01-23T08:46:55.000Z</time>
      </trkpt>
      <trkpt lat="43.1503" lon="2.3451">
        <ele>221</ele>
        <time>2022-01-23T08:46:56.000Z</time>
      </trkpt>
      <trkpt lat="43.15029" lon="2.34512">
        <ele>220.5</ele>
        <time>2022-01-23T08:46:57.000Z</time>
      </trkpt>
      <trkpt lat="43.15028" lon="2.34515">
        <ele>220</ele>
        <time>2022-01-23T08:46:58.000Z</time>
      </trkpt>
      <trkpt lat="43.15027" lon="2.34517">
        <ele>219.5</ele>
        <time>2022-01-23T08:46:59.000Z</time>
      </trkpt>
      <trkpt lat="43.15026" lon="2.34519">
        <ele>219</ele>
        <time>2022-01-23T08:47:00.000Z</time>
      </trkpt>
      <trkpt lat="43.15025" lon="2.34521">
        <ele>218.5</ele>
        <time>2022-01-23T08:47:01.000Z</time>
      </trkpt>
      <trkpt lat="43.15024" lon="2.34523">
        <ele>218</ele>
        <time>2022-01-23T08:47:02.000Z</time>
      </trkpt>
      <trkpt lat="43.15023" lon="2.34525">
        <ele>217.6</ele>
        <time>2022-01-23T08:47:03.000Z</time>
      </trkpt>
      <trkpt lat="43.15022" lon="2.34528">
        <ele>217.1</ele>
        <time>2022-01-23T08:47:04.000Z</time>
      </trkpt>
      <trkpt lat="43.15021" lon="2.3453">
        <ele>216.7</ele>
        <time>2022-01-23T08:47:05.000Z</time>
      </trkpt>
      <trkpt lat="43.15019" lon="2.34532">
        <ele>216.3</ele>
        <time>2022-01-23T08:47:06.000Z</time>
      </trkpt>
      <trkpt lat="43.15018" lon="2.34534">
        <ele>215.9</ele>
        <time>2022-01-23T08:47:07.000Z</time>
      </trkpt>
      <trkpt lat="43.15017" lon="2.34536">
        <ele>215.5</ele>
        <time>2022-01-23T08:47:08.000Z</time>
      </trkpt>
      <trkpt lat="43.15015" lon="2.34538">
        <ele>215.2</ele>
        <time>2022-01-23T08:47:09.000Z</time>
      </trkpt>
      <trkpt lat="43.15014" lon="2.3454">
        <ele>214.9</ele>
        <time>2022-01-23T08:47:10.000Z</time>
      </trkpt>
      <trkpt lat="43.15012" lon="2.34541">
        <ele>214.7</ele>
        <time>2022-01-23T08:47:11.000Z</time>
      </trkpt>
      <trkpt lat="43.1501" lon="2.34543">
        <ele>214.6</ele>
        <time>2022-01-23T08:47:12.000Z</time>
      </trkpt>
      <trkpt lat="43.15008" lon="2.34544">
        <ele>214.5</ele>
        <time>2022-01-23T08:47:13.000Z</time>
      </trkpt>
      <trkpt lat="43.15006" lon="2.34545">
        <ele>214.5</ele>
        <time>2022-01-23T08:47:14.000Z</time>
      </trkpt>
      <trkpt lat="43.15004" lon="2.34545">
        <ele>214.7</ele>
        <time>2022-01-23T08:47:15.000Z</time>
      </trkpt>
      <trkpt lat="43.15002" lon="2.34545">
        <ele>214.9</ele>
        <time>2022-01-23T08:47:16.000Z</time>
      </trkpt>
      <trkpt lat="43.15" lon="2.34545">
        <ele>215.2</ele>
        <time>2022-01-23T08:47:17.000Z</time>
      </trkpt>
      <trkpt lat="43.14998" lon="2.34544">
        <ele>215.4</ele>
        <time>2022-01-23T08:47:18.000Z</time>
      </trkpt>
      <trkpt lat="43.14996" lon="2.34543">
        <ele>215.7</ele>
        <time>2022-01-23T08:47:19.000Z</time>
      </trkpt>
      <trkpt lat="43.14994" lon="2.34542">
        <ele>216.1</ele>
        <time>2022-01-23T08:47:20.000Z</time>
      </trkpt>
      <trkpt lat="43.14992" lon="2.3454">
        <ele>216.5</ele>
        <time>2022-01-23T08:47:21.000Z</time>
      </trkpt>
      <trkpt lat="43.1499" lon="2.34537">
        <ele>217.1</ele>
        <time>2022-01-23T08:47:22.000Z</time>
      </trkpt>
      <trkpt lat="43.14988" lon="2.34534">
        <ele>217.7</ele>
        <time>2022-01-23T08:47:23.000Z</time>
      </trkpt>
      <trkpt lat="43.14987" lon="2.34532">
        <ele>218.3</ele>
        <time>2022-01-23T08:47:24.000Z</time>
      </trkpt>
      <trkpt lat="43.14985" lon="2.34529">
        <ele>218.9</ele>
        <time>2022-01-23T08:47:25.000Z</time>
      </trkpt>
      <trkpt lat="43.14983" lon="2.34526">
        <ele>219.5</ele>
        <time>2022-01-23T08:47:26.000Z</time>
      </trkpt>
      <trkpt lat="43.14982" lon="2.34524">
        <ele>219.9</ele>
        <time>2022-01-23T08:47:27.000Z</time>
      </trkpt>
      <trkpt lat="43.1498" lon="2.34523">
        <ele>220.2</ele>
        <time>2022-01-23T08:47:28.000Z</time>
      </trkpt>
      <trkpt lat="43.14979" lon="2.34521">
        <ele>220.5</ele>
        <time>2022-01-23T08:47:29.000Z</time>
      </trkpt>
      <trkpt lat="43.14978" lon="2.3452">
        <ele>220.7</ele>
        <time>2022-01-23T08:47:30.000Z</time>
      </trkpt>
      <trkpt lat="43.14976" lon="2.34519">
        <ele>220.8</ele>
        <time>2022-01-23T08:47:31.000Z</time>
      </trkpt>
      <trkpt lat="43.14975" lon="2.34518">
        <ele>221</ele>
        <time>2022-01-23T08:47:32.000Z</time>
      </trkpt>
      <trkpt lat="43.14974" lon="2.34518">
        <ele>221.1</ele>
        <time>2022-01-23T08:47:33.000Z</time>
      </trkpt>
      <trkpt lat="43.14973" lon="2.34517">
        <ele>221.3</ele>
        <time>2022-01-23T08:47:34.000Z</time>
      </trkpt>
      <trkpt lat="43.14972" lon="2.34516">
        <ele>221.4</ele>
        <time>2022-01-23T08:47:35.000Z</time>
      </trkpt>
      <trkpt lat="43.14972" lon="2.34516">
        <ele>221.5</ele>
        <time>2022-01-23T08:47:36.000Z</time>
      </trkpt>
      <trkpt lat="43.14971" lon="2.34515">
        <ele>221.6</ele>
        <time>2022-01-23T08:47:37.000Z</time>
      </trkpt>
      <trkpt lat="43.1497" lon="2.34514">
        <ele>221.8</ele>
        <time>2022-01-23T08:47:38.000Z</time>
      </trkpt>
      <trkpt lat="43.1497" lon="2.34513">
        <ele>221.9</ele>
        <time>2022-01-23T08:47:39.000Z</time>
      </trkpt>
      <trkpt lat="43.1497" lon="2.34512">
        <ele>222.1</ele>
        <time>2022-01-23T08:47:40.000Z</time>
      </trkpt>
      <trkpt lat="43.1497" lon="2.34511">
        <ele>222.3</ele>
        <time>2022-01-23T08:47:41.000Z</time>
      </trkpt>
      <trkpt lat="43.1497" lon="2.3451">
        <ele>222.5</ele>
        <time>2022-01-23T08:47:42.000Z</time>
      </trkpt>
      <trkpt lat="43.1497" lon="2.34509">
        <ele>222.7</ele>
        <time>2022-01-23T08:47:43.000Z</time>
      </trkpt>
      <trkpt lat="43.1497" lon="2.34509">
        <ele>222.8</ele>
        <time>2022-01-23T08:47:44.000Z</time>
      </trkpt>
      <trkpt lat="43.1497" lon="2.34508">
        <ele>223</ele>
        <time>2022-01-23T08:47:45.000Z</time>
      </trkpt>
      <trkpt lat="43.1497" lon="2.34507">
        <ele>223.2</ele>
        <time>2022-01-23T08:47:46.000Z</time>
      </trkpt>
      <trkpt lat="43.1497" lon="2.34506">
        <ele>223.3</ele>
        <time>2022-01-23T08:47:47.000Z</time>
      </trkpt>
      <trkpt lat="43.1497" lon="2.34506">
        <ele>223.4</ele>
        <time>2022-01-23T08:47:48.000Z</time>
      </trkpt>
      <trkpt lat="43.1497" lon="2.34505">
        <ele>223.5</ele>
        <time>2022-01-23T08:47:49.000Z</time>
      </trkpt>
      <trkpt lat="43.1497" lon="2.34505">
        <ele>223.5</ele>
        <time>2022-01-23T08:47:50.000Z</time>
      </trkpt>
      <trkpt lat="43.1497" lon="2.34505">
        <ele>223.6</ele>
        <time>2022-01-23T08:47:51.000Z</time>
      </trkpt>
      <trkpt lat="43.1497" lon="2.34505">
        <ele>223.6</ele>
        <time>2022-01-23T08:47:52.000Z</time>
      </trkpt>
      <trkpt lat="43.1497" lon="2.34505">
        <ele>223.6</ele>
        <time>2022-01-23T08:47:53.000Z</time>
      </trkpt>
      <trkpt lat="43.1497" lon="2.34505">
        <ele>223.6</ele>
        <time>2022-01-23T08:47:54.000Z</time>
      </trkpt>
      <trkpt lat="43.1497" lon="2.34505">
        <ele>223.6</ele>
        <time>2022-01-23T08:47:55.000Z</time>
      </trkpt>
      <trkpt lat="43.1497" lon="2.34505">
        <ele>223.6</ele>
        <time>2022-01-23T08:47:56.000Z</time>
      </trkpt>
      <trkpt lat="43.1497" lon="2.34505">
        <ele>223.6</ele>
        <time>2022-01-23T08:47:57.000Z</time>
      </trkpt>
      <trkpt lat="43.1497" lon="2.34505">
        <ele>223.6</ele>
        <time>2022-01-23T08:47:58.000Z</time>
      </trkpt>
      <trkpt lat="43.1497" lon="2.34505">
        <ele>223.6</ele>
        <time>2022-01-23T08:47:59.000Z</time>
      </trkpt>
      <trkpt lat="43.1497" lon="2.34505">
        <ele>223.6</ele>
        <time>2022-01-23T08:48:00.000Z</time>
      </trkpt>
      <trkpt lat="43.1497" lon="2.34505">
        <ele>223.6</ele>
        <time>2022-01-23T08:48:01.000Z</time>
      </trkpt>
      <trkpt lat="43.1497" lon="2.34505">
        <ele>223.6</ele>
        <time>2022-01-23T08:48:02.000Z</time>
      </trkpt>
      <trkpt lat="43.1497" lon="2.34505">
        <ele>223.6</ele>
        <time>2022-01-23T08:48:03.000Z</time>
      </trkpt>
      <trkpt lat="43.1497" lon="2.34505">
        <ele>223.6</ele>
        <time>2022-01-23T08:48:04.000Z</time>
      </trkpt>
      <trkpt lat="43.1497" lon="2.34505">
        <ele>223.6</ele>
        <time>2022-01-23T08:48:05.000Z</time>
      </trkpt>
      <trkpt lat="43.1497" lon="2.34505">
        <ele>223.6</ele>
        <time>2022-01-23T08:48:06.000Z</time>
      </trkpt>
      <trkpt lat="43.1497" lon="2.34505">
        <ele>223.6</ele>
        <time>2022-01-23T08:48:07.000Z</time>
      </trkpt>
      <trkpt lat="43.1497" lon="2.34505">
        <ele>223.6</ele>
        <time>2022-01-23T08:48:08.000Z</time>
      </trkpt>
      <trkpt lat="43.1497" lon="2.34505">
        <ele>223.6</ele>
        <time>2022-01-23T08:48:09.000Z</time>
      </trkpt>
      <trkpt lat="43.1497" lon="2.34505">
        <ele>223.6</ele>
        <time>2022-01-23T08:48:10.000Z</time>
      </trkpt>
      <trkpt lat="43.1497" lon="2.34505">
        <ele>223.6</ele>
        <time>2022-01-23T08:48:11.000Z</time>
      </trkpt>
      <trkpt lat="43.1497" lon="2.34505">
        <ele>223.6</ele>
        <time>2022-01-23T08:48:12.000Z</time>
      </trkpt>
      <trkpt lat="43.1497" lon="2.34505">
        <ele>223.6</ele>
        <time>2022-01-23T08:48:13.000Z</time>
      </trkpt>
      <trkpt lat="43.1497" lon="2.34505">
        <ele>223.6</ele>
        <time>2022-01-23T08:48:14.000Z</time>
      </trkpt>
      <trkpt lat="43.1497" lon="2.34505">
        <ele>223.6</ele>
        <time>2022-01-23T08:48:15.000Z</time>
      </trkpt>
      <trkpt lat="43.1497" lon="2.34505">
        <ele>223.6</ele>
        <time>2022-01-23T08:48:16.000Z</time>
      </trkpt>
      <trkpt lat="43.1497" lon="2.34505">
        <ele>223.6</ele>
        <time>2022-01-23T08:48:17.000Z</time>
      </trkpt>
      <trkpt lat="43.1497" lon="2.34505">
        <ele>223.6</ele>
        <time>2022-01-23T08:48:18.000Z</time>
      </trkpt>
      <trkpt lat="43.1497" lon="2.34505">
        <ele>223.6</ele>
        <time>2022-01-23T08:48:19.000Z</time>
      </trkpt>
      <trkpt lat="43.1497" lon="2.34505">
        <ele>223.6</ele>
        <time>2022-01-23T08:48:20.000Z</time>
      </trkpt>
      <trkpt lat="43.1497" lon="2.34505">
        <ele>223.6</ele>
        <time>2022-01-23T08:48:21.000Z</time>
      </trkpt>
      <trkpt lat="43.1497" lon="2.34505">
        <ele>223.6</ele>
        <time>2022-01-23T08:48:22.000Z</time>
      </trkpt>
      <trkpt lat="43.1497" lon="2.34505">
        <ele>223.6</ele>
        <time>2022-01-23T08:48:23.000Z</time>
      </trkpt>
      <trkpt lat="43.1497" lon="2.34505">
        <ele>223.6</ele>
        <time>2022-01-23T08:48:24.000Z</time>
      </trkpt>
      <trkpt lat="43.1497" lon="2.34505">
        <ele>223.6</ele>
        <time>2022-01-23T08:48:25.000Z</time>
      </trkpt>
      <trkpt lat="43.1497" lon="2.34505">
        <ele>223.6</ele>
        <time>2022-01-23T08:48:26.000Z</time>
      </trkpt>
      <trkpt lat="43.1497" lon="2.34505">
        <ele>223.6</ele>
        <time>2022-01-23T08:48:27.000Z</time>
      </trkpt>
      <trkpt lat="43.1497" lon="2.34505">
        <ele>223.6</ele>
        <time>2022-01-23T08:48:28.000Z</time>
      </trkpt>
      <trkpt lat="43.1497" lon="2.34505">
        <ele>223.6</ele>
        <time>2022-01-23T08:48:29.000Z</time>
      </trkpt>
      <trkpt lat="43.1497" lon="2.34505">
        <ele>223.6</ele>
        <time>2022-01-23T08:48:30.000Z</time>
      </trkpt>
      <trkpt lat="43.1497" lon="2.34505">
        <ele>223.6</ele>
        <time>2022-01-23T08:48:31.000Z</time>
      </trkpt>
      <trkpt lat="43.1497" lon="2.34505">
        <ele>223.6</ele>
        <time>2022-01-23T08:48:32.000Z</time>
      </trkpt>
      <trkpt lat="43.1497" lon="2.34505">
        <ele>223.6</ele>
        <time>2022-01-23T08:48:33.000Z</time>
      </trkpt>
      <trkpt lat="43.1497" lon="2.34505">
        <ele>223.6</ele>
        <time>2022-01-23T08:48:34.000Z</time>
      </trkpt>
      <trkpt lat="43.1497" lon="2.34505">
        <ele>223.6</ele>
        <time>2022-01-23T08:48:35.000Z</time>
      </trkpt>
      <trkpt lat="43.1497" lon="2.34505">
        <ele>223.5</ele>
        <time>2022-01-23T08:48:36.000Z</time>
      </trkpt>
      <trkpt lat="43.1497" lon="2.34505">
        <ele>223.5</ele>
        <time>2022-01-23T08:48:37.000Z</time>
      </trkpt>
      <trkpt lat="43.14971" lon="2.34505">
        <ele>223.5</ele>
        <time>2022-01-23T08:48:38.000Z</time>
      </trkpt>
      <trkpt lat="43.14971" lon="2.34506">
        <ele>223.5</ele>
        <time>2022-01-23T08:48:39.000Z</time>
      </trkpt>
      <trkpt lat="43.14972" lon="2.34507">
        <ele>223.1</ele>
        <time>2022-01-23T08:48:40.000Z</time>
      </trkpt>
      <trkpt lat="43.14972" lon="2.34509">
        <ele>222.9</ele>
        <time>2022-01-23T08:48:41.000Z</time>
      </trkpt>
      <trkpt lat="43.14972" lon="2.3451">
        <ele>222.7</ele>
        <time>2022-01-23T08:48:42.000Z</time>
      </trkpt>
      <trkpt lat="43.14972" lon="2.34511">
        <ele>222.5</ele>
        <time>2022-01-23T08:48:43.000Z</time>
      </trkpt>
      <trkpt lat="43.14972" lon="2.34512">
        <ele>222.3</ele>
        <time>2022-01-23T08:48:44.000Z</time>
      </trkpt>
      <trkpt lat="43.14972" lon="2.34513">
        <ele>222.1</ele>
        <time>2022-01-23T08:48:45.000Z</time>
      </trkpt>
      <trkpt lat="43.14972" lon="2.34514">
        <ele>221.9</ele>
        <time>2022-01-23T08:48:46.000Z</time>
      </trkpt>
      <trkpt lat="43.14972" lon="2.34514">
        <ele>221.7</ele>
        <time>2022-01-23T08:48:47.000Z</time>
      </trkpt>
      <trkpt lat="43.14972" lon="2.34515">
        <ele>221.6</ele>
        <time>2022-01-23T08:48:48.000Z</time>
      </trkpt>
      <trkpt lat="43.14972" lon="2.34516">
        <ele>221.5</ele>
        <time>2022-01-23T08:48:49.000Z</time>
      </trkpt>
      <trkpt lat="43.14972" lon="2.34516">
        <ele>221.3</ele>
        <time>2022-01-23T08:48:50.000Z</time>
      </trkpt>
      <trkpt lat="43.14973" lon="2.34517">
        <ele>221.2</ele>
        <time>2022-01-23T08:48:51.000Z</time>
      </trkpt>
      <trkpt lat="43.14973" lon="2.34517">
        <ele>221.2</ele>
        <time>2022-01-23T08:48:52.000Z</time>
      </trkpt>
      <trkpt lat="43.14973" lon="2.34518">
        <ele>221.1</ele>
        <time>2022-01-23T08:48:53.000Z</time>
      </trkpt>
      <trkpt lat="43.14973" lon="2.34518">
        <ele>221.1</ele>
        <time>2022-01-23T08:48:54.000Z</time>
      </trkpt>
      <trkpt lat="43.14974" lon="2.34518">
        <ele>221</ele>
        <time>2022-01-23T08:48:55.000Z</time>
      </trkpt>
      <trkpt lat="43.14974" lon="2.34518">
        <ele>221</ele>
        <time>2022-01-23T08:48:56.000Z</time>
      </trkpt>
      <trkpt lat="43.14974" lon="2.34518">
        <ele>221</ele>
        <time>2022-01-23T08:48:57.000Z</time>
      </trkpt>
      <trkpt lat="43.14974" lon="2.34518">
        <ele>221</ele>
        <time>2022-01-23T08:48:58.000Z</time>
      </trkpt>
      <trkpt lat="43.14974" lon="2.34518">
        <ele>221</ele>
        <time>2022-01-23T08:48:59.000Z</time>
      </trkpt>
      <trkpt lat="43.14974" lon="2.34519">
        <ele>220.9</ele>
        <time>2022-01-23T08:49:00.000Z</time>
      </trkpt>
      <trkpt lat="43.14974" lon="2.34519">
        <ele>220.9</ele>
        <time>2022-01-23T08:49:01.000Z</time>
      </trkpt>
      <trkpt lat="43.14974" lon="2.34519">
        <ele>220.9</ele>
        <time>2022-01-23T08:49:02.000Z</time>
      </trkpt>
      <trkpt lat="43.14974" lon="2.34519">
        <ele>220.9</ele>
        <time>2022-01-23T08:49:03.000Z</time>
      </trkpt>
      <trkpt lat="43.14974" lon="2.34518">
        <ele>221</ele>
        <time>2022-01-23T08:49:04.000Z</time>
      </trkpt>
      <trkpt lat="43.14974" lon="2.34518">
        <ele>221</ele>
        <time>2022-01-23T08:49:05.000Z</time>
      </trkpt>
      <trkpt lat="43.14974" lon="2.34518">
        <ele>221</ele>
        <time>2022-01-23T08:49:06.000Z</time>
      </trkpt>
      <trkpt lat="43.14974" lon="2.34518">
        <ele>221</ele>
        <time>2022-01-23T08:49:07.000Z</time>
      </trkpt>
      <trkpt lat="43.14974" lon="2.34518">
        <ele>221</ele>
        <time>2022-01-23T08:49:08.000Z</time>
      </trkpt>
      <trkpt lat="43.14974" lon="2.34519">
        <ele>220.9</ele>
        <time>2022-01-23T08:49:09.000Z</time>
      </trkpt>
      <trkpt lat="43.14974" lon="2.34519">
        <ele>220.9</ele>
        <time>2022-01-23T08:49:10.000Z</time>
      </trkpt>
      <trkpt lat="43.14974" lon="2.34519">
        <ele>220.9</ele>
        <time>2022-01-23T08:49:11.000Z</time>
      </trkpt>
      <trkpt lat="43.14974" lon="2.34519">
        <ele>220.9</ele>
        <time>2022-01-23T08:49:12.000Z</time>
      </trkpt>
      <trkpt lat="43.14974" lon="2.34519">
        <ele>220.9</ele>
        <time>2022-01-23T08:49:13.000Z</time>
      </trkpt>
      <trkpt lat="43.14974" lon="2.34519">
        <ele>220.9</ele>
        <time>2022-01-23T08:49:14.000Z</time>
      </trkpt>
      <trkpt lat="43.14974" lon="2.34518">
        <ele>220.9</ele>
        <time>2022-01-23T08:49:15.000Z</time>
      </trkpt>
      <trkpt lat="43.14974" lon="2.34518">
        <ele>221</ele>
        <time>2022-01-23T08:49:16.000Z</time>
      </trkpt>
      <trkpt lat="43.14974" lon="2.34518">
        <ele>221</ele>
        <time>2022-01-23T08:49:17.000Z</time>
      </trkpt>
      <trkpt lat="43.14973" lon="2.34518">
        <ele>221</ele>
        <time>2022-01-23T08:49:18.000Z</time>
      </trkpt>
      <trkpt lat="43.14973" lon="2.34518">
        <ele>221.1</ele>
        <time>2022-01-23T08:49:19.000Z</time>
      </trkpt>
      <trkpt lat="43.14973" lon="2.34518">
        <ele>221.1</ele>
        <time>2022-01-23T08:49:20.000Z</time>
      </trkpt>
      <trkpt lat="43.14973" lon="2.34517">
        <ele>221.2</ele>
        <time>2022-01-23T08:49:21.000Z</time>
      </trkpt>
      <trkpt lat="43.14972" lon="2.34517">
        <ele>221.3</ele>
        <time>2022-01-23T08:49:22.000Z</time>
      </trkpt>
      <trkpt lat="43.14972" lon="2.34516">
        <ele>221.4</ele>
        <time>2022-01-23T08:49:23.000Z</time>
      </trkpt>
      <trkpt lat="43.14971" lon="2.34515">
        <ele>221.5</ele>
        <time>2022-01-23T08:49:24.000Z</time>
      </trkpt>
      <trkpt lat="43.14971" lon="2.34515">
        <ele>221.6</ele>
        <time>2022-01-23T08:49:25.000Z</time>
      </trkpt>
      <trkpt lat="43.1497" lon="2.34514">
        <ele>221.8</ele>
        <time>2022-01-23T08:49:26.000Z</time>
      </trkpt>
      <trkpt lat="43.1497" lon="2.34513">
        <ele>221.9</ele>
        <time>2022-01-23T08:49:27.000Z</time>
      </trkpt>
      <trkpt lat="43.14969" lon="2.34512">
        <ele>222.1</ele>
        <time>2022-01-23T08:49:28.000Z</time>
      </trkpt>
      <trkpt lat="43.14969" lon="2.34512">
        <ele>222.2</ele>
        <time>2022-01-23T08:49:29.000Z</time>
      </trkpt>
      <trkpt lat="43.14968" lon="2.34511">
        <ele>222.4</ele>
        <time>2022-01-23T08:49:30.000Z</time>
      </trkpt>
      <trkpt lat="43.14967" lon="2.3451">
        <ele>222.5</ele>
        <time>2022-01-23T08:49:31.000Z</time>
      </trkpt>
      <trkpt lat="43.14967" lon="2.34509">
        <ele>222.7</ele>
        <time>2022-01-23T08:49:32.000Z</time>
      </trkpt>
      <trkpt lat="43.14966" lon="2.34508">
        <ele>222.8</ele>
        <time>2022-01-23T08:49:33.000Z</time>
      </trkpt>
      <trkpt lat="43.14965" lon="2.34507">
        <ele>222.9</ele>
        <time>2022-01-23T08:49:34.000Z</time>
      </trkpt>
      <trkpt lat="43.14964" lon="2.34506">
        <ele>223.1</ele>
        <time>2022-01-23T08:49:35.000Z</time>
      </trkpt>
      <trkpt lat="43.14964" lon="2.34506">
        <ele>223.2</ele>
        <time>2022-01-23T08:49:36.000Z</time>
      </trkpt>
      <trkpt lat="43.14963" lon="2.34505">
        <ele>223.3</ele>
        <time>2022-01-23T08:49:37.000Z</time>
      </trkpt>
      <trkpt lat="43.14962" lon="2.34504">
        <ele>223.3</ele>
        <time>2022-01-23T08:49:38.000Z</time>
      </trkpt>
      <trkpt lat="43.14961" lon="2.34504">
        <ele>223.4</ele>
        <time>2022-01-23T08:49:39.000Z</time>
      </trkpt>
      <trkpt lat="43.14961" lon="2.34504">
        <ele>223.5</ele>
        <time>2022-01-23T08:49:40.000Z</time>
      </trkpt>
      <trkpt lat="43.1496" lon="2.34503">
        <ele>223.5</ele>
        <time>2022-01-23T08:49:41.000Z</time>
      </trkpt>
      <trkpt lat="43.14959" lon="2.34503">
        <ele>223.5</ele>
        <time>2022-01-23T08:49:42.000Z</time>
      </trkpt>
      <trkpt lat="43.14958" lon="2.34503">
        <ele>223.5</ele>
        <time>2022-01-23T08:49:43.000Z</time>
      </trkpt>
      <trkpt lat="43.14957" lon="2.34503">
        <ele>223.5</ele>
        <time>2022-01-23T08:49:44.000Z</time>
      </trkpt>
      <trkpt lat="43.14956" lon="2.34502">
        <ele>223.4</ele>
        <time>2022-01-23T08:49:45.000Z</time>
      </trkpt>
      <trkpt lat="43.14955" lon="2.34502">
        <ele>223.4</ele>
        <time>2022-01-23T08:49:46.000Z</time>
      </trkpt>
      <trkpt lat="43.14953" lon="2.34503">
        <ele>223.3</ele>
        <time>2022-01-23T08:49:47.000Z</time>
      </trkpt>
      <trkpt lat="43.14951" lon="2.34503">
        <ele>223.2</ele>
        <time>2022-01-23T08:49:48.000Z</time>
      </trkpt>
      <trkpt lat="43.1495" lon="2.34503">
        <ele>223.1</ele>
        <time>2022-01-23T08:49:49.000Z</time>
      </trkpt>
      <trkpt lat="43.14948" lon="2.34503">
        <ele>223</ele>
        <time>2022-01-23T08:49:50.000Z</time>
      </trkpt>
      <trkpt lat="43.14945" lon="2.34503">
        <ele>222.9</ele>
        <time>2022-01-23T08:49:51.000Z</time>
      </trkpt>
      <trkpt lat="43.14943" lon="2.34503">
        <ele>222.8</ele>
        <time>2022-01-23T08:49:52.000Z</time>
      </trkpt>
      <trkpt lat="43.14941" lon="2.34503">
        <ele>222.7</ele>
        <time>2022-01-23T08:49:53.000Z</time>
      </trkpt>
      <trkpt lat="43.14939" lon="2.34503">
        <ele>222.6</ele>
        <time>2022-01-23T08:49:54.000Z</time>
      </trkpt>
      <trkpt lat="43.14936" lon="2.34502">
        <ele>222.6</ele>
        <time>2022-01-23T08:49:55.000Z</time>
      </trkpt>
      <trkpt lat="43.14934" lon="2.34502">
        <ele>222.6</ele>
        <time>2022-01-23T08:49:56.000Z</time>
      </trkpt>
      <trkpt lat="43.14931" lon="2.34501">
        <ele>222.6</ele>
        <time>2022-01-23T08:49:57.000Z</time>
      </trkpt>
      <trkpt lat="43.14929" lon="2.345">
        <ele>222.6</ele>
        <time>2022-01-23T08:49:58.000Z</time>
      </trkpt>
      <trkpt lat="43.14927" lon="2.34499">
        <ele>222.4</ele>
        <time>2022-01-23T08:49:59.000Z</time>
      </trkpt>
      <trkpt lat="43.14924" lon="2.34498">
        <ele>222.2</ele>
        <time>2022-01-23T08:50:00.000Z</time>
      </trkpt>
      <trkpt lat="43.14922" lon="2.34497">
        <ele>222</ele>
        <time>2022-01-23T08:50:01.000Z</time>
      </trkpt>
      <trkpt lat="43.14919" lon="2.34496">
        <ele>221.8</ele>
        <time>2022-01-23T08:50:02.000Z</time>
      </trkpt>
      <trkpt lat="43.14917" lon="2.34495">
        <ele>221.6</ele>
        <time>2022-01-23T08:50:03.000Z</time>
      </trkpt>
      <trkpt lat="43.14914" lon="2.34494">
        <ele>221.2</ele>
        <time>2022-01-23T08:50:04.000Z</time>
      </trkpt>
      <trkpt lat="43.14912" lon="2.34494">
        <ele>220.8</ele>
        <time>2022-01-23T08:50:05.000Z</time>
      </trkpt>
      <trkpt lat="43.1491" lon="2.34494">
        <ele>220.4</ele>
        <time>2022-01-23T08:50:06.000Z</time>
      </trkpt>
      <trkpt lat="43.14907" lon="2.34494">
        <ele>220</ele>
        <time>2022-01-23T08:50:07.000Z</time>
      </trkpt>
      <trkpt lat="43.14905" lon="2.34495">
        <ele>219.7</ele>
        <time>2022-01-23T08:50:08.000Z</time>
      </trkpt>
      <trkpt lat="43.14903" lon="2.34495">
        <ele>219.4</ele>
        <time>2022-01-23T08:50:09.000Z</time>
      </trkpt>
      <trkpt lat="43.149" lon="2.34496">
        <ele>219.1</ele>
        <time>2022-01-23T08:50:10.000Z</time>
      </trkpt>
      <trkpt lat="43.14898" lon="2.34497">
        <ele>218.8</ele>
        <time>2022-01-23T08:50:11.000Z</time>
      </trkpt>
      <trkpt lat="43.14896" lon="2.34498">
        <ele>218.5</ele>
        <time>2022-01-23T08:50:12.000Z</time>
      </trkpt>
      <trkpt lat="43.14893" lon="2.34499">
        <ele>218.3</ele>
        <time>2022-01-23T08:50:13.000Z</time>
      </trkpt>
      <trkpt lat="43.14891" lon="2.345">
        <ele>218</ele>
        <time>2022-01-23T08:50:14.000Z</time>
      </trkpt>
      <trkpt lat="43.14889" lon="2.34502">
        <ele>217.5</ele>
        <time>2022-01-23T08:50:15.000Z</time>
      </trkpt>
      <trkpt lat="43.14887" lon="2.34504">
        <ele>217.1</ele>
        <time>2022-01-23T08:50:16.000Z</time>
      </trkpt>
      <trkpt lat="43.14885" lon="2.34505">
        <ele>216.7</ele>
        <time>2022-01-23T08:50:17.000Z</time>
      </trkpt>
      <trkpt lat="43.14883" lon="2.34507">
        <ele>216.3</ele>
        <time>2022-01-23T08:50:18.000Z</time>
      </trkpt>
      <trkpt lat="43.14882" lon="2.3451">
        <ele>215.9</ele>
        <time>2022-01-23T08:50:19.000Z</time>
      </trkpt>
      <trkpt lat="43.1488" lon="2.34512">
        <ele>215.6</ele>
        <time>2022-01-23T08:50:20.000Z</time>
      </trkpt>
      <trkpt lat="43.14879" lon="2.34514">
        <ele>215.3</ele>
        <time>2022-01-23T08:50:21.000Z</time>
      </trkpt>
      <trkpt lat="43.14877" lon="2.34517">
        <ele>214.9</ele>
        <time>2022-01-23T08:50:22.000Z</time>
      </trkpt>
      <trkpt lat="43.14875" lon="2.3452">
        <ele>214.6</ele>
        <time>2022-01-23T08:50:23.000Z</time>
      </trkpt>
      <trkpt lat="43.14874" lon="2.34523">
        <ele>214.3</ele>
        <time>2022-01-23T08:50:24.000Z</time>
      </trkpt>
      <trkpt lat="43.14872" lon="2.34526">
        <ele>214</ele>
        <time>2022-01-23T08:50:25.000Z</time>
      </trkpt>
      <trkpt lat="43.14871" lon="2.34529">
        <ele>213.7</ele>
        <time>2022-01-23T08:50:26.000Z</time>
      </trkpt>
      <trkpt lat="43.14869" lon="2.34532">
        <ele>213.4</ele>
        <time>2022-01-23T08:50:27.000Z</time>
      </trkpt>
      <trkpt lat="43.14867" lon="2.34535">
        <ele>213.1</ele>
        <time>2022-01-23T08:50:28.000Z</time>
      </trkpt>
      <trkpt lat="43.14865" lon="2.34539">
        <ele>212.9</ele>
        <time>2022-01-23T08:50:29.000Z</time>
      </trkpt>
      <trkpt lat="43.14864" lon="2.34542">
        <ele>212.7</ele>
        <time>2022-01-23T08:50:30.000Z</time>
      </trkpt>
      <trkpt lat="43.14862" lon="2.34545">
        <ele>212.5</ele>
        <time>2022-01-23T08:50:31.000Z</time>
      </trkpt>
      <trkpt lat="43.1486" lon="2.34548">
        <ele>212.3</ele>
        <time>2022-01-23T08:50:32.000Z</time>
      </trkpt>
      <trkpt lat="43.14859" lon="2.34552">
        <ele>212.2</ele>
        <time>2022-01-23T08:50:33.000Z</time>
      </trkpt>
      <trkpt lat="43.14857" lon="2.34555">
        <ele>212</ele>
        <time>2022-01-23T08:50:34.000Z</time>
      </trkpt>
      <trkpt lat="43.14855" lon="2.34558">
        <ele>211.9</ele>
        <time>2022-01-23T08:50:35.000Z</time>
      </trkpt>
      <trkpt lat="43.14853" lon="2.34561">
        <ele>211.9</ele>
        <time>2022-01-23T08:50:36.000Z</time>
      </trkpt>
      <trkpt lat="43.14852" lon="2.34564">
        <ele>211.8</ele>
        <time>2022-01-23T08:50:37.000Z</time>
      </trkpt>
      <trkpt lat="43.1485" lon="2.34568">
        <ele>211.8</ele>
        <time>2022-01-23T08:50:38.000Z</time>
      </trkpt>
      <trkpt lat="43.14848" lon="2.34571">
        <ele>211.7</ele>
        <time>2022-01-23T08:50:39.000Z</time>
      </trkpt>
      <trkpt lat="43.14847" lon="2.34574">
        <ele>211.8</ele>
        <time>2022-01-23T08:50:40.000Z</time>
      </trkpt>
      <trkpt lat="43.14845" lon="2.34577">
        <ele>211.8</ele>
        <time>2022-01-23T08:50:41.000Z</time>
      </trkpt>
      <trkpt lat="43.14844" lon="2.3458">
        <ele>211.8</ele>
        <time>2022-01-23T08:50:42.000Z</time>
      </trkpt>
      <trkpt lat="43.14842" lon="2.34583">
        <ele>211.9</ele>
        <time>2022-01-23T08:50:43.000Z</time>
      </trkpt>
      <trkpt lat="43.1484" lon="2.34586">
        <ele>211.7</ele>
        <time>2022-01-23T08:50:44.000Z</time>
      </trkpt>
      <trkpt lat="43.14839" lon="2.34589">
        <ele>211.5</ele>
        <time>2022-01-23T08:50:45.000Z</time>
      </trkpt>
      <trkpt lat="43.14837" lon="2.34592">
        <ele>211.4</ele>
        <time>2022-01-23T08:50:46.000Z</time>
      </trkpt>
      <trkpt lat="43.14836" lon="2.34595">
        <ele>211.2</ele>
        <time>2022-01-23T08:50:47.000Z</time>
      </trkpt>
      <trkpt lat="43.14834" lon="2.34597">
        <ele>211.1</ele>
        <time>2022-01-23T08:50:48.000Z</time>
      </trkpt>
      <trkpt lat="43.14833" lon="2.346">
        <ele>211</ele>
        <time>2022-01-23T08:50:49.000Z</time>
      </trkpt>
      <trkpt lat="43.14832" lon="2.34603">
        <ele>210.6</ele>
        <time>2022-01-23T08:50:50.000Z</time>
      </trkpt>
      <trkpt lat="43.1483" lon="2.34606">
        <ele>210.4</ele>
        <time>2022-01-23T08:50:51.000Z</time>
      </trkpt>
      <trkpt lat="43.14829" lon="2.34608">
        <ele>210.1</ele>
        <time>2022-01-23T08:50:52.000Z</time>
      </trkpt>
      <trkpt lat="43.14828" lon="2.34611">
        <ele>209.8</ele>
        <time>2022-01-23T08:50:53.000Z</time>
      </trkpt>
      <trkpt lat="43.14826" lon="2.34614">
        <ele>209.5</ele>
        <time>2022-01-23T08:50:54.000Z</time>
      </trkpt>
      <trkpt lat="43.14825" lon="2.34617">
        <ele>209.3</ele>
        <time>2022-01-23T08:50:55.000Z</time>
      </trkpt>
      <trkpt lat="43.14824" lon="2.3462">
        <ele>209</ele>
        <time>2022-01-23T08:50:56.000Z</time>
      </trkpt>
      <trkpt lat="43.14822" lon="2.34622">
        <ele>208.8</ele>
        <time>2022-01-23T08:50:57.000Z</time>
      </trkpt>
      <trkpt lat="43.14821" lon="2.34625">
        <ele>208.6</ele>
        <time>2022-01-23T08:50:58.000Z</time>
      </trkpt>
      <trkpt lat="43.1482" lon="2.34628">
        <ele>208.4</ele>
        <time>2022-01-23T08:50:59.000Z</time>
      </trkpt>
      <trkpt lat="43.14818" lon="2.34631">
        <ele>208.2</ele>
        <time>2022-01-23T08:51:00.000Z</time>
      </trkpt>
      <trkpt lat="43.14817" lon="2.34633">
        <ele>208</ele>
        <time>2022-01-23T08:51:01.000Z</time>
      </trkpt>
      <trkpt lat="43.14816" lon="2.34636">
        <ele>207.9</ele>
        <time>2022-01-23T08:51:02.000Z</time>
      </trkpt>
      <trkpt lat="43.14815" lon="2.34638">
        <ele>207.7</ele>
        <time>2022-01-23T08:51:03.000Z</time>
      </trkpt>
      <trkpt lat="43.14814" lon="2.3464">
        <ele>207.6</ele>
        <time>2022-01-23T08:51:04.000Z</time>
      </trkpt>
      <trkpt lat="43.14813" lon="2.34641">
        <ele>207.6</ele>
        <time>2022-01-23T08:51:05.000Z</time>
      </trkpt>
      <trkpt lat="43.14812" lon="2.34642">
        <ele>207.5</ele>
        <time>2022-01-23T08:51:06.000Z</time>
      </trkpt>
      <trkpt lat="43.14812" lon="2.34643">
        <ele>207.4</ele>
        <time>2022-01-23T08:51:07.000Z</time>
      </trkpt>
      <trkpt lat="43.14811" lon="2.34644">
        <ele>207.4</ele>
        <time>2022-01-23T08:51:08.000Z</time>
      </trkpt>
      <trkpt lat="43.14811" lon="2.34645">
        <ele>207.3</ele>
        <time>2022-01-23T08:51:09.000Z</time>
      </trkpt>
      <trkpt lat="43.1481" lon="2.34645">
        <ele>207.3</ele>
        <time>2022-01-23T08:51:10.000Z</time>
      </trkpt>
      <trkpt lat="43.1481" lon="2.34646">
        <ele>207.3</ele>
        <time>2022-01-23T08:51:11.000Z</time>
      </trkpt>
      <trkpt lat="43.14809" lon="2.34647">
        <ele>207.2</ele>
        <time>2022-01-23T08:51:12.000Z</time>
      </trkpt>
      <trkpt lat="43.14809" lon="2.34648">
        <ele>207.2</ele>
        <time>2022-01-23T08:51:13.000Z</time>
      </trkpt>
      <trkpt lat="43.14809" lon="2.3465">
        <ele>207.1</ele>
        <time>2022-01-23T08:51:14.000Z</time>
      </trkpt>
      <trkpt lat="43.14808" lon="2.34652">
        <ele>207.1</ele>
        <time>2022-01-23T08:51:15.000Z</time>
      </trkpt>
      <trkpt lat="43.14808" lon="2.34654">
        <ele>207</ele>
        <time>2022-01-23T08:51:16.000Z</time>
      </trkpt>
      <trkpt lat="43.14807" lon="2.34656">
        <ele>206.9</ele>
        <time>2022-01-23T08:51:17.000Z</time>
      </trkpt>
      <trkpt lat="43.14807" lon="2.34658">
        <ele>206.9</ele>
        <time>2022-01-23T08:51:18.000Z</time>
      </trkpt>
      <trkpt lat="43.14807" lon="2.34659">
        <ele>206.8</ele>
        <time>2022-01-23T08:51:19.000Z</time>
      </trkpt>
      <trkpt lat="43.14806" lon="2.34661">
        <ele>206.8</ele>
        <time>2022-01-23T08:51:20.000Z</time>
      </trkpt>
      <trkpt lat="43.14806" lon="2.34663">
        <ele>206.8</ele>
        <time>2022-01-23T08:51:21.000Z</time>
      </trkpt>
      <trkpt lat="43.14806" lon="2.34664">
        <ele>206.7</ele>
        <time>2022-01-23T08:51:22.000Z</time>
      </trkpt>
      <trkpt lat="43.14806" lon="2.34665">
        <ele>206.7</ele>
        <time>2022-01-23T08:51:23.000Z</time>
      </trkpt>
      <trkpt lat="43.14806" lon="2.34666">
        <ele>206.7</ele>
        <time>2022-01-23T08:51:24.000Z</time>
      </trkpt>
      <trkpt lat="43.14805" lon="2.34666">
        <ele>206.7</ele>
        <time>2022-01-23T08:51:25.000Z</time>
      </trkpt>
      <trkpt lat="43.14805" lon="2.34667">
        <ele>206.6</ele>
        <time>2022-01-23T08:51:26.000Z</time>
      </trkpt>
      <trkpt lat="43.14805" lon="2.34667">
        <ele>206.6</ele>
        <time>2022-01-23T08:51:27.000Z</time>
      </trkpt>
      <trkpt lat="43.14805" lon="2.34668">
        <ele>206.5</ele>
        <time>2022-01-23T08:51:28.000Z</time>
      </trkpt>
      <trkpt lat="43.14805" lon="2.34669">
        <ele>206.4</ele>
        <time>2022-01-23T08:51:29.000Z</time>
      </trkpt>
      <trkpt lat="43.14804" lon="2.3467">
        <ele>206.3</ele>
        <time>2022-01-23T08:51:30.000Z</time>
      </trkpt>
      <trkpt lat="43.14804" lon="2.34672">
        <ele>206.1</ele>
        <time>2022-01-23T08:51:31.000Z</time>
      </trkpt>
      <trkpt lat="43.14803" lon="2.34674">
        <ele>205.9</ele>
        <time>2022-01-23T08:51:32.000Z</time>
      </trkpt>
      <trkpt lat="43.14802" lon="2.34676">
        <ele>205.7</ele>
        <time>2022-01-23T08:51:33.000Z</time>
      </trkpt>
      <trkpt lat="43.14802" lon="2.34678">
        <ele>205.5</ele>
        <time>2022-01-23T08:51:34.000Z</time>
      </trkpt>
      <trkpt lat="43.14801" lon="2.34681">
        <ele>205.2</ele>
        <time>2022-01-23T08:51:35.000Z</time>
      </trkpt>
      <trkpt lat="43.148" lon="2.34683">
        <ele>205</ele>
        <time>2022-01-23T08:51:36.000Z</time>
      </trkpt>
      <trkpt lat="43.14799" lon="2.34686">
        <ele>204.7</ele>
        <time>2022-01-23T08:51:37.000Z</time>
      </trkpt>
      <trkpt lat="43.14798" lon="2.34689">
        <ele>204.5</ele>
        <time>2022-01-23T08:51:38.000Z</time>
      </trkpt>
      <trkpt lat="43.14797" lon="2.34693">
        <ele>204.2</ele>
        <time>2022-01-23T08:51:39.000Z</time>
      </trkpt>
      <trkpt lat="43.14796" lon="2.34696">
        <ele>203.9</ele>
        <time>2022-01-23T08:51:40.000Z</time>
      </trkpt>
      <trkpt lat="43.14796" lon="2.34699">
        <ele>203.7</ele>
        <time>2022-01-23T08:51:41.000Z</time>
      </trkpt>
      <trkpt lat="43.14795" lon="2.34702">
        <ele>203.4</ele>
        <time>2022-01-23T08:51:42.000Z</time>
      </trkpt>
      <trkpt lat="43.14794" lon="2.34706">
        <ele>203.1</ele>
        <time>2022-01-23T08:51:43.000Z</time>
      </trkpt>
      <trkpt lat="43.14793" lon="2.34709">
        <ele>202.9</ele>
        <time>2022-01-23T08:51:44.000Z</time>
      </trkpt>
      <trkpt lat="43.14793" lon="2.34712">
        <ele>202.6</ele>
        <time>2022-01-23T08:51:45.000Z</time>
      </trkpt>
      <trkpt lat="43.14793" lon="2.34715">
        <ele>202.4</ele>
        <time>2022-01-23T08:51:46.000Z</time>
      </trkpt>
      <trkpt lat="43.14793" lon="2.34718">
        <ele>202.1</ele>
        <time>2022-01-23T08:51:47.000Z</time>
      </trkpt>
      <trkpt lat="43.14793" lon="2.34721">
        <ele>201.8</ele>
        <time>2022-01-23T08:51:48.000Z</time>
      </trkpt>
      <trkpt lat="43.14793" lon="2.34724">
        <ele>201.6</ele>
        <time>2022-01-23T08:51:49.000Z</time>
      </trkpt>
      <trkpt lat="43.14794" lon="2.34727">
        <ele>201.3</ele>
        <time>2022-01-23T08:51:50.000Z</time>
      </trkpt>
      <trkpt lat="43.14795" lon="2.34729">
        <ele>201</ele>
        <time>2022-01-23T08:51:51.000Z</time>
      </trkpt>
      <trkpt lat="43.14796" lon="2.34731">
        <ele>200.7</ele>
        <time>2022-01-23T08:51:52.000Z</time>
      </trkpt>
      <trkpt lat="43.14797" lon="2.34733">
        <ele>200.4</ele>
        <time>2022-01-23T08:51:53.000Z</time>
      </trkpt>
      <trkpt lat="43.14799" lon="2.34735">
        <ele>200.2</ele>
        <time>2022-01-23T08:51:54.000Z</time>
      </trkpt>
      <trkpt lat="43.148" lon="2.34737">
        <ele>199.9</ele>
        <time>2022-01-23T08:51:55.000Z</time>
      </trkpt>
      <trkpt lat="43.14801" lon="2.34738">
        <ele>199.7</ele>
        <time>2022-01-23T08:51:56.000Z</time>
      </trkpt>
      <trkpt lat="43.14802" lon="2.34739">
        <ele>199.5</ele>
        <time>2022-01-23T08:51:57.000Z</time>
      </trkpt>
      <trkpt lat="43.14803" lon="2.3474">
        <ele>199.3</ele>
        <time>2022-01-23T08:51:58.000Z</time>
      </trkpt>
      <trkpt lat="43.14805" lon="2.3474">
        <ele>199.1</ele>
        <time>2022-01-23T08:51:59.000Z</time>
      </trkpt>
      <trkpt lat="43.14806" lon="2.3474">
        <ele>199</ele>
        <time>2022-01-23T08:52:00.000Z</time>
      </trkpt>
      <trkpt lat="43.14807" lon="2.34741">
        <ele>198.9</ele>
        <time>2022-01-23T08:52:01.000Z</time>
      </trkpt>
      <trkpt lat="43.14808" lon="2.34741">
        <ele>198.7</ele>
        <time>2022-01-23T08:52:02.000Z</time>
      </trkpt>
      <trkpt lat="43.14809" lon="2.34741">
        <ele>198.6</ele>
        <time>2022-01-23T08:52:03.000Z</time>
      </trkpt>
      <trkpt lat="43.1481" lon="2.34741">
        <ele>198.6</ele>
        <time>2022-01-23T08:52:04.000Z</time>
      </trkpt>
      <trkpt lat="43.1481" lon="2.34741">
        <ele>198.5</ele>
        <time>2022-01-23T08:52:05.000Z</time>
      </trkpt>
      <trkpt lat="43.1481" lon="2.34741">
        <ele>198.5</ele>
        <time>2022-01-23T08:52:06.000Z</time>
      </trkpt>
      <trkpt lat="43.14811" lon="2.34741">
        <ele>198.4</ele>
        <time>2022-01-23T08:52:07.000Z</time>
      </trkpt>
      <trkpt lat="43.14811" lon="2.34741">
        <ele>198.4</ele>
        <time>2022-01-23T08:52:08.000Z</time>
      </trkpt>
      <trkpt lat="43.14811" lon="2.34741">
        <ele>198.4</ele>
        <time>2022-01-23T08:52:09.000Z</time>
      </trkpt>
      <trkpt lat="43.14811" lon="2.34741">
        <ele>198.4</ele>
        <time>2022-01-23T08:52:10.000Z</time>
      </trkpt>
      <trkpt lat="43.14811" lon="2.34741">
        <ele>198.4</ele>
        <time>2022-01-23T08:52:11.000Z</time>
      </trkpt>
      <trkpt lat="43.14811" lon="2.34741">
        <ele>198.4</ele>
        <time>2022-01-23T08:52:12.000Z</time>
      </trkpt>
      <trkpt lat="43.14811" lon="2.34741">
        <ele>198.4</ele>
        <time>2022-01-23T08:52:13.000Z</time>
      </trkpt>
      <trkpt lat="43.14811" lon="2.34741">
        <ele>198.4</ele>
        <time>2022-01-23T08:52:14.000Z</time>
      </trkpt>
      <trkpt lat="43.14812" lon="2.34741">
        <ele>198.4</ele>
        <time>2022-01-23T08:52:15.000Z</time>
      </trkpt>
      <trkpt lat="43.14812" lon="2.34741">
        <ele>198.3</ele>
        <time>2022-01-23T08:52:16.000Z</time>
      </trkpt>
      <trkpt lat="43.14813" lon="2.3474">
        <ele>198.3</ele>
        <time>2022-01-23T08:52:17.000Z</time>
      </trkpt>
      <trkpt lat="43.14814" lon="2.3474">
        <ele>198.3</ele>
        <time>2022-01-23T08:52:18.000Z</time>
      </trkpt>
      <trkpt lat="43.14815" lon="2.3474">
        <ele>198.2</ele>
        <time>2022-01-23T08:52:19.000Z</time>
      </trkpt>
      <trkpt lat="43.14816" lon="2.34739">
        <ele>198.2</ele>
        <time>2022-01-23T08:52:20.000Z</time>
      </trkpt>
      <trkpt lat="43.14818" lon="2.34738">
        <ele>198.1</ele>
        <time>2022-01-23T08:52:21.000Z</time>
      </trkpt>
      <trkpt lat="43.14819" lon="2.34738">
        <ele>198</ele>
        <time>2022-01-23T08:52:22.000Z</time>
      </trkpt>
      <trkpt lat="43.14821" lon="2.34737">
        <ele>198</ele>
        <time>2022-01-23T08:52:23.000Z</time>
      </trkpt>
      <trkpt lat="43.14823" lon="2.34736">
        <ele>197.9</ele>
        <time>2022-01-23T08:52:24.000Z</time>
      </trkpt>
      <trkpt lat="43.14825" lon="2.34735">
        <ele>197.8</ele>
        <time>2022-01-23T08:52:25.000Z</time>
      </trkpt>
      <trkpt lat="43.14827" lon="2.34734">
        <ele>197.8</ele>
        <time>2022-01-23T08:52:26.000Z</time>
      </trkpt>
      <trkpt lat="43.14829" lon="2.34733">
        <ele>197.7</ele>
        <time>2022-01-23T08:52:27.000Z</time>
      </trkpt>
      <trkpt lat="43.14832" lon="2.34732">
        <ele>197.7</ele>
        <time>2022-01-23T08:52:28.000Z</time>
      </trkpt>
      <trkpt lat="43.14834" lon="2.34731">
        <ele>197.7</ele>
        <time>2022-01-23T08:52:29.000Z</time>
      </trkpt>
      <trkpt lat="43.14836" lon="2.3473">
        <ele>197.6</ele>
        <time>2022-01-23T08:52:30.000Z</time>
      </trkpt>
      <trkpt lat="43.14839" lon="2.34729">
        <ele>197.6</ele>
        <time>2022-01-23T08:52:31.000Z</time>
      </trkpt>
      <trkpt lat="43.14841" lon="2.34728">
        <ele>197.5</ele>
        <time>2022-01-23T08:52:32.000Z</time>
      </trkpt>
      <trkpt lat="43.14843" lon="2.34727">
        <ele>197.4</ele>
        <time>2022-01-23T08:52:33.000Z</time>
      </trkpt>
      <trkpt lat="43.14845" lon="2.34726">
        <ele>197.4</ele>
        <time>2022-01-23T08:52:34.000Z</time>
      </trkpt>
      <trkpt lat="43.14848" lon="2.34725">
        <ele>197.3</ele>
        <time>2022-01-23T08:52:35.000Z</time>
      </trkpt>
      <trkpt lat="43.1485" lon="2.34724">
        <ele>197.2</ele>
        <time>2022-01-23T08:52:36.000Z</time>
      </trkpt>
      <trkpt lat="43.14852" lon="2.34723">
        <ele>197.2</ele>
        <time>2022-01-23T08:52:37.000Z</time>
      </trkpt>
      <trkpt lat="43.14854" lon="2.34722">
        <ele>197.1</ele>
        <time>2022-01-23T08:52:38.000Z</time>
      </trkpt>
      <trkpt lat="43.14856" lon="2.34721">
        <ele>197</ele>
        <time>2022-01-23T08:52:39.000Z</time>
      </trkpt>
      <trkpt lat="43.14858" lon="2.3472">
        <ele>196.9</ele>
        <time>2022-01-23T08:52:40.000Z</time>
      </trkpt>
      <trkpt lat="43.1486" lon="2.34719">
        <ele>196.8</ele>
        <time>2022-01-23T08:52:41.000Z</time>
      </trkpt>
      <trkpt lat="43.14861" lon="2.34718">
        <ele>196.8</ele>
        <time>2022-01-23T08:52:42.000Z</time>
      </trkpt>
      <trkpt lat="43.14863" lon="2.34717">
        <ele>196.7</ele>
        <time>2022-01-23T08:52:43.000Z</time>
      </trkpt>
      <trkpt lat="43.14865" lon="2.34716">
        <ele>196.6</ele>
        <time>2022-01-23T08:52:44.000Z</time>
      </trkpt>
      <trkpt lat="43.14866" lon="2.34715">
        <ele>196.6</ele>
        <time>2022-01-23T08:52:45.000Z</time>
      </trkpt>
      <trkpt lat="43.14868" lon="2.34714">
        <ele>196.5</ele>
        <time>2022-01-23T08:52:46.000Z</time>
      </trkpt>
      <trkpt lat="43.14869" lon="2.34713">
        <ele>196.5</ele>
        <time>2022-01-23T08:52:47.000Z</time>
      </trkpt>
      <trkpt lat="43.14871" lon="2.34712">
        <ele>196.4</ele>
        <time>2022-01-23T08:52:48.000Z</time>
      </trkpt>
      <trkpt lat="43.14872" lon="2.34711">
        <ele>196.4</ele>
        <time>2022-01-23T08:52:49.000Z</time>
      </trkpt>
      <trkpt lat="43.14874" lon="2.34709">
        <ele>196.3</ele>
        <time>2022-01-23T08:52:50.000Z</time>
      </trkpt>
      <trkpt lat="43.14875" lon="2.34708">
        <ele>196.2</ele>
        <time>2022-01-23T08:52:51.000Z</time>
      </trkpt>
      <trkpt lat="43.14878" lon="2.34707">
        <ele>196.1</ele>
        <time>2022-01-23T08:52:52.000Z</time>
      </trkpt>
      <trkpt lat="43.1488" lon="2.34705">
        <ele>195.9</ele>
        <time>2022-01-23T08:52:53.000Z</time>
      </trkpt>
      <trkpt lat="43.14883" lon="2.34703">
        <ele>195.8</ele>
        <time>2022-01-23T08:52:54.000Z</time>
      </trkpt>
      <trkpt lat="43.14886" lon="2.34701">
        <ele>195.5</ele>
        <time>2022-01-23T08:52:55.000Z</time>
      </trkpt>
      <trkpt lat="43.14889" lon="2.34699">
        <ele>195.3</ele>
        <time>2022-01-23T08:52:56.000Z</time>
      </trkpt>
      <trkpt lat="43.14891" lon="2.34698">
        <ele>195.1</ele>
        <time>2022-01-23T08:52:57.000Z</time>
      </trkpt>
      <trkpt lat="43.14894" lon="2.34696">
        <ele>195</ele>
        <time>2022-01-23T08:52:58.000Z</time>
      </trkpt>
      <trkpt lat="43.14896" lon="2.34694">
        <ele>194.8</ele>
        <time>2022-01-23T08:52:59.000Z</time>
      </trkpt>
      <trkpt lat="43.14898" lon="2.34692">
        <ele>194.7</ele>
        <time>2022-01-23T08:53:00.000Z</time>
      </trkpt>
      <trkpt lat="43.14899" lon="2.34691">
        <ele>194.5</ele>
        <time>2022-01-23T08:53:01.000Z</time>
      </trkpt>
      <trkpt lat="43.14901" lon="2.34689">
        <ele>194.4</ele>
        <time>2022-01-23T08:53:02.000Z</time>
      </trkpt>
      <trkpt lat="43.14903" lon="2.34687">
        <ele>194.2</ele>
        <time>2022-01-23T08:53:03.000Z</time>
      </trkpt>
      <trkpt lat="43.14905" lon="2.34686">
        <ele>194</ele>
        <time>2022-01-23T08:53:04.000Z</time>
      </trkpt>
      <trkpt lat="43.14907" lon="2.34685">
        <ele>193.8</ele>
        <time>2022-01-23T08:53:05.000Z</time>
      </trkpt>
      <trkpt lat="43.14909" lon="2.34684">
        <ele>193.6</ele>
        <time>2022-01-23T08:53:06.000Z</time>
      </trkpt>
      <trkpt lat="43.14911" lon="2.34682">
        <ele>193.3</ele>
        <time>2022-01-23T08:53:07.000Z</time>
      </trkpt>
      <trkpt lat="43.14913" lon="2.34681">
        <ele>193</ele>
        <time>2022-01-23T08:53:08.000Z</time>
      </trkpt>
      <trkpt lat="43.14915" lon="2.3468">
        <ele>192.8</ele>
        <time>2022-01-23T08:53:09.000Z</time>
      </trkpt>
      <trkpt lat="43.14917" lon="2.34678">
        <ele>192.6</ele>
        <time>2022-01-23T08:53:10.000Z</time>
      </trkpt>
      <trkpt lat="43.14919" lon="2.34676">
        <ele>192.6</ele>
        <time>2022-01-23T08:53:11.000Z</time>
      </trkpt>
      <trkpt lat="43.14921" lon="2.34673">
        <ele>192.5</ele>
        <time>2022-01-23T08:53:12.000Z</time>
      </trkpt>
      <trkpt lat="43.14923" lon="2.34671">
        <ele>192.5</ele>
        <time>2022-01-23T08:53:13.000Z</time>
      </trkpt>
      <trkpt lat="43.14925" lon="2.34669">
        <ele>192.4</ele>
        <time>2022-01-23T08:53:14.000Z</time>
      </trkpt>
      <trkpt lat="43.14927" lon="2.34667">
        <ele>192.3</ele>
        <time>2022-01-23T08:53:15.000Z</time>
      </trkpt>
      <trkpt lat="43.14929" lon="2.34665">
        <ele>192.5</ele>
        <time>2022-01-23T08:53:16.000Z</time>
      </trkpt>
      <trkpt lat="43.14931" lon="2.34663">
        <ele>192.7</ele>
        <time>2022-01-23T08:53:17.000Z</time>
      </trkpt>
      <trkpt lat="43.14933" lon="2.34662">
        <ele>192.9</ele>
        <time>2022-01-23T08:53:18.000Z</time>
      </trkpt>
      <trkpt lat="43.14935" lon="2.3466">
        <ele>193.1</ele>
        <time>2022-01-23T08:53:19.000Z</time>
      </trkpt>
      <trkpt lat="43.14937" lon="2.34659">
        <ele>193.3</ele>
        <time>2022-01-23T08:53:20.000Z</time>
      </trkpt>
      <trkpt lat="43.14939" lon="2.34657">
        <ele>193.5</ele>
        <time>2022-01-23T08:53:21.000Z</time>
      </trkpt>
      <trkpt lat="43.14941" lon="2.34656">
        <ele>193.6</ele>
        <time>2022-01-23T08:53:22.000Z</time>
      </trkpt>
      <trkpt lat="43.14942" lon="2.34655">
        <ele>193.8</ele>
        <time>2022-01-23T08:53:23.000Z</time>
      </trkpt>
      <trkpt lat="43.14944" lon="2.34654">
        <ele>193.8</ele>
        <time>2022-01-23T08:53:24.000Z</time>
      </trkpt>
      <trkpt lat="43.14946" lon="2.34653">
        <ele>193.9</ele>
        <time>2022-01-23T08:53:25.000Z</time>
      </trkpt>
      <trkpt lat="43.14948" lon="2.34652">
        <ele>193.9</ele>
        <time>2022-01-23T08:53:26.000Z</time>
      </trkpt>
      <trkpt lat="43.1495" lon="2.34652">
        <ele>193.9</ele>
        <time>2022-01-23T08:53:27.000Z</time>
      </trkpt>
      <trkpt lat="43.14951" lon="2.34652">
        <ele>193.9</ele>
        <time>2022-01-23T08:53:28.000Z</time>
      </trkpt>
      <trkpt lat="43.14953" lon="2.34651">
        <ele>193.8</ele>
        <time>2022-01-23T08:53:29.000Z</time>
      </trkpt>
      <trkpt lat="43.14955" lon="2.34651">
        <ele>193.7</ele>
        <time>2022-01-23T08:53:30.000Z</time>
      </trkpt>
      <trkpt lat="43.14957" lon="2.34651">
        <ele>193.5</ele>
        <time>2022-01-23T08:53:31.000Z</time>
      </trkpt>
      <trkpt lat="43.14958" lon="2.34651">
        <ele>193.4</ele>
        <time>2022-01-23T08:53:32.000Z</time>
      </trkpt>
      <trkpt lat="43.1496" lon="2.34651">
        <ele>193.3</ele>
        <time>2022-01-23T08:53:33.000Z</time>
      </trkpt>
      <trkpt lat="43.14962" lon="2.34651">
        <ele>193.3</ele>
        <time>2022-01-23T08:53:34.000Z</time>
      </trkpt>
      <trkpt lat="43.14964" lon="2.3465">
        <ele>193.4</ele>
        <time>2022-01-23T08:53:35.000Z</time>
      </trkpt>
      <trkpt lat="43.14966" lon="2.34648">
        <ele>193.6</ele>
        <time>2022-01-23T08:53:36.000Z</time>
      </trkpt>
      <trkpt lat="43.14968" lon="2.34646">
        <ele>193.8</ele>
        <time>2022-01-23T08:53:37.000Z</time>
      </trkpt>
      <trkpt lat="43.1497" lon="2.34645">
        <ele>194.1</ele>
        <time>2022-01-23T08:53:38.000Z</time>
      </trkpt>
      <trkpt lat="43.14972" lon="2.34643">
        <ele>194.4</ele>
        <time>2022-01-23T08:53:39.000Z</time>
      </trkpt>
      <trkpt lat="43.14974" lon="2.34641">
        <ele>194.6</ele>
        <time>2022-01-23T08:53:40.000Z</time>
      </trkpt>
      <trkpt lat="43.14976" lon="2.3464">
        <ele>194.8</ele>
        <time>2022-01-23T08:53:41.000Z</time>
      </trkpt>
      <trkpt lat="43.14978" lon="2.34639">
        <ele>194.9</ele>
        <time>2022-01-23T08:53:42.000Z</time>
      </trkpt>
      <trkpt lat="43.1498" lon="2.34637">
        <ele>195.1</ele>
        <time>2022-01-23T08:53:43.000Z</time>
      </trkpt>
      <trkpt lat="43.14982" lon="2.34636">
        <ele>195.3</ele>
        <time>2022-01-23T08:53:44.000Z</time>
      </trkpt>
      <trkpt lat="43.14983" lon="2.34634">
        <ele>195.5</ele>
        <time>2022-01-23T08:53:45.000Z</time>
      </trkpt>
      <trkpt lat="43.14985" lon="2.34633">
        <ele>195.8</ele>
        <time>2022-01-23T08:53:46.000Z</time>
      </trkpt>
      <trkpt lat="43.14987" lon="2.34631">
        <ele>196</ele>
        <time>2022-01-23T08:53:47.000Z</time>
      </trkpt>
      <trkpt lat="43.14989" lon="2.34629">
        <ele>196.3</ele>
        <time>2022-01-23T08:53:48.000Z</time>
      </trkpt>
      <trkpt lat="43.14991" lon="2.34628">
        <ele>196.5</ele>
        <time>2022-01-23T08:53:49.000Z</time>
      </trkpt>
      <trkpt lat="43.14992" lon="2.34626">
        <ele>196.8</ele>
        <time>2022-01-23T08:53:50.000Z</time>
      </trkpt>
      <trkpt lat="43.14994" lon="2.34624">
        <ele>197.1</ele>
        <time>2022-01-23T08:53:51.000Z</time>
      </trkpt>
      <trkpt lat="43.14996" lon="2.34623">
        <ele>197.4</ele>
        <time>2022-01-23T08:53:52.000Z</time>
      </trkpt>
      <trkpt lat="43.14997" lon="2.34621">
        <ele>197.6</ele>
        <time>2022-01-23T08:53:53.000Z</time>
      </trkpt>
      <trkpt lat="43.14999" lon="2.3462">
        <ele>197.7</ele>
        <time>2022-01-23T08:53:54.000Z</time>
      </trkpt>
      <trkpt lat="43.15001" lon="2.34619">
        <ele>197.8</ele>
        <time>2022-01-23T08:53:55.000Z</time>
      </trkpt>
      <trkpt lat="43.15003" lon="2.34619">
        <ele>197.7</ele>
        <time>2022-01-23T08:53:56.000Z</time>
      </trkpt>
      <trkpt lat="43.15005" lon="2.34618">
        <ele>197.6</ele>
        <time>2022-01-23T08:53:57.000Z</time>
      </trkpt>
      <trkpt lat="43.15007" lon="2.34618">
        <ele>197.4</ele>
        <time>2022-01-23T08:53:58.000Z</time>
      </trkpt>
      <trkpt lat="43.15009" lon="2.34619">
        <ele>197.2</ele>
        <time>2022-01-23T08:53:59.000Z</time>
      </trkpt>
      <trkpt lat="43.15012" lon="2.34619">
        <ele>196.9</ele>
        <time>2022-01-23T08:54:00.000Z</time>
      </trkpt>
      <trkpt lat="43.15014" lon="2.34619">
        <ele>196.7</ele>
        <time>2022-01-23T08:54:01.000Z</time>
      </trkpt>
      <trkpt lat="43.15017" lon="2.34619">
        <ele>196.4</ele>
        <time>2022-01-23T08:54:02.000Z</time>
      </trkpt>
      <trkpt lat="43.1502" lon="2.34619">
        <ele>196.2</ele>
        <time>2022-01-23T08:54:03.000Z</time>
      </trkpt>
      <trkpt lat="43.15023" lon="2.34618">
        <ele>196.1</ele>
        <time>2022-01-23T08:54:04.000Z</time>
      </trkpt>
      <trkpt lat="43.15026" lon="2.34618">
        <ele>195.9</ele>
        <time>2022-01-23T08:54:05.000Z</time>
      </trkpt>
      <trkpt lat="43.15028" lon="2.34617">
        <ele>195.8</ele>
        <time>2022-01-23T08:54:06.000Z</time>
      </trkpt>
      <trkpt lat="43.15031" lon="2.34616">
        <ele>195.7</ele>
        <time>2022-01-23T08:54:07.000Z</time>
      </trkpt>
      <trkpt lat="43.15033" lon="2.34615">
        <ele>195.6</ele>
        <time>2022-01-23T08:54:08.000Z</time>
      </trkpt>
      <trkpt lat="43.15036" lon="2.34614">
        <ele>195.6</ele>
        <time>2022-01-23T08:54:09.000Z</time>
      </trkpt>
      <trkpt lat="43.15038" lon="2.34613">
        <ele>195.4</ele>
        <time>2022-01-23T08:54:10.000Z</time>
      </trkpt>
      <trkpt lat="43.15041" lon="2.34612">
        <ele>195.3</ele>
        <time>2022-01-23T08:54:11.000Z</time>
      </trkpt>
      <trkpt lat="43.15043" lon="2.34612">
        <ele>195.1</ele>
        <time>2022-01-23T08:54:12.000Z</time>
      </trkpt>
      <trkpt lat="43.15046" lon="2.34611">
        <ele>194.9</ele>
        <time>2022-01-23T08:54:13.000Z</time>
      </trkpt>
      <trkpt lat="43.15048" lon="2.34611">
        <ele>194.7</ele>
        <time>2022-01-23T08:54:14.000Z</time>
      </trkpt>
      <trkpt lat="43.15051" lon="2.34611">
        <ele>194.4</ele>
        <time>2022-01-23T08:54:15.000Z</time>
      </trkpt>
      <trkpt lat="43.15054" lon="2.34611">
        <ele>194.1</ele>
        <time>2022-01-23T08:54:16.000Z</time>
      </trkpt>
      <trkpt lat="43.15057" lon="2.34612">
        <ele>193.7</ele>
        <time>2022-01-23T08:54:17.000Z</time>
      </trkpt>
      <trkpt lat="43.15059" lon="2.34612">
        <ele>193.4</ele>
        <time>2022-01-23T08:54:18.000Z</time>
      </trkpt>
      <trkpt lat="43.15062" lon="2.34612">
        <ele>193.2</ele>
        <time>2022-01-23T08:54:19.000Z</time>
      </trkpt>
      <trkpt lat="43.15065" lon="2.34612">
        <ele>192.9</ele>
        <time>2022-01-23T08:54:20.000Z</time>
      </trkpt>
      <trkpt lat="43.15067" lon="2.34611">
        <ele>192.7</ele>
        <time>2022-01-23T08:54:21.000Z</time>
      </trkpt>
      <trkpt lat="43.15069" lon="2.34611">
        <ele>192.5</ele>
        <time>2022-01-23T08:54:22.000Z</time>
      </trkpt>
      <trkpt lat="43.15071" lon="2.34611">
        <ele>192.3</ele>
        <time>2022-01-23T08:54:23.000Z</time>
      </trkpt>
      <trkpt lat="43.15072" lon="2.3461">
        <ele>192.2</ele>
        <time>2022-01-23T08:54:24.000Z</time>
      </trkpt>
      <trkpt lat="43.15073" lon="2.3461">
        <ele>192.1</ele>
        <time>2022-01-23T08:54:25.000Z</time>
      </trkpt>
      <trkpt lat="43.15074" lon="2.3461">
        <ele>192.1</ele>
        <time>2022-01-23T08:54:26.000Z</time>
      </trkpt>
      <trkpt lat="43.15074" lon="2.34609">
        <ele>192.1</ele>
        <time>2022-01-23T08:54:27.000Z</time>
      </trkpt>
      <trkpt lat="43.15075" lon="2.34609">
        <ele>192</ele>
        <time>2022-01-23T08:54:28.000Z</time>
      </trkpt>
      <trkpt lat="43.15075" lon="2.34609">
        <ele>192</ele>
        <time>2022-01-23T08:54:29.000Z</time>
      </trkpt>
      <trkpt lat="43.15075" lon="2.34609">
        <ele>192</ele>
        <time>2022-01-23T08:54:30.000Z</time>
      </trkpt>
      <trkpt lat="43.15075" lon="2.34608">
        <ele>192</ele>
        <time>2022-01-23T08:54:31.000Z</time>
      </trkpt>
      <trkpt lat="43.15075" lon="2.34608">
        <ele>192</ele>
        <time>2022-01-23T08:54:32.000Z</time>
      </trkpt>
      <trkpt lat="43.15075" lon="2.34609">
        <ele>192</ele>
        <time>2022-01-23T08:54:33.000Z</time>
      </trkpt>
      <trkpt lat="43.15075" lon="2.34609">
        <ele>192</ele>
        <time>2022-01-23T08:54:34.000Z</time>
      </trkpt>
      <trkpt lat="43.15075" lon="2.34609">
        <ele>192</ele>
        <time>2022-01-23T08:54:35.000Z</time>
      </trkpt>
      <trkpt lat="43.15075" lon="2.34609">
        <ele>192</ele>
        <time>2022-01-23T08:54:36.000Z</time>
      </trkpt>
      <trkpt lat="43.15076" lon="2.34609">
        <ele>191.9</ele>
        <time>2022-01-23T08:54:37.000Z</time>
      </trkpt>
      <trkpt lat="43.15076" lon="2.34609">
        <ele>191.9</ele>
        <time>2022-01-23T08:54:38.000Z</time>
      </trkpt>
      <trkpt lat="43.15076" lon="2.34608">
        <ele>191.9</ele>
        <time>2022-01-23T08:54:39.000Z</time>
      </trkpt>
      <trkpt lat="43.15077" lon="2.34608">
        <ele>191.9</ele>
        <time>2022-01-23T08:54:40.000Z</time>
      </trkpt>
      <trkpt lat="43.15077" lon="2.34608">
        <ele>191.8</ele>
        <time>2022-01-23T08:54:41.000Z</time>
      </trkpt>
      <trkpt lat="43.15077" lon="2.34608">
        <ele>191.8</ele>
        <time>2022-01-23T08:54:42.000Z</time>
      </trkpt>
      <trkpt lat="43.15078" lon="2.34608">
        <ele>191.7</ele>
        <time>2022-01-23T08:54:43.000Z</time>
      </trkpt>
      <trkpt lat="43.15078" lon="2.34608">
        <ele>191.7</ele>
        <time>2022-01-23T08:54:44.000Z</time>
      </trkpt>
      <trkpt lat="43.15078" lon="2.34608">
        <ele>191.7</ele>
        <time>2022-01-23T08:54:45.000Z</time>
      </trkpt>
      <trkpt lat="43.15078" lon="2.34608">
        <ele>191.7</ele>
        <time>2022-01-23T08:54:46.000Z</time>
      </trkpt>
      <trkpt lat="43.15078" lon="2.34608">
        <ele>191.7</ele>
        <time>2022-01-23T08:54:47.000Z</time>
      </trkpt>
      <trkpt lat="43.15078" lon="2.34608">
        <ele>191.7</ele>
        <time>2022-01-23T08:54:48.000Z</time>
      </trkpt>
      <trkpt lat="43.15079" lon="2.34608">
        <ele>191.7</ele>
        <time>2022-01-23T08:54:49.000Z</time>
      </trkpt>
      <trkpt lat="43.15079" lon="2.34608">
        <ele>191.6</ele>
        <time>2022-01-23T08:54:50.000Z</time>
      </trkpt>
      <trkpt lat="43.15079" lon="2.34608">
        <ele>191.6</ele>
        <time>2022-01-23T08:54:51.000Z</time>
      </trkpt>
      <trkpt lat="43.15079" lon="2.34608">
        <ele>191.6</ele>
        <time>2022-01-23T08:54:52.000Z</time>
      </trkpt>
      <trkpt lat="43.15079" lon="2.34608">
        <ele>191.6</ele>
        <time>2022-01-23T08:54:53.000Z</time>
      </trkpt>
      <trkpt lat="43.15079" lon="2.34608">
        <ele>191.6</ele>
        <time>2022-01-23T08:54:54.000Z</time>
      </trkpt>
      <trkpt lat="43.15079" lon="2.34608">
        <ele>191.6</ele>
        <time>2022-01-23T08:54:55.000Z</time>
      </trkpt>
      <trkpt lat="43.15079" lon="2.34608">
        <ele>191.6</ele>
        <time>2022-01-23T08:54:56.000Z</time>
      </trkpt>
      <trkpt lat="43.15079" lon="2.34608">
        <ele>191.6</ele>
        <time>2022-01-23T08:54:57.000Z</time>
      </trkpt>
      <trkpt lat="43.15079" lon="2.34608">
        <ele>191.6</ele>
        <time>2022-01-23T08:54:58.000Z</time>
      </trkpt>
      <trkpt lat="43.15079" lon="2.34608">
        <ele>191.6</ele>
        <time>2022-01-23T08:54:59.000Z</time>
      </trkpt>
      <trkpt lat="43.15079" lon="2.34608">
        <ele>191.6</ele>
        <time>2022-01-23T08:55:00.000Z</time>
      </trkpt>
      <trkpt lat="43.15079" lon="2.34608">
        <ele>191.6</ele>
        <time>2022-01-23T08:55:01.000Z</time>
      </trkpt>
      <trkpt lat="43.15079" lon="2.34608">
        <ele>191.6</ele>
        <time>2022-01-23T08:55:02.000Z</time>
      </trkpt>
      <trkpt lat="43.15079" lon="2.34608">
        <ele>191.6</ele>
        <time>2022-01-23T08:55:03.000Z</time>
      </trkpt>
      <trkpt lat="43.15079" lon="2.34608">
        <ele>191.6</ele>
        <time>2022-01-23T08:55:04.000Z</time>
      </trkpt>
      <trkpt lat="43.15079" lon="2.34608">
        <ele>191.6</ele>
        <time>2022-01-23T08:55:05.000Z</time>
      </trkpt>
      <trkpt lat="43.15079" lon="2.34608">
        <ele>191.6</ele>
        <time>2022-01-23T08:55:06.000Z</time>
      </trkpt>
      <trkpt lat="43.15079" lon="2.34608">
        <ele>191.6</ele>
        <time>2022-01-23T08:55:07.000Z</time>
      </trkpt>
      <trkpt lat="43.15079" lon="2.34608">
        <ele>191.6</ele>
        <time>2022-01-23T08:55:08.000Z</time>
      </trkpt>
      <trkpt lat="43.15079" lon="2.34608">
        <ele>191.6</ele>
        <time>2022-01-23T08:55:09.000Z</time>
      </trkpt>
      <trkpt lat="43.15079" lon="2.34608">
        <ele>191.6</ele>
        <time>2022-01-23T08:55:10.000Z</time>
      </trkpt>
      <trkpt lat="43.15079" lon="2.34608">
        <ele>191.6</ele>
        <time>2022-01-23T08:55:11.000Z</time>
      </trkpt>
      <trkpt lat="43.15079" lon="2.34608">
        <ele>191.6</ele>
        <time>2022-01-23T08:55:12.000Z</time>
      </trkpt>
      <trkpt lat="43.15079" lon="2.34608">
        <ele>191.6</ele>
        <time>2022-01-23T08:55:13.000Z</time>
      </trkpt>
      <trkpt lat="43.15079" lon="2.34608">
        <ele>191.6</ele>
        <time>2022-01-23T08:55:14.000Z</time>
      </trkpt>
      <trkpt lat="43.15079" lon="2.34608">
        <ele>191.6</ele>
        <time>2022-01-23T08:55:15.000Z</time>
      </trkpt>
      <trkpt lat="43.15079" lon="2.34608">
        <ele>191.6</ele>
        <time>2022-01-23T08:55:16.000Z</time>
      </trkpt>
      <trkpt lat="43.15079" lon="2.34608">
        <ele>191.6</ele>
        <time>2022-01-23T08:55:17.000Z</time>
      </trkpt>
      <trkpt lat="43.15079" lon="2.34608">
        <ele>191.6</ele>
        <time>2022-01-23T08:55:18.000Z</time>
      </trkpt>
      <trkpt lat="43.15079" lon="2.34608">
        <ele>191.6</ele>
        <time>2022-01-23T08:55:19.000Z</time>
      </trkpt>
      <trkpt lat="43.15079" lon="2.34608">
        <ele>191.6</ele>
        <time>2022-01-23T08:55:20.000Z</time>
      </trkpt>
      <trkpt lat="43.15079" lon="2.34608">
        <ele>191.6</ele>
        <time>2022-01-23T08:55:21.000Z</time>
      </trkpt>
      <trkpt lat="43.15079" lon="2.34608">
        <ele>191.6</ele>
        <time>2022-01-23T08:55:22.000Z</time>
      </trkpt>
      <trkpt lat="43.15079" lon="2.34608">
        <ele>191.6</ele>
        <time>2022-01-23T08:55:23.000Z</time>
      </trkpt>
      <trkpt lat="43.15079" lon="2.34608">
        <ele>191.6</ele>
        <time>2022-01-23T08:55:24.000Z</time>
      </trkpt>
      <trkpt lat="43.15079" lon="2.34608">
        <ele>191.6</ele>
        <time>2022-01-23T08:55:25.000Z</time>
      </trkpt>
      <trkpt lat="43.15079" lon="2.34608">
        <ele>191.6</ele>
        <time>2022-01-23T08:55:26.000Z</time>
      </trkpt>
      <trkpt lat="43.15079" lon="2.34608">
        <ele>191.6</ele>
        <time>2022-01-23T08:55:27.000Z</time>
      </trkpt>
      <trkpt lat="43.15079" lon="2.34608">
        <ele>191.6</ele>
        <time>2022-01-23T08:55:28.000Z</time>
      </trkpt>
      <trkpt lat="43.15079" lon="2.34608">
        <ele>191.6</ele>
        <time>2022-01-23T08:55:29.000Z</time>
      </trkpt>
      <trkpt lat="43.15079" lon="2.34608">
        <ele>191.6</ele>
        <time>2022-01-23T08:55:30.000Z</time>
      </trkpt>
      <trkpt lat="43.15079" lon="2.34608">
        <ele>191.6</ele>
        <time>2022-01-23T08:55:31.000Z</time>
      </trkpt>
      <trkpt lat="43.15079" lon="2.34608">
        <ele>191.6</ele>
        <time>2022-01-23T08:55:32.000Z</time>
      </trkpt>
      <trkpt lat="43.15079" lon="2.34608">
        <ele>191.6</ele>
        <time>2022-01-23T08:55:33.000Z</time>
      </trkpt>
      <trkpt lat="43.15079" lon="2.34608">
        <ele>191.6</ele>
        <time>2022-01-23T08:55:34.000Z</time>
      </trkpt>
      <trkpt lat="43.15079" lon="2.34608">
        <ele>191.6</ele>
        <time>2022-01-23T08:55:35.000Z</time>
      </trkpt>
      <trkpt lat="43.15079" lon="2.34608">
        <ele>191.6</ele>
        <time>2022-01-23T08:55:36.000Z</time>
      </trkpt>
      <trkpt lat="43.15079" lon="2.34608">
        <ele>191.6</ele>
        <time>2022-01-23T08:55:37.000Z</time>
      </trkpt>
      <trkpt lat="43.15079" lon="2.34608">
        <ele>191.6</ele>
        <time>2022-01-23T08:55:38.000Z</time>
      </trkpt>
      <trkpt lat="43.15079" lon="2.34608">
        <ele>191.6</ele>
        <time>2022-01-23T08:55:39.000Z</time>
      </trkpt>
      <trkpt lat="43.15079" lon="2.34607">
        <ele>191.6</ele>
        <time>2022-01-23T08:55:40.000Z</time>
      </trkpt>
      <trkpt lat="43.15079" lon="2.34607">
        <ele>191.6</ele>
        <time>2022-01-23T08:55:41.000Z</time>
      </trkpt>
      <trkpt lat="43.15079" lon="2.34606">
        <ele>191.7</ele>
        <time>2022-01-23T08:55:42.000Z</time>
      </trkpt>
      <trkpt lat="43.1508" lon="2.34606">
        <ele>191.6</ele>
        <time>2022-01-23T08:55:43.000Z</time>
      </trkpt>
      <trkpt lat="43.1508" lon="2.34605">
        <ele>191.6</ele>
        <time>2022-01-23T08:55:44.000Z</time>
      </trkpt>
      <trkpt lat="43.15081" lon="2.34605">
        <ele>191.6</ele>
        <time>2022-01-23T08:55:45.000Z</time>
      </trkpt>
      <trkpt lat="43.15081" lon="2.34605">
        <ele>191.5</ele>
        <time>2022-01-23T08:55:46.000Z</time>
      </trkpt>
      <trkpt lat="43.15081" lon="2.34604">
        <ele>191.6</ele>
        <time>2022-01-23T08:55:47.000Z</time>
      </trkpt>
      <trkpt lat="43.15081" lon="2.34604">
        <ele>191.6</ele>
        <time>2022-01-23T08:55:48.000Z</time>
      </trkpt>
      <trkpt lat="43.15081" lon="2.34604">
        <ele>191.6</ele>
        <time>2022-01-23T08:55:49.000Z</time>
      </trkpt>
      <trkpt lat="43.15081" lon="2.34604">
        <ele>191.5</ele>
        <time>2022-01-23T08:55:50.000Z</time>
      </trkpt>
      <trkpt lat="43.15082" lon="2.34604">
        <ele>191.5</ele>
        <time>2022-01-23T08:55:51.000Z</time>
      </trkpt>
      <trkpt lat="43.15083" lon="2.34603">
        <ele>191.4</ele>
        <time>2022-01-23T08:55:52.000Z</time>
      </trkpt>
      <trkpt lat="43.15084" lon="2.34603">
        <ele>191.3</ele>
        <time>2022-01-23T08:55:53.000Z</time>
      </trkpt>
      <trkpt lat="43.15085" lon="2.34602">
        <ele>191.1</ele>
        <time>2022-01-23T08:55:54.000Z</time>
      </trkpt>
      <trkpt lat="43.15087" lon="2.34601">
        <ele>191</ele>
        <time>2022-01-23T08:55:55.000Z</time>
      </trkpt>
      <trkpt lat="43.15088" lon="2.346">
        <ele>190.9</ele>
        <time>2022-01-23T08:55:56.000Z</time>
      </trkpt>
      <trkpt lat="43.1509" lon="2.34598">
        <ele>190.7</ele>
        <time>2022-01-23T08:55:57.000Z</time>
      </trkpt>
      <trkpt lat="43.15091" lon="2.34597">
        <ele>190.6</ele>
        <time>2022-01-23T08:55:58.000Z</time>
      </trkpt>
      <trkpt lat="43.15093" lon="2.34594">
        <ele>190.4</ele>
        <time>2022-01-23T08:55:59.000Z</time>
      </trkpt>
      <trkpt lat="43.15095" lon="2.34592">
        <ele>190.2</ele>
        <time>2022-01-23T08:56:00.000Z</time>
      </trkpt>
      <trkpt lat="43.15097" lon="2.3459">
        <ele>190.1</ele>
        <time>2022-01-23T08:56:01.000Z</time>
      </trkpt>
      <trkpt lat="43.15099" lon="2.34587">
        <ele>189.9</ele>
        <time>2022-01-23T08:56:02.000Z</time>
      </trkpt>
      <trkpt lat="43.15101" lon="2.34585">
        <ele>189.7</ele>
        <time>2022-01-23T08:56:03.000Z</time>
      </trkpt>
      <trkpt lat="43.15103" lon="2.34582">
        <ele>189.7</ele>
        <time>2022-01-23T08:56:04.000Z</time>
      </trkpt>
      <trkpt lat="43.15105" lon="2.3458">
        <ele>190.1</ele>
        <time>2022-01-23T08:56:05.000Z</time>
      </trkpt>
      <trkpt lat="43.15107" lon="2.34578">
        <ele>190.5</ele>
        <time>2022-01-23T08:56:06.000Z</time>
      </trkpt>
      <trkpt lat="43.15109" lon="2.34576">
        <ele>190.7</ele>
        <time>2022-01-23T08:56:07.000Z</time>
      </trkpt>
      <trkpt lat="43.15112" lon="2.34575">
        <ele>190.9</ele>
        <time>2022-01-23T08:56:08.000Z</time>
      </trkpt>
      <trkpt lat="43.15114" lon="2.34573">
        <ele>191.1</ele>
        <time>2022-01-23T08:56:09.000Z</time>
      </trkpt>
      <trkpt lat="43.15116" lon="2.34571">
        <ele>191.2</ele>
        <time>2022-01-23T08:56:10.000Z</time>
      </trkpt>
      <trkpt lat="43.15119" lon="2.3457">
        <ele>191.3</ele>
        <time>2022-01-23T08:56:11.000Z</time>
      </trkpt>
      <trkpt lat="43.15121" lon="2.34568">
        <ele>191.4</ele>
        <time>2022-01-23T08:56:12.000Z</time>
      </trkpt>
      <trkpt lat="43.15123" lon="2.34567">
        <ele>191.5</ele>
        <time>2022-01-23T08:56:13.000Z</time>
      </trkpt>
      <trkpt lat="43.15126" lon="2.34565">
        <ele>191.6</ele>
        <time>2022-01-23T08:56:14.000Z</time>
      </trkpt>
      <trkpt lat="43.15128" lon="2.34564">
        <ele>191.8</ele>
        <time>2022-01-23T08:56:15.000Z</time>
      </trkpt>
      <trkpt lat="43.1513" lon="2.34562">
        <ele>191.9</ele>
        <time>2022-01-23T08:56:16.000Z</time>
      </trkpt>
      <trkpt lat="43.15132" lon="2.3456">
        <ele>192.1</ele>
        <time>2022-01-23T08:56:17.000Z</time>
      </trkpt>
      <trkpt lat="43.15135" lon="2.34558">
        <ele>192.3</ele>
        <time>2022-01-23T08:56:18.000Z</time>
      </trkpt>
      <trkpt lat="43.15137" lon="2.34556">
        <ele>192.5</ele>
        <time>2022-01-23T08:56:19.000Z</time>
      </trkpt>
      <trkpt lat="43.15139" lon="2.34554">
        <ele>192.7</ele>
        <time>2022-01-23T08:56:20.000Z</time>
      </trkpt>
      <trkpt lat="43.15141" lon="2.34552">
        <ele>192.8</ele>
        <time>2022-01-23T08:56:21.000Z</time>
      </trkpt>
      <trkpt lat="43.15143" lon="2.3455">
        <ele>193</ele>
        <time>2022-01-23T08:56:22.000Z</time>
      </trkpt>
      <trkpt lat="43.15145" lon="2.34549">
        <ele>193</ele>
        <time>2022-01-23T08:56:23.000Z</time>
      </trkpt>
      <trkpt lat="43.15147" lon="2.34547">
        <ele>193.1</ele>
        <time>2022-01-23T08:56:24.000Z</time>
      </trkpt>
      <trkpt lat="43.15149" lon="2.34546">
        <ele>193.1</ele>
        <time>2022-01-23T08:56:25.000Z</time>
      </trkpt>
      <trkpt lat="43.15151" lon="2.34545">
        <ele>193</ele>
        <time>2022-01-23T08:56:26.000Z</time>
      </trkpt>
      <trkpt lat="43.15153" lon="2.34545">
        <ele>192.8</ele>
        <time>2022-01-23T08:56:27.000Z</time>
      </trkpt>
      <trkpt lat="43.15154" lon="2.34545">
        <ele>192.4</ele>
        <time>2022-01-23T08:56:28.000Z</time>
      </trkpt>
      <trkpt lat="43.15156" lon="2.34545">
        <ele>192</ele>
        <time>2022-01-23T08:56:29.000Z</time>
      </trkpt>
      <trkpt lat="43.15159" lon="2.34546">
        <ele>191.5</ele>
        <time>2022-01-23T08:56:30.000Z</time>
      </trkpt>
      <trkpt lat="43.15161" lon="2.34546">
        <ele>191</ele>
        <time>2022-01-23T08:56:31.000Z</time>
      </trkpt>
      <trkpt lat="43.15163" lon="2.34546">
        <ele>190.6</ele>
        <time>2022-01-23T08:56:32.000Z</time>
      </trkpt>
      <trkpt lat="43.15165" lon="2.34546">
        <ele>190.2</ele>
        <time>2022-01-23T08:56:33.000Z</time>
      </trkpt>
      <trkpt lat="43.15168" lon="2.34546">
        <ele>189.9</ele>
        <time>2022-01-23T08:56:34.000Z</time>
      </trkpt>
      <trkpt lat="43.1517" lon="2.34546">
        <ele>189.7</ele>
        <time>2022-01-23T08:56:35.000Z</time>
      </trkpt>
      <trkpt lat="43.15172" lon="2.34545">
        <ele>189.6</ele>
        <time>2022-01-23T08:56:36.000Z</time>
      </trkpt>
      <trkpt lat="43.15175" lon="2.34545">
        <ele>189.4</ele>
        <time>2022-01-23T08:56:37.000Z</time>
      </trkpt>
      <trkpt lat="43.15177" lon="2.34544">
        <ele>189.3</ele>
        <time>2022-01-23T08:56:38.000Z</time>
      </trkpt>
      <trkpt lat="43.1518" lon="2.34543">
        <ele>189.1</ele>
        <time>2022-01-23T08:56:39.000Z</time>
      </trkpt>
      <trkpt lat="43.15182" lon="2.34543">
        <ele>189</ele>
        <time>2022-01-23T08:56:40.000Z</time>
      </trkpt>
      <trkpt lat="43.15185" lon="2.34542">
        <ele>188.9</ele>
        <time>2022-01-23T08:56:41.000Z</time>
      </trkpt>
      <trkpt lat="43.15187" lon="2.34542">
        <ele>188.7</ele>
        <time>2022-01-23T08:56:42.000Z</time>
      </trkpt>
      <trkpt lat="43.15189" lon="2.34541">
        <ele>188.5</ele>
        <time>2022-01-23T08:56:43.000Z</time>
      </trkpt>
      <trkpt lat="43.15192" lon="2.34541">
        <ele>188.4</ele>
        <time>2022-01-23T08:56:44.000Z</time>
      </trkpt>
      <trkpt lat="43.15194" lon="2.3454">
        <ele>188.2</ele>
        <time>2022-01-23T08:56:45.000Z</time>
      </trkpt>
      <trkpt lat="43.15196" lon="2.3454">
        <ele>188</ele>
        <time>2022-01-23T08:56:46.000Z</time>
      </trkpt>
      <trkpt lat="43.15199" lon="2.3454">
        <ele>187.8</ele>
        <time>2022-01-23T08:56:47.000Z</time>
      </trkpt>
      <trkpt lat="43.15201" lon="2.34539">
        <ele>187.5</ele>
        <time>2022-01-23T08:56:48.000Z</time>
      </trkpt>
      <trkpt lat="43.15203" lon="2.34539">
        <ele>187.3</ele>
        <time>2022-01-23T08:56:49.000Z</time>
      </trkpt>
      <trkpt lat="43.15205" lon="2.34539">
        <ele>187</ele>
        <time>2022-01-23T08:56:50.000Z</time>
      </trkpt>
      <trkpt lat="43.15208" lon="2.34539">
        <ele>186.7</ele>
        <time>2022-01-23T08:56:51.000Z</time>
      </trkpt>
      <trkpt lat="43.1521" lon="2.34539">
        <ele>186.5</ele>
        <time>2022-01-23T08:56:52.000Z</time>
      </trkpt>
      <trkpt lat="43.15212" lon="2.34539">
        <ele>186.2</ele>
        <time>2022-01-23T08:56:53.000Z</time>
      </trkpt>
      <trkpt lat="43.15215" lon="2.34539">
        <ele>185.9</ele>
        <time>2022-01-23T08:56:54.000Z</time>
      </trkpt>
      <trkpt lat="43.15217" lon="2.34539">
        <ele>185.6</ele>
        <time>2022-01-23T08:56:55.000Z</time>
      </trkpt>
      <trkpt lat="43.15219" lon="2.34539">
        <ele>185.4</ele>
        <time>2022-01-23T08:56:56.000Z</time>
      </trkpt>
      <trkpt lat="43.15222" lon="2.34539">
        <ele>185.1</ele>
        <time>2022-01-23T08:56:57.000Z</time>
      </trkpt>
      <trkpt lat="43.15225" lon="2.34538">
        <ele>184.9</ele>
        <time>2022-01-23T08:56:58.000Z</time>
      </trkpt>
      <trkpt lat="43.15227" lon="2.34538">
        <ele>184.7</ele>
        <time>2022-01-23T08:56:59.000Z</time>
      </trkpt>
      <trkpt lat="43.1523" lon="2.34537">
        <ele>184.4</ele>
        <time>2022-01-23T08:57:00.000Z</time>
      </trkpt>
      <trkpt lat="43.15232" lon="2.34537">
        <ele>184.2</ele>
        <time>2022-01-23T08:57:01.000Z</time>
      </trkpt>
      <trkpt lat="43.15234" lon="2.34536">
        <ele>184.1</ele>
        <time>2022-01-23T08:57:02.000Z</time>
      </trkpt>
      <trkpt lat="43.15237" lon="2.34535">
        <ele>183.9</ele>
        <time>2022-01-23T08:57:03.000Z</time>
      </trkpt>
      <trkpt lat="43.15239" lon="2.34534">
        <ele>183.8</ele>
        <time>2022-01-23T08:57:04.000Z</time>
      </trkpt>
      <trkpt lat="43.1524" lon="2.34533">
        <ele>183.7</ele>
        <time>2022-01-23T08:57:05.000Z</time>
      </trkpt>
      <trkpt lat="43.15241" lon="2.34532">
        <ele>183.6</ele>
        <time>2022-01-23T08:57:06.000Z</time>
      </trkpt>
      <trkpt lat="43.15242" lon="2.34532">
        <ele>183.6</ele>
        <time>2022-01-23T08:57:07.000Z</time>
      </trkpt>
      <trkpt lat="43.15243" lon="2.34531">
        <ele>183.6</ele>
        <time>2022-01-23T08:57:08.000Z</time>
      </trkpt>
      <trkpt lat="43.15244" lon="2.34531">
        <ele>183.5</ele>
        <time>2022-01-23T08:57:09.000Z</time>
      </trkpt>
      <trkpt lat="43.15244" lon="2.34531">
        <ele>183.5</ele>
        <time>2022-01-23T08:57:10.000Z</time>
      </trkpt>
      <trkpt lat="43.15244" lon="2.34531">
        <ele>183.4</ele>
        <time>2022-01-23T08:57:11.000Z</time>
      </trkpt>
      <trkpt lat="43.15245" lon="2.34531">
        <ele>183.4</ele>
        <time>2022-01-23T08:57:12.000Z</time>
      </trkpt>
      <trkpt lat="43.15245" lon="2.34532">
        <ele>183.3</ele>
        <time>2022-01-23T08:57:13.000Z</time>
      </trkpt>
      <trkpt lat="43.15245" lon="2.34532">
        <ele>183.2</ele>
        <time>2022-01-23T08:57:14.000Z</time>
      </trkpt>
      <trkpt lat="43.15246" lon="2.34532">
        <ele>183.2</ele>
        <time>2022-01-23T08:57:15.000Z</time>
      </trkpt>
      <trkpt lat="43.15246" lon="2.34531">
        <ele>183.2</ele>
        <time>2022-01-23T08:57:16.000Z</time>
      </trkpt>
      <trkpt lat="43.15246" lon="2.34531">
        <ele>183.2</ele>
        <time>2022-01-23T08:57:17.000Z</time>
      </trkpt>
      <trkpt lat="43.15247" lon="2.3453">
        <ele>183.2</ele>
        <time>2022-01-23T08:57:18.000Z</time>
      </trkpt>
      <trkpt lat="43.15247" lon="2.34529">
        <ele>183.3</ele>
        <time>2022-01-23T08:57:19.000Z</time>
      </trkpt>
      <trkpt lat="43.15248" lon="2.34528">
        <ele>183.3</ele>
        <time>2022-01-23T08:57:20.000Z</time>
      </trkpt>
      <trkpt lat="43.15249" lon="2.34527">
        <ele>183.3</ele>
        <time>2022-01-23T08:57:21.000Z</time>
      </trkpt>
      <trkpt lat="43.15249" lon="2.34526">
        <ele>183.3</ele>
        <time>2022-01-23T08:57:22.000Z</time>
      </trkpt>
      <trkpt lat="43.1525" lon="2.34526">
        <ele>183.3</ele>
        <time>2022-01-23T08:57:23.000Z</time>
      </trkpt>
      <trkpt lat="43.15251" lon="2.34525">
        <ele>183.2</ele>
        <time>2022-01-23T08:57:24.000Z</time>
      </trkpt>
      <trkpt lat="43.15251" lon="2.34525">
        <ele>183.2</ele>
        <time>2022-01-23T08:57:25.000Z</time>
      </trkpt>
      <trkpt lat="43.15252" lon="2.34525">
        <ele>183.2</ele>
        <time>2022-01-23T08:57:26.000Z</time>
      </trkpt>
      <trkpt lat="43.15253" lon="2.34525">
        <ele>183.1</ele>
        <time>2022-01-23T08:57:27.000Z</time>
      </trkpt>
      <trkpt lat="43.15254" lon="2.34525">
        <ele>183.1</ele>
        <time>2022-01-23T08:57:28.000Z</time>
      </trkpt>
      <trkpt lat="43.15255" lon="2.34524">
        <ele>183</ele>
        <time>2022-01-23T08:57:29.000Z</time>
      </trkpt>
      <trkpt lat="43.15256" lon="2.34524">
        <ele>182.9</ele>
        <time>2022-01-23T08:57:30.000Z</time>
      </trkpt>
      <trkpt lat="43.15256" lon="2.34524">
        <ele>182.9</ele>
        <time>2022-01-23T08:57:31.000Z</time>
      </trkpt>
      <trkpt lat="43.15257" lon="2.34524">
        <ele>182.8</ele>
        <time>2022-01-23T08:57:32.000Z</time>
      </trkpt>
      <trkpt lat="43.15258" lon="2.34524">
        <ele>182.8</ele>
        <time>2022-01-23T08:57:33.000Z</time>
      </trkpt>
      <trkpt lat="43.15259" lon="2.34524">
        <ele>182.7</ele>
        <time>2022-01-23T08:57:34.000Z</time>
      </trkpt>
      <trkpt lat="43.15259" lon="2.34524">
        <ele>182.7</ele>
        <time>2022-01-23T08:57:35.000Z</time>
      </trkpt>
      <trkpt lat="43.1526" lon="2.34524">
        <ele>182.6</ele>
        <time>2022-01-23T08:57:36.000Z</time>
      </trkpt>
      <trkpt lat="43.15261" lon="2.34524">
        <ele>182.6</ele>
        <time>2022-01-23T08:57:37.000Z</time>
      </trkpt>
      <trkpt lat="43.15261" lon="2.34524">
        <ele>182.5</ele>
        <time>2022-01-23T08:57:38.000Z</time>
      </trkpt>
      <trkpt lat="43.15262" lon="2.34524">
        <ele>182.5</ele>
        <time>2022-01-23T08:57:39.000Z</time>
      </trkpt>
      <trkpt lat="43.15263" lon="2.34524">
        <ele>182.4</ele>
        <time>2022-01-23T08:57:40.000Z</time>
      </trkpt>
      <trkpt lat="43.15264" lon="2.34523">
        <ele>182.4</ele>
        <time>2022-01-23T08:57:41.000Z</time>
      </trkpt>
      <trkpt lat="43.15265" lon="2.34523">
        <ele>182.3</ele>
        <time>2022-01-23T08:57:42.000Z</time>
      </trkpt>
      <trkpt lat="43.15265" lon="2.34524">
        <ele>182.2</ele>
        <time>2022-01-23T08:57:43.000Z</time>
      </trkpt>
      <trkpt lat="43.15266" lon="2.34524">
        <ele>182.2</ele>
        <time>2022-01-23T08:57:44.000Z</time>
      </trkpt>
      <trkpt lat="43.15267" lon="2.34524">
        <ele>182</ele>
        <time>2022-01-23T08:57:45.000Z</time>
      </trkpt>
      <trkpt lat="43.15269" lon="2.34524">
        <ele>181.9</ele>
        <time>2022-01-23T08:57:46.000Z</time>
      </trkpt>
      <trkpt lat="43.1527" lon="2.34525">
        <ele>181.8</ele>
        <time>2022-01-23T08:57:47.000Z</time>
      </trkpt>
      <trkpt lat="43.15271" lon="2.34526">
        <ele>181.6</ele>
        <time>2022-01-23T08:57:48.000Z</time>
      </trkpt>
      <trkpt lat="43.15273" lon="2.34527">
        <ele>181.4</ele>
        <time>2022-01-23T08:57:49.000Z</time>
      </trkpt>
      <trkpt lat="43.15274" lon="2.34528">
        <ele>181.2</ele>
        <time>2022-01-23T08:57:50.000Z</time>
      </trkpt>
      <trkpt lat="43.15276" lon="2.34529">
        <ele>180.9</ele>
        <time>2022-01-23T08:57:51.000Z</time>
      </trkpt>
      <trkpt lat="43.15278" lon="2.3453">
        <ele>180.7</ele>
        <time>2022-01-23T08:57:52.000Z</time>
      </trkpt>
      <trkpt lat="43.1528" lon="2.34531">
        <ele>180.5</ele>
        <time>2022-01-23T08:57:53.000Z</time>
      </trkpt>
      <trkpt lat="43.15282" lon="2.34532">
        <ele>180.3</ele>
        <time>2022-01-23T08:57:54.000Z</time>
      </trkpt>
      <trkpt lat="43.15284" lon="2.34533">
        <ele>180</ele>
        <time>2022-01-23T08:57:55.000Z</time>
      </trkpt>
      <trkpt lat="43.15286" lon="2.34533">
        <ele>179.9</ele>
        <time>2022-01-23T08:57:56.000Z</time>
      </trkpt>
      <trkpt lat="43.15288" lon="2.34533">
        <ele>179.7</ele>
        <time>2022-01-23T08:57:57.000Z</time>
      </trkpt>
      <trkpt lat="43.1529" lon="2.34533">
        <ele>179.6</ele>
        <time>2022-01-23T08:57:58.000Z</time>
      </trkpt>
      <trkpt lat="43.15292" lon="2.34532">
        <ele>179.5</ele>
        <time>2022-01-23T08:57:59.000Z</time>
      </trkpt>
      <trkpt lat="43.15294" lon="2.34531">
        <ele>179.4</ele>
        <time>2022-01-23T08:58:00.000Z</time>
      </trkpt>
      <trkpt lat="43.15296" lon="2.3453">
        <ele>179.3</ele>
        <time>2022-01-23T08:58:01.000Z</time>
      </trkpt>
      <trkpt lat="43.15298" lon="2.34529">
        <ele>179.3</ele>
        <time>2022-01-23T08:58:02.000Z</time>
      </trkpt>
      <trkpt lat="43.153" lon="2.34527">
        <ele>179.2</ele>
        <time>2022-01-23T08:58:03.000Z</time>
      </trkpt>
      <trkpt lat="43.15302" lon="2.34525">
        <ele>179.2</ele>
        <time>2022-01-23T08:58:04.000Z</time>
      </trkpt>
      <trkpt lat="43.15304" lon="2.34524">
        <ele>179.2</ele>
        <time>2022-01-23T08:58:05.000Z</time>
      </trkpt>
      <trkpt lat="43.15306" lon="2.34522">
        <ele>179.2</ele>
        <time>2022-01-23T08:58:06.000Z</time>
      </trkpt>
      <trkpt lat="43.15308" lon="2.3452">
        <ele>179.1</ele>
        <time>2022-01-23T08:58:07.000Z</time>
      </trkpt>
      <trkpt lat="43.1531" lon="2.34518">
        <ele>179.1</ele>
        <time>2022-01-23T08:58:08.000Z</time>
      </trkpt>
      <trkpt lat="43.15311" lon="2.34516">
        <ele>179.1</ele>
        <time>2022-01-23T08:58:09.000Z</time>
      </trkpt>
      <trkpt lat="43.15313" lon="2.34513">
        <ele>179.1</ele>
        <time>2022-01-23T08:58:10.000Z</time>
      </trkpt>
      <trkpt lat="43.15315" lon="2.34511">
        <ele>179.1</ele>
        <time>2022-01-23T08:58:11.000Z</time>
      </trkpt>
      <trkpt lat="43.15317" lon="2.34509">
        <ele>179.1</ele>
        <time>2022-01-23T08:58:12.000Z</time>
      </trkpt>
      <trkpt lat="43.15318" lon="2.34507">
        <ele>179</ele>
        <time>2022-01-23T08:58:13.000Z</time>
      </trkpt>
      <trkpt lat="43.1532" lon="2.34504">
        <ele>179</ele>
        <time>2022-01-23T08:58:14.000Z</time>
      </trkpt>
      <trkpt lat="43.15322" lon="2.34502">
        <ele>179</ele>
        <time>2022-01-23T08:58:15.000Z</time>
      </trkpt>
      <trkpt lat="43.15323" lon="2.345">
        <ele>179</ele>
        <time>2022-01-23T08:58:16.000Z</time>
      </trkpt>
      <trkpt lat="43.15325" lon="2.34497">
        <ele>179.3</ele>
        <time>2022-01-23T08:58:17.000Z</time>
      </trkpt>
      <trkpt lat="43.15327" lon="2.34495">
        <ele>179.5</ele>
        <time>2022-01-23T08:58:18.000Z</time>
      </trkpt>
      <trkpt lat="43.15328" lon="2.34492">
        <ele>179.8</ele>
        <time>2022-01-23T08:58:19.000Z</time>
      </trkpt>
      <trkpt lat="43.1533" lon="2.3449">
        <ele>180</ele>
        <time>2022-01-23T08:58:20.000Z</time>
      </trkpt>
      <trkpt lat="43.15331" lon="2.34487">
        <ele>180.3</ele>
        <time>2022-01-23T08:58:21.000Z</time>
      </trkpt>
      <trkpt lat="43.15333" lon="2.34485">
        <ele>180.6</ele>
        <time>2022-01-23T08:58:22.000Z</time>
      </trkpt>
      <trkpt lat="43.15335" lon="2.34482">
        <ele>180.9</ele>
        <time>2022-01-23T08:58:23.000Z</time>
      </trkpt>
      <trkpt lat="43.15336" lon="2.3448">
        <ele>181.2</ele>
        <time>2022-01-23T08:58:24.000Z</time>
      </trkpt>
      <trkpt lat="43.15337" lon="2.34477">
        <ele>181.6</ele>
        <time>2022-01-23T08:58:25.000Z</time>
      </trkpt>
      <trkpt lat="43.15339" lon="2.34474">
        <ele>182</ele>
        <time>2022-01-23T08:58:26.000Z</time>
      </trkpt>
      <trkpt lat="43.1534" lon="2.34471">
        <ele>182.5</ele>
        <time>2022-01-23T08:58:27.000Z</time>
      </trkpt>
      <trkpt lat="43.15341" lon="2.34467">
        <ele>183.1</ele>
        <time>2022-01-23T08:58:28.000Z</time>
      </trkpt>
      <trkpt lat="43.15342" lon="2.34463">
        <ele>183.7</ele>
        <time>2022-01-23T08:58:29.000Z</time>
      </trkpt>
      <trkpt lat="43.15343" lon="2.34459">
        <ele>184.2</ele>
        <time>2022-01-23T08:58:30.000Z</time>
      </trkpt>
      <trkpt lat="43.15344" lon="2.34455">
        <ele>184.7</ele>
        <time>2022-01-23T08:58:31.000Z</time>
      </trkpt>
      <trkpt lat="43.15345" lon="2.34452">
        <ele>185.2</ele>
        <time>2022-01-23T08:58:32.000Z</time>
      </trkpt>
      <trkpt lat="43.15346" lon="2.34449">
        <ele>185.5</ele>
        <time>2022-01-23T08:58:33.000Z</time>
      </trkpt>
      <trkpt lat="43.15347" lon="2.34447">
        <ele>185.7</ele>
        <time>2022-01-23T08:58:34.000Z</time>
      </trkpt>
      <trkpt lat="43.15349" lon="2.34445">
        <ele>185.9</ele>
        <time>2022-01-23T08:58:35.000Z</time>
      </trkpt>
      <trkpt lat="43.1535" lon="2.34443">
        <ele>186</ele>
        <time>2022-01-23T08:58:36.000Z</time>
      </trkpt>
      <trkpt lat="43.15352" lon="2.34442">
        <ele>186</ele>
        <time>2022-01-23T08:58:37.000Z</time>
      </trkpt>
      <trkpt lat="43.15354" lon="2.34441">
        <ele>185.9</ele>
        <time>2022-01-23T08:58:38.000Z</time>
      </trkpt>
      <trkpt lat="43.15356" lon="2.3444">
        <ele>185.9</ele>
        <time>2022-01-23T08:58:39.000Z</time>
      </trkpt>
      <trkpt lat="43.15358" lon="2.3444">
        <ele>185.7</ele>
        <time>2022-01-23T08:58:40.000Z</time>
      </trkpt>
      <trkpt lat="43.1536" lon="2.3444">
        <ele>185.6</ele>
        <time>2022-01-23T08:58:41.000Z</time>
      </trkpt>
      <trkpt lat="43.15362" lon="2.3444">
        <ele>185.4</ele>
        <time>2022-01-23T08:58:42.000Z</time>
      </trkpt>
      <trkpt lat="43.15364" lon="2.3444">
        <ele>185.2</ele>
        <time>2022-01-23T08:58:43.000Z</time>
      </trkpt>
      <trkpt lat="43.15366" lon="2.3444">
        <ele>185</ele>
        <time>2022-01-23T08:58:44.000Z</time>
      </trkpt>
      <trkpt lat="43.15368" lon="2.3444">
        <ele>184.8</ele>
        <time>2022-01-23T08:58:45.000Z</time>
      </trkpt>
      <trkpt lat="43.1537" lon="2.3444">
        <ele>184.6</ele>
        <time>2022-01-23T08:58:46.000Z</time>
      </trkpt>
      <trkpt lat="43.15372" lon="2.3444">
        <ele>184.3</ele>
        <time>2022-01-23T08:58:47.000Z</time>
      </trkpt>
      <trkpt lat="43.15375" lon="2.3444">
        <ele>184.1</ele>
        <time>2022-01-23T08:58:48.000Z</time>
      </trkpt>
      <trkpt lat="43.15377" lon="2.34439">
        <ele>184</ele>
        <time>2022-01-23T08:58:49.000Z</time>
      </trkpt>
      <trkpt lat="43.15379" lon="2.34439">
        <ele>183.8</ele>
        <time>2022-01-23T08:58:50.000Z</time>
      </trkpt>
      <trkpt lat="43.15381" lon="2.34439">
        <ele>183.7</ele>
        <time>2022-01-23T08:58:51.000Z</time>
      </trkpt>
      <trkpt lat="43.15383" lon="2.34438">
        <ele>183.5</ele>
        <time>2022-01-23T08:58:52.000Z</time>
      </trkpt>
      <trkpt lat="43.15385" lon="2.34437">
        <ele>183.4</ele>
        <time>2022-01-23T08:58:53.000Z</time>
      </trkpt>
      <trkpt lat="43.15387" lon="2.34436">
        <ele>183.3</ele>
        <time>2022-01-23T08:58:54.000Z</time>
      </trkpt>
      <trkpt lat="43.15389" lon="2.34435">
        <ele>183.3</ele>
        <time>2022-01-23T08:58:55.000Z</time>
      </trkpt>
      <trkpt lat="43.15391" lon="2.34434">
        <ele>183.2</ele>
        <time>2022-01-23T08:58:56.000Z</time>
      </trkpt>
      <trkpt lat="43.15393" lon="2.34432">
        <ele>183.2</ele>
        <time>2022-01-23T08:58:57.000Z</time>
      </trkpt>
      <trkpt lat="43.15394" lon="2.34431">
        <ele>183.2</ele>
        <time>2022-01-23T08:58:58.000Z</time>
      </trkpt>
      <trkpt lat="43.15396" lon="2.34429">
        <ele>183.3</ele>
        <time>2022-01-23T08:58:59.000Z</time>
      </trkpt>
      <trkpt lat="43.15397" lon="2.34427">
        <ele>183.3</ele>
        <time>2022-01-23T08:59:00.000Z</time>
      </trkpt>
      <trkpt lat="43.15399" lon="2.34425">
        <ele>183.3</ele>
        <time>2022-01-23T08:59:01.000Z</time>
      </trkpt>
      <trkpt lat="43.154" lon="2.34423">
        <ele>183.4</ele>
        <time>2022-01-23T08:59:02.000Z</time>
      </trkpt>
      <trkpt lat="43.15401" lon="2.3442">
        <ele>183.5</ele>
        <time>2022-01-23T08:59:03.000Z</time>
      </trkpt>
      <trkpt lat="43.15403" lon="2.34418">
        <ele>183.5</ele>
        <time>2022-01-23T08:59:04.000Z</time>
      </trkpt>
      <trkpt lat="43.15404" lon="2.34416">
        <ele>183.6</ele>
        <time>2022-01-23T08:59:05.000Z</time>
      </trkpt>
      <trkpt lat="43.15406" lon="2.34413">
        <ele>183.8</ele>
        <time>2022-01-23T08:59:06.000Z</time>
      </trkpt>
      <trkpt lat="43.15407" lon="2.34411">
        <ele>183.9</ele>
        <time>2022-01-23T08:59:07.000Z</time>
      </trkpt>
      <trkpt lat="43.15409" lon="2.34409">
        <ele>184</ele>
        <time>2022-01-23T08:59:08.000Z</time>
      </trkpt>
      <trkpt lat="43.15411" lon="2.34406">
        <ele>184.2</ele>
        <time>2022-01-23T08:59:09.000Z</time>
      </trkpt>
      <trkpt lat="43.15412" lon="2.34404">
        <ele>184.3</ele>
        <time>2022-01-23T08:59:10.000Z</time>
      </trkpt>
      <trkpt lat="43.15414" lon="2.34401">
        <ele>184.4</ele>
        <time>2022-01-23T08:59:11.000Z</time>
      </trkpt>
      <trkpt lat="43.15415" lon="2.34399">
        <ele>184.5</ele>
        <time>2022-01-23T08:59:12.000Z</time>
      </trkpt>
      <trkpt lat="43.15417" lon="2.34396">
        <ele>184.7</ele>
        <time>2022-01-23T08:59:13.000Z</time>
      </trkpt>
      <trkpt lat="43.15418" lon="2.34394">
        <ele>184.9</ele>
        <time>2022-01-23T08:59:14.000Z</time>
      </trkpt>
      <trkpt lat="43.1542" lon="2.34392">
        <ele>185.1</ele>
        <time>2022-01-23T08:59:15.000Z</time>
      </trkpt>
      <trkpt lat="43.15421" lon="2.34389">
        <ele>185.3</ele>
        <time>2022-01-23T08:59:16.000Z</time>
      </trkpt>
      <trkpt lat="43.15422" lon="2.34387">
        <ele>185.6</ele>
        <time>2022-01-23T08:59:17.000Z</time>
      </trkpt>
      <trkpt lat="43.15423" lon="2.34384">
        <ele>185.8</ele>
        <time>2022-01-23T08:59:18.000Z</time>
      </trkpt>
      <trkpt lat="43.15424" lon="2.34382">
        <ele>186.1</ele>
        <time>2022-01-23T08:59:19.000Z</time>
      </trkpt>
      <trkpt lat="43.15425" lon="2.34379">
        <ele>186.4</ele>
        <time>2022-01-23T08:59:20.000Z</time>
      </trkpt>
      <trkpt lat="43.15426" lon="2.34376">
        <ele>186.8</ele>
        <time>2022-01-23T08:59:21.000Z</time>
      </trkpt>
      <trkpt lat="43.15427" lon="2.34373">
        <ele>187.1</ele>
        <time>2022-01-23T08:59:22.000Z</time>
      </trkpt>
      <trkpt lat="43.15428" lon="2.3437">
        <ele>187.5</ele>
        <time>2022-01-23T08:59:23.000Z</time>
      </trkpt>
      <trkpt lat="43.15429" lon="2.34366">
        <ele>187.9</ele>
        <time>2022-01-23T08:59:24.000Z</time>
      </trkpt>
      <trkpt lat="43.1543" lon="2.34363">
        <ele>188.3</ele>
        <time>2022-01-23T08:59:25.000Z</time>
      </trkpt>
      <trkpt lat="43.15431" lon="2.34359">
        <ele>188.7</ele>
        <time>2022-01-23T08:59:26.000Z</time>
      </trkpt>
      <trkpt lat="43.15432" lon="2.34356">
        <ele>189.1</ele>
        <time>2022-01-23T08:59:27.000Z</time>
      </trkpt>
      <trkpt lat="43.15434" lon="2.34352">
        <ele>189.5</ele>
        <time>2022-01-23T08:59:28.000Z</time>
      </trkpt>
      <trkpt lat="43.15435" lon="2.34349">
        <ele>189.9</ele>
        <time>2022-01-23T08:59:29.000Z</time>
      </trkpt>
      <trkpt lat="43.15436" lon="2.34346">
        <ele>190.3</ele>
        <time>2022-01-23T08:59:30.000Z</time>
      </trkpt>
      <trkpt lat="43.15438" lon="2.34344">
        <ele>190.6</ele>
        <time>2022-01-23T08:59:31.000Z</time>
      </trkpt>
      <trkpt lat="43.15439" lon="2.34341">
        <ele>190.8</ele>
        <time>2022-01-23T08:59:32.000Z</time>
      </trkpt>
      <trkpt lat="43.15441" lon="2.34339">
        <ele>191</ele>
        <time>2022-01-23T08:59:33.000Z</time>
      </trkpt>
      <trkpt lat="43.15443" lon="2.34337">
        <ele>191.2</ele>
        <time>2022-01-23T08:59:34.000Z</time>
      </trkpt>
      <trkpt lat="43.15444" lon="2.34336">
        <ele>191.3</ele>
        <time>2022-01-23T08:59:35.000Z</time>
      </trkpt>
      <trkpt lat="43.15446" lon="2.34335">
        <ele>191.4</ele>
        <time>2022-01-23T08:59:36.000Z</time>
      </trkpt>
      <trkpt lat="43.15448" lon="2.34333">
        <ele>191.5</ele>
        <time>2022-01-23T08:59:37.000Z</time>
      </trkpt>
      <trkpt lat="43.1545" lon="2.34333">
        <ele>191.5</ele>
        <time>2022-01-23T08:59:38.000Z</time>
      </trkpt>
      <trkpt lat="43.15452" lon="2.34332">
        <ele>191.5</ele>
        <time>2022-01-23T08:59:39.000Z</time>
      </trkpt>
      <trkpt lat="43.15454" lon="2.34331">
        <ele>191.5</ele>
        <time>2022-01-23T08:59:40.000Z</time>
      </trkpt>
      <trkpt lat="43.15456" lon="2.3433">
        <ele>191.5</ele>
        <time>2022-01-23T08:59:41.000Z</time>
      </trkpt>
      <trkpt lat="43.15458" lon="2.34329">
        <ele>191.5</ele>
        <time>2022-01-23T08:59:42.000Z</time>
      </trkpt>
      <trkpt lat="43.1546" lon="2.34329">
        <ele>191.5</ele>
        <time>2022-01-23T08:59:43.000Z</time>
      </trkpt>
      <trkpt lat="43.15462" lon="2.34328">
        <ele>191.5</ele>
        <time>2022-01-23T08:59:44.000Z</time>
      </trkpt>
      <trkpt lat="43.15465" lon="2.34328">
        <ele>191.4</ele>
        <time>2022-01-23T08:59:45.000Z</time>
      </trkpt>
      <trkpt lat="43.15467" lon="2.34327">
        <ele>191.4</ele>
        <time>2022-01-23T08:59:46.000Z</time>
      </trkpt>
      <trkpt lat="43.15469" lon="2.34326">
        <ele>191.4</ele>
        <time>2022-01-23T08:59:47.000Z</time>
      </trkpt>
      <trkpt lat="43.15471" lon="2.34326">
        <ele>191.4</ele>
        <time>2022-01-23T08:59:48.000Z</time>
      </trkpt>
      <trkpt lat="43.15473" lon="2.34325">
        <ele>191.4</ele>
        <time>2022-01-23T08:59:49.000Z</time>
      </trkpt>
      <trkpt lat="43.15476" lon="2.34324">
        <ele>191.4</ele>
        <time>2022-01-23T08:59:50.000Z</time>
      </trkpt>
      <trkpt lat="43.15478" lon="2.34324">
        <ele>191.3</ele>
        <time>2022-01-23T08:59:51.000Z</time>
      </trkpt>
      <trkpt lat="43.1548" lon="2.34323">
        <ele>191.4</ele>
        <time>2022-01-23T08:59:52.000Z</time>
      </trkpt>
      <trkpt lat="43.15482" lon="2.34322">
        <ele>191.4</ele>
        <time>2022-01-23T08:59:53.000Z</time>
      </trkpt>
      <trkpt lat="43.15485" lon="2.34322">
        <ele>191.4</ele>
        <time>2022-01-23T08:59:54.000Z</time>
      </trkpt>
      <trkpt lat="43.15487" lon="2.34321">
        <ele>191.4</ele>
        <time>2022-01-23T08:59:55.000Z</time>
      </trkpt>
      <trkpt lat="43.15489" lon="2.3432">
        <ele>191.4</ele>
        <time>2022-01-23T08:59:56.000Z</time>
      </trkpt>
      <trkpt lat="43.15491" lon="2.34319">
        <ele>191.5</ele>
        <time>2022-01-23T08:59:57.000Z</time>
      </trkpt>
      <trkpt lat="43.15493" lon="2.34318">
        <ele>191.5</ele>
        <time>2022-01-23T08:59:58.000Z</time>
      </trkpt>
      <trkpt lat="43.15495" lon="2.34316">
        <ele>191.6</ele>
        <time>2022-01-23T08:59:59.000Z</time>
      </trkpt>
      <trkpt lat="43.15497" lon="2.34315">
        <ele>191.7</ele>
        <time>2022-01-23T09:00:00.000Z</time>
      </trkpt>
      <trkpt lat="43.15499" lon="2.34314">
        <ele>191.8</ele>
        <time>2022-01-23T09:00:01.000Z</time>
      </trkpt>
      <trkpt lat="43.15501" lon="2.34312">
        <ele>191.9</ele>
        <time>2022-01-23T09:00:02.000Z</time>
      </trkpt>
      <trkpt lat="43.15503" lon="2.34311">
        <ele>192</ele>
        <time>2022-01-23T09:00:03.000Z</time>
      </trkpt>
      <trkpt lat="43.15505" lon="2.3431">
        <ele>192</ele>
        <time>2022-01-23T09:00:04.000Z</time>
      </trkpt>
      <trkpt lat="43.15507" lon="2.34308">
        <ele>192.1</ele>
        <time>2022-01-23T09:00:05.000Z</time>
      </trkpt>
      <trkpt lat="43.15509" lon="2.34306">
        <ele>192.2</ele>
        <time>2022-01-23T09:00:06.000Z</time>
      </trkpt>
      <trkpt lat="43.15511" lon="2.34305">
        <ele>192.3</ele>
        <time>2022-01-23T09:00:07.000Z</time>
      </trkpt>
      <trkpt lat="43.15513" lon="2.34303">
        <ele>192.3</ele>
        <time>2022-01-23T09:00:08.000Z</time>
      </trkpt>
      <trkpt lat="43.15515" lon="2.34301">
        <ele>192.4</ele>
        <time>2022-01-23T09:00:09.000Z</time>
      </trkpt>
      <trkpt lat="43.15517" lon="2.34299">
        <ele>192.5</ele>
        <time>2022-01-23T09:00:10.000Z</time>
      </trkpt>
      <trkpt lat="43.15519" lon="2.34298">
        <ele>192.6</ele>
        <time>2022-01-23T09:00:11.000Z</time>
      </trkpt>
      <trkpt lat="43.15521" lon="2.34296">
        <ele>192.7</ele>
        <time>2022-01-23T09:00:12.000Z</time>
      </trkpt>
      <trkpt lat="43.15522" lon="2.34294">
        <ele>192.8</ele>
        <time>2022-01-23T09:00:13.000Z</time>
      </trkpt>
      <trkpt lat="43.15524" lon="2.34292">
        <ele>192.9</ele>
        <time>2022-01-23T09:00:14.000Z</time>
      </trkpt>
      <trkpt lat="43.15526" lon="2.3429">
        <ele>193</ele>
        <time>2022-01-23T09:00:15.000Z</time>
      </trkpt>
      <trkpt lat="43.15528" lon="2.34288">
        <ele>193.2</ele>
        <time>2022-01-23T09:00:16.000Z</time>
      </trkpt>
      <trkpt lat="43.1553" lon="2.34286">
        <ele>193.3</ele>
        <time>2022-01-23T09:00:17.000Z</time>
      </trkpt>
      <trkpt lat="43.15532" lon="2.34284">
        <ele>193.4</ele>
        <time>2022-01-23T09:00:18.000Z</time>
      </trkpt>
      <trkpt lat="43.15534" lon="2.34282">
        <ele>193.5</ele>
        <time>2022-01-23T09:00:19.000Z</time>
      </trkpt>
      <trkpt lat="43.15536" lon="2.3428">
        <ele>193.6</ele>
        <time>2022-01-23T09:00:20.000Z</time>
      </trkpt>
      <trkpt lat="43.15538" lon="2.34278">
        <ele>193.6</ele>
        <time>2022-01-23T09:00:21.000Z</time>
      </trkpt>
      <trkpt lat="43.1554" lon="2.34276">
        <ele>193.7</ele>
        <time>2022-01-23T09:00:22.000Z</time>
      </trkpt>
      <trkpt lat="43.15542" lon="2.34274">
        <ele>193.8</ele>
        <time>2022-01-23T09:00:23.000Z</time>
      </trkpt>
      <trkpt lat="43.15544" lon="2.34272">
        <ele>193.9</ele>
        <time>2022-01-23T09:00:24.000Z</time>
      </trkpt>
      <trkpt lat="43.15546" lon="2.3427">
        <ele>194</ele>
        <time>2022-01-23T09:00:25.000Z</time>
      </trkpt>
      <trkpt lat="43.15548" lon="2.34268">
        <ele>194.1</ele>
        <time>2022-01-23T09:00:26.000Z</time>
      </trkpt>
      <trkpt lat="43.1555" lon="2.34266">
        <ele>194.1</ele>
        <time>2022-01-23T09:00:27.000Z</time>
      </trkpt>
      <trkpt lat="43.15553" lon="2.34264">
        <ele>194.2</ele>
        <time>2022-01-23T09:00:28.000Z</time>
      </trkpt>
      <trkpt lat="43.15555" lon="2.34262">
        <ele>194.2</ele>
        <time>2022-01-23T09:00:29.000Z</time>
      </trkpt>
      <trkpt lat="43.15557" lon="2.3426">
        <ele>194.3</ele>
        <time>2022-01-23T09:00:30.000Z</time>
      </trkpt>
      <trkpt lat="43.15559" lon="2.34258">
        <ele>194.3</ele>
        <time>2022-01-23T09:00:31.000Z</time>
      </trkpt>
      <trkpt lat="43.15561" lon="2.34256">
        <ele>194.3</ele>
        <time>2022-01-23T09:00:32.000Z</time>
      </trkpt>
      <trkpt lat="43.15563" lon="2.34255">
        <ele>194.4</ele>
        <time>2022-01-23T09:00:33.000Z</time>
      </trkpt>
      <trkpt lat="43.15565" lon="2.34253">
        <ele>194.4</ele>
        <time>2022-01-23T09:00:34.000Z</time>
      </trkpt>
      <trkpt lat="43.15568" lon="2.34251">
        <ele>194.4</ele>
        <time>2022-01-23T09:00:35.000Z</time>
      </trkpt>
      <trkpt lat="43.1557" lon="2.3425">
        <ele>194.3</ele>
        <time>2022-01-23T09:00:36.000Z</time>
      </trkpt>
      <trkpt lat="43.15572" lon="2.34248">
        <ele>194.2</ele>
        <time>2022-01-23T09:00:37.000Z</time>
      </trkpt>
      <trkpt lat="43.15574" lon="2.34247">
        <ele>194.1</ele>
        <time>2022-01-23T09:00:38.000Z</time>
      </trkpt>
      <trkpt lat="43.15576" lon="2.34245">
        <ele>194</ele>
        <time>2022-01-23T09:00:39.000Z</time>
      </trkpt>
      <trkpt lat="43.15578" lon="2.34243">
        <ele>193.9</ele>
        <time>2022-01-23T09:00:40.000Z</time>
      </trkpt>
      <trkpt lat="43.1558" lon="2.34241">
        <ele>193.8</ele>
        <time>2022-01-23T09:00:41.000Z</time>
      </trkpt>
      <trkpt lat="43.15583" lon="2.34239">
        <ele>193.8</ele>
        <time>2022-01-23T09:00:42.000Z</time>
      </trkpt>
      <trkpt lat="43.15585" lon="2.34236">
        <ele>193.8</ele>
        <time>2022-01-23T09:00:43.000Z</time>
      </trkpt>
      <trkpt lat="43.15587" lon="2.34234">
        <ele>193.8</ele>
        <time>2022-01-23T09:00:44.000Z</time>
      </trkpt>
      <trkpt lat="43.15588" lon="2.34231">
        <ele>193.8</ele>
        <time>2022-01-23T09:00:45.000Z</time>
      </trkpt>
      <trkpt lat="43.1559" lon="2.34229">
        <ele>193.9</ele>
        <time>2022-01-23T09:00:46.000Z</time>
      </trkpt>
      <trkpt lat="43.15591" lon="2.34227">
        <ele>193.9</ele>
        <time>2022-01-23T09:00:47.000Z</time>
      </trkpt>
      <trkpt lat="43.15593" lon="2.34225">
        <ele>193.9</ele>
        <time>2022-01-23T09:00:48.000Z</time>
      </trkpt>
      <trkpt lat="43.15594" lon="2.34223">
        <ele>194</ele>
        <time>2022-01-23T09:00:49.000Z</time>
      </trkpt>
      <trkpt lat="43.15595" lon="2.34221">
        <ele>194</ele>
        <time>2022-01-23T09:00:50.000Z</time>
      </trkpt>
      <trkpt lat="43.15596" lon="2.3422">
        <ele>194.1</ele>
        <time>2022-01-23T09:00:51.000Z</time>
      </trkpt>
      <trkpt lat="43.15597" lon="2.34218">
        <ele>194.1</ele>
        <time>2022-01-23T09:00:52.000Z</time>
      </trkpt>
      <trkpt lat="43.15597" lon="2.34216">
        <ele>194.2</ele>
        <time>2022-01-23T09:00:53.000Z</time>
      </trkpt>
      <trkpt lat="43.15598" lon="2.34215">
        <ele>194.2</ele>
        <time>2022-01-23T09:00:54.000Z</time>
      </trkpt>
      <trkpt lat="43.15599" lon="2.34213">
        <ele>194.3</ele>
        <time>2022-01-23T09:00:55.000Z</time>
      </trkpt>
      <trkpt lat="43.15599" lon="2.34212">
        <ele>194.3</ele>
        <time>2022-01-23T09:00:56.000Z</time>
      </trkpt>
      <trkpt lat="43.156" lon="2.3421">
        <ele>194.4</ele>
        <time>2022-01-23T09:00:57.000Z</time>
      </trkpt>
      <trkpt lat="43.156" lon="2.34209">
        <ele>194.4</ele>
        <time>2022-01-23T09:00:58.000Z</time>
      </trkpt>
      <trkpt lat="43.15601" lon="2.34208">
        <ele>194.5</ele>
        <time>2022-01-23T09:00:59.000Z</time>
      </trkpt>
      <trkpt lat="43.15602" lon="2.34206">
        <ele>194.5</ele>
        <time>2022-01-23T09:01:00.000Z</time>
      </trkpt>
      <trkpt lat="43.15602" lon="2.34205">
        <ele>194.6</ele>
        <time>2022-01-23T09:01:01.000Z</time>
      </trkpt>
      <trkpt lat="43.15603" lon="2.34204">
        <ele>194.6</ele>
        <time>2022-01-23T09:01:02.000Z</time>
      </trkpt>
      <trkpt lat="43.15604" lon="2.34203">
        <ele>194.6</ele>
        <time>2022-01-23T09:01:03.000Z</time>
      </trkpt>
      <trkpt lat="43.15604" lon="2.34202">
        <ele>194.6</ele>
        <time>2022-01-23T09:01:04.000Z</time>
      </trkpt>
      <trkpt lat="43.15605" lon="2.34201">
        <ele>194.6</ele>
        <time>2022-01-23T09:01:05.000Z</time>
      </trkpt>
      <trkpt lat="43.15606" lon="2.34201">
        <ele>194.6</ele>
        <time>2022-01-23T09:01:06.000Z</time>
      </trkpt>
      <trkpt lat="43.15606" lon="2.342">
        <ele>194.6</ele>
        <time>2022-01-23T09:01:07.000Z</time>
      </trkpt>
      <trkpt lat="43.15607" lon="2.34199">
        <ele>194.6</ele>
        <time>2022-01-23T09:01:08.000Z</time>
      </trkpt>
      <trkpt lat="43.15608" lon="2.34199">
        <ele>194.6</ele>
        <time>2022-01-23T09:01:09.000Z</time>
      </trkpt>
      <trkpt lat="43.15609" lon="2.34199">
        <ele>194.6</ele>
        <time>2022-01-23T09:01:10.000Z</time>
      </trkpt>
      <trkpt lat="43.1561" lon="2.34199">
        <ele>194.5</ele>
        <time>2022-01-23T09:01:11.000Z</time>
      </trkpt>
      <trkpt lat="43.1561" lon="2.34199">
        <ele>194.5</ele>
        <time>2022-01-23T09:01:12.000Z</time>
      </trkpt>
      <trkpt lat="43.15611" lon="2.34199">
        <ele>194.4</ele>
        <time>2022-01-23T09:01:13.000Z</time>
      </trkpt>
      <trkpt lat="43.15612" lon="2.34199">
        <ele>194.4</ele>
        <time>2022-01-23T09:01:14.000Z</time>
      </trkpt>
      <trkpt lat="43.15613" lon="2.34199">
        <ele>194.3</ele>
        <time>2022-01-23T09:01:15.000Z</time>
      </trkpt>
      <trkpt lat="43.15614" lon="2.34199">
        <ele>194.2</ele>
        <time>2022-01-23T09:01:16.000Z</time>
      </trkpt>
      <trkpt lat="43.15615" lon="2.342">
        <ele>194.1</ele>
        <time>2022-01-23T09:01:17.000Z</time>
      </trkpt>
      <trkpt lat="43.15615" lon="2.342">
        <ele>194.1</ele>
        <time>2022-01-23T09:01:18.000Z</time>
      </trkpt>
      <trkpt lat="43.15616" lon="2.34201">
        <ele>194</ele>
        <time>2022-01-23T09:01:19.000Z</time>
      </trkpt>
      <trkpt lat="43.15617" lon="2.34201">
        <ele>193.9</ele>
        <time>2022-01-23T09:01:20.000Z</time>
      </trkpt>
      <trkpt lat="43.15618" lon="2.34202">
        <ele>193.8</ele>
        <time>2022-01-23T09:01:21.000Z</time>
      </trkpt>
      <trkpt lat="43.15619" lon="2.34202">
        <ele>193.7</ele>
        <time>2022-01-23T09:01:22.000Z</time>
      </trkpt>
      <trkpt lat="43.1562" lon="2.34203">
        <ele>193.6</ele>
        <time>2022-01-23T09:01:23.000Z</time>
      </trkpt>
      <trkpt lat="43.15621" lon="2.34203">
        <ele>193.5</ele>
        <time>2022-01-23T09:01:24.000Z</time>
      </trkpt>
      <trkpt lat="43.15622" lon="2.34204">
        <ele>193.4</ele>
        <time>2022-01-23T09:01:25.000Z</time>
      </trkpt>
      <trkpt lat="43.15623" lon="2.34205">
        <ele>193.3</ele>
        <time>2022-01-23T09:01:26.000Z</time>
      </trkpt>
      <trkpt lat="43.15625" lon="2.34205">
        <ele>193.2</ele>
        <time>2022-01-23T09:01:27.000Z</time>
      </trkpt>
      <trkpt lat="43.15626" lon="2.34206">
        <ele>193.1</ele>
        <time>2022-01-23T09:01:28.000Z</time>
      </trkpt>
      <trkpt lat="43.15627" lon="2.34206">
        <ele>193</ele>
        <time>2022-01-23T09:01:29.000Z</time>
      </trkpt>
      <trkpt lat="43.15628" lon="2.34207">
        <ele>192.9</ele>
        <time>2022-01-23T09:01:30.000Z</time>
      </trkpt>
      <trkpt lat="43.15629" lon="2.34208">
        <ele>192.8</ele>
        <time>2022-01-23T09:01:31.000Z</time>
      </trkpt>
      <trkpt lat="43.1563" lon="2.34208">
        <ele>192.7</ele>
        <time>2022-01-23T09:01:32.000Z</time>
      </trkpt>
      <trkpt lat="43.15631" lon="2.34209">
        <ele>192.6</ele>
        <time>2022-01-23T09:01:33.000Z</time>
      </trkpt>
      <trkpt lat="43.15632" lon="2.3421">
        <ele>192.5</ele>
        <time>2022-01-23T09:01:34.000Z</time>
      </trkpt>
      <trkpt lat="43.15634" lon="2.3421">
        <ele>192.4</ele>
        <time>2022-01-23T09:01:35.000Z</time>
      </trkpt>
      <trkpt lat="43.15635" lon="2.34211">
        <ele>192.3</ele>
        <time>2022-01-23T09:01:36.000Z</time>
      </trkpt>
      <trkpt lat="43.15636" lon="2.34212">
        <ele>192.2</ele>
        <time>2022-01-23T09:01:37.000Z</time>
      </trkpt>
      <trkpt lat="43.15637" lon="2.34212">
        <ele>192</ele>
        <time>2022-01-23T09:01:38.000Z</time>
      </trkpt>
      <trkpt lat="43.15638" lon="2.34213">
        <ele>191.9</ele>
        <time>2022-01-23T09:01:39.000Z</time>
      </trkpt>
      <trkpt lat="43.15639" lon="2.34214">
        <ele>191.8</ele>
        <time>2022-01-23T09:01:40.000Z</time>
      </trkpt>
      <trkpt lat="43.15641" lon="2.34214">
        <ele>191.7</ele>
        <time>2022-01-23T09:01:41.000Z</time>
      </trkpt>
      <trkpt lat="43.15642" lon="2.34215">
        <ele>191.6</ele>
        <time>2022-01-23T09:01:42.000Z</time>
      </trkpt>
      <trkpt lat="43.15643" lon="2.34216">
        <ele>191.5</ele>
        <time>2022-01-23T09:01:43.000Z</time>
      </trkpt>
      <trkpt lat="43.15644" lon="2.34216">
        <ele>191.4</ele>
        <time>2022-01-23T09:01:44.000Z</time>
      </trkpt>
      <trkpt lat="43.15645" lon="2.34217">
        <ele>191.3</ele>
        <time>2022-01-23T09:01:45.000Z</time>
      </trkpt>
      <trkpt lat="43.15646" lon="2.34217">
        <ele>191.2</ele>
        <time>2022-01-23T09:01:46.000Z</time>
      </trkpt>
      <trkpt lat="43.15647" lon="2.34218">
        <ele>191.1</ele>
        <time>2022-01-23T09:01:47.000Z</time>
      </trkpt>
      <trkpt lat="43.15648" lon="2.34219">
        <ele>191</ele>
        <time>2022-01-23T09:01:48.000Z</time>
      </trkpt>
      <trkpt lat="43.1565" lon="2.34219">
        <ele>190.9</ele>
        <time>2022-01-23T09:01:49.000Z</time>
      </trkpt>
      <trkpt lat="43.15651" lon="2.3422">
        <ele>190.8</ele>
        <time>2022-01-23T09:01:50.000Z</time>
      </trkpt>
      <trkpt lat="43.15652" lon="2.34221">
        <ele>190.6</ele>
        <time>2022-01-23T09:01:51.000Z</time>
      </trkpt>
      <trkpt lat="43.15653" lon="2.34221">
        <ele>190.5</ele>
        <time>2022-01-23T09:01:52.000Z</time>
      </trkpt>
      <trkpt lat="43.15654" lon="2.34222">
        <ele>190.4</ele>
        <time>2022-01-23T09:01:53.000Z</time>
      </trkpt>
      <trkpt lat="43.15655" lon="2.34223">
        <ele>190.3</ele>
        <time>2022-01-23T09:01:54.000Z</time>
      </trkpt>
      <trkpt lat="43.15657" lon="2.34224">
        <ele>190.2</ele>
        <time>2022-01-23T09:01:55.000Z</time>
      </trkpt>
      <trkpt lat="43.15658" lon="2.34224">
        <ele>190.1</ele>
        <time>2022-01-23T09:01:56.000Z</time>
      </trkpt>
      <trkpt lat="43.15659" lon="2.34225">
        <ele>189.9</ele>
        <time>2022-01-23T09:01:57.000Z</time>
      </trkpt>
      <trkpt lat="43.1566" lon="2.34226">
        <ele>189.8</ele>
        <time>2022-01-23T09:01:58.000Z</time>
      </trkpt>
      <trkpt lat="43.15662" lon="2.34227">
        <ele>189.7</ele>
        <time>2022-01-23T09:01:59.000Z</time>
      </trkpt>
      <trkpt lat="43.15663" lon="2.34228">
        <ele>189.5</ele>
        <time>2022-01-23T09:02:00.000Z</time>
      </trkpt>
      <trkpt lat="43.15664" lon="2.34229">
        <ele>189.4</ele>
        <time>2022-01-23T09:02:01.000Z</time>
      </trkpt>
      <trkpt lat="43.15665" lon="2.3423">
        <ele>189.3</ele>
        <time>2022-01-23T09:02:02.000Z</time>
      </trkpt>
      <trkpt lat="43.15667" lon="2.34231">
        <ele>189.1</ele>
        <time>2022-01-23T09:02:03.000Z</time>
      </trkpt>
      <trkpt lat="43.15668" lon="2.34232">
        <ele>189.1</ele>
        <time>2022-01-23T09:02:04.000Z</time>
      </trkpt>
      <trkpt lat="43.15669" lon="2.34233">
        <ele>189</ele>
        <time>2022-01-23T09:02:05.000Z</time>
      </trkpt>
      <trkpt lat="43.1567" lon="2.34234">
        <ele>189</ele>
        <time>2022-01-23T09:02:06.000Z</time>
      </trkpt>
      <trkpt lat="43.15672" lon="2.34234">
        <ele>188.9</ele>
        <time>2022-01-23T09:02:07.000Z</time>
      </trkpt>
      <trkpt lat="43.15673" lon="2.34235">
        <ele>188.9</ele>
        <time>2022-01-23T09:02:08.000Z</time>
      </trkpt>
      <trkpt lat="43.15674" lon="2.34236">
        <ele>188.8</ele>
        <time>2022-01-23T09:02:09.000Z</time>
      </trkpt>
      <trkpt lat="43.15675" lon="2.34236">
        <ele>188.8</ele>
        <time>2022-01-23T09:02:10.000Z</time>
      </trkpt>
      <trkpt lat="43.15676" lon="2.34237">
        <ele>188.8</ele>
        <time>2022-01-23T09:02:11.000Z</time>
      </trkpt>
      <trkpt lat="43.15677" lon="2.34238">
        <ele>188.7</ele>
        <time>2022-01-23T09:02:12.000Z</time>
      </trkpt>
      <trkpt lat="43.15677" lon="2.34238">
        <ele>188.7</ele>
        <time>2022-01-23T09:02:13.000Z</time>
      </trkpt>
      <trkpt lat="43.15678" lon="2.34239">
        <ele>188.6</ele>
        <time>2022-01-23T09:02:14.000Z</time>
      </trkpt>
      <trkpt lat="43.15679" lon="2.34241">
        <ele>188.5</ele>
        <time>2022-01-23T09:02:15.000Z</time>
      </trkpt>
      <trkpt lat="43.15679" lon="2.34242">
        <ele>188.4</ele>
        <time>2022-01-23T09:02:16.000Z</time>
      </trkpt>
      <trkpt lat="43.1568" lon="2.34244">
        <ele>188.3</ele>
        <time>2022-01-23T09:02:17.000Z</time>
      </trkpt>
      <trkpt lat="43.1568" lon="2.34246">
        <ele>188.2</ele>
        <time>2022-01-23T09:02:18.000Z</time>
      </trkpt>
      <trkpt lat="43.15681" lon="2.34248">
        <ele>188.1</ele>
        <time>2022-01-23T09:02:19.000Z</time>
      </trkpt>
      <trkpt lat="43.15681" lon="2.3425">
        <ele>188</ele>
        <time>2022-01-23T09:02:20.000Z</time>
      </trkpt>
      <trkpt lat="43.15681" lon="2.34253">
        <ele>187.8</ele>
        <time>2022-01-23T09:02:21.000Z</time>
      </trkpt>
      <trkpt lat="43.1568" lon="2.34255">
        <ele>187.6</ele>
        <time>2022-01-23T09:02:22.000Z</time>
      </trkpt>
      <trkpt lat="43.1568" lon="2.34256">
        <ele>187.5</ele>
        <time>2022-01-23T09:02:23.000Z</time>
      </trkpt>
      <trkpt lat="43.15679" lon="2.34258">
        <ele>187.3</ele>
        <time>2022-01-23T09:02:24.000Z</time>
      </trkpt>
      <trkpt lat="43.15678" lon="2.34259">
        <ele>187.2</ele>
        <time>2022-01-23T09:02:25.000Z</time>
      </trkpt>
      <trkpt lat="43.15677" lon="2.34261">
        <ele>187.1</ele>
        <time>2022-01-23T09:02:26.000Z</time>
      </trkpt>
      <trkpt lat="43.15676" lon="2.34262">
        <ele>187</ele>
        <time>2022-01-23T09:02:27.000Z</time>
      </trkpt>
      <trkpt lat="43.15675" lon="2.34264">
        <ele>186.8</ele>
        <time>2022-01-23T09:02:28.000Z</time>
      </trkpt>
      <trkpt lat="43.15674" lon="2.34266">
        <ele>186.6</ele>
        <time>2022-01-23T09:02:29.000Z</time>
      </trkpt>
      <trkpt lat="43.15673" lon="2.34269">
        <ele>186.4</ele>
        <time>2022-01-23T09:02:30.000Z</time>
      </trkpt>
      <trkpt lat="43.15672" lon="2.34272">
        <ele>186.1</ele>
        <time>2022-01-23T09:02:31.000Z</time>
      </trkpt>
      <trkpt lat="43.15672" lon="2.34276">
        <ele>185.8</ele>
        <time>2022-01-23T09:02:32.000Z</time>
      </trkpt>
      <trkpt lat="43.15671" lon="2.34279">
        <ele>185.6</ele>
        <time>2022-01-23T09:02:33.000Z</time>
      </trkpt>
      <trkpt lat="43.1567" lon="2.34282">
        <ele>185.3</ele>
        <time>2022-01-23T09:02:34.000Z</time>
      </trkpt>
      <trkpt lat="43.15669" lon="2.34286">
        <ele>185</ele>
        <time>2022-01-23T09:02:35.000Z</time>
      </trkpt>
      <trkpt lat="43.15669" lon="2.34289">
        <ele>184.7</ele>
        <time>2022-01-23T09:02:36.000Z</time>
      </trkpt>
      <trkpt lat="43.15668" lon="2.34292">
        <ele>184.4</ele>
        <time>2022-01-23T09:02:37.000Z</time>
      </trkpt>
      <trkpt lat="43.15667" lon="2.34296">
        <ele>184.2</ele>
        <time>2022-01-23T09:02:38.000Z</time>
      </trkpt>
      <trkpt lat="43.15666" lon="2.34299">
        <ele>183.9</ele>
        <time>2022-01-23T09:02:39.000Z</time>
      </trkpt>
      <trkpt lat="43.15665" lon="2.34302">
        <ele>183.7</ele>
        <time>2022-01-23T09:02:40.000Z</time>
      </trkpt>
      <trkpt lat="43.15664" lon="2.34305">
        <ele>183.5</ele>
        <time>2022-01-23T09:02:41.000Z</time>
      </trkpt>
      <trkpt lat="43.15663" lon="2.34308">
        <ele>183.3</ele>
        <time>2022-01-23T09:02:42.000Z</time>
      </trkpt>
      <trkpt lat="43.15663" lon="2.3431">
        <ele>183.1</ele>
        <time>2022-01-23T09:02:43.000Z</time>
      </trkpt>
      <trkpt lat="43.15661" lon="2.34313">
        <ele>182.9</ele>
        <time>2022-01-23T09:02:44.000Z</time>
      </trkpt>
      <trkpt lat="43.1566" lon="2.34315">
        <ele>182.7</ele>
        <time>2022-01-23T09:02:45.000Z</time>
      </trkpt>
      <trkpt lat="43.15659" lon="2.34317">
        <ele>182.6</ele>
        <time>2022-01-23T09:02:46.000Z</time>
      </trkpt>
      <trkpt lat="43.15658" lon="2.3432">
        <ele>182.4</ele>
        <time>2022-01-23T09:02:47.000Z</time>
      </trkpt>
      <trkpt lat="43.15656" lon="2.34321">
        <ele>182.3</ele>
        <time>2022-01-23T09:02:48.000Z</time>
      </trkpt>
      <trkpt lat="43.15655" lon="2.34323">
        <ele>182.2</ele>
        <time>2022-01-23T09:02:49.000Z</time>
      </trkpt>
      <trkpt lat="43.15653" lon="2.34325">
        <ele>182.1</ele>
        <time>2022-01-23T09:02:50.000Z</time>
      </trkpt>
      <trkpt lat="43.15651" lon="2.34327">
        <ele>182</ele>
        <time>2022-01-23T09:02:51.000Z</time>
      </trkpt>
      <trkpt lat="43.15648" lon="2.34328">
        <ele>181.9</ele>
        <time>2022-01-23T09:02:52.000Z</time>
      </trkpt>
      <trkpt lat="43.15646" lon="2.34329">
        <ele>181.9</ele>
        <time>2022-01-23T09:02:53.000Z</time>
      </trkpt>
      <trkpt lat="43.15643" lon="2.3433">
        <ele>181.8</ele>
        <time>2022-01-23T09:02:54.000Z</time>
      </trkpt>
      <trkpt lat="43.15641" lon="2.34331">
        <ele>181.8</ele>
        <time>2022-01-23T09:02:55.000Z</time>
      </trkpt>
      <trkpt lat="43.15638" lon="2.34332">
        <ele>181.8</ele>
        <time>2022-01-23T09:02:56.000Z</time>
      </trkpt>
      <trkpt lat="43.15635" lon="2.34333">
        <ele>181.8</ele>
        <time>2022-01-23T09:02:57.000Z</time>
      </trkpt>
      <trkpt lat="43.15633" lon="2.34334">
        <ele>181.8</ele>
        <time>2022-01-23T09:02:58.000Z</time>
      </trkpt>
      <trkpt lat="43.1563" lon="2.34334">
        <ele>181.8</ele>
        <time>2022-01-23T09:02:59.000Z</time>
      </trkpt>
      <trkpt lat="43.15627" lon="2.34334">
        <ele>181.8</ele>
        <time>2022-01-23T09:03:00.000Z</time>
      </trkpt>
      <trkpt lat="43.15624" lon="2.34335">
        <ele>181.8</ele>
        <time>2022-01-23T09:03:01.000Z</time>
      </trkpt>
      <trkpt lat="43.15622" lon="2.34335">
        <ele>181.8</ele>
        <time>2022-01-23T09:03:02.000Z</time>
      </trkpt>
      <trkpt lat="43.15619" lon="2.34337">
        <ele>181.7</ele>
        <time>2022-01-23T09:03:03.000Z</time>
      </trkpt>
      <trkpt lat="43.15616" lon="2.34338">
        <ele>181.5</ele>
        <time>2022-01-23T09:03:04.000Z</time>
      </trkpt>
      <trkpt lat="43.15615" lon="2.34341">
        <ele>181.2</ele>
        <time>2022-01-23T09:03:05.000Z</time>
      </trkpt>
      <trkpt lat="43.15614" lon="2.34344">
        <ele>180.7</ele>
        <time>2022-01-23T09:03:06.000Z</time>
      </trkpt>
      <trkpt lat="43.15615" lon="2.34348">
        <ele>180.2</ele>
        <time>2022-01-23T09:03:07.000Z</time>
      </trkpt>
      <trkpt lat="43.15617" lon="2.3435">
        <ele>179.8</ele>
        <time>2022-01-23T09:03:08.000Z</time>
      </trkpt>
      <trkpt lat="43.15619" lon="2.34351">
        <ele>179.6</ele>
        <time>2022-01-23T09:03:09.000Z</time>
      </trkpt>
      <trkpt lat="43.15622" lon="2.34351">
        <ele>179.5</ele>
        <time>2022-01-23T09:03:10.000Z</time>
      </trkpt>
      <trkpt lat="43.15624" lon="2.34351">
        <ele>179.4</ele>
        <time>2022-01-23T09:03:11.000Z</time>
      </trkpt>
      <trkpt lat="43.15627" lon="2.34351">
        <ele>179.3</ele>
        <time>2022-01-23T09:03:12.000Z</time>
      </trkpt>
      <trkpt lat="43.1563" lon="2.34352">
        <ele>179.2</ele>
        <time>2022-01-23T09:03:13.000Z</time>
      </trkpt>
      <trkpt lat="43.15633" lon="2.34352">
        <ele>179.1</ele>
        <time>2022-01-23T09:03:14.000Z</time>
      </trkpt>
      <trkpt lat="43.15635" lon="2.34353">
        <ele>178.9</ele>
        <time>2022-01-23T09:03:15.000Z</time>
      </trkpt>
      <trkpt lat="43.15638" lon="2.34354">
        <ele>178.7</ele>
        <time>2022-01-23T09:03:16.000Z</time>
      </trkpt>
      <trkpt lat="43.15641" lon="2.34356">
        <ele>178.4</ele>
        <time>2022-01-23T09:03:17.000Z</time>
      </trkpt>
      <trkpt lat="43.15643" lon="2.34357">
        <ele>178.1</ele>
        <time>2022-01-23T09:03:18.000Z</time>
      </trkpt>
      <trkpt lat="43.15646" lon="2.34359">
        <ele>177.9</ele>
        <time>2022-01-23T09:03:19.000Z</time>
      </trkpt>
      <trkpt lat="43.15648" lon="2.3436">
        <ele>177.6</ele>
        <time>2022-01-23T09:03:20.000Z</time>
      </trkpt>
      <trkpt lat="43.15651" lon="2.34362">
        <ele>177.3</ele>
        <time>2022-01-23T09:03:21.000Z</time>
      </trkpt>
      <trkpt lat="43.15654" lon="2.34364">
        <ele>177</ele>
        <time>2022-01-23T09:03:22.000Z</time>
      </trkpt>
      <trkpt lat="43.15656" lon="2.34365">
        <ele>176.7</ele>
        <time>2022-01-23T09:03:23.000Z</time>
      </trkpt>
      <trkpt lat="43.15659" lon="2.34367">
        <ele>176.4</ele>
        <time>2022-01-23T09:03:24.000Z</time>
      </trkpt>
      <trkpt lat="43.15662" lon="2.34368">
        <ele>176.1</ele>
        <time>2022-01-23T09:03:25.000Z</time>
      </trkpt>
      <trkpt lat="43.15665" lon="2.3437">
        <ele>175.8</ele>
        <time>2022-01-23T09:03:26.000Z</time>
      </trkpt>
      <trkpt lat="43.15668" lon="2.34371">
        <ele>175.6</ele>
        <time>2022-01-23T09:03:27.000Z</time>
      </trkpt>
      <trkpt lat="43.15671" lon="2.34372">
        <ele>175.3</ele>
        <time>2022-01-23T09:03:28.000Z</time>
      </trkpt>
      <trkpt lat="43.15674" lon="2.34374">
        <ele>175.1</ele>
        <time>2022-01-23T09:03:29.000Z</time>
      </trkpt>
      <trkpt lat="43.15677" lon="2.34376">
        <ele>174.8</ele>
        <time>2022-01-23T09:03:30.000Z</time>
      </trkpt>
      <trkpt lat="43.1568" lon="2.34377">
        <ele>174.5</ele>
        <time>2022-01-23T09:03:31.000Z</time>
      </trkpt>
      <trkpt lat="43.15683" lon="2.34379">
        <ele>174.2</ele>
        <time>2022-01-23T09:03:32.000Z</time>
      </trkpt>
      <trkpt lat="43.15686" lon="2.34382">
        <ele>173.8</ele>
        <time>2022-01-23T09:03:33.000Z</time>
      </trkpt>
      <trkpt lat="43.15689" lon="2.34385">
        <ele>173.4</ele>
        <time>2022-01-23T09:03:34.000Z</time>
      </trkpt>
      <trkpt lat="43.15692" lon="2.34387">
        <ele>172.9</ele>
        <time>2022-01-23T09:03:35.000Z</time>
      </trkpt>
      <trkpt lat="43.15694" lon="2.34391">
        <ele>172.4</ele>
        <time>2022-01-23T09:03:36.000Z</time>
      </trkpt>
      <trkpt lat="43.15697" lon="2.34394">
        <ele>171.9</ele>
        <time>2022-01-23T09:03:37.000Z</time>
      </trkpt>
      <trkpt lat="43.15699" lon="2.34398">
        <ele>171.4</ele>
        <time>2022-01-23T09:03:38.000Z</time>
      </trkpt>
      <trkpt lat="43.157" lon="2.34401">
        <ele>170.8</ele>
        <time>2022-01-23T09:03:39.000Z</time>
      </trkpt>
      <trkpt lat="43.15701" lon="2.34405">
        <ele>170.3</ele>
        <time>2022-01-23T09:03:40.000Z</time>
      </trkpt>
      <trkpt lat="43.15702" lon="2.34408">
        <ele>169.8</ele>
        <time>2022-01-23T09:03:41.000Z</time>
      </trkpt>
      <trkpt lat="43.15702" lon="2.34411">
        <ele>169.3</ele>
        <time>2022-01-23T09:03:42.000Z</time>
      </trkpt>
      <trkpt lat="43.15701" lon="2.34415">
        <ele>168.9</ele>
        <time>2022-01-23T09:03:43.000Z</time>
      </trkpt>
      <trkpt lat="43.157" lon="2.34417">
        <ele>168.6</ele>
        <time>2022-01-23T09:03:44.000Z</time>
      </trkpt>
      <trkpt lat="43.15698" lon="2.34419">
        <ele>168.8</ele>
        <time>2022-01-23T09:03:45.000Z</time>
      </trkpt>
      <trkpt lat="43.15696" lon="2.34421">
        <ele>169</ele>
        <time>2022-01-23T09:03:46.000Z</time>
      </trkpt>
      <trkpt lat="43.15693" lon="2.34421">
        <ele>169</ele>
        <time>2022-01-23T09:03:47.000Z</time>
      </trkpt>
      <trkpt lat="43.1569" lon="2.34421">
        <ele>169.1</ele>
        <time>2022-01-23T09:03:48.000Z</time>
      </trkpt>
      <trkpt lat="43.15687" lon="2.34421">
        <ele>169.1</ele>
        <time>2022-01-23T09:03:49.000Z</time>
      </trkpt>
      <trkpt lat="43.15684" lon="2.34422">
        <ele>169.2</ele>
        <time>2022-01-23T09:03:50.000Z</time>
      </trkpt>
      <trkpt lat="43.15681" lon="2.34422">
        <ele>169.2</ele>
        <time>2022-01-23T09:03:51.000Z</time>
      </trkpt>
      <trkpt lat="43.15678" lon="2.34423">
        <ele>169.3</ele>
        <time>2022-01-23T09:03:52.000Z</time>
      </trkpt>
      <trkpt lat="43.15675" lon="2.34424">
        <ele>169.5</ele>
        <time>2022-01-23T09:03:53.000Z</time>
      </trkpt>
      <trkpt lat="43.15672" lon="2.34425">
        <ele>169.6</ele>
        <time>2022-01-23T09:03:54.000Z</time>
      </trkpt>
      <trkpt lat="43.1567" lon="2.34426">
        <ele>169.7</ele>
        <time>2022-01-23T09:03:55.000Z</time>
      </trkpt>
      <trkpt lat="43.15667" lon="2.34427">
        <ele>169.7</ele>
        <time>2022-01-23T09:03:56.000Z</time>
      </trkpt>
      <trkpt lat="43.15665" lon="2.34428">
        <ele>169.8</ele>
        <time>2022-01-23T09:03:57.000Z</time>
      </trkpt>
      <trkpt lat="43.15662" lon="2.34428">
        <ele>169.9</ele>
        <time>2022-01-23T09:03:58.000Z</time>
      </trkpt>
      <trkpt lat="43.1566" lon="2.34428">
        <ele>170</ele>
        <time>2022-01-23T09:03:59.000Z</time>
      </trkpt>
      <trkpt lat="43.15658" lon="2.34429">
        <ele>170</ele>
        <time>2022-01-23T09:04:00.000Z</time>
      </trkpt>
      <trkpt lat="43.15655" lon="2.34429">
        <ele>170.1</ele>
        <time>2022-01-23T09:04:01.000Z</time>
      </trkpt>
      <trkpt lat="43.15653" lon="2.34429">
        <ele>170.2</ele>
        <time>2022-01-23T09:04:02.000Z</time>
      </trkpt>
      <trkpt lat="43.15651" lon="2.34429">
        <ele>170.2</ele>
        <time>2022-01-23T09:04:03.000Z</time>
      </trkpt>
      <trkpt lat="43.15648" lon="2.34429">
        <ele>170.3</ele>
        <time>2022-01-23T09:04:04.000Z</time>
      </trkpt>
      <trkpt lat="43.15646" lon="2.34429">
        <ele>170.3</ele>
        <time>2022-01-23T09:04:05.000Z</time>
      </trkpt>
      <trkpt lat="43.15643" lon="2.34429">
        <ele>170.3</ele>
        <time>2022-01-23T09:04:06.000Z</time>
      </trkpt>
      <trkpt lat="43.15641" lon="2.34428">
        <ele>170.3</ele>
        <time>2022-01-23T09:04:07.000Z</time>
      </trkpt>
      <trkpt lat="43.15638" lon="2.34427">
        <ele>170.3</ele>
        <time>2022-01-23T09:04:08.000Z</time>
      </trkpt>
      <trkpt lat="43.15635" lon="2.34427">
        <ele>170.3</ele>
        <time>2022-01-23T09:04:09.000Z</time>
      </trkpt>
      <trkpt lat="43.15633" lon="2.34426">
        <ele>170.3</ele>
        <time>2022-01-23T09:04:10.000Z</time>
      </trkpt>
      <trkpt lat="43.1563" lon="2.34425">
        <ele>170.3</ele>
        <time>2022-01-23T09:04:11.000Z</time>
      </trkpt>
      <trkpt lat="43.15627" lon="2.34424">
        <ele>170.3</ele>
        <time>2022-01-23T09:04:12.000Z</time>
      </trkpt>
      <trkpt lat="43.15625" lon="2.34423">
        <ele>170.4</ele>
        <time>2022-01-23T09:04:13.000Z</time>
      </trkpt>
      <trkpt lat="43.15622" lon="2.34423">
        <ele>170.4</ele>
        <time>2022-01-23T09:04:14.000Z</time>
      </trkpt>
      <trkpt lat="43.1562" lon="2.34422">
        <ele>170.4</ele>
        <time>2022-01-23T09:04:15.000Z</time>
      </trkpt>
      <trkpt lat="43.15617" lon="2.34422">
        <ele>170.5</ele>
        <time>2022-01-23T09:04:16.000Z</time>
      </trkpt>
      <trkpt lat="43.15615" lon="2.34423">
        <ele>170.5</ele>
        <time>2022-01-23T09:04:17.000Z</time>
      </trkpt>
      <trkpt lat="43.15614" lon="2.34424">
        <ele>170.6</ele>
        <time>2022-01-23T09:04:18.000Z</time>
      </trkpt>
      <trkpt lat="43.15612" lon="2.34425">
        <ele>170.7</ele>
        <time>2022-01-23T09:04:19.000Z</time>
      </trkpt>
      <trkpt lat="43.1561" lon="2.34427">
        <ele>170.8</ele>
        <time>2022-01-23T09:04:20.000Z</time>
      </trkpt>
      <trkpt lat="43.15609" lon="2.34428">
        <ele>170.9</ele>
        <time>2022-01-23T09:04:21.000Z</time>
      </trkpt>
      <trkpt lat="43.15608" lon="2.3443">
        <ele>171</ele>
        <time>2022-01-23T09:04:22.000Z</time>
      </trkpt>
      <trkpt lat="43.15606" lon="2.34432">
        <ele>171.2</ele>
        <time>2022-01-23T09:04:23.000Z</time>
      </trkpt>
      <trkpt lat="43.15605" lon="2.34434">
        <ele>171.3</ele>
        <time>2022-01-23T09:04:24.000Z</time>
      </trkpt>
      <trkpt lat="43.15604" lon="2.34436">
        <ele>171.4</ele>
        <time>2022-01-23T09:04:25.000Z</time>
      </trkpt>
      <trkpt lat="43.15602" lon="2.34439">
        <ele>171.5</ele>
        <time>2022-01-23T09:04:26.000Z</time>
      </trkpt>
      <trkpt lat="43.15601" lon="2.34441">
        <ele>171.6</ele>
        <time>2022-01-23T09:04:27.000Z</time>
      </trkpt>
      <trkpt lat="43.15599" lon="2.34442">
        <ele>171.7</ele>
        <time>2022-01-23T09:04:28.000Z</time>
      </trkpt>
      <trkpt lat="43.15598" lon="2.34444">
        <ele>171.8</ele>
        <time>2022-01-23T09:04:29.000Z</time>
      </trkpt>
      <trkpt lat="43.15596" lon="2.34446">
        <ele>171.9</ele>
        <time>2022-01-23T09:04:30.000Z</time>
      </trkpt>
      <trkpt lat="43.15594" lon="2.34448">
        <ele>172</ele>
        <time>2022-01-23T09:04:31.000Z</time>
      </trkpt>
      <trkpt lat="43.15592" lon="2.34449">
        <ele>172.1</ele>
        <time>2022-01-23T09:04:32.000Z</time>
      </trkpt>
      <trkpt lat="43.15591" lon="2.3445">
        <ele>172.1</ele>
        <time>2022-01-23T09:04:33.000Z</time>
      </trkpt>
      <trkpt lat="43.15589" lon="2.34451">
        <ele>172.2</ele>
        <time>2022-01-23T09:04:34.000Z</time>
      </trkpt>
      <trkpt lat="43.15587" lon="2.34452">
        <ele>172.3</ele>
        <time>2022-01-23T09:04:35.000Z</time>
      </trkpt>
      <trkpt lat="43.15585" lon="2.34453">
        <ele>172.3</ele>
        <time>2022-01-23T09:04:36.000Z</time>
      </trkpt>
      <trkpt lat="43.15583" lon="2.34454">
        <ele>172.4</ele>
        <time>2022-01-23T09:04:37.000Z</time>
      </trkpt>
      <trkpt lat="43.15581" lon="2.34454">
        <ele>172.5</ele>
        <time>2022-01-23T09:04:38.000Z</time>
      </trkpt>
      <trkpt lat="43.15579" lon="2.34455">
        <ele>172.6</ele>
        <time>2022-01-23T09:04:39.000Z</time>
      </trkpt>
      <trkpt lat="43.15577" lon="2.34455">
        <ele>172.8</ele>
        <time>2022-01-23T09:04:40.000Z</time>
      </trkpt>
      <trkpt lat="43.15576" lon="2.34456">
        <ele>172.9</ele>
        <time>2022-01-23T09:04:41.000Z</time>
      </trkpt>
      <trkpt lat="43.15575" lon="2.34456">
        <ele>173</ele>
        <time>2022-01-23T09:04:42.000Z</time>
      </trkpt>
      <trkpt lat="43.15574" lon="2.34457">
        <ele>173.1</ele>
        <time>2022-01-23T09:04:43.000Z</time>
      </trkpt>
      <trkpt lat="43.15573" lon="2.34458">
        <ele>173.2</ele>
        <time>2022-01-23T09:04:44.000Z</time>
      </trkpt>
      <trkpt lat="43.15572" lon="2.34458">
        <ele>173.2</ele>
        <time>2022-01-23T09:04:45.000Z</time>
      </trkpt>
      <trkpt lat="43.15572" lon="2.34459">
        <ele>173.3</ele>
        <time>2022-01-23T09:04:46.000Z</time>
      </trkpt>
      <trkpt lat="43.15572" lon="2.3446">
        <ele>173.3</ele>
        <time>2022-01-23T09:04:47.000Z</time>
      </trkpt>
      <trkpt lat="43.15571" lon="2.3446">
        <ele>173.4</ele>
        <time>2022-01-23T09:04:48.000Z</time>
      </trkpt>
      <trkpt lat="43.15571" lon="2.34461">
        <ele>173.4</ele>
        <time>2022-01-23T09:04:49.000Z</time>
      </trkpt>
      <trkpt lat="43.15571" lon="2.34461">
        <ele>173.4</ele>
        <time>2022-01-23T09:04:50.000Z</time>
      </trkpt>
      <trkpt lat="43.15571" lon="2.34462">
        <ele>173.5</ele>
        <time>2022-01-23T09:04:51.000Z</time>
      </trkpt>
      <trkpt lat="43.15571" lon="2.34462">
        <ele>173.5</ele>
        <time>2022-01-23T09:04:52.000Z</time>
      </trkpt>
      <trkpt lat="43.15571" lon="2.34463">
        <ele>173.5</ele>
        <time>2022-01-23T09:04:53.000Z</time>
      </trkpt>
      <trkpt lat="43.15571" lon="2.34463">
        <ele>173.5</ele>
        <time>2022-01-23T09:04:54.000Z</time>
      </trkpt>
      <trkpt lat="43.15571" lon="2.34463">
        <ele>173.5</ele>
        <time>2022-01-23T09:04:55.000Z</time>
      </trkpt>
      <trkpt lat="43.15571" lon="2.34463">
        <ele>173.5</ele>
        <time>2022-01-23T09:04:56.000Z</time>
      </trkpt>
      <trkpt lat="43.15571" lon="2.34463">
        <ele>173.5</ele>
        <time>2022-01-23T09:04:57.000Z</time>
      </trkpt>
      <trkpt lat="43.15571" lon="2.34464">
        <ele>173.5</ele>
        <time>2022-01-23T09:04:58.000Z</time>
      </trkpt>
      <trkpt lat="43.15571" lon="2.34464">
        <ele>173.5</ele>
        <time>2022-01-23T09:04:59.000Z</time>
      </trkpt>
      <trkpt lat="43.15571" lon="2.34464">
        <ele>173.5</ele>
        <time>2022-01-23T09:05:00.000Z</time>
      </trkpt>
      <trkpt lat="43.15571" lon="2.34464">
        <ele>173.5</ele>
        <time>2022-01-23T09:05:01.000Z</time>
      </trkpt>
      <trkpt lat="43.15571" lon="2.34464">
        <ele>173.5</ele>
        <time>2022-01-23T09:05:02.000Z</time>
      </trkpt>
      <trkpt lat="43.15571" lon="2.34464">
        <ele>173.5</ele>
        <time>2022-01-23T09:05:03.000Z</time>
      </trkpt>
      <trkpt lat="43.15571" lon="2.34464">
        <ele>173.5</ele>
        <time>2022-01-23T09:05:04.000Z</time>
      </trkpt>
      <trkpt lat="43.15571" lon="2.34463">
        <ele>173.5</ele>
        <time>2022-01-23T09:05:05.000Z</time>
      </trkpt>
      <trkpt lat="43.15571" lon="2.34463">
        <ele>173.5</ele>
        <time>2022-01-23T09:05:06.000Z</time>
      </trkpt>
      <trkpt lat="43.15571" lon="2.34463">
        <ele>173.5</ele>
        <time>2022-01-23T09:05:07.000Z</time>
      </trkpt>
      <trkpt lat="43.15571" lon="2.34463">
        <ele>173.5</ele>
        <time>2022-01-23T09:05:08.000Z</time>
      </trkpt>
      <trkpt lat="43.15571" lon="2.34463">
        <ele>173.5</ele>
        <time>2022-01-23T09:05:09.000Z</time>
      </trkpt>
      <trkpt lat="43.15571" lon="2.34463">
        <ele>173.5</ele>
        <time>2022-01-23T09:05:10.000Z</time>
      </trkpt>
      <trkpt lat="43.15571" lon="2.34463">
        <ele>173.5</ele>
        <time>2022-01-23T09:05:11.000Z</time>
      </trkpt>
      <trkpt lat="43.15571" lon="2.34463">
        <ele>173.5</ele>
        <time>2022-01-23T09:05:12.000Z</time>
      </trkpt>
      <trkpt lat="43.15571" lon="2.34464">
        <ele>173.5</ele>
        <time>2022-01-23T09:05:13.000Z</time>
      </trkpt>
      <trkpt lat="43.15571" lon="2.34464">
        <ele>173.5</ele>
        <time>2022-01-23T09:05:14.000Z</time>
      </trkpt>
      <trkpt lat="43.15571" lon="2.34464">
        <ele>173.5</ele>
        <time>2022-01-23T09:05:15.000Z</time>
      </trkpt>
      <trkpt lat="43.15571" lon="2.34465">
        <ele>173.6</ele>
        <time>2022-01-23T09:05:16.000Z</time>
      </trkpt>
      <trkpt lat="43.15572" lon="2.34465">
        <ele>173.6</ele>
        <time>2022-01-23T09:05:17.000Z</time>
      </trkpt>
      <trkpt lat="43.15572" lon="2.34466">
        <ele>173.6</ele>
        <time>2022-01-23T09:05:18.000Z</time>
      </trkpt>
      <trkpt lat="43.15572" lon="2.34467">
        <ele>173.6</ele>
        <time>2022-01-23T09:05:19.000Z</time>
      </trkpt>
      <trkpt lat="43.15572" lon="2.34467">
        <ele>173.6</ele>
        <time>2022-01-23T09:05:20.000Z</time>
      </trkpt>
      <trkpt lat="43.15572" lon="2.34468">
        <ele>173.6</ele>
        <time>2022-01-23T09:05:21.000Z</time>
      </trkpt>
      <trkpt lat="43.15573" lon="2.34469">
        <ele>173.6</ele>
        <time>2022-01-23T09:05:22.000Z</time>
      </trkpt>
      <trkpt lat="43.15573" lon="2.3447">
        <ele>173.6</ele>
        <time>2022-01-23T09:05:23.000Z</time>
      </trkpt>
      <trkpt lat="43.15573" lon="2.3447">
        <ele>173.6</ele>
        <time>2022-01-23T09:05:24.000Z</time>
      </trkpt>
      <trkpt lat="43.15574" lon="2.34471">
        <ele>173.6</ele>
        <time>2022-01-23T09:05:25.000Z</time>
      </trkpt>
      <trkpt lat="43.15574" lon="2.34472">
        <ele>173.6</ele>
        <time>2022-01-23T09:05:26.000Z</time>
      </trkpt>
      <trkpt lat="43.15575" lon="2.34472">
        <ele>173.6</ele>
        <time>2022-01-23T09:05:27.000Z</time>
      </trkpt>
      <trkpt lat="43.15575" lon="2.34473">
        <ele>173.6</ele>
        <time>2022-01-23T09:05:28.000Z</time>
      </trkpt>
      <trkpt lat="43.15576" lon="2.34474">
        <ele>173.6</ele>
        <time>2022-01-23T09:05:29.000Z</time>
      </trkpt>
      <trkpt lat="43.15576" lon="2.34474">
        <ele>173.6</ele>
        <time>2022-01-23T09:05:30.000Z</time>
      </trkpt>
      <trkpt lat="43.15576" lon="2.34475">
        <ele>173.6</ele>
        <time>2022-01-23T09:05:31.000Z</time>
      </trkpt>
      <trkpt lat="43.15576" lon="2.34476">
        <ele>173.7</ele>
        <time>2022-01-23T09:05:32.000Z</time>
      </trkpt>
      <trkpt lat="43.15576" lon="2.34476">
        <ele>173.7</ele>
        <time>2022-01-23T09:05:33.000Z</time>
      </trkpt>
      <trkpt lat="43.15576" lon="2.34477">
        <ele>173.7</ele>
        <time>2022-01-23T09:05:34.000Z</time>
      </trkpt>
      <trkpt lat="43.15576" lon="2.34477">
        <ele>173.7</ele>
        <time>2022-01-23T09:05:35.000Z</time>
      </trkpt>
      <trkpt lat="43.15576" lon="2.34477">
        <ele>173.7</ele>
        <time>2022-01-23T09:05:36.000Z</time>
      </trkpt>
      <trkpt lat="43.15576" lon="2.34477">
        <ele>173.7</ele>
        <time>2022-01-23T09:05:37.000Z</time>
      </trkpt>
      <trkpt lat="43.15577" lon="2.34477">
        <ele>173.7</ele>
        <time>2022-01-23T09:05:38.000Z</time>
      </trkpt>
      <trkpt lat="43.15577" lon="2.34478">
        <ele>173.7</ele>
        <time>2022-01-23T09:05:39.000Z</time>
      </trkpt>
      <trkpt lat="43.15577" lon="2.34479">
        <ele>173.7</ele>
        <time>2022-01-23T09:05:40.000Z</time>
      </trkpt>
      <trkpt lat="43.15578" lon="2.3448">
        <ele>173.7</ele>
        <time>2022-01-23T09:05:41.000Z</time>
      </trkpt>
      <trkpt lat="43.15578" lon="2.34481">
        <ele>173.7</ele>
        <time>2022-01-23T09:05:42.000Z</time>
      </trkpt>
      <trkpt lat="43.15579" lon="2.34482">
        <ele>173.7</ele>
        <time>2022-01-23T09:05:43.000Z</time>
      </trkpt>
      <trkpt lat="43.15579" lon="2.34482">
        <ele>173.7</ele>
        <time>2022-01-23T09:05:44.000Z</time>
      </trkpt>
      <trkpt lat="43.1558" lon="2.34483">
        <ele>173.7</ele>
        <time>2022-01-23T09:05:45.000Z</time>
      </trkpt>
      <trkpt lat="43.1558" lon="2.34484">
        <ele>173.7</ele>
        <time>2022-01-23T09:05:46.000Z</time>
      </trkpt>
      <trkpt lat="43.1558" lon="2.34484">
        <ele>173.7</ele>
        <time>2022-01-23T09:05:47.000Z</time>
      </trkpt>
      <trkpt lat="43.15581" lon="2.34485">
        <ele>173.7</ele>
        <time>2022-01-23T09:05:48.000Z</time>
      </trkpt>
      <trkpt lat="43.15581" lon="2.34485">
        <ele>173.7</ele>
        <time>2022-01-23T09:05:49.000Z</time>
      </trkpt>
      <trkpt lat="43.15581" lon="2.34485">
        <ele>173.7</ele>
        <time>2022-01-23T09:05:50.000Z</time>
      </trkpt>
      <trkpt lat="43.15581" lon="2.34485">
        <ele>173.7</ele>
        <time>2022-01-23T09:05:51.000Z</time>
      </trkpt>
      <trkpt lat="43.15581" lon="2.34486">
        <ele>173.7</ele>
        <time>2022-01-23T09:05:52.000Z</time>
      </trkpt>
      <trkpt lat="43.15581" lon="2.34486">
        <ele>173.7</ele>
        <time>2022-01-23T09:05:53.000Z</time>
      </trkpt>
      <trkpt lat="43.15581" lon="2.34486">
        <ele>173.7</ele>
        <time>2022-01-23T09:05:54.000Z</time>
      </trkpt>
      <trkpt lat="43.15581" lon="2.34486">
        <ele>173.7</ele>
        <time>2022-01-23T09:05:55.000Z</time>
      </trkpt>
      <trkpt lat="43.15581" lon="2.34486">
        <ele>173.7</ele>
        <time>2022-01-23T09:05:56.000Z</time>
      </trkpt>
      <trkpt lat="43.15581" lon="2.34486">
        <ele>173.7</ele>
        <time>2022-01-23T09:05:57.000Z</time>
      </trkpt>
      <trkpt lat="43.15581" lon="2.34486">
        <ele>173.7</ele>
        <time>2022-01-23T09:05:58.000Z</time>
      </trkpt>
      <trkpt lat="43.15581" lon="2.34486">
        <ele>173.7</ele>
        <time>2022-01-23T09:05:59.000Z</time>
      </trkpt>
      <trkpt lat="43.15581" lon="2.34486">
        <ele>173.7</ele>
        <time>2022-01-23T09:06:00.000Z</time>
      </trkpt>
      <trkpt lat="43.15581" lon="2.34486">
        <ele>173.7</ele>
        <time>2022-01-23T09:06:01.000Z</time>
      </trkpt>
      <trkpt lat="43.15581" lon="2.34486">
        <ele>173.7</ele>
        <time>2022-01-23T09:06:02.000Z</time>
      </trkpt>
      <trkpt lat="43.15582" lon="2.34486">
        <ele>173.6</ele>
        <time>2022-01-23T09:06:03.000Z</time>
      </trkpt>
      <trkpt lat="43.15582" lon="2.34486">
        <ele>173.6</ele>
        <time>2022-01-23T09:06:04.000Z</time>
      </trkpt>
      <trkpt lat="43.15582" lon="2.34486">
        <ele>173.6</ele>
        <time>2022-01-23T09:06:05.000Z</time>
      </trkpt>
      <trkpt lat="43.15582" lon="2.34486">
        <ele>173.6</ele>
        <time>2022-01-23T09:06:06.000Z</time>
      </trkpt>
      <trkpt lat="43.15582" lon="2.34486">
        <ele>173.6</ele>
        <time>2022-01-23T09:06:07.000Z</time>
      </trkpt>
      <trkpt lat="43.15582" lon="2.34486">
        <ele>173.6</ele>
        <time>2022-01-23T09:06:08.000Z</time>
      </trkpt>
      <trkpt lat="43.15582" lon="2.34486">
        <ele>173.6</ele>
        <time>2022-01-23T09:06:09.000Z</time>
      </trkpt>
      <trkpt lat="43.15582" lon="2.34486">
        <ele>173.6</ele>
        <time>2022-01-23T09:06:10.000Z</time>
      </trkpt>
      <trkpt lat="43.15582" lon="2.34486">
        <ele>173.6</ele>
        <time>2022-01-23T09:06:11.000Z</time>
      </trkpt>
      <trkpt lat="43.15582" lon="2.34486">
        <ele>173.6</ele>
        <time>2022-01-23T09:06:12.000Z</time>
      </trkpt>
      <trkpt lat="43.15582" lon="2.34486">
        <ele>173.6</ele>
        <time>2022-01-23T09:06:13.000Z</time>
      </trkpt>
      <trkpt lat="43.15582" lon="2.34486">
        <ele>173.6</ele>
        <time>2022-01-23T09:06:14.000Z</time>
      </trkpt>
      <trkpt lat="43.15582" lon="2.34486">
        <ele>173.6</ele>
        <time>2022-01-23T09:06:15.000Z</time>
      </trkpt>
      <trkpt lat="43.15582" lon="2.34486">
        <ele>173.6</ele>
        <time>2022-01-23T09:06:16.000Z</time>
      </trkpt>
      <trkpt lat="43.15582" lon="2.34486">
        <ele>173.6</ele>
        <time>2022-01-23T09:06:17.000Z</time>
      </trkpt>
      <trkpt lat="43.15582" lon="2.34486">
        <ele>173.6</ele>
        <time>2022-01-23T09:06:18.000Z</time>
      </trkpt>
      <trkpt lat="43.15582" lon="2.34486">
        <ele>173.6</ele>
        <time>2022-01-23T09:06:19.000Z</time>
      </trkpt>
      <trkpt lat="43.15582" lon="2.34486">
        <ele>173.6</ele>
        <time>2022-01-23T09:06:20.000Z</time>
      </trkpt>
      <trkpt lat="43.15582" lon="2.34487">
        <ele>173.6</ele>
        <time>2022-01-23T09:06:21.000Z</time>
      </trkpt>
      <trkpt lat="43.15582" lon="2.34487">
        <ele>173.6</ele>
        <time>2022-01-23T09:06:22.000Z</time>
      </trkpt>
      <trkpt lat="43.15583" lon="2.34487">
        <ele>173.6</ele>
        <time>2022-01-23T09:06:23.000Z</time>
      </trkpt>
      <trkpt lat="43.15584" lon="2.34488">
        <ele>173.6</ele>
        <time>2022-01-23T09:06:24.000Z</time>
      </trkpt>
      <trkpt lat="43.15585" lon="2.34489">
        <ele>173.6</ele>
        <time>2022-01-23T09:06:25.000Z</time>
      </trkpt>
      <trkpt lat="43.15586" lon="2.34489">
        <ele>173.6</ele>
        <time>2022-01-23T09:06:26.000Z</time>
      </trkpt>
      <trkpt lat="43.15586" lon="2.3449">
        <ele>173.7</ele>
        <time>2022-01-23T09:06:27.000Z</time>
      </trkpt>
      <trkpt lat="43.15587" lon="2.34491">
        <ele>173.7</ele>
        <time>2022-01-23T09:06:28.000Z</time>
      </trkpt>
      <trkpt lat="43.15588" lon="2.34491">
        <ele>173.7</ele>
        <time>2022-01-23T09:06:29.000Z</time>
      </trkpt>
      <trkpt lat="43.15588" lon="2.34491">
        <ele>173.7</ele>
        <time>2022-01-23T09:06:30.000Z</time>
      </trkpt>
      <trkpt lat="43.15588" lon="2.34491">
        <ele>173.7</ele>
        <time>2022-01-23T09:06:31.000Z</time>
      </trkpt>
      <trkpt lat="43.15588" lon="2.34491">
        <ele>173.7</ele>
        <time>2022-01-23T09:06:32.000Z</time>
      </trkpt>
      <trkpt lat="43.15588" lon="2.34491">
        <ele>173.7</ele>
        <time>2022-01-23T09:06:33.000Z</time>
      </trkpt>
      <trkpt lat="43.15588" lon="2.34491">
        <ele>173.7</ele>
        <time>2022-01-23T09:06:34.000Z</time>
      </trkpt>
      <trkpt lat="43.15589" lon="2.34491">
        <ele>173.7</ele>
        <time>2022-01-23T09:06:35.000Z</time>
      </trkpt>
      <trkpt lat="43.15591" lon="2.34491">
        <ele>173.7</ele>
        <time>2022-01-23T09:06:36.000Z</time>
      </trkpt>
      <trkpt lat="43.15592" lon="2.34491">
        <ele>173.7</ele>
        <time>2022-01-23T09:06:37.000Z</time>
      </trkpt>
      <trkpt lat="43.15594" lon="2.34491">
        <ele>173.8</ele>
        <time>2022-01-23T09:06:38.000Z</time>
      </trkpt>
      <trkpt lat="43.15596" lon="2.34491">
        <ele>173.8</ele>
        <time>2022-01-23T09:06:39.000Z</time>
      </trkpt>
      <trkpt lat="43.15598" lon="2.34491">
        <ele>173.8</ele>
        <time>2022-01-23T09:06:40.000Z</time>
      </trkpt>
      <trkpt lat="43.15601" lon="2.34491">
        <ele>173.8</ele>
        <time>2022-01-23T09:06:41.000Z</time>
      </trkpt>
      <trkpt lat="43.15603" lon="2.34491">
        <ele>173.8</ele>
        <time>2022-01-23T09:06:42.000Z</time>
      </trkpt>
      <trkpt lat="43.15605" lon="2.34491">
        <ele>173.9</ele>
        <time>2022-01-23T09:06:43.000Z</time>
      </trkpt>
      <trkpt lat="43.15607" lon="2.34492">
        <ele>173.9</ele>
        <time>2022-01-23T09:06:44.000Z</time>
      </trkpt>
      <trkpt lat="43.1561" lon="2.34492">
        <ele>173.9</ele>
        <time>2022-01-23T09:06:45.000Z</time>
      </trkpt>
      <trkpt lat="43.15612" lon="2.34492">
        <ele>173.9</ele>
        <time>2022-01-23T09:06:46.000Z</time>
      </trkpt>
      <trkpt lat="43.15614" lon="2.34492">
        <ele>174</ele>
        <time>2022-01-23T09:06:47.000Z</time>
      </trkpt>
      <trkpt lat="43.15616" lon="2.34492">
        <ele>174</ele>
        <time>2022-01-23T09:06:48.000Z</time>
      </trkpt>
      <trkpt lat="43.15619" lon="2.34492">
        <ele>174</ele>
        <time>2022-01-23T09:06:49.000Z</time>
      </trkpt>
      <trkpt lat="43.15621" lon="2.34492">
        <ele>174</ele>
        <time>2022-01-23T09:06:50.000Z</time>
      </trkpt>
      <trkpt lat="43.15623" lon="2.34492">
        <ele>174.1</ele>
        <time>2022-01-23T09:06:51.000Z</time>
      </trkpt>
      <trkpt lat="43.15626" lon="2.34492">
        <ele>174.1</ele>
        <time>2022-01-23T09:06:52.000Z</time>
      </trkpt>
      <trkpt lat="43.15628" lon="2.34492">
        <ele>174.1</ele>
        <time>2022-01-23T09:06:53.000Z</time>
      </trkpt>
      <trkpt lat="43.1563" lon="2.34492">
        <ele>174.1</ele>
        <time>2022-01-23T09:06:54.000Z</time>
      </trkpt>
      <trkpt lat="43.15632" lon="2.34493">
        <ele>174.2</ele>
        <time>2022-01-23T09:06:55.000Z</time>
      </trkpt>
      <trkpt lat="43.15635" lon="2.34493">
        <ele>174.2</ele>
        <time>2022-01-23T09:06:56.000Z</time>
      </trkpt>
      <trkpt lat="43.15637" lon="2.34493">
        <ele>174.2</ele>
        <time>2022-01-23T09:06:57.000Z</time>
      </trkpt>
      <trkpt lat="43.15639" lon="2.34493">
        <ele>174.2</ele>
        <time>2022-01-23T09:06:58.000Z</time>
      </trkpt>
      <trkpt lat="43.15642" lon="2.34493">
        <ele>174.3</ele>
        <time>2022-01-23T09:06:59.000Z</time>
      </trkpt>
      <trkpt lat="43.15644" lon="2.34493">
        <ele>174.3</ele>
        <time>2022-01-23T09:07:00.000Z</time>
      </trkpt>
      <trkpt lat="43.15646" lon="2.34493">
        <ele>174.3</ele>
        <time>2022-01-23T09:07:01.000Z</time>
      </trkpt>
      <trkpt lat="43.15649" lon="2.34493">
        <ele>174.3</ele>
        <time>2022-01-23T09:07:02.000Z</time>
      </trkpt>
      <trkpt lat="43.15651" lon="2.34493">
        <ele>174.4</ele>
        <time>2022-01-23T09:07:03.000Z</time>
      </trkpt>
      <trkpt lat="43.15653" lon="2.34494">
        <ele>174.4</ele>
        <time>2022-01-23T09:07:04.000Z</time>
      </trkpt>
      <trkpt lat="43.15656" lon="2.34494">
        <ele>174.4</ele>
        <time>2022-01-23T09:07:05.000Z</time>
      </trkpt>
      <trkpt lat="43.15658" lon="2.34494">
        <ele>174.5</ele>
        <time>2022-01-23T09:07:06.000Z</time>
      </trkpt>
      <trkpt lat="43.1566" lon="2.34494">
        <ele>174.5</ele>
        <time>2022-01-23T09:07:07.000Z</time>
      </trkpt>
      <trkpt lat="43.15663" lon="2.34494">
        <ele>174.5</ele>
        <time>2022-01-23T09:07:08.000Z</time>
      </trkpt>
      <trkpt lat="43.15665" lon="2.34494">
        <ele>174.6</ele>
        <time>2022-01-23T09:07:09.000Z</time>
      </trkpt>
      <trkpt lat="43.15667" lon="2.34494">
        <ele>174.6</ele>
        <time>2022-01-23T09:07:10.000Z</time>
      </trkpt>
      <trkpt lat="43.1567" lon="2.34495">
        <ele>174.6</ele>
        <time>2022-01-23T09:07:11.000Z</time>
      </trkpt>
      <trkpt lat="43.15672" lon="2.34495">
        <ele>174.6</ele>
        <time>2022-01-23T09:07:12.000Z</time>
      </trkpt>
      <trkpt lat="43.15674" lon="2.34495">
        <ele>174.6</ele>
        <time>2022-01-23T09:07:13.000Z</time>
      </trkpt>
      <trkpt lat="43.15677" lon="2.34495">
        <ele>174.6</ele>
        <time>2022-01-23T09:07:14.000Z</time>
      </trkpt>
      <trkpt lat="43.15679" lon="2.34495">
        <ele>174.6</ele>
        <time>2022-01-23T09:07:15.000Z</time>
      </trkpt>
      <trkpt lat="43.15681" lon="2.34495">
        <ele>174.7</ele>
        <time>2022-01-23T09:07:16.000Z</time>
      </trkpt>
      <trkpt lat="43.15684" lon="2.34495">
        <ele>174.7</ele>
        <time>2022-01-23T09:07:17.000Z</time>
      </trkpt>
      <trkpt lat="43.15686" lon="2.34496">
        <ele>174.7</ele>
        <time>2022-01-23T09:07:18.000Z</time>
      </trkpt>
      <trkpt lat="43.15688" lon="2.34496">
        <ele>174.7</ele>
        <time>2022-01-23T09:07:19.000Z</time>
      </trkpt>
      <trkpt lat="43.1569" lon="2.34496">
        <ele>174.7</ele>
        <time>2022-01-23T09:07:20.000Z</time>
      </trkpt>
      <trkpt lat="43.15693" lon="2.34496">
        <ele>174.7</ele>
        <time>2022-01-23T09:07:21.000Z</time>
      </trkpt>
      <trkpt lat="43.15695" lon="2.34496">
        <ele>174.7</ele>
        <time>2022-01-23T09:07:22.000Z</time>
      </trkpt>
      <trkpt lat="43.15697" lon="2.34496">
        <ele>174.7</ele>
        <time>2022-01-23T09:07:23.000Z</time>
      </trkpt>
      <trkpt lat="43.15699" lon="2.34496">
        <ele>174.7</ele>
        <time>2022-01-23T09:07:24.000Z</time>
      </trkpt>
      <trkpt lat="43.15702" lon="2.34496">
        <ele>174.7</ele>
        <time>2022-01-23T09:07:25.000Z</time>
      </trkpt>
      <trkpt lat="43.15704" lon="2.34496">
        <ele>174.7</ele>
        <time>2022-01-23T09:07:26.000Z</time>
      </trkpt>
      <trkpt lat="43.15706" lon="2.34496">
        <ele>174.7</ele>
        <time>2022-01-23T09:07:27.000Z</time>
      </trkpt>
      <trkpt lat="43.15708" lon="2.34496">
        <ele>174.7</ele>
        <time>2022-01-23T09:07:28.000Z</time>
      </trkpt>
      <trkpt lat="43.15711" lon="2.34496">
        <ele>174.7</ele>
        <time>2022-01-23T09:07:29.000Z</time>
      </trkpt>
      <trkpt lat="43.15713" lon="2.34496">
        <ele>174.7</ele>
        <time>2022-01-23T09:07:30.000Z</time>
      </trkpt>
      <trkpt lat="43.15715" lon="2.34496">
        <ele>174.7</ele>
        <time>2022-01-23T09:07:31.000Z</time>
      </trkpt>
      <trkpt lat="43.15717" lon="2.34496">
        <ele>174.7</ele>
        <time>2022-01-23T09:07:32.000Z</time>
      </trkpt>
      <trkpt lat="43.1572" lon="2.34497">
        <ele>174.7</ele>
        <time>2022-01-23T09:07:33.000Z</time>
      </trkpt>
      <trkpt lat="43.15722" lon="2.34497">
        <ele>174.7</ele>
        <time>2022-01-23T09:07:34.000Z</time>
      </trkpt>
      <trkpt lat="43.15724" lon="2.34497">
        <ele>174.7</ele>
        <time>2022-01-23T09:07:35.000Z</time>
      </trkpt>
      <trkpt lat="43.15727" lon="2.34497">
        <ele>174.7</ele>
        <time>2022-01-23T09:07:36.000Z</time>
      </trkpt>
      <trkpt lat="43.15729" lon="2.34497">
        <ele>174.8</ele>
        <time>2022-01-23T09:07:37.000Z</time>
      </trkpt>
      <trkpt lat="43.15731" lon="2.34497">
        <ele>174.8</ele>
        <time>2022-01-23T09:07:38.000Z</time>
      </trkpt>
      <trkpt lat="43.15734" lon="2.34498">
        <ele>174.8</ele>
        <time>2022-01-23T09:07:39.000Z</time>
      </trkpt>
      <trkpt lat="43.15736" lon="2.34498">
        <ele>174.8</ele>
        <time>2022-01-23T09:07:40.000Z</time>
      </trkpt>
      <trkpt lat="43.15739" lon="2.34498">
        <ele>174.9</ele>
        <time>2022-01-23T09:07:41.000Z</time>
      </trkpt>
      <trkpt lat="43.15741" lon="2.34499">
        <ele>174.9</ele>
        <time>2022-01-23T09:07:42.000Z</time>
      </trkpt>
      <trkpt lat="43.15743" lon="2.345">
        <ele>175</ele>
        <time>2022-01-23T09:07:43.000Z</time>
      </trkpt>
      <trkpt lat="43.15746" lon="2.345">
        <ele>175</ele>
        <time>2022-01-23T09:07:44.000Z</time>
      </trkpt>
      <trkpt lat="43.15748" lon="2.34501">
        <ele>175.1</ele>
        <time>2022-01-23T09:07:45.000Z</time>
      </trkpt>
      <trkpt lat="43.1575" lon="2.34501">
        <ele>175.2</ele>
        <time>2022-01-23T09:07:46.000Z</time>
      </trkpt>
      <trkpt lat="43.15753" lon="2.34501">
        <ele>175</ele>
        <time>2022-01-23T09:07:47.000Z</time>
      </trkpt>
      <trkpt lat="43.15755" lon="2.34501">
        <ele>174.9</ele>
        <time>2022-01-23T09:07:48.000Z</time>
      </trkpt>
      <trkpt lat="43.15757" lon="2.34501">
        <ele>174.7</ele>
        <time>2022-01-23T09:07:49.000Z</time>
      </trkpt>
      <trkpt lat="43.15759" lon="2.34501">
        <ele>174.4</ele>
        <time>2022-01-23T09:07:50.000Z</time>
      </trkpt>
      <trkpt lat="43.15762" lon="2.345">
        <ele>174.2</ele>
        <time>2022-01-23T09:07:51.000Z</time>
      </trkpt>
      <trkpt lat="43.15764" lon="2.345">
        <ele>174</ele>
        <time>2022-01-23T09:07:52.000Z</time>
      </trkpt>
      <trkpt lat="43.15766" lon="2.34499">
        <ele>173.8</ele>
        <time>2022-01-23T09:07:53.000Z</time>
      </trkpt>
      <trkpt lat="43.15768" lon="2.34499">
        <ele>173.6</ele>
        <time>2022-01-23T09:07:54.000Z</time>
      </trkpt>
      <trkpt lat="43.1577" lon="2.34499">
        <ele>173.5</ele>
        <time>2022-01-23T09:07:55.000Z</time>
      </trkpt>
      <trkpt lat="43.15772" lon="2.34499">
        <ele>173.3</ele>
        <time>2022-01-23T09:07:56.000Z</time>
      </trkpt>
      <trkpt lat="43.15774" lon="2.34499">
        <ele>173.2</ele>
        <time>2022-01-23T09:07:57.000Z</time>
      </trkpt>
      <trkpt lat="43.15776" lon="2.34499">
        <ele>173</ele>
        <time>2022-01-23T09:07:58.000Z</time>
      </trkpt>
      <trkpt lat="43.15778" lon="2.34499">
        <ele>172.9</ele>
        <time>2022-01-23T09:07:59.000Z</time>
      </trkpt>
      <trkpt lat="43.1578" lon="2.34499">
        <ele>172.8</ele>
        <time>2022-01-23T09:08:00.000Z</time>
      </trkpt>
      <trkpt lat="43.15782" lon="2.34499">
        <ele>172.6</ele>
        <time>2022-01-23T09:08:01.000Z</time>
      </trkpt>
      <trkpt lat="43.15784" lon="2.34499">
        <ele>172.5</ele>
        <time>2022-01-23T09:08:02.000Z</time>
      </trkpt>
      <trkpt lat="43.15786" lon="2.345">
        <ele>172.4</ele>
        <time>2022-01-23T09:08:03.000Z</time>
      </trkpt>
      <trkpt lat="43.15788" lon="2.345">
        <ele>172.3</ele>
        <time>2022-01-23T09:08:04.000Z</time>
      </trkpt>
      <trkpt lat="43.1579" lon="2.34501">
        <ele>172.2</ele>
        <time>2022-01-23T09:08:05.000Z</time>
      </trkpt>
      <trkpt lat="43.15792" lon="2.34501">
        <ele>172.1</ele>
        <time>2022-01-23T09:08:06.000Z</time>
      </trkpt>
      <trkpt lat="43.15794" lon="2.34501">
        <ele>172</ele>
        <time>2022-01-23T09:08:07.000Z</time>
      </trkpt>
      <trkpt lat="43.15797" lon="2.34502">
        <ele>172</ele>
        <time>2022-01-23T09:08:08.000Z</time>
      </trkpt>
      <trkpt lat="43.15799" lon="2.34502">
        <ele>171.9</ele>
        <time>2022-01-23T09:08:09.000Z</time>
      </trkpt>
      <trkpt lat="43.15801" lon="2.34503">
        <ele>171.8</ele>
        <time>2022-01-23T09:08:10.000Z</time>
      </trkpt>
      <trkpt lat="43.15804" lon="2.34504">
        <ele>171.8</ele>
        <time>2022-01-23T09:08:11.000Z</time>
      </trkpt>
      <trkpt lat="43.15806" lon="2.34504">
        <ele>171.7</ele>
        <time>2022-01-23T09:08:12.000Z</time>
      </trkpt>
      <trkpt lat="43.15808" lon="2.34505">
        <ele>171.7</ele>
        <time>2022-01-23T09:08:13.000Z</time>
      </trkpt>
      <trkpt lat="43.15811" lon="2.34507">
        <ele>171.8</ele>
        <time>2022-01-23T09:08:14.000Z</time>
      </trkpt>
      <trkpt lat="43.15813" lon="2.34508">
        <ele>171.8</ele>
        <time>2022-01-23T09:08:15.000Z</time>
      </trkpt>
      <trkpt lat="43.15815" lon="2.3451">
        <ele>172</ele>
        <time>2022-01-23T09:08:16.000Z</time>
      </trkpt>
      <trkpt lat="43.15817" lon="2.34512">
        <ele>172.2</ele>
        <time>2022-01-23T09:08:17.000Z</time>
      </trkpt>
      <trkpt lat="43.15819" lon="2.34514">
        <ele>172.4</ele>
        <time>2022-01-23T09:08:18.000Z</time>
      </trkpt>
      <trkpt lat="43.15821" lon="2.34517">
        <ele>172.7</ele>
        <time>2022-01-23T09:08:19.000Z</time>
      </trkpt>
      <trkpt lat="43.15823" lon="2.34519">
        <ele>173</ele>
        <time>2022-01-23T09:08:20.000Z</time>
      </trkpt>
      <trkpt lat="43.15825" lon="2.34522">
        <ele>173.3</ele>
        <time>2022-01-23T09:08:21.000Z</time>
      </trkpt>
      <trkpt lat="43.15827" lon="2.34524">
        <ele>173.6</ele>
        <time>2022-01-23T09:08:22.000Z</time>
      </trkpt>
      <trkpt lat="43.15829" lon="2.34527">
        <ele>173.8</ele>
        <time>2022-01-23T09:08:23.000Z</time>
      </trkpt>
      <trkpt lat="43.15831" lon="2.34529">
        <ele>174</ele>
        <time>2022-01-23T09:08:24.000Z</time>
      </trkpt>
      <trkpt lat="43.15833" lon="2.3453">
        <ele>174.1</ele>
        <time>2022-01-23T09:08:25.000Z</time>
      </trkpt>
      <trkpt lat="43.15835" lon="2.34532">
        <ele>174.2</ele>
        <time>2022-01-23T09:08:26.000Z</time>
      </trkpt>
      <trkpt lat="43.15838" lon="2.34533">
        <ele>174.2</ele>
        <time>2022-01-23T09:08:27.000Z</time>
      </trkpt>
      <trkpt lat="43.1584" lon="2.34533">
        <ele>174.2</ele>
        <time>2022-01-23T09:08:28.000Z</time>
      </trkpt>
      <trkpt lat="43.15843" lon="2.34534">
        <ele>174.1</ele>
        <time>2022-01-23T09:08:29.000Z</time>
      </trkpt>
      <trkpt lat="43.15846" lon="2.34534">
        <ele>174</ele>
        <time>2022-01-23T09:08:30.000Z</time>
      </trkpt>
      <trkpt lat="43.15848" lon="2.34534">
        <ele>173.9</ele>
        <time>2022-01-23T09:08:31.000Z</time>
      </trkpt>
      <trkpt lat="43.15851" lon="2.34535">
        <ele>173.8</ele>
        <time>2022-01-23T09:08:32.000Z</time>
      </trkpt>
      <trkpt lat="43.15854" lon="2.34535">
        <ele>173.7</ele>
        <time>2022-01-23T09:08:33.000Z</time>
      </trkpt>
      <trkpt lat="43.15856" lon="2.34535">
        <ele>173.5</ele>
        <time>2022-01-23T09:08:34.000Z</time>
      </trkpt>
      <trkpt lat="43.15859" lon="2.34535">
        <ele>173.4</ele>
        <time>2022-01-23T09:08:35.000Z</time>
      </trkpt>
      <trkpt lat="43.15861" lon="2.34535">
        <ele>173.3</ele>
        <time>2022-01-23T09:08:36.000Z</time>
      </trkpt>
      <trkpt lat="43.15864" lon="2.34536">
        <ele>173.2</ele>
        <time>2022-01-23T09:08:37.000Z</time>
      </trkpt>
      <trkpt lat="43.15866" lon="2.34536">
        <ele>173.1</ele>
        <time>2022-01-23T09:08:38.000Z</time>
      </trkpt>
      <trkpt lat="43.15869" lon="2.34536">
        <ele>173</ele>
        <time>2022-01-23T09:08:39.000Z</time>
      </trkpt>
      <trkpt lat="43.15871" lon="2.34536">
        <ele>172.9</ele>
        <time>2022-01-23T09:08:40.000Z</time>
      </trkpt>
      <trkpt lat="43.15874" lon="2.34537">
        <ele>172.8</ele>
        <time>2022-01-23T09:08:41.000Z</time>
      </trkpt>
      <trkpt lat="43.15876" lon="2.34537">
        <ele>172.6</ele>
        <time>2022-01-23T09:08:42.000Z</time>
      </trkpt>
      <trkpt lat="43.15879" lon="2.34537">
        <ele>172.5</ele>
        <time>2022-01-23T09:08:43.000Z</time>
      </trkpt>
      <trkpt lat="43.15881" lon="2.34537">
        <ele>172.4</ele>
        <time>2022-01-23T09:08:44.000Z</time>
      </trkpt>
      <trkpt lat="43.15884" lon="2.34537">
        <ele>172.2</ele>
        <time>2022-01-23T09:08:45.000Z</time>
      </trkpt>
      <trkpt lat="43.15886" lon="2.34537">
        <ele>172.1</ele>
        <time>2022-01-23T09:08:46.000Z</time>
      </trkpt>
      <trkpt lat="43.15888" lon="2.34536">
        <ele>171.9</ele>
        <time>2022-01-23T09:08:47.000Z</time>
      </trkpt>
      <trkpt lat="43.15891" lon="2.34536">
        <ele>171.7</ele>
        <time>2022-01-23T09:08:48.000Z</time>
      </trkpt>
      <trkpt lat="43.15893" lon="2.34536">
        <ele>171.5</ele>
        <time>2022-01-23T09:08:49.000Z</time>
      </trkpt>
      <trkpt lat="43.15896" lon="2.34535">
        <ele>171.3</ele>
        <time>2022-01-23T09:08:50.000Z</time>
      </trkpt>
      <trkpt lat="43.15899" lon="2.34535">
        <ele>171.1</ele>
        <time>2022-01-23T09:08:51.000Z</time>
      </trkpt>
      <trkpt lat="43.15901" lon="2.34534">
        <ele>170.8</ele>
        <time>2022-01-23T09:08:52.000Z</time>
      </trkpt>
      <trkpt lat="43.15904" lon="2.34533">
        <ele>170.5</ele>
        <time>2022-01-23T09:08:53.000Z</time>
      </trkpt>
      <trkpt lat="43.15907" lon="2.34533">
        <ele>170.3</ele>
        <time>2022-01-23T09:08:54.000Z</time>
      </trkpt>
      <trkpt lat="43.15909" lon="2.34532">
        <ele>170.1</ele>
        <time>2022-01-23T09:08:55.000Z</time>
      </trkpt>
      <trkpt lat="43.15912" lon="2.34532">
        <ele>169.9</ele>
        <time>2022-01-23T09:08:56.000Z</time>
      </trkpt>
      <trkpt lat="43.15915" lon="2.34532">
        <ele>169.7</ele>
        <time>2022-01-23T09:08:57.000Z</time>
      </trkpt>
      <trkpt lat="43.15917" lon="2.34533">
        <ele>169.6</ele>
        <time>2022-01-23T09:08:58.000Z</time>
      </trkpt>
      <trkpt lat="43.1592" lon="2.34533">
        <ele>169.5</ele>
        <time>2022-01-23T09:08:59.000Z</time>
      </trkpt>
      <trkpt lat="43.15923" lon="2.34534">
        <ele>169.3</ele>
        <time>2022-01-23T09:09:00.000Z</time>
      </trkpt>
      <trkpt lat="43.15925" lon="2.34535">
        <ele>169.2</ele>
        <time>2022-01-23T09:09:01.000Z</time>
      </trkpt>
      <trkpt lat="43.15928" lon="2.34535">
        <ele>169</ele>
        <time>2022-01-23T09:09:02.000Z</time>
      </trkpt>
      <trkpt lat="43.15931" lon="2.34536">
        <ele>168.9</ele>
        <time>2022-01-23T09:09:03.000Z</time>
      </trkpt>
      <trkpt lat="43.15934" lon="2.34537">
        <ele>168.7</ele>
        <time>2022-01-23T09:09:04.000Z</time>
      </trkpt>
      <trkpt lat="43.15937" lon="2.34538">
        <ele>168.5</ele>
        <time>2022-01-23T09:09:05.000Z</time>
      </trkpt>
      <trkpt lat="43.1594" lon="2.34538">
        <ele>168.3</ele>
        <time>2022-01-23T09:09:06.000Z</time>
      </trkpt>
      <trkpt lat="43.15943" lon="2.34539">
        <ele>168.1</ele>
        <time>2022-01-23T09:09:07.000Z</time>
      </trkpt>
      <trkpt lat="43.15946" lon="2.34539">
        <ele>167.9</ele>
        <time>2022-01-23T09:09:08.000Z</time>
      </trkpt>
      <trkpt lat="43.15949" lon="2.3454">
        <ele>167.7</ele>
        <time>2022-01-23T09:09:09.000Z</time>
      </trkpt>
      <trkpt lat="43.15952" lon="2.3454">
        <ele>167.5</ele>
        <time>2022-01-23T09:09:10.000Z</time>
      </trkpt>
      <trkpt lat="43.15955" lon="2.34541">
        <ele>167.2</ele>
        <time>2022-01-23T09:09:11.000Z</time>
      </trkpt>
      <trkpt lat="43.15958" lon="2.34541">
        <ele>167</ele>
        <time>2022-01-23T09:09:12.000Z</time>
      </trkpt>
      <trkpt lat="43.15961" lon="2.34542">
        <ele>166.8</ele>
        <time>2022-01-23T09:09:13.000Z</time>
      </trkpt>
      <trkpt lat="43.15963" lon="2.34542">
        <ele>166.6</ele>
        <time>2022-01-23T09:09:14.000Z</time>
      </trkpt>
      <trkpt lat="43.15966" lon="2.34543">
        <ele>166.4</ele>
        <time>2022-01-23T09:09:15.000Z</time>
      </trkpt>
      <trkpt lat="43.15969" lon="2.34544">
        <ele>166.3</ele>
        <time>2022-01-23T09:09:16.000Z</time>
      </trkpt>
      <trkpt lat="43.15971" lon="2.34546">
        <ele>166.2</ele>
        <time>2022-01-23T09:09:17.000Z</time>
      </trkpt>
      <trkpt lat="43.15974" lon="2.34548">
        <ele>166.1</ele>
        <time>2022-01-23T09:09:18.000Z</time>
      </trkpt>
      <trkpt lat="43.15976" lon="2.3455">
        <ele>166.1</ele>
        <time>2022-01-23T09:09:19.000Z</time>
      </trkpt>
      <trkpt lat="43.15978" lon="2.34552">
        <ele>166.1</ele>
        <time>2022-01-23T09:09:20.000Z</time>
      </trkpt>
      <trkpt lat="43.1598" lon="2.34555">
        <ele>166.1</ele>
        <time>2022-01-23T09:09:21.000Z</time>
      </trkpt>
      <trkpt lat="43.15982" lon="2.34558">
        <ele>166.1</ele>
        <time>2022-01-23T09:09:22.000Z</time>
      </trkpt>
      <trkpt lat="43.15984" lon="2.3456">
        <ele>166.1</ele>
        <time>2022-01-23T09:09:23.000Z</time>
      </trkpt>
      <trkpt lat="43.15986" lon="2.34563">
        <ele>166.1</ele>
        <time>2022-01-23T09:09:24.000Z</time>
      </trkpt>
      <trkpt lat="43.15988" lon="2.34566">
        <ele>166.1</ele>
        <time>2022-01-23T09:09:25.000Z</time>
      </trkpt>
      <trkpt lat="43.15991" lon="2.34568">
        <ele>166.1</ele>
        <time>2022-01-23T09:09:26.000Z</time>
      </trkpt>
      <trkpt lat="43.15993" lon="2.34571">
        <ele>166</ele>
        <time>2022-01-23T09:09:27.000Z</time>
      </trkpt>
      <trkpt lat="43.15995" lon="2.34574">
        <ele>165.9</ele>
        <time>2022-01-23T09:09:28.000Z</time>
      </trkpt>
      <trkpt lat="43.15997" lon="2.34576">
        <ele>165.9</ele>
        <time>2022-01-23T09:09:29.000Z</time>
      </trkpt>
      <trkpt lat="43.15999" lon="2.34579">
        <ele>165.8</ele>
        <time>2022-01-23T09:09:30.000Z</time>
      </trkpt>
      <trkpt lat="43.16001" lon="2.34582">
        <ele>165.8</ele>
        <time>2022-01-23T09:09:31.000Z</time>
      </trkpt>
      <trkpt lat="43.16002" lon="2.34584">
        <ele>165.9</ele>
        <time>2022-01-23T09:09:32.000Z</time>
      </trkpt>
      <trkpt lat="43.16004" lon="2.34587">
        <ele>165.9</ele>
        <time>2022-01-23T09:09:33.000Z</time>
      </trkpt>
      <trkpt lat="43.16006" lon="2.3459">
        <ele>165.8</ele>
        <time>2022-01-23T09:09:34.000Z</time>
      </trkpt>
      <trkpt lat="43.16007" lon="2.34593">
        <ele>165.8</ele>
        <time>2022-01-23T09:09:35.000Z</time>
      </trkpt>
      <trkpt lat="43.16009" lon="2.34595">
        <ele>165.7</ele>
        <time>2022-01-23T09:09:36.000Z</time>
      </trkpt>
      <trkpt lat="43.16011" lon="2.34597">
        <ele>165.7</ele>
        <time>2022-01-23T09:09:37.000Z</time>
      </trkpt>
      <trkpt lat="43.16012" lon="2.34599">
        <ele>165.6</ele>
        <time>2022-01-23T09:09:38.000Z</time>
      </trkpt>
      <trkpt lat="43.16014" lon="2.346">
        <ele>165.6</ele>
        <time>2022-01-23T09:09:39.000Z</time>
      </trkpt>
      <trkpt lat="43.16016" lon="2.34601">
        <ele>165.6</ele>
        <time>2022-01-23T09:09:40.000Z</time>
      </trkpt>
      <trkpt lat="43.16018" lon="2.34602">
        <ele>165.5</ele>
        <time>2022-01-23T09:09:41.000Z</time>
      </trkpt>
      <trkpt lat="43.16019" lon="2.34602">
        <ele>165.5</ele>
        <time>2022-01-23T09:09:42.000Z</time>
      </trkpt>
      <trkpt lat="43.1602" lon="2.34602">
        <ele>165.4</ele>
        <time>2022-01-23T09:09:43.000Z</time>
      </trkpt>
      <trkpt lat="43.16022" lon="2.34602">
        <ele>165.4</ele>
        <time>2022-01-23T09:09:44.000Z</time>
      </trkpt>
      <trkpt lat="43.16023" lon="2.34601">
        <ele>165.4</ele>
        <time>2022-01-23T09:09:45.000Z</time>
      </trkpt>
      <trkpt lat="43.16024" lon="2.34601">
        <ele>165.3</ele>
        <time>2022-01-23T09:09:46.000Z</time>
      </trkpt>
      <trkpt lat="43.16026" lon="2.346">
        <ele>165.3</ele>
        <time>2022-01-23T09:09:47.000Z</time>
      </trkpt>
      <trkpt lat="43.16027" lon="2.34599">
        <ele>165.2</ele>
        <time>2022-01-23T09:09:48.000Z</time>
      </trkpt>
      <trkpt lat="43.16029" lon="2.34599">
        <ele>165.1</ele>
        <time>2022-01-23T09:09:49.000Z</time>
      </trkpt>
      <trkpt lat="43.16031" lon="2.34598">
        <ele>165.1</ele>
        <time>2022-01-23T09:09:50.000Z</time>
      </trkpt>
      <trkpt lat="43.16033" lon="2.34597">
        <ele>165</ele>
        <time>2022-01-23T09:09:51.000Z</time>
      </trkpt>
      <trkpt lat="43.16036" lon="2.34597">
        <ele>164.9</ele>
        <time>2022-01-23T09:09:52.000Z</time>
      </trkpt>
      <trkpt lat="43.16038" lon="2.34596">
        <ele>164.9</ele>
        <time>2022-01-23T09:09:53.000Z</time>
      </trkpt>
      <trkpt lat="43.1604" lon="2.34596">
        <ele>164.8</ele>
        <time>2022-01-23T09:09:54.000Z</time>
      </trkpt>
      <trkpt lat="43.16043" lon="2.34597">
        <ele>164.7</ele>
        <time>2022-01-23T09:09:55.000Z</time>
      </trkpt>
      <trkpt lat="43.16045" lon="2.34597">
        <ele>164.6</ele>
        <time>2022-01-23T09:09:56.000Z</time>
      </trkpt>
      <trkpt lat="43.16047" lon="2.34597">
        <ele>164.6</ele>
        <time>2022-01-23T09:09:57.000Z</time>
      </trkpt>
      <trkpt lat="43.1605" lon="2.34597">
        <ele>164.5</ele>
        <time>2022-01-23T09:09:58.000Z</time>
      </trkpt>
      <trkpt lat="43.16052" lon="2.34597">
        <ele>164.4</ele>
        <time>2022-01-23T09:09:59.000Z</time>
      </trkpt>
      <trkpt lat="43.16054" lon="2.34598">
        <ele>164.4</ele>
        <time>2022-01-23T09:10:00.000Z</time>
      </trkpt>
      <trkpt lat="43.16057" lon="2.34598">
        <ele>164.3</ele>
        <time>2022-01-23T09:10:01.000Z</time>
      </trkpt>
      <trkpt lat="43.16059" lon="2.34598">
        <ele>164.2</ele>
        <time>2022-01-23T09:10:02.000Z</time>
      </trkpt>
      <trkpt lat="43.16062" lon="2.34598">
        <ele>164.2</ele>
        <time>2022-01-23T09:10:03.000Z</time>
      </trkpt>
      <trkpt lat="43.16064" lon="2.34598">
        <ele>164.1</ele>
        <time>2022-01-23T09:10:04.000Z</time>
      </trkpt>
      <trkpt lat="43.16066" lon="2.34598">
        <ele>164</ele>
        <time>2022-01-23T09:10:05.000Z</time>
      </trkpt>
      <trkpt lat="43.16069" lon="2.34599">
        <ele>164</ele>
        <time>2022-01-23T09:10:06.000Z</time>
      </trkpt>
      <trkpt lat="43.16071" lon="2.34599">
        <ele>163.9</ele>
        <time>2022-01-23T09:10:07.000Z</time>
      </trkpt>
      <trkpt lat="43.16074" lon="2.34599">
        <ele>163.8</ele>
        <time>2022-01-23T09:10:08.000Z</time>
      </trkpt>
      <trkpt lat="43.16077" lon="2.34599">
        <ele>163.8</ele>
        <time>2022-01-23T09:10:09.000Z</time>
      </trkpt>
      <trkpt lat="43.16079" lon="2.34599">
        <ele>163.7</ele>
        <time>2022-01-23T09:10:10.000Z</time>
      </trkpt>
      <trkpt lat="43.16082" lon="2.34599">
        <ele>163.6</ele>
        <time>2022-01-23T09:10:11.000Z</time>
      </trkpt>
      <trkpt lat="43.16084" lon="2.34599">
        <ele>163.6</ele>
        <time>2022-01-23T09:10:12.000Z</time>
      </trkpt>
      <trkpt lat="43.16087" lon="2.34599">
        <ele>163.7</ele>
        <time>2022-01-23T09:10:13.000Z</time>
      </trkpt>
      <trkpt lat="43.16089" lon="2.34599">
        <ele>163.8</ele>
        <time>2022-01-23T09:10:14.000Z</time>
      </trkpt>
      <trkpt lat="43.16092" lon="2.346">
        <ele>163.9</ele>
        <time>2022-01-23T09:10:15.000Z</time>
      </trkpt>
      <trkpt lat="43.16095" lon="2.346">
        <ele>164</ele>
        <time>2022-01-23T09:10:16.000Z</time>
      </trkpt>
      <trkpt lat="43.16097" lon="2.346">
        <ele>164.1</ele>
        <time>2022-01-23T09:10:17.000Z</time>
      </trkpt>
      <trkpt lat="43.161" lon="2.34601">
        <ele>164.3</ele>
        <time>2022-01-23T09:10:18.000Z</time>
      </trkpt>
      <trkpt lat="43.16103" lon="2.34601">
        <ele>164.4</ele>
        <time>2022-01-23T09:10:19.000Z</time>
      </trkpt>
      <trkpt lat="43.16105" lon="2.34602">
        <ele>164.5</ele>
        <time>2022-01-23T09:10:20.000Z</time>
      </trkpt>
      <trkpt lat="43.16108" lon="2.34602">
        <ele>164.6</ele>
        <time>2022-01-23T09:10:21.000Z</time>
      </trkpt>
      <trkpt lat="43.1611" lon="2.34603">
        <ele>164.7</ele>
        <time>2022-01-23T09:10:22.000Z</time>
      </trkpt>
      <trkpt lat="43.16113" lon="2.34604">
        <ele>164.9</ele>
        <time>2022-01-23T09:10:23.000Z</time>
      </trkpt>
      <trkpt lat="43.16115" lon="2.34604">
        <ele>165</ele>
        <time>2022-01-23T09:10:24.000Z</time>
      </trkpt>
      <trkpt lat="43.16118" lon="2.34605">
        <ele>165.1</ele>
        <time>2022-01-23T09:10:25.000Z</time>
      </trkpt>
      <trkpt lat="43.16121" lon="2.34606">
        <ele>165.3</ele>
        <time>2022-01-23T09:10:26.000Z</time>
      </trkpt>
      <trkpt lat="43.16123" lon="2.34607">
        <ele>165.4</ele>
        <time>2022-01-23T09:10:27.000Z</time>
      </trkpt>
      <trkpt lat="43.16126" lon="2.34607">
        <ele>165.5</ele>
        <time>2022-01-23T09:10:28.000Z</time>
      </trkpt>
      <trkpt lat="43.16128" lon="2.34608">
        <ele>165.7</ele>
        <time>2022-01-23T09:10:29.000Z</time>
      </trkpt>
      <trkpt lat="43.16131" lon="2.34609">
        <ele>165.8</ele>
        <time>2022-01-23T09:10:30.000Z</time>
      </trkpt>
      <trkpt lat="43.16134" lon="2.34609">
        <ele>165.9</ele>
        <time>2022-01-23T09:10:31.000Z</time>
      </trkpt>
      <trkpt lat="43.16136" lon="2.3461">
        <ele>166.1</ele>
        <time>2022-01-23T09:10:32.000Z</time>
      </trkpt>
      <trkpt lat="43.16139" lon="2.34611">
        <ele>166.2</ele>
        <time>2022-01-23T09:10:33.000Z</time>
      </trkpt>
      <trkpt lat="43.16142" lon="2.34611">
        <ele>166.3</ele>
        <time>2022-01-23T09:10:34.000Z</time>
      </trkpt>
      <trkpt lat="43.16144" lon="2.34612">
        <ele>166.5</ele>
        <time>2022-01-23T09:10:35.000Z</time>
      </trkpt>
      <trkpt lat="43.16147" lon="2.34612">
        <ele>166.6</ele>
        <time>2022-01-23T09:10:36.000Z</time>
      </trkpt>
      <trkpt lat="43.1615" lon="2.34613">
        <ele>166.7</ele>
        <time>2022-01-23T09:10:37.000Z</time>
      </trkpt>
      <trkpt lat="43.16152" lon="2.34613">
        <ele>166.8</ele>
        <time>2022-01-23T09:10:38.000Z</time>
      </trkpt>
      <trkpt lat="43.16155" lon="2.34613">
        <ele>167</ele>
        <time>2022-01-23T09:10:39.000Z</time>
      </trkpt>
      <trkpt lat="43.16158" lon="2.34614">
        <ele>167.1</ele>
        <time>2022-01-23T09:10:40.000Z</time>
      </trkpt>
      <trkpt lat="43.1616" lon="2.34614">
        <ele>167.2</ele>
        <time>2022-01-23T09:10:41.000Z</time>
      </trkpt>
      <trkpt lat="43.16163" lon="2.34614">
        <ele>167.3</ele>
        <time>2022-01-23T09:10:42.000Z</time>
      </trkpt>
      <trkpt lat="43.16165" lon="2.34615">
        <ele>167.5</ele>
        <time>2022-01-23T09:10:43.000Z</time>
      </trkpt>
      <trkpt lat="43.16168" lon="2.34615">
        <ele>167.7</ele>
        <time>2022-01-23T09:10:44.000Z</time>
      </trkpt>
      <trkpt lat="43.16171" lon="2.34616">
        <ele>168.1</ele>
        <time>2022-01-23T09:10:45.000Z</time>
      </trkpt>
      <trkpt lat="43.16173" lon="2.34617">
        <ele>168.4</ele>
        <time>2022-01-23T09:10:46.000Z</time>
      </trkpt>
      <trkpt lat="43.16175" lon="2.34617">
        <ele>168.8</ele>
        <time>2022-01-23T09:10:47.000Z</time>
      </trkpt>
      <trkpt lat="43.16178" lon="2.34618">
        <ele>169.1</ele>
        <time>2022-01-23T09:10:48.000Z</time>
      </trkpt>
      <trkpt lat="43.1618" lon="2.34619">
        <ele>169.5</ele>
        <time>2022-01-23T09:10:49.000Z</time>
      </trkpt>
      <trkpt lat="43.16182" lon="2.3462">
        <ele>169.8</ele>
        <time>2022-01-23T09:10:50.000Z</time>
      </trkpt>
      <trkpt lat="43.16185" lon="2.34622">
        <ele>170.2</ele>
        <time>2022-01-23T09:10:51.000Z</time>
      </trkpt>
      <trkpt lat="43.16187" lon="2.34623">
        <ele>170.5</ele>
        <time>2022-01-23T09:10:52.000Z</time>
      </trkpt>
      <trkpt lat="43.16189" lon="2.34624">
        <ele>170.9</ele>
        <time>2022-01-23T09:10:53.000Z</time>
      </trkpt>
      <trkpt lat="43.16191" lon="2.34626">
        <ele>171.2</ele>
        <time>2022-01-23T09:10:54.000Z</time>
      </trkpt>
      <trkpt lat="43.16193" lon="2.34628">
        <ele>171.6</ele>
        <time>2022-01-23T09:10:55.000Z</time>
      </trkpt>
      <trkpt lat="43.16195" lon="2.3463">
        <ele>171.9</ele>
        <time>2022-01-23T09:10:56.000Z</time>
      </trkpt>
      <trkpt lat="43.16197" lon="2.34632">
        <ele>172.3</ele>
        <time>2022-01-23T09:10:57.000Z</time>
      </trkpt>
      <trkpt lat="43.16198" lon="2.34634">
        <ele>172.6</ele>
        <time>2022-01-23T09:10:58.000Z</time>
      </trkpt>
      <trkpt lat="43.162" lon="2.34636">
        <ele>172.9</ele>
        <time>2022-01-23T09:10:59.000Z</time>
      </trkpt>
      <trkpt lat="43.16202" lon="2.34638">
        <ele>173.2</ele>
        <time>2022-01-23T09:11:00.000Z</time>
      </trkpt>
      <trkpt lat="43.16203" lon="2.34641">
        <ele>173.6</ele>
        <time>2022-01-23T09:11:01.000Z</time>
      </trkpt>
      <trkpt lat="43.16205" lon="2.34643">
        <ele>173.9</ele>
        <time>2022-01-23T09:11:02.000Z</time>
      </trkpt>
      <trkpt lat="43.16206" lon="2.34645">
        <ele>174.2</ele>
        <time>2022-01-23T09:11:03.000Z</time>
      </trkpt>
      <trkpt lat="43.16208" lon="2.34648">
        <ele>174.5</ele>
        <time>2022-01-23T09:11:04.000Z</time>
      </trkpt>
      <trkpt lat="43.16209" lon="2.3465">
        <ele>174.9</ele>
        <time>2022-01-23T09:11:05.000Z</time>
      </trkpt>
      <trkpt lat="43.16211" lon="2.34653">
        <ele>175.2</ele>
        <time>2022-01-23T09:11:06.000Z</time>
      </trkpt>
      <trkpt lat="43.16212" lon="2.34656">
        <ele>175.5</ele>
        <time>2022-01-23T09:11:07.000Z</time>
      </trkpt>
      <trkpt lat="43.16214" lon="2.34658">
        <ele>175.8</ele>
        <time>2022-01-23T09:11:08.000Z</time>
      </trkpt>
      <trkpt lat="43.16215" lon="2.34661">
        <ele>176.1</ele>
        <time>2022-01-23T09:11:09.000Z</time>
      </trkpt>
      <trkpt lat="43.16216" lon="2.34663">
        <ele>176.4</ele>
        <time>2022-01-23T09:11:10.000Z</time>
      </trkpt>
      <trkpt lat="43.16218" lon="2.34666">
        <ele>176.7</ele>
        <time>2022-01-23T09:11:11.000Z</time>
      </trkpt>
      <trkpt lat="43.16219" lon="2.34669">
        <ele>176.9</ele>
        <time>2022-01-23T09:11:12.000Z</time>
      </trkpt>
      <trkpt lat="43.1622" lon="2.34671">
        <ele>177.1</ele>
        <time>2022-01-23T09:11:13.000Z</time>
      </trkpt>
      <trkpt lat="43.16221" lon="2.34674">
        <ele>177.3</ele>
        <time>2022-01-23T09:11:14.000Z</time>
      </trkpt>
      <trkpt lat="43.16223" lon="2.34676">
        <ele>177.5</ele>
        <time>2022-01-23T09:11:15.000Z</time>
      </trkpt>
      <trkpt lat="43.16224" lon="2.34679">
        <ele>177.7</ele>
        <time>2022-01-23T09:11:16.000Z</time>
      </trkpt>
      <trkpt lat="43.16225" lon="2.34682">
        <ele>177.9</ele>
        <time>2022-01-23T09:11:17.000Z</time>
      </trkpt>
      <trkpt lat="43.16226" lon="2.34684">
        <ele>178.1</ele>
        <time>2022-01-23T09:11:18.000Z</time>
      </trkpt>
      <trkpt lat="43.16227" lon="2.34687">
        <ele>178.3</ele>
        <time>2022-01-23T09:11:19.000Z</time>
      </trkpt>
      <trkpt lat="43.16228" lon="2.34689">
        <ele>178.5</ele>
        <time>2022-01-23T09:11:20.000Z</time>
      </trkpt>
      <trkpt lat="43.16229" lon="2.34692">
        <ele>178.6</ele>
        <time>2022-01-23T09:11:21.000Z</time>
      </trkpt>
      <trkpt lat="43.1623" lon="2.34695">
        <ele>178.8</ele>
        <time>2022-01-23T09:11:22.000Z</time>
      </trkpt>
      <trkpt lat="43.16231" lon="2.34697">
        <ele>179</ele>
        <time>2022-01-23T09:11:23.000Z</time>
      </trkpt>
      <trkpt lat="43.16232" lon="2.347">
        <ele>179.1</ele>
        <time>2022-01-23T09:11:24.000Z</time>
      </trkpt>
      <trkpt lat="43.16233" lon="2.34703">
        <ele>179.3</ele>
        <time>2022-01-23T09:11:25.000Z</time>
      </trkpt>
      <trkpt lat="43.16234" lon="2.34705">
        <ele>179.4</ele>
        <time>2022-01-23T09:11:26.000Z</time>
      </trkpt>
      <trkpt lat="43.16235" lon="2.34708">
        <ele>179.6</ele>
        <time>2022-01-23T09:11:27.000Z</time>
      </trkpt>
      <trkpt lat="43.16236" lon="2.3471">
        <ele>179.7</ele>
        <time>2022-01-23T09:11:28.000Z</time>
      </trkpt>
      <trkpt lat="43.16237" lon="2.34713">
        <ele>179.9</ele>
        <time>2022-01-23T09:11:29.000Z</time>
      </trkpt>
      <trkpt lat="43.16238" lon="2.34716">
        <ele>180</ele>
        <time>2022-01-23T09:11:30.000Z</time>
      </trkpt>
      <trkpt lat="43.16238" lon="2.34718">
        <ele>180.2</ele>
        <time>2022-01-23T09:11:31.000Z</time>
      </trkpt>
      <trkpt lat="43.16239" lon="2.34721">
        <ele>180.3</ele>
        <time>2022-01-23T09:11:32.000Z</time>
      </trkpt>
      <trkpt lat="43.1624" lon="2.34724">
        <ele>180.4</ele>
        <time>2022-01-23T09:11:33.000Z</time>
      </trkpt>
      <trkpt lat="43.16241" lon="2.34726">
        <ele>180.6</ele>
        <time>2022-01-23T09:11:34.000Z</time>
      </trkpt>
      <trkpt lat="43.16242" lon="2.34729">
        <ele>180.7</ele>
        <time>2022-01-23T09:11:35.000Z</time>
      </trkpt>
      <trkpt lat="43.16243" lon="2.34731">
        <ele>180.9</ele>
        <time>2022-01-23T09:11:36.000Z</time>
      </trkpt>
      <trkpt lat="43.16244" lon="2.34734">
        <ele>181</ele>
        <time>2022-01-23T09:11:37.000Z</time>
      </trkpt>
      <trkpt lat="43.16245" lon="2.34736">
        <ele>181.2</ele>
        <time>2022-01-23T09:11:38.000Z</time>
      </trkpt>
      <trkpt lat="43.16246" lon="2.34739">
        <ele>181.3</ele>
        <time>2022-01-23T09:11:39.000Z</time>
      </trkpt>
      <trkpt lat="43.16247" lon="2.34741">
        <ele>181.5</ele>
        <time>2022-01-23T09:11:40.000Z</time>
      </trkpt>
      <trkpt lat="43.16248" lon="2.34744">
        <ele>181.7</ele>
        <time>2022-01-23T09:11:41.000Z</time>
      </trkpt>
      <trkpt lat="43.16249" lon="2.34746">
        <ele>181.9</ele>
        <time>2022-01-23T09:11:42.000Z</time>
      </trkpt>
      <trkpt lat="43.16251" lon="2.34749">
        <ele>182</ele>
        <time>2022-01-23T09:11:43.000Z</time>
      </trkpt>
      <trkpt lat="43.16252" lon="2.34751">
        <ele>182.2</ele>
        <time>2022-01-23T09:11:44.000Z</time>
      </trkpt>
      <trkpt lat="43.16253" lon="2.34753">
        <ele>182.4</ele>
        <time>2022-01-23T09:11:45.000Z</time>
      </trkpt>
      <trkpt lat="43.16255" lon="2.34755">
        <ele>182.7</ele>
        <time>2022-01-23T09:11:46.000Z</time>
      </trkpt>
      <trkpt lat="43.16256" lon="2.34758">
        <ele>182.9</ele>
        <time>2022-01-23T09:11:47.000Z</time>
      </trkpt>
      <trkpt lat="43.16258" lon="2.3476">
        <ele>183.2</ele>
        <time>2022-01-23T09:11:48.000Z</time>
      </trkpt>
      <trkpt lat="43.16259" lon="2.34762">
        <ele>183.4</ele>
        <time>2022-01-23T09:11:49.000Z</time>
      </trkpt>
      <trkpt lat="43.1626" lon="2.34764">
        <ele>183.6</ele>
        <time>2022-01-23T09:11:50.000Z</time>
      </trkpt>
      <trkpt lat="43.16262" lon="2.34766">
        <ele>183.8</ele>
        <time>2022-01-23T09:11:51.000Z</time>
      </trkpt>
      <trkpt lat="43.16263" lon="2.34768">
        <ele>184</ele>
        <time>2022-01-23T09:11:52.000Z</time>
      </trkpt>
      <trkpt lat="43.16264" lon="2.34769">
        <ele>184.2</ele>
        <time>2022-01-23T09:11:53.000Z</time>
      </trkpt>
      <trkpt lat="43.16265" lon="2.34771">
        <ele>184.4</ele>
        <time>2022-01-23T09:11:54.000Z</time>
      </trkpt>
      <trkpt lat="43.16266" lon="2.34772">
        <ele>184.6</ele>
        <time>2022-01-23T09:11:55.000Z</time>
      </trkpt>
      <trkpt lat="43.16267" lon="2.34774">
        <ele>184.7</ele>
        <time>2022-01-23T09:11:56.000Z</time>
      </trkpt>
      <trkpt lat="43.16268" lon="2.34775">
        <ele>184.9</ele>
        <time>2022-01-23T09:11:57.000Z</time>
      </trkpt>
      <trkpt lat="43.16269" lon="2.34776">
        <ele>185</ele>
        <time>2022-01-23T09:11:58.000Z</time>
      </trkpt>
      <trkpt lat="43.1627" lon="2.34777">
        <ele>185.1</ele>
        <time>2022-01-23T09:11:59.000Z</time>
      </trkpt>
      <trkpt lat="43.16271" lon="2.34778">
        <ele>185.2</ele>
        <time>2022-01-23T09:12:00.000Z</time>
      </trkpt>
      <trkpt lat="43.16271" lon="2.34778">
        <ele>185.3</ele>
        <time>2022-01-23T09:12:01.000Z</time>
      </trkpt>
      <trkpt lat="43.16272" lon="2.34779">
        <ele>185.4</ele>
        <time>2022-01-23T09:12:02.000Z</time>
      </trkpt>
      <trkpt lat="43.16273" lon="2.3478">
        <ele>185.5</ele>
        <time>2022-01-23T09:12:03.000Z</time>
      </trkpt>
      <trkpt lat="43.16273" lon="2.34781">
        <ele>185.6</ele>
        <time>2022-01-23T09:12:04.000Z</time>
      </trkpt>
      <trkpt lat="43.16274" lon="2.34782">
        <ele>185.7</ele>
        <time>2022-01-23T09:12:05.000Z</time>
      </trkpt>
      <trkpt lat="43.16274" lon="2.34783">
        <ele>185.8</ele>
        <time>2022-01-23T09:12:06.000Z</time>
      </trkpt>
      <trkpt lat="43.16274" lon="2.34784">
        <ele>185.9</ele>
        <time>2022-01-23T09:12:07.000Z</time>
      </trkpt>
      <trkpt lat="43.16274" lon="2.34785">
        <ele>186</ele>
        <time>2022-01-23T09:12:08.000Z</time>
      </trkpt>
      <trkpt lat="43.16274" lon="2.34786">
        <ele>186</ele>
        <time>2022-01-23T09:12:09.000Z</time>
      </trkpt>
      <trkpt lat="43.16274" lon="2.34786">
        <ele>186</ele>
        <time>2022-01-23T09:12:10.000Z</time>
      </trkpt>
      <trkpt lat="43.16273" lon="2.34786">
        <ele>186</ele>
        <time>2022-01-23T09:12:11.000Z</time>
      </trkpt>
      <trkpt lat="43.16273" lon="2.34786">
        <ele>186</ele>
        <time>2022-01-23T09:12:12.000Z</time>
      </trkpt>
      <trkpt lat="43.16272" lon="2.34786">
        <ele>185.9</ele>
        <time>2022-01-23T09:12:13.000Z</time>
      </trkpt>
      <trkpt lat="43.16272" lon="2.34786">
        <ele>185.9</ele>
        <time>2022-01-23T09:12:14.000Z</time>
      </trkpt>
      <trkpt lat="43.16272" lon="2.34786">
        <ele>185.9</ele>
        <time>2022-01-23T09:12:15.000Z</time>
      </trkpt>
      <trkpt lat="43.16272" lon="2.34786">
        <ele>185.9</ele>
        <time>2022-01-23T09:12:16.000Z</time>
      </trkpt>
      <trkpt lat="43.16272" lon="2.34786">
        <ele>185.9</ele>
        <time>2022-01-23T09:12:17.000Z</time>
      </trkpt>
      <trkpt lat="43.16272" lon="2.34786">
        <ele>185.9</ele>
        <time>2022-01-23T09:12:18.000Z</time>
      </trkpt>
      <trkpt lat="43.16272" lon="2.34786">
        <ele>185.9</ele>
        <time>2022-01-23T09:12:19.000Z</time>
      </trkpt>
      <trkpt lat="43.16272" lon="2.34786">
        <ele>185.9</ele>
        <time>2022-01-23T09:12:20.000Z</time>
      </trkpt>
      <trkpt lat="43.16272" lon="2.34786">
        <ele>185.9</ele>
        <time>2022-01-23T09:12:21.000Z</time>
      </trkpt>
      <trkpt lat="43.16272" lon="2.34786">
        <ele>185.9</ele>
        <time>2022-01-23T09:12:22.000Z</time>
      </trkpt>
      <trkpt lat="43.16272" lon="2.34786">
        <ele>185.9</ele>
        <time>2022-01-23T09:12:23.000Z</time>
      </trkpt>
      <trkpt lat="43.16272" lon="2.34786">
        <ele>185.9</ele>
        <time>2022-01-23T09:12:24.000Z</time>
      </trkpt>
      <trkpt lat="43.16272" lon="2.34786">
        <ele>185.9</ele>
        <time>2022-01-23T09:12:25.000Z</time>
      </trkpt>
      <trkpt lat="43.16272" lon="2.34785">
        <ele>185.9</ele>
        <time>2022-01-23T09:12:26.000Z</time>
      </trkpt>
      <trkpt lat="43.16272" lon="2.34785">
        <ele>185.9</ele>
        <time>2022-01-23T09:12:27.000Z</time>
      </trkpt>
      <trkpt lat="43.16273" lon="2.34785">
        <ele>185.9</ele>
        <time>2022-01-23T09:12:28.000Z</time>
      </trkpt>
      <trkpt lat="43.16273" lon="2.34785">
        <ele>185.9</ele>
        <time>2022-01-23T09:12:29.000Z</time>
      </trkpt>
      <trkpt lat="43.16273" lon="2.34785">
        <ele>185.9</ele>
        <time>2022-01-23T09:12:30.000Z</time>
      </trkpt>
      <trkpt lat="43.16274" lon="2.34785">
        <ele>185.9</ele>
        <time>2022-01-23T09:12:31.000Z</time>
      </trkpt>
      <trkpt lat="43.16274" lon="2.34785">
        <ele>185.9</ele>
        <time>2022-01-23T09:12:32.000Z</time>
      </trkpt>
      <trkpt lat="43.16274" lon="2.34785">
        <ele>185.9</ele>
        <time>2022-01-23T09:12:33.000Z</time>
      </trkpt>
      <trkpt lat="43.16274" lon="2.34785">
        <ele>185.9</ele>
        <time>2022-01-23T09:12:34.000Z</time>
      </trkpt>
      <trkpt lat="43.16274" lon="2.34785">
        <ele>185.9</ele>
        <time>2022-01-23T09:12:35.000Z</time>
      </trkpt>
      <trkpt lat="43.16274" lon="2.34785">
        <ele>185.9</ele>
        <time>2022-01-23T09:12:36.000Z</time>
      </trkpt>
      <trkpt lat="43.16274" lon="2.34785">
        <ele>185.9</ele>
        <time>2022-01-23T09:12:37.000Z</time>
      </trkpt>
      <trkpt lat="43.16274" lon="2.34785">
        <ele>185.9</ele>
        <time>2022-01-23T09:12:38.000Z</time>
      </trkpt>
      <trkpt lat="43.16274" lon="2.34785">
        <ele>185.9</ele>
        <time>2022-01-23T09:12:39.000Z</time>
      </trkpt>
      <trkpt lat="43.16274" lon="2.34785">
        <ele>185.9</ele>
        <time>2022-01-23T09:12:40.000Z</time>
      </trkpt>
      <trkpt lat="43.16274" lon="2.34785">
        <ele>185.9</ele>
        <time>2022-01-23T09:12:41.000Z</time>
      </trkpt>
      <trkpt lat="43.16274" lon="2.34785">
        <ele>185.9</ele>
        <time>2022-01-23T09:12:42.000Z</time>
      </trkpt>
      <trkpt lat="43.16274" lon="2.34785">
        <ele>185.9</ele>
        <time>2022-01-23T09:12:43.000Z</time>
      </trkpt>
      <trkpt lat="43.16274" lon="2.34785">
        <ele>185.9</ele>
        <time>2022-01-23T09:12:44.000Z</time>
      </trkpt>
      <trkpt lat="43.16274" lon="2.34785">
        <ele>185.9</ele>
        <time>2022-01-23T09:12:45.000Z</time>
      </trkpt>
      <trkpt lat="43.16274" lon="2.34785">
        <ele>185.9</ele>
        <time>2022-01-23T09:12:46.000Z</time>
      </trkpt>
      <trkpt lat="43.16274" lon="2.34785">
        <ele>185.9</ele>
        <time>2022-01-23T09:12:47.000Z</time>
      </trkpt>
      <trkpt lat="43.16274" lon="2.34785">
        <ele>185.9</ele>
        <time>2022-01-23T09:12:48.000Z</time>
      </trkpt>
      <trkpt lat="43.16274" lon="2.34785">
        <ele>185.9</ele>
        <time>2022-01-23T09:12:49.000Z</time>
      </trkpt>
      <trkpt lat="43.16274" lon="2.34785">
        <ele>185.9</ele>
        <time>2022-01-23T09:12:50.000Z</time>
      </trkpt>
      <trkpt lat="43.16274" lon="2.34785">
        <ele>185.9</ele>
        <time>2022-01-23T09:12:51.000Z</time>
      </trkpt>
      <trkpt lat="43.16274" lon="2.34785">
        <ele>185.9</ele>
        <time>2022-01-23T09:12:52.000Z</time>
      </trkpt>
      <trkpt lat="43.16274" lon="2.34785">
        <ele>185.9</ele>
        <time>2022-01-23T09:12:53.000Z</time>
      </trkpt>
      <trkpt lat="43.16274" lon="2.34785">
        <ele>185.9</ele>
        <time>2022-01-23T09:12:54.000Z</time>
      </trkpt>
      <trkpt lat="43.16274" lon="2.34785">
        <ele>185.9</ele>
        <time>2022-01-23T09:12:55.000Z</time>
      </trkpt>
      <trkpt lat="43.16274" lon="2.34785">
        <ele>185.9</ele>
        <time>2022-01-23T09:12:56.000Z</time>
      </trkpt>
      <trkpt lat="43.16274" lon="2.34785">
        <ele>185.9</ele>
        <time>2022-01-23T09:12:57.000Z</time>
      </trkpt>
      <trkpt lat="43.16274" lon="2.34785">
        <ele>185.9</ele>
        <time>2022-01-23T09:12:58.000Z</time>
      </trkpt>
      <trkpt lat="43.16274" lon="2.34785">
        <ele>185.9</ele>
        <time>2022-01-23T09:12:59.000Z</time>
      </trkpt>
      <trkpt lat="43.16274" lon="2.34785">
        <ele>185.9</ele>
        <time>2022-01-23T09:13:00.000Z</time>
      </trkpt>
      <trkpt lat="43.16274" lon="2.34785">
        <ele>186</ele>
        <time>2022-01-23T09:13:01.000Z</time>
      </trkpt>
      <trkpt lat="43.16274" lon="2.34785">
        <ele>186</ele>
        <time>2022-01-23T09:13:02.000Z</time>
      </trkpt>
      <trkpt lat="43.16274" lon="2.34785">
        <ele>186</ele>
        <time>2022-01-23T09:13:03.000Z</time>
      </trkpt>
      <trkpt lat="43.16274" lon="2.34785">
        <ele>186</ele>
        <time>2022-01-23T09:13:04.000Z</time>
      </trkpt>
      <trkpt lat="43.16274" lon="2.34785">
        <ele>186</ele>
        <time>2022-01-23T09:13:05.000Z</time>
      </trkpt>
      <trkpt lat="43.16274" lon="2.34785">
        <ele>186</ele>
        <time>2022-01-23T09:13:06.000Z</time>
      </trkpt>
      <trkpt lat="43.16274" lon="2.34785">
        <ele>186</ele>
        <time>2022-01-23T09:13:07.000Z</time>
      </trkpt>
      <trkpt lat="43.16274" lon="2.34785">
        <ele>186</ele>
        <time>2022-01-23T09:13:08.000Z</time>
      </trkpt>
      <trkpt lat="43.16274" lon="2.34785">
        <ele>186</ele>
        <time>2022-01-23T09:13:09.000Z</time>
      </trkpt>
      <trkpt lat="43.16274" lon="2.34785">
        <ele>186</ele>
        <time>2022-01-23T09:13:10.000Z</time>
      </trkpt>
      <trkpt lat="43.16274" lon="2.34785">
        <ele>186</ele>
        <time>2022-01-23T09:13:11.000Z</time>
      </trkpt>
      <trkpt lat="43.16274" lon="2.34785">
        <ele>186</ele>
        <time>2022-01-23T09:13:12.000Z</time>
      </trkpt>
      <trkpt lat="43.16274" lon="2.34785">
        <ele>186</ele>
        <time>2022-01-23T09:13:13.000Z</time>
      </trkpt>
      <trkpt lat="43.16274" lon="2.34785">
        <ele>186</ele>
        <time>2022-01-23T09:13:14.000Z</time>
      </trkpt>
      <trkpt lat="43.16274" lon="2.34785">
        <ele>186</ele>
        <time>2022-01-23T09:13:15.000Z</time>
      </trkpt>
      <trkpt lat="43.16274" lon="2.34785">
        <ele>186</ele>
        <time>2022-01-23T09:13:16.000Z</time>
      </trkpt>
      <trkpt lat="43.16274" lon="2.34785">
        <ele>186</ele>
        <time>2022-01-23T09:13:17.000Z</time>
      </trkpt>
      <trkpt lat="43.16274" lon="2.34785">
        <ele>186</ele>
        <time>2022-01-23T09:13:18.000Z</time>
      </trkpt>
      <trkpt lat="43.16274" lon="2.34785">
        <ele>186</ele>
        <time>2022-01-23T09:13:19.000Z</time>
      </trkpt>
      <trkpt lat="43.16274" lon="2.34785">
        <ele>186</ele>
        <time>2022-01-23T09:13:20.000Z</time>
      </trkpt>
      <trkpt lat="43.16274" lon="2.34785">
        <ele>186</ele>
        <time>2022-01-23T09:13:21.000Z</time>
      </trkpt>
      <trkpt lat="43.16274" lon="2.34785">
        <ele>186</ele>
        <time>2022-01-23T09:13:22.000Z</time>
      </trkpt>
      <trkpt lat="43.16274" lon="2.34785">
        <ele>186</ele>
        <time>2022-01-23T09:13:23.000Z</time>
      </trkpt>
      <trkpt lat="43.16274" lon="2.34785">
        <ele>186</ele>
        <time>2022-01-23T09:13:24.000Z</time>
      </trkpt>
      <trkpt lat="43.16274" lon="2.34785">
        <ele>186</ele>
        <time>2022-01-23T09:13:25.000Z</time>
      </trkpt>
      <trkpt lat="43.16274" lon="2.34786">
        <ele>186</ele>
        <time>2022-01-23T09:13:26.000Z</time>
      </trkpt>
      <trkpt lat="43.16274" lon="2.34786">
        <ele>186</ele>
        <time>2022-01-23T09:13:27.000Z</time>
      </trkpt>
      <trkpt lat="43.16274" lon="2.34786">
        <ele>186</ele>
        <time>2022-01-23T09:13:28.000Z</time>
      </trkpt>
      <trkpt lat="43.16274" lon="2.34786">
        <ele>186</ele>
        <time>2022-01-23T09:13:29.000Z</time>
      </trkpt>
      <trkpt lat="43.16274" lon="2.34786">
        <ele>186</ele>
        <time>2022-01-23T09:13:30.000Z</time>
      </trkpt>
      <trkpt lat="43.16274" lon="2.34786">
        <ele>186</ele>
        <time>2022-01-23T09:13:31.000Z</time>
      </trkpt>
      <trkpt lat="43.16274" lon="2.34786">
        <ele>186</ele>
        <time>2022-01-23T09:13:32.000Z</time>
      </trkpt>
      <trkpt lat="43.16274" lon="2.34786">
        <ele>186</ele>
        <time>2022-01-23T09:13:33.000Z</time>
      </trkpt>
      <trkpt lat="43.16274" lon="2.34786">
        <ele>186</ele>
        <time>2022-01-23T09:13:34.000Z</time>
      </trkpt>
      <trkpt lat="43.16274" lon="2.34786">
        <ele>186</ele>
        <time>2022-01-23T09:13:35.000Z</time>
      </trkpt>
      <trkpt lat="43.16274" lon="2.34786">
        <ele>186</ele>
        <time>2022-01-23T09:13:36.000Z</time>
      </trkpt>
      <trkpt lat="43.16274" lon="2.34786">
        <ele>186</ele>
        <time>2022-01-23T09:13:37.000Z</time>
      </trkpt>
      <trkpt lat="43.16274" lon="2.34786">
        <ele>186</ele>
        <time>2022-01-23T09:13:38.000Z</time>
      </trkpt>
      <trkpt lat="43.16274" lon="2.34786">
        <ele>186</ele>
        <time>2022-01-23T09:13:39.000Z</time>
      </trkpt>
      <trkpt lat="43.16274" lon="2.34786">
        <ele>186</ele>
        <time>2022-01-23T09:13:40.000Z</time>
      </trkpt>
      <trkpt lat="43.16274" lon="2.34786">
        <ele>186</ele>
        <time>2022-01-23T09:13:41.000Z</time>
      </trkpt>
      <trkpt lat="43.16274" lon="2.34786">
        <ele>186</ele>
        <time>2022-01-23T09:13:42.000Z</time>
      </trkpt>
      <trkpt lat="43.16274" lon="2.34786">
        <ele>186</ele>
        <time>2022-01-23T09:13:43.000Z</time>
      </trkpt>
      <trkpt lat="43.16274" lon="2.34786">
        <ele>186</ele>
        <time>2022-01-23T09:13:44.000Z</time>
      </trkpt>
      <trkpt lat="43.16274" lon="2.34786">
        <ele>186</ele>
        <time>2022-01-23T09:13:45.000Z</time>
      </trkpt>
      <trkpt lat="43.16274" lon="2.34786">
        <ele>186</ele>
        <time>2022-01-23T09:13:46.000Z</time>
      </trkpt>
      <trkpt lat="43.16274" lon="2.34786">
        <ele>186</ele>
        <time>2022-01-23T09:13:47.000Z</time>
      </trkpt>
      <trkpt lat="43.16274" lon="2.34786">
        <ele>186</ele>
        <time>2022-01-23T09:13:48.000Z</time>
      </trkpt>
      <trkpt lat="43.16274" lon="2.34786">
        <ele>186</ele>
        <time>2022-01-23T09:13:49.000Z</time>
      </trkpt>
      <trkpt lat="43.16274" lon="2.34786">
        <ele>186</ele>
        <time>2022-01-23T09:13:50.000Z</time>
      </trkpt>
      <trkpt lat="43.16274" lon="2.34786">
        <ele>186</ele>
        <time>2022-01-23T09:13:51.000Z</time>
      </trkpt>
      <trkpt lat="43.16274" lon="2.34786">
        <ele>186</ele>
        <time>2022-01-23T09:13:52.000Z</time>
      </trkpt>
      <trkpt lat="43.16274" lon="2.34786">
        <ele>186</ele>
        <time>2022-01-23T09:13:53.000Z</time>
      </trkpt>
      <trkpt lat="43.16274" lon="2.34786">
        <ele>186</ele>
        <time>2022-01-23T09:13:54.000Z</time>
      </trkpt>
      <trkpt lat="43.16274" lon="2.34786">
        <ele>186</ele>
        <time>2022-01-23T09:13:55.000Z</time>
      </trkpt>
      <trkpt lat="43.16274" lon="2.34786">
        <ele>186</ele>
        <time>2022-01-23T09:13:56.000Z</time>
      </trkpt>
      <trkpt lat="43.16274" lon="2.34786">
        <ele>186</ele>
        <time>2022-01-23T09:13:57.000Z</time>
      </trkpt>
      <trkpt lat="43.16274" lon="2.34786">
        <ele>186</ele>
        <time>2022-01-23T09:13:58.000Z</time>
      </trkpt>
      <trkpt lat="43.16274" lon="2.34786">
        <ele>186</ele>
        <time>2022-01-23T09:13:59.000Z</time>
      </trkpt>
      <trkpt lat="43.16274" lon="2.34786">
        <ele>186</ele>
        <time>2022-01-23T09:14:00.000Z</time>
      </trkpt>
      <trkpt lat="43.16274" lon="2.34786">
        <ele>186</ele>
        <time>2022-01-23T09:14:01.000Z</time>
      </trkpt>
      <trkpt lat="43.16274" lon="2.34786">
        <ele>186</ele>
        <time>2022-01-23T09:14:02.000Z</time>
      </trkpt>
      <trkpt lat="43.16274" lon="2.34786">
        <ele>186</ele>
        <time>2022-01-23T09:14:03.000Z</time>
      </trkpt>
      <trkpt lat="43.16274" lon="2.34786">
        <ele>186</ele>
        <time>2022-01-23T09:14:04.000Z</time>
      </trkpt>
      <trkpt lat="43.16274" lon="2.34786">
        <ele>186</ele>
        <time>2022-01-23T09:14:05.000Z</time>
      </trkpt>
      <trkpt lat="43.16274" lon="2.34786">
        <ele>186</ele>
        <time>2022-01-23T09:14:06.000Z</time>
      </trkpt>
      <trkpt lat="43.16274" lon="2.34786">
        <ele>186</ele>
        <time>2022-01-23T09:14:07.000Z</time>
      </trkpt>
      <trkpt lat="43.16274" lon="2.34786">
        <ele>186</ele>
        <time>2022-01-23T09:14:08.000Z</time>
      </trkpt>
      <trkpt lat="43.16274" lon="2.34786">
        <ele>186</ele>
        <time>2022-01-23T09:14:09.000Z</time>
      </trkpt>
      <trkpt lat="43.16274" lon="2.34786">
        <ele>186</ele>
        <time>2022-01-23T09:14:10.000Z</time>
      </trkpt>
      <trkpt lat="43.16274" lon="2.34786">
        <ele>186</ele>
        <time>2022-01-23T09:14:11.000Z</time>
      </trkpt>
      <trkpt lat="43.16274" lon="2.34786">
        <ele>186</ele>
        <time>2022-01-23T09:14:12.000Z</time>
      </trkpt>
      <trkpt lat="43.16274" lon="2.34786">
        <ele>186</ele>
        <time>2022-01-23T09:14:13.000Z</time>
      </trkpt>
      <trkpt lat="43.16274" lon="2.34786">
        <ele>186</ele>
        <time>2022-01-23T09:14:14.000Z</time>
      </trkpt>
      <trkpt lat="43.16274" lon="2.34786">
        <ele>186</ele>
        <time>2022-01-23T09:14:15.000Z</time>
      </trkpt>
      <trkpt lat="43.16274" lon="2.34786">
        <ele>186</ele>
        <time>2022-01-23T09:14:16.000Z</time>
      </trkpt>
      <trkpt lat="43.16274" lon="2.34786">
        <ele>186</ele>
        <time>2022-01-23T09:14:17.000Z</time>
      </trkpt>
      <trkpt lat="43.16274" lon="2.34786">
        <ele>186</ele>
        <time>2022-01-23T09:14:18.000Z</time>
      </trkpt>
      <trkpt lat="43.16274" lon="2.34786">
        <ele>186</ele>
        <time>2022-01-23T09:14:19.000Z</time>
      </trkpt>
      <trkpt lat="43.16274" lon="2.34786">
        <ele>186</ele>
        <time>2022-01-23T09:14:20.000Z</time>
      </trkpt>
      <trkpt lat="43.16274" lon="2.34786">
        <ele>186</ele>
        <time>2022-01-23T09:14:21.000Z</time>
      </trkpt>
      <trkpt lat="43.16273" lon="2.34786">
        <ele>186</ele>
        <time>2022-01-23T09:14:22.000Z</time>
      </trkpt>
      <trkpt lat="43.16273" lon="2.34787">
        <ele>186</ele>
        <time>2022-01-23T09:14:23.000Z</time>
      </trkpt>
      <trkpt lat="43.16272" lon="2.34787">
        <ele>186</ele>
        <time>2022-01-23T09:14:24.000Z</time>
      </trkpt>
      <trkpt lat="43.1627" lon="2.34788">
        <ele>185.9</ele>
        <time>2022-01-23T09:14:25.000Z</time>
      </trkpt>
      <trkpt lat="43.16269" lon="2.34789">
        <ele>185.9</ele>
        <time>2022-01-23T09:14:26.000Z</time>
      </trkpt>
      <trkpt lat="43.16267" lon="2.3479">
        <ele>185.9</ele>
        <time>2022-01-23T09:14:27.000Z</time>
      </trkpt>
      <trkpt lat="43.16265" lon="2.34791">
        <ele>185.8</ele>
        <time>2022-01-23T09:14:28.000Z</time>
      </trkpt>
      <trkpt lat="43.16262" lon="2.34792">
        <ele>185.8</ele>
        <time>2022-01-23T09:14:29.000Z</time>
      </trkpt>
      <trkpt lat="43.1626" lon="2.34794">
        <ele>185.7</ele>
        <time>2022-01-23T09:14:30.000Z</time>
      </trkpt>
      <trkpt lat="43.16258" lon="2.34795">
        <ele>185.7</ele>
        <time>2022-01-23T09:14:31.000Z</time>
      </trkpt>
      <trkpt lat="43.16256" lon="2.34797">
        <ele>185.7</ele>
        <time>2022-01-23T09:14:32.000Z</time>
      </trkpt>
      <trkpt lat="43.16254" lon="2.34799">
        <ele>185.8</ele>
        <time>2022-01-23T09:14:33.000Z</time>
      </trkpt>
      <trkpt lat="43.16253" lon="2.34801">
        <ele>185.9</ele>
        <time>2022-01-23T09:14:34.000Z</time>
      </trkpt>
      <trkpt lat="43.16252" lon="2.34803">
        <ele>185.9</ele>
        <time>2022-01-23T09:14:35.000Z</time>
      </trkpt>
      <trkpt lat="43.16252" lon="2.34805">
        <ele>186</ele>
        <time>2022-01-23T09:14:36.000Z</time>
      </trkpt>
      <trkpt lat="43.16251" lon="2.34807">
        <ele>186.2</ele>
        <time>2022-01-23T09:14:37.000Z</time>
      </trkpt>
      <trkpt lat="43.16251" lon="2.34809">
        <ele>186.3</ele>
        <time>2022-01-23T09:14:38.000Z</time>
      </trkpt>
      <trkpt lat="43.16251" lon="2.34811">
        <ele>186.4</ele>
        <time>2022-01-23T09:14:39.000Z</time>
      </trkpt>
      <trkpt lat="43.16251" lon="2.34813">
        <ele>186.5</ele>
        <time>2022-01-23T09:14:40.000Z</time>
      </trkpt>
      <trkpt lat="43.16251" lon="2.34814">
        <ele>186.7</ele>
        <time>2022-01-23T09:14:41.000Z</time>
      </trkpt>
      <trkpt lat="43.16251" lon="2.34816">
        <ele>186.8</ele>
        <time>2022-01-23T09:14:42.000Z</time>
      </trkpt>
      <trkpt lat="43.16251" lon="2.34818">
        <ele>186.9</ele>
        <time>2022-01-23T09:14:43.000Z</time>
      </trkpt>
      <trkpt lat="43.16251" lon="2.3482">
        <ele>187.1</ele>
        <time>2022-01-23T09:14:44.000Z</time>
      </trkpt>
      <trkpt lat="43.16251" lon="2.34822">
        <ele>187.2</ele>
        <time>2022-01-23T09:14:45.000Z</time>
      </trkpt>
      <trkpt lat="43.16251" lon="2.34824">
        <ele>187.4</ele>
        <time>2022-01-23T09:14:46.000Z</time>
      </trkpt>
      <trkpt lat="43.16251" lon="2.34825">
        <ele>187.5</ele>
        <time>2022-01-23T09:14:47.000Z</time>
      </trkpt>
      <trkpt lat="43.16251" lon="2.34827">
        <ele>187.6</ele>
        <time>2022-01-23T09:14:48.000Z</time>
      </trkpt>
      <trkpt lat="43.16251" lon="2.34829">
        <ele>187.8</ele>
        <time>2022-01-23T09:14:49.000Z</time>
      </trkpt>
      <trkpt lat="43.16251" lon="2.34831">
        <ele>187.9</ele>
        <time>2022-01-23T09:14:50.000Z</time>
      </trkpt>
      <trkpt lat="43.16251" lon="2.34833">
        <ele>188</ele>
        <time>2022-01-23T09:14:51.000Z</time>
      </trkpt>
      <trkpt lat="43.16251" lon="2.34835">
        <ele>188.1</ele>
        <time>2022-01-23T09:14:52.000Z</time>
      </trkpt>
      <trkpt lat="43.1625" lon="2.34838">
        <ele>188.1</ele>
        <time>2022-01-23T09:14:53.000Z</time>
      </trkpt>
      <trkpt lat="43.1625" lon="2.3484">
        <ele>188.1</ele>
        <time>2022-01-23T09:14:54.000Z</time>
      </trkpt>
      <trkpt lat="43.1625" lon="2.34842">
        <ele>188.1</ele>
        <time>2022-01-23T09:14:55.000Z</time>
      </trkpt>
      <trkpt lat="43.1625" lon="2.34845">
        <ele>188.1</ele>
        <time>2022-01-23T09:14:56.000Z</time>
      </trkpt>
      <trkpt lat="43.1625" lon="2.34847">
        <ele>188.2</ele>
        <time>2022-01-23T09:14:57.000Z</time>
      </trkpt>
      <trkpt lat="43.16251" lon="2.3485">
        <ele>188.2</ele>
        <time>2022-01-23T09:14:58.000Z</time>
      </trkpt>
      <trkpt lat="43.16251" lon="2.34852">
        <ele>188.3</ele>
        <time>2022-01-23T09:14:59.000Z</time>
      </trkpt>
      <trkpt lat="43.16252" lon="2.34855">
        <ele>188.4</ele>
        <time>2022-01-23T09:15:00.000Z</time>
      </trkpt>
      <trkpt lat="43.16253" lon="2.34858">
        <ele>188.5</ele>
        <time>2022-01-23T09:15:01.000Z</time>
      </trkpt>
      <trkpt lat="43.16254" lon="2.3486">
        <ele>188.6</ele>
        <time>2022-01-23T09:15:02.000Z</time>
      </trkpt>
      <trkpt lat="43.16255" lon="2.34863">
        <ele>188.7</ele>
        <time>2022-01-23T09:15:03.000Z</time>
      </trkpt>
      <trkpt lat="43.16257" lon="2.34866">
        <ele>188.9</ele>
        <time>2022-01-23T09:15:04.000Z</time>
      </trkpt>
      <trkpt lat="43.16259" lon="2.34869">
        <ele>189</ele>
        <time>2022-01-23T09:15:05.000Z</time>
      </trkpt>
      <trkpt lat="43.16261" lon="2.34872">
        <ele>189.2</ele>
        <time>2022-01-23T09:15:06.000Z</time>
      </trkpt>
      <trkpt lat="43.16262" lon="2.34875">
        <ele>189.3</ele>
        <time>2022-01-23T09:15:07.000Z</time>
      </trkpt>
      <trkpt lat="43.16264" lon="2.34878">
        <ele>189.5</ele>
        <time>2022-01-23T09:15:08.000Z</time>
      </trkpt>
      <trkpt lat="43.16266" lon="2.34881">
        <ele>189.6</ele>
        <time>2022-01-23T09:15:09.000Z</time>
      </trkpt>
      <trkpt lat="43.16267" lon="2.34884">
        <ele>189.8</ele>
        <time>2022-01-23T09:15:10.000Z</time>
      </trkpt>
      <trkpt lat="43.16268" lon="2.34887">
        <ele>189.9</ele>
        <time>2022-01-23T09:15:11.000Z</time>
      </trkpt>
      <trkpt lat="43.1627" lon="2.3489">
        <ele>190</ele>
        <time>2022-01-23T09:15:12.000Z</time>
      </trkpt>
      <trkpt lat="43.16271" lon="2.34893">
        <ele>190.1</ele>
        <time>2022-01-23T09:15:13.000Z</time>
      </trkpt>
      <trkpt lat="43.16271" lon="2.34896">
        <ele>190.2</ele>
        <time>2022-01-23T09:15:14.000Z</time>
      </trkpt>
      <trkpt lat="43.16272" lon="2.34899">
        <ele>190.3</ele>
        <time>2022-01-23T09:15:15.000Z</time>
      </trkpt>
      <trkpt lat="43.16273" lon="2.34903">
        <ele>190.4</ele>
        <time>2022-01-23T09:15:16.000Z</time>
      </trkpt>
      <trkpt lat="43.16274" lon="2.34906">
        <ele>190.5</ele>
        <time>2022-01-23T09:15:17.000Z</time>
      </trkpt>
      <trkpt lat="43.16274" lon="2.34909">
        <ele>190.6</ele>
        <time>2022-01-23T09:15:18.000Z</time>
      </trkpt>
      <trkpt lat="43.16275" lon="2.34913">
        <ele>190.7</ele>
        <time>2022-01-23T09:15:19.000Z</time>
      </trkpt>
      <trkpt lat="43.16276" lon="2.34916">
        <ele>190.8</ele>
        <time>2022-01-23T09:15:20.000Z</time>
      </trkpt>
      <trkpt lat="43.16276" lon="2.34919">
        <ele>190.8</ele>
        <time>2022-01-23T09:15:21.000Z</time>
      </trkpt>
      <trkpt lat="43.16277" lon="2.34923">
        <ele>190.7</ele>
        <time>2022-01-23T09:15:22.000Z</time>
      </trkpt>
      <trkpt lat="43.16277" lon="2.34926">
        <ele>190.6</ele>
        <time>2022-01-23T09:15:23.000Z</time>
      </trkpt>
      <trkpt lat="43.16278" lon="2.34929">
        <ele>190.5</ele>
        <time>2022-01-23T09:15:24.000Z</time>
      </trkpt>
      <trkpt lat="43.16278" lon="2.34933">
        <ele>190.4</ele>
        <time>2022-01-23T09:15:25.000Z</time>
      </trkpt>
      <trkpt lat="43.16278" lon="2.34936">
        <ele>190.3</ele>
        <time>2022-01-23T09:15:26.000Z</time>
      </trkpt>
      <trkpt lat="43.16278" lon="2.34939">
        <ele>190.2</ele>
        <time>2022-01-23T09:15:27.000Z</time>
      </trkpt>
      <trkpt lat="43.16278" lon="2.34942">
        <ele>190.1</ele>
        <time>2022-01-23T09:15:28.000Z</time>
      </trkpt>
      <trkpt lat="43.16278" lon="2.34946">
        <ele>190</ele>
        <time>2022-01-23T09:15:29.000Z</time>
      </trkpt>
      <trkpt lat="43.16278" lon="2.34949">
        <ele>189.9</ele>
        <time>2022-01-23T09:15:30.000Z</time>
      </trkpt>
      <trkpt lat="43.16278" lon="2.34952">
        <ele>189.7</ele>
        <time>2022-01-23T09:15:31.000Z</time>
      </trkpt>
      <trkpt lat="43.16277" lon="2.34956">
        <ele>189.6</ele>
        <time>2022-01-23T09:15:32.000Z</time>
      </trkpt>
      <trkpt lat="43.16277" lon="2.34959">
        <ele>189.4</ele>
        <time>2022-01-23T09:15:33.000Z</time>
      </trkpt>
      <trkpt lat="43.16277" lon="2.34963">
        <ele>189.3</ele>
        <time>2022-01-23T09:15:34.000Z</time>
      </trkpt>
      <trkpt lat="43.16277" lon="2.34967">
        <ele>189.1</ele>
        <time>2022-01-23T09:15:35.000Z</time>
      </trkpt>
      <trkpt lat="43.16277" lon="2.34971">
        <ele>189</ele>
        <time>2022-01-23T09:15:36.000Z</time>
      </trkpt>
      <trkpt lat="43.16277" lon="2.34975">
        <ele>188.8</ele>
        <time>2022-01-23T09:15:37.000Z</time>
      </trkpt>
      <trkpt lat="43.16277" lon="2.34979">
        <ele>188.7</ele>
        <time>2022-01-23T09:15:38.000Z</time>
      </trkpt>
      <trkpt lat="43.16277" lon="2.34984">
        <ele>188.5</ele>
        <time>2022-01-23T09:15:39.000Z</time>
      </trkpt>
      <trkpt lat="43.16277" lon="2.34988">
        <ele>188.4</ele>
        <time>2022-01-23T09:15:40.000Z</time>
      </trkpt>
      <trkpt lat="43.16278" lon="2.34992">
        <ele>188.3</ele>
        <time>2022-01-23T09:15:41.000Z</time>
      </trkpt>
      <trkpt lat="43.16278" lon="2.34997">
        <ele>188.1</ele>
        <time>2022-01-23T09:15:42.000Z</time>
      </trkpt>
      <trkpt lat="43.16278" lon="2.35001">
        <ele>188</ele>
        <time>2022-01-23T09:15:43.000Z</time>
      </trkpt>
      <trkpt lat="43.16279" lon="2.35005">
        <ele>188</ele>
        <time>2022-01-23T09:15:44.000Z</time>
      </trkpt>
      <trkpt lat="43.16279" lon="2.35009">
        <ele>188.1</ele>
        <time>2022-01-23T09:15:45.000Z</time>
      </trkpt>
      <trkpt lat="43.1628" lon="2.35013">
        <ele>188.1</ele>
        <time>2022-01-23T09:15:46.000Z</time>
      </trkpt>
      <trkpt lat="43.1628" lon="2.35016">
        <ele>188.1</ele>
        <time>2022-01-23T09:15:47.000Z</time>
      </trkpt>
      <trkpt lat="43.16281" lon="2.3502">
        <ele>188.1</ele>
        <time>2022-01-23T09:15:48.000Z</time>
      </trkpt>
      <trkpt lat="43.16281" lon="2.35024">
        <ele>188.1</ele>
        <time>2022-01-23T09:15:49.000Z</time>
      </trkpt>
      <trkpt lat="43.16282" lon="2.35027">
        <ele>188.2</ele>
        <time>2022-01-23T09:15:50.000Z</time>
      </trkpt>
      <trkpt lat="43.16282" lon="2.35031">
        <ele>188.2</ele>
        <time>2022-01-23T09:15:51.000Z</time>
      </trkpt>
      <trkpt lat="43.16283" lon="2.35034">
        <ele>188.2</ele>
        <time>2022-01-23T09:15:52.000Z</time>
      </trkpt>
      <trkpt lat="43.16284" lon="2.35038">
        <ele>188.3</ele>
        <time>2022-01-23T09:15:53.000Z</time>
      </trkpt>
      <trkpt lat="43.16284" lon="2.35041">
        <ele>188.3</ele>
        <time>2022-01-23T09:15:54.000Z</time>
      </trkpt>
      <trkpt lat="43.16285" lon="2.35045">
        <ele>188.3</ele>
        <time>2022-01-23T09:15:55.000Z</time>
      </trkpt>
      <trkpt lat="43.16285" lon="2.35049">
        <ele>188.4</ele>
        <time>2022-01-23T09:15:56.000Z</time>
      </trkpt>
      <trkpt lat="43.16286" lon="2.35052">
        <ele>188.4</ele>
        <time>2022-01-23T09:15:57.000Z</time>
      </trkpt>
      <trkpt lat="43.16286" lon="2.35056">
        <ele>188.4</ele>
        <time>2022-01-23T09:15:58.000Z</time>
      </trkpt>
      <trkpt lat="43.16287" lon="2.35059">
        <ele>188.5</ele>
        <time>2022-01-23T09:15:59.000Z</time>
      </trkpt>
      <trkpt lat="43.16288" lon="2.35063">
        <ele>188.6</ele>
        <time>2022-01-23T09:16:00.000Z</time>
      </trkpt>
      <trkpt lat="43.16288" lon="2.35066">
        <ele>188.6</ele>
        <time>2022-01-23T09:16:01.000Z</time>
      </trkpt>
      <trkpt lat="43.16289" lon="2.3507">
        <ele>188.7</ele>
        <time>2022-01-23T09:16:02.000Z</time>
      </trkpt>
      <trkpt lat="43.1629" lon="2.35073">
        <ele>188.8</ele>
        <time>2022-01-23T09:16:03.000Z</time>
      </trkpt>
      <trkpt lat="43.1629" lon="2.35076">
        <ele>188.9</ele>
        <time>2022-01-23T09:16:04.000Z</time>
      </trkpt>
      <trkpt lat="43.16291" lon="2.35079">
        <ele>188.9</ele>
        <time>2022-01-23T09:16:05.000Z</time>
      </trkpt>
      <trkpt lat="43.16292" lon="2.35083">
        <ele>189.1</ele>
        <time>2022-01-23T09:16:06.000Z</time>
      </trkpt>
      <trkpt lat="43.16293" lon="2.35086">
        <ele>189.2</ele>
        <time>2022-01-23T09:16:07.000Z</time>
      </trkpt>
      <trkpt lat="43.16294" lon="2.35089">
        <ele>189.4</ele>
        <time>2022-01-23T09:16:08.000Z</time>
      </trkpt>
      <trkpt lat="43.16295" lon="2.35092">
        <ele>189.6</ele>
        <time>2022-01-23T09:16:09.000Z</time>
      </trkpt>
      <trkpt lat="43.16295" lon="2.35095">
        <ele>189.8</ele>
        <time>2022-01-23T09:16:10.000Z</time>
      </trkpt>
      <trkpt lat="43.16296" lon="2.35098">
        <ele>189.9</ele>
        <time>2022-01-23T09:16:11.000Z</time>
      </trkpt>
      <trkpt lat="43.16297" lon="2.35101">
        <ele>190.1</ele>
        <time>2022-01-23T09:16:12.000Z</time>
      </trkpt>
      <trkpt lat="43.16298" lon="2.35104">
        <ele>190.3</ele>
        <time>2022-01-23T09:16:13.000Z</time>
      </trkpt>
      <trkpt lat="43.16299" lon="2.35107">
        <ele>190.5</ele>
        <time>2022-01-23T09:16:14.000Z</time>
      </trkpt>
      <trkpt lat="43.163" lon="2.35109">
        <ele>190.7</ele>
        <time>2022-01-23T09:16:15.000Z</time>
      </trkpt>
      <trkpt lat="43.16301" lon="2.35112">
        <ele>190.8</ele>
        <time>2022-01-23T09:16:16.000Z</time>
      </trkpt>
      <trkpt lat="43.16301" lon="2.35115">
        <ele>191</ele>
        <time>2022-01-23T09:16:17.000Z</time>
      </trkpt>
      <trkpt lat="43.16302" lon="2.35118">
        <ele>191.2</ele>
        <time>2022-01-23T09:16:18.000Z</time>
      </trkpt>
      <trkpt lat="43.16303" lon="2.3512">
        <ele>191.4</ele>
        <time>2022-01-23T09:16:19.000Z</time>
      </trkpt>
      <trkpt lat="43.16304" lon="2.35123">
        <ele>191.5</ele>
        <time>2022-01-23T09:16:20.000Z</time>
      </trkpt>
      <trkpt lat="43.16305" lon="2.35126">
        <ele>191.7</ele>
        <time>2022-01-23T09:16:21.000Z</time>
      </trkpt>
      <trkpt lat="43.16305" lon="2.35129">
        <ele>191.9</ele>
        <time>2022-01-23T09:16:22.000Z</time>
      </trkpt>
      <trkpt lat="43.16306" lon="2.35132">
        <ele>192</ele>
        <time>2022-01-23T09:16:23.000Z</time>
      </trkpt>
      <trkpt lat="43.16307" lon="2.35134">
        <ele>192.2</ele>
        <time>2022-01-23T09:16:24.000Z</time>
      </trkpt>
      <trkpt lat="43.16307" lon="2.35137">
        <ele>192.3</ele>
        <time>2022-01-23T09:16:25.000Z</time>
      </trkpt>
      <trkpt lat="43.16308" lon="2.3514">
        <ele>192.5</ele>
        <time>2022-01-23T09:16:26.000Z</time>
      </trkpt>
      <trkpt lat="43.16309" lon="2.35143">
        <ele>192.7</ele>
        <time>2022-01-23T09:16:27.000Z</time>
      </trkpt>
      <trkpt lat="43.16309" lon="2.35146">
        <ele>192.8</ele>
        <time>2022-01-23T09:16:28.000Z</time>
      </trkpt>
      <trkpt lat="43.1631" lon="2.35149">
        <ele>193</ele>
        <time>2022-01-23T09:16:29.000Z</time>
      </trkpt>
      <trkpt lat="43.1631" lon="2.35153">
        <ele>193.1</ele>
        <time>2022-01-23T09:16:30.000Z</time>
      </trkpt>
      <trkpt lat="43.16311" lon="2.35156">
        <ele>193.2</ele>
        <time>2022-01-23T09:16:31.000Z</time>
      </trkpt>
      <trkpt lat="43.16311" lon="2.3516">
        <ele>193.4</ele>
        <time>2022-01-23T09:16:32.000Z</time>
      </trkpt>
      <trkpt lat="43.16312" lon="2.35163">
        <ele>193.5</ele>
        <time>2022-01-23T09:16:33.000Z</time>
      </trkpt>
      <trkpt lat="43.16312" lon="2.35167">
        <ele>193.7</ele>
        <time>2022-01-23T09:16:34.000Z</time>
      </trkpt>
      <trkpt lat="43.16312" lon="2.35171">
        <ele>193.8</ele>
        <time>2022-01-23T09:16:35.000Z</time>
      </trkpt>
      <trkpt lat="43.16313" lon="2.35174">
        <ele>193.8</ele>
        <time>2022-01-23T09:16:36.000Z</time>
      </trkpt>
      <trkpt lat="43.16313" lon="2.35178">
        <ele>193.9</ele>
        <time>2022-01-23T09:16:37.000Z</time>
      </trkpt>
      <trkpt lat="43.16314" lon="2.35182">
        <ele>194.1</ele>
        <time>2022-01-23T09:16:38.000Z</time>
      </trkpt>
      <trkpt lat="43.16315" lon="2.35185">
        <ele>194.2</ele>
        <time>2022-01-23T09:16:39.000Z</time>
      </trkpt>
      <trkpt lat="43.16316" lon="2.35188">
        <ele>194.4</ele>
        <time>2022-01-23T09:16:40.000Z</time>
      </trkpt>
      <trkpt lat="43.16317" lon="2.35191">
        <ele>194.6</ele>
        <time>2022-01-23T09:16:41.000Z</time>
      </trkpt>
      <trkpt lat="43.16318" lon="2.35193">
        <ele>194.8</ele>
        <time>2022-01-23T09:16:42.000Z</time>
      </trkpt>
      <trkpt lat="43.1632" lon="2.35194">
        <ele>195</ele>
        <time>2022-01-23T09:16:43.000Z</time>
      </trkpt>
      <trkpt lat="43.16321" lon="2.35196">
        <ele>195.2</ele>
        <time>2022-01-23T09:16:44.000Z</time>
      </trkpt>
      <trkpt lat="43.16323" lon="2.35197">
        <ele>195.4</ele>
        <time>2022-01-23T09:16:45.000Z</time>
      </trkpt>
      <trkpt lat="43.16324" lon="2.35198">
        <ele>195.6</ele>
        <time>2022-01-23T09:16:46.000Z</time>
      </trkpt>
      <trkpt lat="43.16325" lon="2.35198">
        <ele>195.8</ele>
        <time>2022-01-23T09:16:47.000Z</time>
      </trkpt>
      <trkpt lat="43.16327" lon="2.35199">
        <ele>196</ele>
        <time>2022-01-23T09:16:48.000Z</time>
      </trkpt>
      <trkpt lat="43.16328" lon="2.35199">
        <ele>196.2</ele>
        <time>2022-01-23T09:16:49.000Z</time>
      </trkpt>
      <trkpt lat="43.16329" lon="2.352">
        <ele>196.4</ele>
        <time>2022-01-23T09:16:50.000Z</time>
      </trkpt>
      <trkpt lat="43.1633" lon="2.35201">
        <ele>196.5</ele>
        <time>2022-01-23T09:16:51.000Z</time>
      </trkpt>
      <trkpt lat="43.16331" lon="2.35201">
        <ele>196.6</ele>
        <time>2022-01-23T09:16:52.000Z</time>
      </trkpt>
      <trkpt lat="43.16332" lon="2.35202">
        <ele>196.8</ele>
        <time>2022-01-23T09:16:53.000Z</time>
      </trkpt>
      <trkpt lat="43.16332" lon="2.35203">
        <ele>196.8</ele>
        <time>2022-01-23T09:16:54.000Z</time>
      </trkpt>
      <trkpt lat="43.16333" lon="2.35204">
        <ele>196.9</ele>
        <time>2022-01-23T09:16:55.000Z</time>
      </trkpt>
      <trkpt lat="43.16333" lon="2.35206">
        <ele>197</ele>
        <time>2022-01-23T09:16:56.000Z</time>
      </trkpt>
      <trkpt lat="43.16333" lon="2.35207">
        <ele>197</ele>
        <time>2022-01-23T09:16:57.000Z</time>
      </trkpt>
      <trkpt lat="43.16334" lon="2.35208">
        <ele>197</ele>
        <time>2022-01-23T09:16:58.000Z</time>
      </trkpt>
      <trkpt lat="43.16334" lon="2.35209">
        <ele>197</ele>
        <time>2022-01-23T09:16:59.000Z</time>
      </trkpt>
      <trkpt lat="43.16334" lon="2.3521">
        <ele>197</ele>
        <time>2022-01-23T09:17:00.000Z</time>
      </trkpt>
      <trkpt lat="43.16334" lon="2.3521">
        <ele>197</ele>
        <time>2022-01-23T09:17:01.000Z</time>
      </trkpt>
      <trkpt lat="43.16334" lon="2.35211">
        <ele>197</ele>
        <time>2022-01-23T09:17:02.000Z</time>
      </trkpt>
      <trkpt lat="43.16334" lon="2.35211">
        <ele>197</ele>
        <time>2022-01-23T09:17:03.000Z</time>
      </trkpt>
      <trkpt lat="43.16334" lon="2.35212">
        <ele>196.9</ele>
        <time>2022-01-23T09:17:04.000Z</time>
      </trkpt>
      <trkpt lat="43.16334" lon="2.35212">
        <ele>196.9</ele>
        <time>2022-01-23T09:17:05.000Z</time>
      </trkpt>
      <trkpt lat="43.16334" lon="2.35213">
        <ele>196.9</ele>
        <time>2022-01-23T09:17:06.000Z</time>
      </trkpt>
      <trkpt lat="43.16334" lon="2.35214">
        <ele>197</ele>
        <time>2022-01-23T09:17:07.000Z</time>
      </trkpt>
      <trkpt lat="43.16334" lon="2.35215">
        <ele>197</ele>
        <time>2022-01-23T09:17:08.000Z</time>
      </trkpt>
      <trkpt lat="43.16334" lon="2.35216">
        <ele>197</ele>
        <time>2022-01-23T09:17:09.000Z</time>
      </trkpt>
      <trkpt lat="43.16334" lon="2.35216">
        <ele>197</ele>
        <time>2022-01-23T09:17:10.000Z</time>
      </trkpt>
      <trkpt lat="43.16334" lon="2.35217">
        <ele>197</ele>
        <time>2022-01-23T09:17:11.000Z</time>
      </trkpt>
      <trkpt lat="43.16334" lon="2.35217">
        <ele>197</ele>
        <time>2022-01-23T09:17:12.000Z</time>
      </trkpt>
      <trkpt lat="43.16334" lon="2.35217">
        <ele>197</ele>
        <time>2022-01-23T09:17:13.000Z</time>
      </trkpt>
      <trkpt lat="43.16334" lon="2.35217">
        <ele>197</ele>
        <time>2022-01-23T09:17:14.000Z</time>
      </trkpt>
      <trkpt lat="43.16334" lon="2.35217">
        <ele>197</ele>
        <time>2022-01-23T09:17:15.000Z</time>
      </trkpt>
      <trkpt lat="43.16334" lon="2.35217">
        <ele>197</ele>
        <time>2022-01-23T09:17:16.000Z</time>
      </trkpt>
      <trkpt lat="43.16334" lon="2.35217">
        <ele>197</ele>
        <time>2022-01-23T09:17:17.000Z</time>
      </trkpt>
      <trkpt lat="43.16334" lon="2.35217">
        <ele>197</ele>
        <time>2022-01-23T09:17:18.000Z</time>
      </trkpt>
      <trkpt lat="43.16334" lon="2.35217">
        <ele>197</ele>
        <time>2022-01-23T09:17:19.000Z</time>
      </trkpt>
      <trkpt lat="43.16334" lon="2.35218">
        <ele>197</ele>
        <time>2022-01-23T09:17:20.000Z</time>
      </trkpt>
      <trkpt lat="43.16334" lon="2.35219">
        <ele>197</ele>
        <time>2022-01-23T09:17:21.000Z</time>
      </trkpt>
      <trkpt lat="43.16334" lon="2.35219">
        <ele>197</ele>
        <time>2022-01-23T09:17:22.000Z</time>
      </trkpt>
      <trkpt lat="43.16334" lon="2.3522">
        <ele>197</ele>
        <time>2022-01-23T09:17:23.000Z</time>
      </trkpt>
      <trkpt lat="43.16334" lon="2.35221">
        <ele>197</ele>
        <time>2022-01-23T09:17:24.000Z</time>
      </trkpt>
      <trkpt lat="43.16334" lon="2.35222">
        <ele>197</ele>
        <time>2022-01-23T09:17:25.000Z</time>
      </trkpt>
      <trkpt lat="43.16334" lon="2.35223">
        <ele>197</ele>
        <time>2022-01-23T09:17:26.000Z</time>
      </trkpt>
      <trkpt lat="43.16334" lon="2.35223">
        <ele>197</ele>
        <time>2022-01-23T09:17:27.000Z</time>
      </trkpt>
      <trkpt lat="43.16334" lon="2.35224">
        <ele>196.9</ele>
        <time>2022-01-23T09:17:28.000Z</time>
      </trkpt>
      <trkpt lat="43.16334" lon="2.35224">
        <ele>196.9</ele>
        <time>2022-01-23T09:17:29.000Z</time>
      </trkpt>
      <trkpt lat="43.16334" lon="2.35225">
        <ele>196.9</ele>
        <time>2022-01-23T09:17:30.000Z</time>
      </trkpt>
      <trkpt lat="43.16334" lon="2.35226">
        <ele>196.9</ele>
        <time>2022-01-23T09:17:31.000Z</time>
      </trkpt>
      <trkpt lat="43.16335" lon="2.35227">
        <ele>196.9</ele>
        <time>2022-01-23T09:17:32.000Z</time>
      </trkpt>
      <trkpt lat="43.16335" lon="2.35228">
        <ele>196.9</ele>
        <time>2022-01-23T09:17:33.000Z</time>
      </trkpt>
      <trkpt lat="43.16335" lon="2.35229">
        <ele>196.9</ele>
        <time>2022-01-23T09:17:34.000Z</time>
      </trkpt>
      <trkpt lat="43.16335" lon="2.3523">
        <ele>196.9</ele>
        <time>2022-01-23T09:17:35.000Z</time>
      </trkpt>
      <trkpt lat="43.16335" lon="2.3523">
        <ele>196.9</ele>
        <time>2022-01-23T09:17:36.000Z</time>
      </trkpt>
      <trkpt lat="43.16335" lon="2.35231">
        <ele>196.9</ele>
        <time>2022-01-23T09:17:37.000Z</time>
      </trkpt>
      <trkpt lat="43.16335" lon="2.35231">
        <ele>196.8</ele>
        <time>2022-01-23T09:17:38.000Z</time>
      </trkpt>
      <trkpt lat="43.16335" lon="2.35231">
        <ele>196.8</ele>
        <time>2022-01-23T09:17:39.000Z</time>
      </trkpt>
      <trkpt lat="43.16335" lon="2.35231">
        <ele>196.8</ele>
        <time>2022-01-23T09:17:40.000Z</time>
      </trkpt>
      <trkpt lat="43.16335" lon="2.35231">
        <ele>196.8</ele>
        <time>2022-01-23T09:17:41.000Z</time>
      </trkpt>
      <trkpt lat="43.16335" lon="2.35231">
        <ele>196.8</ele>
        <time>2022-01-23T09:17:42.000Z</time>
      </trkpt>
      <trkpt lat="43.16336" lon="2.35231">
        <ele>196.8</ele>
        <time>2022-01-23T09:17:43.000Z</time>
      </trkpt>
      <trkpt lat="43.16336" lon="2.35231">
        <ele>196.8</ele>
        <time>2022-01-23T09:17:44.000Z</time>
      </trkpt>
      <trkpt lat="43.16336" lon="2.35232">
        <ele>196.8</ele>
        <time>2022-01-23T09:17:45.000Z</time>
      </trkpt>
      <trkpt lat="43.16336" lon="2.35232">
        <ele>196.8</ele>
        <time>2022-01-23T09:17:46.000Z</time>
      </trkpt>
      <trkpt lat="43.16336" lon="2.35233">
        <ele>196.8</ele>
        <time>2022-01-23T09:17:47.000Z</time>
      </trkpt>
      <trkpt lat="43.16336" lon="2.35234">
        <ele>196.8</ele>
        <time>2022-01-23T09:17:48.000Z</time>
      </trkpt>
      <trkpt lat="43.16337" lon="2.35235">
        <ele>196.7</ele>
        <time>2022-01-23T09:17:49.000Z</time>
      </trkpt>
      <trkpt lat="43.16337" lon="2.35236">
        <ele>196.7</ele>
        <time>2022-01-23T09:17:50.000Z</time>
      </trkpt>
      <trkpt lat="43.16338" lon="2.35237">
        <ele>196.7</ele>
        <time>2022-01-23T09:17:51.000Z</time>
      </trkpt>
      <trkpt lat="43.16338" lon="2.35238">
        <ele>196.6</ele>
        <time>2022-01-23T09:17:52.000Z</time>
      </trkpt>
      <trkpt lat="43.16338" lon="2.35239">
        <ele>196.6</ele>
        <time>2022-01-23T09:17:53.000Z</time>
      </trkpt>
      <trkpt lat="43.16339" lon="2.35241">
        <ele>196.6</ele>
        <time>2022-01-23T09:17:54.000Z</time>
      </trkpt>
      <trkpt lat="43.16339" lon="2.35242">
        <ele>196.5</ele>
        <time>2022-01-23T09:17:55.000Z</time>
      </trkpt>
      <trkpt lat="43.1634" lon="2.35243">
        <ele>196.5</ele>
        <time>2022-01-23T09:17:56.000Z</time>
      </trkpt>
      <trkpt lat="43.1634" lon="2.35245">
        <ele>196.4</ele>
        <time>2022-01-23T09:17:57.000Z</time>
      </trkpt>
      <trkpt lat="43.16341" lon="2.35246">
        <ele>196.4</ele>
        <time>2022-01-23T09:17:58.000Z</time>
      </trkpt>
      <trkpt lat="43.16342" lon="2.35247">
        <ele>196.3</ele>
        <time>2022-01-23T09:17:59.000Z</time>
      </trkpt>
      <trkpt lat="43.16342" lon="2.35249">
        <ele>196.3</ele>
        <time>2022-01-23T09:18:00.000Z</time>
      </trkpt>
      <trkpt lat="43.16343" lon="2.3525">
        <ele>196.2</ele>
        <time>2022-01-23T09:18:01.000Z</time>
      </trkpt>
      <trkpt lat="43.16344" lon="2.35252">
        <ele>196.2</ele>
        <time>2022-01-23T09:18:02.000Z</time>
      </trkpt>
      <trkpt lat="43.16344" lon="2.35253">
        <ele>196.1</ele>
        <time>2022-01-23T09:18:03.000Z</time>
      </trkpt>
      <trkpt lat="43.16345" lon="2.35255">
        <ele>196.1</ele>
        <time>2022-01-23T09:18:04.000Z</time>
      </trkpt>
      <trkpt lat="43.16346" lon="2.35256">
        <ele>196</ele>
        <time>2022-01-23T09:18:05.000Z</time>
      </trkpt>
      <trkpt lat="43.16346" lon="2.35257">
        <ele>196</ele>
        <time>2022-01-23T09:18:06.000Z</time>
      </trkpt>
      <trkpt lat="43.16347" lon="2.35259">
        <ele>195.9</ele>
        <time>2022-01-23T09:18:07.000Z</time>
      </trkpt>
      <trkpt lat="43.16348" lon="2.3526">
        <ele>195.8</ele>
        <time>2022-01-23T09:18:08.000Z</time>
      </trkpt>
      <trkpt lat="43.16348" lon="2.35262">
        <ele>195.8</ele>
        <time>2022-01-23T09:18:09.000Z</time>
      </trkpt>
      <trkpt lat="43.16349" lon="2.35263">
        <ele>195.7</ele>
        <time>2022-01-23T09:18:10.000Z</time>
      </trkpt>
      <trkpt lat="43.16349" lon="2.35264">
        <ele>195.7</ele>
        <time>2022-01-23T09:18:11.000Z</time>
      </trkpt>
      <trkpt lat="43.1635" lon="2.35266">
        <ele>195.6</ele>
        <time>2022-01-23T09:18:12.000Z</time>
      </trkpt>
      <trkpt lat="43.1635" lon="2.35267">
        <ele>195.6</ele>
        <time>2022-01-23T09:18:13.000Z</time>
      </trkpt>
      <trkpt lat="43.16351" lon="2.35269">
        <ele>195.6</ele>
        <time>2022-01-23T09:18:14.000Z</time>
      </trkpt>
      <trkpt lat="43.16351" lon="2.3527">
        <ele>195.5</ele>
        <time>2022-01-23T09:18:15.000Z</time>
      </trkpt>
      <trkpt lat="43.16352" lon="2.35271">
        <ele>195.5</ele>
        <time>2022-01-23T09:18:16.000Z</time>
      </trkpt>
      <trkpt lat="43.16352" lon="2.35273">
        <ele>195.5</ele>
        <time>2022-01-23T09:18:17.000Z</time>
      </trkpt>
      <trkpt lat="43.16352" lon="2.35274">
        <ele>195.5</ele>
        <time>2022-01-23T09:18:18.000Z</time>
      </trkpt>
      <trkpt lat="43.16352" lon="2.35276">
        <ele>195.4</ele>
        <time>2022-01-23T09:18:19.000Z</time>
      </trkpt>
      <trkpt lat="43.16352" lon="2.35277">
        <ele>195.4</ele>
        <time>2022-01-23T09:18:20.000Z</time>
      </trkpt>
      <trkpt lat="43.16352" lon="2.35278">
        <ele>195.4</ele>
        <time>2022-01-23T09:18:21.000Z</time>
      </trkpt>
      <trkpt lat="43.16352" lon="2.3528">
        <ele>195.4</ele>
        <time>2022-01-23T09:18:22.000Z</time>
      </trkpt>
      <trkpt lat="43.16352" lon="2.35281">
        <ele>195.5</ele>
        <time>2022-01-23T09:18:23.000Z</time>
      </trkpt>
      <trkpt lat="43.16352" lon="2.35283">
        <ele>195.5</ele>
        <time>2022-01-23T09:18:24.000Z</time>
      </trkpt>
      <trkpt lat="43.16352" lon="2.35285">
        <ele>195.5</ele>
        <time>2022-01-23T09:18:25.000Z</time>
      </trkpt>
      <trkpt lat="43.16352" lon="2.35286">
        <ele>195.5</ele>
        <time>2022-01-23T09:18:26.000Z</time>
      </trkpt>
      <trkpt lat="43.16352" lon="2.35288">
        <ele>195.5</ele>
        <time>2022-01-23T09:18:27.000Z</time>
      </trkpt>
      <trkpt lat="43.16352" lon="2.3529">
        <ele>195.5</ele>
        <time>2022-01-23T09:18:28.000Z</time>
      </trkpt>
      <trkpt lat="43.16352" lon="2.35292">
        <ele>195.5</ele>
        <time>2022-01-23T09:18:29.000Z</time>
      </trkpt>
      <trkpt lat="43.16352" lon="2.35293">
        <ele>195.4</ele>
        <time>2022-01-23T09:18:30.000Z</time>
      </trkpt>
      <trkpt lat="43.16352" lon="2.35295">
        <ele>195.4</ele>
        <time>2022-01-23T09:18:31.000Z</time>
      </trkpt>
      <trkpt lat="43.16352" lon="2.35296">
        <ele>195.4</ele>
        <time>2022-01-23T09:18:32.000Z</time>
      </trkpt>
      <trkpt lat="43.16352" lon="2.35298">
        <ele>195.4</ele>
        <time>2022-01-23T09:18:33.000Z</time>
      </trkpt>
      <trkpt lat="43.16352" lon="2.35299">
        <ele>195.4</ele>
        <time>2022-01-23T09:18:34.000Z</time>
      </trkpt>
      <trkpt lat="43.16352" lon="2.353">
        <ele>195.4</ele>
        <time>2022-01-23T09:18:35.000Z</time>
      </trkpt>
      <trkpt lat="43.16352" lon="2.35301">
        <ele>195.5</ele>
        <time>2022-01-23T09:18:36.000Z</time>
      </trkpt>
      <trkpt lat="43.16352" lon="2.35303">
        <ele>195.5</ele>
        <time>2022-01-23T09:18:37.000Z</time>
      </trkpt>
      <trkpt lat="43.16353" lon="2.35304">
        <ele>195.4</ele>
        <time>2022-01-23T09:18:38.000Z</time>
      </trkpt>
      <trkpt lat="43.16353" lon="2.35305">
        <ele>195.4</ele>
        <time>2022-01-23T09:18:39.000Z</time>
      </trkpt>
      <trkpt lat="43.16353" lon="2.35307">
        <ele>195.4</ele>
        <time>2022-01-23T09:18:40.000Z</time>
      </trkpt>
      <trkpt lat="43.16353" lon="2.35308">
        <ele>195.4</ele>
        <time>2022-01-23T09:18:41.000Z</time>
      </trkpt>
      <trkpt lat="43.16353" lon="2.3531">
        <ele>195.4</ele>
        <time>2022-01-23T09:18:42.000Z</time>
      </trkpt>
      <trkpt lat="43.16353" lon="2.35312">
        <ele>195.4</ele>
        <time>2022-01-23T09:18:43.000Z</time>
      </trkpt>
      <trkpt lat="43.16353" lon="2.35314">
        <ele>195.4</ele>
        <time>2022-01-23T09:18:44.000Z</time>
      </trkpt>
      <trkpt lat="43.16353" lon="2.35316">
        <ele>195.3</ele>
        <time>2022-01-23T09:18:45.000Z</time>
      </trkpt>
      <trkpt lat="43.16354" lon="2.35319">
        <ele>195.3</ele>
        <time>2022-01-23T09:18:46.000Z</time>
      </trkpt>
      <trkpt lat="43.16354" lon="2.35321">
        <ele>195.3</ele>
        <time>2022-01-23T09:18:47.000Z</time>
      </trkpt>
      <trkpt lat="43.16354" lon="2.35324">
        <ele>195.3</ele>
        <time>2022-01-23T09:18:48.000Z</time>
      </trkpt>
      <trkpt lat="43.16354" lon="2.35327">
        <ele>195.3</ele>
        <time>2022-01-23T09:18:49.000Z</time>
      </trkpt>
      <trkpt lat="43.16354" lon="2.3533">
        <ele>195.3</ele>
        <time>2022-01-23T09:18:50.000Z</time>
      </trkpt>
      <trkpt lat="43.16354" lon="2.35333">
        <ele>195.3</ele>
        <time>2022-01-23T09:18:51.000Z</time>
      </trkpt>
      <trkpt lat="43.16354" lon="2.35337">
        <ele>195.2</ele>
        <time>2022-01-23T09:18:52.000Z</time>
      </trkpt>
      <trkpt lat="43.16354" lon="2.3534">
        <ele>195.1</ele>
        <time>2022-01-23T09:18:53.000Z</time>
      </trkpt>
      <trkpt lat="43.16354" lon="2.35343">
        <ele>195.1</ele>
        <time>2022-01-23T09:18:54.000Z</time>
      </trkpt>
      <trkpt lat="43.16354" lon="2.35347">
        <ele>195</ele>
        <time>2022-01-23T09:18:55.000Z</time>
      </trkpt>
      <trkpt lat="43.16354" lon="2.3535">
        <ele>195</ele>
        <time>2022-01-23T09:18:56.000Z</time>
      </trkpt>
      <trkpt lat="43.16353" lon="2.35354">
        <ele>194.9</ele>
        <time>2022-01-23T09:18:57.000Z</time>
      </trkpt>
      <trkpt lat="43.16353" lon="2.35358">
        <ele>194.9</ele>
        <time>2022-01-23T09:18:58.000Z</time>
      </trkpt>
      <trkpt lat="43.16353" lon="2.35361">
        <ele>194.8</ele>
        <time>2022-01-23T09:18:59.000Z</time>
      </trkpt>
      <trkpt lat="43.16352" lon="2.35365">
        <ele>194.8</ele>
        <time>2022-01-23T09:19:00.000Z</time>
      </trkpt>
      <trkpt lat="43.16352" lon="2.35369">
        <ele>194.8</ele>
        <time>2022-01-23T09:19:01.000Z</time>
      </trkpt>
      <trkpt lat="43.16352" lon="2.35373">
        <ele>194.7</ele>
        <time>2022-01-23T09:19:02.000Z</time>
      </trkpt>
      <trkpt lat="43.16351" lon="2.35377">
        <ele>194.7</ele>
        <time>2022-01-23T09:19:03.000Z</time>
      </trkpt>
      <trkpt lat="43.16351" lon="2.3538">
        <ele>194.7</ele>
        <time>2022-01-23T09:19:04.000Z</time>
      </trkpt>
      <trkpt lat="43.1635" lon="2.35384">
        <ele>194.7</ele>
        <time>2022-01-23T09:19:05.000Z</time>
      </trkpt>
      <trkpt lat="43.16349" lon="2.35389">
        <ele>194.7</ele>
        <time>2022-01-23T09:19:06.000Z</time>
      </trkpt>
      <trkpt lat="43.16349" lon="2.35393">
        <ele>194.7</ele>
        <time>2022-01-23T09:19:07.000Z</time>
      </trkpt>
      <trkpt lat="43.16348" lon="2.35397">
        <ele>194.7</ele>
        <time>2022-01-23T09:19:08.000Z</time>
      </trkpt>
      <trkpt lat="43.16347" lon="2.35402">
        <ele>194.7</ele>
        <time>2022-01-23T09:19:09.000Z</time>
      </trkpt>
      <trkpt lat="43.16345" lon="2.35406">
        <ele>194.8</ele>
        <time>2022-01-23T09:19:10.000Z</time>
      </trkpt>
      <trkpt lat="43.16344" lon="2.3541">
        <ele>194.9</ele>
        <time>2022-01-23T09:19:11.000Z</time>
      </trkpt>
      <trkpt lat="43.16343" lon="2.35414">
        <ele>194.9</ele>
        <time>2022-01-23T09:19:12.000Z</time>
      </trkpt>
      <trkpt lat="43.16341" lon="2.35417">
        <ele>195</ele>
        <time>2022-01-23T09:19:13.000Z</time>
      </trkpt>
      <trkpt lat="43.1634" lon="2.35421">
        <ele>195</ele>
        <time>2022-01-23T09:19:14.000Z</time>
      </trkpt>
      <trkpt lat="43.16339" lon="2.35424">
        <ele>195</ele>
        <time>2022-01-23T09:19:15.000Z</time>
      </trkpt>
      <trkpt lat="43.16337" lon="2.35428">
        <ele>195</ele>
        <time>2022-01-23T09:19:16.000Z</time>
      </trkpt>
      <trkpt lat="43.16336" lon="2.35431">
        <ele>195</ele>
        <time>2022-01-23T09:19:17.000Z</time>
      </trkpt>
      <trkpt lat="43.16334" lon="2.35433">
        <ele>195.1</ele>
        <time>2022-01-23T09:19:18.000Z</time>
      </trkpt>
      <trkpt lat="43.16333" lon="2.35434">
        <ele>195.2</ele>
        <time>2022-01-23T09:19:19.000Z</time>
      </trkpt>
      <trkpt lat="43.16332" lon="2.35435">
        <ele>195.1</ele>
        <time>2022-01-23T09:19:20.000Z</time>
      </trkpt>
      <trkpt lat="43.16331" lon="2.35436">
        <ele>195.1</ele>
        <time>2022-01-23T09:19:21.000Z</time>
      </trkpt>
      <trkpt lat="43.1633" lon="2.35437">
        <ele>195.1</ele>
        <time>2022-01-23T09:19:22.000Z</time>
      </trkpt>
      <trkpt lat="43.16329" lon="2.35438">
        <ele>195.1</ele>
        <time>2022-01-23T09:19:23.000Z</time>
      </trkpt>
      <trkpt lat="43.16328" lon="2.35439">
        <ele>195.1</ele>
        <time>2022-01-23T09:19:24.000Z</time>
      </trkpt>
      <trkpt lat="43.16326" lon="2.35439">
        <ele>195.1</ele>
        <time>2022-01-23T09:19:25.000Z</time>
      </trkpt>
      <trkpt lat="43.16323" lon="2.3544">
        <ele>195.2</ele>
        <time>2022-01-23T09:19:26.000Z</time>
      </trkpt>
      <trkpt lat="43.16321" lon="2.35441">
        <ele>195.2</ele>
        <time>2022-01-23T09:19:27.000Z</time>
      </trkpt>
      <trkpt lat="43.16318" lon="2.35442">
        <ele>195.2</ele>
        <time>2022-01-23T09:19:28.000Z</time>
      </trkpt>
      <trkpt lat="43.16315" lon="2.35443">
        <ele>195.3</ele>
        <time>2022-01-23T09:19:29.000Z</time>
      </trkpt>
      <trkpt lat="43.16312" lon="2.35444">
        <ele>195.3</ele>
        <time>2022-01-23T09:19:30.000Z</time>
      </trkpt>
      <trkpt lat="43.1631" lon="2.35446">
        <ele>195.4</ele>
        <time>2022-01-23T09:19:31.000Z</time>
      </trkpt>
      <trkpt lat="43.16307" lon="2.35448">
        <ele>195.4</ele>
        <time>2022-01-23T09:19:32.000Z</time>
      </trkpt>
      <trkpt lat="43.16305" lon="2.3545">
        <ele>195.5</ele>
        <time>2022-01-23T09:19:33.000Z</time>
      </trkpt>
      <trkpt lat="43.16302" lon="2.35452">
        <ele>195.6</ele>
        <time>2022-01-23T09:19:34.000Z</time>
      </trkpt>
      <trkpt lat="43.163" lon="2.35454">
        <ele>195.6</ele>
        <time>2022-01-23T09:19:35.000Z</time>
      </trkpt>
      <trkpt lat="43.16298" lon="2.35457">
        <ele>195.7</ele>
        <time>2022-01-23T09:19:36.000Z</time>
      </trkpt>
      <trkpt lat="43.16296" lon="2.3546">
        <ele>195.8</ele>
        <time>2022-01-23T09:19:37.000Z</time>
      </trkpt>
      <trkpt lat="43.16295" lon="2.35463">
        <ele>195.8</ele>
        <time>2022-01-23T09:19:38.000Z</time>
      </trkpt>
      <trkpt lat="43.16293" lon="2.35466">
        <ele>195.9</ele>
        <time>2022-01-23T09:19:39.000Z</time>
      </trkpt>
      <trkpt lat="43.16292" lon="2.35469">
        <ele>196</ele>
        <time>2022-01-23T09:19:40.000Z</time>
      </trkpt>
      <trkpt lat="43.16291" lon="2.35472">
        <ele>196.1</ele>
        <time>2022-01-23T09:19:41.000Z</time>
      </trkpt>
      <trkpt lat="43.1629" lon="2.35476">
        <ele>196.1</ele>
        <time>2022-01-23T09:19:42.000Z</time>
      </trkpt>
      <trkpt lat="43.16289" lon="2.35479">
        <ele>196.2</ele>
        <time>2022-01-23T09:19:43.000Z</time>
      </trkpt>
      <trkpt lat="43.16288" lon="2.35482">
        <ele>196.3</ele>
        <time>2022-01-23T09:19:44.000Z</time>
      </trkpt>
      <trkpt lat="43.16287" lon="2.35485">
        <ele>196.4</ele>
        <time>2022-01-23T09:19:45.000Z</time>
      </trkpt>
      <trkpt lat="43.16286" lon="2.35488">
        <ele>196.5</ele>
        <time>2022-01-23T09:19:46.000Z</time>
      </trkpt>
      <trkpt lat="43.16285" lon="2.35491">
        <ele>196.6</ele>
        <time>2022-01-23T09:19:47.000Z</time>
      </trkpt>
      <trkpt lat="43.16284" lon="2.35494">
        <ele>196.7</ele>
        <time>2022-01-23T09:19:48.000Z</time>
      </trkpt>
      <trkpt lat="43.16283" lon="2.35497">
        <ele>196.8</ele>
        <time>2022-01-23T09:19:49.000Z</time>
      </trkpt>
      <trkpt lat="43.16282" lon="2.355">
        <ele>196.9</ele>
        <time>2022-01-23T09:19:50.000Z</time>
      </trkpt>
      <trkpt lat="43.16281" lon="2.35503">
        <ele>197</ele>
        <time>2022-01-23T09:19:51.000Z</time>
      </trkpt>
      <trkpt lat="43.16281" lon="2.35506">
        <ele>197.1</ele>
        <time>2022-01-23T09:19:52.000Z</time>
      </trkpt>
      <trkpt lat="43.1628" lon="2.35509">
        <ele>197.1</ele>
        <time>2022-01-23T09:19:53.000Z</time>
      </trkpt>
      <trkpt lat="43.16279" lon="2.35512">
        <ele>197.2</ele>
        <time>2022-01-23T09:19:54.000Z</time>
      </trkpt>
      <trkpt lat="43.16279" lon="2.35516">
        <ele>197.2</ele>
        <time>2022-01-23T09:19:55.000Z</time>
      </trkpt>
      <trkpt lat="43.16279" lon="2.35519">
        <ele>197.3</ele>
        <time>2022-01-23T09:19:56.000Z</time>
      </trkpt>
      <trkpt lat="43.16278" lon="2.35523">
        <ele>197.3</ele>
        <time>2022-01-23T09:19:57.000Z</time>
      </trkpt>
      <trkpt lat="43.16278" lon="2.35527">
        <ele>197.3</ele>
        <time>2022-01-23T09:19:58.000Z</time>
      </trkpt>
      <trkpt lat="43.16278" lon="2.3553">
        <ele>197.3</ele>
        <time>2022-01-23T09:19:59.000Z</time>
      </trkpt>
      <trkpt lat="43.16278" lon="2.35534">
        <ele>197.3</ele>
        <time>2022-01-23T09:20:00.000Z</time>
      </trkpt>
      <trkpt lat="43.16279" lon="2.35537">
        <ele>197.2</ele>
        <time>2022-01-23T09:20:01.000Z</time>
      </trkpt>
      <trkpt lat="43.1628" lon="2.35541">
        <ele>197.1</ele>
        <time>2022-01-23T09:20:02.000Z</time>
      </trkpt>
      <trkpt lat="43.1628" lon="2.35544">
        <ele>197</ele>
        <time>2022-01-23T09:20:03.000Z</time>
      </trkpt>
      <trkpt lat="43.16281" lon="2.35547">
        <ele>196.9</ele>
        <time>2022-01-23T09:20:04.000Z</time>
      </trkpt>
      <trkpt lat="43.16282" lon="2.3555">
        <ele>196.8</ele>
        <time>2022-01-23T09:20:05.000Z</time>
      </trkpt>
      <trkpt lat="43.16284" lon="2.35553">
        <ele>196.6</ele>
        <time>2022-01-23T09:20:06.000Z</time>
      </trkpt>
      <trkpt lat="43.16285" lon="2.35556">
        <ele>196.5</ele>
        <time>2022-01-23T09:20:07.000Z</time>
      </trkpt>
      <trkpt lat="43.16286" lon="2.35559">
        <ele>196.3</ele>
        <time>2022-01-23T09:20:08.000Z</time>
      </trkpt>
      <trkpt lat="43.16288" lon="2.35562">
        <ele>196.1</ele>
        <time>2022-01-23T09:20:09.000Z</time>
      </trkpt>
      <trkpt lat="43.16289" lon="2.35565">
        <ele>195.9</ele>
        <time>2022-01-23T09:20:10.000Z</time>
      </trkpt>
      <trkpt lat="43.16291" lon="2.35568">
        <ele>195.7</ele>
        <time>2022-01-23T09:20:11.000Z</time>
      </trkpt>
      <trkpt lat="43.16292" lon="2.35571">
        <ele>195.5</ele>
        <time>2022-01-23T09:20:12.000Z</time>
      </trkpt>
      <trkpt lat="43.16293" lon="2.35575">
        <ele>195.3</ele>
        <time>2022-01-23T09:20:13.000Z</time>
      </trkpt>
      <trkpt lat="43.16295" lon="2.35578">
        <ele>195.1</ele>
        <time>2022-01-23T09:20:14.000Z</time>
      </trkpt>
      <trkpt lat="43.16296" lon="2.35581">
        <ele>194.9</ele>
        <time>2022-01-23T09:20:15.000Z</time>
      </trkpt>
      <trkpt lat="43.16298" lon="2.35584">
        <ele>194.7</ele>
        <time>2022-01-23T09:20:16.000Z</time>
      </trkpt>
      <trkpt lat="43.16299" lon="2.35587">
        <ele>194.5</ele>
        <time>2022-01-23T09:20:17.000Z</time>
      </trkpt>
      <trkpt lat="43.16301" lon="2.3559">
        <ele>194.3</ele>
        <time>2022-01-23T09:20:18.000Z</time>
      </trkpt>
      <trkpt lat="43.16302" lon="2.35594">
        <ele>194.1</ele>
        <time>2022-01-23T09:20:19.000Z</time>
      </trkpt>
      <trkpt lat="43.16304" lon="2.35597">
        <ele>193.9</ele>
        <time>2022-01-23T09:20:20.000Z</time>
      </trkpt>
      <trkpt lat="43.16305" lon="2.356">
        <ele>193.6</ele>
        <time>2022-01-23T09:20:21.000Z</time>
      </trkpt>
      <trkpt lat="43.16307" lon="2.35603">
        <ele>193.4</ele>
        <time>2022-01-23T09:20:22.000Z</time>
      </trkpt>
      <trkpt lat="43.16309" lon="2.35607">
        <ele>193.2</ele>
        <time>2022-01-23T09:20:23.000Z</time>
      </trkpt>
      <trkpt lat="43.1631" lon="2.3561">
        <ele>193</ele>
        <time>2022-01-23T09:20:24.000Z</time>
      </trkpt>
      <trkpt lat="43.16312" lon="2.35614">
        <ele>192.7</ele>
        <time>2022-01-23T09:20:25.000Z</time>
      </trkpt>
      <trkpt lat="43.16313" lon="2.35617">
        <ele>192.5</ele>
        <time>2022-01-23T09:20:26.000Z</time>
      </trkpt>
      <trkpt lat="43.16315" lon="2.3562">
        <ele>192.3</ele>
        <time>2022-01-23T09:20:27.000Z</time>
      </trkpt>
      <trkpt lat="43.16317" lon="2.35624">
        <ele>192.1</ele>
        <time>2022-01-23T09:20:28.000Z</time>
      </trkpt>
      <trkpt lat="43.16318" lon="2.35627">
        <ele>191.9</ele>
        <time>2022-01-23T09:20:29.000Z</time>
      </trkpt>
      <trkpt lat="43.1632" lon="2.35631">
        <ele>191.7</ele>
        <time>2022-01-23T09:20:30.000Z</time>
      </trkpt>
      <trkpt lat="43.16321" lon="2.35634">
        <ele>191.5</ele>
        <time>2022-01-23T09:20:31.000Z</time>
      </trkpt>
      <trkpt lat="43.16323" lon="2.35637">
        <ele>191.3</ele>
        <time>2022-01-23T09:20:32.000Z</time>
      </trkpt>
      <trkpt lat="43.16324" lon="2.35641">
        <ele>191.1</ele>
        <time>2022-01-23T09:20:33.000Z</time>
      </trkpt>
      <trkpt lat="43.16326" lon="2.35644">
        <ele>190.9</ele>
        <time>2022-01-23T09:20:34.000Z</time>
      </trkpt>
      <trkpt lat="43.16327" lon="2.35648">
        <ele>190.8</ele>
        <time>2022-01-23T09:20:35.000Z</time>
      </trkpt>
      <trkpt lat="43.16329" lon="2.35651">
        <ele>190.6</ele>
        <time>2022-01-23T09:20:36.000Z</time>
      </trkpt>
      <trkpt lat="43.1633" lon="2.35654">
        <ele>190.4</ele>
        <time>2022-01-23T09:20:37.000Z</time>
      </trkpt>
      <trkpt lat="43.16331" lon="2.35658">
        <ele>190.3</ele>
        <time>2022-01-23T09:20:38.000Z</time>
      </trkpt>
      <trkpt lat="43.16332" lon="2.35661">
        <ele>190.2</ele>
        <time>2022-01-23T09:20:39.000Z</time>
      </trkpt>
      <trkpt lat="43.16333" lon="2.35665">
        <ele>190</ele>
        <time>2022-01-23T09:20:40.000Z</time>
      </trkpt>
      <trkpt lat="43.16334" lon="2.35668">
        <ele>190</ele>
        <time>2022-01-23T09:20:41.000Z</time>
      </trkpt>
      <trkpt lat="43.16335" lon="2.35671">
        <ele>189.9</ele>
        <time>2022-01-23T09:20:42.000Z</time>
      </trkpt>
      <trkpt lat="43.16336" lon="2.35675">
        <ele>189.8</ele>
        <time>2022-01-23T09:20:43.000Z</time>
      </trkpt>
      <trkpt lat="43.16337" lon="2.35678">
        <ele>189.7</ele>
        <time>2022-01-23T09:20:44.000Z</time>
      </trkpt>
      <trkpt lat="43.16338" lon="2.35681">
        <ele>189.6</ele>
        <time>2022-01-23T09:20:45.000Z</time>
      </trkpt>
      <trkpt lat="43.16339" lon="2.35684">
        <ele>189.5</ele>
        <time>2022-01-23T09:20:46.000Z</time>
      </trkpt>
      <trkpt lat="43.1634" lon="2.35688">
        <ele>189.4</ele>
        <time>2022-01-23T09:20:47.000Z</time>
      </trkpt>
      <trkpt lat="43.1634" lon="2.35691">
        <ele>189.3</ele>
        <time>2022-01-23T09:20:48.000Z</time>
      </trkpt>
      <trkpt lat="43.16341" lon="2.35694">
        <ele>189.3</ele>
        <time>2022-01-23T09:20:49.000Z</time>
      </trkpt>
      <trkpt lat="43.16342" lon="2.35697">
        <ele>189.2</ele>
        <time>2022-01-23T09:20:50.000Z</time>
      </trkpt>
      <trkpt lat="43.16343" lon="2.35701">
        <ele>189.1</ele>
        <time>2022-01-23T09:20:51.000Z</time>
      </trkpt>
      <trkpt lat="43.16344" lon="2.35704">
        <ele>189.1</ele>
        <time>2022-01-23T09:20:52.000Z</time>
      </trkpt>
      <trkpt lat="43.16345" lon="2.35707">
        <ele>189</ele>
        <time>2022-01-23T09:20:53.000Z</time>
      </trkpt>
      <trkpt lat="43.16346" lon="2.35711">
        <ele>189</ele>
        <time>2022-01-23T09:20:54.000Z</time>
      </trkpt>
      <trkpt lat="43.16346" lon="2.35714">
        <ele>188.9</ele>
        <time>2022-01-23T09:20:55.000Z</time>
      </trkpt>
      <trkpt lat="43.16347" lon="2.35717">
        <ele>188.9</ele>
        <time>2022-01-23T09:20:56.000Z</time>
      </trkpt>
      <trkpt lat="43.16348" lon="2.3572">
        <ele>188.8</ele>
        <time>2022-01-23T09:20:57.000Z</time>
      </trkpt>
      <trkpt lat="43.16349" lon="2.35723">
        <ele>188.8</ele>
        <time>2022-01-23T09:20:58.000Z</time>
      </trkpt>
      <trkpt lat="43.1635" lon="2.35727">
        <ele>188.7</ele>
        <time>2022-01-23T09:20:59.000Z</time>
      </trkpt>
      <trkpt lat="43.16351" lon="2.3573">
        <ele>188.7</ele>
        <time>2022-01-23T09:21:00.000Z</time>
      </trkpt>
      <trkpt lat="43.16352" lon="2.35733">
        <ele>188.7</ele>
        <time>2022-01-23T09:21:01.000Z</time>
      </trkpt>
      <trkpt lat="43.16353" lon="2.35736">
        <ele>188.6</ele>
        <time>2022-01-23T09:21:02.000Z</time>
      </trkpt>
      <trkpt lat="43.16354" lon="2.3574">
        <ele>188.6</ele>
        <time>2022-01-23T09:21:03.000Z</time>
      </trkpt>
      <trkpt lat="43.16355" lon="2.35743">
        <ele>188.6</ele>
        <time>2022-01-23T09:21:04.000Z</time>
      </trkpt>
      <trkpt lat="43.16356" lon="2.35746">
        <ele>188.6</ele>
        <time>2022-01-23T09:21:05.000Z</time>
      </trkpt>
      <trkpt lat="43.16357" lon="2.35749">
        <ele>188.6</ele>
        <time>2022-01-23T09:21:06.000Z</time>
      </trkpt>
      <trkpt lat="43.16359" lon="2.35752">
        <ele>188.7</ele>
        <time>2022-01-23T09:21:07.000Z</time>
      </trkpt>
      <trkpt lat="43.1636" lon="2.35756">
        <ele>188.8</ele>
        <time>2022-01-23T09:21:08.000Z</time>
      </trkpt>
      <trkpt lat="43.16361" lon="2.35759">
        <ele>188.9</ele>
        <time>2022-01-23T09:21:09.000Z</time>
      </trkpt>
      <trkpt lat="43.16362" lon="2.35762">
        <ele>189</ele>
        <time>2022-01-23T09:21:10.000Z</time>
      </trkpt>
      <trkpt lat="43.16363" lon="2.35765">
        <ele>189.1</ele>
        <time>2022-01-23T09:21:11.000Z</time>
      </trkpt>
      <trkpt lat="43.16365" lon="2.35768">
        <ele>189.2</ele>
        <time>2022-01-23T09:21:12.000Z</time>
      </trkpt>
      <trkpt lat="43.16366" lon="2.35771">
        <ele>189.3</ele>
        <time>2022-01-23T09:21:13.000Z</time>
      </trkpt>
      <trkpt lat="43.16367" lon="2.35774">
        <ele>189.4</ele>
        <time>2022-01-23T09:21:14.000Z</time>
      </trkpt>
      <trkpt lat="43.16368" lon="2.35777">
        <ele>189.5</ele>
        <time>2022-01-23T09:21:15.000Z</time>
      </trkpt>
      <trkpt lat="43.16369" lon="2.3578">
        <ele>189.6</ele>
        <time>2022-01-23T09:21:16.000Z</time>
      </trkpt>
      <trkpt lat="43.1637" lon="2.35783">
        <ele>189.7</ele>
        <time>2022-01-23T09:21:17.000Z</time>
      </trkpt>
      <trkpt lat="43.16371" lon="2.35786">
        <ele>189.8</ele>
        <time>2022-01-23T09:21:18.000Z</time>
      </trkpt>
      <trkpt lat="43.16371" lon="2.35789">
        <ele>189.9</ele>
        <time>2022-01-23T09:21:19.000Z</time>
      </trkpt>
      <trkpt lat="43.16372" lon="2.35792">
        <ele>189.9</ele>
        <time>2022-01-23T09:21:20.000Z</time>
      </trkpt>
      <trkpt lat="43.16372" lon="2.35795">
        <ele>190</ele>
        <time>2022-01-23T09:21:21.000Z</time>
      </trkpt>
      <trkpt lat="43.16373" lon="2.35798">
        <ele>190.1</ele>
        <time>2022-01-23T09:21:22.000Z</time>
      </trkpt>
      <trkpt lat="43.16373" lon="2.358">
        <ele>190.1</ele>
        <time>2022-01-23T09:21:23.000Z</time>
      </trkpt>
      <trkpt lat="43.16373" lon="2.35802">
        <ele>190.2</ele>
        <time>2022-01-23T09:21:24.000Z</time>
      </trkpt>
      <trkpt lat="43.16374" lon="2.35804">
        <ele>190.3</ele>
        <time>2022-01-23T09:21:25.000Z</time>
      </trkpt>
      <trkpt lat="43.16375" lon="2.35805">
        <ele>190.3</ele>
        <time>2022-01-23T09:21:26.000Z</time>
      </trkpt>
      <trkpt lat="43.16375" lon="2.35806">
        <ele>190.3</ele>
        <time>2022-01-23T09:21:27.000Z</time>
      </trkpt>
      <trkpt lat="43.16376" lon="2.35806">
        <ele>190.4</ele>
        <time>2022-01-23T09:21:28.000Z</time>
      </trkpt>
      <trkpt lat="43.16377" lon="2.35806">
        <ele>190.4</ele>
        <time>2022-01-23T09:21:29.000Z</time>
      </trkpt>
      <trkpt lat="43.16378" lon="2.35807">
        <ele>190.4</ele>
        <time>2022-01-23T09:21:30.000Z</time>
      </trkpt>
      <trkpt lat="43.1638" lon="2.35807">
        <ele>190.5</ele>
        <time>2022-01-23T09:21:31.000Z</time>
      </trkpt>
      <trkpt lat="43.16381" lon="2.35806">
        <ele>190.5</ele>
        <time>2022-01-23T09:21:32.000Z</time>
      </trkpt>
      <trkpt lat="43.16382" lon="2.35806">
        <ele>190.5</ele>
        <time>2022-01-23T09:21:33.000Z</time>
      </trkpt>
      <trkpt lat="43.16383" lon="2.35806">
        <ele>190.5</ele>
        <time>2022-01-23T09:21:34.000Z</time>
      </trkpt>
      <trkpt lat="43.16384" lon="2.35806">
        <ele>190.5</ele>
        <time>2022-01-23T09:21:35.000Z</time>
      </trkpt>
      <trkpt lat="43.16385" lon="2.35805">
        <ele>190.6</ele>
        <time>2022-01-23T09:21:36.000Z</time>
      </trkpt>
      <trkpt lat="43.16386" lon="2.35805">
        <ele>190.6</ele>
        <time>2022-01-23T09:21:37.000Z</time>
      </trkpt>
      <trkpt lat="43.16387" lon="2.35805">
        <ele>190.6</ele>
        <time>2022-01-23T09:21:38.000Z</time>
      </trkpt>
      <trkpt lat="43.16388" lon="2.35805">
        <ele>190.6</ele>
        <time>2022-01-23T09:21:39.000Z</time>
      </trkpt>
      <trkpt lat="43.16389" lon="2.35805">
        <ele>190.6</ele>
        <time>2022-01-23T09:21:40.000Z</time>
      </trkpt>
      <trkpt lat="43.1639" lon="2.35805">
        <ele>190.7</ele>
        <time>2022-01-23T09:21:41.000Z</time>
      </trkpt>
      <trkpt lat="43.16391" lon="2.35805">
        <ele>190.7</ele>
        <time>2022-01-23T09:21:42.000Z</time>
      </trkpt>
      <trkpt lat="43.16392" lon="2.35805">
        <ele>190.7</ele>
        <time>2022-01-23T09:21:43.000Z</time>
      </trkpt>
      <trkpt lat="43.16393" lon="2.35805">
        <ele>190.8</ele>
        <time>2022-01-23T09:21:44.000Z</time>
      </trkpt>
      <trkpt lat="43.16394" lon="2.35805">
        <ele>190.8</ele>
        <time>2022-01-23T09:21:45.000Z</time>
      </trkpt>
      <trkpt lat="43.16396" lon="2.35806">
        <ele>190.8</ele>
        <time>2022-01-23T09:21:46.000Z</time>
      </trkpt>
      <trkpt lat="43.16397" lon="2.35806">
        <ele>190.9</ele>
        <time>2022-01-23T09:21:47.000Z</time>
      </trkpt>
      <trkpt lat="43.16399" lon="2.35806">
        <ele>190.9</ele>
        <time>2022-01-23T09:21:48.000Z</time>
      </trkpt>
      <trkpt lat="43.16401" lon="2.35806">
        <ele>191</ele>
        <time>2022-01-23T09:21:49.000Z</time>
      </trkpt>
      <trkpt lat="43.16403" lon="2.35806">
        <ele>191</ele>
        <time>2022-01-23T09:21:50.000Z</time>
      </trkpt>
      <trkpt lat="43.16405" lon="2.35806">
        <ele>191.1</ele>
        <time>2022-01-23T09:21:51.000Z</time>
      </trkpt>
      <trkpt lat="43.16407" lon="2.35806">
        <ele>191.1</ele>
        <time>2022-01-23T09:21:52.000Z</time>
      </trkpt>
      <trkpt lat="43.16409" lon="2.35806">
        <ele>191.2</ele>
        <time>2022-01-23T09:21:53.000Z</time>
      </trkpt>
      <trkpt lat="43.16411" lon="2.35806">
        <ele>191.2</ele>
        <time>2022-01-23T09:21:54.000Z</time>
      </trkpt>
      <trkpt lat="43.16413" lon="2.35807">
        <ele>191.3</ele>
        <time>2022-01-23T09:21:55.000Z</time>
      </trkpt>
      <trkpt lat="43.16415" lon="2.35807">
        <ele>191.3</ele>
        <time>2022-01-23T09:21:56.000Z</time>
      </trkpt>
      <trkpt lat="43.16418" lon="2.35807">
        <ele>191.5</ele>
        <time>2022-01-23T09:21:57.000Z</time>
      </trkpt>
      <trkpt lat="43.1642" lon="2.35807">
        <ele>191.7</ele>
        <time>2022-01-23T09:21:58.000Z</time>
      </trkpt>
      <trkpt lat="43.16422" lon="2.35807">
        <ele>191.9</ele>
        <time>2022-01-23T09:21:59.000Z</time>
      </trkpt>
      <trkpt lat="43.16425" lon="2.35808">
        <ele>192.1</ele>
        <time>2022-01-23T09:22:00.000Z</time>
      </trkpt>
      <trkpt lat="43.16427" lon="2.35808">
        <ele>192.3</ele>
        <time>2022-01-23T09:22:01.000Z</time>
      </trkpt>
      <trkpt lat="43.16429" lon="2.35808">
        <ele>192.5</ele>
        <time>2022-01-23T09:22:02.000Z</time>
      </trkpt>
      <trkpt lat="43.16432" lon="2.35808">
        <ele>192.7</ele>
        <time>2022-01-23T09:22:03.000Z</time>
      </trkpt>
      <trkpt lat="43.16434" lon="2.35809">
        <ele>192.9</ele>
        <time>2022-01-23T09:22:04.000Z</time>
      </trkpt>
      <trkpt lat="43.16436" lon="2.35809">
        <ele>193.1</ele>
        <time>2022-01-23T09:22:05.000Z</time>
      </trkpt>
      <trkpt lat="43.16438" lon="2.35809">
        <ele>193.3</ele>
        <time>2022-01-23T09:22:06.000Z</time>
      </trkpt>
      <trkpt lat="43.1644" lon="2.35809">
        <ele>193.5</ele>
        <time>2022-01-23T09:22:07.000Z</time>
      </trkpt>
      <trkpt lat="43.16443" lon="2.3581">
        <ele>193.7</ele>
        <time>2022-01-23T09:22:08.000Z</time>
      </trkpt>
      <trkpt lat="43.16445" lon="2.3581">
        <ele>193.9</ele>
        <time>2022-01-23T09:22:09.000Z</time>
      </trkpt>
      <trkpt lat="43.16447" lon="2.3581">
        <ele>194.1</ele>
        <time>2022-01-23T09:22:10.000Z</time>
      </trkpt>
      <trkpt lat="43.16448" lon="2.35809">
        <ele>194.2</ele>
        <time>2022-01-23T09:22:11.000Z</time>
      </trkpt>
      <trkpt lat="43.1645" lon="2.35809">
        <ele>194.4</ele>
        <time>2022-01-23T09:22:12.000Z</time>
      </trkpt>
      <trkpt lat="43.16452" lon="2.35808">
        <ele>194.5</ele>
        <time>2022-01-23T09:22:13.000Z</time>
      </trkpt>
      <trkpt lat="43.16454" lon="2.35808">
        <ele>194.7</ele>
        <time>2022-01-23T09:22:14.000Z</time>
      </trkpt>
      <trkpt lat="43.16455" lon="2.35807">
        <ele>194.8</ele>
        <time>2022-01-23T09:22:15.000Z</time>
      </trkpt>
      <trkpt lat="43.16457" lon="2.35806">
        <ele>194.9</ele>
        <time>2022-01-23T09:22:16.000Z</time>
      </trkpt>
      <trkpt lat="43.16458" lon="2.35805">
        <ele>195</ele>
        <time>2022-01-23T09:22:17.000Z</time>
      </trkpt>
      <trkpt lat="43.1646" lon="2.35804">
        <ele>195.1</ele>
        <time>2022-01-23T09:22:18.000Z</time>
      </trkpt>
      <trkpt lat="43.16462" lon="2.35803">
        <ele>195.2</ele>
        <time>2022-01-23T09:22:19.000Z</time>
      </trkpt>
      <trkpt lat="43.16463" lon="2.35803">
        <ele>195.3</ele>
        <time>2022-01-23T09:22:20.000Z</time>
      </trkpt>
      <trkpt lat="43.16464" lon="2.35802">
        <ele>195.4</ele>
        <time>2022-01-23T09:22:21.000Z</time>
      </trkpt>
      <trkpt lat="43.16466" lon="2.35801">
        <ele>195.5</ele>
        <time>2022-01-23T09:22:22.000Z</time>
      </trkpt>
      <trkpt lat="43.16467" lon="2.358">
        <ele>195.5</ele>
        <time>2022-01-23T09:22:23.000Z</time>
      </trkpt>
      <trkpt lat="43.16467" lon="2.35799">
        <ele>195.5</ele>
        <time>2022-01-23T09:22:24.000Z</time>
      </trkpt>
      <trkpt lat="43.16468" lon="2.35798">
        <ele>195.5</ele>
        <time>2022-01-23T09:22:25.000Z</time>
      </trkpt>
      <trkpt lat="43.16468" lon="2.35797">
        <ele>195.5</ele>
        <time>2022-01-23T09:22:26.000Z</time>
      </trkpt>
      <trkpt lat="43.16467" lon="2.35795">
        <ele>195.4</ele>
        <time>2022-01-23T09:22:27.000Z</time>
      </trkpt>
      <trkpt lat="43.16467" lon="2.35794">
        <ele>195.3</ele>
        <time>2022-01-23T09:22:28.000Z</time>
      </trkpt>
      <trkpt lat="43.16467" lon="2.35793">
        <ele>195.2</ele>
        <time>2022-01-23T09:22:29.000Z</time>
      </trkpt>
      <trkpt lat="43.16466" lon="2.35791">
        <ele>195.1</ele>
        <time>2022-01-23T09:22:30.000Z</time>
      </trkpt>
      <trkpt lat="43.16466" lon="2.3579">
        <ele>195</ele>
        <time>2022-01-23T09:22:31.000Z</time>
      </trkpt>
      <trkpt lat="43.16465" lon="2.35788">
        <ele>194.9</ele>
        <time>2022-01-23T09:22:32.000Z</time>
      </trkpt>
      <trkpt lat="43.16465" lon="2.35787">
        <ele>194.8</ele>
        <time>2022-01-23T09:22:33.000Z</time>
      </trkpt>
      <trkpt lat="43.16464" lon="2.35785">
        <ele>194.7</ele>
        <time>2022-01-23T09:22:34.000Z</time>
      </trkpt>
      <trkpt lat="43.16464" lon="2.35784">
        <ele>194.6</ele>
        <time>2022-01-23T09:22:35.000Z</time>
      </trkpt>
      <trkpt lat="43.16463" lon="2.35782">
        <ele>194.6</ele>
        <time>2022-01-23T09:22:36.000Z</time>
      </trkpt>
      <trkpt lat="43.16463" lon="2.3578">
        <ele>194.5</ele>
        <time>2022-01-23T09:22:37.000Z</time>
      </trkpt>
      <trkpt lat="43.16463" lon="2.35779">
        <ele>194.4</ele>
        <time>2022-01-23T09:22:38.000Z</time>
      </trkpt>
      <trkpt lat="43.16463" lon="2.35777">
        <ele>194.4</ele>
        <time>2022-01-23T09:22:39.000Z</time>
      </trkpt>
      <trkpt lat="43.16464" lon="2.35776">
        <ele>194.3</ele>
        <time>2022-01-23T09:22:40.000Z</time>
      </trkpt>
      <trkpt lat="43.16464" lon="2.35774">
        <ele>194.3</ele>
        <time>2022-01-23T09:22:41.000Z</time>
      </trkpt>
      <trkpt lat="43.16464" lon="2.35773">
        <ele>194.3</ele>
        <time>2022-01-23T09:22:42.000Z</time>
      </trkpt>
      <trkpt lat="43.16465" lon="2.35771">
        <ele>194.3</ele>
        <time>2022-01-23T09:22:43.000Z</time>
      </trkpt>
      <trkpt lat="43.16465" lon="2.3577">
        <ele>194.3</ele>
        <time>2022-01-23T09:22:44.000Z</time>
      </trkpt>
      <trkpt lat="43.16466" lon="2.35769">
        <ele>194.3</ele>
        <time>2022-01-23T09:22:45.000Z</time>
      </trkpt>
      <trkpt lat="43.16467" lon="2.35768">
        <ele>194.3</ele>
        <time>2022-01-23T09:22:46.000Z</time>
      </trkpt>
      <trkpt lat="43.16467" lon="2.35766">
        <ele>194.3</ele>
        <time>2022-01-23T09:22:47.000Z</time>
      </trkpt>
      <trkpt lat="43.16468" lon="2.35765">
        <ele>194.3</ele>
        <time>2022-01-23T09:22:48.000Z</time>
      </trkpt>
      <trkpt lat="43.16469" lon="2.35764">
        <ele>194.3</ele>
        <time>2022-01-23T09:22:49.000Z</time>
      </trkpt>
      <trkpt lat="43.1647" lon="2.35763">
        <ele>194.3</ele>
        <time>2022-01-23T09:22:50.000Z</time>
      </trkpt>
      <trkpt lat="43.1647" lon="2.35762">
        <ele>194.3</ele>
        <time>2022-01-23T09:22:51.000Z</time>
      </trkpt>
      <trkpt lat="43.16471" lon="2.35761">
        <ele>194.4</ele>
        <time>2022-01-23T09:22:52.000Z</time>
      </trkpt>
      <trkpt lat="43.16472" lon="2.3576">
        <ele>194.4</ele>
        <time>2022-01-23T09:22:53.000Z</time>
      </trkpt>
      <trkpt lat="43.16472" lon="2.3576">
        <ele>194.4</ele>
        <time>2022-01-23T09:22:54.000Z</time>
      </trkpt>
      <trkpt lat="43.16473" lon="2.35759">
        <ele>194.4</ele>
        <time>2022-01-23T09:22:55.000Z</time>
      </trkpt>
      <trkpt lat="43.16473" lon="2.35758">
        <ele>194.4</ele>
        <time>2022-01-23T09:22:56.000Z</time>
      </trkpt>
      <trkpt lat="43.16474" lon="2.35758">
        <ele>194.4</ele>
        <time>2022-01-23T09:22:57.000Z</time>
      </trkpt>
      <trkpt lat="43.16474" lon="2.35757">
        <ele>194.4</ele>
        <time>2022-01-23T09:22:58.000Z</time>
      </trkpt>
      <trkpt lat="43.16475" lon="2.35757">
        <ele>194.4</ele>
        <time>2022-01-23T09:22:59.000Z</time>
      </trkpt>
      <trkpt lat="43.16475" lon="2.35756">
        <ele>194.5</ele>
        <time>2022-01-23T09:23:00.000Z</time>
      </trkpt>
      <trkpt lat="43.16475" lon="2.35756">
        <ele>194.5</ele>
        <time>2022-01-23T09:23:01.000Z</time>
      </trkpt>
      <trkpt lat="43.16476" lon="2.35755">
        <ele>194.5</ele>
        <time>2022-01-23T09:23:02.000Z</time>
      </trkpt>
      <trkpt lat="43.16476" lon="2.35755">
        <ele>194.5</ele>
        <time>2022-01-23T09:23:03.000Z</time>
      </trkpt>
      <trkpt lat="43.16477" lon="2.35755">
        <ele>194.5</ele>
        <time>2022-01-23T09:23:04.000Z</time>
      </trkpt>
      <trkpt lat="43.16478" lon="2.35754">
        <ele>194.5</ele>
        <time>2022-01-23T09:23:05.000Z</time>
      </trkpt>
      <trkpt lat="43.16478" lon="2.35754">
        <ele>194.6</ele>
        <time>2022-01-23T09:23:06.000Z</time>
      </trkpt>
      <trkpt lat="43.16479" lon="2.35753">
        <ele>194.6</ele>
        <time>2022-01-23T09:23:07.000Z</time>
      </trkpt>
      <trkpt lat="43.16479" lon="2.35753">
        <ele>194.6</ele>
        <time>2022-01-23T09:23:08.000Z</time>
      </trkpt>
      <trkpt lat="43.16479" lon="2.35752">
        <ele>194.6</ele>
        <time>2022-01-23T09:23:09.000Z</time>
      </trkpt>
      <trkpt lat="43.1648" lon="2.35752">
        <ele>194.6</ele>
        <time>2022-01-23T09:23:10.000Z</time>
      </trkpt>
      <trkpt lat="43.1648" lon="2.35751">
        <ele>194.6</ele>
        <time>2022-01-23T09:23:11.000Z</time>
      </trkpt>
      <trkpt lat="43.1648" lon="2.35751">
        <ele>194.6</ele>
        <time>2022-01-23T09:23:12.000Z</time>
      </trkpt>
      <trkpt lat="43.1648" lon="2.3575">
        <ele>194.6</ele>
        <time>2022-01-23T09:23:13.000Z</time>
      </trkpt>
      <trkpt lat="43.1648" lon="2.3575">
        <ele>194.6</ele>
        <time>2022-01-23T09:23:14.000Z</time>
      </trkpt>
      <trkpt lat="43.1648" lon="2.3575">
        <ele>194.6</ele>
        <time>2022-01-23T09:23:15.000Z</time>
      </trkpt>
      <trkpt lat="43.1648" lon="2.3575">
        <ele>194.6</ele>
        <time>2022-01-23T09:23:16.000Z</time>
      </trkpt>
      <trkpt lat="43.1648" lon="2.35749">
        <ele>194.6</ele>
        <time>2022-01-23T09:23:17.000Z</time>
      </trkpt>
      <trkpt lat="43.16481" lon="2.35749">
        <ele>194.5</ele>
        <time>2022-01-23T09:23:18.000Z</time>
      </trkpt>
      <trkpt lat="43.16481" lon="2.35749">
        <ele>194.5</ele>
        <time>2022-01-23T09:23:19.000Z</time>
      </trkpt>
      <trkpt lat="43.16481" lon="2.35749">
        <ele>194.5</ele>
        <time>2022-01-23T09:23:20.000Z</time>
      </trkpt>
      <trkpt lat="43.16481" lon="2.35749">
        <ele>194.5</ele>
        <time>2022-01-23T09:23:21.000Z</time>
      </trkpt>
      <trkpt lat="43.16481" lon="2.35749">
        <ele>194.5</ele>
        <time>2022-01-23T09:23:22.000Z</time>
      </trkpt>
      <trkpt lat="43.16481" lon="2.35749">
        <ele>194.5</ele>
        <time>2022-01-23T09:23:23.000Z</time>
      </trkpt>
      <trkpt lat="43.16481" lon="2.35748">
        <ele>194.5</ele>
        <time>2022-01-23T09:23:24.000Z</time>
      </trkpt>
      <trkpt lat="43.16481" lon="2.35748">
        <ele>194.5</ele>
        <time>2022-01-23T09:23:25.000Z</time>
      </trkpt>
      <trkpt lat="43.16481" lon="2.35747">
        <ele>194.4</ele>
        <time>2022-01-23T09:23:26.000Z</time>
      </trkpt>
      <trkpt lat="43.1648" lon="2.35746">
        <ele>194.4</ele>
        <time>2022-01-23T09:23:27.000Z</time>
      </trkpt>
      <trkpt lat="43.1648" lon="2.35745">
        <ele>194.3</ele>
        <time>2022-01-23T09:23:28.000Z</time>
      </trkpt>
      <trkpt lat="43.1648" lon="2.35744">
        <ele>194.3</ele>
        <time>2022-01-23T09:23:29.000Z</time>
      </trkpt>
      <trkpt lat="43.1648" lon="2.35744">
        <ele>194.3</ele>
        <time>2022-01-23T09:23:30.000Z</time>
      </trkpt>
      <trkpt lat="43.1648" lon="2.35743">
        <ele>194.2</ele>
        <time>2022-01-23T09:23:31.000Z</time>
      </trkpt>
      <trkpt lat="43.1648" lon="2.35743">
        <ele>194.2</ele>
        <time>2022-01-23T09:23:32.000Z</time>
      </trkpt>
      <trkpt lat="43.1648" lon="2.35742">
        <ele>194.2</ele>
        <time>2022-01-23T09:23:33.000Z</time>
      </trkpt>
      <trkpt lat="43.1648" lon="2.35742">
        <ele>194.1</ele>
        <time>2022-01-23T09:23:34.000Z</time>
      </trkpt>
      <trkpt lat="43.1648" lon="2.35741">
        <ele>194.1</ele>
        <time>2022-01-23T09:23:35.000Z</time>
      </trkpt>
      <trkpt lat="43.1648" lon="2.3574">
        <ele>194</ele>
        <time>2022-01-23T09:23:36.000Z</time>
      </trkpt>
      <trkpt lat="43.16479" lon="2.35739">
        <ele>194</ele>
        <time>2022-01-23T09:23:37.000Z</time>
      </trkpt>
      <trkpt lat="43.16479" lon="2.35738">
        <ele>193.9</ele>
        <time>2022-01-23T09:23:38.000Z</time>
      </trkpt>
      <trkpt lat="43.16479" lon="2.35737">
        <ele>193.8</ele>
        <time>2022-01-23T09:23:39.000Z</time>
      </trkpt>
      <trkpt lat="43.16479" lon="2.35736">
        <ele>193.8</ele>
        <time>2022-01-23T09:23:40.000Z</time>
      </trkpt>
      <trkpt lat="43.16479" lon="2.35736">
        <ele>193.7</ele>
        <time>2022-01-23T09:23:41.000Z</time>
      </trkpt>
      <trkpt lat="43.16479" lon="2.35736">
        <ele>193.7</ele>
        <time>2022-01-23T09:23:42.000Z</time>
      </trkpt>
      <trkpt lat="43.16479" lon="2.35735">
        <ele>193.7</ele>
        <time>2022-01-23T09:23:43.000Z</time>
      </trkpt>
      <trkpt lat="43.16479" lon="2.35734">
        <ele>193.7</ele>
        <time>2022-01-23T09:23:44.000Z</time>
      </trkpt>
      <trkpt lat="43.16478" lon="2.35733">
        <ele>193.6</ele>
        <time>2022-01-23T09:23:45.000Z</time>
      </trkpt>
      <trkpt lat="43.16478" lon="2.35732">
        <ele>193.5</ele>
        <time>2022-01-23T09:23:46.000Z</time>
      </trkpt>
      <trkpt lat="43.16478" lon="2.35731">
        <ele>193.4</ele>
        <time>2022-01-23T09:23:47.000Z</time>
      </trkpt>
      <trkpt lat="43.16477" lon="2.3573">
        <ele>193.4</ele>
        <time>2022-01-23T09:23:48.000Z</time>
      </trkpt>
      <trkpt lat="43.16477" lon="2.3573">
        <ele>193.3</ele>
        <time>2022-01-23T09:23:49.000Z</time>
      </trkpt>
      <trkpt lat="43.16477" lon="2.35729">
        <ele>193.3</ele>
        <time>2022-01-23T09:23:50.000Z</time>
      </trkpt>
      <trkpt lat="43.16476" lon="2.35728">
        <ele>193.2</ele>
        <time>2022-01-23T09:23:51.000Z</time>
      </trkpt>
      <trkpt lat="43.16476" lon="2.35727">
        <ele>193.1</ele>
        <time>2022-01-23T09:23:52.000Z</time>
      </trkpt>
      <trkpt lat="43.16476" lon="2.35726">
        <ele>193.1</ele>
        <time>2022-01-23T09:23:53.000Z</time>
      </trkpt>
      <trkpt lat="43.16476" lon="2.35725">
        <ele>193</ele>
        <time>2022-01-23T09:23:54.000Z</time>
      </trkpt>
      <trkpt lat="43.16476" lon="2.35724">
        <ele>193</ele>
        <time>2022-01-23T09:23:55.000Z</time>
      </trkpt>
      <trkpt lat="43.16476" lon="2.35722">
        <ele>192.9</ele>
        <time>2022-01-23T09:23:56.000Z</time>
      </trkpt>
      <trkpt lat="43.16476" lon="2.35721">
        <ele>192.9</ele>
        <time>2022-01-23T09:23:57.000Z</time>
      </trkpt>
      <trkpt lat="43.16477" lon="2.3572">
        <ele>192.8</ele>
        <time>2022-01-23T09:23:58.000Z</time>
      </trkpt>
      <trkpt lat="43.16477" lon="2.35718">
        <ele>192.7</ele>
        <time>2022-01-23T09:23:59.000Z</time>
      </trkpt>
      <trkpt lat="43.16477" lon="2.35716">
        <ele>192.7</ele>
        <time>2022-01-23T09:24:00.000Z</time>
      </trkpt>
      <trkpt lat="43.16478" lon="2.35715">
        <ele>192.6</ele>
        <time>2022-01-23T09:24:01.000Z</time>
      </trkpt>
      <trkpt lat="43.16478" lon="2.35713">
        <ele>192.6</ele>
        <time>2022-01-23T09:24:02.000Z</time>
      </trkpt>
      <trkpt lat="43.16479" lon="2.35711">
        <ele>192.5</ele>
        <time>2022-01-23T09:24:03.000Z</time>
      </trkpt>
      <trkpt lat="43.1648" lon="2.35709">
        <ele>192.5</ele>
        <time>2022-01-23T09:24:04.000Z</time>
      </trkpt>
      <trkpt lat="43.16481" lon="2.35708">
        <ele>192.5</ele>
        <time>2022-01-23T09:24:05.000Z</time>
      </trkpt>
      <trkpt lat="43.16483" lon="2.35706">
        <ele>192.4</ele>
        <time>2022-01-23T09:24:06.000Z</time>
      </trkpt>
      <trkpt lat="43.16484" lon="2.35705">
        <ele>192.5</ele>
        <time>2022-01-23T09:24:07.000Z</time>
      </trkpt>
      <trkpt lat="43.16486" lon="2.35704">
        <ele>192.5</ele>
        <time>2022-01-23T09:24:08.000Z</time>
      </trkpt>
      <trkpt lat="43.16488" lon="2.35704">
        <ele>192.6</ele>
        <time>2022-01-23T09:24:09.000Z</time>
      </trkpt>
      <trkpt lat="43.16491" lon="2.35703">
        <ele>192.7</ele>
        <time>2022-01-23T09:24:10.000Z</time>
      </trkpt>
      <trkpt lat="43.16493" lon="2.35703">
        <ele>192.8</ele>
        <time>2022-01-23T09:24:11.000Z</time>
      </trkpt>
      <trkpt lat="43.16496" lon="2.35703">
        <ele>192.9</ele>
        <time>2022-01-23T09:24:12.000Z</time>
      </trkpt>
      <trkpt lat="43.16498" lon="2.35703">
        <ele>193.1</ele>
        <time>2022-01-23T09:24:13.000Z</time>
      </trkpt>
      <trkpt lat="43.16501" lon="2.35703">
        <ele>193.2</ele>
        <time>2022-01-23T09:24:14.000Z</time>
      </trkpt>
      <trkpt lat="43.16503" lon="2.35702">
        <ele>193.4</ele>
        <time>2022-01-23T09:24:15.000Z</time>
      </trkpt>
      <trkpt lat="43.16506" lon="2.35702">
        <ele>193.6</ele>
        <time>2022-01-23T09:24:16.000Z</time>
      </trkpt>
      <trkpt lat="43.16509" lon="2.35702">
        <ele>193.8</ele>
        <time>2022-01-23T09:24:17.000Z</time>
      </trkpt>
      <trkpt lat="43.16511" lon="2.35701">
        <ele>194</ele>
        <time>2022-01-23T09:24:18.000Z</time>
      </trkpt>
      <trkpt lat="43.16514" lon="2.35701">
        <ele>194.2</ele>
        <time>2022-01-23T09:24:19.000Z</time>
      </trkpt>
      <trkpt lat="43.16517" lon="2.35701">
        <ele>194.4</ele>
        <time>2022-01-23T09:24:20.000Z</time>
      </trkpt>
      <trkpt lat="43.16519" lon="2.35701">
        <ele>194.6</ele>
        <time>2022-01-23T09:24:21.000Z</time>
      </trkpt>
      <trkpt lat="43.16522" lon="2.35701">
        <ele>194.8</ele>
        <time>2022-01-23T09:24:22.000Z</time>
      </trkpt>
      <trkpt lat="43.16525" lon="2.357">
        <ele>195</ele>
        <time>2022-01-23T09:24:23.000Z</time>
      </trkpt>
      <trkpt lat="43.16527" lon="2.357">
        <ele>195.2</ele>
        <time>2022-01-23T09:24:24.000Z</time>
      </trkpt>
      <trkpt lat="43.1653" lon="2.357">
        <ele>195.4</ele>
        <time>2022-01-23T09:24:25.000Z</time>
      </trkpt>
      <trkpt lat="43.16533" lon="2.357">
        <ele>195.6</ele>
        <time>2022-01-23T09:24:26.000Z</time>
      </trkpt>
      <trkpt lat="43.16536" lon="2.35699">
        <ele>195.8</ele>
        <time>2022-01-23T09:24:27.000Z</time>
      </trkpt>
      <trkpt lat="43.16539" lon="2.35698">
        <ele>196</ele>
        <time>2022-01-23T09:24:28.000Z</time>
      </trkpt>
      <trkpt lat="43.16541" lon="2.35697">
        <ele>196.1</ele>
        <time>2022-01-23T09:24:29.000Z</time>
      </trkpt>
      <trkpt lat="43.16542" lon="2.35695">
        <ele>196.1</ele>
        <time>2022-01-23T09:24:30.000Z</time>
      </trkpt>
      <trkpt lat="43.16543" lon="2.35693">
        <ele>196</ele>
        <time>2022-01-23T09:24:31.000Z</time>
      </trkpt>
      <trkpt lat="43.16544" lon="2.3569">
        <ele>195.9</ele>
        <time>2022-01-23T09:24:32.000Z</time>
      </trkpt>
      <trkpt lat="43.16544" lon="2.35687">
        <ele>195.8</ele>
        <time>2022-01-23T09:24:33.000Z</time>
      </trkpt>
      <trkpt lat="43.16544" lon="2.35684">
        <ele>195.7</ele>
        <time>2022-01-23T09:24:34.000Z</time>
      </trkpt>
      <trkpt lat="43.16544" lon="2.35681">
        <ele>195.5</ele>
        <time>2022-01-23T09:24:35.000Z</time>
      </trkpt>
      <trkpt lat="43.16544" lon="2.35678">
        <ele>195.3</ele>
        <time>2022-01-23T09:24:36.000Z</time>
      </trkpt>
      <trkpt lat="43.16545" lon="2.35676">
        <ele>195.2</ele>
        <time>2022-01-23T09:24:37.000Z</time>
      </trkpt>
      <trkpt lat="43.16545" lon="2.35674">
        <ele>195.2</ele>
        <time>2022-01-23T09:24:38.000Z</time>
      </trkpt>
      <trkpt lat="43.16546" lon="2.35673">
        <ele>195.2</ele>
        <time>2022-01-23T09:24:39.000Z</time>
      </trkpt>
      <trkpt lat="43.16548" lon="2.35673">
        <ele>195.3</ele>
        <time>2022-01-23T09:24:40.000Z</time>
      </trkpt>
      <trkpt lat="43.16549" lon="2.35673">
        <ele>195.5</ele>
        <time>2022-01-23T09:24:41.000Z</time>
      </trkpt>
      <trkpt lat="43.16551" lon="2.35673">
        <ele>195.6</ele>
        <time>2022-01-23T09:24:42.000Z</time>
      </trkpt>
      <trkpt lat="43.16553" lon="2.35674">
        <ele>195.8</ele>
        <time>2022-01-23T09:24:43.000Z</time>
      </trkpt>
      <trkpt lat="43.16555" lon="2.35674">
        <ele>196</ele>
        <time>2022-01-23T09:24:44.000Z</time>
      </trkpt>
      <trkpt lat="43.16557" lon="2.35675">
        <ele>196.2</ele>
        <time>2022-01-23T09:24:45.000Z</time>
      </trkpt>
      <trkpt lat="43.16559" lon="2.35676">
        <ele>196.5</ele>
        <time>2022-01-23T09:24:46.000Z</time>
      </trkpt>
      <trkpt lat="43.16561" lon="2.35677">
        <ele>196.7</ele>
        <time>2022-01-23T09:24:47.000Z</time>
      </trkpt>
      <trkpt lat="43.16563" lon="2.35678">
        <ele>196.9</ele>
        <time>2022-01-23T09:24:48.000Z</time>
      </trkpt>
      <trkpt lat="43.16565" lon="2.35679">
        <ele>197.1</ele>
        <time>2022-01-23T09:24:49.000Z</time>
      </trkpt>
      <trkpt lat="43.16568" lon="2.35679">
        <ele>197.3</ele>
        <time>2022-01-23T09:24:50.000Z</time>
      </trkpt>
      <trkpt lat="43.1657" lon="2.3568">
        <ele>197.5</ele>
        <time>2022-01-23T09:24:51.000Z</time>
      </trkpt>
      <trkpt lat="43.16572" lon="2.3568">
        <ele>197.7</ele>
        <time>2022-01-23T09:24:52.000Z</time>
      </trkpt>
      <trkpt lat="43.16573" lon="2.35681">
        <ele>197.8</ele>
        <time>2022-01-23T09:24:53.000Z</time>
      </trkpt>
      <trkpt lat="43.16575" lon="2.35681">
        <ele>198</ele>
        <time>2022-01-23T09:24:54.000Z</time>
      </trkpt>
      <trkpt lat="43.16577" lon="2.35681">
        <ele>198.2</ele>
        <time>2022-01-23T09:24:55.000Z</time>
      </trkpt>
      <trkpt lat="43.16579" lon="2.35681">
        <ele>198.4</ele>
        <time>2022-01-23T09:24:56.000Z</time>
      </trkpt>
      <trkpt lat="43.16581" lon="2.35681">
        <ele>198.5</ele>
        <time>2022-01-23T09:24:57.000Z</time>
      </trkpt>
      <trkpt lat="43.16583" lon="2.35681">
        <ele>198.6</ele>
        <time>2022-01-23T09:24:58.000Z</time>
      </trkpt>
      <trkpt lat="43.16584" lon="2.35681">
        <ele>198.8</ele>
        <time>2022-01-23T09:24:59.000Z</time>
      </trkpt>
      <trkpt lat="43.16586" lon="2.3568">
        <ele>199</ele>
        <time>2022-01-23T09:25:00.000Z</time>
      </trkpt>
      <trkpt lat="43.16587" lon="2.35679">
        <ele>199.2</ele>
        <time>2022-01-23T09:25:01.000Z</time>
      </trkpt>
      <trkpt lat="43.16588" lon="2.35677">
        <ele>199.2</ele>
        <time>2022-01-23T09:25:02.000Z</time>
      </trkpt>
      <trkpt lat="43.16588" lon="2.35675">
        <ele>199.2</ele>
        <time>2022-01-23T09:25:03.000Z</time>
      </trkpt>
      <trkpt lat="43.16589" lon="2.35673">
        <ele>199.2</ele>
        <time>2022-01-23T09:25:04.000Z</time>
      </trkpt>
      <trkpt lat="43.16589" lon="2.3567">
        <ele>199</ele>
        <time>2022-01-23T09:25:05.000Z</time>
      </trkpt>
      <trkpt lat="43.16588" lon="2.35667">
        <ele>198.8</ele>
        <time>2022-01-23T09:25:06.000Z</time>
      </trkpt>
      <trkpt lat="43.16588" lon="2.35663">
        <ele>198.6</ele>
        <time>2022-01-23T09:25:07.000Z</time>
      </trkpt>
      <trkpt lat="43.16588" lon="2.3566">
        <ele>198.3</ele>
        <time>2022-01-23T09:25:08.000Z</time>
      </trkpt>
      <trkpt lat="43.16588" lon="2.35656">
        <ele>198.1</ele>
        <time>2022-01-23T09:25:09.000Z</time>
      </trkpt>
      <trkpt lat="43.16588" lon="2.35653">
        <ele>197.9</ele>
        <time>2022-01-23T09:25:10.000Z</time>
      </trkpt>
      <trkpt lat="43.16588" lon="2.3565">
        <ele>197.7</ele>
        <time>2022-01-23T09:25:11.000Z</time>
      </trkpt>
      <trkpt lat="43.16589" lon="2.35647">
        <ele>197.6</ele>
        <time>2022-01-23T09:25:12.000Z</time>
      </trkpt>
      <trkpt lat="43.16589" lon="2.35644">
        <ele>197.6</ele>
        <time>2022-01-23T09:25:13.000Z</time>
      </trkpt>
      <trkpt lat="43.1659" lon="2.35642">
        <ele>197.6</ele>
        <time>2022-01-23T09:25:14.000Z</time>
      </trkpt>
      <trkpt lat="43.16591" lon="2.3564">
        <ele>197.7</ele>
        <time>2022-01-23T09:25:15.000Z</time>
      </trkpt>
      <trkpt lat="43.16592" lon="2.35639">
        <ele>197.8</ele>
        <time>2022-01-23T09:25:16.000Z</time>
      </trkpt>
      <trkpt lat="43.16593" lon="2.35638">
        <ele>197.9</ele>
        <time>2022-01-23T09:25:17.000Z</time>
      </trkpt>
      <trkpt lat="43.16594" lon="2.35638">
        <ele>198.1</ele>
        <time>2022-01-23T09:25:18.000Z</time>
      </trkpt>
      <trkpt lat="43.16595" lon="2.35638">
        <ele>198.2</ele>
        <time>2022-01-23T09:25:19.000Z</time>
      </trkpt>
      <trkpt lat="43.16596" lon="2.35639">
        <ele>198.4</ele>
        <time>2022-01-23T09:25:20.000Z</time>
      </trkpt>
      <trkpt lat="43.16596" lon="2.3564">
        <ele>198.5</ele>
        <time>2022-01-23T09:25:21.000Z</time>
      </trkpt>
      <trkpt lat="43.16597" lon="2.35641">
        <ele>198.7</ele>
        <time>2022-01-23T09:25:22.000Z</time>
      </trkpt>
      <trkpt lat="43.16597" lon="2.35643">
        <ele>198.8</ele>
        <time>2022-01-23T09:25:23.000Z</time>
      </trkpt>
      <trkpt lat="43.16597" lon="2.35644">
        <ele>198.9</ele>
        <time>2022-01-23T09:25:24.000Z</time>
      </trkpt>
      <trkpt lat="43.16597" lon="2.35646">
        <ele>199.1</ele>
        <time>2022-01-23T09:25:25.000Z</time>
      </trkpt>
      <trkpt lat="43.16597" lon="2.35648">
        <ele>199.2</ele>
        <time>2022-01-23T09:25:26.000Z</time>
      </trkpt>
      <trkpt lat="43.16597" lon="2.35651">
        <ele>199.3</ele>
        <time>2022-01-23T09:25:27.000Z</time>
      </trkpt>
      <trkpt lat="43.16597" lon="2.35653">
        <ele>199.4</ele>
        <time>2022-01-23T09:25:28.000Z</time>
      </trkpt>
      <trkpt lat="43.16597" lon="2.35655">
        <ele>199.5</ele>
        <time>2022-01-23T09:25:29.000Z</time>
      </trkpt>
      <trkpt lat="43.16596" lon="2.35658">
        <ele>199.6</ele>
        <time>2022-01-23T09:25:30.000Z</time>
      </trkpt>
      <trkpt lat="43.16596" lon="2.3566">
        <ele>199.7</ele>
        <time>2022-01-23T09:25:31.000Z</time>
      </trkpt>
      <trkpt lat="43.16596" lon="2.35662">
        <ele>199.9</ele>
        <time>2022-01-23T09:25:32.000Z</time>
      </trkpt>
      <trkpt lat="43.16596" lon="2.35665">
        <ele>200</ele>
        <time>2022-01-23T09:25:33.000Z</time>
      </trkpt>
      <trkpt lat="43.16596" lon="2.35667">
        <ele>200.2</ele>
        <time>2022-01-23T09:25:34.000Z</time>
      </trkpt>
      <trkpt lat="43.16597" lon="2.3567">
        <ele>200.4</ele>
        <time>2022-01-23T09:25:35.000Z</time>
      </trkpt>
      <trkpt lat="43.16597" lon="2.35672">
        <ele>200.6</ele>
        <time>2022-01-23T09:25:36.000Z</time>
      </trkpt>
      <trkpt lat="43.16598" lon="2.35674">
        <ele>200.8</ele>
        <time>2022-01-23T09:25:37.000Z</time>
      </trkpt>
      <trkpt lat="43.16599" lon="2.35676">
        <ele>201.1</ele>
        <time>2022-01-23T09:25:38.000Z</time>
      </trkpt>
      <trkpt lat="43.166" lon="2.35677">
        <ele>201.3</ele>
        <time>2022-01-23T09:25:39.000Z</time>
      </trkpt>
      <trkpt lat="43.16602" lon="2.35678">
        <ele>201.6</ele>
        <time>2022-01-23T09:25:40.000Z</time>
      </trkpt>
      <trkpt lat="43.16603" lon="2.3568">
        <ele>201.9</ele>
        <time>2022-01-23T09:25:41.000Z</time>
      </trkpt>
      <trkpt lat="43.16604" lon="2.35682">
        <ele>202.1</ele>
        <time>2022-01-23T09:25:42.000Z</time>
      </trkpt>
      <trkpt lat="43.16605" lon="2.35684">
        <ele>202.4</ele>
        <time>2022-01-23T09:25:43.000Z</time>
      </trkpt>
      <trkpt lat="43.16605" lon="2.35686">
        <ele>202.6</ele>
        <time>2022-01-23T09:25:44.000Z</time>
      </trkpt>
      <trkpt lat="43.16607" lon="2.35689">
        <ele>202.9</ele>
        <time>2022-01-23T09:25:45.000Z</time>
      </trkpt>
      <trkpt lat="43.16608" lon="2.35691">
        <ele>203.2</ele>
        <time>2022-01-23T09:25:46.000Z</time>
      </trkpt>
      <trkpt lat="43.16609" lon="2.35692">
        <ele>203.5</ele>
        <time>2022-01-23T09:25:47.000Z</time>
      </trkpt>
      <trkpt lat="43.1661" lon="2.35694">
        <ele>203.9</ele>
        <time>2022-01-23T09:25:48.000Z</time>
      </trkpt>
      <trkpt lat="43.16612" lon="2.35696">
        <ele>204.2</ele>
        <time>2022-01-23T09:25:49.000Z</time>
      </trkpt>
      <trkpt lat="43.16614" lon="2.35697">
        <ele>204.5</ele>
        <time>2022-01-23T09:25:50.000Z</time>
      </trkpt>
      <trkpt lat="43.16615" lon="2.35698">
        <ele>204.8</ele>
        <time>2022-01-23T09:25:51.000Z</time>
      </trkpt>
      <trkpt lat="43.16616" lon="2.357">
        <ele>205.1</ele>
        <time>2022-01-23T09:25:52.000Z</time>
      </trkpt>
      <trkpt lat="43.16618" lon="2.35701">
        <ele>205.4</ele>
        <time>2022-01-23T09:25:53.000Z</time>
      </trkpt>
      <trkpt lat="43.16619" lon="2.35703">
        <ele>205.7</ele>
        <time>2022-01-23T09:25:54.000Z</time>
      </trkpt>
      <trkpt lat="43.1662" lon="2.35705">
        <ele>205.9</ele>
        <time>2022-01-23T09:25:55.000Z</time>
      </trkpt>
      <trkpt lat="43.1662" lon="2.35707">
        <ele>206.2</ele>
        <time>2022-01-23T09:25:56.000Z</time>
      </trkpt>
      <trkpt lat="43.16621" lon="2.35709">
        <ele>206.3</ele>
        <time>2022-01-23T09:25:57.000Z</time>
      </trkpt>
      <trkpt lat="43.16621" lon="2.35712">
        <ele>206.5</ele>
        <time>2022-01-23T09:25:58.000Z</time>
      </trkpt>
      <trkpt lat="43.16621" lon="2.35714">
        <ele>206.6</ele>
        <time>2022-01-23T09:25:59.000Z</time>
      </trkpt>
      <trkpt lat="43.16621" lon="2.35717">
        <ele>206.7</ele>
        <time>2022-01-23T09:26:00.000Z</time>
      </trkpt>
      <trkpt lat="43.16621" lon="2.35719">
        <ele>206.8</ele>
        <time>2022-01-23T09:26:01.000Z</time>
      </trkpt>
      <trkpt lat="43.1662" lon="2.35721">
        <ele>206.8</ele>
        <time>2022-01-23T09:26:02.000Z</time>
      </trkpt>
      <trkpt lat="43.16619" lon="2.35724">
        <ele>206.8</ele>
        <time>2022-01-23T09:26:03.000Z</time>
      </trkpt>
      <trkpt lat="43.16619" lon="2.35726">
        <ele>206.8</ele>
        <time>2022-01-23T09:26:04.000Z</time>
      </trkpt>
      <trkpt lat="43.16618" lon="2.35728">
        <ele>206.7</ele>
        <time>2022-01-23T09:26:05.000Z</time>
      </trkpt>
      <trkpt lat="43.16617" lon="2.3573">
        <ele>206.6</ele>
        <time>2022-01-23T09:26:06.000Z</time>
      </trkpt>
      <trkpt lat="43.16616" lon="2.35732">
        <ele>206.6</ele>
        <time>2022-01-23T09:26:07.000Z</time>
      </trkpt>
      <trkpt lat="43.16615" lon="2.35734">
        <ele>206.5</ele>
        <time>2022-01-23T09:26:08.000Z</time>
      </trkpt>
      <trkpt lat="43.16614" lon="2.35736">
        <ele>206.4</ele>
        <time>2022-01-23T09:26:09.000Z</time>
      </trkpt>
      <trkpt lat="43.16613" lon="2.35738">
        <ele>206.4</ele>
        <time>2022-01-23T09:26:10.000Z</time>
      </trkpt>
      <trkpt lat="43.16612" lon="2.3574">
        <ele>206.3</ele>
        <time>2022-01-23T09:26:11.000Z</time>
      </trkpt>
      <trkpt lat="43.16611" lon="2.35743">
        <ele>206.3</ele>
        <time>2022-01-23T09:26:12.000Z</time>
      </trkpt>
      <trkpt lat="43.16611" lon="2.35745">
        <ele>206.4</ele>
        <time>2022-01-23T09:26:13.000Z</time>
      </trkpt>
      <trkpt lat="43.16611" lon="2.35747">
        <ele>206.5</ele>
        <time>2022-01-23T09:26:14.000Z</time>
      </trkpt>
      <trkpt lat="43.16611" lon="2.3575">
        <ele>206.6</ele>
        <time>2022-01-23T09:26:15.000Z</time>
      </trkpt>
      <trkpt lat="43.16611" lon="2.35752">
        <ele>206.7</ele>
        <time>2022-01-23T09:26:16.000Z</time>
      </trkpt>
      <trkpt lat="43.16611" lon="2.35755">
        <ele>206.9</ele>
        <time>2022-01-23T09:26:17.000Z</time>
      </trkpt>
      <trkpt lat="43.16611" lon="2.35757">
        <ele>207.1</ele>
        <time>2022-01-23T09:26:18.000Z</time>
      </trkpt>
      <trkpt lat="43.16612" lon="2.35759">
        <ele>207.3</ele>
        <time>2022-01-23T09:26:19.000Z</time>
      </trkpt>
      <trkpt lat="43.16612" lon="2.35762">
        <ele>207.5</ele>
        <time>2022-01-23T09:26:20.000Z</time>
      </trkpt>
      <trkpt lat="43.16613" lon="2.35763">
        <ele>207.7</ele>
        <time>2022-01-23T09:26:21.000Z</time>
      </trkpt>
      <trkpt lat="43.16614" lon="2.35765">
        <ele>207.9</ele>
        <time>2022-01-23T09:26:22.000Z</time>
      </trkpt>
      <trkpt lat="43.16615" lon="2.35767">
        <ele>208.1</ele>
        <time>2022-01-23T09:26:23.000Z</time>
      </trkpt>
      <trkpt lat="43.16616" lon="2.35768">
        <ele>208.3</ele>
        <time>2022-01-23T09:26:24.000Z</time>
      </trkpt>
      <trkpt lat="43.16617" lon="2.35769">
        <ele>208.6</ele>
        <time>2022-01-23T09:26:25.000Z</time>
      </trkpt>
      <trkpt lat="43.16618" lon="2.3577">
        <ele>208.8</ele>
        <time>2022-01-23T09:26:26.000Z</time>
      </trkpt>
      <trkpt lat="43.16619" lon="2.35771">
        <ele>209</ele>
        <time>2022-01-23T09:26:27.000Z</time>
      </trkpt>
      <trkpt lat="43.1662" lon="2.35772">
        <ele>209.2</ele>
        <time>2022-01-23T09:26:28.000Z</time>
      </trkpt>
      <trkpt lat="43.16621" lon="2.35772">
        <ele>209.5</ele>
        <time>2022-01-23T09:26:29.000Z</time>
      </trkpt>
      <trkpt lat="43.16623" lon="2.35773">
        <ele>209.7</ele>
        <time>2022-01-23T09:26:30.000Z</time>
      </trkpt>
      <trkpt lat="43.16624" lon="2.35773">
        <ele>210</ele>
        <time>2022-01-23T09:26:31.000Z</time>
      </trkpt>
      <trkpt lat="43.16625" lon="2.35774">
        <ele>210.2</ele>
        <time>2022-01-23T09:26:32.000Z</time>
      </trkpt>
      <trkpt lat="43.16627" lon="2.35774">
        <ele>210.4</ele>
        <time>2022-01-23T09:26:33.000Z</time>
      </trkpt>
      <trkpt lat="43.16628" lon="2.35775">
        <ele>210.7</ele>
        <time>2022-01-23T09:26:34.000Z</time>
      </trkpt>
      <trkpt lat="43.16629" lon="2.35776">
        <ele>210.9</ele>
        <time>2022-01-23T09:26:35.000Z</time>
      </trkpt>
      <trkpt lat="43.16631" lon="2.35777">
        <ele>211.2</ele>
        <time>2022-01-23T09:26:36.000Z</time>
      </trkpt>
      <trkpt lat="43.16632" lon="2.35778">
        <ele>211.4</ele>
        <time>2022-01-23T09:26:37.000Z</time>
      </trkpt>
      <trkpt lat="43.16633" lon="2.35779">
        <ele>211.7</ele>
        <time>2022-01-23T09:26:38.000Z</time>
      </trkpt>
      <trkpt lat="43.16634" lon="2.35781">
        <ele>211.9</ele>
        <time>2022-01-23T09:26:39.000Z</time>
      </trkpt>
      <trkpt lat="43.16635" lon="2.35783">
        <ele>212.2</ele>
        <time>2022-01-23T09:26:40.000Z</time>
      </trkpt>
      <trkpt lat="43.16636" lon="2.35786">
        <ele>212.4</ele>
        <time>2022-01-23T09:26:41.000Z</time>
      </trkpt>
      <trkpt lat="43.16637" lon="2.35788">
        <ele>212.6</ele>
        <time>2022-01-23T09:26:42.000Z</time>
      </trkpt>
      <trkpt lat="43.16637" lon="2.35791">
        <ele>212.8</ele>
        <time>2022-01-23T09:26:43.000Z</time>
      </trkpt>
      <trkpt lat="43.16637" lon="2.35793">
        <ele>213</ele>
        <time>2022-01-23T09:26:44.000Z</time>
      </trkpt>
      <trkpt lat="43.16638" lon="2.35795">
        <ele>213.1</ele>
        <time>2022-01-23T09:26:45.000Z</time>
      </trkpt>
      <trkpt lat="43.16638" lon="2.35797">
        <ele>213.2</ele>
        <time>2022-01-23T09:26:46.000Z</time>
      </trkpt>
      <trkpt lat="43.16638" lon="2.35799">
        <ele>213.3</ele>
        <time>2022-01-23T09:26:47.000Z</time>
      </trkpt>
      <trkpt lat="43.16638" lon="2.35801">
        <ele>213.4</ele>
        <time>2022-01-23T09:26:48.000Z</time>
      </trkpt>
      <trkpt lat="43.16638" lon="2.35803">
        <ele>213.4</ele>
        <time>2022-01-23T09:26:49.000Z</time>
      </trkpt>
      <trkpt lat="43.16637" lon="2.35804">
        <ele>213.5</ele>
        <time>2022-01-23T09:26:50.000Z</time>
      </trkpt>
      <trkpt lat="43.16637" lon="2.35806">
        <ele>213.5</ele>
        <time>2022-01-23T09:26:51.000Z</time>
      </trkpt>
      <trkpt lat="43.16637" lon="2.35808">
        <ele>213.5</ele>
        <time>2022-01-23T09:26:52.000Z</time>
      </trkpt>
      <trkpt lat="43.16637" lon="2.35809">
        <ele>213.6</ele>
        <time>2022-01-23T09:26:53.000Z</time>
      </trkpt>
      <trkpt lat="43.16637" lon="2.35811">
        <ele>213.7</ele>
        <time>2022-01-23T09:26:54.000Z</time>
      </trkpt>
      <trkpt lat="43.16637" lon="2.35813">
        <ele>213.8</ele>
        <time>2022-01-23T09:26:55.000Z</time>
      </trkpt>
      <trkpt lat="43.16637" lon="2.35816">
        <ele>214</ele>
        <time>2022-01-23T09:26:56.000Z</time>
      </trkpt>
      <trkpt lat="43.16638" lon="2.35818">
        <ele>214.2</ele>
        <time>2022-01-23T09:26:57.000Z</time>
      </trkpt>
      <trkpt lat="43.16638" lon="2.3582">
        <ele>214.3</ele>
        <time>2022-01-23T09:26:58.000Z</time>
      </trkpt>
      <trkpt lat="43.16639" lon="2.35823">
        <ele>214.5</ele>
        <time>2022-01-23T09:26:59.000Z</time>
      </trkpt>
      <trkpt lat="43.1664" lon="2.35825">
        <ele>214.8</ele>
        <time>2022-01-23T09:27:00.000Z</time>
      </trkpt>
      <trkpt lat="43.16641" lon="2.35828">
        <ele>215</ele>
        <time>2022-01-23T09:27:01.000Z</time>
      </trkpt>
      <trkpt lat="43.16641" lon="2.3583">
        <ele>215.2</ele>
        <time>2022-01-23T09:27:02.000Z</time>
      </trkpt>
      <trkpt lat="43.16642" lon="2.35832">
        <ele>215.4</ele>
        <time>2022-01-23T09:27:03.000Z</time>
      </trkpt>
      <trkpt lat="43.16643" lon="2.35834">
        <ele>215.6</ele>
        <time>2022-01-23T09:27:04.000Z</time>
      </trkpt>
      <trkpt lat="43.16643" lon="2.35836">
        <ele>215.7</ele>
        <time>2022-01-23T09:27:05.000Z</time>
      </trkpt>
      <trkpt lat="43.16644" lon="2.35837">
        <ele>215.8</ele>
        <time>2022-01-23T09:27:06.000Z</time>
      </trkpt>
      <trkpt lat="43.16645" lon="2.35839">
        <ele>215.9</ele>
        <time>2022-01-23T09:27:07.000Z</time>
      </trkpt>
      <trkpt lat="43.16645" lon="2.3584">
        <ele>216</ele>
        <time>2022-01-23T09:27:08.000Z</time>
      </trkpt>
      <trkpt lat="43.16646" lon="2.35841">
        <ele>216</ele>
        <time>2022-01-23T09:27:09.000Z</time>
      </trkpt>
      <trkpt lat="43.16646" lon="2.35842">
        <ele>216.1</ele>
        <time>2022-01-23T09:27:10.000Z</time>
      </trkpt>
      <trkpt lat="43.16646" lon="2.35843">
        <ele>216.2</ele>
        <time>2022-01-23T09:27:11.000Z</time>
      </trkpt>
      <trkpt lat="43.16646" lon="2.35843">
        <ele>216.2</ele>
        <time>2022-01-23T09:27:12.000Z</time>
      </trkpt>
      <trkpt lat="43.16647" lon="2.35843">
        <ele>216.2</ele>
        <time>2022-01-23T09:27:13.000Z</time>
      </trkpt>
      <trkpt lat="43.16647" lon="2.35844">
        <ele>216.2</ele>
        <time>2022-01-23T09:27:14.000Z</time>
      </trkpt>
      <trkpt lat="43.16647" lon="2.35844">
        <ele>216.2</ele>
        <time>2022-01-23T09:27:15.000Z</time>
      </trkpt>
      <trkpt lat="43.16647" lon="2.35844">
        <ele>216.2</ele>
        <time>2022-01-23T09:27:16.000Z</time>
      </trkpt>
      <trkpt lat="43.16647" lon="2.35844">
        <ele>216.2</ele>
        <time>2022-01-23T09:27:17.000Z</time>
      </trkpt>
      <trkpt lat="43.16647" lon="2.35844">
        <ele>216.2</ele>
        <time>2022-01-23T09:27:18.000Z</time>
      </trkpt>
      <trkpt lat="43.16647" lon="2.35844">
        <ele>216.2</ele>
        <time>2022-01-23T09:27:19.000Z</time>
      </trkpt>
      <trkpt lat="43.16647" lon="2.35844">
        <ele>216.2</ele>
        <time>2022-01-23T09:27:20.000Z</time>
      </trkpt>
      <trkpt lat="43.16647" lon="2.35844">
        <ele>216.3</ele>
        <time>2022-01-23T09:27:21.000Z</time>
      </trkpt>
      <trkpt lat="43.16647" lon="2.35844">
        <ele>216.3</ele>
        <time>2022-01-23T09:27:22.000Z</time>
      </trkpt>
      <trkpt lat="43.16647" lon="2.35845">
        <ele>216.3</ele>
        <time>2022-01-23T09:27:23.000Z</time>
      </trkpt>
      <trkpt lat="43.16647" lon="2.35845">
        <ele>216.4</ele>
        <time>2022-01-23T09:27:24.000Z</time>
      </trkpt>
      <trkpt lat="43.16648" lon="2.35846">
        <ele>216.4</ele>
        <time>2022-01-23T09:27:25.000Z</time>
      </trkpt>
      <trkpt lat="43.16648" lon="2.35846">
        <ele>216.4</ele>
        <time>2022-01-23T09:27:26.000Z</time>
      </trkpt>
      <trkpt lat="43.16648" lon="2.35847">
        <ele>216.5</ele>
        <time>2022-01-23T09:27:27.000Z</time>
      </trkpt>
      <trkpt lat="43.16649" lon="2.35847">
        <ele>216.5</ele>
        <time>2022-01-23T09:27:28.000Z</time>
      </trkpt>
      <trkpt lat="43.16649" lon="2.35848">
        <ele>216.6</ele>
        <time>2022-01-23T09:27:29.000Z</time>
      </trkpt>
      <trkpt lat="43.16649" lon="2.35848">
        <ele>216.6</ele>
        <time>2022-01-23T09:27:30.000Z</time>
      </trkpt>
      <trkpt lat="43.16649" lon="2.35848">
        <ele>216.6</ele>
        <time>2022-01-23T09:27:31.000Z</time>
      </trkpt>
      <trkpt lat="43.16649" lon="2.35849">
        <ele>216.7</ele>
        <time>2022-01-23T09:27:32.000Z</time>
      </trkpt>
      <trkpt lat="43.16649" lon="2.35849">
        <ele>216.7</ele>
        <time>2022-01-23T09:27:33.000Z</time>
      </trkpt>
      <trkpt lat="43.16649" lon="2.35849">
        <ele>216.7</ele>
        <time>2022-01-23T09:27:34.000Z</time>
      </trkpt>
      <trkpt lat="43.1665" lon="2.35849">
        <ele>216.7</ele>
        <time>2022-01-23T09:27:35.000Z</time>
      </trkpt>
      <trkpt lat="43.1665" lon="2.35849">
        <ele>216.7</ele>
        <time>2022-01-23T09:27:36.000Z</time>
      </trkpt>
      <trkpt lat="43.1665" lon="2.35849">
        <ele>216.7</ele>
        <time>2022-01-23T09:27:37.000Z</time>
      </trkpt>
      <trkpt lat="43.1665" lon="2.35849">
        <ele>216.7</ele>
        <time>2022-01-23T09:27:38.000Z</time>
      </trkpt>
      <trkpt lat="43.1665" lon="2.35849">
        <ele>216.7</ele>
        <time>2022-01-23T09:27:39.000Z</time>
      </trkpt>
      <trkpt lat="43.1665" lon="2.35849">
        <ele>216.7</ele>
        <time>2022-01-23T09:27:40.000Z</time>
      </trkpt>
      <trkpt lat="43.1665" lon="2.35849">
        <ele>216.7</ele>
        <time>2022-01-23T09:27:41.000Z</time>
      </trkpt>
      <trkpt lat="43.1665" lon="2.35849">
        <ele>216.7</ele>
        <time>2022-01-23T09:27:42.000Z</time>
      </trkpt>
      <trkpt lat="43.1665" lon="2.35849">
        <ele>216.7</ele>
        <time>2022-01-23T09:27:43.000Z</time>
      </trkpt>
      <trkpt lat="43.1665" lon="2.35849">
        <ele>216.7</ele>
        <time>2022-01-23T09:27:44.000Z</time>
      </trkpt>
      <trkpt lat="43.1665" lon="2.35849">
        <ele>216.7</ele>
        <time>2022-01-23T09:27:45.000Z</time>
      </trkpt>
      <trkpt lat="43.1665" lon="2.35849">
        <ele>216.7</ele>
        <time>2022-01-23T09:27:46.000Z</time>
      </trkpt>
      <trkpt lat="43.1665" lon="2.35849">
        <ele>216.7</ele>
        <time>2022-01-23T09:27:47.000Z</time>
      </trkpt>
      <trkpt lat="43.1665" lon="2.35849">
        <ele>216.7</ele>
        <time>2022-01-23T09:27:48.000Z</time>
      </trkpt>
      <trkpt lat="43.1665" lon="2.35849">
        <ele>216.7</ele>
        <time>2022-01-23T09:27:49.000Z</time>
      </trkpt>
      <trkpt lat="43.1665" lon="2.35849">
        <ele>216.7</ele>
        <time>2022-01-23T09:27:50.000Z</time>
      </trkpt>
      <trkpt lat="43.16649" lon="2.35849">
        <ele>216.7</ele>
        <time>2022-01-23T09:27:51.000Z</time>
      </trkpt>
      <trkpt lat="43.16649" lon="2.35849">
        <ele>216.7</ele>
        <time>2022-01-23T09:27:52.000Z</time>
      </trkpt>
      <trkpt lat="43.16649" lon="2.35849">
        <ele>216.6</ele>
        <time>2022-01-23T09:27:53.000Z</time>
      </trkpt>
      <trkpt lat="43.16649" lon="2.35848">
        <ele>216.6</ele>
        <time>2022-01-23T09:27:54.000Z</time>
      </trkpt>
      <trkpt lat="43.16649" lon="2.35848">
        <ele>216.6</ele>
        <time>2022-01-23T09:27:55.000Z</time>
      </trkpt>
      <trkpt lat="43.16649" lon="2.35848">
        <ele>216.5</ele>
        <time>2022-01-23T09:27:56.000Z</time>
      </trkpt>
      <trkpt lat="43.16648" lon="2.35848">
        <ele>216.5</ele>
        <time>2022-01-23T09:27:57.000Z</time>
      </trkpt>
      <trkpt lat="43.16648" lon="2.35847">
        <ele>216.5</ele>
        <time>2022-01-23T09:27:58.000Z</time>
      </trkpt>
      <trkpt lat="43.16648" lon="2.35847">
        <ele>216.4</ele>
        <time>2022-01-23T09:27:59.000Z</time>
      </trkpt>
      <trkpt lat="43.16647" lon="2.35846">
        <ele>216.4</ele>
        <time>2022-01-23T09:28:00.000Z</time>
      </trkpt>
      <trkpt lat="43.16647" lon="2.35846">
        <ele>216.3</ele>
        <time>2022-01-23T09:28:01.000Z</time>
      </trkpt>
      <trkpt lat="43.16647" lon="2.35846">
        <ele>216.3</ele>
        <time>2022-01-23T09:28:02.000Z</time>
      </trkpt>
      <trkpt lat="43.16647" lon="2.35846">
        <ele>216.3</ele>
        <time>2022-01-23T09:28:03.000Z</time>
      </trkpt>
      <trkpt lat="43.16647" lon="2.35846">
        <ele>216.3</ele>
        <time>2022-01-23T09:28:04.000Z</time>
      </trkpt>
      <trkpt lat="43.16647" lon="2.35847">
        <ele>216.4</ele>
        <time>2022-01-23T09:28:05.000Z</time>
      </trkpt>
      <trkpt lat="43.16648" lon="2.35847">
        <ele>216.4</ele>
        <time>2022-01-23T09:28:06.000Z</time>
      </trkpt>
      <trkpt lat="43.16648" lon="2.35848">
        <ele>216.4</ele>
        <time>2022-01-23T09:28:07.000Z</time>
      </trkpt>
      <trkpt lat="43.16648" lon="2.35848">
        <ele>216.5</ele>
        <time>2022-01-23T09:28:08.000Z</time>
      </trkpt>
      <trkpt lat="43.16648" lon="2.35848">
        <ele>216.5</ele>
        <time>2022-01-23T09:28:09.000Z</time>
      </trkpt>
      <trkpt lat="43.16648" lon="2.35849">
        <ele>216.5</ele>
        <time>2022-01-23T09:28:10.000Z</time>
      </trkpt>
      <trkpt lat="43.16648" lon="2.35849">
        <ele>216.5</ele>
        <time>2022-01-23T09:28:11.000Z</time>
      </trkpt>
      <trkpt lat="43.16648" lon="2.35849">
        <ele>216.5</ele>
        <time>2022-01-23T09:28:12.000Z</time>
      </trkpt>
      <trkpt lat="43.16648" lon="2.35849">
        <ele>216.4</ele>
        <time>2022-01-23T09:28:13.000Z</time>
      </trkpt>
      <trkpt lat="43.16647" lon="2.35849">
        <ele>216.4</ele>
        <time>2022-01-23T09:28:14.000Z</time>
      </trkpt>
      <trkpt lat="43.16647" lon="2.35849">
        <ele>216.3</ele>
        <time>2022-01-23T09:28:15.000Z</time>
      </trkpt>
      <trkpt lat="43.16646" lon="2.35848">
        <ele>216.2</ele>
        <time>2022-01-23T09:28:16.000Z</time>
      </trkpt>
      <trkpt lat="43.16646" lon="2.35847">
        <ele>216.2</ele>
        <time>2022-01-23T09:28:17.000Z</time>
      </trkpt>
      <trkpt lat="43.16646" lon="2.35846">
        <ele>216.1</ele>
        <time>2022-01-23T09:28:18.000Z</time>
      </trkpt>
      <trkpt lat="43.16646" lon="2.35845">
        <ele>216.1</ele>
        <time>2022-01-23T09:28:19.000Z</time>
      </trkpt>
      <trkpt lat="43.16646" lon="2.35843">
        <ele>216.1</ele>
        <time>2022-01-23T09:28:20.000Z</time>
      </trkpt>
      <trkpt lat="43.16645" lon="2.35842">
        <ele>216</ele>
        <time>2022-01-23T09:28:21.000Z</time>
      </trkpt>
      <trkpt lat="43.16645" lon="2.3584">
        <ele>215.9</ele>
        <time>2022-01-23T09:28:22.000Z</time>
      </trkpt>
      <trkpt lat="43.16644" lon="2.35839">
        <ele>215.8</ele>
        <time>2022-01-23T09:28:23.000Z</time>
      </trkpt>
      <trkpt lat="43.16643" lon="2.35837">
        <ele>215.6</ele>
        <time>2022-01-23T09:28:24.000Z</time>
      </trkpt>
      <trkpt lat="43.16642" lon="2.35837">
        <ele>215.5</ele>
        <time>2022-01-23T09:28:25.000Z</time>
      </trkpt>
      <trkpt lat="43.16642" lon="2.35836">
        <ele>215.5</ele>
        <time>2022-01-23T09:28:26.000Z</time>
      </trkpt>
      <trkpt lat="43.16643" lon="2.35836">
        <ele>215.6</ele>
        <time>2022-01-23T09:28:27.000Z</time>
      </trkpt>
      <trkpt lat="43.16644" lon="2.35837">
        <ele>215.8</ele>
        <time>2022-01-23T09:28:28.000Z</time>
      </trkpt>
      <trkpt lat="43.16645" lon="2.35838">
        <ele>216</ele>
        <time>2022-01-23T09:28:29.000Z</time>
      </trkpt>
      <trkpt lat="43.16646" lon="2.3584">
        <ele>216.1</ele>
        <time>2022-01-23T09:28:30.000Z</time>
      </trkpt>
      <trkpt lat="43.16647" lon="2.35841">
        <ele>216.3</ele>
        <time>2022-01-23T09:28:31.000Z</time>
      </trkpt>
      <trkpt lat="43.16648" lon="2.35843">
        <ele>216.4</ele>
        <time>2022-01-23T09:28:32.000Z</time>
      </trkpt>
      <trkpt lat="43.16648" lon="2.35845">
        <ele>216.5</ele>
        <time>2022-01-23T09:28:33.000Z</time>
      </trkpt>
      <trkpt lat="43.16649" lon="2.35847">
        <ele>216.5</ele>
        <time>2022-01-23T09:28:34.000Z</time>
      </trkpt>
      <trkpt lat="43.16649" lon="2.35848">
        <ele>216.6</ele>
        <time>2022-01-23T09:28:35.000Z</time>
      </trkpt>
      <trkpt lat="43.16649" lon="2.3585">
        <ele>216.7</ele>
        <time>2022-01-23T09:28:36.000Z</time>
      </trkpt>
      <trkpt lat="43.1665" lon="2.35852">
        <ele>216.8</ele>
        <time>2022-01-23T09:28:37.000Z</time>
      </trkpt>
      <trkpt lat="43.16651" lon="2.35854">
        <ele>216.9</ele>
        <time>2022-01-23T09:28:38.000Z</time>
      </trkpt>
      <trkpt lat="43.16652" lon="2.35855">
        <ele>217.1</ele>
        <time>2022-01-23T09:28:39.000Z</time>
      </trkpt>
      <trkpt lat="43.16654" lon="2.35857">
        <ele>217.3</ele>
        <time>2022-01-23T09:28:40.000Z</time>
      </trkpt>
      <trkpt lat="43.16655" lon="2.35858">
        <ele>217.5</ele>
        <time>2022-01-23T09:28:41.000Z</time>
      </trkpt>
      <trkpt lat="43.16657" lon="2.3586">
        <ele>217.7</ele>
        <time>2022-01-23T09:28:42.000Z</time>
      </trkpt>
      <trkpt lat="43.16658" lon="2.35862">
        <ele>217.9</ele>
        <time>2022-01-23T09:28:43.000Z</time>
      </trkpt>
      <trkpt lat="43.16659" lon="2.35865">
        <ele>218.1</ele>
        <time>2022-01-23T09:28:44.000Z</time>
      </trkpt>
      <trkpt lat="43.1666" lon="2.35867">
        <ele>218.2</ele>
        <time>2022-01-23T09:28:45.000Z</time>
      </trkpt>
      <trkpt lat="43.16661" lon="2.3587">
        <ele>218.3</ele>
        <time>2022-01-23T09:28:46.000Z</time>
      </trkpt>
      <trkpt lat="43.16661" lon="2.35873">
        <ele>218.3</ele>
        <time>2022-01-23T09:28:47.000Z</time>
      </trkpt>
      <trkpt lat="43.16662" lon="2.35876">
        <ele>218.4</ele>
        <time>2022-01-23T09:28:48.000Z</time>
      </trkpt>
      <trkpt lat="43.16662" lon="2.35879">
        <ele>218.5</ele>
        <time>2022-01-23T09:28:49.000Z</time>
      </trkpt>
      <trkpt lat="43.16662" lon="2.35882">
        <ele>218.5</ele>
        <time>2022-01-23T09:28:50.000Z</time>
      </trkpt>
      <trkpt lat="43.16663" lon="2.35885">
        <ele>218.5</ele>
        <time>2022-01-23T09:28:51.000Z</time>
      </trkpt>
      <trkpt lat="43.16662" lon="2.35888">
        <ele>218.5</ele>
        <time>2022-01-23T09:28:52.000Z</time>
      </trkpt>
      <trkpt lat="43.16662" lon="2.35891">
        <ele>218.5</ele>
        <time>2022-01-23T09:28:53.000Z</time>
      </trkpt>
      <trkpt lat="43.16662" lon="2.35894">
        <ele>218.4</ele>
        <time>2022-01-23T09:28:54.000Z</time>
      </trkpt>
      <trkpt lat="43.16661" lon="2.35897">
        <ele>218.3</ele>
        <time>2022-01-23T09:28:55.000Z</time>
      </trkpt>
      <trkpt lat="43.16659" lon="2.35899">
        <ele>218.2</ele>
        <time>2022-01-23T09:28:56.000Z</time>
      </trkpt>
      <trkpt lat="43.16658" lon="2.35902">
        <ele>218</ele>
        <time>2022-01-23T09:28:57.000Z</time>
      </trkpt>
      <trkpt lat="43.16656" lon="2.35904">
        <ele>217.9</ele>
        <time>2022-01-23T09:28:58.000Z</time>
      </trkpt>
      <trkpt lat="43.16654" lon="2.35905">
        <ele>217.7</ele>
        <time>2022-01-23T09:28:59.000Z</time>
      </trkpt>
      <trkpt lat="43.16653" lon="2.35907">
        <ele>217.6</ele>
        <time>2022-01-23T09:29:00.000Z</time>
      </trkpt>
      <trkpt lat="43.16652" lon="2.35908">
        <ele>217.5</ele>
        <time>2022-01-23T09:29:01.000Z</time>
      </trkpt>
      <trkpt lat="43.16651" lon="2.35909">
        <ele>217.4</ele>
        <time>2022-01-23T09:29:02.000Z</time>
      </trkpt>
      <trkpt lat="43.16651" lon="2.3591">
        <ele>217.4</ele>
        <time>2022-01-23T09:29:03.000Z</time>
      </trkpt>
      <trkpt lat="43.1665" lon="2.35911">
        <ele>217.4</ele>
        <time>2022-01-23T09:29:04.000Z</time>
      </trkpt>
      <trkpt lat="43.16651" lon="2.35911">
        <ele>217.4</ele>
        <time>2022-01-23T09:29:05.000Z</time>
      </trkpt>
      <trkpt lat="43.16651" lon="2.35913">
        <ele>217.4</ele>
        <time>2022-01-23T09:29:06.000Z</time>
      </trkpt>
      <trkpt lat="43.16651" lon="2.35914">
        <ele>217.5</ele>
        <time>2022-01-23T09:29:07.000Z</time>
      </trkpt>
      <trkpt lat="43.16651" lon="2.35916">
        <ele>217.5</ele>
        <time>2022-01-23T09:29:08.000Z</time>
      </trkpt>
      <trkpt lat="43.16652" lon="2.35918">
        <ele>217.5</ele>
        <time>2022-01-23T09:29:09.000Z</time>
      </trkpt>
      <trkpt lat="43.16652" lon="2.3592">
        <ele>217.4</ele>
        <time>2022-01-23T09:29:10.000Z</time>
      </trkpt>
      <trkpt lat="43.16651" lon="2.35922">
        <ele>217.3</ele>
        <time>2022-01-23T09:29:11.000Z</time>
      </trkpt>
      <trkpt lat="43.16651" lon="2.35924">
        <ele>217.1</ele>
        <time>2022-01-23T09:29:12.000Z</time>
      </trkpt>
      <trkpt lat="43.1665" lon="2.35926">
        <ele>217</ele>
        <time>2022-01-23T09:29:13.000Z</time>
      </trkpt>
      <trkpt lat="43.1665" lon="2.35927">
        <ele>216.9</ele>
        <time>2022-01-23T09:29:14.000Z</time>
      </trkpt>
      <trkpt lat="43.16649" lon="2.35927">
        <ele>216.8</ele>
        <time>2022-01-23T09:29:15.000Z</time>
      </trkpt>
      <trkpt lat="43.16648" lon="2.35928">
        <ele>216.7</ele>
        <time>2022-01-23T09:29:16.000Z</time>
      </trkpt>
      <trkpt lat="43.16648" lon="2.35929">
        <ele>216.6</ele>
        <time>2022-01-23T09:29:17.000Z</time>
      </trkpt>
      <trkpt lat="43.16647" lon="2.35931">
        <ele>216.5</ele>
        <time>2022-01-23T09:29:18.000Z</time>
      </trkpt>
      <trkpt lat="43.16647" lon="2.35933">
        <ele>216.4</ele>
        <time>2022-01-23T09:29:19.000Z</time>
      </trkpt>
      <trkpt lat="43.16647" lon="2.35935">
        <ele>216.3</ele>
        <time>2022-01-23T09:29:20.000Z</time>
      </trkpt>
      <trkpt lat="43.16646" lon="2.35937">
        <ele>216.3</ele>
        <time>2022-01-23T09:29:21.000Z</time>
      </trkpt>
      <trkpt lat="43.16646" lon="2.35938">
        <ele>216.2</ele>
        <time>2022-01-23T09:29:22.000Z</time>
      </trkpt>
      <trkpt lat="43.16646" lon="2.3594">
        <ele>216.1</ele>
        <time>2022-01-23T09:29:23.000Z</time>
      </trkpt>
      <trkpt lat="43.16646" lon="2.35941">
        <ele>216.1</ele>
        <time>2022-01-23T09:29:24.000Z</time>
      </trkpt>
      <trkpt lat="43.16646" lon="2.35941">
        <ele>216.1</ele>
        <time>2022-01-23T09:29:25.000Z</time>
      </trkpt>
      <trkpt lat="43.16646" lon="2.35942">
        <ele>216</ele>
        <time>2022-01-23T09:29:26.000Z</time>
      </trkpt>
      <trkpt lat="43.16647" lon="2.35942">
        <ele>216</ele>
        <time>2022-01-23T09:29:27.000Z</time>
      </trkpt>
      <trkpt lat="43.16647" lon="2.35943">
        <ele>216</ele>
        <time>2022-01-23T09:29:28.000Z</time>
      </trkpt>
      <trkpt lat="43.16647" lon="2.35943">
        <ele>216.1</ele>
        <time>2022-01-23T09:29:29.000Z</time>
      </trkpt>
      <trkpt lat="43.16648" lon="2.35943">
        <ele>216.1</ele>
        <time>2022-01-23T09:29:30.000Z</time>
      </trkpt>
      <trkpt lat="43.16649" lon="2.35943">
        <ele>216.1</ele>
        <time>2022-01-23T09:29:31.000Z</time>
      </trkpt>
      <trkpt lat="43.16649" lon="2.35943">
        <ele>216.2</ele>
        <time>2022-01-23T09:29:32.000Z</time>
      </trkpt>
      <trkpt lat="43.1665" lon="2.35943">
        <ele>216.2</ele>
        <time>2022-01-23T09:29:33.000Z</time>
      </trkpt>
      <trkpt lat="43.16651" lon="2.35942">
        <ele>216.3</ele>
        <time>2022-01-23T09:29:34.000Z</time>
      </trkpt>
      <trkpt lat="43.16651" lon="2.35942">
        <ele>216.3</ele>
        <time>2022-01-23T09:29:35.000Z</time>
      </trkpt>
      <trkpt lat="43.16652" lon="2.35942">
        <ele>216.4</ele>
        <time>2022-01-23T09:29:36.000Z</time>
      </trkpt>
      <trkpt lat="43.16653" lon="2.35941">
        <ele>216.4</ele>
        <time>2022-01-23T09:29:37.000Z</time>
      </trkpt>
      <trkpt lat="43.16654" lon="2.35941">
        <ele>216.5</ele>
        <time>2022-01-23T09:29:38.000Z</time>
      </trkpt>
      <trkpt lat="43.16654" lon="2.35941">
        <ele>216.6</ele>
        <time>2022-01-23T09:29:39.000Z</time>
      </trkpt>
      <trkpt lat="43.16655" lon="2.3594">
        <ele>216.6</ele>
        <time>2022-01-23T09:29:40.000Z</time>
      </trkpt>
      <trkpt lat="43.16655" lon="2.35939">
        <ele>216.7</ele>
        <time>2022-01-23T09:29:41.000Z</time>
      </trkpt>
      <trkpt lat="43.16656" lon="2.35939">
        <ele>216.7</ele>
        <time>2022-01-23T09:29:42.000Z</time>
      </trkpt>
      <trkpt lat="43.16656" lon="2.35938">
        <ele>216.8</ele>
        <time>2022-01-23T09:29:43.000Z</time>
      </trkpt>
      <trkpt lat="43.16656" lon="2.35938">
        <ele>216.8</ele>
        <time>2022-01-23T09:29:44.000Z</time>
      </trkpt>
      <trkpt lat="43.16657" lon="2.35937">
        <ele>216.9</ele>
        <time>2022-01-23T09:29:45.000Z</time>
      </trkpt>
      <trkpt lat="43.16657" lon="2.35937">
        <ele>216.9</ele>
        <time>2022-01-23T09:29:46.000Z</time>
      </trkpt>
      <trkpt lat="43.16658" lon="2.35937">
        <ele>217</ele>
        <time>2022-01-23T09:29:47.000Z</time>
      </trkpt>
      <trkpt lat="43.16658" lon="2.35936">
        <ele>217</ele>
        <time>2022-01-23T09:29:48.000Z</time>
      </trkpt>
      <trkpt lat="43.16659" lon="2.35936">
        <ele>217.1</ele>
        <time>2022-01-23T09:29:49.000Z</time>
      </trkpt>
      <trkpt lat="43.16659" lon="2.35936">
        <ele>217.1</ele>
        <time>2022-01-23T09:29:50.000Z</time>
      </trkpt>
      <trkpt lat="43.1666" lon="2.35935">
        <ele>217.2</ele>
        <time>2022-01-23T09:29:51.000Z</time>
      </trkpt>
      <trkpt lat="43.1666" lon="2.35934">
        <ele>217.3</ele>
        <time>2022-01-23T09:29:52.000Z</time>
      </trkpt>
      <trkpt lat="43.16661" lon="2.35933">
        <ele>217.4</ele>
        <time>2022-01-23T09:29:53.000Z</time>
      </trkpt>
      <trkpt lat="43.16662" lon="2.35932">
        <ele>217.5</ele>
        <time>2022-01-23T09:29:54.000Z</time>
      </trkpt>
      <trkpt lat="43.16662" lon="2.35931">
        <ele>217.7</ele>
        <time>2022-01-23T09:29:55.000Z</time>
      </trkpt>
      <trkpt lat="43.16663" lon="2.35929">
        <ele>217.8</ele>
        <time>2022-01-23T09:29:56.000Z</time>
      </trkpt>
      <trkpt lat="43.16663" lon="2.35928">
        <ele>217.9</ele>
        <time>2022-01-23T09:29:57.000Z</time>
      </trkpt>
      <trkpt lat="43.16664" lon="2.35926">
        <ele>218.1</ele>
        <time>2022-01-23T09:29:58.000Z</time>
      </trkpt>
      <trkpt lat="43.16665" lon="2.35925">
        <ele>218.2</ele>
        <time>2022-01-23T09:29:59.000Z</time>
      </trkpt>
      <trkpt lat="43.16666" lon="2.35924">
        <ele>218.4</ele>
        <time>2022-01-23T09:30:00.000Z</time>
      </trkpt>
      <trkpt lat="43.16667" lon="2.35923">
        <ele>218.5</ele>
        <time>2022-01-23T09:30:01.000Z</time>
      </trkpt>
      <trkpt lat="43.16668" lon="2.35922">
        <ele>218.3</ele>
        <time>2022-01-23T09:30:02.000Z</time>
      </trkpt>
      <trkpt lat="43.1667" lon="2.35921">
        <ele>218.1</ele>
        <time>2022-01-23T09:30:03.000Z</time>
      </trkpt>
      <trkpt lat="43.16672" lon="2.3592">
        <ele>217.9</ele>
        <time>2022-01-23T09:30:04.000Z</time>
      </trkpt>
      <trkpt lat="43.16673" lon="2.35919">
        <ele>217.6</ele>
        <time>2022-01-23T09:30:05.000Z</time>
      </trkpt>
      <trkpt lat="43.16675" lon="2.35918">
        <ele>217.4</ele>
        <time>2022-01-23T09:30:06.000Z</time>
      </trkpt>
      <trkpt lat="43.16677" lon="2.35917">
        <ele>217.1</ele>
        <time>2022-01-23T09:30:07.000Z</time>
      </trkpt>
      <trkpt lat="43.16679" lon="2.35915">
        <ele>216.7</ele>
        <time>2022-01-23T09:30:08.000Z</time>
      </trkpt>
      <trkpt lat="43.16682" lon="2.35913">
        <ele>216.3</ele>
        <time>2022-01-23T09:30:09.000Z</time>
      </trkpt>
      <trkpt lat="43.16684" lon="2.35911">
        <ele>215.9</ele>
        <time>2022-01-23T09:30:10.000Z</time>
      </trkpt>
      <trkpt lat="43.16687" lon="2.35908">
        <ele>215.5</ele>
        <time>2022-01-23T09:30:11.000Z</time>
      </trkpt>
      <trkpt lat="43.16689" lon="2.35905">
        <ele>215.1</ele>
        <time>2022-01-23T09:30:12.000Z</time>
      </trkpt>
      <trkpt lat="43.16691" lon="2.35902">
        <ele>214.7</ele>
        <time>2022-01-23T09:30:13.000Z</time>
      </trkpt>
      <trkpt lat="43.16693" lon="2.35899">
        <ele>214.4</ele>
        <time>2022-01-23T09:30:14.000Z</time>
      </trkpt>
      <trkpt lat="43.16695" lon="2.35895">
        <ele>214.2</ele>
        <time>2022-01-23T09:30:15.000Z</time>
      </trkpt>
      <trkpt lat="43.16696" lon="2.35891">
        <ele>213.9</ele>
        <time>2022-01-23T09:30:16.000Z</time>
      </trkpt>
      <trkpt lat="43.16697" lon="2.35887">
        <ele>213.7</ele>
        <time>2022-01-23T09:30:17.000Z</time>
      </trkpt>
      <trkpt lat="43.16699" lon="2.35883">
        <ele>213.6</ele>
        <time>2022-01-23T09:30:18.000Z</time>
      </trkpt>
      <trkpt lat="43.167" lon="2.35879">
        <ele>213.4</ele>
        <time>2022-01-23T09:30:19.000Z</time>
      </trkpt>
      <trkpt lat="43.16701" lon="2.35875">
        <ele>213.3</ele>
        <time>2022-01-23T09:30:20.000Z</time>
      </trkpt>
      <trkpt lat="43.16702" lon="2.3587">
        <ele>213.2</ele>
        <time>2022-01-23T09:30:21.000Z</time>
      </trkpt>
      <trkpt lat="43.16703" lon="2.35866">
        <ele>213</ele>
        <time>2022-01-23T09:30:22.000Z</time>
      </trkpt>
      <trkpt lat="43.16704" lon="2.35862">
        <ele>212.9</ele>
        <time>2022-01-23T09:30:23.000Z</time>
      </trkpt>
      <trkpt lat="43.16705" lon="2.35858">
        <ele>212.8</ele>
        <time>2022-01-23T09:30:24.000Z</time>
      </trkpt>
      <trkpt lat="43.16706" lon="2.35853">
        <ele>212.7</ele>
        <time>2022-01-23T09:30:25.000Z</time>
      </trkpt>
      <trkpt lat="43.16707" lon="2.35849">
        <ele>212.6</ele>
        <time>2022-01-23T09:30:26.000Z</time>
      </trkpt>
      <trkpt lat="43.16708" lon="2.35845">
        <ele>212.5</ele>
        <time>2022-01-23T09:30:27.000Z</time>
      </trkpt>
      <trkpt lat="43.16708" lon="2.35841">
        <ele>212.4</ele>
        <time>2022-01-23T09:30:28.000Z</time>
      </trkpt>
      <trkpt lat="43.16709" lon="2.35838">
        <ele>212.3</ele>
        <time>2022-01-23T09:30:29.000Z</time>
      </trkpt>
      <trkpt lat="43.1671" lon="2.35834">
        <ele>212.2</ele>
        <time>2022-01-23T09:30:30.000Z</time>
      </trkpt>
      <trkpt lat="43.16711" lon="2.3583">
        <ele>212.1</ele>
        <time>2022-01-23T09:30:31.000Z</time>
      </trkpt>
      <trkpt lat="43.16712" lon="2.35827">
        <ele>211.9</ele>
        <time>2022-01-23T09:30:32.000Z</time>
      </trkpt>
      <trkpt lat="43.16713" lon="2.35824">
        <ele>211.7</ele>
        <time>2022-01-23T09:30:33.000Z</time>
      </trkpt>
      <trkpt lat="43.16713" lon="2.35821">
        <ele>211.6</ele>
        <time>2022-01-23T09:30:34.000Z</time>
      </trkpt>
      <trkpt lat="43.16714" lon="2.35818">
        <ele>211.5</ele>
        <time>2022-01-23T09:30:35.000Z</time>
      </trkpt>
      <trkpt lat="43.16714" lon="2.35815">
        <ele>211.4</ele>
        <time>2022-01-23T09:30:36.000Z</time>
      </trkpt>
      <trkpt lat="43.16715" lon="2.35813">
        <ele>211.3</ele>
        <time>2022-01-23T09:30:37.000Z</time>
      </trkpt>
      <trkpt lat="43.16715" lon="2.35811">
        <ele>211.3</ele>
        <time>2022-01-23T09:30:38.000Z</time>
      </trkpt>
      <trkpt lat="43.16715" lon="2.35809">
        <ele>211.2</ele>
        <time>2022-01-23T09:30:39.000Z</time>
      </trkpt>
      <trkpt lat="43.16715" lon="2.35807">
        <ele>211.2</ele>
        <time>2022-01-23T09:30:40.000Z</time>
      </trkpt>
      <trkpt lat="43.16715" lon="2.35806">
        <ele>211.2</ele>
        <time>2022-01-23T09:30:41.000Z</time>
      </trkpt>
      <trkpt lat="43.16715" lon="2.35804">
        <ele>211.2</ele>
        <time>2022-01-23T09:30:42.000Z</time>
      </trkpt>
      <trkpt lat="43.16715" lon="2.35803">
        <ele>211.2</ele>
        <time>2022-01-23T09:30:43.000Z</time>
      </trkpt>
      <trkpt lat="43.16716" lon="2.35801">
        <ele>211.1</ele>
        <time>2022-01-23T09:30:44.000Z</time>
      </trkpt>
      <trkpt lat="43.16716" lon="2.35799">
        <ele>211.1</ele>
        <time>2022-01-23T09:30:45.000Z</time>
      </trkpt>
      <trkpt lat="43.16717" lon="2.35797">
        <ele>210.9</ele>
        <time>2022-01-23T09:30:46.000Z</time>
      </trkpt>
      <trkpt lat="43.16718" lon="2.35795">
        <ele>210.8</ele>
        <time>2022-01-23T09:30:47.000Z</time>
      </trkpt>
      <trkpt lat="43.16719" lon="2.35792">
        <ele>210.6</ele>
        <time>2022-01-23T09:30:48.000Z</time>
      </trkpt>
      <trkpt lat="43.1672" lon="2.35789">
        <ele>210.4</ele>
        <time>2022-01-23T09:30:49.000Z</time>
      </trkpt>
      <trkpt lat="43.16722" lon="2.35786">
        <ele>210.2</ele>
        <time>2022-01-23T09:30:50.000Z</time>
      </trkpt>
      <trkpt lat="43.16723" lon="2.35783">
        <ele>210</ele>
        <time>2022-01-23T09:30:51.000Z</time>
      </trkpt>
      <trkpt lat="43.16724" lon="2.3578">
        <ele>209.8</ele>
        <time>2022-01-23T09:30:52.000Z</time>
      </trkpt>
      <trkpt lat="43.16726" lon="2.35777">
        <ele>209.7</ele>
        <time>2022-01-23T09:30:53.000Z</time>
      </trkpt>
      <trkpt lat="43.16727" lon="2.35774">
        <ele>209.5</ele>
        <time>2022-01-23T09:30:54.000Z</time>
      </trkpt>
      <trkpt lat="43.16729" lon="2.35772">
        <ele>209.3</ele>
        <time>2022-01-23T09:30:55.000Z</time>
      </trkpt>
      <trkpt lat="43.16731" lon="2.3577">
        <ele>209.1</ele>
        <time>2022-01-23T09:30:56.000Z</time>
      </trkpt>
      <trkpt lat="43.16733" lon="2.35769">
        <ele>208.9</ele>
        <time>2022-01-23T09:30:57.000Z</time>
      </trkpt>
      <trkpt lat="43.16734" lon="2.35769">
        <ele>208.7</ele>
        <time>2022-01-23T09:30:58.000Z</time>
      </trkpt>
      <trkpt lat="43.16734" lon="2.35771">
        <ele>208.7</ele>
        <time>2022-01-23T09:30:59.000Z</time>
      </trkpt>
      <trkpt lat="43.16733" lon="2.35775">
        <ele>208.7</ele>
        <time>2022-01-23T09:31:00.000Z</time>
      </trkpt>
      <trkpt lat="43.16732" lon="2.35778">
        <ele>208.9</ele>
        <time>2022-01-23T09:31:01.000Z</time>
      </trkpt>
      <trkpt lat="43.16731" lon="2.3578">
        <ele>209</ele>
        <time>2022-01-23T09:31:02.000Z</time>
      </trkpt>
      <trkpt lat="43.16729" lon="2.35783">
        <ele>209.3</ele>
        <time>2022-01-23T09:31:03.000Z</time>
      </trkpt>
      <trkpt lat="43.16727" lon="2.35786">
        <ele>209.5</ele>
        <time>2022-01-23T09:31:04.000Z</time>
      </trkpt>
      <trkpt lat="43.16726" lon="2.35788">
        <ele>209.7</ele>
        <time>2022-01-23T09:31:05.000Z</time>
      </trkpt>
      <trkpt lat="43.16724" lon="2.35791">
        <ele>209.9</ele>
        <time>2022-01-23T09:31:06.000Z</time>
      </trkpt>
      <trkpt lat="43.16723" lon="2.35794">
        <ele>210</ele>
        <time>2022-01-23T09:31:07.000Z</time>
      </trkpt>
      <trkpt lat="43.16722" lon="2.35797">
        <ele>210.2</ele>
        <time>2022-01-23T09:31:08.000Z</time>
      </trkpt>
      <trkpt lat="43.16721" lon="2.35801">
        <ele>210.3</ele>
        <time>2022-01-23T09:31:09.000Z</time>
      </trkpt>
      <trkpt lat="43.16721" lon="2.35804">
        <ele>210.4</ele>
        <time>2022-01-23T09:31:10.000Z</time>
      </trkpt>
      <trkpt lat="43.1672" lon="2.35807">
        <ele>210.5</ele>
        <time>2022-01-23T09:31:11.000Z</time>
      </trkpt>
      <trkpt lat="43.1672" lon="2.35811">
        <ele>210.6</ele>
        <time>2022-01-23T09:31:12.000Z</time>
      </trkpt>
      <trkpt lat="43.16719" lon="2.35814">
        <ele>210.7</ele>
        <time>2022-01-23T09:31:13.000Z</time>
      </trkpt>
      <trkpt lat="43.16719" lon="2.35817">
        <ele>210.8</ele>
        <time>2022-01-23T09:31:14.000Z</time>
      </trkpt>
      <trkpt lat="43.16719" lon="2.3582">
        <ele>210.8</ele>
        <time>2022-01-23T09:31:15.000Z</time>
      </trkpt>
      <trkpt lat="43.16719" lon="2.35823">
        <ele>210.8</ele>
        <time>2022-01-23T09:31:16.000Z</time>
      </trkpt>
      <trkpt lat="43.1672" lon="2.35825">
        <ele>210.7</ele>
        <time>2022-01-23T09:31:17.000Z</time>
      </trkpt>
      <trkpt lat="43.16721" lon="2.35826">
        <ele>210.5</ele>
        <time>2022-01-23T09:31:18.000Z</time>
      </trkpt>
      <trkpt lat="43.16723" lon="2.35827">
        <ele>210.2</ele>
        <time>2022-01-23T09:31:19.000Z</time>
      </trkpt>
      <trkpt lat="43.16725" lon="2.35828">
        <ele>209.9</ele>
        <time>2022-01-23T09:31:20.000Z</time>
      </trkpt>
      <trkpt lat="43.16727" lon="2.35828">
        <ele>209.6</ele>
        <time>2022-01-23T09:31:21.000Z</time>
      </trkpt>
      <trkpt lat="43.1673" lon="2.35828">
        <ele>209.2</ele>
        <time>2022-01-23T09:31:22.000Z</time>
      </trkpt>
      <trkpt lat="43.16732" lon="2.35828">
        <ele>208.8</ele>
        <time>2022-01-23T09:31:23.000Z</time>
      </trkpt>
      <trkpt lat="43.16734" lon="2.35829">
        <ele>208.4</ele>
        <time>2022-01-23T09:31:24.000Z</time>
      </trkpt>
      <trkpt lat="43.16737" lon="2.35829">
        <ele>208</ele>
        <time>2022-01-23T09:31:25.000Z</time>
      </trkpt>
      <trkpt lat="43.1674" lon="2.35829">
        <ele>207.6</ele>
        <time>2022-01-23T09:31:26.000Z</time>
      </trkpt>
      <trkpt lat="43.16742" lon="2.35829">
        <ele>207.3</ele>
        <time>2022-01-23T09:31:27.000Z</time>
      </trkpt>
      <trkpt lat="43.16745" lon="2.35828">
        <ele>206.8</ele>
        <time>2022-01-23T09:31:28.000Z</time>
      </trkpt>
      <trkpt lat="43.16748" lon="2.35828">
        <ele>206.4</ele>
        <time>2022-01-23T09:31:29.000Z</time>
      </trkpt>
      <trkpt lat="43.1675" lon="2.35827">
        <ele>206</ele>
        <time>2022-01-23T09:31:30.000Z</time>
      </trkpt>
      <trkpt lat="43.16753" lon="2.35826">
        <ele>205.7</ele>
        <time>2022-01-23T09:31:31.000Z</time>
      </trkpt>
      <trkpt lat="43.16755" lon="2.35824">
        <ele>205.4</ele>
        <time>2022-01-23T09:31:32.000Z</time>
      </trkpt>
      <trkpt lat="43.16758" lon="2.35823">
        <ele>205.1</ele>
        <time>2022-01-23T09:31:33.000Z</time>
      </trkpt>
      <trkpt lat="43.1676" lon="2.3582">
        <ele>204.8</ele>
        <time>2022-01-23T09:31:34.000Z</time>
      </trkpt>
      <trkpt lat="43.16761" lon="2.35818">
        <ele>204.6</ele>
        <time>2022-01-23T09:31:35.000Z</time>
      </trkpt>
      <trkpt lat="43.16763" lon="2.35815">
        <ele>204.5</ele>
        <time>2022-01-23T09:31:36.000Z</time>
      </trkpt>
      <trkpt lat="43.16764" lon="2.35812">
        <ele>204.4</ele>
        <time>2022-01-23T09:31:37.000Z</time>
      </trkpt>
      <trkpt lat="43.16765" lon="2.35809">
        <ele>204.3</ele>
        <time>2022-01-23T09:31:38.000Z</time>
      </trkpt>
      <trkpt lat="43.16766" lon="2.35806">
        <ele>204.2</ele>
        <time>2022-01-23T09:31:39.000Z</time>
      </trkpt>
      <trkpt lat="43.16768" lon="2.35803">
        <ele>204</ele>
        <time>2022-01-23T09:31:40.000Z</time>
      </trkpt>
      <trkpt lat="43.16769" lon="2.35801">
        <ele>203.9</ele>
        <time>2022-01-23T09:31:41.000Z</time>
      </trkpt>
      <trkpt lat="43.1677" lon="2.35798">
        <ele>203.8</ele>
        <time>2022-01-23T09:31:42.000Z</time>
      </trkpt>
      <trkpt lat="43.16771" lon="2.35795">
        <ele>203.7</ele>
        <time>2022-01-23T09:31:43.000Z</time>
      </trkpt>
      <trkpt lat="43.16773" lon="2.35792">
        <ele>203.6</ele>
        <time>2022-01-23T09:31:44.000Z</time>
      </trkpt>
      <trkpt lat="43.16774" lon="2.3579">
        <ele>203.5</ele>
        <time>2022-01-23T09:31:45.000Z</time>
      </trkpt>
      <trkpt lat="43.16775" lon="2.35787">
        <ele>203.4</ele>
        <time>2022-01-23T09:31:46.000Z</time>
      </trkpt>
      <trkpt lat="43.16776" lon="2.35784">
        <ele>203.4</ele>
        <time>2022-01-23T09:31:47.000Z</time>
      </trkpt>
      <trkpt lat="43.16778" lon="2.35781">
        <ele>203.3</ele>
        <time>2022-01-23T09:31:48.000Z</time>
      </trkpt>
      <trkpt lat="43.16779" lon="2.35778">
        <ele>203.2</ele>
        <time>2022-01-23T09:31:49.000Z</time>
      </trkpt>
      <trkpt lat="43.1678" lon="2.35775">
        <ele>203.1</ele>
        <time>2022-01-23T09:31:50.000Z</time>
      </trkpt>
      <trkpt lat="43.16782" lon="2.35772">
        <ele>203</ele>
        <time>2022-01-23T09:31:51.000Z</time>
      </trkpt>
      <trkpt lat="43.16783" lon="2.35769">
        <ele>202.9</ele>
        <time>2022-01-23T09:31:52.000Z</time>
      </trkpt>
      <trkpt lat="43.16785" lon="2.35766">
        <ele>202.8</ele>
        <time>2022-01-23T09:31:53.000Z</time>
      </trkpt>
      <trkpt lat="43.16786" lon="2.35764">
        <ele>202.7</ele>
        <time>2022-01-23T09:31:54.000Z</time>
      </trkpt>
      <trkpt lat="43.16788" lon="2.35761">
        <ele>202.6</ele>
        <time>2022-01-23T09:31:55.000Z</time>
      </trkpt>
      <trkpt lat="43.16789" lon="2.35759">
        <ele>202.5</ele>
        <time>2022-01-23T09:31:56.000Z</time>
      </trkpt>
      <trkpt lat="43.16791" lon="2.35756">
        <ele>202.4</ele>
        <time>2022-01-23T09:31:57.000Z</time>
      </trkpt>
      <trkpt lat="43.16793" lon="2.35754">
        <ele>202.2</ele>
        <time>2022-01-23T09:31:58.000Z</time>
      </trkpt>
      <trkpt lat="43.16795" lon="2.35752">
        <ele>202.1</ele>
        <time>2022-01-23T09:31:59.000Z</time>
      </trkpt>
      <trkpt lat="43.16797" lon="2.3575">
        <ele>201.9</ele>
        <time>2022-01-23T09:32:00.000Z</time>
      </trkpt>
      <trkpt lat="43.16799" lon="2.35748">
        <ele>201.8</ele>
        <time>2022-01-23T09:32:01.000Z</time>
      </trkpt>
      <trkpt lat="43.16801" lon="2.35746">
        <ele>201.6</ele>
        <time>2022-01-23T09:32:02.000Z</time>
      </trkpt>
      <trkpt lat="43.16803" lon="2.35745">
        <ele>201.4</ele>
        <time>2022-01-23T09:32:03.000Z</time>
      </trkpt>
      <trkpt lat="43.16805" lon="2.35743">
        <ele>201.3</ele>
        <time>2022-01-23T09:32:04.000Z</time>
      </trkpt>
      <trkpt lat="43.16807" lon="2.3574">
        <ele>201.1</ele>
        <time>2022-01-23T09:32:05.000Z</time>
      </trkpt>
      <trkpt lat="43.16809" lon="2.35738">
        <ele>201</ele>
        <time>2022-01-23T09:32:06.000Z</time>
      </trkpt>
      <trkpt lat="43.16811" lon="2.35736">
        <ele>200.8</ele>
        <time>2022-01-23T09:32:07.000Z</time>
      </trkpt>
      <trkpt lat="43.16813" lon="2.35734">
        <ele>200.7</ele>
        <time>2022-01-23T09:32:08.000Z</time>
      </trkpt>
      <trkpt lat="43.16814" lon="2.35731">
        <ele>200.7</ele>
        <time>2022-01-23T09:32:09.000Z</time>
      </trkpt>
      <trkpt lat="43.16816" lon="2.35729">
        <ele>200.6</ele>
        <time>2022-01-23T09:32:10.000Z</time>
      </trkpt>
      <trkpt lat="43.16817" lon="2.35727">
        <ele>200.6</ele>
        <time>2022-01-23T09:32:11.000Z</time>
      </trkpt>
      <trkpt lat="43.16818" lon="2.35725">
        <ele>200.5</ele>
        <time>2022-01-23T09:32:12.000Z</time>
      </trkpt>
      <trkpt lat="43.16819" lon="2.35723">
        <ele>200.5</ele>
        <time>2022-01-23T09:32:13.000Z</time>
      </trkpt>
      <trkpt lat="43.16819" lon="2.35721">
        <ele>200.6</ele>
        <time>2022-01-23T09:32:14.000Z</time>
      </trkpt>
      <trkpt lat="43.1682" lon="2.35719">
        <ele>200.6</ele>
        <time>2022-01-23T09:32:15.000Z</time>
      </trkpt>
      <trkpt lat="43.1682" lon="2.35717">
        <ele>200.7</ele>
        <time>2022-01-23T09:32:16.000Z</time>
      </trkpt>
      <trkpt lat="43.1682" lon="2.35716">
        <ele>200.7</ele>
        <time>2022-01-23T09:32:17.000Z</time>
      </trkpt>
      <trkpt lat="43.16819" lon="2.35714">
        <ele>200.8</ele>
        <time>2022-01-23T09:32:18.000Z</time>
      </trkpt>
      <trkpt lat="43.16819" lon="2.35713">
        <ele>200.9</ele>
        <time>2022-01-23T09:32:19.000Z</time>
      </trkpt>
      <trkpt lat="43.16819" lon="2.35711">
        <ele>200.9</ele>
        <time>2022-01-23T09:32:20.000Z</time>
      </trkpt>
      <trkpt lat="43.16819" lon="2.3571">
        <ele>201</ele>
        <time>2022-01-23T09:32:21.000Z</time>
      </trkpt>
      <trkpt lat="43.16818" lon="2.35709">
        <ele>201.1</ele>
        <time>2022-01-23T09:32:22.000Z</time>
      </trkpt>
      <trkpt lat="43.16818" lon="2.35707">
        <ele>201.1</ele>
        <time>2022-01-23T09:32:23.000Z</time>
      </trkpt>
      <trkpt lat="43.16818" lon="2.35706">
        <ele>201.2</ele>
        <time>2022-01-23T09:32:24.000Z</time>
      </trkpt>
      <trkpt lat="43.16819" lon="2.35704">
        <ele>201.2</ele>
        <time>2022-01-23T09:32:25.000Z</time>
      </trkpt>
      <trkpt lat="43.16819" lon="2.35702">
        <ele>201.3</ele>
        <time>2022-01-23T09:32:26.000Z</time>
      </trkpt>
      <trkpt lat="43.16819" lon="2.357">
        <ele>201.3</ele>
        <time>2022-01-23T09:32:27.000Z</time>
      </trkpt>
      <trkpt lat="43.1682" lon="2.35698">
        <ele>201.4</ele>
        <time>2022-01-23T09:32:28.000Z</time>
      </trkpt>
      <trkpt lat="43.1682" lon="2.35696">
        <ele>201.4</ele>
        <time>2022-01-23T09:32:29.000Z</time>
      </trkpt>
      <trkpt lat="43.1682" lon="2.35693">
        <ele>201.5</ele>
        <time>2022-01-23T09:32:30.000Z</time>
      </trkpt>
      <trkpt lat="43.16821" lon="2.35691">
        <ele>201.6</ele>
        <time>2022-01-23T09:32:31.000Z</time>
      </trkpt>
      <trkpt lat="43.16821" lon="2.35688">
        <ele>201.6</ele>
        <time>2022-01-23T09:32:32.000Z</time>
      </trkpt>
      <trkpt lat="43.16822" lon="2.35684">
        <ele>201.7</ele>
        <time>2022-01-23T09:32:33.000Z</time>
      </trkpt>
      <trkpt lat="43.16823" lon="2.35681">
        <ele>201.8</ele>
        <time>2022-01-23T09:32:34.000Z</time>
      </trkpt>
      <trkpt lat="43.16823" lon="2.35678">
        <ele>201.9</ele>
        <time>2022-01-23T09:32:35.000Z</time>
      </trkpt>
      <trkpt lat="43.16824" lon="2.35674">
        <ele>202</ele>
        <time>2022-01-23T09:32:36.000Z</time>
      </trkpt>
      <trkpt lat="43.16824" lon="2.35671">
        <ele>202.2</ele>
        <time>2022-01-23T09:32:37.000Z</time>
      </trkpt>
      <trkpt lat="43.16825" lon="2.35668">
        <ele>202.3</ele>
        <time>2022-01-23T09:32:38.000Z</time>
      </trkpt>
      <trkpt lat="43.16825" lon="2.35664">
        <ele>202.3</ele>
        <time>2022-01-23T09:32:39.000Z</time>
      </trkpt>
      <trkpt lat="43.16826" lon="2.35661">
        <ele>202.3</ele>
        <time>2022-01-23T09:32:40.000Z</time>
      </trkpt>
      <trkpt lat="43.16826" lon="2.35658">
        <ele>202.3</ele>
        <time>2022-01-23T09:32:41.000Z</time>
      </trkpt>
      <trkpt lat="43.16827" lon="2.35654">
        <ele>202.3</ele>
        <time>2022-01-23T09:32:42.000Z</time>
      </trkpt>
      <trkpt lat="43.16827" lon="2.35651">
        <ele>202.4</ele>
        <time>2022-01-23T09:32:43.000Z</time>
      </trkpt>
      <trkpt lat="43.16827" lon="2.35648">
        <ele>202.4</ele>
        <time>2022-01-23T09:32:44.000Z</time>
      </trkpt>
      <trkpt lat="43.16828" lon="2.35645">
        <ele>202.4</ele>
        <time>2022-01-23T09:32:45.000Z</time>
      </trkpt>
      <trkpt lat="43.16828" lon="2.35642">
        <ele>202.4</ele>
        <time>2022-01-23T09:32:46.000Z</time>
      </trkpt>
      <trkpt lat="43.16829" lon="2.35639">
        <ele>202.4</ele>
        <time>2022-01-23T09:32:47.000Z</time>
      </trkpt>
      <trkpt lat="43.1683" lon="2.35635">
        <ele>202.4</ele>
        <time>2022-01-23T09:32:48.000Z</time>
      </trkpt>
      <trkpt lat="43.1683" lon="2.35632">
        <ele>202.5</ele>
        <time>2022-01-23T09:32:49.000Z</time>
      </trkpt>
      <trkpt lat="43.16831" lon="2.35629">
        <ele>202.5</ele>
        <time>2022-01-23T09:32:50.000Z</time>
      </trkpt>
      <trkpt lat="43.16832" lon="2.35626">
        <ele>202.5</ele>
        <time>2022-01-23T09:32:51.000Z</time>
      </trkpt>
      <trkpt lat="43.16833" lon="2.35623">
        <ele>202.5</ele>
        <time>2022-01-23T09:32:52.000Z</time>
      </trkpt>
      <trkpt lat="43.16834" lon="2.35619">
        <ele>202.5</ele>
        <time>2022-01-23T09:32:53.000Z</time>
      </trkpt>
      <trkpt lat="43.16835" lon="2.35616">
        <ele>202.5</ele>
        <time>2022-01-23T09:32:54.000Z</time>
      </trkpt>
      <trkpt lat="43.16836" lon="2.35613">
        <ele>202.4</ele>
        <time>2022-01-23T09:32:55.000Z</time>
      </trkpt>
      <trkpt lat="43.16836" lon="2.3561">
        <ele>202.4</ele>
        <time>2022-01-23T09:32:56.000Z</time>
      </trkpt>
      <trkpt lat="43.16837" lon="2.35607">
        <ele>202.4</ele>
        <time>2022-01-23T09:32:57.000Z</time>
      </trkpt>
      <trkpt lat="43.16838" lon="2.35604">
        <ele>202.3</ele>
        <time>2022-01-23T09:32:58.000Z</time>
      </trkpt>
      <trkpt lat="43.16839" lon="2.356">
        <ele>202.3</ele>
        <time>2022-01-23T09:32:59.000Z</time>
      </trkpt>
      <trkpt lat="43.16839" lon="2.35597">
        <ele>202.3</ele>
        <time>2022-01-23T09:33:00.000Z</time>
      </trkpt>
      <trkpt lat="43.1684" lon="2.35594">
        <ele>202.3</ele>
        <time>2022-01-23T09:33:01.000Z</time>
      </trkpt>
      <trkpt lat="43.1684" lon="2.35591">
        <ele>202.4</ele>
        <time>2022-01-23T09:33:02.000Z</time>
      </trkpt>
      <trkpt lat="43.1684" lon="2.35588">
        <ele>202.4</ele>
        <time>2022-01-23T09:33:03.000Z</time>
      </trkpt>
      <trkpt lat="43.1684" lon="2.35585">
        <ele>202.5</ele>
        <time>2022-01-23T09:33:04.000Z</time>
      </trkpt>
      <trkpt lat="43.16841" lon="2.35582">
        <ele>202.5</ele>
        <time>2022-01-23T09:33:05.000Z</time>
      </trkpt>
      <trkpt lat="43.16841" lon="2.3558">
        <ele>202.4</ele>
        <time>2022-01-23T09:33:06.000Z</time>
      </trkpt>
      <trkpt lat="43.16842" lon="2.35577">
        <ele>202.4</ele>
        <time>2022-01-23T09:33:07.000Z</time>
      </trkpt>
      <trkpt lat="43.16842" lon="2.35574">
        <ele>202.3</ele>
        <time>2022-01-23T09:33:08.000Z</time>
      </trkpt>
      <trkpt lat="43.16843" lon="2.35571">
        <ele>202.3</ele>
        <time>2022-01-23T09:33:09.000Z</time>
      </trkpt>
      <trkpt lat="43.16844" lon="2.35567">
        <ele>202.2</ele>
        <time>2022-01-23T09:33:10.000Z</time>
      </trkpt>
      <trkpt lat="43.16844" lon="2.35564">
        <ele>202.1</ele>
        <time>2022-01-23T09:33:11.000Z</time>
      </trkpt>
      <trkpt lat="43.16845" lon="2.3556">
        <ele>202.1</ele>
        <time>2022-01-23T09:33:12.000Z</time>
      </trkpt>
      <trkpt lat="43.16846" lon="2.35556">
        <ele>202</ele>
        <time>2022-01-23T09:33:13.000Z</time>
      </trkpt>
      <trkpt lat="43.16848" lon="2.35552">
        <ele>201.9</ele>
        <time>2022-01-23T09:33:14.000Z</time>
      </trkpt>
      <trkpt lat="43.16849" lon="2.35549">
        <ele>201.9</ele>
        <time>2022-01-23T09:33:15.000Z</time>
      </trkpt>
      <trkpt lat="43.1685" lon="2.35545">
        <ele>201.8</ele>
        <time>2022-01-23T09:33:16.000Z</time>
      </trkpt>
      <trkpt lat="43.16852" lon="2.35542">
        <ele>201.7</ele>
        <time>2022-01-23T09:33:17.000Z</time>
      </trkpt>
      <trkpt lat="43.16854" lon="2.35539">
        <ele>201.7</ele>
        <time>2022-01-23T09:33:18.000Z</time>
      </trkpt>
      <trkpt lat="43.16856" lon="2.35536">
        <ele>201.6</ele>
        <time>2022-01-23T09:33:19.000Z</time>
      </trkpt>
      <trkpt lat="43.16857" lon="2.35533">
        <ele>201.5</ele>
        <time>2022-01-23T09:33:20.000Z</time>
      </trkpt>
      <trkpt lat="43.16859" lon="2.35531">
        <ele>201.5</ele>
        <time>2022-01-23T09:33:21.000Z</time>
      </trkpt>
      <trkpt lat="43.1686" lon="2.35528">
        <ele>201.5</ele>
        <time>2022-01-23T09:33:22.000Z</time>
      </trkpt>
      <trkpt lat="43.16862" lon="2.35525">
        <ele>201.4</ele>
        <time>2022-01-23T09:33:23.000Z</time>
      </trkpt>
      <trkpt lat="43.16863" lon="2.35522">
        <ele>201.4</ele>
        <time>2022-01-23T09:33:24.000Z</time>
      </trkpt>
      <trkpt lat="43.16865" lon="2.35519">
        <ele>201.4</ele>
        <time>2022-01-23T09:33:25.000Z</time>
      </trkpt>
      <trkpt lat="43.16866" lon="2.35516">
        <ele>201.4</ele>
        <time>2022-01-23T09:33:26.000Z</time>
      </trkpt>
      <trkpt lat="43.16867" lon="2.35513">
        <ele>201.4</ele>
        <time>2022-01-23T09:33:27.000Z</time>
      </trkpt>
      <trkpt lat="43.16868" lon="2.35511">
        <ele>201.4</ele>
        <time>2022-01-23T09:33:28.000Z</time>
      </trkpt>
      <trkpt lat="43.1687" lon="2.35508">
        <ele>201.5</ele>
        <time>2022-01-23T09:33:29.000Z</time>
      </trkpt>
      <trkpt lat="43.16871" lon="2.35506">
        <ele>201.5</ele>
        <time>2022-01-23T09:33:30.000Z</time>
      </trkpt>
      <trkpt lat="43.16872" lon="2.35503">
        <ele>201.5</ele>
        <time>2022-01-23T09:33:31.000Z</time>
      </trkpt>
      <trkpt lat="43.16873" lon="2.35501">
        <ele>201.5</ele>
        <time>2022-01-23T09:33:32.000Z</time>
      </trkpt>
      <trkpt lat="43.16875" lon="2.35498">
        <ele>201.5</ele>
        <time>2022-01-23T09:33:33.000Z</time>
      </trkpt>
      <trkpt lat="43.16876" lon="2.35496">
        <ele>201.4</ele>
        <time>2022-01-23T09:33:34.000Z</time>
      </trkpt>
      <trkpt lat="43.16878" lon="2.35494">
        <ele>201.4</ele>
        <time>2022-01-23T09:33:35.000Z</time>
      </trkpt>
      <trkpt lat="43.16879" lon="2.35491">
        <ele>201.3</ele>
        <time>2022-01-23T09:33:36.000Z</time>
      </trkpt>
      <trkpt lat="43.16881" lon="2.35489">
        <ele>201.3</ele>
        <time>2022-01-23T09:33:37.000Z</time>
      </trkpt>
      <trkpt lat="43.16882" lon="2.35486">
        <ele>201.2</ele>
        <time>2022-01-23T09:33:38.000Z</time>
      </trkpt>
      <trkpt lat="43.16883" lon="2.35483">
        <ele>201.2</ele>
        <time>2022-01-23T09:33:39.000Z</time>
      </trkpt>
      <trkpt lat="43.16885" lon="2.3548">
        <ele>201.1</ele>
        <time>2022-01-23T09:33:40.000Z</time>
      </trkpt>
      <trkpt lat="43.16886" lon="2.35477">
        <ele>201.1</ele>
        <time>2022-01-23T09:33:41.000Z</time>
      </trkpt>
      <trkpt lat="43.16888" lon="2.35474">
        <ele>201</ele>
        <time>2022-01-23T09:33:42.000Z</time>
      </trkpt>
      <trkpt lat="43.16889" lon="2.35471">
        <ele>201</ele>
        <time>2022-01-23T09:33:43.000Z</time>
      </trkpt>
      <trkpt lat="43.16891" lon="2.35468">
        <ele>201</ele>
        <time>2022-01-23T09:33:44.000Z</time>
      </trkpt>
      <trkpt lat="43.16893" lon="2.35465">
        <ele>200.9</ele>
        <time>2022-01-23T09:33:45.000Z</time>
      </trkpt>
      <trkpt lat="43.16894" lon="2.35463">
        <ele>200.9</ele>
        <time>2022-01-23T09:33:46.000Z</time>
      </trkpt>
      <trkpt lat="43.16897" lon="2.35462">
        <ele>200.9</ele>
        <time>2022-01-23T09:33:47.000Z</time>
      </trkpt>
      <trkpt lat="43.16899" lon="2.35461">
        <ele>200.9</ele>
        <time>2022-01-23T09:33:48.000Z</time>
      </trkpt>
      <trkpt lat="43.16901" lon="2.35461">
        <ele>200.9</ele>
        <time>2022-01-23T09:33:49.000Z</time>
      </trkpt>
      <trkpt lat="43.16904" lon="2.35461">
        <ele>200.9</ele>
        <time>2022-01-23T09:33:50.000Z</time>
      </trkpt>
      <trkpt lat="43.16906" lon="2.35461">
        <ele>200.9</ele>
        <time>2022-01-23T09:33:51.000Z</time>
      </trkpt>
      <trkpt lat="43.16909" lon="2.35461">
        <ele>201</ele>
        <time>2022-01-23T09:33:52.000Z</time>
      </trkpt>
      <trkpt lat="43.16911" lon="2.35461">
        <ele>201</ele>
        <time>2022-01-23T09:33:53.000Z</time>
      </trkpt>
      <trkpt lat="43.16913" lon="2.35461">
        <ele>201</ele>
        <time>2022-01-23T09:33:54.000Z</time>
      </trkpt>
      <trkpt lat="43.16916" lon="2.3546">
        <ele>201</ele>
        <time>2022-01-23T09:33:55.000Z</time>
      </trkpt>
      <trkpt lat="43.16918" lon="2.35459">
        <ele>200.9</ele>
        <time>2022-01-23T09:33:56.000Z</time>
      </trkpt>
      <trkpt lat="43.16919" lon="2.35457">
        <ele>200.8</ele>
        <time>2022-01-23T09:33:57.000Z</time>
      </trkpt>
      <trkpt lat="43.16921" lon="2.35454">
        <ele>200.7</ele>
        <time>2022-01-23T09:33:58.000Z</time>
      </trkpt>
      <trkpt lat="43.16922" lon="2.35451">
        <ele>200.6</ele>
        <time>2022-01-23T09:33:59.000Z</time>
      </trkpt>
      <trkpt lat="43.16924" lon="2.35448">
        <ele>200.6</ele>
        <time>2022-01-23T09:34:00.000Z</time>
      </trkpt>
      <trkpt lat="43.16925" lon="2.35445">
        <ele>200.5</ele>
        <time>2022-01-23T09:34:01.000Z</time>
      </trkpt>
      <trkpt lat="43.16926" lon="2.35441">
        <ele>200.5</ele>
        <time>2022-01-23T09:34:02.000Z</time>
      </trkpt>
      <trkpt lat="43.16926" lon="2.35438">
        <ele>200.4</ele>
        <time>2022-01-23T09:34:03.000Z</time>
      </trkpt>
      <trkpt lat="43.16927" lon="2.35434">
        <ele>200.4</ele>
        <time>2022-01-23T09:34:04.000Z</time>
      </trkpt>
      <trkpt lat="43.16928" lon="2.35431">
        <ele>200.4</ele>
        <time>2022-01-23T09:34:05.000Z</time>
      </trkpt>
      <trkpt lat="43.16928" lon="2.35427">
        <ele>200.4</ele>
        <time>2022-01-23T09:34:06.000Z</time>
      </trkpt>
      <trkpt lat="43.16929" lon="2.35424">
        <ele>200.4</ele>
        <time>2022-01-23T09:34:07.000Z</time>
      </trkpt>
      <trkpt lat="43.1693" lon="2.3542">
        <ele>200.4</ele>
        <time>2022-01-23T09:34:08.000Z</time>
      </trkpt>
      <trkpt lat="43.1693" lon="2.35417">
        <ele>200.3</ele>
        <time>2022-01-23T09:34:09.000Z</time>
      </trkpt>
      <trkpt lat="43.16931" lon="2.35414">
        <ele>200.3</ele>
        <time>2022-01-23T09:34:10.000Z</time>
      </trkpt>
      <trkpt lat="43.16932" lon="2.35411">
        <ele>200.2</ele>
        <time>2022-01-23T09:34:11.000Z</time>
      </trkpt>
      <trkpt lat="43.16932" lon="2.35408">
        <ele>200.1</ele>
        <time>2022-01-23T09:34:12.000Z</time>
      </trkpt>
      <trkpt lat="43.16933" lon="2.35404">
        <ele>200</ele>
        <time>2022-01-23T09:34:13.000Z</time>
      </trkpt>
      <trkpt lat="43.16934" lon="2.35401">
        <ele>199.9</ele>
        <time>2022-01-23T09:34:14.000Z</time>
      </trkpt>
      <trkpt lat="43.16936" lon="2.35398">
        <ele>199.7</ele>
        <time>2022-01-23T09:34:15.000Z</time>
      </trkpt>
      <trkpt lat="43.16937" lon="2.35395">
        <ele>199.6</ele>
        <time>2022-01-23T09:34:16.000Z</time>
      </trkpt>
      <trkpt lat="43.16938" lon="2.35391">
        <ele>199.5</ele>
        <time>2022-01-23T09:34:17.000Z</time>
      </trkpt>
      <trkpt lat="43.1694" lon="2.35388">
        <ele>199.4</ele>
        <time>2022-01-23T09:34:18.000Z</time>
      </trkpt>
      <trkpt lat="43.16941" lon="2.35385">
        <ele>199.3</ele>
        <time>2022-01-23T09:34:19.000Z</time>
      </trkpt>
      <trkpt lat="43.16942" lon="2.35382">
        <ele>199.2</ele>
        <time>2022-01-23T09:34:20.000Z</time>
      </trkpt>
      <trkpt lat="43.16944" lon="2.35378">
        <ele>199.1</ele>
        <time>2022-01-23T09:34:21.000Z</time>
      </trkpt>
      <trkpt lat="43.16945" lon="2.35375">
        <ele>199</ele>
        <time>2022-01-23T09:34:22.000Z</time>
      </trkpt>
      <trkpt lat="43.16946" lon="2.35372">
        <ele>198.9</ele>
        <time>2022-01-23T09:34:23.000Z</time>
      </trkpt>
      <trkpt lat="43.16948" lon="2.35368">
        <ele>198.8</ele>
        <time>2022-01-23T09:34:24.000Z</time>
      </trkpt>
      <trkpt lat="43.16949" lon="2.35365">
        <ele>198.7</ele>
        <time>2022-01-23T09:34:25.000Z</time>
      </trkpt>
      <trkpt lat="43.1695" lon="2.35362">
        <ele>198.6</ele>
        <time>2022-01-23T09:34:26.000Z</time>
      </trkpt>
      <trkpt lat="43.16951" lon="2.35358">
        <ele>198.5</ele>
        <time>2022-01-23T09:34:27.000Z</time>
      </trkpt>
      <trkpt lat="43.16952" lon="2.35355">
        <ele>198.4</ele>
        <time>2022-01-23T09:34:28.000Z</time>
      </trkpt>
      <trkpt lat="43.16953" lon="2.35352">
        <ele>198.4</ele>
        <time>2022-01-23T09:34:29.000Z</time>
      </trkpt>
      <trkpt lat="43.16955" lon="2.35348">
        <ele>198.3</ele>
        <time>2022-01-23T09:34:30.000Z</time>
      </trkpt>
      <trkpt lat="43.16956" lon="2.35345">
        <ele>198.2</ele>
        <time>2022-01-23T09:34:31.000Z</time>
      </trkpt>
      <trkpt lat="43.16957" lon="2.35341">
        <ele>198.1</ele>
        <time>2022-01-23T09:34:32.000Z</time>
      </trkpt>
      <trkpt lat="43.16958" lon="2.35338">
        <ele>198.1</ele>
        <time>2022-01-23T09:34:33.000Z</time>
      </trkpt>
      <trkpt lat="43.16959" lon="2.35334">
        <ele>198</ele>
        <time>2022-01-23T09:34:34.000Z</time>
      </trkpt>
      <trkpt lat="43.1696" lon="2.3533">
        <ele>197.9</ele>
        <time>2022-01-23T09:34:35.000Z</time>
      </trkpt>
      <trkpt lat="43.16961" lon="2.35327">
        <ele>197.7</ele>
        <time>2022-01-23T09:34:36.000Z</time>
      </trkpt>
      <trkpt lat="43.16962" lon="2.35323">
        <ele>197.6</ele>
        <time>2022-01-23T09:34:37.000Z</time>
      </trkpt>
      <trkpt lat="43.16963" lon="2.35319">
        <ele>197.5</ele>
        <time>2022-01-23T09:34:38.000Z</time>
      </trkpt>
      <trkpt lat="43.16964" lon="2.35315">
        <ele>197.4</ele>
        <time>2022-01-23T09:34:39.000Z</time>
      </trkpt>
      <trkpt lat="43.16965" lon="2.35311">
        <ele>197.2</ele>
        <time>2022-01-23T09:34:40.000Z</time>
      </trkpt>
      <trkpt lat="43.16966" lon="2.35307">
        <ele>197.1</ele>
        <time>2022-01-23T09:34:41.000Z</time>
      </trkpt>
      <trkpt lat="43.16967" lon="2.35304">
        <ele>197</ele>
        <time>2022-01-23T09:34:42.000Z</time>
      </trkpt>
      <trkpt lat="43.16968" lon="2.353">
        <ele>196.9</ele>
        <time>2022-01-23T09:34:43.000Z</time>
      </trkpt>
      <trkpt lat="43.1697" lon="2.35296">
        <ele>196.8</ele>
        <time>2022-01-23T09:34:44.000Z</time>
      </trkpt>
      <trkpt lat="43.16971" lon="2.35292">
        <ele>196.7</ele>
        <time>2022-01-23T09:34:45.000Z</time>
      </trkpt>
      <trkpt lat="43.16972" lon="2.35288">
        <ele>196.6</ele>
        <time>2022-01-23T09:34:46.000Z</time>
      </trkpt>
      <trkpt lat="43.16973" lon="2.35285">
        <ele>196.5</ele>
        <time>2022-01-23T09:34:47.000Z</time>
      </trkpt>
      <trkpt lat="43.16975" lon="2.35281">
        <ele>196.4</ele>
        <time>2022-01-23T09:34:48.000Z</time>
      </trkpt>
      <trkpt lat="43.16976" lon="2.35278">
        <ele>196.3</ele>
        <time>2022-01-23T09:34:49.000Z</time>
      </trkpt>
      <trkpt lat="43.16977" lon="2.35275">
        <ele>196.3</ele>
        <time>2022-01-23T09:34:50.000Z</time>
      </trkpt>
      <trkpt lat="43.16979" lon="2.35271">
        <ele>196.2</ele>
        <time>2022-01-23T09:34:51.000Z</time>
      </trkpt>
      <trkpt lat="43.1698" lon="2.35268">
        <ele>196.1</ele>
        <time>2022-01-23T09:34:52.000Z</time>
      </trkpt>
      <trkpt lat="43.16981" lon="2.35265">
        <ele>196.1</ele>
        <time>2022-01-23T09:34:53.000Z</time>
      </trkpt>
      <trkpt lat="43.16982" lon="2.35262">
        <ele>196</ele>
        <time>2022-01-23T09:34:54.000Z</time>
      </trkpt>
      <trkpt lat="43.16984" lon="2.35259">
        <ele>196</ele>
        <time>2022-01-23T09:34:55.000Z</time>
      </trkpt>
      <trkpt lat="43.16985" lon="2.35255">
        <ele>195.9</ele>
        <time>2022-01-23T09:34:56.000Z</time>
      </trkpt>
      <trkpt lat="43.16986" lon="2.35252">
        <ele>195.9</ele>
        <time>2022-01-23T09:34:57.000Z</time>
      </trkpt>
      <trkpt lat="43.16986" lon="2.35248">
        <ele>195.8</ele>
        <time>2022-01-23T09:34:58.000Z</time>
      </trkpt>
      <trkpt lat="43.16987" lon="2.35244">
        <ele>195.7</ele>
        <time>2022-01-23T09:34:59.000Z</time>
      </trkpt>
      <trkpt lat="43.16988" lon="2.35241">
        <ele>195.6</ele>
        <time>2022-01-23T09:35:00.000Z</time>
      </trkpt>
      <trkpt lat="43.16988" lon="2.35237">
        <ele>195.5</ele>
        <time>2022-01-23T09:35:01.000Z</time>
      </trkpt>
      <trkpt lat="43.16988" lon="2.35234">
        <ele>195.4</ele>
        <time>2022-01-23T09:35:02.000Z</time>
      </trkpt>
      <trkpt lat="43.16989" lon="2.3523">
        <ele>195.3</ele>
        <time>2022-01-23T09:35:03.000Z</time>
      </trkpt>
      <trkpt lat="43.1699" lon="2.35227">
        <ele>195.3</ele>
        <time>2022-01-23T09:35:04.000Z</time>
      </trkpt>
      <trkpt lat="43.16991" lon="2.35224">
        <ele>195.2</ele>
        <time>2022-01-23T09:35:05.000Z</time>
      </trkpt>
      <trkpt lat="43.16992" lon="2.35222">
        <ele>195.2</ele>
        <time>2022-01-23T09:35:06.000Z</time>
      </trkpt>
      <trkpt lat="43.16993" lon="2.3522">
        <ele>195.1</ele>
        <time>2022-01-23T09:35:07.000Z</time>
      </trkpt>
      <trkpt lat="43.16995" lon="2.35218">
        <ele>195.1</ele>
        <time>2022-01-23T09:35:08.000Z</time>
      </trkpt>
      <trkpt lat="43.16996" lon="2.35217">
        <ele>195.1</ele>
        <time>2022-01-23T09:35:09.000Z</time>
      </trkpt>
      <trkpt lat="43.16997" lon="2.35217">
        <ele>195.1</ele>
        <time>2022-01-23T09:35:10.000Z</time>
      </trkpt>
      <trkpt lat="43.16997" lon="2.35217">
        <ele>195.1</ele>
        <time>2022-01-23T09:35:11.000Z</time>
      </trkpt>
      <trkpt lat="43.16998" lon="2.35217">
        <ele>195.2</ele>
        <time>2022-01-23T09:35:12.000Z</time>
      </trkpt>
      <trkpt lat="43.16998" lon="2.35218">
        <ele>195.2</ele>
        <time>2022-01-23T09:35:13.000Z</time>
      </trkpt>
      <trkpt lat="43.16999" lon="2.35218">
        <ele>195.2</ele>
        <time>2022-01-23T09:35:14.000Z</time>
      </trkpt>
      <trkpt lat="43.16999" lon="2.35219">
        <ele>195.2</ele>
        <time>2022-01-23T09:35:15.000Z</time>
      </trkpt>
      <trkpt lat="43.17" lon="2.35219">
        <ele>195.3</ele>
        <time>2022-01-23T09:35:16.000Z</time>
      </trkpt>
      <trkpt lat="43.17" lon="2.3522">
        <ele>195.2</ele>
        <time>2022-01-23T09:35:17.000Z</time>
      </trkpt>
      <trkpt lat="43.17001" lon="2.3522">
        <ele>195.2</ele>
        <time>2022-01-23T09:35:18.000Z</time>
      </trkpt>
      <trkpt lat="43.17002" lon="2.3522">
        <ele>195.2</ele>
        <time>2022-01-23T09:35:19.000Z</time>
      </trkpt>
      <trkpt lat="43.17002" lon="2.35221">
        <ele>195.2</ele>
        <time>2022-01-23T09:35:20.000Z</time>
      </trkpt>
      <trkpt lat="43.17003" lon="2.35221">
        <ele>195.2</ele>
        <time>2022-01-23T09:35:21.000Z</time>
      </trkpt>
      <trkpt lat="43.17004" lon="2.35222">
        <ele>195.1</ele>
        <time>2022-01-23T09:35:22.000Z</time>
      </trkpt>
      <trkpt lat="43.17005" lon="2.35223">
        <ele>195.1</ele>
        <time>2022-01-23T09:35:23.000Z</time>
      </trkpt>
      <trkpt lat="43.17006" lon="2.35224">
        <ele>195.1</ele>
        <time>2022-01-23T09:35:24.000Z</time>
      </trkpt>
      <trkpt lat="43.17007" lon="2.35225">
        <ele>195.1</ele>
        <time>2022-01-23T09:35:25.000Z</time>
      </trkpt>
      <trkpt lat="43.17008" lon="2.35226">
        <ele>195.1</ele>
        <time>2022-01-23T09:35:26.000Z</time>
      </trkpt>
      <trkpt lat="43.17009" lon="2.35227">
        <ele>195</ele>
        <time>2022-01-23T09:35:27.000Z</time>
      </trkpt>
      <trkpt lat="43.1701" lon="2.35228">
        <ele>195</ele>
        <time>2022-01-23T09:35:28.000Z</time>
      </trkpt>
      <trkpt lat="43.17011" lon="2.3523">
        <ele>195</ele>
        <time>2022-01-23T09:35:29.000Z</time>
      </trkpt>
      <trkpt lat="43.17012" lon="2.35232">
        <ele>195</ele>
        <time>2022-01-23T09:35:30.000Z</time>
      </trkpt>
      <trkpt lat="43.17014" lon="2.35234">
        <ele>194.9</ele>
        <time>2022-01-23T09:35:31.000Z</time>
      </trkpt>
      <trkpt lat="43.17015" lon="2.35236">
        <ele>194.9</ele>
        <time>2022-01-23T09:35:32.000Z</time>
      </trkpt>
      <trkpt lat="43.17017" lon="2.35238">
        <ele>194.9</ele>
        <time>2022-01-23T09:35:33.000Z</time>
      </trkpt>
      <trkpt lat="43.17019" lon="2.3524">
        <ele>194.9</ele>
        <time>2022-01-23T09:35:34.000Z</time>
      </trkpt>
      <trkpt lat="43.17021" lon="2.35242">
        <ele>194.8</ele>
        <time>2022-01-23T09:35:35.000Z</time>
      </trkpt>
      <trkpt lat="43.17023" lon="2.35244">
        <ele>194.8</ele>
        <time>2022-01-23T09:35:36.000Z</time>
      </trkpt>
      <trkpt lat="43.17024" lon="2.35246">
        <ele>194.7</ele>
        <time>2022-01-23T09:35:37.000Z</time>
      </trkpt>
      <trkpt lat="43.17026" lon="2.35249">
        <ele>194.7</ele>
        <time>2022-01-23T09:35:38.000Z</time>
      </trkpt>
      <trkpt lat="43.17028" lon="2.35251">
        <ele>194.6</ele>
        <time>2022-01-23T09:35:39.000Z</time>
      </trkpt>
      <trkpt lat="43.1703" lon="2.35253">
        <ele>194.5</ele>
        <time>2022-01-23T09:35:40.000Z</time>
      </trkpt>
      <trkpt lat="43.17032" lon="2.35255">
        <ele>194.4</ele>
        <time>2022-01-23T09:35:41.000Z</time>
      </trkpt>
      <trkpt lat="43.17033" lon="2.35257">
        <ele>194.3</ele>
        <time>2022-01-23T09:35:42.000Z</time>
      </trkpt>
      <trkpt lat="43.17035" lon="2.35259">
        <ele>194.2</ele>
        <time>2022-01-23T09:35:43.000Z</time>
      </trkpt>
      <trkpt lat="43.17037" lon="2.35261">
        <ele>194.1</ele>
        <time>2022-01-23T09:35:44.000Z</time>
      </trkpt>
      <trkpt lat="43.17039" lon="2.35263">
        <ele>193.9</ele>
        <time>2022-01-23T09:35:45.000Z</time>
      </trkpt>
      <trkpt lat="43.17041" lon="2.35265">
        <ele>193.8</ele>
        <time>2022-01-23T09:35:46.000Z</time>
      </trkpt>
      <trkpt lat="43.17043" lon="2.35267">
        <ele>193.6</ele>
        <time>2022-01-23T09:35:47.000Z</time>
      </trkpt>
      <trkpt lat="43.17045" lon="2.35269">
        <ele>193.5</ele>
        <time>2022-01-23T09:35:48.000Z</time>
      </trkpt>
      <trkpt lat="43.17047" lon="2.35271">
        <ele>193.3</ele>
        <time>2022-01-23T09:35:49.000Z</time>
      </trkpt>
      <trkpt lat="43.1705" lon="2.35273">
        <ele>193.1</ele>
        <time>2022-01-23T09:35:50.000Z</time>
      </trkpt>
      <trkpt lat="43.17052" lon="2.35275">
        <ele>192.9</ele>
        <time>2022-01-23T09:35:51.000Z</time>
      </trkpt>
      <trkpt lat="43.17055" lon="2.35277">
        <ele>192.6</ele>
        <time>2022-01-23T09:35:52.000Z</time>
      </trkpt>
      <trkpt lat="43.17057" lon="2.35279">
        <ele>192.4</ele>
        <time>2022-01-23T09:35:53.000Z</time>
      </trkpt>
      <trkpt lat="43.1706" lon="2.35281">
        <ele>192.2</ele>
        <time>2022-01-23T09:35:54.000Z</time>
      </trkpt>
      <trkpt lat="43.17063" lon="2.35283">
        <ele>191.9</ele>
        <time>2022-01-23T09:35:55.000Z</time>
      </trkpt>
      <trkpt lat="43.17065" lon="2.35285">
        <ele>191.6</ele>
        <time>2022-01-23T09:35:56.000Z</time>
      </trkpt>
      <trkpt lat="43.17068" lon="2.35288">
        <ele>191.3</ele>
        <time>2022-01-23T09:35:57.000Z</time>
      </trkpt>
      <trkpt lat="43.17071" lon="2.3529">
        <ele>191</ele>
        <time>2022-01-23T09:35:58.000Z</time>
      </trkpt>
      <trkpt lat="43.17074" lon="2.35292">
        <ele>190.7</ele>
        <time>2022-01-23T09:35:59.000Z</time>
      </trkpt>
      <trkpt lat="43.17077" lon="2.35294">
        <ele>190.4</ele>
        <time>2022-01-23T09:36:00.000Z</time>
      </trkpt>
      <trkpt lat="43.17079" lon="2.35296">
        <ele>190.1</ele>
        <time>2022-01-23T09:36:01.000Z</time>
      </trkpt>
      <trkpt lat="43.17082" lon="2.35299">
        <ele>189.8</ele>
        <time>2022-01-23T09:36:02.000Z</time>
      </trkpt>
      <trkpt lat="43.17085" lon="2.35301">
        <ele>189.4</ele>
        <time>2022-01-23T09:36:03.000Z</time>
      </trkpt>
      <trkpt lat="43.17088" lon="2.35303">
        <ele>189</ele>
        <time>2022-01-23T09:36:04.000Z</time>
      </trkpt>
      <trkpt lat="43.1709" lon="2.35305">
        <ele>188.7</ele>
        <time>2022-01-23T09:36:05.000Z</time>
      </trkpt>
      <trkpt lat="43.17093" lon="2.35307">
        <ele>188.3</ele>
        <time>2022-01-23T09:36:06.000Z</time>
      </trkpt>
      <trkpt lat="43.17096" lon="2.35309">
        <ele>188</ele>
        <time>2022-01-23T09:36:07.000Z</time>
      </trkpt>
      <trkpt lat="43.17098" lon="2.35311">
        <ele>187.6</ele>
        <time>2022-01-23T09:36:08.000Z</time>
      </trkpt>
      <trkpt lat="43.17101" lon="2.35313">
        <ele>187.3</ele>
        <time>2022-01-23T09:36:09.000Z</time>
      </trkpt>
      <trkpt lat="43.17103" lon="2.35315">
        <ele>187</ele>
        <time>2022-01-23T09:36:10.000Z</time>
      </trkpt>
      <trkpt lat="43.17106" lon="2.35317">
        <ele>186.6</ele>
        <time>2022-01-23T09:36:11.000Z</time>
      </trkpt>
      <trkpt lat="43.17108" lon="2.35319">
        <ele>186.3</ele>
        <time>2022-01-23T09:36:12.000Z</time>
      </trkpt>
      <trkpt lat="43.1711" lon="2.35321">
        <ele>186</ele>
        <time>2022-01-23T09:36:13.000Z</time>
      </trkpt>
      <trkpt lat="43.17113" lon="2.35323">
        <ele>185.7</ele>
        <time>2022-01-23T09:36:14.000Z</time>
      </trkpt>
      <trkpt lat="43.17115" lon="2.35325">
        <ele>185.4</ele>
        <time>2022-01-23T09:36:15.000Z</time>
      </trkpt>
      <trkpt lat="43.17118" lon="2.35326">
        <ele>185.1</ele>
        <time>2022-01-23T09:36:16.000Z</time>
      </trkpt>
      <trkpt lat="43.1712" lon="2.35328">
        <ele>184.8</ele>
        <time>2022-01-23T09:36:17.000Z</time>
      </trkpt>
      <trkpt lat="43.17122" lon="2.3533">
        <ele>184.4</ele>
        <time>2022-01-23T09:36:18.000Z</time>
      </trkpt>
      <trkpt lat="43.17125" lon="2.35332">
        <ele>184.1</ele>
        <time>2022-01-23T09:36:19.000Z</time>
      </trkpt>
      <trkpt lat="43.17127" lon="2.35334">
        <ele>183.8</ele>
        <time>2022-01-23T09:36:20.000Z</time>
      </trkpt>
      <trkpt lat="43.17129" lon="2.35336">
        <ele>183.5</ele>
        <time>2022-01-23T09:36:21.000Z</time>
      </trkpt>
      <trkpt lat="43.17132" lon="2.35338">
        <ele>183.3</ele>
        <time>2022-01-23T09:36:22.000Z</time>
      </trkpt>
      <trkpt lat="43.17134" lon="2.3534">
        <ele>183</ele>
        <time>2022-01-23T09:36:23.000Z</time>
      </trkpt>
      <trkpt lat="43.17137" lon="2.35342">
        <ele>182.7</ele>
        <time>2022-01-23T09:36:24.000Z</time>
      </trkpt>
      <trkpt lat="43.17139" lon="2.35344">
        <ele>182.4</ele>
        <time>2022-01-23T09:36:25.000Z</time>
      </trkpt>
      <trkpt lat="43.17142" lon="2.35346">
        <ele>182.1</ele>
        <time>2022-01-23T09:36:26.000Z</time>
      </trkpt>
      <trkpt lat="43.17144" lon="2.35347">
        <ele>181.9</ele>
        <time>2022-01-23T09:36:27.000Z</time>
      </trkpt>
      <trkpt lat="43.17147" lon="2.35349">
        <ele>181.6</ele>
        <time>2022-01-23T09:36:28.000Z</time>
      </trkpt>
      <trkpt lat="43.1715" lon="2.35351">
        <ele>181.3</ele>
        <time>2022-01-23T09:36:29.000Z</time>
      </trkpt>
      <trkpt lat="43.17152" lon="2.35353">
        <ele>181</ele>
        <time>2022-01-23T09:36:30.000Z</time>
      </trkpt>
      <trkpt lat="43.17155" lon="2.35354">
        <ele>180.7</ele>
        <time>2022-01-23T09:36:31.000Z</time>
      </trkpt>
      <trkpt lat="43.17158" lon="2.35356">
        <ele>180.4</ele>
        <time>2022-01-23T09:36:32.000Z</time>
      </trkpt>
      <trkpt lat="43.1716" lon="2.35358">
        <ele>180</ele>
        <time>2022-01-23T09:36:33.000Z</time>
      </trkpt>
      <trkpt lat="43.17163" lon="2.3536">
        <ele>179.7</ele>
        <time>2022-01-23T09:36:34.000Z</time>
      </trkpt>
      <trkpt lat="43.17166" lon="2.35361">
        <ele>179.4</ele>
        <time>2022-01-23T09:36:35.000Z</time>
      </trkpt>
      <trkpt lat="43.17169" lon="2.35363">
        <ele>179</ele>
        <time>2022-01-23T09:36:36.000Z</time>
      </trkpt>
      <trkpt lat="43.17172" lon="2.35365">
        <ele>178.7</ele>
        <time>2022-01-23T09:36:37.000Z</time>
      </trkpt>
      <trkpt lat="43.17175" lon="2.35367">
        <ele>178.3</ele>
        <time>2022-01-23T09:36:38.000Z</time>
      </trkpt>
      <trkpt lat="43.17177" lon="2.35369">
        <ele>177.9</ele>
        <time>2022-01-23T09:36:39.000Z</time>
      </trkpt>
      <trkpt lat="43.1718" lon="2.35371">
        <ele>177.6</ele>
        <time>2022-01-23T09:36:40.000Z</time>
      </trkpt>
      <trkpt lat="43.17183" lon="2.35373">
        <ele>177.2</ele>
        <time>2022-01-23T09:36:41.000Z</time>
      </trkpt>
      <trkpt lat="43.17186" lon="2.35376">
        <ele>176.8</ele>
        <time>2022-01-23T09:36:42.000Z</time>
      </trkpt>
      <trkpt lat="43.17189" lon="2.35378">
        <ele>176.4</ele>
        <time>2022-01-23T09:36:43.000Z</time>
      </trkpt>
      <trkpt lat="43.17192" lon="2.3538">
        <ele>176</ele>
        <time>2022-01-23T09:36:44.000Z</time>
      </trkpt>
      <trkpt lat="43.17195" lon="2.35383">
        <ele>175.6</ele>
        <time>2022-01-23T09:36:45.000Z</time>
      </trkpt>
      <trkpt lat="43.17198" lon="2.35385">
        <ele>175.2</ele>
        <time>2022-01-23T09:36:46.000Z</time>
      </trkpt>
      <trkpt lat="43.17201" lon="2.35387">
        <ele>174.8</ele>
        <time>2022-01-23T09:36:47.000Z</time>
      </trkpt>
      <trkpt lat="43.17204" lon="2.3539">
        <ele>174.4</ele>
        <time>2022-01-23T09:36:48.000Z</time>
      </trkpt>
      <trkpt lat="43.17207" lon="2.35392">
        <ele>173.9</ele>
        <time>2022-01-23T09:36:49.000Z</time>
      </trkpt>
      <trkpt lat="43.17209" lon="2.35394">
        <ele>173.6</ele>
        <time>2022-01-23T09:36:50.000Z</time>
      </trkpt>
      <trkpt lat="43.17212" lon="2.35396">
        <ele>173.1</ele>
        <time>2022-01-23T09:36:51.000Z</time>
      </trkpt>
      <trkpt lat="43.17215" lon="2.35399">
        <ele>172.8</ele>
        <time>2022-01-23T09:36:52.000Z</time>
      </trkpt>
      <trkpt lat="43.17218" lon="2.35401">
        <ele>172.4</ele>
        <time>2022-01-23T09:36:53.000Z</time>
      </trkpt>
      <trkpt lat="43.17221" lon="2.35403">
        <ele>172</ele>
        <time>2022-01-23T09:36:54.000Z</time>
      </trkpt>
      <trkpt lat="43.17223" lon="2.35405">
        <ele>171.6</ele>
        <time>2022-01-23T09:36:55.000Z</time>
      </trkpt>
      <trkpt lat="43.17226" lon="2.35407">
        <ele>171.2</ele>
        <time>2022-01-23T09:36:56.000Z</time>
      </trkpt>
      <trkpt lat="43.17229" lon="2.35409">
        <ele>170.8</ele>
        <time>2022-01-23T09:36:57.000Z</time>
      </trkpt>
      <trkpt lat="43.17231" lon="2.3541">
        <ele>170.5</ele>
        <time>2022-01-23T09:36:58.000Z</time>
      </trkpt>
      <trkpt lat="43.17234" lon="2.35412">
        <ele>170.1</ele>
        <time>2022-01-23T09:36:59.000Z</time>
      </trkpt>
      <trkpt lat="43.17236" lon="2.35414">
        <ele>169.7</ele>
        <time>2022-01-23T09:37:00.000Z</time>
      </trkpt>
      <trkpt lat="43.17239" lon="2.35415">
        <ele>169.4</ele>
        <time>2022-01-23T09:37:01.000Z</time>
      </trkpt>
      <trkpt lat="43.17242" lon="2.35417">
        <ele>169</ele>
        <time>2022-01-23T09:37:02.000Z</time>
      </trkpt>
      <trkpt lat="43.17244" lon="2.35419">
        <ele>168.7</ele>
        <time>2022-01-23T09:37:03.000Z</time>
      </trkpt>
      <trkpt lat="43.17247" lon="2.3542">
        <ele>168.3</ele>
        <time>2022-01-23T09:37:04.000Z</time>
      </trkpt>
      <trkpt lat="43.1725" lon="2.35422">
        <ele>168</ele>
        <time>2022-01-23T09:37:05.000Z</time>
      </trkpt>
      <trkpt lat="43.17252" lon="2.35424">
        <ele>167.7</ele>
        <time>2022-01-23T09:37:06.000Z</time>
      </trkpt>
      <trkpt lat="43.17255" lon="2.35426">
        <ele>167.5</ele>
        <time>2022-01-23T09:37:07.000Z</time>
      </trkpt>
      <trkpt lat="43.17258" lon="2.35428">
        <ele>167.2</ele>
        <time>2022-01-23T09:37:08.000Z</time>
      </trkpt>
      <trkpt lat="43.17261" lon="2.35429">
        <ele>166.9</ele>
        <time>2022-01-23T09:37:09.000Z</time>
      </trkpt>
      <trkpt lat="43.17263" lon="2.35431">
        <ele>166.6</ele>
        <time>2022-01-23T09:37:10.000Z</time>
      </trkpt>
      <trkpt lat="43.17266" lon="2.35433">
        <ele>166.3</ele>
        <time>2022-01-23T09:37:11.000Z</time>
      </trkpt>
      <trkpt lat="43.17269" lon="2.35435">
        <ele>166</ele>
        <time>2022-01-23T09:37:12.000Z</time>
      </trkpt>
      <trkpt lat="43.17272" lon="2.35437">
        <ele>165.8</ele>
        <time>2022-01-23T09:37:13.000Z</time>
      </trkpt>
      <trkpt lat="43.17274" lon="2.35438">
        <ele>165.5</ele>
        <time>2022-01-23T09:37:14.000Z</time>
      </trkpt>
      <trkpt lat="43.17277" lon="2.3544">
        <ele>165.2</ele>
        <time>2022-01-23T09:37:15.000Z</time>
      </trkpt>
      <trkpt lat="43.17279" lon="2.35442">
        <ele>164.9</ele>
        <time>2022-01-23T09:37:16.000Z</time>
      </trkpt>
      <trkpt lat="43.17282" lon="2.35443">
        <ele>164.7</ele>
        <time>2022-01-23T09:37:17.000Z</time>
      </trkpt>
      <trkpt lat="43.17284" lon="2.35445">
        <ele>164.4</ele>
        <time>2022-01-23T09:37:18.000Z</time>
      </trkpt>
      <trkpt lat="43.17287" lon="2.35447">
        <ele>164.1</ele>
        <time>2022-01-23T09:37:19.000Z</time>
      </trkpt>
      <trkpt lat="43.17289" lon="2.35448">
        <ele>163.8</ele>
        <time>2022-01-23T09:37:20.000Z</time>
      </trkpt>
      <trkpt lat="43.17292" lon="2.3545">
        <ele>163.5</ele>
        <time>2022-01-23T09:37:21.000Z</time>
      </trkpt>
      <trkpt lat="43.17295" lon="2.35452">
        <ele>163.2</ele>
        <time>2022-01-23T09:37:22.000Z</time>
      </trkpt>
      <trkpt lat="43.17297" lon="2.35454">
        <ele>162.8</ele>
        <time>2022-01-23T09:37:23.000Z</time>
      </trkpt>
      <trkpt lat="43.173" lon="2.35456">
        <ele>162.5</ele>
        <time>2022-01-23T09:37:24.000Z</time>
      </trkpt>
      <trkpt lat="43.17303" lon="2.35458">
        <ele>162.1</ele>
        <time>2022-01-23T09:37:25.000Z</time>
      </trkpt>
      <trkpt lat="43.17305" lon="2.3546">
        <ele>161.8</ele>
        <time>2022-01-23T09:37:26.000Z</time>
      </trkpt>
      <trkpt lat="43.17308" lon="2.35463">
        <ele>161.5</ele>
        <time>2022-01-23T09:37:27.000Z</time>
      </trkpt>
      <trkpt lat="43.1731" lon="2.35465">
        <ele>161.2</ele>
        <time>2022-01-23T09:37:28.000Z</time>
      </trkpt>
      <trkpt lat="43.17311" lon="2.35469">
        <ele>160.9</ele>
        <time>2022-01-23T09:37:29.000Z</time>
      </trkpt>
      <trkpt lat="43.17313" lon="2.35472">
        <ele>160.6</ele>
        <time>2022-01-23T09:37:30.000Z</time>
      </trkpt>
      <trkpt lat="43.17314" lon="2.35476">
        <ele>160.3</ele>
        <time>2022-01-23T09:37:31.000Z</time>
      </trkpt>
      <trkpt lat="43.17315" lon="2.35479">
        <ele>160</ele>
        <time>2022-01-23T09:37:32.000Z</time>
      </trkpt>
      <trkpt lat="43.17316" lon="2.35483">
        <ele>159.7</ele>
        <time>2022-01-23T09:37:33.000Z</time>
      </trkpt>
      <trkpt lat="43.17317" lon="2.35487">
        <ele>159.5</ele>
        <time>2022-01-23T09:37:34.000Z</time>
      </trkpt>
      <trkpt lat="43.17318" lon="2.35492">
        <ele>159.2</ele>
        <time>2022-01-23T09:37:35.000Z</time>
      </trkpt>
      <trkpt lat="43.17319" lon="2.35496">
        <ele>158.9</ele>
        <time>2022-01-23T09:37:36.000Z</time>
      </trkpt>
      <trkpt lat="43.1732" lon="2.355">
        <ele>158.7</ele>
        <time>2022-01-23T09:37:37.000Z</time>
      </trkpt>
      <trkpt lat="43.1732" lon="2.35503">
        <ele>158.4</ele>
        <time>2022-01-23T09:37:38.000Z</time>
      </trkpt>
      <trkpt lat="43.17321" lon="2.35507">
        <ele>158.1</ele>
        <time>2022-01-23T09:37:39.000Z</time>
      </trkpt>
      <trkpt lat="43.17323" lon="2.3551">
        <ele>157.8</ele>
        <time>2022-01-23T09:37:40.000Z</time>
      </trkpt>
      <trkpt lat="43.17324" lon="2.35513">
        <ele>157.5</ele>
        <time>2022-01-23T09:37:41.000Z</time>
      </trkpt>
      <trkpt lat="43.17326" lon="2.35516">
        <ele>157.2</ele>
        <time>2022-01-23T09:37:42.000Z</time>
      </trkpt>
      <trkpt lat="43.17328" lon="2.35518">
        <ele>156.8</ele>
        <time>2022-01-23T09:37:43.000Z</time>
      </trkpt>
      <trkpt lat="43.17331" lon="2.3552">
        <ele>156.4</ele>
        <time>2022-01-23T09:37:44.000Z</time>
      </trkpt>
      <trkpt lat="43.17333" lon="2.35522">
        <ele>156</ele>
        <time>2022-01-23T09:37:45.000Z</time>
      </trkpt>
      <trkpt lat="43.17336" lon="2.35524">
        <ele>155.7</ele>
        <time>2022-01-23T09:37:46.000Z</time>
      </trkpt>
      <trkpt lat="43.17339" lon="2.35526">
        <ele>155.5</ele>
        <time>2022-01-23T09:37:47.000Z</time>
      </trkpt>
      <trkpt lat="43.17342" lon="2.35527">
        <ele>155.2</ele>
        <time>2022-01-23T09:37:48.000Z</time>
      </trkpt>
      <trkpt lat="43.17344" lon="2.35529">
        <ele>155</ele>
        <time>2022-01-23T09:37:49.000Z</time>
      </trkpt>
      <trkpt lat="43.17347" lon="2.35531">
        <ele>154.7</ele>
        <time>2022-01-23T09:37:50.000Z</time>
      </trkpt>
      <trkpt lat="43.1735" lon="2.35532">
        <ele>154.5</ele>
        <time>2022-01-23T09:37:51.000Z</time>
      </trkpt>
      <trkpt lat="43.17353" lon="2.35534">
        <ele>154.3</ele>
        <time>2022-01-23T09:37:52.000Z</time>
      </trkpt>
      <trkpt lat="43.17356" lon="2.35536">
        <ele>154</ele>
        <time>2022-01-23T09:37:53.000Z</time>
      </trkpt>
      <trkpt lat="43.17359" lon="2.35537">
        <ele>153.8</ele>
        <time>2022-01-23T09:37:54.000Z</time>
      </trkpt>
      <trkpt lat="43.17361" lon="2.35539">
        <ele>153.6</ele>
        <time>2022-01-23T09:37:55.000Z</time>
      </trkpt>
      <trkpt lat="43.17364" lon="2.35541">
        <ele>153.4</ele>
        <time>2022-01-23T09:37:56.000Z</time>
      </trkpt>
      <trkpt lat="43.17367" lon="2.35542">
        <ele>153.2</ele>
        <time>2022-01-23T09:37:57.000Z</time>
      </trkpt>
      <trkpt lat="43.1737" lon="2.35544">
        <ele>153</ele>
        <time>2022-01-23T09:37:58.000Z</time>
      </trkpt>
      <trkpt lat="43.17373" lon="2.35546">
        <ele>152.8</ele>
        <time>2022-01-23T09:37:59.000Z</time>
      </trkpt>
      <trkpt lat="43.17375" lon="2.35548">
        <ele>152.6</ele>
        <time>2022-01-23T09:38:00.000Z</time>
      </trkpt>
      <trkpt lat="43.17378" lon="2.35549">
        <ele>152.4</ele>
        <time>2022-01-23T09:38:01.000Z</time>
      </trkpt>
      <trkpt lat="43.17381" lon="2.35551">
        <ele>152.2</ele>
        <time>2022-01-23T09:38:02.000Z</time>
      </trkpt>
      <trkpt lat="43.17384" lon="2.35553">
        <ele>152</ele>
        <time>2022-01-23T09:38:03.000Z</time>
      </trkpt>
      <trkpt lat="43.17386" lon="2.35555">
        <ele>151.8</ele>
        <time>2022-01-23T09:38:04.000Z</time>
      </trkpt>
      <trkpt lat="43.17389" lon="2.35557">
        <ele>151.6</ele>
        <time>2022-01-23T09:38:05.000Z</time>
      </trkpt>
      <trkpt lat="43.17392" lon="2.35558">
        <ele>151.5</ele>
        <time>2022-01-23T09:38:06.000Z</time>
      </trkpt>
      <trkpt lat="43.17394" lon="2.3556">
        <ele>151.3</ele>
        <time>2022-01-23T09:38:07.000Z</time>
      </trkpt>
      <trkpt lat="43.17397" lon="2.35562">
        <ele>151.2</ele>
        <time>2022-01-23T09:38:08.000Z</time>
      </trkpt>
      <trkpt lat="43.17399" lon="2.35564">
        <ele>151</ele>
        <time>2022-01-23T09:38:09.000Z</time>
      </trkpt>
      <trkpt lat="43.17402" lon="2.35566">
        <ele>150.9</ele>
        <time>2022-01-23T09:38:10.000Z</time>
      </trkpt>
      <trkpt lat="43.17404" lon="2.35568">
        <ele>150.7</ele>
        <time>2022-01-23T09:38:11.000Z</time>
      </trkpt>
      <trkpt lat="43.17407" lon="2.3557">
        <ele>150.6</ele>
        <time>2022-01-23T09:38:12.000Z</time>
      </trkpt>
      <trkpt lat="43.17409" lon="2.35572">
        <ele>150.4</ele>
        <time>2022-01-23T09:38:13.000Z</time>
      </trkpt>
      <trkpt lat="43.17412" lon="2.35574">
        <ele>150.3</ele>
        <time>2022-01-23T09:38:14.000Z</time>
      </trkpt>
      <trkpt lat="43.17414" lon="2.35576">
        <ele>150.2</ele>
        <time>2022-01-23T09:38:15.000Z</time>
      </trkpt>
      <trkpt lat="43.17417" lon="2.35578">
        <ele>150.1</ele>
        <time>2022-01-23T09:38:16.000Z</time>
      </trkpt>
      <trkpt lat="43.17419" lon="2.3558">
        <ele>150</ele>
        <time>2022-01-23T09:38:17.000Z</time>
      </trkpt>
      <trkpt lat="43.17421" lon="2.35582">
        <ele>149.9</ele>
        <time>2022-01-23T09:38:18.000Z</time>
      </trkpt>
      <trkpt lat="43.17424" lon="2.35584">
        <ele>149.8</ele>
        <time>2022-01-23T09:38:19.000Z</time>
      </trkpt>
      <trkpt lat="43.17426" lon="2.35585">
        <ele>149.7</ele>
        <time>2022-01-23T09:38:20.000Z</time>
      </trkpt>
      <trkpt lat="43.17428" lon="2.35587">
        <ele>149.6</ele>
        <time>2022-01-23T09:38:21.000Z</time>
      </trkpt>
      <trkpt lat="43.1743" lon="2.35589">
        <ele>149.5</ele>
        <time>2022-01-23T09:38:22.000Z</time>
      </trkpt>
      <trkpt lat="43.17433" lon="2.35591">
        <ele>149.4</ele>
        <time>2022-01-23T09:38:23.000Z</time>
      </trkpt>
      <trkpt lat="43.17435" lon="2.35593">
        <ele>149.3</ele>
        <time>2022-01-23T09:38:24.000Z</time>
      </trkpt>
      <trkpt lat="43.17437" lon="2.35595">
        <ele>149.2</ele>
        <time>2022-01-23T09:38:25.000Z</time>
      </trkpt>
      <trkpt lat="43.17439" lon="2.35596">
        <ele>149.2</ele>
        <time>2022-01-23T09:38:26.000Z</time>
      </trkpt>
      <trkpt lat="43.17441" lon="2.35598">
        <ele>149.1</ele>
        <time>2022-01-23T09:38:27.000Z</time>
      </trkpt>
      <trkpt lat="43.17443" lon="2.356">
        <ele>149</ele>
        <time>2022-01-23T09:38:28.000Z</time>
      </trkpt>
      <trkpt lat="43.17445" lon="2.35602">
        <ele>148.9</ele>
        <time>2022-01-23T09:38:29.000Z</time>
      </trkpt>
      <trkpt lat="43.17447" lon="2.35603">
        <ele>148.8</ele>
        <time>2022-01-23T09:38:30.000Z</time>
      </trkpt>
      <trkpt lat="43.17449" lon="2.35605">
        <ele>148.7</ele>
        <time>2022-01-23T09:38:31.000Z</time>
      </trkpt>
      <trkpt lat="43.17452" lon="2.35607">
        <ele>148.6</ele>
        <time>2022-01-23T09:38:32.000Z</time>
      </trkpt>
      <trkpt lat="43.17454" lon="2.35609">
        <ele>148.5</ele>
        <time>2022-01-23T09:38:33.000Z</time>
      </trkpt>
      <trkpt lat="43.17456" lon="2.3561">
        <ele>148.4</ele>
        <time>2022-01-23T09:38:34.000Z</time>
      </trkpt>
      <trkpt lat="43.17458" lon="2.35612">
        <ele>148.3</ele>
        <time>2022-01-23T09:38:35.000Z</time>
      </trkpt>
      <trkpt lat="43.1746" lon="2.35614">
        <ele>148.2</ele>
        <time>2022-01-23T09:38:36.000Z</time>
      </trkpt>
      <trkpt lat="43.17462" lon="2.35615">
        <ele>148.1</ele>
        <time>2022-01-23T09:38:37.000Z</time>
      </trkpt>
      <trkpt lat="43.17464" lon="2.35617">
        <ele>148.1</ele>
        <time>2022-01-23T09:38:38.000Z</time>
      </trkpt>
      <trkpt lat="43.17466" lon="2.35619">
        <ele>148</ele>
        <time>2022-01-23T09:38:39.000Z</time>
      </trkpt>
      <trkpt lat="43.17468" lon="2.35621">
        <ele>147.9</ele>
        <time>2022-01-23T09:38:40.000Z</time>
      </trkpt>
      <trkpt lat="43.1747" lon="2.35622">
        <ele>147.8</ele>
        <time>2022-01-23T09:38:41.000Z</time>
      </trkpt>
      <trkpt lat="43.17473" lon="2.35624">
        <ele>147.7</ele>
        <time>2022-01-23T09:38:42.000Z</time>
      </trkpt>
      <trkpt lat="43.17475" lon="2.35626">
        <ele>147.6</ele>
        <time>2022-01-23T09:38:43.000Z</time>
      </trkpt>
      <trkpt lat="43.17477" lon="2.35628">
        <ele>147.5</ele>
        <time>2022-01-23T09:38:44.000Z</time>
      </trkpt>
      <trkpt lat="43.17479" lon="2.35629">
        <ele>147.4</ele>
        <time>2022-01-23T09:38:45.000Z</time>
      </trkpt>
      <trkpt lat="43.17482" lon="2.35631">
        <ele>147.3</ele>
        <time>2022-01-23T09:38:46.000Z</time>
      </trkpt>
      <trkpt lat="43.17484" lon="2.35633">
        <ele>147.2</ele>
        <time>2022-01-23T09:38:47.000Z</time>
      </trkpt>
      <trkpt lat="43.17486" lon="2.35635">
        <ele>147.1</ele>
        <time>2022-01-23T09:38:48.000Z</time>
      </trkpt>
      <trkpt lat="43.17489" lon="2.35636">
        <ele>147</ele>
        <time>2022-01-23T09:38:49.000Z</time>
      </trkpt>
      <trkpt lat="43.17491" lon="2.35638">
        <ele>146.9</ele>
        <time>2022-01-23T09:38:50.000Z</time>
      </trkpt>
      <trkpt lat="43.17494" lon="2.3564">
        <ele>146.8</ele>
        <time>2022-01-23T09:38:51.000Z</time>
      </trkpt>
      <trkpt lat="43.17496" lon="2.35642">
        <ele>146.7</ele>
        <time>2022-01-23T09:38:52.000Z</time>
      </trkpt>
      <trkpt lat="43.17498" lon="2.35643">
        <ele>146.6</ele>
        <time>2022-01-23T09:38:53.000Z</time>
      </trkpt>
      <trkpt lat="43.17501" lon="2.35645">
        <ele>146.5</ele>
        <time>2022-01-23T09:38:54.000Z</time>
      </trkpt>
      <trkpt lat="43.17503" lon="2.35646">
        <ele>146.4</ele>
        <time>2022-01-23T09:38:55.000Z</time>
      </trkpt>
      <trkpt lat="43.17506" lon="2.35648">
        <ele>146.3</ele>
        <time>2022-01-23T09:38:56.000Z</time>
      </trkpt>
      <trkpt lat="43.17508" lon="2.35649">
        <ele>146.1</ele>
        <time>2022-01-23T09:38:57.000Z</time>
      </trkpt>
      <trkpt lat="43.17511" lon="2.35651">
        <ele>146</ele>
        <time>2022-01-23T09:38:58.000Z</time>
      </trkpt>
      <trkpt lat="43.17513" lon="2.35652">
        <ele>145.9</ele>
        <time>2022-01-23T09:38:59.000Z</time>
      </trkpt>
      <trkpt lat="43.17516" lon="2.35653">
        <ele>145.8</ele>
        <time>2022-01-23T09:39:00.000Z</time>
      </trkpt>
      <trkpt lat="43.17518" lon="2.35654">
        <ele>145.7</ele>
        <time>2022-01-23T09:39:01.000Z</time>
      </trkpt>
      <trkpt lat="43.17521" lon="2.35656">
        <ele>145.6</ele>
        <time>2022-01-23T09:39:02.000Z</time>
      </trkpt>
      <trkpt lat="43.17523" lon="2.35657">
        <ele>145.4</ele>
        <time>2022-01-23T09:39:03.000Z</time>
      </trkpt>
      <trkpt lat="43.17526" lon="2.35658">
        <ele>145.3</ele>
        <time>2022-01-23T09:39:04.000Z</time>
      </trkpt>
      <trkpt lat="43.17528" lon="2.35659">
        <ele>145.2</ele>
        <time>2022-01-23T09:39:05.000Z</time>
      </trkpt>
      <trkpt lat="43.17531" lon="2.3566">
        <ele>145.1</ele>
        <time>2022-01-23T09:39:06.000Z</time>
      </trkpt>
      <trkpt lat="43.17533" lon="2.35662">
        <ele>144.9</ele>
        <time>2022-01-23T09:39:07.000Z</time>
      </trkpt>
      <trkpt lat="43.17536" lon="2.35663">
        <ele>144.8</ele>
        <time>2022-01-23T09:39:08.000Z</time>
      </trkpt>
      <trkpt lat="43.17538" lon="2.35664">
        <ele>144.7</ele>
        <time>2022-01-23T09:39:09.000Z</time>
      </trkpt>
      <trkpt lat="43.17541" lon="2.35665">
        <ele>144.6</ele>
        <time>2022-01-23T09:39:10.000Z</time>
      </trkpt>
      <trkpt lat="43.17543" lon="2.35666">
        <ele>144.5</ele>
        <time>2022-01-23T09:39:11.000Z</time>
      </trkpt>
      <trkpt lat="43.17546" lon="2.35667">
        <ele>144.3</ele>
        <time>2022-01-23T09:39:12.000Z</time>
      </trkpt>
      <trkpt lat="43.17549" lon="2.35668">
        <ele>144.2</ele>
        <time>2022-01-23T09:39:13.000Z</time>
      </trkpt>
      <trkpt lat="43.17552" lon="2.3567">
        <ele>144.1</ele>
        <time>2022-01-23T09:39:14.000Z</time>
      </trkpt>
      <trkpt lat="43.17554" lon="2.35671">
        <ele>144</ele>
        <time>2022-01-23T09:39:15.000Z</time>
      </trkpt>
      <trkpt lat="43.17557" lon="2.35672">
        <ele>143.9</ele>
        <time>2022-01-23T09:39:16.000Z</time>
      </trkpt>
      <trkpt lat="43.1756" lon="2.35673">
        <ele>143.8</ele>
        <time>2022-01-23T09:39:17.000Z</time>
      </trkpt>
      <trkpt lat="43.17563" lon="2.35675">
        <ele>143.6</ele>
        <time>2022-01-23T09:39:18.000Z</time>
      </trkpt>
      <trkpt lat="43.17566" lon="2.35676">
        <ele>143.5</ele>
        <time>2022-01-23T09:39:19.000Z</time>
      </trkpt>
      <trkpt lat="43.17569" lon="2.35677">
        <ele>143.4</ele>
        <time>2022-01-23T09:39:20.000Z</time>
      </trkpt>
      <trkpt lat="43.17572" lon="2.35678">
        <ele>143.3</ele>
        <time>2022-01-23T09:39:21.000Z</time>
      </trkpt>
      <trkpt lat="43.17575" lon="2.3568">
        <ele>143.2</ele>
        <time>2022-01-23T09:39:22.000Z</time>
      </trkpt>
      <trkpt lat="43.17577" lon="2.35681">
        <ele>143</ele>
        <time>2022-01-23T09:39:23.000Z</time>
      </trkpt>
      <trkpt lat="43.1758" lon="2.35682">
        <ele>142.9</ele>
        <time>2022-01-23T09:39:24.000Z</time>
      </trkpt>
      <trkpt lat="43.17583" lon="2.35683">
        <ele>142.8</ele>
        <time>2022-01-23T09:39:25.000Z</time>
      </trkpt>
      <trkpt lat="43.17585" lon="2.35684">
        <ele>142.7</ele>
        <time>2022-01-23T09:39:26.000Z</time>
      </trkpt>
      <trkpt lat="43.17588" lon="2.35685">
        <ele>142.6</ele>
        <time>2022-01-23T09:39:27.000Z</time>
      </trkpt>
      <trkpt lat="43.1759" lon="2.35685">
        <ele>142.5</ele>
        <time>2022-01-23T09:39:28.000Z</time>
      </trkpt>
      <trkpt lat="43.17593" lon="2.35686">
        <ele>142.5</ele>
        <time>2022-01-23T09:39:29.000Z</time>
      </trkpt>
      <trkpt lat="43.17595" lon="2.35686">
        <ele>142.4</ele>
        <time>2022-01-23T09:39:30.000Z</time>
      </trkpt>
      <trkpt lat="43.17597" lon="2.35687">
        <ele>142.3</ele>
        <time>2022-01-23T09:39:31.000Z</time>
      </trkpt>
      <trkpt lat="43.17598" lon="2.35687">
        <ele>142.3</ele>
        <time>2022-01-23T09:39:32.000Z</time>
      </trkpt>
      <trkpt lat="43.176" lon="2.35687">
        <ele>142.2</ele>
        <time>2022-01-23T09:39:33.000Z</time>
      </trkpt>
      <trkpt lat="43.17601" lon="2.35687">
        <ele>142.2</ele>
        <time>2022-01-23T09:39:34.000Z</time>
      </trkpt>
      <trkpt lat="43.17602" lon="2.35687">
        <ele>142.1</ele>
        <time>2022-01-23T09:39:35.000Z</time>
      </trkpt>
      <trkpt lat="43.17603" lon="2.35687">
        <ele>142.1</ele>
        <time>2022-01-23T09:39:36.000Z</time>
      </trkpt>
      <trkpt lat="43.17603" lon="2.35687">
        <ele>142.1</ele>
        <time>2022-01-23T09:39:37.000Z</time>
      </trkpt>
      <trkpt lat="43.17603" lon="2.35687">
        <ele>142.1</ele>
        <time>2022-01-23T09:39:38.000Z</time>
      </trkpt>
      <trkpt lat="43.17603" lon="2.35687">
        <ele>142.1</ele>
        <time>2022-01-23T09:39:39.000Z</time>
      </trkpt>
      <trkpt lat="43.17603" lon="2.35687">
        <ele>142.1</ele>
        <time>2022-01-23T09:39:40.000Z</time>
      </trkpt>
      <trkpt lat="43.17603" lon="2.35687">
        <ele>142.1</ele>
        <time>2022-01-23T09:39:41.000Z</time>
      </trkpt>
      <trkpt lat="43.17603" lon="2.35688">
        <ele>142.1</ele>
        <time>2022-01-23T09:39:42.000Z</time>
      </trkpt>
      <trkpt lat="43.17603" lon="2.35688">
        <ele>142.1</ele>
        <time>2022-01-23T09:39:43.000Z</time>
      </trkpt>
      <trkpt lat="43.17602" lon="2.35689">
        <ele>142.1</ele>
        <time>2022-01-23T09:39:44.000Z</time>
      </trkpt>
      <trkpt lat="43.17601" lon="2.35689">
        <ele>142.1</ele>
        <time>2022-01-23T09:39:45.000Z</time>
      </trkpt>
      <trkpt lat="43.17599" lon="2.35689">
        <ele>142.2</ele>
        <time>2022-01-23T09:39:46.000Z</time>
      </trkpt>
      <trkpt lat="43.17597" lon="2.35689">
        <ele>142.3</ele>
        <time>2022-01-23T09:39:47.000Z</time>
      </trkpt>
      <trkpt lat="43.17595" lon="2.35688">
        <ele>142.4</ele>
        <time>2022-01-23T09:39:48.000Z</time>
      </trkpt>
      <trkpt lat="43.17592" lon="2.35687">
        <ele>142.5</ele>
        <time>2022-01-23T09:39:49.000Z</time>
      </trkpt>
      <trkpt lat="43.17589" lon="2.35687">
        <ele>142.6</ele>
        <time>2022-01-23T09:39:50.000Z</time>
      </trkpt>
      <trkpt lat="43.17586" lon="2.35686">
        <ele>142.7</ele>
        <time>2022-01-23T09:39:51.000Z</time>
      </trkpt>
      <trkpt lat="43.17582" lon="2.35685">
        <ele>142.8</ele>
        <time>2022-01-23T09:39:52.000Z</time>
      </trkpt>
      <trkpt lat="43.17579" lon="2.35684">
        <ele>142.9</ele>
        <time>2022-01-23T09:39:53.000Z</time>
      </trkpt>
      <trkpt lat="43.17576" lon="2.35684">
        <ele>143.1</ele>
        <time>2022-01-23T09:39:54.000Z</time>
      </trkpt>
      <trkpt lat="43.17573" lon="2.35683">
        <ele>143.2</ele>
        <time>2022-01-23T09:39:55.000Z</time>
      </trkpt>
      <trkpt lat="43.1757" lon="2.35682">
        <ele>143.3</ele>
        <time>2022-01-23T09:39:56.000Z</time>
      </trkpt>
      <trkpt lat="43.17567" lon="2.35682">
        <ele>143.4</ele>
        <time>2022-01-23T09:39:57.000Z</time>
      </trkpt>
      <trkpt lat="43.17565" lon="2.35681">
        <ele>143.5</ele>
        <time>2022-01-23T09:39:58.000Z</time>
      </trkpt>
      <trkpt lat="43.17562" lon="2.3568">
        <ele>143.6</ele>
        <time>2022-01-23T09:39:59.000Z</time>
      </trkpt>
      <trkpt lat="43.17559" lon="2.35679">
        <ele>143.7</ele>
        <time>2022-01-23T09:40:00.000Z</time>
      </trkpt>
      <trkpt lat="43.17557" lon="2.35678">
        <ele>143.8</ele>
        <time>2022-01-23T09:40:01.000Z</time>
      </trkpt>
      <trkpt lat="43.17554" lon="2.35677">
        <ele>143.9</ele>
        <time>2022-01-23T09:40:02.000Z</time>
      </trkpt>
      <trkpt lat="43.17552" lon="2.35675">
        <ele>144</ele>
        <time>2022-01-23T09:40:03.000Z</time>
      </trkpt>
      <trkpt lat="43.1755" lon="2.35674">
        <ele>144.1</ele>
        <time>2022-01-23T09:40:04.000Z</time>
      </trkpt>
      <trkpt lat="43.17547" lon="2.35673">
        <ele>144.2</ele>
        <time>2022-01-23T09:40:05.000Z</time>
      </trkpt>
      <trkpt lat="43.17545" lon="2.35672">
        <ele>144.3</ele>
        <time>2022-01-23T09:40:06.000Z</time>
      </trkpt>
      <trkpt lat="43.17543" lon="2.35671">
        <ele>144.4</ele>
        <time>2022-01-23T09:40:07.000Z</time>
      </trkpt>
      <trkpt lat="43.17542" lon="2.3567">
        <ele>144.5</ele>
        <time>2022-01-23T09:40:08.000Z</time>
      </trkpt>
      <trkpt lat="43.1754" lon="2.35669">
        <ele>144.5</ele>
        <time>2022-01-23T09:40:09.000Z</time>
      </trkpt>
      <trkpt lat="43.17538" lon="2.35668">
        <ele>144.6</ele>
        <time>2022-01-23T09:40:10.000Z</time>
      </trkpt>
      <trkpt lat="43.17537" lon="2.35667">
        <ele>144.7</ele>
        <time>2022-01-23T09:40:11.000Z</time>
      </trkpt>
      <trkpt lat="43.17537" lon="2.35667">
        <ele>144.7</ele>
        <time>2022-01-23T09:40:12.000Z</time>
      </trkpt>
      <trkpt lat="43.17536" lon="2.35666">
        <ele>144.7</ele>
        <time>2022-01-23T09:40:13.000Z</time>
      </trkpt>
      <trkpt lat="43.17535" lon="2.35666">
        <ele>144.7</ele>
        <time>2022-01-23T09:40:14.000Z</time>
      </trkpt>
      <trkpt lat="43.17535" lon="2.35666">
        <ele>144.8</ele>
        <time>2022-01-23T09:40:15.000Z</time>
      </trkpt>
      <trkpt lat="43.17534" lon="2.35665">
        <ele>144.8</ele>
        <time>2022-01-23T09:40:16.000Z</time>
      </trkpt>
      <trkpt lat="43.17532" lon="2.35665">
        <ele>144.9</ele>
        <time>2022-01-23T09:40:17.000Z</time>
      </trkpt>
      <trkpt lat="43.17531" lon="2.35664">
        <ele>144.9</ele>
        <time>2022-01-23T09:40:18.000Z</time>
      </trkpt>
      <trkpt lat="43.1753" lon="2.35664">
        <ele>145</ele>
        <time>2022-01-23T09:40:19.000Z</time>
      </trkpt>
      <trkpt lat="43.1753" lon="2.35663">
        <ele>145</ele>
        <time>2022-01-23T09:40:20.000Z</time>
      </trkpt>
      <trkpt lat="43.1753" lon="2.35663">
        <ele>145</ele>
        <time>2022-01-23T09:40:21.000Z</time>
      </trkpt>
      <trkpt lat="43.1753" lon="2.35663">
        <ele>145</ele>
        <time>2022-01-23T09:40:22.000Z</time>
      </trkpt>
      <trkpt lat="43.17531" lon="2.35663">
        <ele>145</ele>
        <time>2022-01-23T09:40:23.000Z</time>
      </trkpt>
      <trkpt lat="43.17532" lon="2.35663">
        <ele>144.9</ele>
        <time>2022-01-23T09:40:24.000Z</time>
      </trkpt>
      <trkpt lat="43.17534" lon="2.35663">
        <ele>144.9</ele>
        <time>2022-01-23T09:40:25.000Z</time>
      </trkpt>
      <trkpt lat="43.17536" lon="2.35664">
        <ele>144.8</ele>
        <time>2022-01-23T09:40:26.000Z</time>
      </trkpt>
      <trkpt lat="43.17538" lon="2.35665">
        <ele>144.7</ele>
        <time>2022-01-23T09:40:27.000Z</time>
      </trkpt>
      <trkpt lat="43.1754" lon="2.35667">
        <ele>144.6</ele>
        <time>2022-01-23T09:40:28.000Z</time>
      </trkpt>
      <trkpt lat="43.17542" lon="2.35668">
        <ele>144.5</ele>
        <time>2022-01-23T09:40:29.000Z</time>
      </trkpt>
      <trkpt lat="43.17545" lon="2.35669">
        <ele>144.4</ele>
        <time>2022-01-23T09:40:30.000Z</time>
      </trkpt>
      <trkpt lat="43.17547" lon="2.35671">
        <ele>144.3</ele>
        <time>2022-01-23T09:40:31.000Z</time>
      </trkpt>
      <trkpt lat="43.1755" lon="2.35672">
        <ele>144.1</ele>
        <time>2022-01-23T09:40:32.000Z</time>
      </trkpt>
      <trkpt lat="43.17553" lon="2.35673">
        <ele>144</ele>
        <time>2022-01-23T09:40:33.000Z</time>
      </trkpt>
      <trkpt lat="43.17555" lon="2.35675">
        <ele>143.9</ele>
        <time>2022-01-23T09:40:34.000Z</time>
      </trkpt>
      <trkpt lat="43.17558" lon="2.35676">
        <ele>143.8</ele>
        <time>2022-01-23T09:40:35.000Z</time>
      </trkpt>
      <trkpt lat="43.17561" lon="2.35677">
        <ele>143.7</ele>
        <time>2022-01-23T09:40:36.000Z</time>
      </trkpt>
      <trkpt lat="43.17563" lon="2.35678">
        <ele>143.6</ele>
        <time>2022-01-23T09:40:37.000Z</time>
      </trkpt>
      <trkpt lat="43.17566" lon="2.35679">
        <ele>143.5</ele>
        <time>2022-01-23T09:40:38.000Z</time>
      </trkpt>
      <trkpt lat="43.17569" lon="2.3568">
        <ele>143.4</ele>
        <time>2022-01-23T09:40:39.000Z</time>
      </trkpt>
      <trkpt lat="43.17571" lon="2.3568">
        <ele>143.3</ele>
        <time>2022-01-23T09:40:40.000Z</time>
      </trkpt>
      <trkpt lat="43.17574" lon="2.35681">
        <ele>143.2</ele>
        <time>2022-01-23T09:40:41.000Z</time>
      </trkpt>
      <trkpt lat="43.17577" lon="2.35682">
        <ele>143.1</ele>
        <time>2022-01-23T09:40:42.000Z</time>
      </trkpt>
      <trkpt lat="43.1758" lon="2.35683">
        <ele>142.9</ele>
        <time>2022-01-23T09:40:43.000Z</time>
      </trkpt>
      <trkpt lat="43.17582" lon="2.35683">
        <ele>142.8</ele>
        <time>2022-01-23T09:40:44.000Z</time>
      </trkpt>
      <trkpt lat="43.17585" lon="2.35684">
        <ele>142.7</ele>
        <time>2022-01-23T09:40:45.000Z</time>
      </trkpt>
      <trkpt lat="43.17588" lon="2.35685">
        <ele>142.6</ele>
        <time>2022-01-23T09:40:46.000Z</time>
      </trkpt>
      <trkpt lat="43.1759" lon="2.35685">
        <ele>142.5</ele>
        <time>2022-01-23T09:40:47.000Z</time>
      </trkpt>
      <trkpt lat="43.17593" lon="2.35686">
        <ele>142.4</ele>
        <time>2022-01-23T09:40:48.000Z</time>
      </trkpt>
      <trkpt lat="43.17596" lon="2.35687">
        <ele>142.4</ele>
        <time>2022-01-23T09:40:49.000Z</time>
      </trkpt>
      <trkpt lat="43.17598" lon="2.35688">
        <ele>142.3</ele>
        <time>2022-01-23T09:40:50.000Z</time>
      </trkpt>
      <trkpt lat="43.176" lon="2.35688">
        <ele>142.2</ele>
        <time>2022-01-23T09:40:51.000Z</time>
      </trkpt>
      <trkpt lat="43.17602" lon="2.35687">
        <ele>142.1</ele>
        <time>2022-01-23T09:40:52.000Z</time>
      </trkpt>
      <trkpt lat="43.17603" lon="2.35684">
        <ele>142.1</ele>
        <time>2022-01-23T09:40:53.000Z</time>
      </trkpt>
      <trkpt lat="43.17604" lon="2.35681">
        <ele>142.1</ele>
        <time>2022-01-23T09:40:54.000Z</time>
      </trkpt>
      <trkpt lat="43.17603" lon="2.35677">
        <ele>142.2</ele>
        <time>2022-01-23T09:40:55.000Z</time>
      </trkpt>
      <trkpt lat="43.17602" lon="2.35674">
        <ele>142.3</ele>
        <time>2022-01-23T09:40:56.000Z</time>
      </trkpt>
      <trkpt lat="43.17601" lon="2.35671">
        <ele>142.3</ele>
        <time>2022-01-23T09:40:57.000Z</time>
      </trkpt>
      <trkpt lat="43.17599" lon="2.35667">
        <ele>142.4</ele>
        <time>2022-01-23T09:40:58.000Z</time>
      </trkpt>
      <trkpt lat="43.17598" lon="2.35664">
        <ele>142.5</ele>
        <time>2022-01-23T09:40:59.000Z</time>
      </trkpt>
      <trkpt lat="43.17597" lon="2.35661">
        <ele>142.7</ele>
        <time>2022-01-23T09:41:00.000Z</time>
      </trkpt>
      <trkpt lat="43.17596" lon="2.35658">
        <ele>142.8</ele>
        <time>2022-01-23T09:41:01.000Z</time>
      </trkpt>
      <trkpt lat="43.17595" lon="2.35656">
        <ele>142.9</ele>
        <time>2022-01-23T09:41:02.000Z</time>
      </trkpt>
      <trkpt lat="43.17594" lon="2.35653">
        <ele>143.1</ele>
        <time>2022-01-23T09:41:03.000Z</time>
      </trkpt>
      <trkpt lat="43.17593" lon="2.3565">
        <ele>143.2</ele>
        <time>2022-01-23T09:41:04.000Z</time>
      </trkpt>
      <trkpt lat="43.17593" lon="2.35647">
        <ele>143.3</ele>
        <time>2022-01-23T09:41:05.000Z</time>
      </trkpt>
      <trkpt lat="43.17592" lon="2.35644">
        <ele>143.4</ele>
        <time>2022-01-23T09:41:06.000Z</time>
      </trkpt>
      <trkpt lat="43.17592" lon="2.35641">
        <ele>143.6</ele>
        <time>2022-01-23T09:41:07.000Z</time>
      </trkpt>
      <trkpt lat="43.17591" lon="2.35639">
        <ele>143.7</ele>
        <time>2022-01-23T09:41:08.000Z</time>
      </trkpt>
      <trkpt lat="43.17591" lon="2.35636">
        <ele>143.8</ele>
        <time>2022-01-23T09:41:09.000Z</time>
      </trkpt>
      <trkpt lat="43.1759" lon="2.35633">
        <ele>143.9</ele>
        <time>2022-01-23T09:41:10.000Z</time>
      </trkpt>
      <trkpt lat="43.1759" lon="2.3563">
        <ele>144</ele>
        <time>2022-01-23T09:41:11.000Z</time>
      </trkpt>
      <trkpt lat="43.1759" lon="2.35627">
        <ele>144.1</ele>
        <time>2022-01-23T09:41:12.000Z</time>
      </trkpt>
      <trkpt lat="43.1759" lon="2.35624">
        <ele>144.2</ele>
        <time>2022-01-23T09:41:13.000Z</time>
      </trkpt>
      <trkpt lat="43.1759" lon="2.35621">
        <ele>144.3</ele>
        <time>2022-01-23T09:41:14.000Z</time>
      </trkpt>
      <trkpt lat="43.1759" lon="2.35619">
        <ele>144.4</ele>
        <time>2022-01-23T09:41:15.000Z</time>
      </trkpt>
      <trkpt lat="43.1759" lon="2.35616">
        <ele>144.5</ele>
        <time>2022-01-23T09:41:16.000Z</time>
      </trkpt>
      <trkpt lat="43.17591" lon="2.35614">
        <ele>144.5</ele>
        <time>2022-01-23T09:41:17.000Z</time>
      </trkpt>
      <trkpt lat="43.17591" lon="2.35612">
        <ele>144.6</ele>
        <time>2022-01-23T09:41:18.000Z</time>
      </trkpt>
      <trkpt lat="43.17592" lon="2.35609">
        <ele>144.6</ele>
        <time>2022-01-23T09:41:19.000Z</time>
      </trkpt>
      <trkpt lat="43.17593" lon="2.35607">
        <ele>144.7</ele>
        <time>2022-01-23T09:41:20.000Z</time>
      </trkpt>
      <trkpt lat="43.17593" lon="2.35605">
        <ele>144.7</ele>
        <time>2022-01-23T09:41:21.000Z</time>
      </trkpt>
      <trkpt lat="43.17594" lon="2.35603">
        <ele>144.7</ele>
        <time>2022-01-23T09:41:22.000Z</time>
      </trkpt>
      <trkpt lat="43.17595" lon="2.35601">
        <ele>144.7</ele>
        <time>2022-01-23T09:41:23.000Z</time>
      </trkpt>
      <trkpt lat="43.17597" lon="2.35599">
        <ele>144.7</ele>
        <time>2022-01-23T09:41:24.000Z</time>
      </trkpt>
      <trkpt lat="43.17598" lon="2.35597">
        <ele>144.7</ele>
        <time>2022-01-23T09:41:25.000Z</time>
      </trkpt>
      <trkpt lat="43.17599" lon="2.35595">
        <ele>144.7</ele>
        <time>2022-01-23T09:41:26.000Z</time>
      </trkpt>
      <trkpt lat="43.17601" lon="2.35593">
        <ele>144.7</ele>
        <time>2022-01-23T09:41:27.000Z</time>
      </trkpt>
      <trkpt lat="43.17602" lon="2.35591">
        <ele>144.6</ele>
        <time>2022-01-23T09:41:28.000Z</time>
      </trkpt>
      <trkpt lat="43.17603" lon="2.3559">
        <ele>144.6</ele>
        <time>2022-01-23T09:41:29.000Z</time>
      </trkpt>
      <trkpt lat="43.17605" lon="2.35588">
        <ele>144.6</ele>
        <time>2022-01-23T09:41:30.000Z</time>
      </trkpt>
      <trkpt lat="43.17606" lon="2.35586">
        <ele>144.6</ele>
        <time>2022-01-23T09:41:31.000Z</time>
      </trkpt>
      <trkpt lat="43.17608" lon="2.35583">
        <ele>144.5</ele>
        <time>2022-01-23T09:41:32.000Z</time>
      </trkpt>
      <trkpt lat="43.17609" lon="2.35581">
        <ele>144.6</ele>
        <time>2022-01-23T09:41:33.000Z</time>
      </trkpt>
      <trkpt lat="43.1761" lon="2.35579">
        <ele>144.6</ele>
        <time>2022-01-23T09:41:34.000Z</time>
      </trkpt>
      <trkpt lat="43.17612" lon="2.35576">
        <ele>144.7</ele>
        <time>2022-01-23T09:41:35.000Z</time>
      </trkpt>
      <trkpt lat="43.17613" lon="2.35574">
        <ele>144.8</ele>
        <time>2022-01-23T09:41:36.000Z</time>
      </trkpt>
      <trkpt lat="43.17614" lon="2.35571">
        <ele>144.8</ele>
        <time>2022-01-23T09:41:37.000Z</time>
      </trkpt>
      <trkpt lat="43.17615" lon="2.35568">
        <ele>144.9</ele>
        <time>2022-01-23T09:41:38.000Z</time>
      </trkpt>
      <trkpt lat="43.17617" lon="2.35566">
        <ele>144.9</ele>
        <time>2022-01-23T09:41:39.000Z</time>
      </trkpt>
      <trkpt lat="43.17618" lon="2.35563">
        <ele>145</ele>
        <time>2022-01-23T09:41:40.000Z</time>
      </trkpt>
      <trkpt lat="43.17619" lon="2.3556">
        <ele>145.1</ele>
        <time>2022-01-23T09:41:41.000Z</time>
      </trkpt>
      <trkpt lat="43.1762" lon="2.35557">
        <ele>145.1</ele>
        <time>2022-01-23T09:41:42.000Z</time>
      </trkpt>
      <trkpt lat="43.17621" lon="2.35554">
        <ele>145.2</ele>
        <time>2022-01-23T09:41:43.000Z</time>
      </trkpt>
      <trkpt lat="43.17622" lon="2.35551">
        <ele>145.3</ele>
        <time>2022-01-23T09:41:44.000Z</time>
      </trkpt>
      <trkpt lat="43.17624" lon="2.35548">
        <ele>145.3</ele>
        <time>2022-01-23T09:41:45.000Z</time>
      </trkpt>
      <trkpt lat="43.17625" lon="2.35545">
        <ele>145.4</ele>
        <time>2022-01-23T09:41:46.000Z</time>
      </trkpt>
      <trkpt lat="43.17626" lon="2.35542">
        <ele>145.4</ele>
        <time>2022-01-23T09:41:47.000Z</time>
      </trkpt>
      <trkpt lat="43.17627" lon="2.35539">
        <ele>145.4</ele>
        <time>2022-01-23T09:41:48.000Z</time>
      </trkpt>
      <trkpt lat="43.17629" lon="2.35537">
        <ele>145.4</ele>
        <time>2022-01-23T09:41:49.000Z</time>
      </trkpt>
      <trkpt lat="43.1763" lon="2.35534">
        <ele>145.5</ele>
        <time>2022-01-23T09:41:50.000Z</time>
      </trkpt>
      <trkpt lat="43.17631" lon="2.35531">
        <ele>145.5</ele>
        <time>2022-01-23T09:41:51.000Z</time>
      </trkpt>
      <trkpt lat="43.17633" lon="2.35528">
        <ele>145.5</ele>
        <time>2022-01-23T09:41:52.000Z</time>
      </trkpt>
      <trkpt lat="43.17634" lon="2.35525">
        <ele>145.5</ele>
        <time>2022-01-23T09:41:53.000Z</time>
      </trkpt>
      <trkpt lat="43.17635" lon="2.35523">
        <ele>145.5</ele>
        <time>2022-01-23T09:41:54.000Z</time>
      </trkpt>
      <trkpt lat="43.17637" lon="2.3552">
        <ele>145.4</ele>
        <time>2022-01-23T09:41:55.000Z</time>
      </trkpt>
      <trkpt lat="43.17638" lon="2.35517">
        <ele>145.4</ele>
        <time>2022-01-23T09:41:56.000Z</time>
      </trkpt>
      <trkpt lat="43.17639" lon="2.35514">
        <ele>145.4</ele>
        <time>2022-01-23T09:41:57.000Z</time>
      </trkpt>
      <trkpt lat="43.17641" lon="2.35511">
        <ele>145.4</ele>
        <time>2022-01-23T09:41:58.000Z</time>
      </trkpt>
      <trkpt lat="43.17642" lon="2.35509">
        <ele>145.4</ele>
        <time>2022-01-23T09:41:59.000Z</time>
      </trkpt>
      <trkpt lat="43.17643" lon="2.35506">
        <ele>145.3</ele>
        <time>2022-01-23T09:42:00.000Z</time>
      </trkpt>
      <trkpt lat="43.17644" lon="2.35503">
        <ele>145.3</ele>
        <time>2022-01-23T09:42:01.000Z</time>
      </trkpt>
      <trkpt lat="43.17645" lon="2.355">
        <ele>145.3</ele>
        <time>2022-01-23T09:42:02.000Z</time>
      </trkpt>
      <trkpt lat="43.17647" lon="2.35498">
        <ele>145.3</ele>
        <time>2022-01-23T09:42:03.000Z</time>
      </trkpt>
      <trkpt lat="43.17648" lon="2.35495">
        <ele>145.3</ele>
        <time>2022-01-23T09:42:04.000Z</time>
      </trkpt>
      <trkpt lat="43.17649" lon="2.35493">
        <ele>145.3</ele>
        <time>2022-01-23T09:42:05.000Z</time>
      </trkpt>
      <trkpt lat="43.1765" lon="2.3549">
        <ele>145.2</ele>
        <time>2022-01-23T09:42:06.000Z</time>
      </trkpt>
      <trkpt lat="43.17651" lon="2.35488">
        <ele>145.2</ele>
        <time>2022-01-23T09:42:07.000Z</time>
      </trkpt>
      <trkpt lat="43.17652" lon="2.35485">
        <ele>145.2</ele>
        <time>2022-01-23T09:42:08.000Z</time>
      </trkpt>
      <trkpt lat="43.17653" lon="2.35483">
        <ele>145.2</ele>
        <time>2022-01-23T09:42:09.000Z</time>
      </trkpt>
      <trkpt lat="43.17654" lon="2.3548">
        <ele>145.2</ele>
        <time>2022-01-23T09:42:10.000Z</time>
      </trkpt>
      <trkpt lat="43.17655" lon="2.35477">
        <ele>145.3</ele>
        <time>2022-01-23T09:42:11.000Z</time>
      </trkpt>
      <trkpt lat="43.17656" lon="2.35474">
        <ele>145.3</ele>
        <time>2022-01-23T09:42:12.000Z</time>
      </trkpt>
      <trkpt lat="43.17657" lon="2.35472">
        <ele>145.3</ele>
        <time>2022-01-23T09:42:13.000Z</time>
      </trkpt>
      <trkpt lat="43.17658" lon="2.35469">
        <ele>145.4</ele>
        <time>2022-01-23T09:42:14.000Z</time>
      </trkpt>
      <trkpt lat="43.17659" lon="2.35466">
        <ele>145.4</ele>
        <time>2022-01-23T09:42:15.000Z</time>
      </trkpt>
      <trkpt lat="43.1766" lon="2.35463">
        <ele>145.5</ele>
        <time>2022-01-23T09:42:16.000Z</time>
      </trkpt>
      <trkpt lat="43.17661" lon="2.3546">
        <ele>145.5</ele>
        <time>2022-01-23T09:42:17.000Z</time>
      </trkpt>
      <trkpt lat="43.17662" lon="2.35457">
        <ele>145.6</ele>
        <time>2022-01-23T09:42:18.000Z</time>
      </trkpt>
      <trkpt lat="43.17663" lon="2.35454">
        <ele>145.6</ele>
        <time>2022-01-23T09:42:19.000Z</time>
      </trkpt>
      <trkpt lat="43.17664" lon="2.35451">
        <ele>145.6</ele>
        <time>2022-01-23T09:42:20.000Z</time>
      </trkpt>
      <trkpt lat="43.17665" lon="2.35448">
        <ele>145.7</ele>
        <time>2022-01-23T09:42:21.000Z</time>
      </trkpt>
      <trkpt lat="43.17666" lon="2.35445">
        <ele>145.7</ele>
        <time>2022-01-23T09:42:22.000Z</time>
      </trkpt>
      <trkpt lat="43.17667" lon="2.35442">
        <ele>145.8</ele>
        <time>2022-01-23T09:42:23.000Z</time>
      </trkpt>
      <trkpt lat="43.17668" lon="2.3544">
        <ele>145.8</ele>
        <time>2022-01-23T09:42:24.000Z</time>
      </trkpt>
      <trkpt lat="43.17669" lon="2.35437">
        <ele>145.9</ele>
        <time>2022-01-23T09:42:25.000Z</time>
      </trkpt>
      <trkpt lat="43.1767" lon="2.35434">
        <ele>145.9</ele>
        <time>2022-01-23T09:42:26.000Z</time>
      </trkpt>
      <trkpt lat="43.17671" lon="2.35432">
        <ele>145.9</ele>
        <time>2022-01-23T09:42:27.000Z</time>
      </trkpt>
      <trkpt lat="43.17673" lon="2.35429">
        <ele>145.9</ele>
        <time>2022-01-23T09:42:28.000Z</time>
      </trkpt>
      <trkpt lat="43.17674" lon="2.35427">
        <ele>145.9</ele>
        <time>2022-01-23T09:42:29.000Z</time>
      </trkpt>
      <trkpt lat="43.17675" lon="2.35425">
        <ele>145.9</ele>
        <time>2022-01-23T09:42:30.000Z</time>
      </trkpt>
      <trkpt lat="43.17676" lon="2.35423">
        <ele>145.9</ele>
        <time>2022-01-23T09:42:31.000Z</time>
      </trkpt>
      <trkpt lat="43.17678" lon="2.3542">
        <ele>145.9</ele>
        <time>2022-01-23T09:42:32.000Z</time>
      </trkpt>
      <trkpt lat="43.17679" lon="2.35418">
        <ele>145.9</ele>
        <time>2022-01-23T09:42:33.000Z</time>
      </trkpt>
      <trkpt lat="43.1768" lon="2.35416">
        <ele>145.9</ele>
        <time>2022-01-23T09:42:34.000Z</time>
      </trkpt>
      <trkpt lat="43.17682" lon="2.35414">
        <ele>145.9</ele>
        <time>2022-01-23T09:42:35.000Z</time>
      </trkpt>
      <trkpt lat="43.17683" lon="2.35413">
        <ele>145.9</ele>
        <time>2022-01-23T09:42:36.000Z</time>
      </trkpt>
      <trkpt lat="43.17684" lon="2.35411">
        <ele>145.9</ele>
        <time>2022-01-23T09:42:37.000Z</time>
      </trkpt>
      <trkpt lat="43.17686" lon="2.3541">
        <ele>145.8</ele>
        <time>2022-01-23T09:42:38.000Z</time>
      </trkpt>
      <trkpt lat="43.17687" lon="2.3541">
        <ele>145.7</ele>
        <time>2022-01-23T09:42:39.000Z</time>
      </trkpt>
      <trkpt lat="43.17689" lon="2.3541">
        <ele>145.6</ele>
        <time>2022-01-23T09:42:40.000Z</time>
      </trkpt>
      <trkpt lat="43.1769" lon="2.3541">
        <ele>145.4</ele>
        <time>2022-01-23T09:42:41.000Z</time>
      </trkpt>
      <trkpt lat="43.17692" lon="2.35412">
        <ele>145.2</ele>
        <time>2022-01-23T09:42:42.000Z</time>
      </trkpt>
      <trkpt lat="43.17693" lon="2.35414">
        <ele>145</ele>
        <time>2022-01-23T09:42:43.000Z</time>
      </trkpt>
      <trkpt lat="43.17695" lon="2.35416">
        <ele>144.7</ele>
        <time>2022-01-23T09:42:44.000Z</time>
      </trkpt>
      <trkpt lat="43.17697" lon="2.35418">
        <ele>144.4</ele>
        <time>2022-01-23T09:42:45.000Z</time>
      </trkpt>
      <trkpt lat="43.17698" lon="2.35421">
        <ele>144.2</ele>
        <time>2022-01-23T09:42:46.000Z</time>
      </trkpt>
      <trkpt lat="43.177" lon="2.35423">
        <ele>144</ele>
        <time>2022-01-23T09:42:47.000Z</time>
      </trkpt>
      <trkpt lat="43.17702" lon="2.35424">
        <ele>143.8</ele>
        <time>2022-01-23T09:42:48.000Z</time>
      </trkpt>
      <trkpt lat="43.17704" lon="2.35426">
        <ele>143.5</ele>
        <time>2022-01-23T09:42:49.000Z</time>
      </trkpt>
      <trkpt lat="43.17706" lon="2.35428">
        <ele>143.3</ele>
        <time>2022-01-23T09:42:50.000Z</time>
      </trkpt>
      <trkpt lat="43.17708" lon="2.3543">
        <ele>143.1</ele>
        <time>2022-01-23T09:42:51.000Z</time>
      </trkpt>
      <trkpt lat="43.1771" lon="2.35432">
        <ele>142.8</ele>
        <time>2022-01-23T09:42:52.000Z</time>
      </trkpt>
      <trkpt lat="43.17712" lon="2.35434">
        <ele>142.5</ele>
        <time>2022-01-23T09:42:53.000Z</time>
      </trkpt>
      <trkpt lat="43.17715" lon="2.35437">
        <ele>142.3</ele>
        <time>2022-01-23T09:42:54.000Z</time>
      </trkpt>
      <trkpt lat="43.17717" lon="2.35439">
        <ele>142</ele>
        <time>2022-01-23T09:42:55.000Z</time>
      </trkpt>
      <trkpt lat="43.1772" lon="2.35441">
        <ele>141.7</ele>
        <time>2022-01-23T09:42:56.000Z</time>
      </trkpt>
      <trkpt lat="43.17722" lon="2.35444">
        <ele>141.5</ele>
        <time>2022-01-23T09:42:57.000Z</time>
      </trkpt>
      <trkpt lat="43.17725" lon="2.35446">
        <ele>141.2</ele>
        <time>2022-01-23T09:42:58.000Z</time>
      </trkpt>
      <trkpt lat="43.17727" lon="2.35449">
        <ele>140.9</ele>
        <time>2022-01-23T09:42:59.000Z</time>
      </trkpt>
      <trkpt lat="43.1773" lon="2.35451">
        <ele>140.7</ele>
        <time>2022-01-23T09:43:00.000Z</time>
      </trkpt>
      <trkpt lat="43.17732" lon="2.35454">
        <ele>140.4</ele>
        <time>2022-01-23T09:43:01.000Z</time>
      </trkpt>
      <trkpt lat="43.17735" lon="2.35456">
        <ele>140.2</ele>
        <time>2022-01-23T09:43:02.000Z</time>
      </trkpt>
      <trkpt lat="43.17737" lon="2.35459">
        <ele>139.9</ele>
        <time>2022-01-23T09:43:03.000Z</time>
      </trkpt>
      <trkpt lat="43.17739" lon="2.35461">
        <ele>139.7</ele>
        <time>2022-01-23T09:43:04.000Z</time>
      </trkpt>
      <trkpt lat="43.17742" lon="2.35464">
        <ele>139.5</ele>
        <time>2022-01-23T09:43:05.000Z</time>
      </trkpt>
      <trkpt lat="43.17744" lon="2.35466">
        <ele>139.2</ele>
        <time>2022-01-23T09:43:06.000Z</time>
      </trkpt>
      <trkpt lat="43.17746" lon="2.35468">
        <ele>139</ele>
        <time>2022-01-23T09:43:07.000Z</time>
      </trkpt>
      <trkpt lat="43.17749" lon="2.35471">
        <ele>138.8</ele>
        <time>2022-01-23T09:43:08.000Z</time>
      </trkpt>
      <trkpt lat="43.17751" lon="2.35473">
        <ele>138.6</ele>
        <time>2022-01-23T09:43:09.000Z</time>
      </trkpt>
      <trkpt lat="43.17753" lon="2.35476">
        <ele>138.5</ele>
        <time>2022-01-23T09:43:10.000Z</time>
      </trkpt>
      <trkpt lat="43.17756" lon="2.35478">
        <ele>138.4</ele>
        <time>2022-01-23T09:43:11.000Z</time>
      </trkpt>
      <trkpt lat="43.17758" lon="2.3548">
        <ele>138.2</ele>
        <time>2022-01-23T09:43:12.000Z</time>
      </trkpt>
      <trkpt lat="43.1776" lon="2.35483">
        <ele>138.1</ele>
        <time>2022-01-23T09:43:13.000Z</time>
      </trkpt>
      <trkpt lat="43.17762" lon="2.35485">
        <ele>138</ele>
        <time>2022-01-23T09:43:14.000Z</time>
      </trkpt>
      <trkpt lat="43.17764" lon="2.35487">
        <ele>137.9</ele>
        <time>2022-01-23T09:43:15.000Z</time>
      </trkpt>
      <trkpt lat="43.17766" lon="2.3549">
        <ele>137.8</ele>
        <time>2022-01-23T09:43:16.000Z</time>
      </trkpt>
      <trkpt lat="43.17768" lon="2.35492">
        <ele>137.7</ele>
        <time>2022-01-23T09:43:17.000Z</time>
      </trkpt>
      <trkpt lat="43.17771" lon="2.35494">
        <ele>137.6</ele>
        <time>2022-01-23T09:43:18.000Z</time>
      </trkpt>
      <trkpt lat="43.17773" lon="2.35496">
        <ele>137.5</ele>
        <time>2022-01-23T09:43:19.000Z</time>
      </trkpt>
      <trkpt lat="43.17775" lon="2.35498">
        <ele>137.4</ele>
        <time>2022-01-23T09:43:20.000Z</time>
      </trkpt>
      <trkpt lat="43.17778" lon="2.355">
        <ele>137.3</ele>
        <time>2022-01-23T09:43:21.000Z</time>
      </trkpt>
      <trkpt lat="43.1778" lon="2.35501">
        <ele>137.3</ele>
        <time>2022-01-23T09:43:22.000Z</time>
      </trkpt>
      <trkpt lat="43.17782" lon="2.35503">
        <ele>137.2</ele>
        <time>2022-01-23T09:43:23.000Z</time>
      </trkpt>
      <trkpt lat="43.17782" lon="2.35505">
        <ele>137.2</ele>
        <time>2022-01-23T09:43:24.000Z</time>
      </trkpt>
      <trkpt lat="43.17782" lon="2.35507">
        <ele>137.2</ele>
        <time>2022-01-23T09:43:25.000Z</time>
      </trkpt>
      <trkpt lat="43.17782" lon="2.35509">
        <ele>137.2</ele>
        <time>2022-01-23T09:43:26.000Z</time>
      </trkpt>
      <trkpt lat="43.17781" lon="2.35511">
        <ele>137.2</ele>
        <time>2022-01-23T09:43:27.000Z</time>
      </trkpt>
      <trkpt lat="43.17779" lon="2.35512">
        <ele>137.3</ele>
        <time>2022-01-23T09:43:28.000Z</time>
      </trkpt>
      <trkpt lat="43.17778" lon="2.35514">
        <ele>137.3</ele>
        <time>2022-01-23T09:43:29.000Z</time>
      </trkpt>
      <trkpt lat="43.17776" lon="2.35515">
        <ele>137.3</ele>
        <time>2022-01-23T09:43:30.000Z</time>
      </trkpt>
      <trkpt lat="43.17774" lon="2.35517">
        <ele>137.3</ele>
        <time>2022-01-23T09:43:31.000Z</time>
      </trkpt>
      <trkpt lat="43.17771" lon="2.35518">
        <ele>137.4</ele>
        <time>2022-01-23T09:43:32.000Z</time>
      </trkpt>
      <trkpt lat="43.17769" lon="2.35519">
        <ele>137.4</ele>
        <time>2022-01-23T09:43:33.000Z</time>
      </trkpt>
      <trkpt lat="43.17767" lon="2.35521">
        <ele>137.4</ele>
        <time>2022-01-23T09:43:34.000Z</time>
      </trkpt>
      <trkpt lat="43.17765" lon="2.35522">
        <ele>137.5</ele>
        <time>2022-01-23T09:43:35.000Z</time>
      </trkpt>
      <trkpt lat="43.17762" lon="2.35523">
        <ele>137.5</ele>
        <time>2022-01-23T09:43:36.000Z</time>
      </trkpt>
      <trkpt lat="43.1776" lon="2.35524">
        <ele>137.5</ele>
        <time>2022-01-23T09:43:37.000Z</time>
      </trkpt>
      <trkpt lat="43.17758" lon="2.35526">
        <ele>137.6</ele>
        <time>2022-01-23T09:43:38.000Z</time>
      </trkpt>
      <trkpt lat="43.17756" lon="2.35527">
        <ele>137.6</ele>
        <time>2022-01-23T09:43:39.000Z</time>
      </trkpt>
      <trkpt lat="43.17753" lon="2.35529">
        <ele>137.6</ele>
        <time>2022-01-23T09:43:40.000Z</time>
      </trkpt>
      <trkpt lat="43.17751" lon="2.3553">
        <ele>137.6</ele>
        <time>2022-01-23T09:43:41.000Z</time>
      </trkpt>
      <trkpt lat="43.17749" lon="2.35532">
        <ele>137.7</ele>
        <time>2022-01-23T09:43:42.000Z</time>
      </trkpt>
      <trkpt lat="43.17747" lon="2.35534">
        <ele>137.7</ele>
        <time>2022-01-23T09:43:43.000Z</time>
      </trkpt>
      <trkpt lat="43.17746" lon="2.35536">
        <ele>137.8</ele>
        <time>2022-01-23T09:43:44.000Z</time>
      </trkpt>
      <trkpt lat="43.17744" lon="2.35539">
        <ele>137.9</ele>
        <time>2022-01-23T09:43:45.000Z</time>
      </trkpt>
      <trkpt lat="43.17742" lon="2.35541">
        <ele>137.9</ele>
        <time>2022-01-23T09:43:46.000Z</time>
      </trkpt>
      <trkpt lat="43.1774" lon="2.35544">
        <ele>138</ele>
        <time>2022-01-23T09:43:47.000Z</time>
      </trkpt>
      <trkpt lat="43.17739" lon="2.35546">
        <ele>138</ele>
        <time>2022-01-23T09:43:48.000Z</time>
      </trkpt>
      <trkpt lat="43.17737" lon="2.35549">
        <ele>138.1</ele>
        <time>2022-01-23T09:43:49.000Z</time>
      </trkpt>
      <trkpt lat="43.17735" lon="2.35552">
        <ele>138.1</ele>
        <time>2022-01-23T09:43:50.000Z</time>
      </trkpt>
      <trkpt lat="43.17734" lon="2.35554">
        <ele>138.2</ele>
        <time>2022-01-23T09:43:51.000Z</time>
      </trkpt>
      <trkpt lat="43.17732" lon="2.35557">
        <ele>138.2</ele>
        <time>2022-01-23T09:43:52.000Z</time>
      </trkpt>
      <trkpt lat="43.1773" lon="2.3556">
        <ele>138.3</ele>
        <time>2022-01-23T09:43:53.000Z</time>
      </trkpt>
      <trkpt lat="43.17729" lon="2.35563">
        <ele>138.3</ele>
        <time>2022-01-23T09:43:54.000Z</time>
      </trkpt>
      <trkpt lat="43.17727" lon="2.35566">
        <ele>138.4</ele>
        <time>2022-01-23T09:43:55.000Z</time>
      </trkpt>
      <trkpt lat="43.17726" lon="2.35569">
        <ele>138.4</ele>
        <time>2022-01-23T09:43:56.000Z</time>
      </trkpt>
      <trkpt lat="43.17724" lon="2.35572">
        <ele>138.4</ele>
        <time>2022-01-23T09:43:57.000Z</time>
      </trkpt>
      <trkpt lat="43.17722" lon="2.35575">
        <ele>138.5</ele>
        <time>2022-01-23T09:43:58.000Z</time>
      </trkpt>
      <trkpt lat="43.17721" lon="2.35578">
        <ele>138.5</ele>
        <time>2022-01-23T09:43:59.000Z</time>
      </trkpt>
      <trkpt lat="43.17719" lon="2.35582">
        <ele>138.5</ele>
        <time>2022-01-23T09:44:00.000Z</time>
      </trkpt>
      <trkpt lat="43.17718" lon="2.35585">
        <ele>138.5</ele>
        <time>2022-01-23T09:44:01.000Z</time>
      </trkpt>
      <trkpt lat="43.17716" lon="2.35588">
        <ele>138.6</ele>
        <time>2022-01-23T09:44:02.000Z</time>
      </trkpt>
      <trkpt lat="43.17715" lon="2.35591">
        <ele>138.7</ele>
        <time>2022-01-23T09:44:03.000Z</time>
      </trkpt>
      <trkpt lat="43.17714" lon="2.35595">
        <ele>138.8</ele>
        <time>2022-01-23T09:44:04.000Z</time>
      </trkpt>
      <trkpt lat="43.17712" lon="2.35598">
        <ele>138.8</ele>
        <time>2022-01-23T09:44:05.000Z</time>
      </trkpt>
      <trkpt lat="43.17711" lon="2.35601">
        <ele>138.9</ele>
        <time>2022-01-23T09:44:06.000Z</time>
      </trkpt>
      <trkpt lat="43.1771" lon="2.35605">
        <ele>138.9</ele>
        <time>2022-01-23T09:44:07.000Z</time>
      </trkpt>
      <trkpt lat="43.17709" lon="2.35608">
        <ele>139</ele>
        <time>2022-01-23T09:44:08.000Z</time>
      </trkpt>
      <trkpt lat="43.17707" lon="2.35611">
        <ele>139</ele>
        <time>2022-01-23T09:44:09.000Z</time>
      </trkpt>
      <trkpt lat="43.17706" lon="2.35615">
        <ele>139.1</ele>
        <time>2022-01-23T09:44:10.000Z</time>
      </trkpt>
      <trkpt lat="43.17705" lon="2.35618">
        <ele>139.1</ele>
        <time>2022-01-23T09:44:11.000Z</time>
      </trkpt>
      <trkpt lat="43.17704" lon="2.35622">
        <ele>139.2</ele>
        <time>2022-01-23T09:44:12.000Z</time>
      </trkpt>
      <trkpt lat="43.17703" lon="2.35625">
        <ele>139.2</ele>
        <time>2022-01-23T09:44:13.000Z</time>
      </trkpt>
      <trkpt lat="43.17702" lon="2.35628">
        <ele>139.2</ele>
        <time>2022-01-23T09:44:14.000Z</time>
      </trkpt>
      <trkpt lat="43.17701" lon="2.35632">
        <ele>139.2</ele>
        <time>2022-01-23T09:44:15.000Z</time>
      </trkpt>
      <trkpt lat="43.177" lon="2.35635">
        <ele>139.3</ele>
        <time>2022-01-23T09:44:16.000Z</time>
      </trkpt>
      <trkpt lat="43.17699" lon="2.35639">
        <ele>139.3</ele>
        <time>2022-01-23T09:44:17.000Z</time>
      </trkpt>
      <trkpt lat="43.17699" lon="2.35642">
        <ele>139.3</ele>
        <time>2022-01-23T09:44:18.000Z</time>
      </trkpt>
      <trkpt lat="43.17698" lon="2.35646">
        <ele>139.3</ele>
        <time>2022-01-23T09:44:19.000Z</time>
      </trkpt>
      <trkpt lat="43.17697" lon="2.35649">
        <ele>139.3</ele>
        <time>2022-01-23T09:44:20.000Z</time>
      </trkpt>
      <trkpt lat="43.17696" lon="2.35653">
        <ele>139.3</ele>
        <time>2022-01-23T09:44:21.000Z</time>
      </trkpt>
      <trkpt lat="43.17695" lon="2.35656">
        <ele>139.4</ele>
        <time>2022-01-23T09:44:22.000Z</time>
      </trkpt>
      <trkpt lat="43.17694" lon="2.3566">
        <ele>139.4</ele>
        <time>2022-01-23T09:44:23.000Z</time>
      </trkpt>
      <trkpt lat="43.17694" lon="2.35663">
        <ele>139.4</ele>
        <time>2022-01-23T09:44:24.000Z</time>
      </trkpt>
      <trkpt lat="43.17693" lon="2.35666">
        <ele>139.4</ele>
        <time>2022-01-23T09:44:25.000Z</time>
      </trkpt>
      <trkpt lat="43.17692" lon="2.3567">
        <ele>139.4</ele>
        <time>2022-01-23T09:44:26.000Z</time>
      </trkpt>
      <trkpt lat="43.17691" lon="2.35673">
        <ele>139.4</ele>
        <time>2022-01-23T09:44:27.000Z</time>
      </trkpt>
      <trkpt lat="43.1769" lon="2.35677">
        <ele>139.4</ele>
        <time>2022-01-23T09:44:28.000Z</time>
      </trkpt>
      <trkpt lat="43.1769" lon="2.3568">
        <ele>139.4</ele>
        <time>2022-01-23T09:44:29.000Z</time>
      </trkpt>
      <trkpt lat="43.17689" lon="2.35684">
        <ele>139.5</ele>
        <time>2022-01-23T09:44:30.000Z</time>
      </trkpt>
      <trkpt lat="43.17688" lon="2.35687">
        <ele>139.5</ele>
        <time>2022-01-23T09:44:31.000Z</time>
      </trkpt>
      <trkpt lat="43.17687" lon="2.3569">
        <ele>139.5</ele>
        <time>2022-01-23T09:44:32.000Z</time>
      </trkpt>
      <trkpt lat="43.17687" lon="2.35694">
        <ele>139.5</ele>
        <time>2022-01-23T09:44:33.000Z</time>
      </trkpt>
      <trkpt lat="43.17686" lon="2.35697">
        <ele>139.5</ele>
        <time>2022-01-23T09:44:34.000Z</time>
      </trkpt>
      <trkpt lat="43.17685" lon="2.35701">
        <ele>139.6</ele>
        <time>2022-01-23T09:44:35.000Z</time>
      </trkpt>
      <trkpt lat="43.17684" lon="2.35704">
        <ele>139.6</ele>
        <time>2022-01-23T09:44:36.000Z</time>
      </trkpt>
      <trkpt lat="43.17683" lon="2.35708">
        <ele>139.6</ele>
        <time>2022-01-23T09:44:37.000Z</time>
      </trkpt>
      <trkpt lat="43.17683" lon="2.35711">
        <ele>139.6</ele>
        <time>2022-01-23T09:44:38.000Z</time>
      </trkpt>
      <trkpt lat="43.17682" lon="2.35715">
        <ele>139.6</ele>
        <time>2022-01-23T09:44:39.000Z</time>
      </trkpt>
      <trkpt lat="43.17681" lon="2.35718">
        <ele>139.7</ele>
        <time>2022-01-23T09:44:40.000Z</time>
      </trkpt>
      <trkpt lat="43.1768" lon="2.35722">
        <ele>139.7</ele>
        <time>2022-01-23T09:44:41.000Z</time>
      </trkpt>
      <trkpt lat="43.17679" lon="2.35725">
        <ele>139.7</ele>
        <time>2022-01-23T09:44:42.000Z</time>
      </trkpt>
      <trkpt lat="43.17678" lon="2.35729">
        <ele>139.7</ele>
        <time>2022-01-23T09:44:43.000Z</time>
      </trkpt>
      <trkpt lat="43.17678" lon="2.35732">
        <ele>139.7</ele>
        <time>2022-01-23T09:44:44.000Z</time>
      </trkpt>
      <trkpt lat="43.17678" lon="2.35735">
        <ele>139.7</ele>
        <time>2022-01-23T09:44:45.000Z</time>
      </trkpt>
      <trkpt lat="43.17678" lon="2.35737">
        <ele>139.7</ele>
        <time>2022-01-23T09:44:46.000Z</time>
      </trkpt>
      <trkpt lat="43.17679" lon="2.35739">
        <ele>139.7</ele>
        <time>2022-01-23T09:44:47.000Z</time>
      </trkpt>
      <trkpt lat="43.17681" lon="2.35741">
        <ele>139.7</ele>
        <time>2022-01-23T09:44:48.000Z</time>
      </trkpt>
      <trkpt lat="43.17683" lon="2.35742">
        <ele>139.6</ele>
        <time>2022-01-23T09:44:49.000Z</time>
      </trkpt>
      <trkpt lat="43.17685" lon="2.35743">
        <ele>139.6</ele>
        <time>2022-01-23T09:44:50.000Z</time>
      </trkpt>
      <trkpt lat="43.17687" lon="2.35744">
        <ele>139.5</ele>
        <time>2022-01-23T09:44:51.000Z</time>
      </trkpt>
      <trkpt lat="43.1769" lon="2.35746">
        <ele>139.4</ele>
        <time>2022-01-23T09:44:52.000Z</time>
      </trkpt>
      <trkpt lat="43.17692" lon="2.35747">
        <ele>139.4</ele>
        <time>2022-01-23T09:44:53.000Z</time>
      </trkpt>
      <trkpt lat="43.17695" lon="2.35748">
        <ele>139.3</ele>
        <time>2022-01-23T09:44:54.000Z</time>
      </trkpt>
      <trkpt lat="43.17697" lon="2.35749">
        <ele>139.3</ele>
        <time>2022-01-23T09:44:55.000Z</time>
      </trkpt>
      <trkpt lat="43.177" lon="2.35751">
        <ele>139.2</ele>
        <time>2022-01-23T09:44:56.000Z</time>
      </trkpt>
      <trkpt lat="43.17702" lon="2.35752">
        <ele>139.2</ele>
        <time>2022-01-23T09:44:57.000Z</time>
      </trkpt>
      <trkpt lat="43.17705" lon="2.35754">
        <ele>139.1</ele>
        <time>2022-01-23T09:44:58.000Z</time>
      </trkpt>
      <trkpt lat="43.17707" lon="2.35755">
        <ele>139.1</ele>
        <time>2022-01-23T09:44:59.000Z</time>
      </trkpt>
      <trkpt lat="43.1771" lon="2.35756">
        <ele>139</ele>
        <time>2022-01-23T09:45:00.000Z</time>
      </trkpt>
      <trkpt lat="43.17712" lon="2.35758">
        <ele>139</ele>
        <time>2022-01-23T09:45:01.000Z</time>
      </trkpt>
      <trkpt lat="43.17715" lon="2.35759">
        <ele>138.9</ele>
        <time>2022-01-23T09:45:02.000Z</time>
      </trkpt>
      <trkpt lat="43.17717" lon="2.35761">
        <ele>138.9</ele>
        <time>2022-01-23T09:45:03.000Z</time>
      </trkpt>
      <trkpt lat="43.17719" lon="2.35762">
        <ele>138.8</ele>
        <time>2022-01-23T09:45:04.000Z</time>
      </trkpt>
      <trkpt lat="43.17722" lon="2.35764">
        <ele>138.8</ele>
        <time>2022-01-23T09:45:05.000Z</time>
      </trkpt>
      <trkpt lat="43.17724" lon="2.35765">
        <ele>138.8</ele>
        <time>2022-01-23T09:45:06.000Z</time>
      </trkpt>
      <trkpt lat="43.17726" lon="2.35767">
        <ele>138.7</ele>
        <time>2022-01-23T09:45:07.000Z</time>
      </trkpt>
      <trkpt lat="43.17729" lon="2.35769">
        <ele>138.7</ele>
        <time>2022-01-23T09:45:08.000Z</time>
      </trkpt>
      <trkpt lat="43.17731" lon="2.3577">
        <ele>138.6</ele>
        <time>2022-01-23T09:45:09.000Z</time>
      </trkpt>
      <trkpt lat="43.17733" lon="2.35772">
        <ele>138.6</ele>
        <time>2022-01-23T09:45:10.000Z</time>
      </trkpt>
      <trkpt lat="43.17735" lon="2.35774">
        <ele>138.6</ele>
        <time>2022-01-23T09:45:11.000Z</time>
      </trkpt>
      <trkpt lat="43.17737" lon="2.35775">
        <ele>138.6</ele>
        <time>2022-01-23T09:45:12.000Z</time>
      </trkpt>
      <trkpt lat="43.17739" lon="2.35777">
        <ele>138.5</ele>
        <time>2022-01-23T09:45:13.000Z</time>
      </trkpt>
      <trkpt lat="43.17742" lon="2.35779">
        <ele>138.5</ele>
        <time>2022-01-23T09:45:14.000Z</time>
      </trkpt>
      <trkpt lat="43.17744" lon="2.35781">
        <ele>138.5</ele>
        <time>2022-01-23T09:45:15.000Z</time>
      </trkpt>
      <trkpt lat="43.17746" lon="2.35783">
        <ele>138.5</ele>
        <time>2022-01-23T09:45:16.000Z</time>
      </trkpt>
      <trkpt lat="43.17748" lon="2.35785">
        <ele>138.5</ele>
        <time>2022-01-23T09:45:17.000Z</time>
      </trkpt>
      <trkpt lat="43.1775" lon="2.35787">
        <ele>138.4</ele>
        <time>2022-01-23T09:45:18.000Z</time>
      </trkpt>
      <trkpt lat="43.17752" lon="2.35789">
        <ele>138.5</ele>
        <time>2022-01-23T09:45:19.000Z</time>
      </trkpt>
      <trkpt lat="43.17754" lon="2.35791">
        <ele>138.5</ele>
        <time>2022-01-23T09:45:20.000Z</time>
      </trkpt>
      <trkpt lat="43.17756" lon="2.35793">
        <ele>138.5</ele>
        <time>2022-01-23T09:45:21.000Z</time>
      </trkpt>
      <trkpt lat="43.17758" lon="2.35796">
        <ele>138.5</ele>
        <time>2022-01-23T09:45:22.000Z</time>
      </trkpt>
      <trkpt lat="43.1776" lon="2.35798">
        <ele>138.5</ele>
        <time>2022-01-23T09:45:23.000Z</time>
      </trkpt>
      <trkpt lat="43.17762" lon="2.358">
        <ele>138.5</ele>
        <time>2022-01-23T09:45:24.000Z</time>
      </trkpt>
      <trkpt lat="43.17764" lon="2.35803">
        <ele>138.6</ele>
        <time>2022-01-23T09:45:25.000Z</time>
      </trkpt>
      <trkpt lat="43.17766" lon="2.35805">
        <ele>138.6</ele>
        <time>2022-01-23T09:45:26.000Z</time>
      </trkpt>
      <trkpt lat="43.17768" lon="2.35808">
        <ele>138.6</ele>
        <time>2022-01-23T09:45:27.000Z</time>
      </trkpt>
      <trkpt lat="43.1777" lon="2.3581">
        <ele>138.7</ele>
        <time>2022-01-23T09:45:28.000Z</time>
      </trkpt>
      <trkpt lat="43.17772" lon="2.35813">
        <ele>138.7</ele>
        <time>2022-01-23T09:45:29.000Z</time>
      </trkpt>
      <trkpt lat="43.17774" lon="2.35816">
        <ele>138.7</ele>
        <time>2022-01-23T09:45:30.000Z</time>
      </trkpt>
      <trkpt lat="43.17776" lon="2.35818">
        <ele>138.8</ele>
        <time>2022-01-23T09:45:31.000Z</time>
      </trkpt>
      <trkpt lat="43.17778" lon="2.35821">
        <ele>138.8</ele>
        <time>2022-01-23T09:45:32.000Z</time>
      </trkpt>
      <trkpt lat="43.17779" lon="2.35824">
        <ele>138.8</ele>
        <time>2022-01-23T09:45:33.000Z</time>
      </trkpt>
      <trkpt lat="43.17781" lon="2.35827">
        <ele>138.9</ele>
        <time>2022-01-23T09:45:34.000Z</time>
      </trkpt>
      <trkpt lat="43.17783" lon="2.3583">
        <ele>138.9</ele>
        <time>2022-01-23T09:45:35.000Z</time>
      </trkpt>
      <trkpt lat="43.17785" lon="2.35833">
        <ele>139</ele>
        <time>2022-01-23T09:45:36.000Z</time>
      </trkpt>
      <trkpt lat="43.17786" lon="2.35836">
        <ele>139</ele>
        <time>2022-01-23T09:45:37.000Z</time>
      </trkpt>
      <trkpt lat="43.17788" lon="2.35839">
        <ele>139</ele>
        <time>2022-01-23T09:45:38.000Z</time>
      </trkpt>
      <trkpt lat="43.1779" lon="2.35842">
        <ele>139.1</ele>
        <time>2022-01-23T09:45:39.000Z</time>
      </trkpt>
      <trkpt lat="43.17791" lon="2.35845">
        <ele>139.1</ele>
        <time>2022-01-23T09:45:40.000Z</time>
      </trkpt>
      <trkpt lat="43.17793" lon="2.35848">
        <ele>139.1</ele>
        <time>2022-01-23T09:45:41.000Z</time>
      </trkpt>
      <trkpt lat="43.17795" lon="2.35851">
        <ele>139.1</ele>
        <time>2022-01-23T09:45:42.000Z</time>
      </trkpt>
      <trkpt lat="43.17796" lon="2.35854">
        <ele>139.1</ele>
        <time>2022-01-23T09:45:43.000Z</time>
      </trkpt>
      <trkpt lat="43.17798" lon="2.35857">
        <ele>139.1</ele>
        <time>2022-01-23T09:45:44.000Z</time>
      </trkpt>
      <trkpt lat="43.178" lon="2.35861">
        <ele>139.1</ele>
        <time>2022-01-23T09:45:45.000Z</time>
      </trkpt>
      <trkpt lat="43.17801" lon="2.35864">
        <ele>139.1</ele>
        <time>2022-01-23T09:45:46.000Z</time>
      </trkpt>
      <trkpt lat="43.17803" lon="2.35867">
        <ele>139.1</ele>
        <time>2022-01-23T09:45:47.000Z</time>
      </trkpt>
      <trkpt lat="43.17804" lon="2.3587">
        <ele>139.2</ele>
        <time>2022-01-23T09:45:48.000Z</time>
      </trkpt>
      <trkpt lat="43.17806" lon="2.35873">
        <ele>139.2</ele>
        <time>2022-01-23T09:45:49.000Z</time>
      </trkpt>
      <trkpt lat="43.17808" lon="2.35876">
        <ele>139.2</ele>
        <time>2022-01-23T09:45:50.000Z</time>
      </trkpt>
      <trkpt lat="43.17809" lon="2.35879">
        <ele>139.2</ele>
        <time>2022-01-23T09:45:51.000Z</time>
      </trkpt>
      <trkpt lat="43.17811" lon="2.35882">
        <ele>139.2</ele>
        <time>2022-01-23T09:45:52.000Z</time>
      </trkpt>
      <trkpt lat="43.17813" lon="2.35885">
        <ele>139.2</ele>
        <time>2022-01-23T09:45:53.000Z</time>
      </trkpt>
      <trkpt lat="43.17814" lon="2.35888">
        <ele>139.2</ele>
        <time>2022-01-23T09:45:54.000Z</time>
      </trkpt>
      <trkpt lat="43.17816" lon="2.35891">
        <ele>139.1</ele>
        <time>2022-01-23T09:45:55.000Z</time>
      </trkpt>
      <trkpt lat="43.17818" lon="2.35894">
        <ele>139.1</ele>
        <time>2022-01-23T09:45:56.000Z</time>
      </trkpt>
      <trkpt lat="43.17819" lon="2.35897">
        <ele>139.1</ele>
        <time>2022-01-23T09:45:57.000Z</time>
      </trkpt>
      <trkpt lat="43.17821" lon="2.359">
        <ele>139.1</ele>
        <time>2022-01-23T09:45:58.000Z</time>
      </trkpt>
      <trkpt lat="43.17823" lon="2.35902">
        <ele>139.1</ele>
        <time>2022-01-23T09:45:59.000Z</time>
      </trkpt>
      <trkpt lat="43.17824" lon="2.35905">
        <ele>139.1</ele>
        <time>2022-01-23T09:46:00.000Z</time>
      </trkpt>
      <trkpt lat="43.17826" lon="2.35908">
        <ele>139.1</ele>
        <time>2022-01-23T09:46:01.000Z</time>
      </trkpt>
      <trkpt lat="43.17828" lon="2.35911">
        <ele>139.1</ele>
        <time>2022-01-23T09:46:02.000Z</time>
      </trkpt>
      <trkpt lat="43.1783" lon="2.35913">
        <ele>139</ele>
        <time>2022-01-23T09:46:03.000Z</time>
      </trkpt>
      <trkpt lat="43.17831" lon="2.35916">
        <ele>139</ele>
        <time>2022-01-23T09:46:04.000Z</time>
      </trkpt>
      <trkpt lat="43.17833" lon="2.35919">
        <ele>139</ele>
        <time>2022-01-23T09:46:05.000Z</time>
      </trkpt>
      <trkpt lat="43.17835" lon="2.35922">
        <ele>139</ele>
        <time>2022-01-23T09:46:06.000Z</time>
      </trkpt>
      <trkpt lat="43.17837" lon="2.35924">
        <ele>139</ele>
        <time>2022-01-23T09:46:07.000Z</time>
      </trkpt>
      <trkpt lat="43.17839" lon="2.35927">
        <ele>139</ele>
        <time>2022-01-23T09:46:08.000Z</time>
      </trkpt>
      <trkpt lat="43.1784" lon="2.35929">
        <ele>139</ele>
        <time>2022-01-23T09:46:09.000Z</time>
      </trkpt>
      <trkpt lat="43.17842" lon="2.35932">
        <ele>139</ele>
        <time>2022-01-23T09:46:10.000Z</time>
      </trkpt>
      <trkpt lat="43.17844" lon="2.35934">
        <ele>139.1</ele>
        <time>2022-01-23T09:46:11.000Z</time>
      </trkpt>
      <trkpt lat="43.17846" lon="2.35937">
        <ele>139.1</ele>
        <time>2022-01-23T09:46:12.000Z</time>
      </trkpt>
      <trkpt lat="43.17848" lon="2.35939">
        <ele>139.1</ele>
        <time>2022-01-23T09:46:13.000Z</time>
      </trkpt>
      <trkpt lat="43.1785" lon="2.35941">
        <ele>139.1</ele>
        <time>2022-01-23T09:46:14.000Z</time>
      </trkpt>
      <trkpt lat="43.17852" lon="2.35944">
        <ele>139.1</ele>
        <time>2022-01-23T09:46:15.000Z</time>
      </trkpt>
      <trkpt lat="43.17854" lon="2.35946">
        <ele>139.2</ele>
        <time>2022-01-23T09:46:16.000Z</time>
      </trkpt>
      <trkpt lat="43.17857" lon="2.35947">
        <ele>139.2</ele>
        <time>2022-01-23T09:46:17.000Z</time>
      </trkpt>
      <trkpt lat="43.17859" lon="2.35949">
        <ele>139.2</ele>
        <time>2022-01-23T09:46:18.000Z</time>
      </trkpt>
      <trkpt lat="43.17862" lon="2.35951">
        <ele>139.3</ele>
        <time>2022-01-23T09:46:19.000Z</time>
      </trkpt>
      <trkpt lat="43.17864" lon="2.35952">
        <ele>139.3</ele>
        <time>2022-01-23T09:46:20.000Z</time>
      </trkpt>
      <trkpt lat="43.17867" lon="2.35954">
        <ele>139.4</ele>
        <time>2022-01-23T09:46:21.000Z</time>
      </trkpt>
      <trkpt lat="43.17869" lon="2.35956">
        <ele>139.4</ele>
        <time>2022-01-23T09:46:22.000Z</time>
      </trkpt>
      <trkpt lat="43.17872" lon="2.35957">
        <ele>139.4</ele>
        <time>2022-01-23T09:46:23.000Z</time>
      </trkpt>
      <trkpt lat="43.17874" lon="2.35959">
        <ele>139.5</ele>
        <time>2022-01-23T09:46:24.000Z</time>
      </trkpt>
      <trkpt lat="43.17877" lon="2.3596">
        <ele>139.5</ele>
        <time>2022-01-23T09:46:25.000Z</time>
      </trkpt>
      <trkpt lat="43.17879" lon="2.35962">
        <ele>139.6</ele>
        <time>2022-01-23T09:46:26.000Z</time>
      </trkpt>
      <trkpt lat="43.17882" lon="2.35964">
        <ele>139.7</ele>
        <time>2022-01-23T09:46:27.000Z</time>
      </trkpt>
      <trkpt lat="43.17884" lon="2.35966">
        <ele>139.7</ele>
        <time>2022-01-23T09:46:28.000Z</time>
      </trkpt>
      <trkpt lat="43.17886" lon="2.35968">
        <ele>139.8</ele>
        <time>2022-01-23T09:46:29.000Z</time>
      </trkpt>
      <trkpt lat="43.17888" lon="2.3597">
        <ele>139.8</ele>
        <time>2022-01-23T09:46:30.000Z</time>
      </trkpt>
      <trkpt lat="43.17891" lon="2.35971">
        <ele>139.9</ele>
        <time>2022-01-23T09:46:31.000Z</time>
      </trkpt>
      <trkpt lat="43.17893" lon="2.35973">
        <ele>140</ele>
        <time>2022-01-23T09:46:32.000Z</time>
      </trkpt>
      <trkpt lat="43.17895" lon="2.35975">
        <ele>140</ele>
        <time>2022-01-23T09:46:33.000Z</time>
      </trkpt>
      <trkpt lat="43.17897" lon="2.35977">
        <ele>140.1</ele>
        <time>2022-01-23T09:46:34.000Z</time>
      </trkpt>
      <trkpt lat="43.17899" lon="2.35979">
        <ele>140.2</ele>
        <time>2022-01-23T09:46:35.000Z</time>
      </trkpt>
      <trkpt lat="43.17901" lon="2.35981">
        <ele>140.3</ele>
        <time>2022-01-23T09:46:36.000Z</time>
      </trkpt>
      <trkpt lat="43.17903" lon="2.35983">
        <ele>140.3</ele>
        <time>2022-01-23T09:46:37.000Z</time>
      </trkpt>
      <trkpt lat="43.17905" lon="2.35985">
        <ele>140.4</ele>
        <time>2022-01-23T09:46:38.000Z</time>
      </trkpt>
      <trkpt lat="43.17907" lon="2.35987">
        <ele>140.5</ele>
        <time>2022-01-23T09:46:39.000Z</time>
      </trkpt>
      <trkpt lat="43.1791" lon="2.35989">
        <ele>140.6</ele>
        <time>2022-01-23T09:46:40.000Z</time>
      </trkpt>
      <trkpt lat="43.17912" lon="2.35991">
        <ele>140.7</ele>
        <time>2022-01-23T09:46:41.000Z</time>
      </trkpt>
      <trkpt lat="43.17914" lon="2.35993">
        <ele>140.8</ele>
        <time>2022-01-23T09:46:42.000Z</time>
      </trkpt>
      <trkpt lat="43.17916" lon="2.35995">
        <ele>140.9</ele>
        <time>2022-01-23T09:46:43.000Z</time>
      </trkpt>
      <trkpt lat="43.17918" lon="2.35997">
        <ele>141</ele>
        <time>2022-01-23T09:46:44.000Z</time>
      </trkpt>
      <trkpt lat="43.17921" lon="2.36">
        <ele>141</ele>
        <time>2022-01-23T09:46:45.000Z</time>
      </trkpt>
      <trkpt lat="43.17923" lon="2.36002">
        <ele>141.1</ele>
        <time>2022-01-23T09:46:46.000Z</time>
      </trkpt>
      <trkpt lat="43.17925" lon="2.36004">
        <ele>141.1</ele>
        <time>2022-01-23T09:46:47.000Z</time>
      </trkpt>
      <trkpt lat="43.17928" lon="2.36006">
        <ele>141.2</ele>
        <time>2022-01-23T09:46:48.000Z</time>
      </trkpt>
      <trkpt lat="43.1793" lon="2.36008">
        <ele>141.2</ele>
        <time>2022-01-23T09:46:49.000Z</time>
      </trkpt>
      <trkpt lat="43.17932" lon="2.3601">
        <ele>141.2</ele>
        <time>2022-01-23T09:46:50.000Z</time>
      </trkpt>
      <trkpt lat="43.17935" lon="2.36012">
        <ele>141.3</ele>
        <time>2022-01-23T09:46:51.000Z</time>
      </trkpt>
      <trkpt lat="43.17937" lon="2.36014">
        <ele>141.3</ele>
        <time>2022-01-23T09:46:52.000Z</time>
      </trkpt>
      <trkpt lat="43.17939" lon="2.36015">
        <ele>141.3</ele>
        <time>2022-01-23T09:46:53.000Z</time>
      </trkpt>
      <trkpt lat="43.17941" lon="2.36016">
        <ele>141.3</ele>
        <time>2022-01-23T09:46:54.000Z</time>
      </trkpt>
      <trkpt lat="43.17943" lon="2.36016">
        <ele>141.3</ele>
        <time>2022-01-23T09:46:55.000Z</time>
      </trkpt>
      <trkpt lat="43.17945" lon="2.36017">
        <ele>141.3</ele>
        <time>2022-01-23T09:46:56.000Z</time>
      </trkpt>
      <trkpt lat="43.17947" lon="2.36017">
        <ele>141.3</ele>
        <time>2022-01-23T09:46:57.000Z</time>
      </trkpt>
      <trkpt lat="43.17948" lon="2.36016">
        <ele>141.4</ele>
        <time>2022-01-23T09:46:58.000Z</time>
      </trkpt>
      <trkpt lat="43.1795" lon="2.36015">
        <ele>141.4</ele>
        <time>2022-01-23T09:46:59.000Z</time>
      </trkpt>
      <trkpt lat="43.1795" lon="2.36014">
        <ele>141.4</ele>
        <time>2022-01-23T09:47:00.000Z</time>
      </trkpt>
      <trkpt lat="43.17951" lon="2.36013">
        <ele>141.4</ele>
        <time>2022-01-23T09:47:01.000Z</time>
      </trkpt>
      <trkpt lat="43.17951" lon="2.36012">
        <ele>141.4</ele>
        <time>2022-01-23T09:47:02.000Z</time>
      </trkpt>
      <trkpt lat="43.17952" lon="2.3601">
        <ele>141.4</ele>
        <time>2022-01-23T09:47:03.000Z</time>
      </trkpt>
      <trkpt lat="43.17952" lon="2.36009">
        <ele>141.4</ele>
        <time>2022-01-23T09:47:04.000Z</time>
      </trkpt>
      <trkpt lat="43.17952" lon="2.36008">
        <ele>141.4</ele>
        <time>2022-01-23T09:47:05.000Z</time>
      </trkpt>
      <trkpt lat="43.17952" lon="2.36007">
        <ele>141.4</ele>
        <time>2022-01-23T09:47:06.000Z</time>
      </trkpt>
      <trkpt lat="43.17952" lon="2.36006">
        <ele>141.4</ele>
        <time>2022-01-23T09:47:07.000Z</time>
      </trkpt>
      <trkpt lat="43.17952" lon="2.36005">
        <ele>141.4</ele>
        <time>2022-01-23T09:47:08.000Z</time>
      </trkpt>
      <trkpt lat="43.17952" lon="2.36004">
        <ele>141.4</ele>
        <time>2022-01-23T09:47:09.000Z</time>
      </trkpt>
      <trkpt lat="43.17953" lon="2.36003">
        <ele>141.4</ele>
        <time>2022-01-23T09:47:10.000Z</time>
      </trkpt>
      <trkpt lat="43.17953" lon="2.36002">
        <ele>141.4</ele>
        <time>2022-01-23T09:47:11.000Z</time>
      </trkpt>
      <trkpt lat="43.17953" lon="2.36001">
        <ele>141.4</ele>
        <time>2022-01-23T09:47:12.000Z</time>
      </trkpt>
      <trkpt lat="43.17954" lon="2.36">
        <ele>141.4</ele>
        <time>2022-01-23T09:47:13.000Z</time>
      </trkpt>
      <trkpt lat="43.17954" lon="2.35999">
        <ele>141.4</ele>
        <time>2022-01-23T09:47:14.000Z</time>
      </trkpt>
      <trkpt lat="43.17955" lon="2.35998">
        <ele>141.4</ele>
        <time>2022-01-23T09:47:15.000Z</time>
      </trkpt>
      <trkpt lat="43.17955" lon="2.35997">
        <ele>141.4</ele>
        <time>2022-01-23T09:47:16.000Z</time>
      </trkpt>
      <trkpt lat="43.17955" lon="2.35996">
        <ele>141.4</ele>
        <time>2022-01-23T09:47:17.000Z</time>
      </trkpt>
      <trkpt lat="43.17956" lon="2.35995">
        <ele>141.4</ele>
        <time>2022-01-23T09:47:18.000Z</time>
      </trkpt>
      <trkpt lat="43.17956" lon="2.35994">
        <ele>141.4</ele>
        <time>2022-01-23T09:47:19.000Z</time>
      </trkpt>
      <trkpt lat="43.17957" lon="2.35993">
        <ele>141.4</ele>
        <time>2022-01-23T09:47:20.000Z</time>
      </trkpt>
      <trkpt lat="43.17957" lon="2.35992">
        <ele>141.4</ele>
        <time>2022-01-23T09:47:21.000Z</time>
      </trkpt>
      <trkpt lat="43.17957" lon="2.35991">
        <ele>141.4</ele>
        <time>2022-01-23T09:47:22.000Z</time>
      </trkpt>
      <trkpt lat="43.17957" lon="2.3599">
        <ele>141.4</ele>
        <time>2022-01-23T09:47:23.000Z</time>
      </trkpt>
      <trkpt lat="43.17958" lon="2.35989">
        <ele>141.4</ele>
        <time>2022-01-23T09:47:24.000Z</time>
      </trkpt>
      <trkpt lat="43.17958" lon="2.35988">
        <ele>141.4</ele>
        <time>2022-01-23T09:47:25.000Z</time>
      </trkpt>
      <trkpt lat="43.17958" lon="2.35988">
        <ele>141.3</ele>
        <time>2022-01-23T09:47:26.000Z</time>
      </trkpt>
      <trkpt lat="43.17958" lon="2.35987">
        <ele>141.3</ele>
        <time>2022-01-23T09:47:27.000Z</time>
      </trkpt>
      <trkpt lat="43.17959" lon="2.35986">
        <ele>141.3</ele>
        <time>2022-01-23T09:47:28.000Z</time>
      </trkpt>
      <trkpt lat="43.17959" lon="2.35986">
        <ele>141.3</ele>
        <time>2022-01-23T09:47:29.000Z</time>
      </trkpt>
      <trkpt lat="43.17959" lon="2.35985">
        <ele>141.3</ele>
        <time>2022-01-23T09:47:30.000Z</time>
      </trkpt>
      <trkpt lat="43.17959" lon="2.35984">
        <ele>141.3</ele>
        <time>2022-01-23T09:47:31.000Z</time>
      </trkpt>
      <trkpt lat="43.17959" lon="2.35983">
        <ele>141.3</ele>
        <time>2022-01-23T09:47:32.000Z</time>
      </trkpt>
      <trkpt lat="43.1796" lon="2.35982">
        <ele>141.3</ele>
        <time>2022-01-23T09:47:33.000Z</time>
      </trkpt>
      <trkpt lat="43.1796" lon="2.35981">
        <ele>141.3</ele>
        <time>2022-01-23T09:47:34.000Z</time>
      </trkpt>
      <trkpt lat="43.17961" lon="2.3598">
        <ele>141.3</ele>
        <time>2022-01-23T09:47:35.000Z</time>
      </trkpt>
      <trkpt lat="43.17961" lon="2.35979">
        <ele>141.3</ele>
        <time>2022-01-23T09:47:36.000Z</time>
      </trkpt>
      <trkpt lat="43.17962" lon="2.35977">
        <ele>141.3</ele>
        <time>2022-01-23T09:47:37.000Z</time>
      </trkpt>
      <trkpt lat="43.17962" lon="2.35976">
        <ele>141.3</ele>
        <time>2022-01-23T09:47:38.000Z</time>
      </trkpt>
      <trkpt lat="43.17963" lon="2.35974">
        <ele>141.3</ele>
        <time>2022-01-23T09:47:39.000Z</time>
      </trkpt>
      <trkpt lat="43.17963" lon="2.35973">
        <ele>141.3</ele>
        <time>2022-01-23T09:47:40.000Z</time>
      </trkpt>
      <trkpt lat="43.17963" lon="2.35972">
        <ele>141.3</ele>
        <time>2022-01-23T09:47:41.000Z</time>
      </trkpt>
      <trkpt lat="43.17964" lon="2.3597">
        <ele>141.3</ele>
        <time>2022-01-23T09:47:42.000Z</time>
      </trkpt>
      <trkpt lat="43.17964" lon="2.35969">
        <ele>141.2</ele>
        <time>2022-01-23T09:47:43.000Z</time>
      </trkpt>
      <trkpt lat="43.17964" lon="2.35968">
        <ele>141.2</ele>
        <time>2022-01-23T09:47:44.000Z</time>
      </trkpt>
      <trkpt lat="43.17964" lon="2.35966">
        <ele>141.2</ele>
        <time>2022-01-23T09:47:45.000Z</time>
      </trkpt>
      <trkpt lat="43.17964" lon="2.35965">
        <ele>141.2</ele>
        <time>2022-01-23T09:47:46.000Z</time>
      </trkpt>
      <trkpt lat="43.17965" lon="2.35963">
        <ele>141.2</ele>
        <time>2022-01-23T09:47:47.000Z</time>
      </trkpt>
      <trkpt lat="43.17966" lon="2.35961">
        <ele>141.2</ele>
        <time>2022-01-23T09:47:48.000Z</time>
      </trkpt>
      <trkpt lat="43.17966" lon="2.35959">
        <ele>141.2</ele>
        <time>2022-01-23T09:47:49.000Z</time>
      </trkpt>
      <trkpt lat="43.17967" lon="2.35956">
        <ele>141.2</ele>
        <time>2022-01-23T09:47:50.000Z</time>
      </trkpt>
      <trkpt lat="43.17968" lon="2.35954">
        <ele>141.2</ele>
        <time>2022-01-23T09:47:51.000Z</time>
      </trkpt>
      <trkpt lat="43.17969" lon="2.35951">
        <ele>141.2</ele>
        <time>2022-01-23T09:47:52.000Z</time>
      </trkpt>
      <trkpt lat="43.1797" lon="2.35949">
        <ele>141.2</ele>
        <time>2022-01-23T09:47:53.000Z</time>
      </trkpt>
      <trkpt lat="43.17971" lon="2.35946">
        <ele>141.2</ele>
        <time>2022-01-23T09:47:54.000Z</time>
      </trkpt>
      <trkpt lat="43.17972" lon="2.35943">
        <ele>141.2</ele>
        <time>2022-01-23T09:47:55.000Z</time>
      </trkpt>
      <trkpt lat="43.17973" lon="2.3594">
        <ele>141.2</ele>
        <time>2022-01-23T09:47:56.000Z</time>
      </trkpt>
      <trkpt lat="43.17973" lon="2.35937">
        <ele>141.2</ele>
        <time>2022-01-23T09:47:57.000Z</time>
      </trkpt>
      <trkpt lat="43.17974" lon="2.35934">
        <ele>141.2</ele>
        <time>2022-01-23T09:47:58.000Z</time>
      </trkpt>
      <trkpt lat="43.17975" lon="2.35931">
        <ele>141.2</ele>
        <time>2022-01-23T09:47:59.000Z</time>
      </trkpt>
      <trkpt lat="43.17977" lon="2.35928">
        <ele>141.2</ele>
        <time>2022-01-23T09:48:00.000Z</time>
      </trkpt>
      <trkpt lat="43.17978" lon="2.35925">
        <ele>141.2</ele>
        <time>2022-01-23T09:48:01.000Z</time>
      </trkpt>
      <trkpt lat="43.17979" lon="2.35922">
        <ele>141.3</ele>
        <time>2022-01-23T09:48:02.000Z</time>
      </trkpt>
      <trkpt lat="43.1798" lon="2.35918">
        <ele>141.3</ele>
        <time>2022-01-23T09:48:03.000Z</time>
      </trkpt>
      <trkpt lat="43.17981" lon="2.35915">
        <ele>141.3</ele>
        <time>2022-01-23T09:48:04.000Z</time>
      </trkpt>
      <trkpt lat="43.17982" lon="2.35912">
        <ele>141.3</ele>
        <time>2022-01-23T09:48:05.000Z</time>
      </trkpt>
      <trkpt lat="43.17983" lon="2.35909">
        <ele>141.4</ele>
        <time>2022-01-23T09:48:06.000Z</time>
      </trkpt>
      <trkpt lat="43.17984" lon="2.35905">
        <ele>141.4</ele>
        <time>2022-01-23T09:48:07.000Z</time>
      </trkpt>
      <trkpt lat="43.17985" lon="2.35902">
        <ele>141.4</ele>
        <time>2022-01-23T09:48:08.000Z</time>
      </trkpt>
      <trkpt lat="43.17986" lon="2.35899">
        <ele>141.5</ele>
        <time>2022-01-23T09:48:09.000Z</time>
      </trkpt>
      <trkpt lat="43.17987" lon="2.35896">
        <ele>141.5</ele>
        <time>2022-01-23T09:48:10.000Z</time>
      </trkpt>
      <trkpt lat="43.17989" lon="2.35892">
        <ele>141.5</ele>
        <time>2022-01-23T09:48:11.000Z</time>
      </trkpt>
      <trkpt lat="43.1799" lon="2.35889">
        <ele>141.6</ele>
        <time>2022-01-23T09:48:12.000Z</time>
      </trkpt>
      <trkpt lat="43.17991" lon="2.35886">
        <ele>141.6</ele>
        <time>2022-01-23T09:48:13.000Z</time>
      </trkpt>
      <trkpt lat="43.17992" lon="2.35883">
        <ele>141.7</ele>
        <time>2022-01-23T09:48:14.000Z</time>
      </trkpt>
      <trkpt lat="43.17993" lon="2.3588">
        <ele>141.7</ele>
        <time>2022-01-23T09:48:15.000Z</time>
      </trkpt>
      <trkpt lat="43.17994" lon="2.35877">
        <ele>141.7</ele>
        <time>2022-01-23T09:48:16.000Z</time>
      </trkpt>
      <trkpt lat="43.17995" lon="2.35874">
        <ele>141.8</ele>
        <time>2022-01-23T09:48:17.000Z</time>
      </trkpt>
      <trkpt lat="43.17996" lon="2.35871">
        <ele>141.8</ele>
        <time>2022-01-23T09:48:18.000Z</time>
      </trkpt>
      <trkpt lat="43.17997" lon="2.35868">
        <ele>141.9</ele>
        <time>2022-01-23T09:48:19.000Z</time>
      </trkpt>
      <trkpt lat="43.17998" lon="2.35865">
        <ele>141.9</ele>
        <time>2022-01-23T09:48:20.000Z</time>
      </trkpt>
      <trkpt lat="43.17999" lon="2.35862">
        <ele>142</ele>
        <time>2022-01-23T09:48:21.000Z</time>
      </trkpt>
      <trkpt lat="43.18" lon="2.35859">
        <ele>142</ele>
        <time>2022-01-23T09:48:22.000Z</time>
      </trkpt>
      <trkpt lat="43.18001" lon="2.35856">
        <ele>142</ele>
        <time>2022-01-23T09:48:23.000Z</time>
      </trkpt>
      <trkpt lat="43.18002" lon="2.35853">
        <ele>141.9</ele>
        <time>2022-01-23T09:48:24.000Z</time>
      </trkpt>
      <trkpt lat="43.18003" lon="2.3585">
        <ele>141.9</ele>
        <time>2022-01-23T09:48:25.000Z</time>
      </trkpt>
      <trkpt lat="43.18004" lon="2.35847">
        <ele>141.9</ele>
        <time>2022-01-23T09:48:26.000Z</time>
      </trkpt>
      <trkpt lat="43.18005" lon="2.35844">
        <ele>141.9</ele>
        <time>2022-01-23T09:48:27.000Z</time>
      </trkpt>
      <trkpt lat="43.18006" lon="2.35842">
        <ele>141.8</ele>
        <time>2022-01-23T09:48:28.000Z</time>
      </trkpt>
      <trkpt lat="43.18007" lon="2.35839">
        <ele>141.8</ele>
        <time>2022-01-23T09:48:29.000Z</time>
      </trkpt>
      <trkpt lat="43.18008" lon="2.35836">
        <ele>141.8</ele>
        <time>2022-01-23T09:48:30.000Z</time>
      </trkpt>
      <trkpt lat="43.1801" lon="2.35833">
        <ele>141.8</ele>
        <time>2022-01-23T09:48:31.000Z</time>
      </trkpt>
      <trkpt lat="43.18011" lon="2.3583">
        <ele>141.8</ele>
        <time>2022-01-23T09:48:32.000Z</time>
      </trkpt>
      <trkpt lat="43.18012" lon="2.35827">
        <ele>141.7</ele>
        <time>2022-01-23T09:48:33.000Z</time>
      </trkpt>
      <trkpt lat="43.18013" lon="2.35825">
        <ele>141.7</ele>
        <time>2022-01-23T09:48:34.000Z</time>
      </trkpt>
      <trkpt lat="43.18014" lon="2.35822">
        <ele>141.7</ele>
        <time>2022-01-23T09:48:35.000Z</time>
      </trkpt>
      <trkpt lat="43.18015" lon="2.35819">
        <ele>141.7</ele>
        <time>2022-01-23T09:48:36.000Z</time>
      </trkpt>
      <trkpt lat="43.18017" lon="2.35816">
        <ele>141.7</ele>
        <time>2022-01-23T09:48:37.000Z</time>
      </trkpt>
      <trkpt lat="43.18018" lon="2.35814">
        <ele>141.7</ele>
        <time>2022-01-23T09:48:38.000Z</time>
      </trkpt>
      <trkpt lat="43.18019" lon="2.35811">
        <ele>141.7</ele>
        <time>2022-01-23T09:48:39.000Z</time>
      </trkpt>
      <trkpt lat="43.18021" lon="2.35808">
        <ele>141.7</ele>
        <time>2022-01-23T09:48:40.000Z</time>
      </trkpt>
      <trkpt lat="43.18022" lon="2.35806">
        <ele>141.7</ele>
        <time>2022-01-23T09:48:41.000Z</time>
      </trkpt>
      <trkpt lat="43.18023" lon="2.35803">
        <ele>141.6</ele>
        <time>2022-01-23T09:48:42.000Z</time>
      </trkpt>
      <trkpt lat="43.18025" lon="2.35801">
        <ele>141.6</ele>
        <time>2022-01-23T09:48:43.000Z</time>
      </trkpt>
      <trkpt lat="43.18026" lon="2.35798">
        <ele>141.6</ele>
        <time>2022-01-23T09:48:44.000Z</time>
      </trkpt>
      <trkpt lat="43.18028" lon="2.35797">
        <ele>141.6</ele>
        <time>2022-01-23T09:48:45.000Z</time>
      </trkpt>
      <trkpt lat="43.1803" lon="2.35796">
        <ele>141.6</ele>
        <time>2022-01-23T09:48:46.000Z</time>
      </trkpt>
      <trkpt lat="43.18032" lon="2.35796">
        <ele>141.6</ele>
        <time>2022-01-23T09:48:47.000Z</time>
      </trkpt>
      <trkpt lat="43.18034" lon="2.35797">
        <ele>141.5</ele>
        <time>2022-01-23T09:48:48.000Z</time>
      </trkpt>
      <trkpt lat="43.18036" lon="2.35799">
        <ele>141.5</ele>
        <time>2022-01-23T09:48:49.000Z</time>
      </trkpt>
      <trkpt lat="43.18038" lon="2.358">
        <ele>141.4</ele>
        <time>2022-01-23T09:48:50.000Z</time>
      </trkpt>
      <trkpt lat="43.1804" lon="2.35802">
        <ele>141.4</ele>
        <time>2022-01-23T09:48:51.000Z</time>
      </trkpt>
      <trkpt lat="43.18042" lon="2.35804">
        <ele>141.3</ele>
        <time>2022-01-23T09:48:52.000Z</time>
      </trkpt>
      <trkpt lat="43.18044" lon="2.35806">
        <ele>141.3</ele>
        <time>2022-01-23T09:48:53.000Z</time>
      </trkpt>
      <trkpt lat="43.18046" lon="2.35808">
        <ele>141.2</ele>
        <time>2022-01-23T09:48:54.000Z</time>
      </trkpt>
      <trkpt lat="43.18048" lon="2.3581">
        <ele>141.2</ele>
        <time>2022-01-23T09:48:55.000Z</time>
      </trkpt>
      <trkpt lat="43.1805" lon="2.35811">
        <ele>141.1</ele>
        <time>2022-01-23T09:48:56.000Z</time>
      </trkpt>
      <trkpt lat="43.18052" lon="2.35813">
        <ele>141.1</ele>
        <time>2022-01-23T09:48:57.000Z</time>
      </trkpt>
      <trkpt lat="43.18054" lon="2.35814">
        <ele>141</ele>
        <time>2022-01-23T09:48:58.000Z</time>
      </trkpt>
      <trkpt lat="43.18056" lon="2.35815">
        <ele>140.9</ele>
        <time>2022-01-23T09:48:59.000Z</time>
      </trkpt>
      <trkpt lat="43.18058" lon="2.35817">
        <ele>140.9</ele>
        <time>2022-01-23T09:49:00.000Z</time>
      </trkpt>
      <trkpt lat="43.1806" lon="2.35818">
        <ele>140.8</ele>
        <time>2022-01-23T09:49:01.000Z</time>
      </trkpt>
      <trkpt lat="43.18062" lon="2.35819">
        <ele>140.8</ele>
        <time>2022-01-23T09:49:02.000Z</time>
      </trkpt>
      <trkpt lat="43.18064" lon="2.3582">
        <ele>140.7</ele>
        <time>2022-01-23T09:49:03.000Z</time>
      </trkpt>
      <trkpt lat="43.18065" lon="2.35821">
        <ele>140.7</ele>
        <time>2022-01-23T09:49:04.000Z</time>
      </trkpt>
      <trkpt lat="43.18067" lon="2.35822">
        <ele>140.6</ele>
        <time>2022-01-23T09:49:05.000Z</time>
      </trkpt>
      <trkpt lat="43.18069" lon="2.35823">
        <ele>140.5</ele>
        <time>2022-01-23T09:49:06.000Z</time>
      </trkpt>
      <trkpt lat="43.18071" lon="2.35824">
        <ele>140.5</ele>
        <time>2022-01-23T09:49:07.000Z</time>
      </trkpt>
      <trkpt lat="43.18073" lon="2.35826">
        <ele>140.4</ele>
        <time>2022-01-23T09:49:08.000Z</time>
      </trkpt>
      <trkpt lat="43.18075" lon="2.35827">
        <ele>140.3</ele>
        <time>2022-01-23T09:49:09.000Z</time>
      </trkpt>
      <trkpt lat="43.18078" lon="2.35828">
        <ele>140.3</ele>
        <time>2022-01-23T09:49:10.000Z</time>
      </trkpt>
      <trkpt lat="43.1808" lon="2.3583">
        <ele>140.2</ele>
        <time>2022-01-23T09:49:11.000Z</time>
      </trkpt>
      <trkpt lat="43.18082" lon="2.35831">
        <ele>140.1</ele>
        <time>2022-01-23T09:49:12.000Z</time>
      </trkpt>
      <trkpt lat="43.18085" lon="2.35833">
        <ele>139.9</ele>
        <time>2022-01-23T09:49:13.000Z</time>
      </trkpt>
      <trkpt lat="43.18087" lon="2.35834">
        <ele>139.7</ele>
        <time>2022-01-23T09:49:14.000Z</time>
      </trkpt>
      <trkpt lat="43.1809" lon="2.35836">
        <ele>139.6</ele>
        <time>2022-01-23T09:49:15.000Z</time>
      </trkpt>
      <trkpt lat="43.18093" lon="2.35837">
        <ele>139.4</ele>
        <time>2022-01-23T09:49:16.000Z</time>
      </trkpt>
      <trkpt lat="43.18095" lon="2.35839">
        <ele>139.2</ele>
        <time>2022-01-23T09:49:17.000Z</time>
      </trkpt>
      <trkpt lat="43.18098" lon="2.3584">
        <ele>139.1</ele>
        <time>2022-01-23T09:49:18.000Z</time>
      </trkpt>
      <trkpt lat="43.181" lon="2.35842">
        <ele>138.9</ele>
        <time>2022-01-23T09:49:19.000Z</time>
      </trkpt>
      <trkpt lat="43.18103" lon="2.35844">
        <ele>138.8</ele>
        <time>2022-01-23T09:49:20.000Z</time>
      </trkpt>
      <trkpt lat="43.18106" lon="2.35845">
        <ele>138.6</ele>
        <time>2022-01-23T09:49:21.000Z</time>
      </trkpt>
      <trkpt lat="43.18108" lon="2.35847">
        <ele>138.4</ele>
        <time>2022-01-23T09:49:22.000Z</time>
      </trkpt>
      <trkpt lat="43.18111" lon="2.35848">
        <ele>138.3</ele>
        <time>2022-01-23T09:49:23.000Z</time>
      </trkpt>
      <trkpt lat="43.18113" lon="2.3585">
        <ele>138.2</ele>
        <time>2022-01-23T09:49:24.000Z</time>
      </trkpt>
      <trkpt lat="43.18116" lon="2.35852">
        <ele>138</ele>
        <time>2022-01-23T09:49:25.000Z</time>
      </trkpt>
      <trkpt lat="43.18118" lon="2.35854">
        <ele>137.9</ele>
        <time>2022-01-23T09:49:26.000Z</time>
      </trkpt>
      <trkpt lat="43.1812" lon="2.35855">
        <ele>137.7</ele>
        <time>2022-01-23T09:49:27.000Z</time>
      </trkpt>
      <trkpt lat="43.18123" lon="2.35857">
        <ele>137.6</ele>
        <time>2022-01-23T09:49:28.000Z</time>
      </trkpt>
      <trkpt lat="43.18125" lon="2.35859">
        <ele>137.5</ele>
        <time>2022-01-23T09:49:29.000Z</time>
      </trkpt>
      <trkpt lat="43.18128" lon="2.3586">
        <ele>137.4</ele>
        <time>2022-01-23T09:49:30.000Z</time>
      </trkpt>
      <trkpt lat="43.1813" lon="2.35862">
        <ele>137.3</ele>
        <time>2022-01-23T09:49:31.000Z</time>
      </trkpt>
      <trkpt lat="43.18132" lon="2.35864">
        <ele>137.1</ele>
        <time>2022-01-23T09:49:32.000Z</time>
      </trkpt>
      <trkpt lat="43.18134" lon="2.35866">
        <ele>137</ele>
        <time>2022-01-23T09:49:33.000Z</time>
      </trkpt>
      <trkpt lat="43.18137" lon="2.35867">
        <ele>136.9</ele>
        <time>2022-01-23T09:49:34.000Z</time>
      </trkpt>
      <trkpt lat="43.18139" lon="2.35869">
        <ele>136.8</ele>
        <time>2022-01-23T09:49:35.000Z</time>
      </trkpt>
      <trkpt lat="43.18141" lon="2.3587">
        <ele>136.7</ele>
        <time>2022-01-23T09:49:36.000Z</time>
      </trkpt>
      <trkpt lat="43.18144" lon="2.35872">
        <ele>136.6</ele>
        <time>2022-01-23T09:49:37.000Z</time>
      </trkpt>
      <trkpt lat="43.18146" lon="2.35874">
        <ele>136.5</ele>
        <time>2022-01-23T09:49:38.000Z</time>
      </trkpt>
      <trkpt lat="43.18148" lon="2.35875">
        <ele>136.4</ele>
        <time>2022-01-23T09:49:39.000Z</time>
      </trkpt>
      <trkpt lat="43.18151" lon="2.35877">
        <ele>136.3</ele>
        <time>2022-01-23T09:49:40.000Z</time>
      </trkpt>
      <trkpt lat="43.18153" lon="2.35878">
        <ele>136.2</ele>
        <time>2022-01-23T09:49:41.000Z</time>
      </trkpt>
      <trkpt lat="43.18156" lon="2.35879">
        <ele>136.1</ele>
        <time>2022-01-23T09:49:42.000Z</time>
      </trkpt>
      <trkpt lat="43.18158" lon="2.35881">
        <ele>136</ele>
        <time>2022-01-23T09:49:43.000Z</time>
      </trkpt>
      <trkpt lat="43.18161" lon="2.35882">
        <ele>135.9</ele>
        <time>2022-01-23T09:49:44.000Z</time>
      </trkpt>
      <trkpt lat="43.18163" lon="2.35883">
        <ele>135.7</ele>
        <time>2022-01-23T09:49:45.000Z</time>
      </trkpt>
      <trkpt lat="43.18166" lon="2.35884">
        <ele>135.6</ele>
        <time>2022-01-23T09:49:46.000Z</time>
      </trkpt>
      <trkpt lat="43.18168" lon="2.35885">
        <ele>135.7</ele>
        <time>2022-01-23T09:49:47.000Z</time>
      </trkpt>
      <trkpt lat="43.1817" lon="2.35886">
        <ele>135.8</ele>
        <time>2022-01-23T09:49:48.000Z</time>
      </trkpt>
      <trkpt lat="43.18172" lon="2.35887">
        <ele>135.9</ele>
        <time>2022-01-23T09:49:49.000Z</time>
      </trkpt>
      <trkpt lat="43.18174" lon="2.35888">
        <ele>136</ele>
        <time>2022-01-23T09:49:50.000Z</time>
      </trkpt>
      <trkpt lat="43.18176" lon="2.35888">
        <ele>136.1</ele>
        <time>2022-01-23T09:49:51.000Z</time>
      </trkpt>
      <trkpt lat="43.18177" lon="2.35889">
        <ele>136.1</ele>
        <time>2022-01-23T09:49:52.000Z</time>
      </trkpt>
      <trkpt lat="43.18178" lon="2.35889">
        <ele>136.2</ele>
        <time>2022-01-23T09:49:53.000Z</time>
      </trkpt>
      <trkpt lat="43.18179" lon="2.35889">
        <ele>136.2</ele>
        <time>2022-01-23T09:49:54.000Z</time>
      </trkpt>
      <trkpt lat="43.18179" lon="2.35889">
        <ele>136.2</ele>
        <time>2022-01-23T09:49:55.000Z</time>
      </trkpt>
      <trkpt lat="43.1818" lon="2.35889">
        <ele>136.3</ele>
        <time>2022-01-23T09:49:56.000Z</time>
      </trkpt>
      <trkpt lat="43.1818" lon="2.35889">
        <ele>136.3</ele>
        <time>2022-01-23T09:49:57.000Z</time>
      </trkpt>
      <trkpt lat="43.18181" lon="2.3589">
        <ele>136.3</ele>
        <time>2022-01-23T09:49:58.000Z</time>
      </trkpt>
      <trkpt lat="43.18181" lon="2.3589">
        <ele>136.3</ele>
        <time>2022-01-23T09:49:59.000Z</time>
      </trkpt>
      <trkpt lat="43.18181" lon="2.3589">
        <ele>136.3</ele>
        <time>2022-01-23T09:50:00.000Z</time>
      </trkpt>
      <trkpt lat="43.18181" lon="2.3589">
        <ele>136.3</ele>
        <time>2022-01-23T09:50:01.000Z</time>
      </trkpt>
      <trkpt lat="43.18181" lon="2.3589">
        <ele>136.3</ele>
        <time>2022-01-23T09:50:02.000Z</time>
      </trkpt>
      <trkpt lat="43.18181" lon="2.3589">
        <ele>136.3</ele>
        <time>2022-01-23T09:50:03.000Z</time>
      </trkpt>
      <trkpt lat="43.18181" lon="2.3589">
        <ele>136.3</ele>
        <time>2022-01-23T09:50:04.000Z</time>
      </trkpt>
      <trkpt lat="43.18182" lon="2.35891">
        <ele>136.4</ele>
        <time>2022-01-23T09:50:05.000Z</time>
      </trkpt>
      <trkpt lat="43.18182" lon="2.35891">
        <ele>136.4</ele>
        <time>2022-01-23T09:50:06.000Z</time>
      </trkpt>
      <trkpt lat="43.18182" lon="2.35891">
        <ele>136.4</ele>
        <time>2022-01-23T09:50:07.000Z</time>
      </trkpt>
      <trkpt lat="43.18182" lon="2.35891">
        <ele>136.4</ele>
        <time>2022-01-23T09:50:08.000Z</time>
      </trkpt>
      <trkpt lat="43.18182" lon="2.35892">
        <ele>136.4</ele>
        <time>2022-01-23T09:50:09.000Z</time>
      </trkpt>
      <trkpt lat="43.18183" lon="2.35892">
        <ele>136.4</ele>
        <time>2022-01-23T09:50:10.000Z</time>
      </trkpt>
      <trkpt lat="43.18183" lon="2.35892">
        <ele>136.5</ele>
        <time>2022-01-23T09:50:11.000Z</time>
      </trkpt>
      <trkpt lat="43.18183" lon="2.35892">
        <ele>136.5</ele>
        <time>2022-01-23T09:50:12.000Z</time>
      </trkpt>
      <trkpt lat="43.18183" lon="2.35892">
        <ele>136.5</ele>
        <time>2022-01-23T09:50:13.000Z</time>
      </trkpt>
      <trkpt lat="43.18183" lon="2.35892">
        <ele>136.5</ele>
        <time>2022-01-23T09:50:14.000Z</time>
      </trkpt>
      <trkpt lat="43.18183" lon="2.35891">
        <ele>136.4</ele>
        <time>2022-01-23T09:50:15.000Z</time>
      </trkpt>
      <trkpt lat="43.18183" lon="2.35889">
        <ele>136.4</ele>
        <time>2022-01-23T09:50:16.000Z</time>
      </trkpt>
      <trkpt lat="43.18183" lon="2.35888">
        <ele>136.4</ele>
        <time>2022-01-23T09:50:17.000Z</time>
      </trkpt>
      <trkpt lat="43.18183" lon="2.35887">
        <ele>136.3</ele>
        <time>2022-01-23T09:50:18.000Z</time>
      </trkpt>
      <trkpt lat="43.18183" lon="2.35886">
        <ele>136.3</ele>
        <time>2022-01-23T09:50:19.000Z</time>
      </trkpt>
      <trkpt lat="43.18183" lon="2.35886">
        <ele>136.3</ele>
        <time>2022-01-23T09:50:20.000Z</time>
      </trkpt>
      <trkpt lat="43.18184" lon="2.35886">
        <ele>136.3</ele>
        <time>2022-01-23T09:50:21.000Z</time>
      </trkpt>
      <trkpt lat="43.18184" lon="2.35886">
        <ele>136.4</ele>
        <time>2022-01-23T09:50:22.000Z</time>
      </trkpt>
      <trkpt lat="43.18185" lon="2.35887">
        <ele>136.4</ele>
        <time>2022-01-23T09:50:23.000Z</time>
      </trkpt>
      <trkpt lat="43.18185" lon="2.35887">
        <ele>136.4</ele>
        <time>2022-01-23T09:50:24.000Z</time>
      </trkpt>
      <trkpt lat="43.18185" lon="2.35888">
        <ele>136.5</ele>
        <time>2022-01-23T09:50:25.000Z</time>
      </trkpt>
      <trkpt lat="43.18185" lon="2.35889">
        <ele>136.5</ele>
        <time>2022-01-23T09:50:26.000Z</time>
      </trkpt>
      <trkpt lat="43.18185" lon="2.35889">
        <ele>136.5</ele>
        <time>2022-01-23T09:50:27.000Z</time>
      </trkpt>
      <trkpt lat="43.18185" lon="2.3589">
        <ele>136.5</ele>
        <time>2022-01-23T09:50:28.000Z</time>
      </trkpt>
      <trkpt lat="43.18185" lon="2.3589">
        <ele>136.5</ele>
        <time>2022-01-23T09:50:29.000Z</time>
      </trkpt>
      <trkpt lat="43.18185" lon="2.35892">
        <ele>136.5</ele>
        <time>2022-01-23T09:50:30.000Z</time>
      </trkpt>
      <trkpt lat="43.18185" lon="2.35893">
        <ele>136.6</ele>
        <time>2022-01-23T09:50:31.000Z</time>
      </trkpt>
      <trkpt lat="43.18185" lon="2.35895">
        <ele>136.6</ele>
        <time>2022-01-23T09:50:32.000Z</time>
      </trkpt>
      <trkpt lat="43.18186" lon="2.35897">
        <ele>136.7</ele>
        <time>2022-01-23T09:50:33.000Z</time>
      </trkpt>
      <trkpt lat="43.18186" lon="2.35899">
        <ele>136.7</ele>
        <time>2022-01-23T09:50:34.000Z</time>
      </trkpt>
      <trkpt lat="43.18186" lon="2.35901">
        <ele>136.8</ele>
        <time>2022-01-23T09:50:35.000Z</time>
      </trkpt>
      <trkpt lat="43.18186" lon="2.35904">
        <ele>136.9</ele>
        <time>2022-01-23T09:50:36.000Z</time>
      </trkpt>
      <trkpt lat="43.18186" lon="2.35906">
        <ele>136.9</ele>
        <time>2022-01-23T09:50:37.000Z</time>
      </trkpt>
      <trkpt lat="43.18186" lon="2.35909">
        <ele>137</ele>
        <time>2022-01-23T09:50:38.000Z</time>
      </trkpt>
      <trkpt lat="43.18186" lon="2.35912">
        <ele>137</ele>
        <time>2022-01-23T09:50:39.000Z</time>
      </trkpt>
      <trkpt lat="43.18186" lon="2.35915">
        <ele>137.1</ele>
        <time>2022-01-23T09:50:40.000Z</time>
      </trkpt>
      <trkpt lat="43.18186" lon="2.35917">
        <ele>137.2</ele>
        <time>2022-01-23T09:50:41.000Z</time>
      </trkpt>
      <trkpt lat="43.18186" lon="2.3592">
        <ele>137.2</ele>
        <time>2022-01-23T09:50:42.000Z</time>
      </trkpt>
      <trkpt lat="43.18186" lon="2.35923">
        <ele>137.3</ele>
        <time>2022-01-23T09:50:43.000Z</time>
      </trkpt>
      <trkpt lat="43.18186" lon="2.35926">
        <ele>137.4</ele>
        <time>2022-01-23T09:50:44.000Z</time>
      </trkpt>
      <trkpt lat="43.18186" lon="2.35929">
        <ele>137.5</ele>
        <time>2022-01-23T09:50:45.000Z</time>
      </trkpt>
      <trkpt lat="43.18187" lon="2.35932">
        <ele>137.6</ele>
        <time>2022-01-23T09:50:46.000Z</time>
      </trkpt>
      <trkpt lat="43.18187" lon="2.35934">
        <ele>137.6</ele>
        <time>2022-01-23T09:50:47.000Z</time>
      </trkpt>
      <trkpt lat="43.18187" lon="2.35937">
        <ele>137.7</ele>
        <time>2022-01-23T09:50:48.000Z</time>
      </trkpt>
      <trkpt lat="43.18188" lon="2.3594">
        <ele>137.8</ele>
        <time>2022-01-23T09:50:49.000Z</time>
      </trkpt>
      <trkpt lat="43.18188" lon="2.35943">
        <ele>137.9</ele>
        <time>2022-01-23T09:50:50.000Z</time>
      </trkpt>
      <trkpt lat="43.18188" lon="2.35946">
        <ele>138</ele>
        <time>2022-01-23T09:50:51.000Z</time>
      </trkpt>
      <trkpt lat="43.18188" lon="2.35949">
        <ele>138.1</ele>
        <time>2022-01-23T09:50:52.000Z</time>
      </trkpt>
      <trkpt lat="43.18189" lon="2.35952">
        <ele>138.2</ele>
        <time>2022-01-23T09:50:53.000Z</time>
      </trkpt>
      <trkpt lat="43.18189" lon="2.35954">
        <ele>138.2</ele>
        <time>2022-01-23T09:50:54.000Z</time>
      </trkpt>
      <trkpt lat="43.18189" lon="2.35957">
        <ele>138.3</ele>
        <time>2022-01-23T09:50:55.000Z</time>
      </trkpt>
      <trkpt lat="43.18188" lon="2.3596">
        <ele>138.3</ele>
        <time>2022-01-23T09:50:56.000Z</time>
      </trkpt>
      <trkpt lat="43.18188" lon="2.35963">
        <ele>138.4</ele>
        <time>2022-01-23T09:50:57.000Z</time>
      </trkpt>
      <trkpt lat="43.18188" lon="2.35965">
        <ele>138.4</ele>
        <time>2022-01-23T09:50:58.000Z</time>
      </trkpt>
      <trkpt lat="43.18187" lon="2.35968">
        <ele>138.4</ele>
        <time>2022-01-23T09:50:59.000Z</time>
      </trkpt>
      <trkpt lat="43.18186" lon="2.35971">
        <ele>138.4</ele>
        <time>2022-01-23T09:51:00.000Z</time>
      </trkpt>
      <trkpt lat="43.18185" lon="2.35973">
        <ele>138.4</ele>
        <time>2022-01-23T09:51:01.000Z</time>
      </trkpt>
      <trkpt lat="43.18183" lon="2.35976">
        <ele>138.4</ele>
        <time>2022-01-23T09:51:02.000Z</time>
      </trkpt>
      <trkpt lat="43.18182" lon="2.35978">
        <ele>138.4</ele>
        <time>2022-01-23T09:51:03.000Z</time>
      </trkpt>
      <trkpt lat="43.1818" lon="2.3598">
        <ele>138.3</ele>
        <time>2022-01-23T09:51:04.000Z</time>
      </trkpt>
      <trkpt lat="43.18179" lon="2.35983">
        <ele>138.3</ele>
        <time>2022-01-23T09:51:05.000Z</time>
      </trkpt>
      <trkpt lat="43.18177" lon="2.35985">
        <ele>138.3</ele>
        <time>2022-01-23T09:51:06.000Z</time>
      </trkpt>
      <trkpt lat="43.18176" lon="2.35988">
        <ele>138.3</ele>
        <time>2022-01-23T09:51:07.000Z</time>
      </trkpt>
      <trkpt lat="43.18175" lon="2.35991">
        <ele>138.3</ele>
        <time>2022-01-23T09:51:08.000Z</time>
      </trkpt>
      <trkpt lat="43.18174" lon="2.35993">
        <ele>138.3</ele>
        <time>2022-01-23T09:51:09.000Z</time>
      </trkpt>
      <trkpt lat="43.18173" lon="2.35996">
        <ele>138.3</ele>
        <time>2022-01-23T09:51:10.000Z</time>
      </trkpt>
      <trkpt lat="43.18173" lon="2.35999">
        <ele>138.3</ele>
        <time>2022-01-23T09:51:11.000Z</time>
      </trkpt>
      <trkpt lat="43.18173" lon="2.36002">
        <ele>138.4</ele>
        <time>2022-01-23T09:51:12.000Z</time>
      </trkpt>
      <trkpt lat="43.18173" lon="2.36005">
        <ele>138.5</ele>
        <time>2022-01-23T09:51:13.000Z</time>
      </trkpt>
      <trkpt lat="43.18173" lon="2.36007">
        <ele>138.6</ele>
        <time>2022-01-23T09:51:14.000Z</time>
      </trkpt>
      <trkpt lat="43.18174" lon="2.3601">
        <ele>138.6</ele>
        <time>2022-01-23T09:51:15.000Z</time>
      </trkpt>
      <trkpt lat="43.18175" lon="2.36012">
        <ele>138.7</ele>
        <time>2022-01-23T09:51:16.000Z</time>
      </trkpt>
      <trkpt lat="43.18176" lon="2.36014">
        <ele>138.9</ele>
        <time>2022-01-23T09:51:17.000Z</time>
      </trkpt>
      <trkpt lat="43.18177" lon="2.36016">
        <ele>139</ele>
        <time>2022-01-23T09:51:18.000Z</time>
      </trkpt>
      <trkpt lat="43.18178" lon="2.36018">
        <ele>139.1</ele>
        <time>2022-01-23T09:51:19.000Z</time>
      </trkpt>
      <trkpt lat="43.1818" lon="2.3602">
        <ele>139.2</ele>
        <time>2022-01-23T09:51:20.000Z</time>
      </trkpt>
      <trkpt lat="43.18182" lon="2.36021">
        <ele>139.4</ele>
        <time>2022-01-23T09:51:21.000Z</time>
      </trkpt>
      <trkpt lat="43.18184" lon="2.36022">
        <ele>139.5</ele>
        <time>2022-01-23T09:51:22.000Z</time>
      </trkpt>
      <trkpt lat="43.18185" lon="2.36023">
        <ele>139.6</ele>
        <time>2022-01-23T09:51:23.000Z</time>
      </trkpt>
      <trkpt lat="43.18187" lon="2.36024">
        <ele>139.7</ele>
        <time>2022-01-23T09:51:24.000Z</time>
      </trkpt>
      <trkpt lat="43.18189" lon="2.36024">
        <ele>139.8</ele>
        <time>2022-01-23T09:51:25.000Z</time>
      </trkpt>
      <trkpt lat="43.18191" lon="2.36025">
        <ele>140</ele>
        <time>2022-01-23T09:51:26.000Z</time>
      </trkpt>
      <trkpt lat="43.18193" lon="2.36027">
        <ele>140.1</ele>
        <time>2022-01-23T09:51:27.000Z</time>
      </trkpt>
      <trkpt lat="43.18195" lon="2.36029">
        <ele>140.3</ele>
        <time>2022-01-23T09:51:28.000Z</time>
      </trkpt>
      <trkpt lat="43.18197" lon="2.3603">
        <ele>140.4</ele>
        <time>2022-01-23T09:51:29.000Z</time>
      </trkpt>
      <trkpt lat="43.18199" lon="2.36032">
        <ele>140.6</ele>
        <time>2022-01-23T09:51:30.000Z</time>
      </trkpt>
      <trkpt lat="43.18201" lon="2.36034">
        <ele>140.7</ele>
        <time>2022-01-23T09:51:31.000Z</time>
      </trkpt>
      <trkpt lat="43.18203" lon="2.36035">
        <ele>140.8</ele>
        <time>2022-01-23T09:51:32.000Z</time>
      </trkpt>
      <trkpt lat="43.18205" lon="2.36036">
        <ele>140.9</ele>
        <time>2022-01-23T09:51:33.000Z</time>
      </trkpt>
      <trkpt lat="43.18207" lon="2.36036">
        <ele>141</ele>
        <time>2022-01-23T09:51:34.000Z</time>
      </trkpt>
      <trkpt lat="43.18208" lon="2.36035">
        <ele>141.1</ele>
        <time>2022-01-23T09:51:35.000Z</time>
      </trkpt>
      <trkpt lat="43.1821" lon="2.36034">
        <ele>141.2</ele>
        <time>2022-01-23T09:51:36.000Z</time>
      </trkpt>
      <trkpt lat="43.18211" lon="2.36032">
        <ele>141.2</ele>
        <time>2022-01-23T09:51:37.000Z</time>
      </trkpt>
      <trkpt lat="43.18212" lon="2.3603">
        <ele>141.2</ele>
        <time>2022-01-23T09:51:38.000Z</time>
      </trkpt>
      <trkpt lat="43.18213" lon="2.36028">
        <ele>141.3</ele>
        <time>2022-01-23T09:51:39.000Z</time>
      </trkpt>
      <trkpt lat="43.18214" lon="2.36026">
        <ele>141.3</ele>
        <time>2022-01-23T09:51:40.000Z</time>
      </trkpt>
      <trkpt lat="43.18215" lon="2.36024">
        <ele>141.3</ele>
        <time>2022-01-23T09:51:41.000Z</time>
      </trkpt>
      <trkpt lat="43.18216" lon="2.36022">
        <ele>141.4</ele>
        <time>2022-01-23T09:51:42.000Z</time>
      </trkpt>
      <trkpt lat="43.18218" lon="2.36021">
        <ele>141.4</ele>
        <time>2022-01-23T09:51:43.000Z</time>
      </trkpt>
      <trkpt lat="43.18219" lon="2.3602">
        <ele>141.5</ele>
        <time>2022-01-23T09:51:44.000Z</time>
      </trkpt>
      <trkpt lat="43.1822" lon="2.3602">
        <ele>141.5</ele>
        <time>2022-01-23T09:51:45.000Z</time>
      </trkpt>
      <trkpt lat="43.18222" lon="2.3602">
        <ele>141.6</ele>
        <time>2022-01-23T09:51:46.000Z</time>
      </trkpt>
      <trkpt lat="43.18223" lon="2.3602">
        <ele>141.7</ele>
        <time>2022-01-23T09:51:47.000Z</time>
      </trkpt>
      <trkpt lat="43.18224" lon="2.36021">
        <ele>141.8</ele>
        <time>2022-01-23T09:51:48.000Z</time>
      </trkpt>
      <trkpt lat="43.18226" lon="2.36021">
        <ele>141.9</ele>
        <time>2022-01-23T09:51:49.000Z</time>
      </trkpt>
      <trkpt lat="43.18227" lon="2.36021">
        <ele>142</ele>
        <time>2022-01-23T09:51:50.000Z</time>
      </trkpt>
      <trkpt lat="43.18229" lon="2.36022">
        <ele>142.1</ele>
        <time>2022-01-23T09:51:51.000Z</time>
      </trkpt>
      <trkpt lat="43.18231" lon="2.36022">
        <ele>142.2</ele>
        <time>2022-01-23T09:51:52.000Z</time>
      </trkpt>
      <trkpt lat="43.18232" lon="2.36022">
        <ele>142.2</ele>
        <time>2022-01-23T09:51:53.000Z</time>
      </trkpt>
      <trkpt lat="43.18234" lon="2.36023">
        <ele>142.3</ele>
        <time>2022-01-23T09:51:54.000Z</time>
      </trkpt>
      <trkpt lat="43.18235" lon="2.36023">
        <ele>142.4</ele>
        <time>2022-01-23T09:51:55.000Z</time>
      </trkpt>
      <trkpt lat="43.18237" lon="2.36023">
        <ele>142.5</ele>
        <time>2022-01-23T09:51:56.000Z</time>
      </trkpt>
      <trkpt lat="43.18238" lon="2.36024">
        <ele>142.6</ele>
        <time>2022-01-23T09:51:57.000Z</time>
      </trkpt>
      <trkpt lat="43.1824" lon="2.36025">
        <ele>142.7</ele>
        <time>2022-01-23T09:51:58.000Z</time>
      </trkpt>
      <trkpt lat="43.18241" lon="2.36026">
        <ele>142.8</ele>
        <time>2022-01-23T09:51:59.000Z</time>
      </trkpt>
      <trkpt lat="43.18243" lon="2.36027">
        <ele>142.9</ele>
        <time>2022-01-23T09:52:00.000Z</time>
      </trkpt>
      <trkpt lat="43.18244" lon="2.36028">
        <ele>143</ele>
        <time>2022-01-23T09:52:01.000Z</time>
      </trkpt>
      <trkpt lat="43.18245" lon="2.3603">
        <ele>143.1</ele>
        <time>2022-01-23T09:52:02.000Z</time>
      </trkpt>
      <trkpt lat="43.18245" lon="2.36032">
        <ele>143.1</ele>
        <time>2022-01-23T09:52:03.000Z</time>
      </trkpt>
      <trkpt lat="43.18246" lon="2.36035">
        <ele>143.2</ele>
        <time>2022-01-23T09:52:04.000Z</time>
      </trkpt>
      <trkpt lat="43.18247" lon="2.36037">
        <ele>143.3</ele>
        <time>2022-01-23T09:52:05.000Z</time>
      </trkpt>
      <trkpt lat="43.18247" lon="2.3604">
        <ele>143.3</ele>
        <time>2022-01-23T09:52:06.000Z</time>
      </trkpt>
      <trkpt lat="43.18247" lon="2.36042">
        <ele>143.4</ele>
        <time>2022-01-23T09:52:07.000Z</time>
      </trkpt>
      <trkpt lat="43.18247" lon="2.36045">
        <ele>143.4</ele>
        <time>2022-01-23T09:52:08.000Z</time>
      </trkpt>
      <trkpt lat="43.18247" lon="2.36048">
        <ele>143.4</ele>
        <time>2022-01-23T09:52:09.000Z</time>
      </trkpt>
      <trkpt lat="43.18247" lon="2.36051">
        <ele>143.5</ele>
        <time>2022-01-23T09:52:10.000Z</time>
      </trkpt>
      <trkpt lat="43.18247" lon="2.36054">
        <ele>143.5</ele>
        <time>2022-01-23T09:52:11.000Z</time>
      </trkpt>
      <trkpt lat="43.18247" lon="2.36058">
        <ele>143.5</ele>
        <time>2022-01-23T09:52:12.000Z</time>
      </trkpt>
      <trkpt lat="43.18246" lon="2.36061">
        <ele>143.5</ele>
        <time>2022-01-23T09:52:13.000Z</time>
      </trkpt>
      <trkpt lat="43.18246" lon="2.36064">
        <ele>143.5</ele>
        <time>2022-01-23T09:52:14.000Z</time>
      </trkpt>
      <trkpt lat="43.18245" lon="2.36067">
        <ele>143.6</ele>
        <time>2022-01-23T09:52:15.000Z</time>
      </trkpt>
      <trkpt lat="43.18245" lon="2.36071">
        <ele>143.6</ele>
        <time>2022-01-23T09:52:16.000Z</time>
      </trkpt>
      <trkpt lat="43.18244" lon="2.36074">
        <ele>143.6</ele>
        <time>2022-01-23T09:52:17.000Z</time>
      </trkpt>
      <trkpt lat="43.18244" lon="2.36077">
        <ele>143.6</ele>
        <time>2022-01-23T09:52:18.000Z</time>
      </trkpt>
      <trkpt lat="43.18243" lon="2.3608">
        <ele>143.6</ele>
        <time>2022-01-23T09:52:19.000Z</time>
      </trkpt>
      <trkpt lat="43.18243" lon="2.36083">
        <ele>143.6</ele>
        <time>2022-01-23T09:52:20.000Z</time>
      </trkpt>
      <trkpt lat="43.18242" lon="2.36086">
        <ele>143.6</ele>
        <time>2022-01-23T09:52:21.000Z</time>
      </trkpt>
      <trkpt lat="43.18242" lon="2.3609">
        <ele>143.5</ele>
        <time>2022-01-23T09:52:22.000Z</time>
      </trkpt>
      <trkpt lat="43.18241" lon="2.36093">
        <ele>143.4</ele>
        <time>2022-01-23T09:52:23.000Z</time>
      </trkpt>
      <trkpt lat="43.1824" lon="2.36096">
        <ele>143.3</ele>
        <time>2022-01-23T09:52:24.000Z</time>
      </trkpt>
      <trkpt lat="43.1824" lon="2.36099">
        <ele>143.2</ele>
        <time>2022-01-23T09:52:25.000Z</time>
      </trkpt>
      <trkpt lat="43.18239" lon="2.36102">
        <ele>143.1</ele>
        <time>2022-01-23T09:52:26.000Z</time>
      </trkpt>
      <trkpt lat="43.18238" lon="2.36105">
        <ele>143</ele>
        <time>2022-01-23T09:52:27.000Z</time>
      </trkpt>
      <trkpt lat="43.18237" lon="2.36108">
        <ele>142.9</ele>
        <time>2022-01-23T09:52:28.000Z</time>
      </trkpt>
      <trkpt lat="43.18236" lon="2.36111">
        <ele>142.8</ele>
        <time>2022-01-23T09:52:29.000Z</time>
      </trkpt>
      <trkpt lat="43.18236" lon="2.36115">
        <ele>142.8</ele>
        <time>2022-01-23T09:52:30.000Z</time>
      </trkpt>
      <trkpt lat="43.18235" lon="2.36118">
        <ele>142.7</ele>
        <time>2022-01-23T09:52:31.000Z</time>
      </trkpt>
      <trkpt lat="43.18235" lon="2.3612">
        <ele>142.6</ele>
        <time>2022-01-23T09:52:32.000Z</time>
      </trkpt>
      <trkpt lat="43.18235" lon="2.36123">
        <ele>142.6</ele>
        <time>2022-01-23T09:52:33.000Z</time>
      </trkpt>
      <trkpt lat="43.18236" lon="2.36126">
        <ele>142.6</ele>
        <time>2022-01-23T09:52:34.000Z</time>
      </trkpt>
      <trkpt lat="43.18236" lon="2.36129">
        <ele>142.5</ele>
        <time>2022-01-23T09:52:35.000Z</time>
      </trkpt>
      <trkpt lat="43.18238" lon="2.36131">
        <ele>142.5</ele>
        <time>2022-01-23T09:52:36.000Z</time>
      </trkpt>
      <trkpt lat="43.18239" lon="2.36133">
        <ele>142.5</ele>
        <time>2022-01-23T09:52:37.000Z</time>
      </trkpt>
      <trkpt lat="43.18241" lon="2.36135">
        <ele>142.5</ele>
        <time>2022-01-23T09:52:38.000Z</time>
      </trkpt>
      <trkpt lat="43.18244" lon="2.36136">
        <ele>142.6</ele>
        <time>2022-01-23T09:52:39.000Z</time>
      </trkpt>
      <trkpt lat="43.18247" lon="2.36137">
        <ele>142.6</ele>
        <time>2022-01-23T09:52:40.000Z</time>
      </trkpt>
      <trkpt lat="43.18249" lon="2.36138">
        <ele>142.7</ele>
        <time>2022-01-23T09:52:41.000Z</time>
      </trkpt>
      <trkpt lat="43.18252" lon="2.36138">
        <ele>142.5</ele>
        <time>2022-01-23T09:52:42.000Z</time>
      </trkpt>
      <trkpt lat="43.18255" lon="2.36138">
        <ele>142.3</ele>
        <time>2022-01-23T09:52:43.000Z</time>
      </trkpt>
      <trkpt lat="43.18258" lon="2.36138">
        <ele>142.1</ele>
        <time>2022-01-23T09:52:44.000Z</time>
      </trkpt>
      <trkpt lat="43.18261" lon="2.36139">
        <ele>141.8</ele>
        <time>2022-01-23T09:52:45.000Z</time>
      </trkpt>
      <trkpt lat="43.18264" lon="2.36139">
        <ele>141.6</ele>
        <time>2022-01-23T09:52:46.000Z</time>
      </trkpt>
      <trkpt lat="43.18267" lon="2.36139">
        <ele>141.4</ele>
        <time>2022-01-23T09:52:47.000Z</time>
      </trkpt>
      <trkpt lat="43.18269" lon="2.36139">
        <ele>141.2</ele>
        <time>2022-01-23T09:52:48.000Z</time>
      </trkpt>
      <trkpt lat="43.18272" lon="2.36139">
        <ele>141</ele>
        <time>2022-01-23T09:52:49.000Z</time>
      </trkpt>
      <trkpt lat="43.18275" lon="2.36139">
        <ele>140.8</ele>
        <time>2022-01-23T09:52:50.000Z</time>
      </trkpt>
      <trkpt lat="43.18278" lon="2.36139">
        <ele>140.6</ele>
        <time>2022-01-23T09:52:51.000Z</time>
      </trkpt>
      <trkpt lat="43.18281" lon="2.36139">
        <ele>140.3</ele>
        <time>2022-01-23T09:52:52.000Z</time>
      </trkpt>
      <trkpt lat="43.18284" lon="2.36139">
        <ele>140.1</ele>
        <time>2022-01-23T09:52:53.000Z</time>
      </trkpt>
      <trkpt lat="43.18287" lon="2.3614">
        <ele>139.9</ele>
        <time>2022-01-23T09:52:54.000Z</time>
      </trkpt>
      <trkpt lat="43.18289" lon="2.3614">
        <ele>139.7</ele>
        <time>2022-01-23T09:52:55.000Z</time>
      </trkpt>
      <trkpt lat="43.18292" lon="2.3614">
        <ele>139.4</ele>
        <time>2022-01-23T09:52:56.000Z</time>
      </trkpt>
      <trkpt lat="43.18295" lon="2.3614">
        <ele>139.2</ele>
        <time>2022-01-23T09:52:57.000Z</time>
      </trkpt>
      <trkpt lat="43.18298" lon="2.36141">
        <ele>139</ele>
        <time>2022-01-23T09:52:58.000Z</time>
      </trkpt>
      <trkpt lat="43.18301" lon="2.36141">
        <ele>138.8</ele>
        <time>2022-01-23T09:52:59.000Z</time>
      </trkpt>
      <trkpt lat="43.18304" lon="2.36141">
        <ele>138.6</ele>
        <time>2022-01-23T09:53:00.000Z</time>
      </trkpt>
      <trkpt lat="43.18307" lon="2.36141">
        <ele>138.3</ele>
        <time>2022-01-23T09:53:01.000Z</time>
      </trkpt>
      <trkpt lat="43.1831" lon="2.36141">
        <ele>138.1</ele>
        <time>2022-01-23T09:53:02.000Z</time>
      </trkpt>
      <trkpt lat="43.18313" lon="2.36141">
        <ele>137.9</ele>
        <time>2022-01-23T09:53:03.000Z</time>
      </trkpt>
      <trkpt lat="43.18315" lon="2.36142">
        <ele>137.7</ele>
        <time>2022-01-23T09:53:04.000Z</time>
      </trkpt>
      <trkpt lat="43.18318" lon="2.36142">
        <ele>137.6</ele>
        <time>2022-01-23T09:53:05.000Z</time>
      </trkpt>
      <trkpt lat="43.1832" lon="2.36142">
        <ele>137.4</ele>
        <time>2022-01-23T09:53:06.000Z</time>
      </trkpt>
      <trkpt lat="43.18323" lon="2.36143">
        <ele>137.2</ele>
        <time>2022-01-23T09:53:07.000Z</time>
      </trkpt>
      <trkpt lat="43.18325" lon="2.36144">
        <ele>137.1</ele>
        <time>2022-01-23T09:53:08.000Z</time>
      </trkpt>
      <trkpt lat="43.18327" lon="2.36145">
        <ele>137</ele>
        <time>2022-01-23T09:53:09.000Z</time>
      </trkpt>
      <trkpt lat="43.18328" lon="2.36146">
        <ele>136.9</ele>
        <time>2022-01-23T09:53:10.000Z</time>
      </trkpt>
      <trkpt lat="43.1833" lon="2.36147">
        <ele>136.8</ele>
        <time>2022-01-23T09:53:11.000Z</time>
      </trkpt>
      <trkpt lat="43.18331" lon="2.36148">
        <ele>136.7</ele>
        <time>2022-01-23T09:53:12.000Z</time>
      </trkpt>
      <trkpt lat="43.18332" lon="2.3615">
        <ele>136.7</ele>
        <time>2022-01-23T09:53:13.000Z</time>
      </trkpt>
      <trkpt lat="43.18333" lon="2.36151">
        <ele>136.6</ele>
        <time>2022-01-23T09:53:14.000Z</time>
      </trkpt>
      <trkpt lat="43.18334" lon="2.36153">
        <ele>136.7</ele>
        <time>2022-01-23T09:53:15.000Z</time>
      </trkpt>
      <trkpt lat="43.18334" lon="2.36154">
        <ele>136.7</ele>
        <time>2022-01-23T09:53:16.000Z</time>
      </trkpt>
    </trkseg>
  </trk>
</gpx>